<?xml version="1.0" encoding="UTF-8" standalone="no" ?>
<gpx xmlns="http://www.topografix.com/GPX/1/1" xmlns:xsi="http://www.w3.org/2001/XMLSchema-instance" xsi:schemaLocation="http://www.topografix.com/GPX/1/1 http://www.topografix.com/GPX/1/1/gpx.xsd" version="1.1" creator="VisuGPX - https://www.visugpx.com">
  <metadata>
    <name>Talmas</name>
  </metadata>
  <trk>
    <name><![CDATA[Talmas_1]]></name>
    <trkseg>
      <trkpt lat="50.03013" lon="2.32644">
        <ele>135.9</ele>
        <time>2023-12-20T13:00:41Z</time>
      </trkpt>
      <trkpt lat="50.03013" lon="2.32644">
        <ele>135.9</ele>
        <time>2023-12-20T13:00:42Z</time>
      </trkpt>
      <trkpt lat="50.03013" lon="2.32643">
        <ele>135.9</ele>
        <time>2023-12-20T13:00:43Z</time>
      </trkpt>
      <trkpt lat="50.03013" lon="2.32642">
        <ele>135.9</ele>
        <time>2023-12-20T13:00:44Z</time>
      </trkpt>
      <trkpt lat="50.03013" lon="2.32641">
        <ele>135.9</ele>
        <time>2023-12-20T13:00:45Z</time>
      </trkpt>
      <trkpt lat="50.03012" lon="2.32641">
        <ele>135.9</ele>
        <time>2023-12-20T13:00:46Z</time>
      </trkpt>
      <trkpt lat="50.03012" lon="2.3264">
        <ele>135.9</ele>
        <time>2023-12-20T13:00:47Z</time>
      </trkpt>
      <trkpt lat="50.03012" lon="2.32639">
        <ele>135.9</ele>
        <time>2023-12-20T13:00:48Z</time>
      </trkpt>
      <trkpt lat="50.03012" lon="2.32638">
        <ele>135.9</ele>
        <time>2023-12-20T13:00:49Z</time>
      </trkpt>
      <trkpt lat="50.03011" lon="2.32637">
        <ele>135.9</ele>
        <time>2023-12-20T13:00:51Z</time>
      </trkpt>
      <trkpt lat="50.0301" lon="2.32635">
        <ele>135.9</ele>
        <time>2023-12-20T13:00:52Z</time>
      </trkpt>
      <trkpt lat="50.03008" lon="2.32632">
        <ele>135.9</ele>
        <time>2023-12-20T13:00:53Z</time>
      </trkpt>
      <trkpt lat="50.03007" lon="2.32631">
        <ele>135.9</ele>
        <time>2023-12-20T13:00:54Z</time>
      </trkpt>
      <trkpt lat="50.03005" lon="2.32628">
        <ele>135.9</ele>
        <time>2023-12-20T13:00:55Z</time>
      </trkpt>
      <trkpt lat="50.03004" lon="2.32626">
        <ele>135.9</ele>
        <time>2023-12-20T13:00:57Z</time>
      </trkpt>
      <trkpt lat="50.03003" lon="2.32623">
        <ele>135.9</ele>
        <time>2023-12-20T13:00:58Z</time>
      </trkpt>
      <trkpt lat="50.03002" lon="2.32622">
        <ele>135.9</ele>
        <time>2023-12-20T13:00:59Z</time>
      </trkpt>
      <trkpt lat="50.03001" lon="2.3262">
        <ele>135.9</ele>
        <time>2023-12-20T13:01:00Z</time>
      </trkpt>
      <trkpt lat="50.03" lon="2.32619">
        <ele>135.9</ele>
        <time>2023-12-20T13:01:01Z</time>
      </trkpt>
      <trkpt lat="50.02999" lon="2.32618">
        <ele>135.9</ele>
        <time>2023-12-20T13:01:02Z</time>
      </trkpt>
      <trkpt lat="50.02997" lon="2.32617">
        <ele>135.9</ele>
        <time>2023-12-20T13:01:04Z</time>
      </trkpt>
      <trkpt lat="50.02997" lon="2.32617">
        <ele>135.9</ele>
        <time>2023-12-20T13:01:05Z</time>
      </trkpt>
      <trkpt lat="50.02996" lon="2.32616">
        <ele>135.9</ele>
        <time>2023-12-20T13:01:06Z</time>
      </trkpt>
      <trkpt lat="50.02996" lon="2.32616">
        <ele>135.9</ele>
        <time>2023-12-20T13:01:07Z</time>
      </trkpt>
      <trkpt lat="50.02995" lon="2.32614">
        <ele>135.9</ele>
        <time>2023-12-20T13:01:09Z</time>
      </trkpt>
      <trkpt lat="50.02994" lon="2.32614">
        <ele>135.9</ele>
        <time>2023-12-20T13:01:11Z</time>
      </trkpt>
      <trkpt lat="50.02993" lon="2.32612">
        <ele>135.9</ele>
        <time>2023-12-20T13:01:12Z</time>
      </trkpt>
      <trkpt lat="50.02992" lon="2.3261">
        <ele>135.8</ele>
        <time>2023-12-20T13:01:13Z</time>
      </trkpt>
      <trkpt lat="50.02991" lon="2.32609">
        <ele>135.8</ele>
        <time>2023-12-20T13:01:15Z</time>
      </trkpt>
      <trkpt lat="50.02991" lon="2.32608">
        <ele>135.8</ele>
        <time>2023-12-20T13:01:16Z</time>
      </trkpt>
      <trkpt lat="50.0299" lon="2.32607">
        <ele>135.8</ele>
        <time>2023-12-20T13:01:17Z</time>
      </trkpt>
      <trkpt lat="50.02989" lon="2.32607">
        <ele>135.8</ele>
        <time>2023-12-20T13:01:18Z</time>
      </trkpt>
      <trkpt lat="50.02989" lon="2.32606">
        <ele>135.8</ele>
        <time>2023-12-20T13:01:19Z</time>
      </trkpt>
      <trkpt lat="50.02989" lon="2.32605">
        <ele>135.8</ele>
        <time>2023-12-20T13:01:20Z</time>
      </trkpt>
      <trkpt lat="50.02987" lon="2.32603">
        <ele>135.8</ele>
        <time>2023-12-20T13:01:21Z</time>
      </trkpt>
      <trkpt lat="50.02986" lon="2.32602">
        <ele>135.8</ele>
        <time>2023-12-20T13:01:23Z</time>
      </trkpt>
      <trkpt lat="50.02985" lon="2.326">
        <ele>135.8</ele>
        <time>2023-12-20T13:01:24Z</time>
      </trkpt>
      <trkpt lat="50.02983" lon="2.32598">
        <ele>135.8</ele>
        <time>2023-12-20T13:01:25Z</time>
      </trkpt>
      <trkpt lat="50.02982" lon="2.32597">
        <ele>135.8</ele>
        <time>2023-12-20T13:01:26Z</time>
      </trkpt>
      <trkpt lat="50.02981" lon="2.32596">
        <ele>135.8</ele>
        <time>2023-12-20T13:01:27Z</time>
      </trkpt>
      <trkpt lat="50.02979" lon="2.32595">
        <ele>135.7</ele>
        <time>2023-12-20T13:01:29Z</time>
      </trkpt>
      <trkpt lat="50.02978" lon="2.32594">
        <ele>135.7</ele>
        <time>2023-12-20T13:01:30Z</time>
      </trkpt>
      <trkpt lat="50.02977" lon="2.32593">
        <ele>135.7</ele>
        <time>2023-12-20T13:01:31Z</time>
      </trkpt>
      <trkpt lat="50.02977" lon="2.32591">
        <ele>135.7</ele>
        <time>2023-12-20T13:01:32Z</time>
      </trkpt>
      <trkpt lat="50.02977" lon="2.3259">
        <ele>135.7</ele>
        <time>2023-12-20T13:01:33Z</time>
      </trkpt>
      <trkpt lat="50.02977" lon="2.3259">
        <ele>135.7</ele>
        <time>2023-12-20T13:01:34Z</time>
      </trkpt>
      <trkpt lat="50.02978" lon="2.3259">
        <ele>135.7</ele>
        <time>2023-12-20T13:01:35Z</time>
      </trkpt>
      <trkpt lat="50.02977" lon="2.3259">
        <ele>135.7</ele>
        <time>2023-12-20T13:01:37Z</time>
      </trkpt>
      <trkpt lat="50.02976" lon="2.3259">
        <ele>135.7</ele>
        <time>2023-12-20T13:01:38Z</time>
      </trkpt>
      <trkpt lat="50.02975" lon="2.3259">
        <ele>135.7</ele>
        <time>2023-12-20T13:01:39Z</time>
      </trkpt>
      <trkpt lat="50.02974" lon="2.3259">
        <ele>135.7</ele>
        <time>2023-12-20T13:01:40Z</time>
      </trkpt>
      <trkpt lat="50.02973" lon="2.3259">
        <ele>135.7</ele>
        <time>2023-12-20T13:01:41Z</time>
      </trkpt>
      <trkpt lat="50.02973" lon="2.3259">
        <ele>135.7</ele>
        <time>2023-12-20T13:01:42Z</time>
      </trkpt>
      <trkpt lat="50.02972" lon="2.32589">
        <ele>135.7</ele>
        <time>2023-12-20T13:01:43Z</time>
      </trkpt>
      <trkpt lat="50.02971" lon="2.32588">
        <ele>135.7</ele>
        <time>2023-12-20T13:01:45Z</time>
      </trkpt>
      <trkpt lat="50.0297" lon="2.32586">
        <ele>135.7</ele>
        <time>2023-12-20T13:01:46Z</time>
      </trkpt>
      <trkpt lat="50.02969" lon="2.32584">
        <ele>135.7</ele>
        <time>2023-12-20T13:01:47Z</time>
      </trkpt>
      <trkpt lat="50.02968" lon="2.3258">
        <ele>135.6</ele>
        <time>2023-12-20T13:01:48Z</time>
      </trkpt>
      <trkpt lat="50.02968" lon="2.32579">
        <ele>135.6</ele>
        <time>2023-12-20T13:01:49Z</time>
      </trkpt>
      <trkpt lat="50.02967" lon="2.32575">
        <ele>135.6</ele>
        <time>2023-12-20T13:01:50Z</time>
      </trkpt>
      <trkpt lat="50.02967" lon="2.32573">
        <ele>135.6</ele>
        <time>2023-12-20T13:01:51Z</time>
      </trkpt>
      <trkpt lat="50.02965" lon="2.3257">
        <ele>135.6</ele>
        <time>2023-12-20T13:01:52Z</time>
      </trkpt>
      <trkpt lat="50.02964" lon="2.32569">
        <ele>135.6</ele>
        <time>2023-12-20T13:01:54Z</time>
      </trkpt>
      <trkpt lat="50.02963" lon="2.32568">
        <ele>135.6</ele>
        <time>2023-12-20T13:01:55Z</time>
      </trkpt>
      <trkpt lat="50.02962" lon="2.32566">
        <ele>135.6</ele>
        <time>2023-12-20T13:01:56Z</time>
      </trkpt>
      <trkpt lat="50.02962" lon="2.32565">
        <ele>135.6</ele>
        <time>2023-12-20T13:01:57Z</time>
      </trkpt>
      <trkpt lat="50.0296" lon="2.32564">
        <ele>135.6</ele>
        <time>2023-12-20T13:01:58Z</time>
      </trkpt>
      <trkpt lat="50.02959" lon="2.32562">
        <ele>135.6</ele>
        <time>2023-12-20T13:01:59Z</time>
      </trkpt>
      <trkpt lat="50.02958" lon="2.32561">
        <ele>135.6</ele>
        <time>2023-12-20T13:02:00Z</time>
      </trkpt>
      <trkpt lat="50.02956" lon="2.3256">
        <ele>135.6</ele>
        <time>2023-12-20T13:02:01Z</time>
      </trkpt>
      <trkpt lat="50.02954" lon="2.32559">
        <ele>135.6</ele>
        <time>2023-12-20T13:02:03Z</time>
      </trkpt>
      <trkpt lat="50.02953" lon="2.32559">
        <ele>135.6</ele>
        <time>2023-12-20T13:02:04Z</time>
      </trkpt>
      <trkpt lat="50.02953" lon="2.32559">
        <ele>135.6</ele>
        <time>2023-12-20T13:02:05Z</time>
      </trkpt>
      <trkpt lat="50.02952" lon="2.32558">
        <ele>135.6</ele>
        <time>2023-12-20T13:02:06Z</time>
      </trkpt>
      <trkpt lat="50.02951" lon="2.32557">
        <ele>135.6</ele>
        <time>2023-12-20T13:02:07Z</time>
      </trkpt>
      <trkpt lat="50.0295" lon="2.32556">
        <ele>135.6</ele>
        <time>2023-12-20T13:02:08Z</time>
      </trkpt>
      <trkpt lat="50.02947" lon="2.32555">
        <ele>135.6</ele>
        <time>2023-12-20T13:02:09Z</time>
      </trkpt>
      <trkpt lat="50.02946" lon="2.32555">
        <ele>135.6</ele>
        <time>2023-12-20T13:02:10Z</time>
      </trkpt>
      <trkpt lat="50.02943" lon="2.32555">
        <ele>135.6</ele>
        <time>2023-12-20T13:02:12Z</time>
      </trkpt>
      <trkpt lat="50.02942" lon="2.32555">
        <ele>135.6</ele>
        <time>2023-12-20T13:02:13Z</time>
      </trkpt>
      <trkpt lat="50.02939" lon="2.32555">
        <ele>135.6</ele>
        <time>2023-12-20T13:02:14Z</time>
      </trkpt>
      <trkpt lat="50.02938" lon="2.32555">
        <ele>135.6</ele>
        <time>2023-12-20T13:02:15Z</time>
      </trkpt>
      <trkpt lat="50.02936" lon="2.32556">
        <ele>135.6</ele>
        <time>2023-12-20T13:02:16Z</time>
      </trkpt>
      <trkpt lat="50.02935" lon="2.32555">
        <ele>135.6</ele>
        <time>2023-12-20T13:02:17Z</time>
      </trkpt>
      <trkpt lat="50.02933" lon="2.32555">
        <ele>135.6</ele>
        <time>2023-12-20T13:02:18Z</time>
      </trkpt>
      <trkpt lat="50.02932" lon="2.32555">
        <ele>135.6</ele>
        <time>2023-12-20T13:02:19Z</time>
      </trkpt>
      <trkpt lat="50.0293" lon="2.32555">
        <ele>135.6</ele>
        <time>2023-12-20T13:02:21Z</time>
      </trkpt>
      <trkpt lat="50.02929" lon="2.32556">
        <ele>135.6</ele>
        <time>2023-12-20T13:02:22Z</time>
      </trkpt>
      <trkpt lat="50.02927" lon="2.32556">
        <ele>135.7</ele>
        <time>2023-12-20T13:02:23Z</time>
      </trkpt>
      <trkpt lat="50.02926" lon="2.32557">
        <ele>135.7</ele>
        <time>2023-12-20T13:02:24Z</time>
      </trkpt>
      <trkpt lat="50.02923" lon="2.32558">
        <ele>135.7</ele>
        <time>2023-12-20T13:02:26Z</time>
      </trkpt>
      <trkpt lat="50.02923" lon="2.32558">
        <ele>135.7</ele>
        <time>2023-12-20T13:02:27Z</time>
      </trkpt>
      <trkpt lat="50.02922" lon="2.32558">
        <ele>135.7</ele>
        <time>2023-12-20T13:02:28Z</time>
      </trkpt>
      <trkpt lat="50.0292" lon="2.32558">
        <ele>135.7</ele>
        <time>2023-12-20T13:02:29Z</time>
      </trkpt>
      <trkpt lat="50.02919" lon="2.32558">
        <ele>135.7</ele>
        <time>2023-12-20T13:02:30Z</time>
      </trkpt>
      <trkpt lat="50.02918" lon="2.32558">
        <ele>135.7</ele>
        <time>2023-12-20T13:02:31Z</time>
      </trkpt>
      <trkpt lat="50.02917" lon="2.32558">
        <ele>135.7</ele>
        <time>2023-12-20T13:02:32Z</time>
      </trkpt>
      <trkpt lat="50.02916" lon="2.32558">
        <ele>135.7</ele>
        <time>2023-12-20T13:02:33Z</time>
      </trkpt>
      <trkpt lat="50.02915" lon="2.32559">
        <ele>135.7</ele>
        <time>2023-12-20T13:02:34Z</time>
      </trkpt>
      <trkpt lat="50.02913" lon="2.32559">
        <ele>135.7</ele>
        <time>2023-12-20T13:02:36Z</time>
      </trkpt>
      <trkpt lat="50.02912" lon="2.32559">
        <ele>135.7</ele>
        <time>2023-12-20T13:02:37Z</time>
      </trkpt>
      <trkpt lat="50.02911" lon="2.32559">
        <ele>135.7</ele>
        <time>2023-12-20T13:02:38Z</time>
      </trkpt>
      <trkpt lat="50.02909" lon="2.32559">
        <ele>135.7</ele>
        <time>2023-12-20T13:02:39Z</time>
      </trkpt>
      <trkpt lat="50.02908" lon="2.32559">
        <ele>135.7</ele>
        <time>2023-12-20T13:02:40Z</time>
      </trkpt>
      <trkpt lat="50.02907" lon="2.32559">
        <ele>135.7</ele>
        <time>2023-12-20T13:02:42Z</time>
      </trkpt>
      <trkpt lat="50.02906" lon="2.32559">
        <ele>135.7</ele>
        <time>2023-12-20T13:02:43Z</time>
      </trkpt>
      <trkpt lat="50.02905" lon="2.32559">
        <ele>135.7</ele>
        <time>2023-12-20T13:02:44Z</time>
      </trkpt>
      <trkpt lat="50.02904" lon="2.32559">
        <ele>135.7</ele>
        <time>2023-12-20T13:02:45Z</time>
      </trkpt>
      <trkpt lat="50.02903" lon="2.32559">
        <ele>135.7</ele>
        <time>2023-12-20T13:02:46Z</time>
      </trkpt>
      <trkpt lat="50.02901" lon="2.32558">
        <ele>135.7</ele>
        <time>2023-12-20T13:02:47Z</time>
      </trkpt>
      <trkpt lat="50.029" lon="2.32558">
        <ele>135.7</ele>
        <time>2023-12-20T13:02:48Z</time>
      </trkpt>
      <trkpt lat="50.02898" lon="2.32558">
        <ele>135.7</ele>
        <time>2023-12-20T13:02:49Z</time>
      </trkpt>
      <trkpt lat="50.02897" lon="2.32557">
        <ele>135.7</ele>
        <time>2023-12-20T13:02:51Z</time>
      </trkpt>
      <trkpt lat="50.02896" lon="2.32557">
        <ele>135.6</ele>
        <time>2023-12-20T13:02:52Z</time>
      </trkpt>
      <trkpt lat="50.02893" lon="2.32557">
        <ele>135.6</ele>
        <time>2023-12-20T13:02:53Z</time>
      </trkpt>
      <trkpt lat="50.02893" lon="2.32557">
        <ele>135.6</ele>
        <time>2023-12-20T13:02:54Z</time>
      </trkpt>
      <trkpt lat="50.02892" lon="2.32556">
        <ele>135.6</ele>
        <time>2023-12-20T13:02:55Z</time>
      </trkpt>
      <trkpt lat="50.0289" lon="2.32556">
        <ele>135.6</ele>
        <time>2023-12-20T13:02:56Z</time>
      </trkpt>
      <trkpt lat="50.02889" lon="2.32555">
        <ele>135.6</ele>
        <time>2023-12-20T13:02:57Z</time>
      </trkpt>
      <trkpt lat="50.02888" lon="2.32554">
        <ele>135.6</ele>
        <time>2023-12-20T13:02:58Z</time>
      </trkpt>
      <trkpt lat="50.02886" lon="2.32553">
        <ele>135.6</ele>
        <time>2023-12-20T13:02:59Z</time>
      </trkpt>
      <trkpt lat="50.02884" lon="2.32552">
        <ele>135.6</ele>
        <time>2023-12-20T13:03:00Z</time>
      </trkpt>
      <trkpt lat="50.02883" lon="2.32552">
        <ele>135.6</ele>
        <time>2023-12-20T13:03:02Z</time>
      </trkpt>
      <trkpt lat="50.02882" lon="2.32552">
        <ele>135.5</ele>
        <time>2023-12-20T13:03:03Z</time>
      </trkpt>
      <trkpt lat="50.02881" lon="2.32552">
        <ele>135.5</ele>
        <time>2023-12-20T13:03:04Z</time>
      </trkpt>
      <trkpt lat="50.0288" lon="2.32552">
        <ele>135.5</ele>
        <time>2023-12-20T13:03:05Z</time>
      </trkpt>
      <trkpt lat="50.02879" lon="2.32551">
        <ele>135.5</ele>
        <time>2023-12-20T13:03:06Z</time>
      </trkpt>
      <trkpt lat="50.02878" lon="2.32551">
        <ele>135.5</ele>
        <time>2023-12-20T13:03:07Z</time>
      </trkpt>
      <trkpt lat="50.02877" lon="2.32551">
        <ele>135.5</ele>
        <time>2023-12-20T13:03:08Z</time>
      </trkpt>
      <trkpt lat="50.02876" lon="2.3255">
        <ele>135.5</ele>
        <time>2023-12-20T13:03:10Z</time>
      </trkpt>
      <trkpt lat="50.02874" lon="2.3255">
        <ele>135.5</ele>
        <time>2023-12-20T13:03:11Z</time>
      </trkpt>
      <trkpt lat="50.02873" lon="2.32549">
        <ele>135.5</ele>
        <time>2023-12-20T13:03:12Z</time>
      </trkpt>
      <trkpt lat="50.02872" lon="2.32549">
        <ele>135.5</ele>
        <time>2023-12-20T13:03:13Z</time>
      </trkpt>
      <trkpt lat="50.02871" lon="2.32548">
        <ele>135.5</ele>
        <time>2023-12-20T13:03:14Z</time>
      </trkpt>
      <trkpt lat="50.0287" lon="2.32548">
        <ele>135.4</ele>
        <time>2023-12-20T13:03:15Z</time>
      </trkpt>
      <trkpt lat="50.02869" lon="2.32548">
        <ele>135.4</ele>
        <time>2023-12-20T13:03:16Z</time>
      </trkpt>
      <trkpt lat="50.02868" lon="2.32547">
        <ele>135.4</ele>
        <time>2023-12-20T13:03:17Z</time>
      </trkpt>
      <trkpt lat="50.02867" lon="2.32547">
        <ele>135.4</ele>
        <time>2023-12-20T13:03:18Z</time>
      </trkpt>
      <trkpt lat="50.02866" lon="2.32547">
        <ele>135.4</ele>
        <time>2023-12-20T13:03:20Z</time>
      </trkpt>
      <trkpt lat="50.02865" lon="2.32547">
        <ele>135.4</ele>
        <time>2023-12-20T13:03:21Z</time>
      </trkpt>
      <trkpt lat="50.02864" lon="2.32546">
        <ele>135.4</ele>
        <time>2023-12-20T13:03:22Z</time>
      </trkpt>
      <trkpt lat="50.02862" lon="2.32545">
        <ele>135.4</ele>
        <time>2023-12-20T13:03:23Z</time>
      </trkpt>
      <trkpt lat="50.02862" lon="2.32544">
        <ele>135.4</ele>
        <time>2023-12-20T13:03:24Z</time>
      </trkpt>
      <trkpt lat="50.02861" lon="2.32543">
        <ele>135.4</ele>
        <time>2023-12-20T13:03:25Z</time>
      </trkpt>
      <trkpt lat="50.0286" lon="2.32542">
        <ele>135.4</ele>
        <time>2023-12-20T13:03:26Z</time>
      </trkpt>
      <trkpt lat="50.02859" lon="2.32541">
        <ele>135.4</ele>
        <time>2023-12-20T13:03:28Z</time>
      </trkpt>
      <trkpt lat="50.02858" lon="2.32539">
        <ele>135.3</ele>
        <time>2023-12-20T13:03:29Z</time>
      </trkpt>
      <trkpt lat="50.02856" lon="2.32538">
        <ele>135.3</ele>
        <time>2023-12-20T13:03:30Z</time>
      </trkpt>
      <trkpt lat="50.02855" lon="2.32538">
        <ele>135.3</ele>
        <time>2023-12-20T13:03:31Z</time>
      </trkpt>
      <trkpt lat="50.02853" lon="2.32536">
        <ele>135.3</ele>
        <time>2023-12-20T13:03:33Z</time>
      </trkpt>
      <trkpt lat="50.02852" lon="2.32535">
        <ele>135.3</ele>
        <time>2023-12-20T13:03:34Z</time>
      </trkpt>
      <trkpt lat="50.02851" lon="2.32534">
        <ele>135.3</ele>
        <time>2023-12-20T13:03:36Z</time>
      </trkpt>
      <trkpt lat="50.02849" lon="2.32532">
        <ele>135.3</ele>
        <time>2023-12-20T13:03:37Z</time>
      </trkpt>
      <trkpt lat="50.02848" lon="2.32532">
        <ele>135.3</ele>
        <time>2023-12-20T13:03:38Z</time>
      </trkpt>
      <trkpt lat="50.02846" lon="2.3253">
        <ele>135.3</ele>
        <time>2023-12-20T13:03:39Z</time>
      </trkpt>
      <trkpt lat="50.02845" lon="2.3253">
        <ele>135.3</ele>
        <time>2023-12-20T13:03:40Z</time>
      </trkpt>
      <trkpt lat="50.02844" lon="2.32529">
        <ele>135.3</ele>
        <time>2023-12-20T13:03:41Z</time>
      </trkpt>
      <trkpt lat="50.02842" lon="2.32528">
        <ele>135.3</ele>
        <time>2023-12-20T13:03:42Z</time>
      </trkpt>
      <trkpt lat="50.02841" lon="2.32528">
        <ele>135.2</ele>
        <time>2023-12-20T13:03:44Z</time>
      </trkpt>
      <trkpt lat="50.0284" lon="2.32527">
        <ele>135.2</ele>
        <time>2023-12-20T13:03:45Z</time>
      </trkpt>
      <trkpt lat="50.02838" lon="2.32526">
        <ele>135.2</ele>
        <time>2023-12-20T13:03:46Z</time>
      </trkpt>
      <trkpt lat="50.02838" lon="2.32526">
        <ele>135.2</ele>
        <time>2023-12-20T13:03:47Z</time>
      </trkpt>
      <trkpt lat="50.02837" lon="2.32525">
        <ele>135.2</ele>
        <time>2023-12-20T13:03:48Z</time>
      </trkpt>
      <trkpt lat="50.02835" lon="2.32524">
        <ele>135.2</ele>
        <time>2023-12-20T13:03:49Z</time>
      </trkpt>
      <trkpt lat="50.02834" lon="2.32523">
        <ele>135.2</ele>
        <time>2023-12-20T13:03:50Z</time>
      </trkpt>
      <trkpt lat="50.02833" lon="2.32523">
        <ele>135.2</ele>
        <time>2023-12-20T13:03:51Z</time>
      </trkpt>
      <trkpt lat="50.02832" lon="2.32522">
        <ele>135.2</ele>
        <time>2023-12-20T13:03:53Z</time>
      </trkpt>
      <trkpt lat="50.02831" lon="2.32521">
        <ele>135.2</ele>
        <time>2023-12-20T13:03:54Z</time>
      </trkpt>
      <trkpt lat="50.0283" lon="2.3252">
        <ele>135.2</ele>
        <time>2023-12-20T13:03:55Z</time>
      </trkpt>
      <trkpt lat="50.02828" lon="2.32518">
        <ele>135.1</ele>
        <time>2023-12-20T13:03:56Z</time>
      </trkpt>
      <trkpt lat="50.02827" lon="2.32518">
        <ele>135.1</ele>
        <time>2023-12-20T13:03:57Z</time>
      </trkpt>
      <trkpt lat="50.02825" lon="2.32517">
        <ele>135.1</ele>
        <time>2023-12-20T13:03:58Z</time>
      </trkpt>
      <trkpt lat="50.02824" lon="2.32516">
        <ele>135.1</ele>
        <time>2023-12-20T13:03:59Z</time>
      </trkpt>
      <trkpt lat="50.02823" lon="2.32516">
        <ele>135.1</ele>
        <time>2023-12-20T13:04:00Z</time>
      </trkpt>
      <trkpt lat="50.02822" lon="2.32516">
        <ele>135.1</ele>
        <time>2023-12-20T13:04:01Z</time>
      </trkpt>
      <trkpt lat="50.02821" lon="2.32516">
        <ele>135.1</ele>
        <time>2023-12-20T13:04:02Z</time>
      </trkpt>
      <trkpt lat="50.0282" lon="2.32516">
        <ele>135.1</ele>
        <time>2023-12-20T13:04:04Z</time>
      </trkpt>
      <trkpt lat="50.02819" lon="2.32517">
        <ele>135.1</ele>
        <time>2023-12-20T13:04:05Z</time>
      </trkpt>
      <trkpt lat="50.02818" lon="2.32518">
        <ele>135.1</ele>
        <time>2023-12-20T13:04:06Z</time>
      </trkpt>
      <trkpt lat="50.02818" lon="2.32518">
        <ele>135.1</ele>
        <time>2023-12-20T13:04:07Z</time>
      </trkpt>
      <trkpt lat="50.02817" lon="2.32519">
        <ele>135.1</ele>
        <time>2023-12-20T13:04:08Z</time>
      </trkpt>
      <trkpt lat="50.02816" lon="2.3252">
        <ele>135.1</ele>
        <time>2023-12-20T13:04:09Z</time>
      </trkpt>
      <trkpt lat="50.02815" lon="2.32521">
        <ele>135.1</ele>
        <time>2023-12-20T13:04:10Z</time>
      </trkpt>
      <trkpt lat="50.02813" lon="2.32524">
        <ele>135.1</ele>
        <time>2023-12-20T13:04:11Z</time>
      </trkpt>
      <trkpt lat="50.02812" lon="2.32525">
        <ele>135.1</ele>
        <time>2023-12-20T13:04:13Z</time>
      </trkpt>
      <trkpt lat="50.02811" lon="2.32527">
        <ele>135.1</ele>
        <time>2023-12-20T13:04:14Z</time>
      </trkpt>
      <trkpt lat="50.0281" lon="2.32528">
        <ele>135.1</ele>
        <time>2023-12-20T13:04:15Z</time>
      </trkpt>
      <trkpt lat="50.02809" lon="2.3253">
        <ele>135.1</ele>
        <time>2023-12-20T13:04:16Z</time>
      </trkpt>
      <trkpt lat="50.02808" lon="2.32534">
        <ele>135.1</ele>
        <time>2023-12-20T13:04:18Z</time>
      </trkpt>
      <trkpt lat="50.02807" lon="2.32535">
        <ele>135.1</ele>
        <time>2023-12-20T13:04:19Z</time>
      </trkpt>
      <trkpt lat="50.02806" lon="2.32537">
        <ele>135.1</ele>
        <time>2023-12-20T13:04:21Z</time>
      </trkpt>
      <trkpt lat="50.02804" lon="2.32538">
        <ele>135</ele>
        <time>2023-12-20T13:04:22Z</time>
      </trkpt>
      <trkpt lat="50.02803" lon="2.3254">
        <ele>135</ele>
        <time>2023-12-20T13:04:23Z</time>
      </trkpt>
      <trkpt lat="50.02802" lon="2.32542">
        <ele>135</ele>
        <time>2023-12-20T13:04:24Z</time>
      </trkpt>
      <trkpt lat="50.02801" lon="2.32544">
        <ele>135</ele>
        <time>2023-12-20T13:04:25Z</time>
      </trkpt>
      <trkpt lat="50.02799" lon="2.32545">
        <ele>135</ele>
        <time>2023-12-20T13:04:26Z</time>
      </trkpt>
      <trkpt lat="50.02798" lon="2.32547">
        <ele>135</ele>
        <time>2023-12-20T13:04:27Z</time>
      </trkpt>
      <trkpt lat="50.02795" lon="2.32549">
        <ele>134.9</ele>
        <time>2023-12-20T13:04:29Z</time>
      </trkpt>
      <trkpt lat="50.02795" lon="2.3255">
        <ele>134.9</ele>
        <time>2023-12-20T13:04:30Z</time>
      </trkpt>
      <trkpt lat="50.02792" lon="2.32553">
        <ele>134.9</ele>
        <time>2023-12-20T13:04:31Z</time>
      </trkpt>
      <trkpt lat="50.02791" lon="2.32555">
        <ele>134.9</ele>
        <time>2023-12-20T13:04:32Z</time>
      </trkpt>
      <trkpt lat="50.02789" lon="2.32557">
        <ele>134.9</ele>
        <time>2023-12-20T13:04:33Z</time>
      </trkpt>
      <trkpt lat="50.02788" lon="2.32557">
        <ele>134.8</ele>
        <time>2023-12-20T13:04:35Z</time>
      </trkpt>
      <trkpt lat="50.02788" lon="2.32558">
        <ele>134.8</ele>
        <time>2023-12-20T13:04:36Z</time>
      </trkpt>
      <trkpt lat="50.02787" lon="2.3256">
        <ele>134.8</ele>
        <time>2023-12-20T13:04:37Z</time>
      </trkpt>
      <trkpt lat="50.02786" lon="2.3256">
        <ele>134.8</ele>
        <time>2023-12-20T13:04:38Z</time>
      </trkpt>
      <trkpt lat="50.02785" lon="2.32561">
        <ele>134.8</ele>
        <time>2023-12-20T13:04:39Z</time>
      </trkpt>
      <trkpt lat="50.02783" lon="2.32562">
        <ele>134.8</ele>
        <time>2023-12-20T13:04:40Z</time>
      </trkpt>
      <trkpt lat="50.02782" lon="2.32563">
        <ele>134.8</ele>
        <time>2023-12-20T13:04:41Z</time>
      </trkpt>
      <trkpt lat="50.02781" lon="2.32563">
        <ele>134.8</ele>
        <time>2023-12-20T13:04:42Z</time>
      </trkpt>
      <trkpt lat="50.0278" lon="2.32565">
        <ele>134.8</ele>
        <time>2023-12-20T13:04:43Z</time>
      </trkpt>
      <trkpt lat="50.02779" lon="2.32565">
        <ele>134.8</ele>
        <time>2023-12-20T13:04:44Z</time>
      </trkpt>
      <trkpt lat="50.02778" lon="2.32565">
        <ele>134.7</ele>
        <time>2023-12-20T13:04:46Z</time>
      </trkpt>
      <trkpt lat="50.02777" lon="2.32564">
        <ele>134.7</ele>
        <time>2023-12-20T13:04:47Z</time>
      </trkpt>
      <trkpt lat="50.02775" lon="2.32564">
        <ele>134.7</ele>
        <time>2023-12-20T13:04:48Z</time>
      </trkpt>
      <trkpt lat="50.02774" lon="2.32564">
        <ele>134.7</ele>
        <time>2023-12-20T13:04:49Z</time>
      </trkpt>
      <trkpt lat="50.02773" lon="2.32565">
        <ele>134.7</ele>
        <time>2023-12-20T13:04:50Z</time>
      </trkpt>
      <trkpt lat="50.02772" lon="2.32565">
        <ele>134.7</ele>
        <time>2023-12-20T13:04:51Z</time>
      </trkpt>
      <trkpt lat="50.02771" lon="2.32565">
        <ele>134.7</ele>
        <time>2023-12-20T13:04:52Z</time>
      </trkpt>
      <trkpt lat="50.0277" lon="2.32566">
        <ele>134.7</ele>
        <time>2023-12-20T13:04:53Z</time>
      </trkpt>
      <trkpt lat="50.02769" lon="2.32567">
        <ele>134.7</ele>
        <time>2023-12-20T13:04:54Z</time>
      </trkpt>
      <trkpt lat="50.02768" lon="2.32568">
        <ele>134.7</ele>
        <time>2023-12-20T13:04:56Z</time>
      </trkpt>
      <trkpt lat="50.02767" lon="2.32568">
        <ele>134.8</ele>
        <time>2023-12-20T13:04:57Z</time>
      </trkpt>
      <trkpt lat="50.02766" lon="2.32569">
        <ele>134.8</ele>
        <time>2023-12-20T13:04:58Z</time>
      </trkpt>
      <trkpt lat="50.02764" lon="2.3257">
        <ele>134.8</ele>
        <time>2023-12-20T13:04:59Z</time>
      </trkpt>
      <trkpt lat="50.02763" lon="2.3257">
        <ele>134.8</ele>
        <time>2023-12-20T13:05:00Z</time>
      </trkpt>
      <trkpt lat="50.02762" lon="2.3257">
        <ele>134.8</ele>
        <time>2023-12-20T13:05:01Z</time>
      </trkpt>
      <trkpt lat="50.02761" lon="2.32572">
        <ele>134.8</ele>
        <time>2023-12-20T13:05:02Z</time>
      </trkpt>
      <trkpt lat="50.0276" lon="2.32573">
        <ele>134.8</ele>
        <time>2023-12-20T13:05:03Z</time>
      </trkpt>
      <trkpt lat="50.02759" lon="2.32574">
        <ele>134.8</ele>
        <time>2023-12-20T13:05:05Z</time>
      </trkpt>
      <trkpt lat="50.02758" lon="2.32575">
        <ele>134.8</ele>
        <time>2023-12-20T13:05:06Z</time>
      </trkpt>
      <trkpt lat="50.02757" lon="2.32577">
        <ele>134.8</ele>
        <time>2023-12-20T13:05:07Z</time>
      </trkpt>
      <trkpt lat="50.02757" lon="2.32578">
        <ele>134.8</ele>
        <time>2023-12-20T13:05:08Z</time>
      </trkpt>
      <trkpt lat="50.02756" lon="2.32579">
        <ele>134.8</ele>
        <time>2023-12-20T13:05:09Z</time>
      </trkpt>
      <trkpt lat="50.02755" lon="2.3258">
        <ele>134.8</ele>
        <time>2023-12-20T13:05:10Z</time>
      </trkpt>
      <trkpt lat="50.02753" lon="2.32581">
        <ele>134.9</ele>
        <time>2023-12-20T13:05:11Z</time>
      </trkpt>
      <trkpt lat="50.02752" lon="2.32582">
        <ele>134.9</ele>
        <time>2023-12-20T13:05:12Z</time>
      </trkpt>
      <trkpt lat="50.02751" lon="2.32583">
        <ele>134.9</ele>
        <time>2023-12-20T13:05:13Z</time>
      </trkpt>
      <trkpt lat="50.0275" lon="2.32584">
        <ele>134.9</ele>
        <time>2023-12-20T13:05:14Z</time>
      </trkpt>
      <trkpt lat="50.02748" lon="2.32586">
        <ele>134.9</ele>
        <time>2023-12-20T13:05:16Z</time>
      </trkpt>
      <trkpt lat="50.02747" lon="2.32587">
        <ele>134.9</ele>
        <time>2023-12-20T13:05:17Z</time>
      </trkpt>
      <trkpt lat="50.02747" lon="2.32588">
        <ele>134.9</ele>
        <time>2023-12-20T13:05:18Z</time>
      </trkpt>
      <trkpt lat="50.02745" lon="2.3259">
        <ele>135</ele>
        <time>2023-12-20T13:05:19Z</time>
      </trkpt>
      <trkpt lat="50.02744" lon="2.3259">
        <ele>135</ele>
        <time>2023-12-20T13:05:20Z</time>
      </trkpt>
      <trkpt lat="50.02743" lon="2.32591">
        <ele>135</ele>
        <time>2023-12-20T13:05:21Z</time>
      </trkpt>
      <trkpt lat="50.02742" lon="2.32592">
        <ele>135</ele>
        <time>2023-12-20T13:05:22Z</time>
      </trkpt>
      <trkpt lat="50.02741" lon="2.32593">
        <ele>135</ele>
        <time>2023-12-20T13:05:23Z</time>
      </trkpt>
      <trkpt lat="50.0274" lon="2.32594">
        <ele>135</ele>
        <time>2023-12-20T13:05:24Z</time>
      </trkpt>
      <trkpt lat="50.02738" lon="2.32595">
        <ele>135</ele>
        <time>2023-12-20T13:05:26Z</time>
      </trkpt>
      <trkpt lat="50.02737" lon="2.32596">
        <ele>135</ele>
        <time>2023-12-20T13:05:27Z</time>
      </trkpt>
      <trkpt lat="50.02737" lon="2.32596">
        <ele>135</ele>
        <time>2023-12-20T13:05:28Z</time>
      </trkpt>
      <trkpt lat="50.02735" lon="2.32597">
        <ele>135</ele>
        <time>2023-12-20T13:05:29Z</time>
      </trkpt>
      <trkpt lat="50.02734" lon="2.32597">
        <ele>135</ele>
        <time>2023-12-20T13:05:30Z</time>
      </trkpt>
      <trkpt lat="50.02733" lon="2.32599">
        <ele>135</ele>
        <time>2023-12-20T13:05:31Z</time>
      </trkpt>
      <trkpt lat="50.02731" lon="2.326">
        <ele>135.1</ele>
        <time>2023-12-20T13:05:32Z</time>
      </trkpt>
      <trkpt lat="50.0273" lon="2.32601">
        <ele>135.1</ele>
        <time>2023-12-20T13:05:34Z</time>
      </trkpt>
      <trkpt lat="50.02729" lon="2.32602">
        <ele>135.1</ele>
        <time>2023-12-20T13:05:35Z</time>
      </trkpt>
      <trkpt lat="50.02728" lon="2.32602">
        <ele>135.1</ele>
        <time>2023-12-20T13:05:36Z</time>
      </trkpt>
      <trkpt lat="50.02727" lon="2.32603">
        <ele>135.1</ele>
        <time>2023-12-20T13:05:37Z</time>
      </trkpt>
      <trkpt lat="50.02726" lon="2.32604">
        <ele>135.1</ele>
        <time>2023-12-20T13:05:38Z</time>
      </trkpt>
      <trkpt lat="50.02725" lon="2.32604">
        <ele>135.1</ele>
        <time>2023-12-20T13:05:40Z</time>
      </trkpt>
      <trkpt lat="50.02724" lon="2.32604">
        <ele>135.1</ele>
        <time>2023-12-20T13:05:41Z</time>
      </trkpt>
      <trkpt lat="50.02723" lon="2.32604">
        <ele>135.1</ele>
        <time>2023-12-20T13:05:42Z</time>
      </trkpt>
      <trkpt lat="50.02721" lon="2.32605">
        <ele>135.1</ele>
        <time>2023-12-20T13:05:43Z</time>
      </trkpt>
      <trkpt lat="50.0272" lon="2.32606">
        <ele>135.1</ele>
        <time>2023-12-20T13:05:44Z</time>
      </trkpt>
      <trkpt lat="50.02719" lon="2.32606">
        <ele>135.1</ele>
        <time>2023-12-20T13:05:45Z</time>
      </trkpt>
      <trkpt lat="50.02718" lon="2.32607">
        <ele>135.1</ele>
        <time>2023-12-20T13:05:46Z</time>
      </trkpt>
      <trkpt lat="50.02717" lon="2.32607">
        <ele>135.1</ele>
        <time>2023-12-20T13:05:47Z</time>
      </trkpt>
      <trkpt lat="50.02716" lon="2.32608">
        <ele>135.1</ele>
        <time>2023-12-20T13:05:48Z</time>
      </trkpt>
      <trkpt lat="50.02714" lon="2.32608">
        <ele>135.1</ele>
        <time>2023-12-20T13:05:49Z</time>
      </trkpt>
      <trkpt lat="50.02713" lon="2.32609">
        <ele>135.2</ele>
        <time>2023-12-20T13:05:50Z</time>
      </trkpt>
      <trkpt lat="50.02712" lon="2.32609">
        <ele>135.2</ele>
        <time>2023-12-20T13:05:51Z</time>
      </trkpt>
      <trkpt lat="50.02711" lon="2.32608">
        <ele>135.2</ele>
        <time>2023-12-20T13:05:53Z</time>
      </trkpt>
      <trkpt lat="50.0271" lon="2.32608">
        <ele>135.2</ele>
        <time>2023-12-20T13:05:54Z</time>
      </trkpt>
      <trkpt lat="50.02709" lon="2.32608">
        <ele>135.2</ele>
        <time>2023-12-20T13:05:55Z</time>
      </trkpt>
      <trkpt lat="50.02709" lon="2.32608">
        <ele>135.2</ele>
        <time>2023-12-20T13:05:56Z</time>
      </trkpt>
      <trkpt lat="50.02707" lon="2.32608">
        <ele>135.2</ele>
        <time>2023-12-20T13:05:57Z</time>
      </trkpt>
      <trkpt lat="50.02706" lon="2.32609">
        <ele>135.2</ele>
        <time>2023-12-20T13:05:58Z</time>
      </trkpt>
      <trkpt lat="50.02705" lon="2.32609">
        <ele>135.2</ele>
        <time>2023-12-20T13:05:59Z</time>
      </trkpt>
      <trkpt lat="50.02704" lon="2.32609">
        <ele>135.2</ele>
        <time>2023-12-20T13:06:01Z</time>
      </trkpt>
      <trkpt lat="50.02703" lon="2.3261">
        <ele>135.2</ele>
        <time>2023-12-20T13:06:02Z</time>
      </trkpt>
      <trkpt lat="50.02702" lon="2.3261">
        <ele>135.1</ele>
        <time>2023-12-20T13:06:03Z</time>
      </trkpt>
      <trkpt lat="50.027" lon="2.3261">
        <ele>135.1</ele>
        <time>2023-12-20T13:06:04Z</time>
      </trkpt>
      <trkpt lat="50.02699" lon="2.3261">
        <ele>135.1</ele>
        <time>2023-12-20T13:06:05Z</time>
      </trkpt>
      <trkpt lat="50.02698" lon="2.3261">
        <ele>135.1</ele>
        <time>2023-12-20T13:06:06Z</time>
      </trkpt>
      <trkpt lat="50.02697" lon="2.32609">
        <ele>135.1</ele>
        <time>2023-12-20T13:06:07Z</time>
      </trkpt>
      <trkpt lat="50.02696" lon="2.32609">
        <ele>135.1</ele>
        <time>2023-12-20T13:06:08Z</time>
      </trkpt>
      <trkpt lat="50.02695" lon="2.32609">
        <ele>135.1</ele>
        <time>2023-12-20T13:06:09Z</time>
      </trkpt>
      <trkpt lat="50.02694" lon="2.32609">
        <ele>135.1</ele>
        <time>2023-12-20T13:06:10Z</time>
      </trkpt>
      <trkpt lat="50.02692" lon="2.32609">
        <ele>135.1</ele>
        <time>2023-12-20T13:06:12Z</time>
      </trkpt>
      <trkpt lat="50.02691" lon="2.32609">
        <ele>135.1</ele>
        <time>2023-12-20T13:06:13Z</time>
      </trkpt>
      <trkpt lat="50.0269" lon="2.32609">
        <ele>135.1</ele>
        <time>2023-12-20T13:06:14Z</time>
      </trkpt>
      <trkpt lat="50.02689" lon="2.32609">
        <ele>135.1</ele>
        <time>2023-12-20T13:06:15Z</time>
      </trkpt>
      <trkpt lat="50.02687" lon="2.3261">
        <ele>135.1</ele>
        <time>2023-12-20T13:06:16Z</time>
      </trkpt>
      <trkpt lat="50.02686" lon="2.3261">
        <ele>135</ele>
        <time>2023-12-20T13:06:17Z</time>
      </trkpt>
      <trkpt lat="50.02684" lon="2.3261">
        <ele>135</ele>
        <time>2023-12-20T13:06:18Z</time>
      </trkpt>
      <trkpt lat="50.02682" lon="2.32611">
        <ele>135</ele>
        <time>2023-12-20T13:06:20Z</time>
      </trkpt>
      <trkpt lat="50.02681" lon="2.32611">
        <ele>135</ele>
        <time>2023-12-20T13:06:21Z</time>
      </trkpt>
      <trkpt lat="50.02679" lon="2.32611">
        <ele>135</ele>
        <time>2023-12-20T13:06:22Z</time>
      </trkpt>
      <trkpt lat="50.02678" lon="2.32612">
        <ele>135</ele>
        <time>2023-12-20T13:06:23Z</time>
      </trkpt>
      <trkpt lat="50.02676" lon="2.32612">
        <ele>134.9</ele>
        <time>2023-12-20T13:06:24Z</time>
      </trkpt>
      <trkpt lat="50.02674" lon="2.32613">
        <ele>134.9</ele>
        <time>2023-12-20T13:06:25Z</time>
      </trkpt>
      <trkpt lat="50.02673" lon="2.32614">
        <ele>134.9</ele>
        <time>2023-12-20T13:06:27Z</time>
      </trkpt>
      <trkpt lat="50.02672" lon="2.32614">
        <ele>134.9</ele>
        <time>2023-12-20T13:06:28Z</time>
      </trkpt>
      <trkpt lat="50.0267" lon="2.32615">
        <ele>134.9</ele>
        <time>2023-12-20T13:06:29Z</time>
      </trkpt>
      <trkpt lat="50.02667" lon="2.32616">
        <ele>134.8</ele>
        <time>2023-12-20T13:06:30Z</time>
      </trkpt>
      <trkpt lat="50.02666" lon="2.32617">
        <ele>134.8</ele>
        <time>2023-12-20T13:06:31Z</time>
      </trkpt>
      <trkpt lat="50.02665" lon="2.32617">
        <ele>134.8</ele>
        <time>2023-12-20T13:06:33Z</time>
      </trkpt>
      <trkpt lat="50.02663" lon="2.32618">
        <ele>134.8</ele>
        <time>2023-12-20T13:06:34Z</time>
      </trkpt>
      <trkpt lat="50.02662" lon="2.32618">
        <ele>134.7</ele>
        <time>2023-12-20T13:06:35Z</time>
      </trkpt>
      <trkpt lat="50.0266" lon="2.32618">
        <ele>134.7</ele>
        <time>2023-12-20T13:06:36Z</time>
      </trkpt>
      <trkpt lat="50.02659" lon="2.32619">
        <ele>134.7</ele>
        <time>2023-12-20T13:06:37Z</time>
      </trkpt>
      <trkpt lat="50.02657" lon="2.32619">
        <ele>134.7</ele>
        <time>2023-12-20T13:06:38Z</time>
      </trkpt>
      <trkpt lat="50.02656" lon="2.3262">
        <ele>134.7</ele>
        <time>2023-12-20T13:06:39Z</time>
      </trkpt>
      <trkpt lat="50.02654" lon="2.3262">
        <ele>134.7</ele>
        <time>2023-12-20T13:06:40Z</time>
      </trkpt>
      <trkpt lat="50.02653" lon="2.32621">
        <ele>134.7</ele>
        <time>2023-12-20T13:06:41Z</time>
      </trkpt>
      <trkpt lat="50.02652" lon="2.32621">
        <ele>134.6</ele>
        <time>2023-12-20T13:06:42Z</time>
      </trkpt>
      <trkpt lat="50.0265" lon="2.32622">
        <ele>134.6</ele>
        <time>2023-12-20T13:06:44Z</time>
      </trkpt>
      <trkpt lat="50.02649" lon="2.32623">
        <ele>134.6</ele>
        <time>2023-12-20T13:06:45Z</time>
      </trkpt>
      <trkpt lat="50.02648" lon="2.32624">
        <ele>134.6</ele>
        <time>2023-12-20T13:06:47Z</time>
      </trkpt>
      <trkpt lat="50.02647" lon="2.32624">
        <ele>134.6</ele>
        <time>2023-12-20T13:06:48Z</time>
      </trkpt>
      <trkpt lat="50.02646" lon="2.32625">
        <ele>134.5</ele>
        <time>2023-12-20T13:06:49Z</time>
      </trkpt>
      <trkpt lat="50.02644" lon="2.32625">
        <ele>134.5</ele>
        <time>2023-12-20T13:06:50Z</time>
      </trkpt>
      <trkpt lat="50.02643" lon="2.32625">
        <ele>134.5</ele>
        <time>2023-12-20T13:06:51Z</time>
      </trkpt>
      <trkpt lat="50.02641" lon="2.32625">
        <ele>134.5</ele>
        <time>2023-12-20T13:06:52Z</time>
      </trkpt>
      <trkpt lat="50.0264" lon="2.32626">
        <ele>134.4</ele>
        <time>2023-12-20T13:06:54Z</time>
      </trkpt>
      <trkpt lat="50.02638" lon="2.32626">
        <ele>134.4</ele>
        <time>2023-12-20T13:06:55Z</time>
      </trkpt>
      <trkpt lat="50.02637" lon="2.32626">
        <ele>134.4</ele>
        <time>2023-12-20T13:06:56Z</time>
      </trkpt>
      <trkpt lat="50.02636" lon="2.32626">
        <ele>134.4</ele>
        <time>2023-12-20T13:06:57Z</time>
      </trkpt>
      <trkpt lat="50.02635" lon="2.32627">
        <ele>134.3</ele>
        <time>2023-12-20T13:06:58Z</time>
      </trkpt>
      <trkpt lat="50.02634" lon="2.32627">
        <ele>134.3</ele>
        <time>2023-12-20T13:06:59Z</time>
      </trkpt>
      <trkpt lat="50.02633" lon="2.32628">
        <ele>134.3</ele>
        <time>2023-12-20T13:07:00Z</time>
      </trkpt>
      <trkpt lat="50.02632" lon="2.32628">
        <ele>134.3</ele>
        <time>2023-12-20T13:07:01Z</time>
      </trkpt>
      <trkpt lat="50.02631" lon="2.32629">
        <ele>134.3</ele>
        <time>2023-12-20T13:07:02Z</time>
      </trkpt>
      <trkpt lat="50.0263" lon="2.32629">
        <ele>134.2</ele>
        <time>2023-12-20T13:07:03Z</time>
      </trkpt>
      <trkpt lat="50.02628" lon="2.32629">
        <ele>134.2</ele>
        <time>2023-12-20T13:07:04Z</time>
      </trkpt>
      <trkpt lat="50.02627" lon="2.32629">
        <ele>134.2</ele>
        <time>2023-12-20T13:07:05Z</time>
      </trkpt>
      <trkpt lat="50.02626" lon="2.32629">
        <ele>134.2</ele>
        <time>2023-12-20T13:07:07Z</time>
      </trkpt>
      <trkpt lat="50.02624" lon="2.32629">
        <ele>134.1</ele>
        <time>2023-12-20T13:07:08Z</time>
      </trkpt>
      <trkpt lat="50.02622" lon="2.32629">
        <ele>134.1</ele>
        <time>2023-12-20T13:07:09Z</time>
      </trkpt>
      <trkpt lat="50.02621" lon="2.3263">
        <ele>134.1</ele>
        <time>2023-12-20T13:07:10Z</time>
      </trkpt>
      <trkpt lat="50.02619" lon="2.3263">
        <ele>134</ele>
        <time>2023-12-20T13:07:11Z</time>
      </trkpt>
      <trkpt lat="50.02618" lon="2.3263">
        <ele>134</ele>
        <time>2023-12-20T13:07:12Z</time>
      </trkpt>
      <trkpt lat="50.02616" lon="2.32631">
        <ele>133.9</ele>
        <time>2023-12-20T13:07:13Z</time>
      </trkpt>
      <trkpt lat="50.02615" lon="2.32631">
        <ele>133.9</ele>
        <time>2023-12-20T13:07:14Z</time>
      </trkpt>
      <trkpt lat="50.02613" lon="2.32631">
        <ele>133.9</ele>
        <time>2023-12-20T13:07:15Z</time>
      </trkpt>
      <trkpt lat="50.02612" lon="2.32631">
        <ele>133.8</ele>
        <time>2023-12-20T13:07:17Z</time>
      </trkpt>
      <trkpt lat="50.02611" lon="2.32631">
        <ele>133.8</ele>
        <time>2023-12-20T13:07:18Z</time>
      </trkpt>
      <trkpt lat="50.02609" lon="2.32632">
        <ele>133.8</ele>
        <time>2023-12-20T13:07:19Z</time>
      </trkpt>
      <trkpt lat="50.02608" lon="2.32632">
        <ele>133.7</ele>
        <time>2023-12-20T13:07:20Z</time>
      </trkpt>
      <trkpt lat="50.02607" lon="2.32632">
        <ele>133.7</ele>
        <time>2023-12-20T13:07:21Z</time>
      </trkpt>
      <trkpt lat="50.02606" lon="2.32632">
        <ele>133.7</ele>
        <time>2023-12-20T13:07:22Z</time>
      </trkpt>
      <trkpt lat="50.02604" lon="2.32633">
        <ele>133.7</ele>
        <time>2023-12-20T13:07:23Z</time>
      </trkpt>
      <trkpt lat="50.02602" lon="2.32633">
        <ele>133.6</ele>
        <time>2023-12-20T13:07:25Z</time>
      </trkpt>
      <trkpt lat="50.02601" lon="2.32633">
        <ele>133.6</ele>
        <time>2023-12-20T13:07:26Z</time>
      </trkpt>
      <trkpt lat="50.026" lon="2.32634">
        <ele>133.6</ele>
        <time>2023-12-20T13:07:27Z</time>
      </trkpt>
      <trkpt lat="50.02598" lon="2.32635">
        <ele>133.5</ele>
        <time>2023-12-20T13:07:28Z</time>
      </trkpt>
      <trkpt lat="50.02597" lon="2.32635">
        <ele>133.5</ele>
        <time>2023-12-20T13:07:29Z</time>
      </trkpt>
      <trkpt lat="50.02597" lon="2.32635">
        <ele>133.4</ele>
        <time>2023-12-20T13:07:30Z</time>
      </trkpt>
      <trkpt lat="50.02595" lon="2.32635">
        <ele>133.4</ele>
        <time>2023-12-20T13:07:31Z</time>
      </trkpt>
      <trkpt lat="50.02594" lon="2.32636">
        <ele>133.4</ele>
        <time>2023-12-20T13:07:32Z</time>
      </trkpt>
      <trkpt lat="50.02593" lon="2.32636">
        <ele>133.3</ele>
        <time>2023-12-20T13:07:33Z</time>
      </trkpt>
      <trkpt lat="50.02592" lon="2.32637">
        <ele>133.3</ele>
        <time>2023-12-20T13:07:35Z</time>
      </trkpt>
      <trkpt lat="50.02591" lon="2.32637">
        <ele>133.3</ele>
        <time>2023-12-20T13:07:36Z</time>
      </trkpt>
      <trkpt lat="50.0259" lon="2.32637">
        <ele>133.2</ele>
        <time>2023-12-20T13:07:37Z</time>
      </trkpt>
      <trkpt lat="50.02588" lon="2.32637">
        <ele>133.2</ele>
        <time>2023-12-20T13:07:38Z</time>
      </trkpt>
      <trkpt lat="50.02587" lon="2.32637">
        <ele>133.2</ele>
        <time>2023-12-20T13:07:40Z</time>
      </trkpt>
      <trkpt lat="50.02586" lon="2.32637">
        <ele>133.1</ele>
        <time>2023-12-20T13:07:41Z</time>
      </trkpt>
      <trkpt lat="50.02585" lon="2.32638">
        <ele>133.1</ele>
        <time>2023-12-20T13:07:42Z</time>
      </trkpt>
      <trkpt lat="50.02584" lon="2.32638">
        <ele>133.1</ele>
        <time>2023-12-20T13:07:43Z</time>
      </trkpt>
      <trkpt lat="50.02583" lon="2.32638">
        <ele>133</ele>
        <time>2023-12-20T13:07:44Z</time>
      </trkpt>
      <trkpt lat="50.02582" lon="2.32638">
        <ele>133</ele>
        <time>2023-12-20T13:07:45Z</time>
      </trkpt>
      <trkpt lat="50.02581" lon="2.32639">
        <ele>132.9</ele>
        <time>2023-12-20T13:07:46Z</time>
      </trkpt>
      <trkpt lat="50.0258" lon="2.32639">
        <ele>132.9</ele>
        <time>2023-12-20T13:07:47Z</time>
      </trkpt>
      <trkpt lat="50.02578" lon="2.3264">
        <ele>132.9</ele>
        <time>2023-12-20T13:07:48Z</time>
      </trkpt>
      <trkpt lat="50.02577" lon="2.32641">
        <ele>132.8</ele>
        <time>2023-12-20T13:07:50Z</time>
      </trkpt>
      <trkpt lat="50.02575" lon="2.32642">
        <ele>132.7</ele>
        <time>2023-12-20T13:07:51Z</time>
      </trkpt>
      <trkpt lat="50.02575" lon="2.32643">
        <ele>132.7</ele>
        <time>2023-12-20T13:07:52Z</time>
      </trkpt>
      <trkpt lat="50.02574" lon="2.32644">
        <ele>132.7</ele>
        <time>2023-12-20T13:07:53Z</time>
      </trkpt>
      <trkpt lat="50.02573" lon="2.32644">
        <ele>132.6</ele>
        <time>2023-12-20T13:07:54Z</time>
      </trkpt>
      <trkpt lat="50.02571" lon="2.32645">
        <ele>132.6</ele>
        <time>2023-12-20T13:07:55Z</time>
      </trkpt>
      <trkpt lat="50.0257" lon="2.32646">
        <ele>132.5</ele>
        <time>2023-12-20T13:07:56Z</time>
      </trkpt>
      <trkpt lat="50.02569" lon="2.32646">
        <ele>132.5</ele>
        <time>2023-12-20T13:07:57Z</time>
      </trkpt>
      <trkpt lat="50.02567" lon="2.32647">
        <ele>132.4</ele>
        <time>2023-12-20T13:07:59Z</time>
      </trkpt>
      <trkpt lat="50.02564" lon="2.32647">
        <ele>132.3</ele>
        <time>2023-12-20T13:08:00Z</time>
      </trkpt>
      <trkpt lat="50.02563" lon="2.32647">
        <ele>132.3</ele>
        <time>2023-12-20T13:08:01Z</time>
      </trkpt>
      <trkpt lat="50.02562" lon="2.32647">
        <ele>132.3</ele>
        <time>2023-12-20T13:08:02Z</time>
      </trkpt>
      <trkpt lat="50.02561" lon="2.32648">
        <ele>132.2</ele>
        <time>2023-12-20T13:08:03Z</time>
      </trkpt>
      <trkpt lat="50.02559" lon="2.32648">
        <ele>132.1</ele>
        <time>2023-12-20T13:08:05Z</time>
      </trkpt>
      <trkpt lat="50.02558" lon="2.32648">
        <ele>132.1</ele>
        <time>2023-12-20T13:08:06Z</time>
      </trkpt>
      <trkpt lat="50.02556" lon="2.32648">
        <ele>132</ele>
        <time>2023-12-20T13:08:07Z</time>
      </trkpt>
      <trkpt lat="50.02554" lon="2.32648">
        <ele>132</ele>
        <time>2023-12-20T13:08:08Z</time>
      </trkpt>
      <trkpt lat="50.02553" lon="2.32648">
        <ele>131.9</ele>
        <time>2023-12-20T13:08:09Z</time>
      </trkpt>
      <trkpt lat="50.02552" lon="2.32649">
        <ele>131.9</ele>
        <time>2023-12-20T13:08:10Z</time>
      </trkpt>
      <trkpt lat="50.02549" lon="2.32649">
        <ele>131.8</ele>
        <time>2023-12-20T13:08:11Z</time>
      </trkpt>
      <trkpt lat="50.02549" lon="2.32649">
        <ele>131.8</ele>
        <time>2023-12-20T13:08:13Z</time>
      </trkpt>
      <trkpt lat="50.02548" lon="2.32649">
        <ele>131.8</ele>
        <time>2023-12-20T13:08:14Z</time>
      </trkpt>
      <trkpt lat="50.02546" lon="2.3265">
        <ele>131.7</ele>
        <time>2023-12-20T13:08:15Z</time>
      </trkpt>
      <trkpt lat="50.02544" lon="2.3265">
        <ele>131.7</ele>
        <time>2023-12-20T13:08:17Z</time>
      </trkpt>
      <trkpt lat="50.02543" lon="2.3265">
        <ele>131.7</ele>
        <time>2023-12-20T13:08:18Z</time>
      </trkpt>
      <trkpt lat="50.02541" lon="2.32651">
        <ele>131.6</ele>
        <time>2023-12-20T13:08:19Z</time>
      </trkpt>
      <trkpt lat="50.0254" lon="2.32652">
        <ele>131.6</ele>
        <time>2023-12-20T13:08:20Z</time>
      </trkpt>
      <trkpt lat="50.02538" lon="2.32653">
        <ele>131.6</ele>
        <time>2023-12-20T13:08:21Z</time>
      </trkpt>
      <trkpt lat="50.02537" lon="2.32653">
        <ele>131.5</ele>
        <time>2023-12-20T13:08:23Z</time>
      </trkpt>
      <trkpt lat="50.02535" lon="2.32654">
        <ele>131.5</ele>
        <time>2023-12-20T13:08:24Z</time>
      </trkpt>
      <trkpt lat="50.02534" lon="2.32654">
        <ele>131.5</ele>
        <time>2023-12-20T13:08:25Z</time>
      </trkpt>
      <trkpt lat="50.02532" lon="2.32654">
        <ele>131.5</ele>
        <time>2023-12-20T13:08:26Z</time>
      </trkpt>
      <trkpt lat="50.0253" lon="2.32654">
        <ele>131.5</ele>
        <time>2023-12-20T13:08:27Z</time>
      </trkpt>
      <trkpt lat="50.02529" lon="2.32654">
        <ele>131.4</ele>
        <time>2023-12-20T13:08:28Z</time>
      </trkpt>
      <trkpt lat="50.02528" lon="2.32653">
        <ele>131.4</ele>
        <time>2023-12-20T13:08:29Z</time>
      </trkpt>
      <trkpt lat="50.02527" lon="2.32652">
        <ele>131.4</ele>
        <time>2023-12-20T13:08:31Z</time>
      </trkpt>
      <trkpt lat="50.02525" lon="2.32651">
        <ele>131.4</ele>
        <time>2023-12-20T13:08:32Z</time>
      </trkpt>
      <trkpt lat="50.02524" lon="2.3265">
        <ele>131.4</ele>
        <time>2023-12-20T13:08:33Z</time>
      </trkpt>
      <trkpt lat="50.02523" lon="2.32649">
        <ele>131.4</ele>
        <time>2023-12-20T13:08:34Z</time>
      </trkpt>
      <trkpt lat="50.02522" lon="2.32648">
        <ele>131.4</ele>
        <time>2023-12-20T13:08:35Z</time>
      </trkpt>
      <trkpt lat="50.0252" lon="2.32647">
        <ele>131.3</ele>
        <time>2023-12-20T13:08:36Z</time>
      </trkpt>
      <trkpt lat="50.02519" lon="2.32647">
        <ele>131.3</ele>
        <time>2023-12-20T13:08:37Z</time>
      </trkpt>
      <trkpt lat="50.02519" lon="2.32646">
        <ele>131.3</ele>
        <time>2023-12-20T13:08:38Z</time>
      </trkpt>
      <trkpt lat="50.02518" lon="2.32645">
        <ele>131.3</ele>
        <time>2023-12-20T13:08:39Z</time>
      </trkpt>
      <trkpt lat="50.02517" lon="2.32644">
        <ele>131.2</ele>
        <time>2023-12-20T13:08:41Z</time>
      </trkpt>
      <trkpt lat="50.02516" lon="2.32643">
        <ele>131.2</ele>
        <time>2023-12-20T13:08:42Z</time>
      </trkpt>
      <trkpt lat="50.02515" lon="2.32641">
        <ele>131.2</ele>
        <time>2023-12-20T13:08:43Z</time>
      </trkpt>
      <trkpt lat="50.02514" lon="2.3264">
        <ele>131.1</ele>
        <time>2023-12-20T13:08:44Z</time>
      </trkpt>
      <trkpt lat="50.02512" lon="2.32639">
        <ele>131.1</ele>
        <time>2023-12-20T13:08:45Z</time>
      </trkpt>
      <trkpt lat="50.02511" lon="2.32639">
        <ele>131.1</ele>
        <time>2023-12-20T13:08:46Z</time>
      </trkpt>
      <trkpt lat="50.0251" lon="2.32638">
        <ele>131</ele>
        <time>2023-12-20T13:08:48Z</time>
      </trkpt>
      <trkpt lat="50.02509" lon="2.32637">
        <ele>131</ele>
        <time>2023-12-20T13:08:49Z</time>
      </trkpt>
      <trkpt lat="50.02508" lon="2.32637">
        <ele>131</ele>
        <time>2023-12-20T13:08:50Z</time>
      </trkpt>
      <trkpt lat="50.02507" lon="2.32636">
        <ele>131</ele>
        <time>2023-12-20T13:08:51Z</time>
      </trkpt>
      <trkpt lat="50.02506" lon="2.32636">
        <ele>130.9</ele>
        <time>2023-12-20T13:08:52Z</time>
      </trkpt>
      <trkpt lat="50.02505" lon="2.32635">
        <ele>130.9</ele>
        <time>2023-12-20T13:08:53Z</time>
      </trkpt>
      <trkpt lat="50.02504" lon="2.32635">
        <ele>130.9</ele>
        <time>2023-12-20T13:08:54Z</time>
      </trkpt>
      <trkpt lat="50.02503" lon="2.32634">
        <ele>130.9</ele>
        <time>2023-12-20T13:08:55Z</time>
      </trkpt>
      <trkpt lat="50.02502" lon="2.32634">
        <ele>130.8</ele>
        <time>2023-12-20T13:08:56Z</time>
      </trkpt>
      <trkpt lat="50.02501" lon="2.32633">
        <ele>130.8</ele>
        <time>2023-12-20T13:08:57Z</time>
      </trkpt>
      <trkpt lat="50.025" lon="2.3263">
        <ele>130.8</ele>
        <time>2023-12-20T13:08:58Z</time>
      </trkpt>
      <trkpt lat="50.02499" lon="2.32629">
        <ele>130.7</ele>
        <time>2023-12-20T13:09:00Z</time>
      </trkpt>
      <trkpt lat="50.02498" lon="2.32628">
        <ele>130.7</ele>
        <time>2023-12-20T13:09:01Z</time>
      </trkpt>
      <trkpt lat="50.02498" lon="2.32627">
        <ele>130.7</ele>
        <time>2023-12-20T13:09:02Z</time>
      </trkpt>
      <trkpt lat="50.02497" lon="2.32626">
        <ele>130.7</ele>
        <time>2023-12-20T13:09:03Z</time>
      </trkpt>
      <trkpt lat="50.02496" lon="2.32626">
        <ele>130.6</ele>
        <time>2023-12-20T13:09:04Z</time>
      </trkpt>
      <trkpt lat="50.02495" lon="2.32625">
        <ele>130.6</ele>
        <time>2023-12-20T13:09:05Z</time>
      </trkpt>
      <trkpt lat="50.02494" lon="2.32625">
        <ele>130.6</ele>
        <time>2023-12-20T13:09:07Z</time>
      </trkpt>
      <trkpt lat="50.02493" lon="2.32625">
        <ele>130.6</ele>
        <time>2023-12-20T13:09:08Z</time>
      </trkpt>
      <trkpt lat="50.02492" lon="2.32626">
        <ele>130.5</ele>
        <time>2023-12-20T13:09:09Z</time>
      </trkpt>
      <trkpt lat="50.02491" lon="2.32626">
        <ele>130.5</ele>
        <time>2023-12-20T13:09:10Z</time>
      </trkpt>
      <trkpt lat="50.0249" lon="2.32627">
        <ele>130.5</ele>
        <time>2023-12-20T13:09:11Z</time>
      </trkpt>
      <trkpt lat="50.02489" lon="2.32628">
        <ele>130.5</ele>
        <time>2023-12-20T13:09:12Z</time>
      </trkpt>
      <trkpt lat="50.02486" lon="2.32628">
        <ele>130.4</ele>
        <time>2023-12-20T13:09:14Z</time>
      </trkpt>
      <trkpt lat="50.02484" lon="2.32628">
        <ele>130.3</ele>
        <time>2023-12-20T13:09:16Z</time>
      </trkpt>
      <trkpt lat="50.02481" lon="2.32628">
        <ele>130.3</ele>
        <time>2023-12-20T13:09:17Z</time>
      </trkpt>
      <trkpt lat="50.0248" lon="2.32627">
        <ele>130.3</ele>
        <time>2023-12-20T13:09:19Z</time>
      </trkpt>
      <trkpt lat="50.02479" lon="2.32627">
        <ele>130.2</ele>
        <time>2023-12-20T13:09:20Z</time>
      </trkpt>
      <trkpt lat="50.02478" lon="2.32627">
        <ele>130.2</ele>
        <time>2023-12-20T13:09:21Z</time>
      </trkpt>
      <trkpt lat="50.02477" lon="2.32627">
        <ele>130.2</ele>
        <time>2023-12-20T13:09:22Z</time>
      </trkpt>
      <trkpt lat="50.02475" lon="2.32626">
        <ele>130.2</ele>
        <time>2023-12-20T13:09:23Z</time>
      </trkpt>
      <trkpt lat="50.02474" lon="2.32626">
        <ele>130.1</ele>
        <time>2023-12-20T13:09:24Z</time>
      </trkpt>
      <trkpt lat="50.02472" lon="2.32626">
        <ele>130.1</ele>
        <time>2023-12-20T13:09:25Z</time>
      </trkpt>
      <trkpt lat="50.02471" lon="2.32626">
        <ele>130.1</ele>
        <time>2023-12-20T13:09:26Z</time>
      </trkpt>
      <trkpt lat="50.02469" lon="2.32626">
        <ele>130</ele>
        <time>2023-12-20T13:09:27Z</time>
      </trkpt>
      <trkpt lat="50.02468" lon="2.32625">
        <ele>130</ele>
        <time>2023-12-20T13:09:29Z</time>
      </trkpt>
      <trkpt lat="50.02466" lon="2.32625">
        <ele>130</ele>
        <time>2023-12-20T13:09:30Z</time>
      </trkpt>
      <trkpt lat="50.02465" lon="2.32625">
        <ele>129.9</ele>
        <time>2023-12-20T13:09:31Z</time>
      </trkpt>
      <trkpt lat="50.02463" lon="2.32625">
        <ele>129.9</ele>
        <time>2023-12-20T13:09:32Z</time>
      </trkpt>
      <trkpt lat="50.02462" lon="2.32624">
        <ele>129.9</ele>
        <time>2023-12-20T13:09:33Z</time>
      </trkpt>
      <trkpt lat="50.0246" lon="2.32624">
        <ele>129.9</ele>
        <time>2023-12-20T13:09:34Z</time>
      </trkpt>
      <trkpt lat="50.02459" lon="2.32624">
        <ele>129.8</ele>
        <time>2023-12-20T13:09:35Z</time>
      </trkpt>
      <trkpt lat="50.02458" lon="2.32624">
        <ele>129.8</ele>
        <time>2023-12-20T13:09:37Z</time>
      </trkpt>
      <trkpt lat="50.02457" lon="2.32624">
        <ele>129.8</ele>
        <time>2023-12-20T13:09:38Z</time>
      </trkpt>
      <trkpt lat="50.02455" lon="2.32624">
        <ele>129.7</ele>
        <time>2023-12-20T13:09:39Z</time>
      </trkpt>
      <trkpt lat="50.02453" lon="2.32624">
        <ele>129.7</ele>
        <time>2023-12-20T13:09:40Z</time>
      </trkpt>
      <trkpt lat="50.02452" lon="2.32624">
        <ele>129.7</ele>
        <time>2023-12-20T13:09:41Z</time>
      </trkpt>
      <trkpt lat="50.02451" lon="2.32624">
        <ele>129.7</ele>
        <time>2023-12-20T13:09:43Z</time>
      </trkpt>
      <trkpt lat="50.02449" lon="2.32624">
        <ele>129.6</ele>
        <time>2023-12-20T13:09:44Z</time>
      </trkpt>
      <trkpt lat="50.02448" lon="2.32625">
        <ele>129.6</ele>
        <time>2023-12-20T13:09:45Z</time>
      </trkpt>
      <trkpt lat="50.02446" lon="2.32625">
        <ele>129.6</ele>
        <time>2023-12-20T13:09:46Z</time>
      </trkpt>
      <trkpt lat="50.02445" lon="2.32625">
        <ele>129.5</ele>
        <time>2023-12-20T13:09:47Z</time>
      </trkpt>
      <trkpt lat="50.02444" lon="2.32625">
        <ele>129.5</ele>
        <time>2023-12-20T13:09:48Z</time>
      </trkpt>
      <trkpt lat="50.02443" lon="2.32625">
        <ele>129.5</ele>
        <time>2023-12-20T13:09:49Z</time>
      </trkpt>
      <trkpt lat="50.02442" lon="2.32625">
        <ele>129.5</ele>
        <time>2023-12-20T13:09:50Z</time>
      </trkpt>
      <trkpt lat="50.02441" lon="2.32625">
        <ele>129.5</ele>
        <time>2023-12-20T13:09:52Z</time>
      </trkpt>
      <trkpt lat="50.0244" lon="2.32625">
        <ele>129.4</ele>
        <time>2023-12-20T13:09:53Z</time>
      </trkpt>
      <trkpt lat="50.02438" lon="2.32624">
        <ele>129.4</ele>
        <time>2023-12-20T13:09:54Z</time>
      </trkpt>
      <trkpt lat="50.02437" lon="2.32624">
        <ele>129.4</ele>
        <time>2023-12-20T13:09:55Z</time>
      </trkpt>
      <trkpt lat="50.02435" lon="2.32624">
        <ele>129.4</ele>
        <time>2023-12-20T13:09:57Z</time>
      </trkpt>
      <trkpt lat="50.02434" lon="2.32623">
        <ele>129.3</ele>
        <time>2023-12-20T13:09:58Z</time>
      </trkpt>
      <trkpt lat="50.02433" lon="2.32623">
        <ele>129.3</ele>
        <time>2023-12-20T13:09:59Z</time>
      </trkpt>
      <trkpt lat="50.02431" lon="2.32623">
        <ele>129.3</ele>
        <time>2023-12-20T13:10:00Z</time>
      </trkpt>
      <trkpt lat="50.0243" lon="2.32623">
        <ele>129.3</ele>
        <time>2023-12-20T13:10:01Z</time>
      </trkpt>
      <trkpt lat="50.02428" lon="2.32622">
        <ele>129.2</ele>
        <time>2023-12-20T13:10:02Z</time>
      </trkpt>
      <trkpt lat="50.02427" lon="2.32622">
        <ele>129.2</ele>
        <time>2023-12-20T13:10:03Z</time>
      </trkpt>
      <trkpt lat="50.02426" lon="2.32622">
        <ele>129.2</ele>
        <time>2023-12-20T13:10:05Z</time>
      </trkpt>
      <trkpt lat="50.02424" lon="2.32621">
        <ele>129.2</ele>
        <time>2023-12-20T13:10:06Z</time>
      </trkpt>
      <trkpt lat="50.02423" lon="2.32621">
        <ele>129.2</ele>
        <time>2023-12-20T13:10:07Z</time>
      </trkpt>
      <trkpt lat="50.02422" lon="2.3262">
        <ele>129.1</ele>
        <time>2023-12-20T13:10:08Z</time>
      </trkpt>
      <trkpt lat="50.0242" lon="2.3262">
        <ele>129.1</ele>
        <time>2023-12-20T13:10:09Z</time>
      </trkpt>
      <trkpt lat="50.02419" lon="2.3262">
        <ele>129.1</ele>
        <time>2023-12-20T13:10:10Z</time>
      </trkpt>
      <trkpt lat="50.02417" lon="2.32619">
        <ele>129.1</ele>
        <time>2023-12-20T13:10:11Z</time>
      </trkpt>
      <trkpt lat="50.02416" lon="2.32619">
        <ele>129</ele>
        <time>2023-12-20T13:10:12Z</time>
      </trkpt>
      <trkpt lat="50.02415" lon="2.32619">
        <ele>129</ele>
        <time>2023-12-20T13:10:13Z</time>
      </trkpt>
      <trkpt lat="50.02413" lon="2.32619">
        <ele>129</ele>
        <time>2023-12-20T13:10:15Z</time>
      </trkpt>
      <trkpt lat="50.02412" lon="2.32619">
        <ele>129</ele>
        <time>2023-12-20T13:10:16Z</time>
      </trkpt>
      <trkpt lat="50.02411" lon="2.32619">
        <ele>129</ele>
        <time>2023-12-20T13:10:17Z</time>
      </trkpt>
      <trkpt lat="50.02409" lon="2.32618">
        <ele>128.9</ele>
        <time>2023-12-20T13:10:18Z</time>
      </trkpt>
      <trkpt lat="50.02408" lon="2.32618">
        <ele>128.9</ele>
        <time>2023-12-20T13:10:19Z</time>
      </trkpt>
      <trkpt lat="50.02407" lon="2.32618">
        <ele>128.9</ele>
        <time>2023-12-20T13:10:20Z</time>
      </trkpt>
      <trkpt lat="50.02405" lon="2.32617">
        <ele>128.9</ele>
        <time>2023-12-20T13:10:21Z</time>
      </trkpt>
      <trkpt lat="50.02404" lon="2.32617">
        <ele>128.9</ele>
        <time>2023-12-20T13:10:23Z</time>
      </trkpt>
      <trkpt lat="50.02404" lon="2.32617">
        <ele>128.9</ele>
        <time>2023-12-20T13:10:24Z</time>
      </trkpt>
      <trkpt lat="50.02402" lon="2.32616">
        <ele>128.8</ele>
        <time>2023-12-20T13:10:25Z</time>
      </trkpt>
      <trkpt lat="50.02401" lon="2.32616">
        <ele>128.8</ele>
        <time>2023-12-20T13:10:26Z</time>
      </trkpt>
      <trkpt lat="50.02398" lon="2.32616">
        <ele>128.8</ele>
        <time>2023-12-20T13:10:27Z</time>
      </trkpt>
      <trkpt lat="50.02398" lon="2.32616">
        <ele>128.8</ele>
        <time>2023-12-20T13:10:28Z</time>
      </trkpt>
      <trkpt lat="50.02397" lon="2.32616">
        <ele>128.8</ele>
        <time>2023-12-20T13:10:29Z</time>
      </trkpt>
      <trkpt lat="50.02395" lon="2.32616">
        <ele>128.7</ele>
        <time>2023-12-20T13:10:30Z</time>
      </trkpt>
      <trkpt lat="50.02394" lon="2.32616">
        <ele>128.7</ele>
        <time>2023-12-20T13:10:31Z</time>
      </trkpt>
      <trkpt lat="50.02394" lon="2.32616">
        <ele>128.7</ele>
        <time>2023-12-20T13:10:32Z</time>
      </trkpt>
      <trkpt lat="50.02391" lon="2.32616">
        <ele>128.7</ele>
        <time>2023-12-20T13:10:34Z</time>
      </trkpt>
      <trkpt lat="50.02391" lon="2.32616">
        <ele>128.7</ele>
        <time>2023-12-20T13:10:35Z</time>
      </trkpt>
      <trkpt lat="50.0239" lon="2.32616">
        <ele>128.7</ele>
        <time>2023-12-20T13:10:36Z</time>
      </trkpt>
      <trkpt lat="50.02388" lon="2.32616">
        <ele>128.7</ele>
        <time>2023-12-20T13:10:37Z</time>
      </trkpt>
      <trkpt lat="50.02387" lon="2.32616">
        <ele>128.6</ele>
        <time>2023-12-20T13:10:38Z</time>
      </trkpt>
      <trkpt lat="50.02386" lon="2.32617">
        <ele>128.6</ele>
        <time>2023-12-20T13:10:39Z</time>
      </trkpt>
      <trkpt lat="50.02385" lon="2.32619">
        <ele>128.6</ele>
        <time>2023-12-20T13:10:40Z</time>
      </trkpt>
      <trkpt lat="50.02384" lon="2.3262">
        <ele>128.6</ele>
        <time>2023-12-20T13:10:41Z</time>
      </trkpt>
      <trkpt lat="50.02383" lon="2.32621">
        <ele>128.6</ele>
        <time>2023-12-20T13:10:42Z</time>
      </trkpt>
      <trkpt lat="50.02383" lon="2.32623">
        <ele>128.5</ele>
        <time>2023-12-20T13:10:43Z</time>
      </trkpt>
      <trkpt lat="50.02382" lon="2.32625">
        <ele>128.5</ele>
        <time>2023-12-20T13:10:45Z</time>
      </trkpt>
      <trkpt lat="50.02382" lon="2.32627">
        <ele>128.4</ele>
        <time>2023-12-20T13:10:46Z</time>
      </trkpt>
      <trkpt lat="50.02382" lon="2.32629">
        <ele>128.4</ele>
        <time>2023-12-20T13:10:47Z</time>
      </trkpt>
      <trkpt lat="50.02381" lon="2.32633">
        <ele>128.3</ele>
        <time>2023-12-20T13:10:48Z</time>
      </trkpt>
      <trkpt lat="50.02381" lon="2.32634">
        <ele>128.3</ele>
        <time>2023-12-20T13:10:49Z</time>
      </trkpt>
      <trkpt lat="50.02381" lon="2.32635">
        <ele>128.2</ele>
        <time>2023-12-20T13:10:50Z</time>
      </trkpt>
      <trkpt lat="50.0238" lon="2.32638">
        <ele>128.2</ele>
        <time>2023-12-20T13:10:51Z</time>
      </trkpt>
      <trkpt lat="50.0238" lon="2.32639">
        <ele>128.1</ele>
        <time>2023-12-20T13:10:52Z</time>
      </trkpt>
      <trkpt lat="50.0238" lon="2.32641">
        <ele>128.1</ele>
        <time>2023-12-20T13:10:53Z</time>
      </trkpt>
      <trkpt lat="50.0238" lon="2.32643">
        <ele>128.1</ele>
        <time>2023-12-20T13:10:55Z</time>
      </trkpt>
      <trkpt lat="50.0238" lon="2.32645">
        <ele>128.1</ele>
        <time>2023-12-20T13:10:56Z</time>
      </trkpt>
      <trkpt lat="50.0238" lon="2.32647">
        <ele>128</ele>
        <time>2023-12-20T13:10:57Z</time>
      </trkpt>
      <trkpt lat="50.0238" lon="2.32649">
        <ele>128</ele>
        <time>2023-12-20T13:10:58Z</time>
      </trkpt>
      <trkpt lat="50.0238" lon="2.32653">
        <ele>127.9</ele>
        <time>2023-12-20T13:10:59Z</time>
      </trkpt>
      <trkpt lat="50.0238" lon="2.32654">
        <ele>127.9</ele>
        <time>2023-12-20T13:11:00Z</time>
      </trkpt>
      <trkpt lat="50.0238" lon="2.32656">
        <ele>127.9</ele>
        <time>2023-12-20T13:11:01Z</time>
      </trkpt>
      <trkpt lat="50.0238" lon="2.32658">
        <ele>127.9</ele>
        <time>2023-12-20T13:11:02Z</time>
      </trkpt>
      <trkpt lat="50.02379" lon="2.3266">
        <ele>127.8</ele>
        <time>2023-12-20T13:11:03Z</time>
      </trkpt>
      <trkpt lat="50.02379" lon="2.32663">
        <ele>127.8</ele>
        <time>2023-12-20T13:11:05Z</time>
      </trkpt>
      <trkpt lat="50.02379" lon="2.32665">
        <ele>127.8</ele>
        <time>2023-12-20T13:11:06Z</time>
      </trkpt>
      <trkpt lat="50.02379" lon="2.32666">
        <ele>127.7</ele>
        <time>2023-12-20T13:11:07Z</time>
      </trkpt>
      <trkpt lat="50.02379" lon="2.3267">
        <ele>127.7</ele>
        <time>2023-12-20T13:11:08Z</time>
      </trkpt>
      <trkpt lat="50.02379" lon="2.32672">
        <ele>127.7</ele>
        <time>2023-12-20T13:11:10Z</time>
      </trkpt>
      <trkpt lat="50.02379" lon="2.32674">
        <ele>127.6</ele>
        <time>2023-12-20T13:11:11Z</time>
      </trkpt>
      <trkpt lat="50.02379" lon="2.32676">
        <ele>127.6</ele>
        <time>2023-12-20T13:11:13Z</time>
      </trkpt>
      <trkpt lat="50.02379" lon="2.32678">
        <ele>127.6</ele>
        <time>2023-12-20T13:11:14Z</time>
      </trkpt>
      <trkpt lat="50.02379" lon="2.3268">
        <ele>127.6</ele>
        <time>2023-12-20T13:11:15Z</time>
      </trkpt>
      <trkpt lat="50.02379" lon="2.32682">
        <ele>127.5</ele>
        <time>2023-12-20T13:11:16Z</time>
      </trkpt>
      <trkpt lat="50.02379" lon="2.32683">
        <ele>127.5</ele>
        <time>2023-12-20T13:11:17Z</time>
      </trkpt>
      <trkpt lat="50.02379" lon="2.32685">
        <ele>127.5</ele>
        <time>2023-12-20T13:11:18Z</time>
      </trkpt>
      <trkpt lat="50.02379" lon="2.32687">
        <ele>127.5</ele>
        <time>2023-12-20T13:11:19Z</time>
      </trkpt>
      <trkpt lat="50.02379" lon="2.32689">
        <ele>127.5</ele>
        <time>2023-12-20T13:11:21Z</time>
      </trkpt>
      <trkpt lat="50.02378" lon="2.3269">
        <ele>127.4</ele>
        <time>2023-12-20T13:11:22Z</time>
      </trkpt>
      <trkpt lat="50.02378" lon="2.32692">
        <ele>127.4</ele>
        <time>2023-12-20T13:11:23Z</time>
      </trkpt>
      <trkpt lat="50.02378" lon="2.32694">
        <ele>127.4</ele>
        <time>2023-12-20T13:11:24Z</time>
      </trkpt>
      <trkpt lat="50.02378" lon="2.32695">
        <ele>127.4</ele>
        <time>2023-12-20T13:11:25Z</time>
      </trkpt>
      <trkpt lat="50.02378" lon="2.32696">
        <ele>127.4</ele>
        <time>2023-12-20T13:11:26Z</time>
      </trkpt>
      <trkpt lat="50.02378" lon="2.32697">
        <ele>127.4</ele>
        <time>2023-12-20T13:11:27Z</time>
      </trkpt>
      <trkpt lat="50.02378" lon="2.32699">
        <ele>127.3</ele>
        <time>2023-12-20T13:11:28Z</time>
      </trkpt>
      <trkpt lat="50.02378" lon="2.32701">
        <ele>127.3</ele>
        <time>2023-12-20T13:11:29Z</time>
      </trkpt>
      <trkpt lat="50.02378" lon="2.32704">
        <ele>127.3</ele>
        <time>2023-12-20T13:11:31Z</time>
      </trkpt>
      <trkpt lat="50.02378" lon="2.32706">
        <ele>127.3</ele>
        <time>2023-12-20T13:11:33Z</time>
      </trkpt>
      <trkpt lat="50.02378" lon="2.32708">
        <ele>127.2</ele>
        <time>2023-12-20T13:11:34Z</time>
      </trkpt>
      <trkpt lat="50.02379" lon="2.32712">
        <ele>127.2</ele>
        <time>2023-12-20T13:11:35Z</time>
      </trkpt>
      <trkpt lat="50.02379" lon="2.32713">
        <ele>127.2</ele>
        <time>2023-12-20T13:11:36Z</time>
      </trkpt>
      <trkpt lat="50.02379" lon="2.32714">
        <ele>127.2</ele>
        <time>2023-12-20T13:11:37Z</time>
      </trkpt>
      <trkpt lat="50.02379" lon="2.32716">
        <ele>127.2</ele>
        <time>2023-12-20T13:11:38Z</time>
      </trkpt>
      <trkpt lat="50.02379" lon="2.32717">
        <ele>127.1</ele>
        <time>2023-12-20T13:11:39Z</time>
      </trkpt>
      <trkpt lat="50.0238" lon="2.32719">
        <ele>127.1</ele>
        <time>2023-12-20T13:11:41Z</time>
      </trkpt>
      <trkpt lat="50.0238" lon="2.32721">
        <ele>127.1</ele>
        <time>2023-12-20T13:11:42Z</time>
      </trkpt>
      <trkpt lat="50.0238" lon="2.32723">
        <ele>127.1</ele>
        <time>2023-12-20T13:11:43Z</time>
      </trkpt>
      <trkpt lat="50.0238" lon="2.32726">
        <ele>127.1</ele>
        <time>2023-12-20T13:11:44Z</time>
      </trkpt>
      <trkpt lat="50.0238" lon="2.32728">
        <ele>127</ele>
        <time>2023-12-20T13:11:45Z</time>
      </trkpt>
      <trkpt lat="50.02381" lon="2.32729">
        <ele>127</ele>
        <time>2023-12-20T13:11:46Z</time>
      </trkpt>
      <trkpt lat="50.02381" lon="2.32731">
        <ele>127</ele>
        <time>2023-12-20T13:11:47Z</time>
      </trkpt>
      <trkpt lat="50.02381" lon="2.32732">
        <ele>127</ele>
        <time>2023-12-20T13:11:49Z</time>
      </trkpt>
      <trkpt lat="50.02381" lon="2.32734">
        <ele>127</ele>
        <time>2023-12-20T13:11:50Z</time>
      </trkpt>
      <trkpt lat="50.02381" lon="2.32737">
        <ele>127</ele>
        <time>2023-12-20T13:11:51Z</time>
      </trkpt>
      <trkpt lat="50.02381" lon="2.32738">
        <ele>127</ele>
        <time>2023-12-20T13:11:52Z</time>
      </trkpt>
      <trkpt lat="50.02382" lon="2.3274">
        <ele>126.9</ele>
        <time>2023-12-20T13:11:53Z</time>
      </trkpt>
      <trkpt lat="50.02382" lon="2.32743">
        <ele>126.9</ele>
        <time>2023-12-20T13:11:54Z</time>
      </trkpt>
      <trkpt lat="50.02382" lon="2.32745">
        <ele>126.9</ele>
        <time>2023-12-20T13:11:55Z</time>
      </trkpt>
      <trkpt lat="50.02382" lon="2.32746">
        <ele>126.9</ele>
        <time>2023-12-20T13:11:56Z</time>
      </trkpt>
      <trkpt lat="50.02382" lon="2.32748">
        <ele>126.9</ele>
        <time>2023-12-20T13:11:57Z</time>
      </trkpt>
      <trkpt lat="50.02383" lon="2.32749">
        <ele>126.9</ele>
        <time>2023-12-20T13:11:58Z</time>
      </trkpt>
      <trkpt lat="50.02383" lon="2.32751">
        <ele>126.8</ele>
        <time>2023-12-20T13:12:00Z</time>
      </trkpt>
      <trkpt lat="50.02383" lon="2.32752">
        <ele>126.8</ele>
        <time>2023-12-20T13:12:01Z</time>
      </trkpt>
      <trkpt lat="50.02383" lon="2.32754">
        <ele>126.8</ele>
        <time>2023-12-20T13:12:02Z</time>
      </trkpt>
      <trkpt lat="50.02383" lon="2.32756">
        <ele>126.8</ele>
        <time>2023-12-20T13:12:03Z</time>
      </trkpt>
      <trkpt lat="50.02382" lon="2.32758">
        <ele>126.8</ele>
        <time>2023-12-20T13:12:04Z</time>
      </trkpt>
      <trkpt lat="50.02382" lon="2.32759">
        <ele>126.8</ele>
        <time>2023-12-20T13:12:05Z</time>
      </trkpt>
      <trkpt lat="50.02382" lon="2.32761">
        <ele>126.7</ele>
        <time>2023-12-20T13:12:06Z</time>
      </trkpt>
      <trkpt lat="50.02382" lon="2.32763">
        <ele>126.7</ele>
        <time>2023-12-20T13:12:08Z</time>
      </trkpt>
      <trkpt lat="50.02382" lon="2.32764">
        <ele>126.7</ele>
        <time>2023-12-20T13:12:09Z</time>
      </trkpt>
      <trkpt lat="50.02383" lon="2.32765">
        <ele>126.7</ele>
        <time>2023-12-20T13:12:10Z</time>
      </trkpt>
      <trkpt lat="50.02383" lon="2.32766">
        <ele>126.7</ele>
        <time>2023-12-20T13:12:11Z</time>
      </trkpt>
      <trkpt lat="50.02384" lon="2.32768">
        <ele>126.7</ele>
        <time>2023-12-20T13:12:12Z</time>
      </trkpt>
      <trkpt lat="50.02384" lon="2.32769">
        <ele>126.7</ele>
        <time>2023-12-20T13:12:13Z</time>
      </trkpt>
      <trkpt lat="50.02384" lon="2.3277">
        <ele>126.7</ele>
        <time>2023-12-20T13:12:14Z</time>
      </trkpt>
      <trkpt lat="50.02384" lon="2.32771">
        <ele>126.6</ele>
        <time>2023-12-20T13:12:15Z</time>
      </trkpt>
      <trkpt lat="50.02385" lon="2.32773">
        <ele>126.6</ele>
        <time>2023-12-20T13:12:16Z</time>
      </trkpt>
      <trkpt lat="50.02385" lon="2.32774">
        <ele>126.6</ele>
        <time>2023-12-20T13:12:18Z</time>
      </trkpt>
      <trkpt lat="50.02386" lon="2.32776">
        <ele>126.6</ele>
        <time>2023-12-20T13:12:19Z</time>
      </trkpt>
      <trkpt lat="50.02387" lon="2.32777">
        <ele>126.6</ele>
        <time>2023-12-20T13:12:20Z</time>
      </trkpt>
      <trkpt lat="50.02388" lon="2.32779">
        <ele>126.6</ele>
        <time>2023-12-20T13:12:22Z</time>
      </trkpt>
      <trkpt lat="50.02389" lon="2.32781">
        <ele>126.5</ele>
        <time>2023-12-20T13:12:23Z</time>
      </trkpt>
      <trkpt lat="50.02389" lon="2.32783">
        <ele>126.5</ele>
        <time>2023-12-20T13:12:24Z</time>
      </trkpt>
      <trkpt lat="50.0239" lon="2.32786">
        <ele>126.5</ele>
        <time>2023-12-20T13:12:25Z</time>
      </trkpt>
      <trkpt lat="50.0239" lon="2.32788">
        <ele>126.5</ele>
        <time>2023-12-20T13:12:26Z</time>
      </trkpt>
      <trkpt lat="50.02391" lon="2.3279">
        <ele>126.5</ele>
        <time>2023-12-20T13:12:27Z</time>
      </trkpt>
      <trkpt lat="50.02391" lon="2.32792">
        <ele>126.5</ele>
        <time>2023-12-20T13:12:28Z</time>
      </trkpt>
      <trkpt lat="50.02392" lon="2.32795">
        <ele>126.5</ele>
        <time>2023-12-20T13:12:30Z</time>
      </trkpt>
      <trkpt lat="50.02392" lon="2.32797">
        <ele>126.5</ele>
        <time>2023-12-20T13:12:31Z</time>
      </trkpt>
      <trkpt lat="50.02393" lon="2.32798">
        <ele>126.4</ele>
        <time>2023-12-20T13:12:32Z</time>
      </trkpt>
      <trkpt lat="50.02393" lon="2.328">
        <ele>126.4</ele>
        <time>2023-12-20T13:12:33Z</time>
      </trkpt>
      <trkpt lat="50.02394" lon="2.32802">
        <ele>126.4</ele>
        <time>2023-12-20T13:12:34Z</time>
      </trkpt>
      <trkpt lat="50.02395" lon="2.32803">
        <ele>126.4</ele>
        <time>2023-12-20T13:12:35Z</time>
      </trkpt>
      <trkpt lat="50.02396" lon="2.32805">
        <ele>126.4</ele>
        <time>2023-12-20T13:12:36Z</time>
      </trkpt>
      <trkpt lat="50.02397" lon="2.32806">
        <ele>126.4</ele>
        <time>2023-12-20T13:12:37Z</time>
      </trkpt>
      <trkpt lat="50.02397" lon="2.32808">
        <ele>126.4</ele>
        <time>2023-12-20T13:12:38Z</time>
      </trkpt>
      <trkpt lat="50.02397" lon="2.3281">
        <ele>126.4</ele>
        <time>2023-12-20T13:12:40Z</time>
      </trkpt>
      <trkpt lat="50.02398" lon="2.32812">
        <ele>126.4</ele>
        <time>2023-12-20T13:12:41Z</time>
      </trkpt>
      <trkpt lat="50.02398" lon="2.32815">
        <ele>126.3</ele>
        <time>2023-12-20T13:12:42Z</time>
      </trkpt>
      <trkpt lat="50.02398" lon="2.32817">
        <ele>126.3</ele>
        <time>2023-12-20T13:12:43Z</time>
      </trkpt>
      <trkpt lat="50.02399" lon="2.3282">
        <ele>126.3</ele>
        <time>2023-12-20T13:12:44Z</time>
      </trkpt>
      <trkpt lat="50.02399" lon="2.32822">
        <ele>126.3</ele>
        <time>2023-12-20T13:12:45Z</time>
      </trkpt>
      <trkpt lat="50.02399" lon="2.32825">
        <ele>126.3</ele>
        <time>2023-12-20T13:12:46Z</time>
      </trkpt>
      <trkpt lat="50.024" lon="2.32827">
        <ele>126.3</ele>
        <time>2023-12-20T13:12:47Z</time>
      </trkpt>
      <trkpt lat="50.024" lon="2.32829">
        <ele>126.3</ele>
        <time>2023-12-20T13:12:49Z</time>
      </trkpt>
      <trkpt lat="50.02401" lon="2.32832">
        <ele>126.2</ele>
        <time>2023-12-20T13:12:50Z</time>
      </trkpt>
      <trkpt lat="50.02402" lon="2.32834">
        <ele>126.2</ele>
        <time>2023-12-20T13:12:51Z</time>
      </trkpt>
      <trkpt lat="50.02402" lon="2.32836">
        <ele>126.2</ele>
        <time>2023-12-20T13:12:52Z</time>
      </trkpt>
      <trkpt lat="50.02403" lon="2.32838">
        <ele>126.2</ele>
        <time>2023-12-20T13:12:53Z</time>
      </trkpt>
      <trkpt lat="50.02404" lon="2.32839">
        <ele>126.2</ele>
        <time>2023-12-20T13:12:54Z</time>
      </trkpt>
      <trkpt lat="50.02405" lon="2.32841">
        <ele>126.2</ele>
        <time>2023-12-20T13:12:55Z</time>
      </trkpt>
      <trkpt lat="50.02406" lon="2.32843">
        <ele>126.2</ele>
        <time>2023-12-20T13:12:56Z</time>
      </trkpt>
      <trkpt lat="50.02407" lon="2.32844">
        <ele>126.2</ele>
        <time>2023-12-20T13:12:57Z</time>
      </trkpt>
      <trkpt lat="50.02408" lon="2.32845">
        <ele>126.2</ele>
        <time>2023-12-20T13:12:59Z</time>
      </trkpt>
      <trkpt lat="50.0241" lon="2.32847">
        <ele>126.2</ele>
        <time>2023-12-20T13:13:00Z</time>
      </trkpt>
      <trkpt lat="50.02411" lon="2.32848">
        <ele>126.2</ele>
        <time>2023-12-20T13:13:01Z</time>
      </trkpt>
      <trkpt lat="50.02411" lon="2.32849">
        <ele>126.2</ele>
        <time>2023-12-20T13:13:02Z</time>
      </trkpt>
      <trkpt lat="50.02412" lon="2.3285">
        <ele>126.2</ele>
        <time>2023-12-20T13:13:03Z</time>
      </trkpt>
      <trkpt lat="50.02414" lon="2.32851">
        <ele>126.2</ele>
        <time>2023-12-20T13:13:04Z</time>
      </trkpt>
      <trkpt lat="50.02415" lon="2.32852">
        <ele>126.2</ele>
        <time>2023-12-20T13:13:05Z</time>
      </trkpt>
      <trkpt lat="50.02416" lon="2.32853">
        <ele>126.2</ele>
        <time>2023-12-20T13:13:07Z</time>
      </trkpt>
      <trkpt lat="50.02418" lon="2.32854">
        <ele>126.2</ele>
        <time>2023-12-20T13:13:08Z</time>
      </trkpt>
      <trkpt lat="50.02419" lon="2.32855">
        <ele>126.2</ele>
        <time>2023-12-20T13:13:09Z</time>
      </trkpt>
      <trkpt lat="50.02421" lon="2.32856">
        <ele>126.2</ele>
        <time>2023-12-20T13:13:10Z</time>
      </trkpt>
      <trkpt lat="50.02422" lon="2.32856">
        <ele>126.2</ele>
        <time>2023-12-20T13:13:11Z</time>
      </trkpt>
      <trkpt lat="50.02422" lon="2.32856">
        <ele>126.2</ele>
        <time>2023-12-20T13:13:12Z</time>
      </trkpt>
      <trkpt lat="50.02425" lon="2.32856">
        <ele>126.1</ele>
        <time>2023-12-20T13:13:14Z</time>
      </trkpt>
      <trkpt lat="50.02425" lon="2.32855">
        <ele>126.1</ele>
        <time>2023-12-20T13:13:15Z</time>
      </trkpt>
      <trkpt lat="50.02426" lon="2.32855">
        <ele>126.1</ele>
        <time>2023-12-20T13:13:16Z</time>
      </trkpt>
      <trkpt lat="50.02427" lon="2.32855">
        <ele>126.1</ele>
        <time>2023-12-20T13:13:17Z</time>
      </trkpt>
      <trkpt lat="50.02428" lon="2.32856">
        <ele>126.1</ele>
        <time>2023-12-20T13:13:18Z</time>
      </trkpt>
      <trkpt lat="50.02429" lon="2.32856">
        <ele>126.1</ele>
        <time>2023-12-20T13:13:19Z</time>
      </trkpt>
      <trkpt lat="50.0243" lon="2.32857">
        <ele>126.1</ele>
        <time>2023-12-20T13:13:20Z</time>
      </trkpt>
      <trkpt lat="50.02431" lon="2.32859">
        <ele>126.1</ele>
        <time>2023-12-20T13:13:21Z</time>
      </trkpt>
      <trkpt lat="50.02432" lon="2.32861">
        <ele>126.1</ele>
        <time>2023-12-20T13:13:23Z</time>
      </trkpt>
      <trkpt lat="50.02433" lon="2.32864">
        <ele>126.1</ele>
        <time>2023-12-20T13:13:24Z</time>
      </trkpt>
      <trkpt lat="50.02434" lon="2.32865">
        <ele>126.1</ele>
        <time>2023-12-20T13:13:25Z</time>
      </trkpt>
      <trkpt lat="50.02434" lon="2.32866">
        <ele>126.1</ele>
        <time>2023-12-20T13:13:26Z</time>
      </trkpt>
      <trkpt lat="50.02435" lon="2.32868">
        <ele>126.1</ele>
        <time>2023-12-20T13:13:27Z</time>
      </trkpt>
      <trkpt lat="50.02436" lon="2.32869">
        <ele>126.1</ele>
        <time>2023-12-20T13:13:28Z</time>
      </trkpt>
      <trkpt lat="50.02437" lon="2.32871">
        <ele>126.1</ele>
        <time>2023-12-20T13:13:30Z</time>
      </trkpt>
      <trkpt lat="50.02438" lon="2.32872">
        <ele>126.1</ele>
        <time>2023-12-20T13:13:31Z</time>
      </trkpt>
      <trkpt lat="50.02439" lon="2.32873">
        <ele>126.1</ele>
        <time>2023-12-20T13:13:32Z</time>
      </trkpt>
      <trkpt lat="50.02441" lon="2.32874">
        <ele>126.1</ele>
        <time>2023-12-20T13:13:33Z</time>
      </trkpt>
      <trkpt lat="50.02442" lon="2.32875">
        <ele>126.1</ele>
        <time>2023-12-20T13:13:34Z</time>
      </trkpt>
      <trkpt lat="50.02443" lon="2.32876">
        <ele>126.1</ele>
        <time>2023-12-20T13:13:36Z</time>
      </trkpt>
      <trkpt lat="50.02444" lon="2.32876">
        <ele>126.1</ele>
        <time>2023-12-20T13:13:37Z</time>
      </trkpt>
      <trkpt lat="50.02445" lon="2.32877">
        <ele>126</ele>
        <time>2023-12-20T13:13:38Z</time>
      </trkpt>
      <trkpt lat="50.02446" lon="2.32877">
        <ele>126</ele>
        <time>2023-12-20T13:13:39Z</time>
      </trkpt>
      <trkpt lat="50.02447" lon="2.32878">
        <ele>126</ele>
        <time>2023-12-20T13:13:40Z</time>
      </trkpt>
      <trkpt lat="50.02448" lon="2.32879">
        <ele>126</ele>
        <time>2023-12-20T13:13:42Z</time>
      </trkpt>
      <trkpt lat="50.0245" lon="2.3288">
        <ele>126</ele>
        <time>2023-12-20T13:13:43Z</time>
      </trkpt>
      <trkpt lat="50.02451" lon="2.3288">
        <ele>126</ele>
        <time>2023-12-20T13:13:44Z</time>
      </trkpt>
      <trkpt lat="50.02452" lon="2.32881">
        <ele>126</ele>
        <time>2023-12-20T13:13:45Z</time>
      </trkpt>
      <trkpt lat="50.02453" lon="2.32882">
        <ele>126</ele>
        <time>2023-12-20T13:13:46Z</time>
      </trkpt>
      <trkpt lat="50.02454" lon="2.32882">
        <ele>126</ele>
        <time>2023-12-20T13:13:47Z</time>
      </trkpt>
      <trkpt lat="50.02456" lon="2.32883">
        <ele>126</ele>
        <time>2023-12-20T13:13:48Z</time>
      </trkpt>
      <trkpt lat="50.02457" lon="2.32883">
        <ele>126</ele>
        <time>2023-12-20T13:13:50Z</time>
      </trkpt>
      <trkpt lat="50.02458" lon="2.32884">
        <ele>126</ele>
        <time>2023-12-20T13:13:51Z</time>
      </trkpt>
      <trkpt lat="50.02459" lon="2.32884">
        <ele>126</ele>
        <time>2023-12-20T13:13:52Z</time>
      </trkpt>
      <trkpt lat="50.0246" lon="2.32885">
        <ele>126</ele>
        <time>2023-12-20T13:13:53Z</time>
      </trkpt>
      <trkpt lat="50.02462" lon="2.32885">
        <ele>126</ele>
        <time>2023-12-20T13:13:54Z</time>
      </trkpt>
      <trkpt lat="50.02464" lon="2.32886">
        <ele>126</ele>
        <time>2023-12-20T13:13:55Z</time>
      </trkpt>
      <trkpt lat="50.02465" lon="2.32886">
        <ele>126</ele>
        <time>2023-12-20T13:13:56Z</time>
      </trkpt>
      <trkpt lat="50.02467" lon="2.32886">
        <ele>126</ele>
        <time>2023-12-20T13:13:57Z</time>
      </trkpt>
      <trkpt lat="50.02468" lon="2.32887">
        <ele>126</ele>
        <time>2023-12-20T13:13:59Z</time>
      </trkpt>
      <trkpt lat="50.02469" lon="2.32887">
        <ele>126</ele>
        <time>2023-12-20T13:14:00Z</time>
      </trkpt>
      <trkpt lat="50.02471" lon="2.32888">
        <ele>126</ele>
        <time>2023-12-20T13:14:01Z</time>
      </trkpt>
      <trkpt lat="50.02472" lon="2.32888">
        <ele>126</ele>
        <time>2023-12-20T13:14:02Z</time>
      </trkpt>
      <trkpt lat="50.02472" lon="2.32888">
        <ele>126</ele>
        <time>2023-12-20T13:14:03Z</time>
      </trkpt>
      <trkpt lat="50.02475" lon="2.32889">
        <ele>126.1</ele>
        <time>2023-12-20T13:14:04Z</time>
      </trkpt>
      <trkpt lat="50.02475" lon="2.3289">
        <ele>126.1</ele>
        <time>2023-12-20T13:14:05Z</time>
      </trkpt>
      <trkpt lat="50.02476" lon="2.3289">
        <ele>126.1</ele>
        <time>2023-12-20T13:14:06Z</time>
      </trkpt>
      <trkpt lat="50.02478" lon="2.32891">
        <ele>126.1</ele>
        <time>2023-12-20T13:14:08Z</time>
      </trkpt>
      <trkpt lat="50.02479" lon="2.32892">
        <ele>126.1</ele>
        <time>2023-12-20T13:14:09Z</time>
      </trkpt>
      <trkpt lat="50.0248" lon="2.32892">
        <ele>126.1</ele>
        <time>2023-12-20T13:14:10Z</time>
      </trkpt>
      <trkpt lat="50.02481" lon="2.32893">
        <ele>126.1</ele>
        <time>2023-12-20T13:14:11Z</time>
      </trkpt>
      <trkpt lat="50.02482" lon="2.32894">
        <ele>126.1</ele>
        <time>2023-12-20T13:14:12Z</time>
      </trkpt>
      <trkpt lat="50.02483" lon="2.32894">
        <ele>126.1</ele>
        <time>2023-12-20T13:14:13Z</time>
      </trkpt>
      <trkpt lat="50.02485" lon="2.32896">
        <ele>126.1</ele>
        <time>2023-12-20T13:14:14Z</time>
      </trkpt>
      <trkpt lat="50.02485" lon="2.32896">
        <ele>126.1</ele>
        <time>2023-12-20T13:14:15Z</time>
      </trkpt>
      <trkpt lat="50.02486" lon="2.32897">
        <ele>126.1</ele>
        <time>2023-12-20T13:14:16Z</time>
      </trkpt>
      <trkpt lat="50.02488" lon="2.32899">
        <ele>126.1</ele>
        <time>2023-12-20T13:14:17Z</time>
      </trkpt>
      <trkpt lat="50.02489" lon="2.329">
        <ele>126.1</ele>
        <time>2023-12-20T13:14:19Z</time>
      </trkpt>
      <trkpt lat="50.02489" lon="2.329">
        <ele>126.1</ele>
        <time>2023-12-20T13:14:20Z</time>
      </trkpt>
      <trkpt lat="50.02491" lon="2.32902">
        <ele>126.1</ele>
        <time>2023-12-20T13:14:21Z</time>
      </trkpt>
      <trkpt lat="50.02492" lon="2.32902">
        <ele>126.1</ele>
        <time>2023-12-20T13:14:22Z</time>
      </trkpt>
      <trkpt lat="50.02493" lon="2.32903">
        <ele>126.1</ele>
        <time>2023-12-20T13:14:23Z</time>
      </trkpt>
      <trkpt lat="50.02494" lon="2.32904">
        <ele>126.2</ele>
        <time>2023-12-20T13:14:24Z</time>
      </trkpt>
      <trkpt lat="50.02495" lon="2.32904">
        <ele>126.2</ele>
        <time>2023-12-20T13:14:25Z</time>
      </trkpt>
      <trkpt lat="50.02496" lon="2.32905">
        <ele>126.2</ele>
        <time>2023-12-20T13:14:27Z</time>
      </trkpt>
      <trkpt lat="50.02498" lon="2.32906">
        <ele>126.2</ele>
        <time>2023-12-20T13:14:28Z</time>
      </trkpt>
      <trkpt lat="50.02499" lon="2.32907">
        <ele>126.2</ele>
        <time>2023-12-20T13:14:29Z</time>
      </trkpt>
      <trkpt lat="50.02501" lon="2.32908">
        <ele>126.2</ele>
        <time>2023-12-20T13:14:30Z</time>
      </trkpt>
      <trkpt lat="50.02502" lon="2.32909">
        <ele>126.2</ele>
        <time>2023-12-20T13:14:31Z</time>
      </trkpt>
      <trkpt lat="50.02503" lon="2.3291">
        <ele>126.2</ele>
        <time>2023-12-20T13:14:32Z</time>
      </trkpt>
      <trkpt lat="50.02504" lon="2.32911">
        <ele>126.2</ele>
        <time>2023-12-20T13:14:33Z</time>
      </trkpt>
      <trkpt lat="50.02505" lon="2.32912">
        <ele>126.2</ele>
        <time>2023-12-20T13:14:35Z</time>
      </trkpt>
      <trkpt lat="50.02506" lon="2.32912">
        <ele>126.2</ele>
        <time>2023-12-20T13:14:36Z</time>
      </trkpt>
      <trkpt lat="50.02507" lon="2.32913">
        <ele>126.2</ele>
        <time>2023-12-20T13:14:37Z</time>
      </trkpt>
      <trkpt lat="50.02509" lon="2.32915">
        <ele>126.2</ele>
        <time>2023-12-20T13:14:38Z</time>
      </trkpt>
      <trkpt lat="50.0251" lon="2.32916">
        <ele>126.2</ele>
        <time>2023-12-20T13:14:39Z</time>
      </trkpt>
      <trkpt lat="50.02511" lon="2.32916">
        <ele>126.3</ele>
        <time>2023-12-20T13:14:40Z</time>
      </trkpt>
      <trkpt lat="50.02512" lon="2.32917">
        <ele>126.3</ele>
        <time>2023-12-20T13:14:41Z</time>
      </trkpt>
      <trkpt lat="50.02513" lon="2.32918">
        <ele>126.3</ele>
        <time>2023-12-20T13:14:42Z</time>
      </trkpt>
      <trkpt lat="50.02514" lon="2.32919">
        <ele>126.3</ele>
        <time>2023-12-20T13:14:43Z</time>
      </trkpt>
      <trkpt lat="50.02515" lon="2.3292">
        <ele>126.3</ele>
        <time>2023-12-20T13:14:45Z</time>
      </trkpt>
      <trkpt lat="50.02516" lon="2.32921">
        <ele>126.3</ele>
        <time>2023-12-20T13:14:46Z</time>
      </trkpt>
      <trkpt lat="50.02517" lon="2.32922">
        <ele>126.3</ele>
        <time>2023-12-20T13:14:47Z</time>
      </trkpt>
      <trkpt lat="50.02519" lon="2.32924">
        <ele>126.3</ele>
        <time>2023-12-20T13:14:48Z</time>
      </trkpt>
      <trkpt lat="50.0252" lon="2.32924">
        <ele>126.3</ele>
        <time>2023-12-20T13:14:49Z</time>
      </trkpt>
      <trkpt lat="50.0252" lon="2.32925">
        <ele>126.3</ele>
        <time>2023-12-20T13:14:50Z</time>
      </trkpt>
      <trkpt lat="50.02522" lon="2.32926">
        <ele>126.3</ele>
        <time>2023-12-20T13:14:51Z</time>
      </trkpt>
      <trkpt lat="50.02523" lon="2.32927">
        <ele>126.3</ele>
        <time>2023-12-20T13:14:52Z</time>
      </trkpt>
      <trkpt lat="50.02524" lon="2.32928">
        <ele>126.3</ele>
        <time>2023-12-20T13:14:54Z</time>
      </trkpt>
      <trkpt lat="50.02525" lon="2.32928">
        <ele>126.4</ele>
        <time>2023-12-20T13:14:55Z</time>
      </trkpt>
      <trkpt lat="50.02526" lon="2.32929">
        <ele>126.4</ele>
        <time>2023-12-20T13:14:56Z</time>
      </trkpt>
      <trkpt lat="50.02527" lon="2.3293">
        <ele>126.4</ele>
        <time>2023-12-20T13:14:57Z</time>
      </trkpt>
      <trkpt lat="50.02529" lon="2.32931">
        <ele>126.4</ele>
        <time>2023-12-20T13:14:58Z</time>
      </trkpt>
      <trkpt lat="50.0253" lon="2.32932">
        <ele>126.4</ele>
        <time>2023-12-20T13:14:59Z</time>
      </trkpt>
      <trkpt lat="50.02531" lon="2.32932">
        <ele>126.4</ele>
        <time>2023-12-20T13:15:00Z</time>
      </trkpt>
      <trkpt lat="50.02532" lon="2.32934">
        <ele>126.4</ele>
        <time>2023-12-20T13:15:02Z</time>
      </trkpt>
      <trkpt lat="50.02533" lon="2.32935">
        <ele>126.4</ele>
        <time>2023-12-20T13:15:03Z</time>
      </trkpt>
      <trkpt lat="50.02534" lon="2.32935">
        <ele>126.4</ele>
        <time>2023-12-20T13:15:04Z</time>
      </trkpt>
      <trkpt lat="50.02535" lon="2.32936">
        <ele>126.4</ele>
        <time>2023-12-20T13:15:05Z</time>
      </trkpt>
      <trkpt lat="50.02536" lon="2.32937">
        <ele>126.4</ele>
        <time>2023-12-20T13:15:06Z</time>
      </trkpt>
      <trkpt lat="50.02537" lon="2.32937">
        <ele>126.5</ele>
        <time>2023-12-20T13:15:07Z</time>
      </trkpt>
      <trkpt lat="50.02538" lon="2.32938">
        <ele>126.5</ele>
        <time>2023-12-20T13:15:08Z</time>
      </trkpt>
      <trkpt lat="50.0254" lon="2.32939">
        <ele>126.5</ele>
        <time>2023-12-20T13:15:10Z</time>
      </trkpt>
      <trkpt lat="50.02541" lon="2.3294">
        <ele>126.5</ele>
        <time>2023-12-20T13:15:11Z</time>
      </trkpt>
      <trkpt lat="50.02542" lon="2.3294">
        <ele>126.5</ele>
        <time>2023-12-20T13:15:12Z</time>
      </trkpt>
      <trkpt lat="50.02544" lon="2.32942">
        <ele>126.5</ele>
        <time>2023-12-20T13:15:13Z</time>
      </trkpt>
      <trkpt lat="50.02545" lon="2.32942">
        <ele>126.5</ele>
        <time>2023-12-20T13:15:14Z</time>
      </trkpt>
      <trkpt lat="50.02546" lon="2.32943">
        <ele>126.5</ele>
        <time>2023-12-20T13:15:15Z</time>
      </trkpt>
      <trkpt lat="50.02548" lon="2.32944">
        <ele>126.5</ele>
        <time>2023-12-20T13:15:16Z</time>
      </trkpt>
      <trkpt lat="50.02548" lon="2.32944">
        <ele>126.5</ele>
        <time>2023-12-20T13:15:18Z</time>
      </trkpt>
      <trkpt lat="50.02549" lon="2.32945">
        <ele>126.6</ele>
        <time>2023-12-20T13:15:19Z</time>
      </trkpt>
      <trkpt lat="50.0255" lon="2.32946">
        <ele>126.6</ele>
        <time>2023-12-20T13:15:20Z</time>
      </trkpt>
      <trkpt lat="50.02552" lon="2.32947">
        <ele>126.6</ele>
        <time>2023-12-20T13:15:21Z</time>
      </trkpt>
      <trkpt lat="50.02553" lon="2.32947">
        <ele>126.6</ele>
        <time>2023-12-20T13:15:22Z</time>
      </trkpt>
      <trkpt lat="50.02554" lon="2.32948">
        <ele>126.6</ele>
        <time>2023-12-20T13:15:23Z</time>
      </trkpt>
      <trkpt lat="50.02555" lon="2.32949">
        <ele>126.6</ele>
        <time>2023-12-20T13:15:24Z</time>
      </trkpt>
      <trkpt lat="50.02557" lon="2.3295">
        <ele>126.6</ele>
        <time>2023-12-20T13:15:25Z</time>
      </trkpt>
      <trkpt lat="50.02558" lon="2.3295">
        <ele>126.6</ele>
        <time>2023-12-20T13:15:27Z</time>
      </trkpt>
      <trkpt lat="50.02558" lon="2.32951">
        <ele>126.6</ele>
        <time>2023-12-20T13:15:28Z</time>
      </trkpt>
      <trkpt lat="50.0256" lon="2.32951">
        <ele>126.6</ele>
        <time>2023-12-20T13:15:29Z</time>
      </trkpt>
      <trkpt lat="50.02561" lon="2.32952">
        <ele>126.6</ele>
        <time>2023-12-20T13:15:30Z</time>
      </trkpt>
      <trkpt lat="50.02562" lon="2.32953">
        <ele>126.6</ele>
        <time>2023-12-20T13:15:32Z</time>
      </trkpt>
      <trkpt lat="50.02564" lon="2.32954">
        <ele>126.6</ele>
        <time>2023-12-20T13:15:33Z</time>
      </trkpt>
      <trkpt lat="50.02565" lon="2.32954">
        <ele>126.6</ele>
        <time>2023-12-20T13:15:35Z</time>
      </trkpt>
      <trkpt lat="50.02567" lon="2.32955">
        <ele>126.6</ele>
        <time>2023-12-20T13:15:36Z</time>
      </trkpt>
      <trkpt lat="50.02568" lon="2.32956">
        <ele>126.6</ele>
        <time>2023-12-20T13:15:37Z</time>
      </trkpt>
      <trkpt lat="50.02569" lon="2.32956">
        <ele>126.6</ele>
        <time>2023-12-20T13:15:38Z</time>
      </trkpt>
      <trkpt lat="50.0257" lon="2.32957">
        <ele>126.6</ele>
        <time>2023-12-20T13:15:39Z</time>
      </trkpt>
      <trkpt lat="50.02571" lon="2.32957">
        <ele>126.6</ele>
        <time>2023-12-20T13:15:40Z</time>
      </trkpt>
      <trkpt lat="50.02572" lon="2.32958">
        <ele>126.6</ele>
        <time>2023-12-20T13:15:41Z</time>
      </trkpt>
      <trkpt lat="50.02575" lon="2.32958">
        <ele>126.6</ele>
        <time>2023-12-20T13:15:43Z</time>
      </trkpt>
      <trkpt lat="50.02575" lon="2.32959">
        <ele>126.6</ele>
        <time>2023-12-20T13:15:44Z</time>
      </trkpt>
      <trkpt lat="50.02576" lon="2.32959">
        <ele>126.6</ele>
        <time>2023-12-20T13:15:45Z</time>
      </trkpt>
      <trkpt lat="50.02578" lon="2.3296">
        <ele>126.6</ele>
        <time>2023-12-20T13:15:46Z</time>
      </trkpt>
      <trkpt lat="50.02579" lon="2.3296">
        <ele>126.6</ele>
        <time>2023-12-20T13:15:47Z</time>
      </trkpt>
      <trkpt lat="50.0258" lon="2.32961">
        <ele>126.6</ele>
        <time>2023-12-20T13:15:48Z</time>
      </trkpt>
      <trkpt lat="50.02581" lon="2.32962">
        <ele>126.6</ele>
        <time>2023-12-20T13:15:50Z</time>
      </trkpt>
      <trkpt lat="50.02582" lon="2.32963">
        <ele>126.6</ele>
        <time>2023-12-20T13:15:51Z</time>
      </trkpt>
      <trkpt lat="50.02583" lon="2.32963">
        <ele>126.6</ele>
        <time>2023-12-20T13:15:52Z</time>
      </trkpt>
      <trkpt lat="50.02584" lon="2.32965">
        <ele>126.6</ele>
        <time>2023-12-20T13:15:53Z</time>
      </trkpt>
      <trkpt lat="50.02585" lon="2.32966">
        <ele>126.6</ele>
        <time>2023-12-20T13:15:54Z</time>
      </trkpt>
      <trkpt lat="50.02586" lon="2.32967">
        <ele>126.6</ele>
        <time>2023-12-20T13:15:55Z</time>
      </trkpt>
      <trkpt lat="50.02587" lon="2.32969">
        <ele>126.5</ele>
        <time>2023-12-20T13:15:56Z</time>
      </trkpt>
      <trkpt lat="50.02589" lon="2.32971">
        <ele>126.5</ele>
        <time>2023-12-20T13:15:57Z</time>
      </trkpt>
      <trkpt lat="50.0259" lon="2.32971">
        <ele>126.5</ele>
        <time>2023-12-20T13:15:59Z</time>
      </trkpt>
      <trkpt lat="50.0259" lon="2.32972">
        <ele>126.5</ele>
        <time>2023-12-20T13:16:00Z</time>
      </trkpt>
      <trkpt lat="50.02592" lon="2.32974">
        <ele>126.5</ele>
        <time>2023-12-20T13:16:01Z</time>
      </trkpt>
      <trkpt lat="50.02593" lon="2.32975">
        <ele>126.5</ele>
        <time>2023-12-20T13:16:02Z</time>
      </trkpt>
      <trkpt lat="50.02594" lon="2.32976">
        <ele>126.5</ele>
        <time>2023-12-20T13:16:03Z</time>
      </trkpt>
      <trkpt lat="50.02595" lon="2.32977">
        <ele>126.4</ele>
        <time>2023-12-20T13:16:04Z</time>
      </trkpt>
      <trkpt lat="50.02596" lon="2.32978">
        <ele>126.4</ele>
        <time>2023-12-20T13:16:05Z</time>
      </trkpt>
      <trkpt lat="50.02597" lon="2.32979">
        <ele>126.4</ele>
        <time>2023-12-20T13:16:07Z</time>
      </trkpt>
      <trkpt lat="50.02598" lon="2.32981">
        <ele>126.4</ele>
        <time>2023-12-20T13:16:08Z</time>
      </trkpt>
      <trkpt lat="50.02599" lon="2.32982">
        <ele>126.4</ele>
        <time>2023-12-20T13:16:09Z</time>
      </trkpt>
      <trkpt lat="50.026" lon="2.32983">
        <ele>126.4</ele>
        <time>2023-12-20T13:16:10Z</time>
      </trkpt>
      <trkpt lat="50.02601" lon="2.32985">
        <ele>126.4</ele>
        <time>2023-12-20T13:16:11Z</time>
      </trkpt>
      <trkpt lat="50.02601" lon="2.32987">
        <ele>126.4</ele>
        <time>2023-12-20T13:16:12Z</time>
      </trkpt>
      <trkpt lat="50.02603" lon="2.32988">
        <ele>126.4</ele>
        <time>2023-12-20T13:16:13Z</time>
      </trkpt>
      <trkpt lat="50.02604" lon="2.3299">
        <ele>126.3</ele>
        <time>2023-12-20T13:16:14Z</time>
      </trkpt>
      <trkpt lat="50.02605" lon="2.32992">
        <ele>126.3</ele>
        <time>2023-12-20T13:16:16Z</time>
      </trkpt>
      <trkpt lat="50.02606" lon="2.32993">
        <ele>126.3</ele>
        <time>2023-12-20T13:16:17Z</time>
      </trkpt>
      <trkpt lat="50.02606" lon="2.32994">
        <ele>126.3</ele>
        <time>2023-12-20T13:16:18Z</time>
      </trkpt>
      <trkpt lat="50.02607" lon="2.32996">
        <ele>126.3</ele>
        <time>2023-12-20T13:16:19Z</time>
      </trkpt>
      <trkpt lat="50.02609" lon="2.32997">
        <ele>126.3</ele>
        <time>2023-12-20T13:16:20Z</time>
      </trkpt>
      <trkpt lat="50.0261" lon="2.32999">
        <ele>126.3</ele>
        <time>2023-12-20T13:16:21Z</time>
      </trkpt>
      <trkpt lat="50.02611" lon="2.33">
        <ele>126.3</ele>
        <time>2023-12-20T13:16:22Z</time>
      </trkpt>
      <trkpt lat="50.02612" lon="2.33001">
        <ele>126.3</ele>
        <time>2023-12-20T13:16:23Z</time>
      </trkpt>
      <trkpt lat="50.02613" lon="2.33002">
        <ele>126.3</ele>
        <time>2023-12-20T13:16:25Z</time>
      </trkpt>
      <trkpt lat="50.02613" lon="2.33003">
        <ele>126.3</ele>
        <time>2023-12-20T13:16:26Z</time>
      </trkpt>
      <trkpt lat="50.02615" lon="2.33006">
        <ele>126.3</ele>
        <time>2023-12-20T13:16:27Z</time>
      </trkpt>
      <trkpt lat="50.02616" lon="2.33007">
        <ele>126.3</ele>
        <time>2023-12-20T13:16:29Z</time>
      </trkpt>
      <trkpt lat="50.02617" lon="2.33008">
        <ele>126.3</ele>
        <time>2023-12-20T13:16:30Z</time>
      </trkpt>
      <trkpt lat="50.02618" lon="2.3301">
        <ele>126.3</ele>
        <time>2023-12-20T13:16:31Z</time>
      </trkpt>
      <trkpt lat="50.02618" lon="2.33011">
        <ele>126.3</ele>
        <time>2023-12-20T13:16:32Z</time>
      </trkpt>
      <trkpt lat="50.02619" lon="2.33012">
        <ele>126.3</ele>
        <time>2023-12-20T13:16:34Z</time>
      </trkpt>
      <trkpt lat="50.0262" lon="2.33013">
        <ele>126.3</ele>
        <time>2023-12-20T13:16:35Z</time>
      </trkpt>
      <trkpt lat="50.0262" lon="2.33015">
        <ele>126.3</ele>
        <time>2023-12-20T13:16:36Z</time>
      </trkpt>
      <trkpt lat="50.02621" lon="2.33018">
        <ele>126.3</ele>
        <time>2023-12-20T13:16:37Z</time>
      </trkpt>
      <trkpt lat="50.02622" lon="2.33019">
        <ele>126.3</ele>
        <time>2023-12-20T13:16:38Z</time>
      </trkpt>
      <trkpt lat="50.02622" lon="2.3302">
        <ele>126.3</ele>
        <time>2023-12-20T13:16:39Z</time>
      </trkpt>
      <trkpt lat="50.02623" lon="2.33021">
        <ele>126.3</ele>
        <time>2023-12-20T13:16:40Z</time>
      </trkpt>
      <trkpt lat="50.02624" lon="2.33023">
        <ele>126.3</ele>
        <time>2023-12-20T13:16:41Z</time>
      </trkpt>
      <trkpt lat="50.02624" lon="2.33024">
        <ele>126.3</ele>
        <time>2023-12-20T13:16:42Z</time>
      </trkpt>
      <trkpt lat="50.02625" lon="2.33026">
        <ele>126.3</ele>
        <time>2023-12-20T13:16:44Z</time>
      </trkpt>
      <trkpt lat="50.02625" lon="2.33027">
        <ele>126.3</ele>
        <time>2023-12-20T13:16:45Z</time>
      </trkpt>
      <trkpt lat="50.02626" lon="2.33028">
        <ele>126.3</ele>
        <time>2023-12-20T13:16:46Z</time>
      </trkpt>
      <trkpt lat="50.02628" lon="2.33031">
        <ele>126.3</ele>
        <time>2023-12-20T13:16:47Z</time>
      </trkpt>
      <trkpt lat="50.02628" lon="2.33032">
        <ele>126.3</ele>
        <time>2023-12-20T13:16:48Z</time>
      </trkpt>
      <trkpt lat="50.02629" lon="2.33032">
        <ele>126.3</ele>
        <time>2023-12-20T13:16:49Z</time>
      </trkpt>
      <trkpt lat="50.0263" lon="2.33034">
        <ele>126.3</ele>
        <time>2023-12-20T13:16:50Z</time>
      </trkpt>
      <trkpt lat="50.02631" lon="2.33035">
        <ele>126.3</ele>
        <time>2023-12-20T13:16:51Z</time>
      </trkpt>
      <trkpt lat="50.02632" lon="2.33037">
        <ele>126.3</ele>
        <time>2023-12-20T13:16:52Z</time>
      </trkpt>
      <trkpt lat="50.02633" lon="2.33038">
        <ele>126.3</ele>
        <time>2023-12-20T13:16:53Z</time>
      </trkpt>
      <trkpt lat="50.02634" lon="2.33039">
        <ele>126.3</ele>
        <time>2023-12-20T13:16:55Z</time>
      </trkpt>
      <trkpt lat="50.02635" lon="2.3304">
        <ele>126.4</ele>
        <time>2023-12-20T13:16:56Z</time>
      </trkpt>
      <trkpt lat="50.02636" lon="2.33041">
        <ele>126.4</ele>
        <time>2023-12-20T13:16:57Z</time>
      </trkpt>
      <trkpt lat="50.02637" lon="2.33042">
        <ele>126.4</ele>
        <time>2023-12-20T13:16:58Z</time>
      </trkpt>
      <trkpt lat="50.02639" lon="2.33043">
        <ele>126.4</ele>
        <time>2023-12-20T13:16:59Z</time>
      </trkpt>
      <trkpt lat="50.02639" lon="2.33043">
        <ele>126.4</ele>
        <time>2023-12-20T13:17:00Z</time>
      </trkpt>
      <trkpt lat="50.0264" lon="2.33043">
        <ele>126.5</ele>
        <time>2023-12-20T13:17:01Z</time>
      </trkpt>
      <trkpt lat="50.02641" lon="2.33044">
        <ele>126.5</ele>
        <time>2023-12-20T13:17:02Z</time>
      </trkpt>
      <trkpt lat="50.02642" lon="2.33044">
        <ele>126.5</ele>
        <time>2023-12-20T13:17:04Z</time>
      </trkpt>
      <trkpt lat="50.02643" lon="2.33044">
        <ele>126.5</ele>
        <time>2023-12-20T13:17:05Z</time>
      </trkpt>
      <trkpt lat="50.02644" lon="2.33045">
        <ele>126.5</ele>
        <time>2023-12-20T13:17:06Z</time>
      </trkpt>
      <trkpt lat="50.02645" lon="2.33045">
        <ele>126.5</ele>
        <time>2023-12-20T13:17:07Z</time>
      </trkpt>
      <trkpt lat="50.02646" lon="2.33045">
        <ele>126.6</ele>
        <time>2023-12-20T13:17:08Z</time>
      </trkpt>
      <trkpt lat="50.02647" lon="2.33045">
        <ele>126.6</ele>
        <time>2023-12-20T13:17:09Z</time>
      </trkpt>
      <trkpt lat="50.02648" lon="2.33046">
        <ele>126.6</ele>
        <time>2023-12-20T13:17:10Z</time>
      </trkpt>
      <trkpt lat="50.02648" lon="2.33046">
        <ele>126.6</ele>
        <time>2023-12-20T13:17:11Z</time>
      </trkpt>
      <trkpt lat="50.02649" lon="2.33047">
        <ele>126.6</ele>
        <time>2023-12-20T13:17:13Z</time>
      </trkpt>
      <trkpt lat="50.02649" lon="2.33047">
        <ele>126.6</ele>
        <time>2023-12-20T13:17:14Z</time>
      </trkpt>
      <trkpt lat="50.0265" lon="2.33048">
        <ele>126.6</ele>
        <time>2023-12-20T13:17:15Z</time>
      </trkpt>
      <trkpt lat="50.02651" lon="2.33049">
        <ele>126.6</ele>
        <time>2023-12-20T13:17:16Z</time>
      </trkpt>
      <trkpt lat="50.02652" lon="2.33049">
        <ele>126.6</ele>
        <time>2023-12-20T13:17:17Z</time>
      </trkpt>
      <trkpt lat="50.02653" lon="2.3305">
        <ele>126.7</ele>
        <time>2023-12-20T13:17:18Z</time>
      </trkpt>
      <trkpt lat="50.02654" lon="2.33052">
        <ele>126.7</ele>
        <time>2023-12-20T13:17:19Z</time>
      </trkpt>
      <trkpt lat="50.02655" lon="2.33053">
        <ele>126.7</ele>
        <time>2023-12-20T13:17:20Z</time>
      </trkpt>
      <trkpt lat="50.02656" lon="2.33055">
        <ele>126.7</ele>
        <time>2023-12-20T13:17:21Z</time>
      </trkpt>
      <trkpt lat="50.02657" lon="2.33056">
        <ele>126.7</ele>
        <time>2023-12-20T13:17:23Z</time>
      </trkpt>
      <trkpt lat="50.02657" lon="2.33057">
        <ele>126.7</ele>
        <time>2023-12-20T13:17:24Z</time>
      </trkpt>
      <trkpt lat="50.02659" lon="2.33058">
        <ele>126.7</ele>
        <time>2023-12-20T13:17:25Z</time>
      </trkpt>
      <trkpt lat="50.0266" lon="2.33059">
        <ele>126.7</ele>
        <time>2023-12-20T13:17:26Z</time>
      </trkpt>
      <trkpt lat="50.02661" lon="2.33061">
        <ele>126.7</ele>
        <time>2023-12-20T13:17:27Z</time>
      </trkpt>
      <trkpt lat="50.02663" lon="2.33062">
        <ele>126.7</ele>
        <time>2023-12-20T13:17:28Z</time>
      </trkpt>
      <trkpt lat="50.02664" lon="2.33063">
        <ele>126.7</ele>
        <time>2023-12-20T13:17:29Z</time>
      </trkpt>
      <trkpt lat="50.02665" lon="2.33065">
        <ele>126.7</ele>
        <time>2023-12-20T13:17:30Z</time>
      </trkpt>
      <trkpt lat="50.02667" lon="2.33066">
        <ele>126.7</ele>
        <time>2023-12-20T13:17:31Z</time>
      </trkpt>
      <trkpt lat="50.02668" lon="2.33067">
        <ele>126.7</ele>
        <time>2023-12-20T13:17:33Z</time>
      </trkpt>
      <trkpt lat="50.0267" lon="2.33069">
        <ele>126.7</ele>
        <time>2023-12-20T13:17:34Z</time>
      </trkpt>
      <trkpt lat="50.02671" lon="2.33071">
        <ele>126.7</ele>
        <time>2023-12-20T13:17:35Z</time>
      </trkpt>
      <trkpt lat="50.02672" lon="2.33072">
        <ele>126.7</ele>
        <time>2023-12-20T13:17:36Z</time>
      </trkpt>
      <trkpt lat="50.02673" lon="2.33073">
        <ele>126.7</ele>
        <time>2023-12-20T13:17:37Z</time>
      </trkpt>
      <trkpt lat="50.02675" lon="2.33075">
        <ele>126.7</ele>
        <time>2023-12-20T13:17:38Z</time>
      </trkpt>
      <trkpt lat="50.02676" lon="2.33076">
        <ele>126.7</ele>
        <time>2023-12-20T13:17:39Z</time>
      </trkpt>
      <trkpt lat="50.02677" lon="2.33078">
        <ele>126.7</ele>
        <time>2023-12-20T13:17:41Z</time>
      </trkpt>
      <trkpt lat="50.02678" lon="2.3308">
        <ele>126.7</ele>
        <time>2023-12-20T13:17:42Z</time>
      </trkpt>
      <trkpt lat="50.02679" lon="2.33082">
        <ele>126.7</ele>
        <time>2023-12-20T13:17:43Z</time>
      </trkpt>
      <trkpt lat="50.0268" lon="2.33083">
        <ele>126.7</ele>
        <time>2023-12-20T13:17:44Z</time>
      </trkpt>
      <trkpt lat="50.0268" lon="2.33084">
        <ele>126.7</ele>
        <time>2023-12-20T13:17:45Z</time>
      </trkpt>
      <trkpt lat="50.02682" lon="2.33086">
        <ele>126.7</ele>
        <time>2023-12-20T13:17:47Z</time>
      </trkpt>
      <trkpt lat="50.02682" lon="2.33087">
        <ele>126.7</ele>
        <time>2023-12-20T13:17:48Z</time>
      </trkpt>
      <trkpt lat="50.02683" lon="2.33088">
        <ele>126.7</ele>
        <time>2023-12-20T13:17:49Z</time>
      </trkpt>
      <trkpt lat="50.02684" lon="2.33091">
        <ele>126.7</ele>
        <time>2023-12-20T13:17:50Z</time>
      </trkpt>
      <trkpt lat="50.02685" lon="2.33091">
        <ele>126.7</ele>
        <time>2023-12-20T13:17:51Z</time>
      </trkpt>
      <trkpt lat="50.02685" lon="2.33092">
        <ele>126.7</ele>
        <time>2023-12-20T13:17:52Z</time>
      </trkpt>
      <trkpt lat="50.02686" lon="2.33094">
        <ele>126.7</ele>
        <time>2023-12-20T13:17:53Z</time>
      </trkpt>
      <trkpt lat="50.02687" lon="2.33095">
        <ele>126.7</ele>
        <time>2023-12-20T13:17:54Z</time>
      </trkpt>
      <trkpt lat="50.02687" lon="2.33096">
        <ele>126.7</ele>
        <time>2023-12-20T13:17:55Z</time>
      </trkpt>
      <trkpt lat="50.02688" lon="2.33099">
        <ele>126.7</ele>
        <time>2023-12-20T13:17:57Z</time>
      </trkpt>
      <trkpt lat="50.02689" lon="2.331">
        <ele>126.7</ele>
        <time>2023-12-20T13:17:58Z</time>
      </trkpt>
      <trkpt lat="50.02689" lon="2.33101">
        <ele>126.7</ele>
        <time>2023-12-20T13:17:59Z</time>
      </trkpt>
      <trkpt lat="50.0269" lon="2.33102">
        <ele>126.7</ele>
        <time>2023-12-20T13:18:00Z</time>
      </trkpt>
      <trkpt lat="50.02691" lon="2.33104">
        <ele>126.7</ele>
        <time>2023-12-20T13:18:01Z</time>
      </trkpt>
      <trkpt lat="50.02691" lon="2.33105">
        <ele>126.7</ele>
        <time>2023-12-20T13:18:02Z</time>
      </trkpt>
      <trkpt lat="50.02693" lon="2.33108">
        <ele>126.7</ele>
        <time>2023-12-20T13:18:03Z</time>
      </trkpt>
      <trkpt lat="50.02693" lon="2.33109">
        <ele>126.7</ele>
        <time>2023-12-20T13:18:04Z</time>
      </trkpt>
      <trkpt lat="50.02694" lon="2.3311">
        <ele>126.7</ele>
        <time>2023-12-20T13:18:06Z</time>
      </trkpt>
      <trkpt lat="50.02695" lon="2.33111">
        <ele>126.7</ele>
        <time>2023-12-20T13:18:07Z</time>
      </trkpt>
      <trkpt lat="50.02695" lon="2.33112">
        <ele>126.7</ele>
        <time>2023-12-20T13:18:08Z</time>
      </trkpt>
      <trkpt lat="50.02696" lon="2.33113">
        <ele>126.7</ele>
        <time>2023-12-20T13:18:09Z</time>
      </trkpt>
      <trkpt lat="50.02697" lon="2.33115">
        <ele>126.7</ele>
        <time>2023-12-20T13:18:10Z</time>
      </trkpt>
      <trkpt lat="50.02697" lon="2.33116">
        <ele>126.7</ele>
        <time>2023-12-20T13:18:11Z</time>
      </trkpt>
      <trkpt lat="50.02698" lon="2.33118">
        <ele>126.7</ele>
        <time>2023-12-20T13:18:12Z</time>
      </trkpt>
      <trkpt lat="50.02699" lon="2.33119">
        <ele>126.7</ele>
        <time>2023-12-20T13:18:14Z</time>
      </trkpt>
      <trkpt lat="50.027" lon="2.3312">
        <ele>126.7</ele>
        <time>2023-12-20T13:18:15Z</time>
      </trkpt>
      <trkpt lat="50.02701" lon="2.33122">
        <ele>126.8</ele>
        <time>2023-12-20T13:18:16Z</time>
      </trkpt>
      <trkpt lat="50.02702" lon="2.33123">
        <ele>126.8</ele>
        <time>2023-12-20T13:18:17Z</time>
      </trkpt>
      <trkpt lat="50.02702" lon="2.33124">
        <ele>126.8</ele>
        <time>2023-12-20T13:18:18Z</time>
      </trkpt>
      <trkpt lat="50.02703" lon="2.33126">
        <ele>126.8</ele>
        <time>2023-12-20T13:18:19Z</time>
      </trkpt>
      <trkpt lat="50.02704" lon="2.33127">
        <ele>126.8</ele>
        <time>2023-12-20T13:18:20Z</time>
      </trkpt>
      <trkpt lat="50.02704" lon="2.33128">
        <ele>126.8</ele>
        <time>2023-12-20T13:18:21Z</time>
      </trkpt>
      <trkpt lat="50.02704" lon="2.3313">
        <ele>126.8</ele>
        <time>2023-12-20T13:18:23Z</time>
      </trkpt>
      <trkpt lat="50.02704" lon="2.33132">
        <ele>126.8</ele>
        <time>2023-12-20T13:18:24Z</time>
      </trkpt>
      <trkpt lat="50.02704" lon="2.33134">
        <ele>126.8</ele>
        <time>2023-12-20T13:18:25Z</time>
      </trkpt>
      <trkpt lat="50.02705" lon="2.33136">
        <ele>126.8</ele>
        <time>2023-12-20T13:18:26Z</time>
      </trkpt>
      <trkpt lat="50.02705" lon="2.33137">
        <ele>126.8</ele>
        <time>2023-12-20T13:18:27Z</time>
      </trkpt>
      <trkpt lat="50.02705" lon="2.33139">
        <ele>126.8</ele>
        <time>2023-12-20T13:18:28Z</time>
      </trkpt>
      <trkpt lat="50.02705" lon="2.3314">
        <ele>126.9</ele>
        <time>2023-12-20T13:18:29Z</time>
      </trkpt>
      <trkpt lat="50.02706" lon="2.33142">
        <ele>126.9</ele>
        <time>2023-12-20T13:18:31Z</time>
      </trkpt>
      <trkpt lat="50.02706" lon="2.33143">
        <ele>126.9</ele>
        <time>2023-12-20T13:18:32Z</time>
      </trkpt>
      <trkpt lat="50.02706" lon="2.33144">
        <ele>126.9</ele>
        <time>2023-12-20T13:18:33Z</time>
      </trkpt>
      <trkpt lat="50.02706" lon="2.33145">
        <ele>126.9</ele>
        <time>2023-12-20T13:18:34Z</time>
      </trkpt>
      <trkpt lat="50.02706" lon="2.33146">
        <ele>126.9</ele>
        <time>2023-12-20T13:18:36Z</time>
      </trkpt>
      <trkpt lat="50.02706" lon="2.33147">
        <ele>126.9</ele>
        <time>2023-12-20T13:18:37Z</time>
      </trkpt>
      <trkpt lat="50.02707" lon="2.33149">
        <ele>126.9</ele>
        <time>2023-12-20T13:18:38Z</time>
      </trkpt>
      <trkpt lat="50.02707" lon="2.3315">
        <ele>126.9</ele>
        <time>2023-12-20T13:18:39Z</time>
      </trkpt>
      <trkpt lat="50.02707" lon="2.33151">
        <ele>127</ele>
        <time>2023-12-20T13:18:40Z</time>
      </trkpt>
      <trkpt lat="50.02707" lon="2.33151">
        <ele>127</ele>
        <time>2023-12-20T13:18:43Z</time>
      </trkpt>
      <trkpt lat="50.02707" lon="2.33151">
        <ele>127</ele>
        <time>2023-12-20T13:18:44Z</time>
      </trkpt>
      <trkpt lat="50.02707" lon="2.33151">
        <ele>127</ele>
        <time>2023-12-20T13:18:46Z</time>
      </trkpt>
      <trkpt lat="50.02707" lon="2.33151">
        <ele>126.9</ele>
        <time>2023-12-20T13:18:47Z</time>
      </trkpt>
      <trkpt lat="50.02707" lon="2.3315">
        <ele>126.9</ele>
        <time>2023-12-20T13:18:50Z</time>
      </trkpt>
      <trkpt lat="50.02707" lon="2.3315">
        <ele>126.9</ele>
        <time>2023-12-20T13:18:51Z</time>
      </trkpt>
      <trkpt lat="50.02707" lon="2.33149">
        <ele>126.9</ele>
        <time>2023-12-20T13:18:53Z</time>
      </trkpt>
      <trkpt lat="50.02707" lon="2.33149">
        <ele>126.9</ele>
        <time>2023-12-20T13:18:54Z</time>
      </trkpt>
      <trkpt lat="50.02707" lon="2.33149">
        <ele>126.9</ele>
        <time>2023-12-20T13:18:55Z</time>
      </trkpt>
      <trkpt lat="50.02705" lon="2.33142">
        <ele>126.8</ele>
        <time>2023-12-20T13:19:39Z</time>
      </trkpt>
      <trkpt lat="50.02705" lon="2.33142">
        <ele>126.8</ele>
        <time>2023-12-20T13:19:40Z</time>
      </trkpt>
      <trkpt lat="50.02705" lon="2.33141">
        <ele>126.8</ele>
        <time>2023-12-20T13:19:41Z</time>
      </trkpt>
      <trkpt lat="50.02705" lon="2.33141">
        <ele>126.8</ele>
        <time>2023-12-20T13:19:42Z</time>
      </trkpt>
      <trkpt lat="50.02705" lon="2.33141">
        <ele>126.8</ele>
        <time>2023-12-20T13:19:44Z</time>
      </trkpt>
      <trkpt lat="50.02705" lon="2.33141">
        <ele>126.8</ele>
        <time>2023-12-20T13:19:45Z</time>
      </trkpt>
      <trkpt lat="50.02705" lon="2.33141">
        <ele>126.8</ele>
        <time>2023-12-20T13:19:47Z</time>
      </trkpt>
      <trkpt lat="50.02705" lon="2.33141">
        <ele>126.8</ele>
        <time>2023-12-20T13:19:48Z</time>
      </trkpt>
      <trkpt lat="50.02705" lon="2.33141">
        <ele>126.8</ele>
        <time>2023-12-20T13:19:49Z</time>
      </trkpt>
      <trkpt lat="50.02705" lon="2.33141">
        <ele>126.8</ele>
        <time>2023-12-20T13:19:51Z</time>
      </trkpt>
      <trkpt lat="50.02703" lon="2.33146">
        <ele>126.7</ele>
        <time>2023-12-20T13:20:02Z</time>
      </trkpt>
      <trkpt lat="50.02702" lon="2.33146">
        <ele>126.6</ele>
        <time>2023-12-20T13:20:03Z</time>
      </trkpt>
      <trkpt lat="50.02701" lon="2.33147">
        <ele>126.6</ele>
        <time>2023-12-20T13:20:04Z</time>
      </trkpt>
      <trkpt lat="50.027" lon="2.33148">
        <ele>126.6</ele>
        <time>2023-12-20T13:20:05Z</time>
      </trkpt>
      <trkpt lat="50.027" lon="2.33149">
        <ele>126.5</ele>
        <time>2023-12-20T13:20:06Z</time>
      </trkpt>
      <trkpt lat="50.02698" lon="2.33151">
        <ele>126.5</ele>
        <time>2023-12-20T13:20:07Z</time>
      </trkpt>
      <trkpt lat="50.02697" lon="2.33152">
        <ele>126.5</ele>
        <time>2023-12-20T13:20:09Z</time>
      </trkpt>
      <trkpt lat="50.02695" lon="2.33153">
        <ele>126.4</ele>
        <time>2023-12-20T13:20:10Z</time>
      </trkpt>
      <trkpt lat="50.02695" lon="2.33154">
        <ele>126.4</ele>
        <time>2023-12-20T13:20:11Z</time>
      </trkpt>
      <trkpt lat="50.02694" lon="2.33154">
        <ele>126.3</ele>
        <time>2023-12-20T13:20:12Z</time>
      </trkpt>
      <trkpt lat="50.02693" lon="2.33155">
        <ele>126.3</ele>
        <time>2023-12-20T13:20:13Z</time>
      </trkpt>
      <trkpt lat="50.02692" lon="2.33156">
        <ele>126.2</ele>
        <time>2023-12-20T13:20:14Z</time>
      </trkpt>
      <trkpt lat="50.02691" lon="2.33157">
        <ele>126.2</ele>
        <time>2023-12-20T13:20:15Z</time>
      </trkpt>
      <trkpt lat="50.0269" lon="2.33157">
        <ele>126.2</ele>
        <time>2023-12-20T13:20:16Z</time>
      </trkpt>
      <trkpt lat="50.02689" lon="2.33158">
        <ele>126.1</ele>
        <time>2023-12-20T13:20:17Z</time>
      </trkpt>
      <trkpt lat="50.02688" lon="2.33159">
        <ele>126.1</ele>
        <time>2023-12-20T13:20:19Z</time>
      </trkpt>
      <trkpt lat="50.02687" lon="2.33159">
        <ele>126</ele>
        <time>2023-12-20T13:20:20Z</time>
      </trkpt>
      <trkpt lat="50.02686" lon="2.3316">
        <ele>126</ele>
        <time>2023-12-20T13:20:21Z</time>
      </trkpt>
      <trkpt lat="50.02685" lon="2.33161">
        <ele>125.9</ele>
        <time>2023-12-20T13:20:22Z</time>
      </trkpt>
      <trkpt lat="50.02684" lon="2.33162">
        <ele>125.9</ele>
        <time>2023-12-20T13:20:23Z</time>
      </trkpt>
      <trkpt lat="50.02682" lon="2.33163">
        <ele>125.8</ele>
        <time>2023-12-20T13:20:24Z</time>
      </trkpt>
      <trkpt lat="50.02681" lon="2.33165">
        <ele>125.8</ele>
        <time>2023-12-20T13:20:25Z</time>
      </trkpt>
      <trkpt lat="50.02679" lon="2.33166">
        <ele>125.7</ele>
        <time>2023-12-20T13:20:27Z</time>
      </trkpt>
      <trkpt lat="50.02678" lon="2.33167">
        <ele>125.6</ele>
        <time>2023-12-20T13:20:28Z</time>
      </trkpt>
      <trkpt lat="50.02677" lon="2.33168">
        <ele>125.6</ele>
        <time>2023-12-20T13:20:29Z</time>
      </trkpt>
      <trkpt lat="50.02675" lon="2.3317">
        <ele>125.5</ele>
        <time>2023-12-20T13:20:30Z</time>
      </trkpt>
      <trkpt lat="50.02674" lon="2.33171">
        <ele>125.4</ele>
        <time>2023-12-20T13:20:31Z</time>
      </trkpt>
      <trkpt lat="50.02672" lon="2.33172">
        <ele>125.4</ele>
        <time>2023-12-20T13:20:32Z</time>
      </trkpt>
      <trkpt lat="50.02671" lon="2.33173">
        <ele>125.3</ele>
        <time>2023-12-20T13:20:33Z</time>
      </trkpt>
      <trkpt lat="50.02669" lon="2.33174">
        <ele>125.2</ele>
        <time>2023-12-20T13:20:34Z</time>
      </trkpt>
      <trkpt lat="50.02668" lon="2.33174">
        <ele>125.2</ele>
        <time>2023-12-20T13:20:35Z</time>
      </trkpt>
      <trkpt lat="50.02667" lon="2.33174">
        <ele>125.1</ele>
        <time>2023-12-20T13:20:36Z</time>
      </trkpt>
      <trkpt lat="50.02666" lon="2.33175">
        <ele>125.1</ele>
        <time>2023-12-20T13:20:37Z</time>
      </trkpt>
      <trkpt lat="50.02665" lon="2.33175">
        <ele>125</ele>
        <time>2023-12-20T13:20:38Z</time>
      </trkpt>
      <trkpt lat="50.02663" lon="2.33175">
        <ele>125</ele>
        <time>2023-12-20T13:20:40Z</time>
      </trkpt>
      <trkpt lat="50.02661" lon="2.33177">
        <ele>124.9</ele>
        <time>2023-12-20T13:20:41Z</time>
      </trkpt>
      <trkpt lat="50.02661" lon="2.33177">
        <ele>124.9</ele>
        <time>2023-12-20T13:20:42Z</time>
      </trkpt>
      <trkpt lat="50.0266" lon="2.33178">
        <ele>124.8</ele>
        <time>2023-12-20T13:20:43Z</time>
      </trkpt>
      <trkpt lat="50.02658" lon="2.33179">
        <ele>124.8</ele>
        <time>2023-12-20T13:20:44Z</time>
      </trkpt>
      <trkpt lat="50.02657" lon="2.33179">
        <ele>124.7</ele>
        <time>2023-12-20T13:20:45Z</time>
      </trkpt>
      <trkpt lat="50.02656" lon="2.3318">
        <ele>124.6</ele>
        <time>2023-12-20T13:20:46Z</time>
      </trkpt>
      <trkpt lat="50.02654" lon="2.33181">
        <ele>124.6</ele>
        <time>2023-12-20T13:20:47Z</time>
      </trkpt>
      <trkpt lat="50.02653" lon="2.33182">
        <ele>124.5</ele>
        <time>2023-12-20T13:20:48Z</time>
      </trkpt>
      <trkpt lat="50.02652" lon="2.33182">
        <ele>124.5</ele>
        <time>2023-12-20T13:20:49Z</time>
      </trkpt>
      <trkpt lat="50.02651" lon="2.33183">
        <ele>124.4</ele>
        <time>2023-12-20T13:20:51Z</time>
      </trkpt>
      <trkpt lat="50.02649" lon="2.33184">
        <ele>124.3</ele>
        <time>2023-12-20T13:20:52Z</time>
      </trkpt>
      <trkpt lat="50.02648" lon="2.33185">
        <ele>124.3</ele>
        <time>2023-12-20T13:20:53Z</time>
      </trkpt>
      <trkpt lat="50.02647" lon="2.33185">
        <ele>124.2</ele>
        <time>2023-12-20T13:20:54Z</time>
      </trkpt>
      <trkpt lat="50.02644" lon="2.33187">
        <ele>124.1</ele>
        <time>2023-12-20T13:20:56Z</time>
      </trkpt>
      <trkpt lat="50.02643" lon="2.33187">
        <ele>124.1</ele>
        <time>2023-12-20T13:20:57Z</time>
      </trkpt>
      <trkpt lat="50.02641" lon="2.33188">
        <ele>124</ele>
        <time>2023-12-20T13:20:58Z</time>
      </trkpt>
      <trkpt lat="50.0264" lon="2.33189">
        <ele>123.9</ele>
        <time>2023-12-20T13:21:00Z</time>
      </trkpt>
      <trkpt lat="50.02639" lon="2.3319">
        <ele>123.9</ele>
        <time>2023-12-20T13:21:01Z</time>
      </trkpt>
      <trkpt lat="50.02638" lon="2.3319">
        <ele>123.8</ele>
        <time>2023-12-20T13:21:02Z</time>
      </trkpt>
      <trkpt lat="50.02637" lon="2.33191">
        <ele>123.8</ele>
        <time>2023-12-20T13:21:03Z</time>
      </trkpt>
      <trkpt lat="50.02636" lon="2.33192">
        <ele>123.7</ele>
        <time>2023-12-20T13:21:04Z</time>
      </trkpt>
      <trkpt lat="50.02635" lon="2.33193">
        <ele>123.7</ele>
        <time>2023-12-20T13:21:06Z</time>
      </trkpt>
      <trkpt lat="50.02634" lon="2.33193">
        <ele>123.6</ele>
        <time>2023-12-20T13:21:07Z</time>
      </trkpt>
      <trkpt lat="50.02633" lon="2.33194">
        <ele>123.6</ele>
        <time>2023-12-20T13:21:08Z</time>
      </trkpt>
      <trkpt lat="50.02632" lon="2.33196">
        <ele>123.5</ele>
        <time>2023-12-20T13:21:09Z</time>
      </trkpt>
      <trkpt lat="50.0263" lon="2.33197">
        <ele>123.4</ele>
        <time>2023-12-20T13:21:10Z</time>
      </trkpt>
      <trkpt lat="50.02629" lon="2.33198">
        <ele>123.4</ele>
        <time>2023-12-20T13:21:11Z</time>
      </trkpt>
      <trkpt lat="50.02629" lon="2.33199">
        <ele>123.4</ele>
        <time>2023-12-20T13:21:12Z</time>
      </trkpt>
      <trkpt lat="50.02626" lon="2.332">
        <ele>123.2</ele>
        <time>2023-12-20T13:21:13Z</time>
      </trkpt>
      <trkpt lat="50.02625" lon="2.33201">
        <ele>123.2</ele>
        <time>2023-12-20T13:21:15Z</time>
      </trkpt>
      <trkpt lat="50.02624" lon="2.33202">
        <ele>123.1</ele>
        <time>2023-12-20T13:21:16Z</time>
      </trkpt>
      <trkpt lat="50.02623" lon="2.33203">
        <ele>123.1</ele>
        <time>2023-12-20T13:21:17Z</time>
      </trkpt>
      <trkpt lat="50.02622" lon="2.33204">
        <ele>123</ele>
        <time>2023-12-20T13:21:18Z</time>
      </trkpt>
      <trkpt lat="50.0262" lon="2.33205">
        <ele>122.9</ele>
        <time>2023-12-20T13:21:19Z</time>
      </trkpt>
      <trkpt lat="50.0262" lon="2.33206">
        <ele>122.9</ele>
        <time>2023-12-20T13:21:21Z</time>
      </trkpt>
      <trkpt lat="50.02619" lon="2.33207">
        <ele>122.8</ele>
        <time>2023-12-20T13:21:22Z</time>
      </trkpt>
      <trkpt lat="50.02617" lon="2.33209">
        <ele>122.7</ele>
        <time>2023-12-20T13:21:23Z</time>
      </trkpt>
      <trkpt lat="50.02617" lon="2.3321">
        <ele>122.7</ele>
        <time>2023-12-20T13:21:24Z</time>
      </trkpt>
      <trkpt lat="50.02616" lon="2.3321">
        <ele>122.6</ele>
        <time>2023-12-20T13:21:25Z</time>
      </trkpt>
      <trkpt lat="50.02614" lon="2.33212">
        <ele>122.5</ele>
        <time>2023-12-20T13:21:26Z</time>
      </trkpt>
      <trkpt lat="50.02613" lon="2.33213">
        <ele>122.4</ele>
        <time>2023-12-20T13:21:27Z</time>
      </trkpt>
      <trkpt lat="50.02613" lon="2.33214">
        <ele>122.4</ele>
        <time>2023-12-20T13:21:28Z</time>
      </trkpt>
      <trkpt lat="50.02611" lon="2.33215">
        <ele>122.3</ele>
        <time>2023-12-20T13:21:29Z</time>
      </trkpt>
      <trkpt lat="50.0261" lon="2.33216">
        <ele>122.2</ele>
        <time>2023-12-20T13:21:31Z</time>
      </trkpt>
      <trkpt lat="50.02609" lon="2.33217">
        <ele>122.2</ele>
        <time>2023-12-20T13:21:32Z</time>
      </trkpt>
      <trkpt lat="50.02608" lon="2.33217">
        <ele>122.1</ele>
        <time>2023-12-20T13:21:33Z</time>
      </trkpt>
      <trkpt lat="50.02607" lon="2.33218">
        <ele>122</ele>
        <time>2023-12-20T13:21:34Z</time>
      </trkpt>
      <trkpt lat="50.02606" lon="2.33219">
        <ele>121.9</ele>
        <time>2023-12-20T13:21:35Z</time>
      </trkpt>
      <trkpt lat="50.02605" lon="2.3322">
        <ele>121.8</ele>
        <time>2023-12-20T13:21:36Z</time>
      </trkpt>
      <trkpt lat="50.02604" lon="2.33221">
        <ele>121.8</ele>
        <time>2023-12-20T13:21:37Z</time>
      </trkpt>
      <trkpt lat="50.02603" lon="2.33221">
        <ele>121.7</ele>
        <time>2023-12-20T13:21:38Z</time>
      </trkpt>
      <trkpt lat="50.02601" lon="2.33223">
        <ele>121.6</ele>
        <time>2023-12-20T13:21:40Z</time>
      </trkpt>
      <trkpt lat="50.026" lon="2.33223">
        <ele>121.5</ele>
        <time>2023-12-20T13:21:41Z</time>
      </trkpt>
      <trkpt lat="50.02599" lon="2.33224">
        <ele>121.5</ele>
        <time>2023-12-20T13:21:42Z</time>
      </trkpt>
      <trkpt lat="50.02597" lon="2.33225">
        <ele>121.3</ele>
        <time>2023-12-20T13:21:43Z</time>
      </trkpt>
      <trkpt lat="50.02597" lon="2.33226">
        <ele>121.3</ele>
        <time>2023-12-20T13:21:44Z</time>
      </trkpt>
      <trkpt lat="50.02596" lon="2.33226">
        <ele>121.2</ele>
        <time>2023-12-20T13:21:45Z</time>
      </trkpt>
      <trkpt lat="50.02594" lon="2.33227">
        <ele>121.1</ele>
        <time>2023-12-20T13:21:46Z</time>
      </trkpt>
      <trkpt lat="50.02593" lon="2.33228">
        <ele>121.1</ele>
        <time>2023-12-20T13:21:47Z</time>
      </trkpt>
      <trkpt lat="50.02593" lon="2.33228">
        <ele>121</ele>
        <time>2023-12-20T13:21:48Z</time>
      </trkpt>
      <trkpt lat="50.02591" lon="2.33229">
        <ele>120.9</ele>
        <time>2023-12-20T13:21:49Z</time>
      </trkpt>
      <trkpt lat="50.0259" lon="2.3323">
        <ele>120.8</ele>
        <time>2023-12-20T13:21:50Z</time>
      </trkpt>
      <trkpt lat="50.02589" lon="2.3323">
        <ele>120.8</ele>
        <time>2023-12-20T13:21:52Z</time>
      </trkpt>
      <trkpt lat="50.02587" lon="2.33232">
        <ele>120.6</ele>
        <time>2023-12-20T13:21:53Z</time>
      </trkpt>
      <trkpt lat="50.02585" lon="2.33233">
        <ele>120.5</ele>
        <time>2023-12-20T13:21:54Z</time>
      </trkpt>
      <trkpt lat="50.02584" lon="2.33233">
        <ele>120.5</ele>
        <time>2023-12-20T13:21:55Z</time>
      </trkpt>
      <trkpt lat="50.02583" lon="2.33234">
        <ele>120.4</ele>
        <time>2023-12-20T13:21:56Z</time>
      </trkpt>
      <trkpt lat="50.02582" lon="2.33235">
        <ele>120.4</ele>
        <time>2023-12-20T13:21:57Z</time>
      </trkpt>
      <trkpt lat="50.02581" lon="2.33235">
        <ele>120.3</ele>
        <time>2023-12-20T13:21:58Z</time>
      </trkpt>
      <trkpt lat="50.0258" lon="2.33236">
        <ele>120.2</ele>
        <time>2023-12-20T13:21:59Z</time>
      </trkpt>
      <trkpt lat="50.02579" lon="2.33236">
        <ele>120.2</ele>
        <time>2023-12-20T13:22:01Z</time>
      </trkpt>
      <trkpt lat="50.02578" lon="2.33236">
        <ele>120.1</ele>
        <time>2023-12-20T13:22:02Z</time>
      </trkpt>
      <trkpt lat="50.02577" lon="2.33237">
        <ele>120.1</ele>
        <time>2023-12-20T13:22:03Z</time>
      </trkpt>
      <trkpt lat="50.02575" lon="2.33237">
        <ele>120</ele>
        <time>2023-12-20T13:22:04Z</time>
      </trkpt>
      <trkpt lat="50.02574" lon="2.33238">
        <ele>119.9</ele>
        <time>2023-12-20T13:22:05Z</time>
      </trkpt>
      <trkpt lat="50.02573" lon="2.33239">
        <ele>119.9</ele>
        <time>2023-12-20T13:22:06Z</time>
      </trkpt>
      <trkpt lat="50.02571" lon="2.33239">
        <ele>119.8</ele>
        <time>2023-12-20T13:22:07Z</time>
      </trkpt>
      <trkpt lat="50.0257" lon="2.3324">
        <ele>119.7</ele>
        <time>2023-12-20T13:22:08Z</time>
      </trkpt>
      <trkpt lat="50.02568" lon="2.3324">
        <ele>119.7</ele>
        <time>2023-12-20T13:22:09Z</time>
      </trkpt>
      <trkpt lat="50.02567" lon="2.33241">
        <ele>119.6</ele>
        <time>2023-12-20T13:22:10Z</time>
      </trkpt>
      <trkpt lat="50.02566" lon="2.33241">
        <ele>119.6</ele>
        <time>2023-12-20T13:22:11Z</time>
      </trkpt>
      <trkpt lat="50.02564" lon="2.33242">
        <ele>119.5</ele>
        <time>2023-12-20T13:22:12Z</time>
      </trkpt>
      <trkpt lat="50.02563" lon="2.33242">
        <ele>119.5</ele>
        <time>2023-12-20T13:22:14Z</time>
      </trkpt>
      <trkpt lat="50.02562" lon="2.33243">
        <ele>119.5</ele>
        <time>2023-12-20T13:22:15Z</time>
      </trkpt>
      <trkpt lat="50.0256" lon="2.33243">
        <ele>119.4</ele>
        <time>2023-12-20T13:22:16Z</time>
      </trkpt>
      <trkpt lat="50.02559" lon="2.33244">
        <ele>119.4</ele>
        <time>2023-12-20T13:22:17Z</time>
      </trkpt>
      <trkpt lat="50.02558" lon="2.33244">
        <ele>119.3</ele>
        <time>2023-12-20T13:22:18Z</time>
      </trkpt>
      <trkpt lat="50.02557" lon="2.33245">
        <ele>119.3</ele>
        <time>2023-12-20T13:22:19Z</time>
      </trkpt>
      <trkpt lat="50.02555" lon="2.33245">
        <ele>119.3</ele>
        <time>2023-12-20T13:22:20Z</time>
      </trkpt>
      <trkpt lat="50.02554" lon="2.33246">
        <ele>119.2</ele>
        <time>2023-12-20T13:22:22Z</time>
      </trkpt>
      <trkpt lat="50.02552" lon="2.33246">
        <ele>119.2</ele>
        <time>2023-12-20T13:22:23Z</time>
      </trkpt>
      <trkpt lat="50.0255" lon="2.33246">
        <ele>119.2</ele>
        <time>2023-12-20T13:22:24Z</time>
      </trkpt>
      <trkpt lat="50.02549" lon="2.33246">
        <ele>119.1</ele>
        <time>2023-12-20T13:22:25Z</time>
      </trkpt>
      <trkpt lat="50.02548" lon="2.33247">
        <ele>119.1</ele>
        <time>2023-12-20T13:22:26Z</time>
      </trkpt>
      <trkpt lat="50.02547" lon="2.33247">
        <ele>119.1</ele>
        <time>2023-12-20T13:22:28Z</time>
      </trkpt>
      <trkpt lat="50.02546" lon="2.33247">
        <ele>119.1</ele>
        <time>2023-12-20T13:22:29Z</time>
      </trkpt>
      <trkpt lat="50.02544" lon="2.33248">
        <ele>119.1</ele>
        <time>2023-12-20T13:22:30Z</time>
      </trkpt>
      <trkpt lat="50.02543" lon="2.33248">
        <ele>119.1</ele>
        <time>2023-12-20T13:22:31Z</time>
      </trkpt>
      <trkpt lat="50.02542" lon="2.33248">
        <ele>119</ele>
        <time>2023-12-20T13:22:32Z</time>
      </trkpt>
      <trkpt lat="50.0254" lon="2.33249">
        <ele>119</ele>
        <time>2023-12-20T13:22:33Z</time>
      </trkpt>
      <trkpt lat="50.02539" lon="2.33249">
        <ele>119</ele>
        <time>2023-12-20T13:22:34Z</time>
      </trkpt>
      <trkpt lat="50.02538" lon="2.3325">
        <ele>119</ele>
        <time>2023-12-20T13:22:35Z</time>
      </trkpt>
      <trkpt lat="50.02536" lon="2.33251">
        <ele>119</ele>
        <time>2023-12-20T13:22:36Z</time>
      </trkpt>
      <trkpt lat="50.02535" lon="2.33251">
        <ele>119</ele>
        <time>2023-12-20T13:22:37Z</time>
      </trkpt>
      <trkpt lat="50.02534" lon="2.33251">
        <ele>119</ele>
        <time>2023-12-20T13:22:38Z</time>
      </trkpt>
      <trkpt lat="50.02532" lon="2.33252">
        <ele>119</ele>
        <time>2023-12-20T13:22:40Z</time>
      </trkpt>
      <trkpt lat="50.02531" lon="2.33253">
        <ele>119</ele>
        <time>2023-12-20T13:22:41Z</time>
      </trkpt>
      <trkpt lat="50.0253" lon="2.33253">
        <ele>119</ele>
        <time>2023-12-20T13:22:42Z</time>
      </trkpt>
      <trkpt lat="50.02529" lon="2.33254">
        <ele>119</ele>
        <time>2023-12-20T13:22:43Z</time>
      </trkpt>
      <trkpt lat="50.02528" lon="2.33255">
        <ele>119</ele>
        <time>2023-12-20T13:22:44Z</time>
      </trkpt>
      <trkpt lat="50.02526" lon="2.33256">
        <ele>119</ele>
        <time>2023-12-20T13:22:46Z</time>
      </trkpt>
      <trkpt lat="50.02525" lon="2.33256">
        <ele>119</ele>
        <time>2023-12-20T13:22:47Z</time>
      </trkpt>
      <trkpt lat="50.02523" lon="2.33257">
        <ele>119</ele>
        <time>2023-12-20T13:22:49Z</time>
      </trkpt>
      <trkpt lat="50.02522" lon="2.33258">
        <ele>119</ele>
        <time>2023-12-20T13:22:50Z</time>
      </trkpt>
      <trkpt lat="50.02521" lon="2.33258">
        <ele>119</ele>
        <time>2023-12-20T13:22:51Z</time>
      </trkpt>
      <trkpt lat="50.0252" lon="2.33259">
        <ele>119</ele>
        <time>2023-12-20T13:22:52Z</time>
      </trkpt>
      <trkpt lat="50.02518" lon="2.33259">
        <ele>119</ele>
        <time>2023-12-20T13:22:53Z</time>
      </trkpt>
      <trkpt lat="50.02517" lon="2.3326">
        <ele>119</ele>
        <time>2023-12-20T13:22:54Z</time>
      </trkpt>
      <trkpt lat="50.02516" lon="2.3326">
        <ele>119</ele>
        <time>2023-12-20T13:22:55Z</time>
      </trkpt>
      <trkpt lat="50.02514" lon="2.33261">
        <ele>119</ele>
        <time>2023-12-20T13:22:57Z</time>
      </trkpt>
      <trkpt lat="50.02513" lon="2.33261">
        <ele>119</ele>
        <time>2023-12-20T13:22:58Z</time>
      </trkpt>
      <trkpt lat="50.02512" lon="2.33261">
        <ele>119</ele>
        <time>2023-12-20T13:22:59Z</time>
      </trkpt>
      <trkpt lat="50.0251" lon="2.33262">
        <ele>119</ele>
        <time>2023-12-20T13:23:01Z</time>
      </trkpt>
      <trkpt lat="50.02509" lon="2.33262">
        <ele>119</ele>
        <time>2023-12-20T13:23:02Z</time>
      </trkpt>
      <trkpt lat="50.02508" lon="2.33262">
        <ele>119</ele>
        <time>2023-12-20T13:23:03Z</time>
      </trkpt>
      <trkpt lat="50.02507" lon="2.33262">
        <ele>119</ele>
        <time>2023-12-20T13:23:04Z</time>
      </trkpt>
      <trkpt lat="50.02506" lon="2.33262">
        <ele>119</ele>
        <time>2023-12-20T13:23:05Z</time>
      </trkpt>
      <trkpt lat="50.02504" lon="2.33263">
        <ele>119</ele>
        <time>2023-12-20T13:23:06Z</time>
      </trkpt>
      <trkpt lat="50.02503" lon="2.33263">
        <ele>119</ele>
        <time>2023-12-20T13:23:07Z</time>
      </trkpt>
      <trkpt lat="50.02502" lon="2.33263">
        <ele>119</ele>
        <time>2023-12-20T13:23:08Z</time>
      </trkpt>
      <trkpt lat="50.025" lon="2.33263">
        <ele>119</ele>
        <time>2023-12-20T13:23:09Z</time>
      </trkpt>
      <trkpt lat="50.02499" lon="2.33263">
        <ele>119</ele>
        <time>2023-12-20T13:23:10Z</time>
      </trkpt>
      <trkpt lat="50.02497" lon="2.33263">
        <ele>119.1</ele>
        <time>2023-12-20T13:23:11Z</time>
      </trkpt>
      <trkpt lat="50.02496" lon="2.33263">
        <ele>119.1</ele>
        <time>2023-12-20T13:23:13Z</time>
      </trkpt>
      <trkpt lat="50.02495" lon="2.33263">
        <ele>119.1</ele>
        <time>2023-12-20T13:23:14Z</time>
      </trkpt>
      <trkpt lat="50.02493" lon="2.33263">
        <ele>119.1</ele>
        <time>2023-12-20T13:23:15Z</time>
      </trkpt>
      <trkpt lat="50.02492" lon="2.33263">
        <ele>119.1</ele>
        <time>2023-12-20T13:23:16Z</time>
      </trkpt>
      <trkpt lat="50.02491" lon="2.33263">
        <ele>119.2</ele>
        <time>2023-12-20T13:23:17Z</time>
      </trkpt>
      <trkpt lat="50.0249" lon="2.33263">
        <ele>119.2</ele>
        <time>2023-12-20T13:23:18Z</time>
      </trkpt>
      <trkpt lat="50.02488" lon="2.33262">
        <ele>119.2</ele>
        <time>2023-12-20T13:23:19Z</time>
      </trkpt>
      <trkpt lat="50.02487" lon="2.33262">
        <ele>119.2</ele>
        <time>2023-12-20T13:23:20Z</time>
      </trkpt>
      <trkpt lat="50.02486" lon="2.33262">
        <ele>119.3</ele>
        <time>2023-12-20T13:23:21Z</time>
      </trkpt>
      <trkpt lat="50.02484" lon="2.33261">
        <ele>119.3</ele>
        <time>2023-12-20T13:23:23Z</time>
      </trkpt>
      <trkpt lat="50.02482" lon="2.33261">
        <ele>119.3</ele>
        <time>2023-12-20T13:23:24Z</time>
      </trkpt>
      <trkpt lat="50.02481" lon="2.33261">
        <ele>119.3</ele>
        <time>2023-12-20T13:23:25Z</time>
      </trkpt>
      <trkpt lat="50.0248" lon="2.33261">
        <ele>119.4</ele>
        <time>2023-12-20T13:23:26Z</time>
      </trkpt>
      <trkpt lat="50.02478" lon="2.33261">
        <ele>119.4</ele>
        <time>2023-12-20T13:23:27Z</time>
      </trkpt>
      <trkpt lat="50.02477" lon="2.33261">
        <ele>119.4</ele>
        <time>2023-12-20T13:23:28Z</time>
      </trkpt>
      <trkpt lat="50.02477" lon="2.33261">
        <ele>119.4</ele>
        <time>2023-12-20T13:23:29Z</time>
      </trkpt>
      <trkpt lat="50.02475" lon="2.33261">
        <ele>119.5</ele>
        <time>2023-12-20T13:23:30Z</time>
      </trkpt>
      <trkpt lat="50.02474" lon="2.33261">
        <ele>119.5</ele>
        <time>2023-12-20T13:23:31Z</time>
      </trkpt>
      <trkpt lat="50.02472" lon="2.33261">
        <ele>119.6</ele>
        <time>2023-12-20T13:23:32Z</time>
      </trkpt>
      <trkpt lat="50.02471" lon="2.33261">
        <ele>119.6</ele>
        <time>2023-12-20T13:23:34Z</time>
      </trkpt>
      <trkpt lat="50.0247" lon="2.33261">
        <ele>119.6</ele>
        <time>2023-12-20T13:23:35Z</time>
      </trkpt>
      <trkpt lat="50.02468" lon="2.33261">
        <ele>119.7</ele>
        <time>2023-12-20T13:23:36Z</time>
      </trkpt>
      <trkpt lat="50.02467" lon="2.33262">
        <ele>119.7</ele>
        <time>2023-12-20T13:23:37Z</time>
      </trkpt>
      <trkpt lat="50.02466" lon="2.33262">
        <ele>119.7</ele>
        <time>2023-12-20T13:23:38Z</time>
      </trkpt>
      <trkpt lat="50.02465" lon="2.33262">
        <ele>119.8</ele>
        <time>2023-12-20T13:23:39Z</time>
      </trkpt>
      <trkpt lat="50.02464" lon="2.33263">
        <ele>119.8</ele>
        <time>2023-12-20T13:23:40Z</time>
      </trkpt>
      <trkpt lat="50.02461" lon="2.33263">
        <ele>119.9</ele>
        <time>2023-12-20T13:23:41Z</time>
      </trkpt>
      <trkpt lat="50.0246" lon="2.33263">
        <ele>120</ele>
        <time>2023-12-20T13:23:42Z</time>
      </trkpt>
      <trkpt lat="50.02459" lon="2.33263">
        <ele>120</ele>
        <time>2023-12-20T13:23:44Z</time>
      </trkpt>
      <trkpt lat="50.02458" lon="2.33263">
        <ele>120</ele>
        <time>2023-12-20T13:23:45Z</time>
      </trkpt>
      <trkpt lat="50.02457" lon="2.33263">
        <ele>120.1</ele>
        <time>2023-12-20T13:23:46Z</time>
      </trkpt>
      <trkpt lat="50.02456" lon="2.33263">
        <ele>120.1</ele>
        <time>2023-12-20T13:23:47Z</time>
      </trkpt>
      <trkpt lat="50.02455" lon="2.33263">
        <ele>120.2</ele>
        <time>2023-12-20T13:23:48Z</time>
      </trkpt>
      <trkpt lat="50.02453" lon="2.33263">
        <ele>120.2</ele>
        <time>2023-12-20T13:23:49Z</time>
      </trkpt>
      <trkpt lat="50.02451" lon="2.33263">
        <ele>120.4</ele>
        <time>2023-12-20T13:23:50Z</time>
      </trkpt>
      <trkpt lat="50.0245" lon="2.33263">
        <ele>120.4</ele>
        <time>2023-12-20T13:23:51Z</time>
      </trkpt>
      <trkpt lat="50.02449" lon="2.33263">
        <ele>120.5</ele>
        <time>2023-12-20T13:23:53Z</time>
      </trkpt>
      <trkpt lat="50.02448" lon="2.33263">
        <ele>120.5</ele>
        <time>2023-12-20T13:23:54Z</time>
      </trkpt>
      <trkpt lat="50.02447" lon="2.33263">
        <ele>120.6</ele>
        <time>2023-12-20T13:23:55Z</time>
      </trkpt>
      <trkpt lat="50.02446" lon="2.33263">
        <ele>120.6</ele>
        <time>2023-12-20T13:23:56Z</time>
      </trkpt>
      <trkpt lat="50.02444" lon="2.33263">
        <ele>120.7</ele>
        <time>2023-12-20T13:23:57Z</time>
      </trkpt>
      <trkpt lat="50.02443" lon="2.33262">
        <ele>120.8</ele>
        <time>2023-12-20T13:23:58Z</time>
      </trkpt>
      <trkpt lat="50.02443" lon="2.33262">
        <ele>120.8</ele>
        <time>2023-12-20T13:23:59Z</time>
      </trkpt>
      <trkpt lat="50.02441" lon="2.33261">
        <ele>120.9</ele>
        <time>2023-12-20T13:24:01Z</time>
      </trkpt>
      <trkpt lat="50.0244" lon="2.33261">
        <ele>121</ele>
        <time>2023-12-20T13:24:02Z</time>
      </trkpt>
      <trkpt lat="50.02439" lon="2.33261">
        <ele>121</ele>
        <time>2023-12-20T13:24:03Z</time>
      </trkpt>
      <trkpt lat="50.02437" lon="2.33261">
        <ele>121.1</ele>
        <time>2023-12-20T13:24:04Z</time>
      </trkpt>
      <trkpt lat="50.02436" lon="2.3326">
        <ele>121.2</ele>
        <time>2023-12-20T13:24:05Z</time>
      </trkpt>
      <trkpt lat="50.02434" lon="2.3326">
        <ele>121.3</ele>
        <time>2023-12-20T13:24:06Z</time>
      </trkpt>
      <trkpt lat="50.02433" lon="2.33259">
        <ele>121.4</ele>
        <time>2023-12-20T13:24:07Z</time>
      </trkpt>
      <trkpt lat="50.02432" lon="2.33259">
        <ele>121.5</ele>
        <time>2023-12-20T13:24:09Z</time>
      </trkpt>
      <trkpt lat="50.0243" lon="2.33258">
        <ele>121.6</ele>
        <time>2023-12-20T13:24:10Z</time>
      </trkpt>
      <trkpt lat="50.02429" lon="2.33258">
        <ele>121.7</ele>
        <time>2023-12-20T13:24:11Z</time>
      </trkpt>
      <trkpt lat="50.02428" lon="2.33257">
        <ele>121.8</ele>
        <time>2023-12-20T13:24:12Z</time>
      </trkpt>
      <trkpt lat="50.02426" lon="2.33256">
        <ele>121.9</ele>
        <time>2023-12-20T13:24:13Z</time>
      </trkpt>
      <trkpt lat="50.02425" lon="2.33255">
        <ele>122</ele>
        <time>2023-12-20T13:24:14Z</time>
      </trkpt>
      <trkpt lat="50.02424" lon="2.33254">
        <ele>122.1</ele>
        <time>2023-12-20T13:24:15Z</time>
      </trkpt>
      <trkpt lat="50.02423" lon="2.33254">
        <ele>122.1</ele>
        <time>2023-12-20T13:24:16Z</time>
      </trkpt>
      <trkpt lat="50.02422" lon="2.33253">
        <ele>122.2</ele>
        <time>2023-12-20T13:24:18Z</time>
      </trkpt>
      <trkpt lat="50.02421" lon="2.33252">
        <ele>122.3</ele>
        <time>2023-12-20T13:24:19Z</time>
      </trkpt>
      <trkpt lat="50.0242" lon="2.33252">
        <ele>122.4</ele>
        <time>2023-12-20T13:24:20Z</time>
      </trkpt>
      <trkpt lat="50.0242" lon="2.33251">
        <ele>122.4</ele>
        <time>2023-12-20T13:24:21Z</time>
      </trkpt>
      <trkpt lat="50.02419" lon="2.33251">
        <ele>122.5</ele>
        <time>2023-12-20T13:24:22Z</time>
      </trkpt>
      <trkpt lat="50.02418" lon="2.33251">
        <ele>122.5</ele>
        <time>2023-12-20T13:24:23Z</time>
      </trkpt>
      <trkpt lat="50.02418" lon="2.33251">
        <ele>122.6</ele>
        <time>2023-12-20T13:24:24Z</time>
      </trkpt>
      <trkpt lat="50.02418" lon="2.33251">
        <ele>122.6</ele>
        <time>2023-12-20T13:24:25Z</time>
      </trkpt>
      <trkpt lat="50.02417" lon="2.33251">
        <ele>122.6</ele>
        <time>2023-12-20T13:24:27Z</time>
      </trkpt>
      <trkpt lat="50.02416" lon="2.33251">
        <ele>122.7</ele>
        <time>2023-12-20T13:24:28Z</time>
      </trkpt>
      <trkpt lat="50.02415" lon="2.3325">
        <ele>122.8</ele>
        <time>2023-12-20T13:24:29Z</time>
      </trkpt>
      <trkpt lat="50.02414" lon="2.3325">
        <ele>122.8</ele>
        <time>2023-12-20T13:24:30Z</time>
      </trkpt>
      <trkpt lat="50.02414" lon="2.33249">
        <ele>122.9</ele>
        <time>2023-12-20T13:24:31Z</time>
      </trkpt>
      <trkpt lat="50.02413" lon="2.33248">
        <ele>122.9</ele>
        <time>2023-12-20T13:24:32Z</time>
      </trkpt>
      <trkpt lat="50.02413" lon="2.33248">
        <ele>123</ele>
        <time>2023-12-20T13:24:33Z</time>
      </trkpt>
      <trkpt lat="50.02413" lon="2.33247">
        <ele>123</ele>
        <time>2023-12-20T13:24:35Z</time>
      </trkpt>
      <trkpt lat="50.02412" lon="2.33247">
        <ele>123</ele>
        <time>2023-12-20T13:24:36Z</time>
      </trkpt>
      <trkpt lat="50.02412" lon="2.33247">
        <ele>123</ele>
        <time>2023-12-20T13:24:37Z</time>
      </trkpt>
      <trkpt lat="50.02412" lon="2.33246">
        <ele>123.1</ele>
        <time>2023-12-20T13:24:38Z</time>
      </trkpt>
      <trkpt lat="50.02411" lon="2.33245">
        <ele>123.1</ele>
        <time>2023-12-20T13:24:40Z</time>
      </trkpt>
      <trkpt lat="50.0241" lon="2.33245">
        <ele>123.2</ele>
        <time>2023-12-20T13:24:42Z</time>
      </trkpt>
      <trkpt lat="50.02409" lon="2.33244">
        <ele>123.2</ele>
        <time>2023-12-20T13:24:43Z</time>
      </trkpt>
      <trkpt lat="50.02408" lon="2.33244">
        <ele>123.3</ele>
        <time>2023-12-20T13:24:44Z</time>
      </trkpt>
      <trkpt lat="50.02407" lon="2.33244">
        <ele>123.4</ele>
        <time>2023-12-20T13:24:45Z</time>
      </trkpt>
      <trkpt lat="50.02406" lon="2.33243">
        <ele>123.4</ele>
        <time>2023-12-20T13:24:46Z</time>
      </trkpt>
      <trkpt lat="50.02405" lon="2.33243">
        <ele>123.5</ele>
        <time>2023-12-20T13:24:47Z</time>
      </trkpt>
      <trkpt lat="50.02404" lon="2.33243">
        <ele>123.6</ele>
        <time>2023-12-20T13:24:48Z</time>
      </trkpt>
      <trkpt lat="50.02403" lon="2.33243">
        <ele>123.6</ele>
        <time>2023-12-20T13:24:49Z</time>
      </trkpt>
      <trkpt lat="50.02402" lon="2.33243">
        <ele>123.7</ele>
        <time>2023-12-20T13:24:51Z</time>
      </trkpt>
      <trkpt lat="50.02401" lon="2.33242">
        <ele>123.7</ele>
        <time>2023-12-20T13:24:52Z</time>
      </trkpt>
      <trkpt lat="50.024" lon="2.33242">
        <ele>123.7</ele>
        <time>2023-12-20T13:24:53Z</time>
      </trkpt>
      <trkpt lat="50.02399" lon="2.33241">
        <ele>123.8</ele>
        <time>2023-12-20T13:24:54Z</time>
      </trkpt>
      <trkpt lat="50.02398" lon="2.3324">
        <ele>123.8</ele>
        <time>2023-12-20T13:24:55Z</time>
      </trkpt>
      <trkpt lat="50.02397" lon="2.33239">
        <ele>123.8</ele>
        <time>2023-12-20T13:24:56Z</time>
      </trkpt>
      <trkpt lat="50.02396" lon="2.33238">
        <ele>123.9</ele>
        <time>2023-12-20T13:24:58Z</time>
      </trkpt>
      <trkpt lat="50.02395" lon="2.33237">
        <ele>123.9</ele>
        <time>2023-12-20T13:24:59Z</time>
      </trkpt>
      <trkpt lat="50.02395" lon="2.33236">
        <ele>123.9</ele>
        <time>2023-12-20T13:25:00Z</time>
      </trkpt>
      <trkpt lat="50.02394" lon="2.33235">
        <ele>123.9</ele>
        <time>2023-12-20T13:25:01Z</time>
      </trkpt>
      <trkpt lat="50.02393" lon="2.33234">
        <ele>123.9</ele>
        <time>2023-12-20T13:25:02Z</time>
      </trkpt>
      <trkpt lat="50.02392" lon="2.33233">
        <ele>123.9</ele>
        <time>2023-12-20T13:25:03Z</time>
      </trkpt>
      <trkpt lat="50.02391" lon="2.33233">
        <ele>123.9</ele>
        <time>2023-12-20T13:25:04Z</time>
      </trkpt>
      <trkpt lat="50.0239" lon="2.33232">
        <ele>123.9</ele>
        <time>2023-12-20T13:25:05Z</time>
      </trkpt>
      <trkpt lat="50.0239" lon="2.33231">
        <ele>123.9</ele>
        <time>2023-12-20T13:25:07Z</time>
      </trkpt>
      <trkpt lat="50.02389" lon="2.3323">
        <ele>123.9</ele>
        <time>2023-12-20T13:25:08Z</time>
      </trkpt>
      <trkpt lat="50.02387" lon="2.33228">
        <ele>123.9</ele>
        <time>2023-12-20T13:25:09Z</time>
      </trkpt>
      <trkpt lat="50.02386" lon="2.33228">
        <ele>123.9</ele>
        <time>2023-12-20T13:25:10Z</time>
      </trkpt>
      <trkpt lat="50.02385" lon="2.33227">
        <ele>123.9</ele>
        <time>2023-12-20T13:25:11Z</time>
      </trkpt>
      <trkpt lat="50.02384" lon="2.33226">
        <ele>123.9</ele>
        <time>2023-12-20T13:25:12Z</time>
      </trkpt>
      <trkpt lat="50.02383" lon="2.33225">
        <ele>123.8</ele>
        <time>2023-12-20T13:25:13Z</time>
      </trkpt>
      <trkpt lat="50.02382" lon="2.33224">
        <ele>123.8</ele>
        <time>2023-12-20T13:25:15Z</time>
      </trkpt>
      <trkpt lat="50.02381" lon="2.33222">
        <ele>123.8</ele>
        <time>2023-12-20T13:25:16Z</time>
      </trkpt>
      <trkpt lat="50.0238" lon="2.33221">
        <ele>123.8</ele>
        <time>2023-12-20T13:25:17Z</time>
      </trkpt>
      <trkpt lat="50.02378" lon="2.33219">
        <ele>123.7</ele>
        <time>2023-12-20T13:25:18Z</time>
      </trkpt>
      <trkpt lat="50.02377" lon="2.33218">
        <ele>123.7</ele>
        <time>2023-12-20T13:25:20Z</time>
      </trkpt>
      <trkpt lat="50.02376" lon="2.33216">
        <ele>123.7</ele>
        <time>2023-12-20T13:25:21Z</time>
      </trkpt>
      <trkpt lat="50.02375" lon="2.33215">
        <ele>123.6</ele>
        <time>2023-12-20T13:25:22Z</time>
      </trkpt>
      <trkpt lat="50.02373" lon="2.33214">
        <ele>123.6</ele>
        <time>2023-12-20T13:25:23Z</time>
      </trkpt>
      <trkpt lat="50.02372" lon="2.33213">
        <ele>123.6</ele>
        <time>2023-12-20T13:25:24Z</time>
      </trkpt>
      <trkpt lat="50.02371" lon="2.33211">
        <ele>123.6</ele>
        <time>2023-12-20T13:25:25Z</time>
      </trkpt>
      <trkpt lat="50.0237" lon="2.3321">
        <ele>123.5</ele>
        <time>2023-12-20T13:25:26Z</time>
      </trkpt>
      <trkpt lat="50.02369" lon="2.33209">
        <ele>123.5</ele>
        <time>2023-12-20T13:25:27Z</time>
      </trkpt>
      <trkpt lat="50.02368" lon="2.33208">
        <ele>123.5</ele>
        <time>2023-12-20T13:25:28Z</time>
      </trkpt>
      <trkpt lat="50.02366" lon="2.33205">
        <ele>123.5</ele>
        <time>2023-12-20T13:25:29Z</time>
      </trkpt>
      <trkpt lat="50.02365" lon="2.33204">
        <ele>123.5</ele>
        <time>2023-12-20T13:25:31Z</time>
      </trkpt>
      <trkpt lat="50.02364" lon="2.33203">
        <ele>123.5</ele>
        <time>2023-12-20T13:25:32Z</time>
      </trkpt>
      <trkpt lat="50.02363" lon="2.33202">
        <ele>123.4</ele>
        <time>2023-12-20T13:25:33Z</time>
      </trkpt>
      <trkpt lat="50.02362" lon="2.33201">
        <ele>123.4</ele>
        <time>2023-12-20T13:25:34Z</time>
      </trkpt>
      <trkpt lat="50.02361" lon="2.33199">
        <ele>123.4</ele>
        <time>2023-12-20T13:25:35Z</time>
      </trkpt>
      <trkpt lat="50.0236" lon="2.33198">
        <ele>123.4</ele>
        <time>2023-12-20T13:25:36Z</time>
      </trkpt>
      <trkpt lat="50.02359" lon="2.33197">
        <ele>123.4</ele>
        <time>2023-12-20T13:25:37Z</time>
      </trkpt>
      <trkpt lat="50.02357" lon="2.33195">
        <ele>123.4</ele>
        <time>2023-12-20T13:25:39Z</time>
      </trkpt>
      <trkpt lat="50.02357" lon="2.33194">
        <ele>123.4</ele>
        <time>2023-12-20T13:25:40Z</time>
      </trkpt>
      <trkpt lat="50.02356" lon="2.33194">
        <ele>123.4</ele>
        <time>2023-12-20T13:25:41Z</time>
      </trkpt>
      <trkpt lat="50.02354" lon="2.33192">
        <ele>123.4</ele>
        <time>2023-12-20T13:25:42Z</time>
      </trkpt>
      <trkpt lat="50.02354" lon="2.33191">
        <ele>123.4</ele>
        <time>2023-12-20T13:25:43Z</time>
      </trkpt>
      <trkpt lat="50.02353" lon="2.3319">
        <ele>123.4</ele>
        <time>2023-12-20T13:25:44Z</time>
      </trkpt>
      <trkpt lat="50.02351" lon="2.33188">
        <ele>123.4</ele>
        <time>2023-12-20T13:25:45Z</time>
      </trkpt>
      <trkpt lat="50.02351" lon="2.33188">
        <ele>123.4</ele>
        <time>2023-12-20T13:25:47Z</time>
      </trkpt>
      <trkpt lat="50.0235" lon="2.33187">
        <ele>123.4</ele>
        <time>2023-12-20T13:25:48Z</time>
      </trkpt>
      <trkpt lat="50.02349" lon="2.33185">
        <ele>123.4</ele>
        <time>2023-12-20T13:25:49Z</time>
      </trkpt>
      <trkpt lat="50.02349" lon="2.33184">
        <ele>123.5</ele>
        <time>2023-12-20T13:25:50Z</time>
      </trkpt>
      <trkpt lat="50.02348" lon="2.33183">
        <ele>123.5</ele>
        <time>2023-12-20T13:25:51Z</time>
      </trkpt>
      <trkpt lat="50.02347" lon="2.33182">
        <ele>123.5</ele>
        <time>2023-12-20T13:25:52Z</time>
      </trkpt>
      <trkpt lat="50.02346" lon="2.3318">
        <ele>123.5</ele>
        <time>2023-12-20T13:25:53Z</time>
      </trkpt>
      <trkpt lat="50.02345" lon="2.33179">
        <ele>123.5</ele>
        <time>2023-12-20T13:25:55Z</time>
      </trkpt>
      <trkpt lat="50.02344" lon="2.33178">
        <ele>123.5</ele>
        <time>2023-12-20T13:25:56Z</time>
      </trkpt>
      <trkpt lat="50.02344" lon="2.33177">
        <ele>123.5</ele>
        <time>2023-12-20T13:25:57Z</time>
      </trkpt>
      <trkpt lat="50.02343" lon="2.33176">
        <ele>123.5</ele>
        <time>2023-12-20T13:25:58Z</time>
      </trkpt>
      <trkpt lat="50.02341" lon="2.33174">
        <ele>123.5</ele>
        <time>2023-12-20T13:25:59Z</time>
      </trkpt>
      <trkpt lat="50.02341" lon="2.33173">
        <ele>123.5</ele>
        <time>2023-12-20T13:26:00Z</time>
      </trkpt>
      <trkpt lat="50.0234" lon="2.33172">
        <ele>123.5</ele>
        <time>2023-12-20T13:26:01Z</time>
      </trkpt>
      <trkpt lat="50.0234" lon="2.3317">
        <ele>123.6</ele>
        <time>2023-12-20T13:26:03Z</time>
      </trkpt>
      <trkpt lat="50.02339" lon="2.33168">
        <ele>123.6</ele>
        <time>2023-12-20T13:26:04Z</time>
      </trkpt>
      <trkpt lat="50.02338" lon="2.33166">
        <ele>123.6</ele>
        <time>2023-12-20T13:26:05Z</time>
      </trkpt>
      <trkpt lat="50.02337" lon="2.33165">
        <ele>123.6</ele>
        <time>2023-12-20T13:26:06Z</time>
      </trkpt>
      <trkpt lat="50.02336" lon="2.33162">
        <ele>123.6</ele>
        <time>2023-12-20T13:26:07Z</time>
      </trkpt>
      <trkpt lat="50.02335" lon="2.33161">
        <ele>123.6</ele>
        <time>2023-12-20T13:26:08Z</time>
      </trkpt>
      <trkpt lat="50.02335" lon="2.3316">
        <ele>123.6</ele>
        <time>2023-12-20T13:26:09Z</time>
      </trkpt>
      <trkpt lat="50.02334" lon="2.33159">
        <ele>123.6</ele>
        <time>2023-12-20T13:26:10Z</time>
      </trkpt>
      <trkpt lat="50.02333" lon="2.33157">
        <ele>123.7</ele>
        <time>2023-12-20T13:26:11Z</time>
      </trkpt>
      <trkpt lat="50.02332" lon="2.33155">
        <ele>123.7</ele>
        <time>2023-12-20T13:26:13Z</time>
      </trkpt>
      <trkpt lat="50.02331" lon="2.33153">
        <ele>123.7</ele>
        <time>2023-12-20T13:26:14Z</time>
      </trkpt>
      <trkpt lat="50.0233" lon="2.33152">
        <ele>123.7</ele>
        <time>2023-12-20T13:26:15Z</time>
      </trkpt>
      <trkpt lat="50.02329" lon="2.33151">
        <ele>123.7</ele>
        <time>2023-12-20T13:26:16Z</time>
      </trkpt>
      <trkpt lat="50.02328" lon="2.33149">
        <ele>123.8</ele>
        <time>2023-12-20T13:26:17Z</time>
      </trkpt>
      <trkpt lat="50.02328" lon="2.33148">
        <ele>123.8</ele>
        <time>2023-12-20T13:26:18Z</time>
      </trkpt>
      <trkpt lat="50.02327" lon="2.33147">
        <ele>123.8</ele>
        <time>2023-12-20T13:26:19Z</time>
      </trkpt>
      <trkpt lat="50.02326" lon="2.33144">
        <ele>123.8</ele>
        <time>2023-12-20T13:26:20Z</time>
      </trkpt>
      <trkpt lat="50.02325" lon="2.33143">
        <ele>123.8</ele>
        <time>2023-12-20T13:26:22Z</time>
      </trkpt>
      <trkpt lat="50.02324" lon="2.33142">
        <ele>123.9</ele>
        <time>2023-12-20T13:26:23Z</time>
      </trkpt>
      <trkpt lat="50.02322" lon="2.3314">
        <ele>123.9</ele>
        <time>2023-12-20T13:26:24Z</time>
      </trkpt>
      <trkpt lat="50.02322" lon="2.3314">
        <ele>123.9</ele>
        <time>2023-12-20T13:26:25Z</time>
      </trkpt>
      <trkpt lat="50.02321" lon="2.33139">
        <ele>123.9</ele>
        <time>2023-12-20T13:26:26Z</time>
      </trkpt>
      <trkpt lat="50.0232" lon="2.33139">
        <ele>123.9</ele>
        <time>2023-12-20T13:26:27Z</time>
      </trkpt>
      <trkpt lat="50.02318" lon="2.33138">
        <ele>123.9</ele>
        <time>2023-12-20T13:26:28Z</time>
      </trkpt>
      <trkpt lat="50.02317" lon="2.33138">
        <ele>124</ele>
        <time>2023-12-20T13:26:30Z</time>
      </trkpt>
      <trkpt lat="50.02315" lon="2.33138">
        <ele>124</ele>
        <time>2023-12-20T13:26:31Z</time>
      </trkpt>
      <trkpt lat="50.02314" lon="2.33138">
        <ele>124</ele>
        <time>2023-12-20T13:26:32Z</time>
      </trkpt>
      <trkpt lat="50.02312" lon="2.33138">
        <ele>124.1</ele>
        <time>2023-12-20T13:26:33Z</time>
      </trkpt>
      <trkpt lat="50.02311" lon="2.33139">
        <ele>124.1</ele>
        <time>2023-12-20T13:26:34Z</time>
      </trkpt>
      <trkpt lat="50.02309" lon="2.3314">
        <ele>124.1</ele>
        <time>2023-12-20T13:26:35Z</time>
      </trkpt>
      <trkpt lat="50.02308" lon="2.3314">
        <ele>124.1</ele>
        <time>2023-12-20T13:26:36Z</time>
      </trkpt>
      <trkpt lat="50.02307" lon="2.33141">
        <ele>124.2</ele>
        <time>2023-12-20T13:26:37Z</time>
      </trkpt>
      <trkpt lat="50.02305" lon="2.33142">
        <ele>124.2</ele>
        <time>2023-12-20T13:26:39Z</time>
      </trkpt>
      <trkpt lat="50.02304" lon="2.33143">
        <ele>124.2</ele>
        <time>2023-12-20T13:26:40Z</time>
      </trkpt>
      <trkpt lat="50.02302" lon="2.33144">
        <ele>124.3</ele>
        <time>2023-12-20T13:26:41Z</time>
      </trkpt>
      <trkpt lat="50.02301" lon="2.33144">
        <ele>124.3</ele>
        <time>2023-12-20T13:26:42Z</time>
      </trkpt>
      <trkpt lat="50.023" lon="2.33145">
        <ele>124.3</ele>
        <time>2023-12-20T13:26:43Z</time>
      </trkpt>
      <trkpt lat="50.02298" lon="2.33145">
        <ele>124.3</ele>
        <time>2023-12-20T13:26:44Z</time>
      </trkpt>
      <trkpt lat="50.02297" lon="2.33146">
        <ele>124.4</ele>
        <time>2023-12-20T13:26:45Z</time>
      </trkpt>
      <trkpt lat="50.02294" lon="2.33147">
        <ele>124.5</ele>
        <time>2023-12-20T13:26:46Z</time>
      </trkpt>
      <trkpt lat="50.02293" lon="2.33147">
        <ele>124.5</ele>
        <time>2023-12-20T13:26:48Z</time>
      </trkpt>
      <trkpt lat="50.02292" lon="2.33148">
        <ele>124.5</ele>
        <time>2023-12-20T13:26:49Z</time>
      </trkpt>
      <trkpt lat="50.02291" lon="2.33148">
        <ele>124.5</ele>
        <time>2023-12-20T13:26:50Z</time>
      </trkpt>
      <trkpt lat="50.0229" lon="2.33149">
        <ele>124.6</ele>
        <time>2023-12-20T13:26:51Z</time>
      </trkpt>
      <trkpt lat="50.02288" lon="2.33149">
        <ele>124.6</ele>
        <time>2023-12-20T13:26:52Z</time>
      </trkpt>
      <trkpt lat="50.02287" lon="2.3315">
        <ele>124.7</ele>
        <time>2023-12-20T13:26:53Z</time>
      </trkpt>
      <trkpt lat="50.02287" lon="2.3315">
        <ele>124.7</ele>
        <time>2023-12-20T13:26:54Z</time>
      </trkpt>
      <trkpt lat="50.02285" lon="2.3315">
        <ele>124.7</ele>
        <time>2023-12-20T13:26:55Z</time>
      </trkpt>
      <trkpt lat="50.02284" lon="2.33151">
        <ele>124.8</ele>
        <time>2023-12-20T13:26:57Z</time>
      </trkpt>
      <trkpt lat="50.02282" lon="2.33151">
        <ele>124.8</ele>
        <time>2023-12-20T13:26:58Z</time>
      </trkpt>
      <trkpt lat="50.02281" lon="2.33152">
        <ele>124.9</ele>
        <time>2023-12-20T13:26:59Z</time>
      </trkpt>
      <trkpt lat="50.02279" lon="2.33153">
        <ele>125</ele>
        <time>2023-12-20T13:27:00Z</time>
      </trkpt>
      <trkpt lat="50.02278" lon="2.33153">
        <ele>125</ele>
        <time>2023-12-20T13:27:01Z</time>
      </trkpt>
      <trkpt lat="50.02277" lon="2.33154">
        <ele>125.1</ele>
        <time>2023-12-20T13:27:02Z</time>
      </trkpt>
      <trkpt lat="50.02275" lon="2.33155">
        <ele>125.1</ele>
        <time>2023-12-20T13:27:03Z</time>
      </trkpt>
      <trkpt lat="50.02274" lon="2.33155">
        <ele>125.2</ele>
        <time>2023-12-20T13:27:05Z</time>
      </trkpt>
      <trkpt lat="50.02274" lon="2.33155">
        <ele>125.2</ele>
        <time>2023-12-20T13:27:06Z</time>
      </trkpt>
      <trkpt lat="50.02271" lon="2.33156">
        <ele>125.3</ele>
        <time>2023-12-20T13:27:07Z</time>
      </trkpt>
      <trkpt lat="50.02271" lon="2.33157">
        <ele>125.3</ele>
        <time>2023-12-20T13:27:08Z</time>
      </trkpt>
      <trkpt lat="50.0227" lon="2.33157">
        <ele>125.4</ele>
        <time>2023-12-20T13:27:09Z</time>
      </trkpt>
      <trkpt lat="50.02269" lon="2.33158">
        <ele>125.4</ele>
        <time>2023-12-20T13:27:10Z</time>
      </trkpt>
      <trkpt lat="50.02268" lon="2.33158">
        <ele>125.5</ele>
        <time>2023-12-20T13:27:11Z</time>
      </trkpt>
      <trkpt lat="50.02267" lon="2.33158">
        <ele>125.5</ele>
        <time>2023-12-20T13:27:12Z</time>
      </trkpt>
      <trkpt lat="50.02265" lon="2.33159">
        <ele>125.6</ele>
        <time>2023-12-20T13:27:14Z</time>
      </trkpt>
      <trkpt lat="50.02264" lon="2.33159">
        <ele>125.7</ele>
        <time>2023-12-20T13:27:15Z</time>
      </trkpt>
      <trkpt lat="50.02263" lon="2.33159">
        <ele>125.7</ele>
        <time>2023-12-20T13:27:16Z</time>
      </trkpt>
      <trkpt lat="50.02261" lon="2.33159">
        <ele>125.8</ele>
        <time>2023-12-20T13:27:17Z</time>
      </trkpt>
      <trkpt lat="50.0226" lon="2.33159">
        <ele>125.8</ele>
        <time>2023-12-20T13:27:18Z</time>
      </trkpt>
      <trkpt lat="50.02259" lon="2.33159">
        <ele>125.9</ele>
        <time>2023-12-20T13:27:20Z</time>
      </trkpt>
      <trkpt lat="50.02258" lon="2.33159">
        <ele>125.9</ele>
        <time>2023-12-20T13:27:21Z</time>
      </trkpt>
      <trkpt lat="50.02257" lon="2.33159">
        <ele>126</ele>
        <time>2023-12-20T13:27:22Z</time>
      </trkpt>
      <trkpt lat="50.02255" lon="2.33159">
        <ele>126</ele>
        <time>2023-12-20T13:27:23Z</time>
      </trkpt>
      <trkpt lat="50.02254" lon="2.33159">
        <ele>126.1</ele>
        <time>2023-12-20T13:27:24Z</time>
      </trkpt>
      <trkpt lat="50.02253" lon="2.3316">
        <ele>126.1</ele>
        <time>2023-12-20T13:27:25Z</time>
      </trkpt>
      <trkpt lat="50.02251" lon="2.3316">
        <ele>126.2</ele>
        <time>2023-12-20T13:27:26Z</time>
      </trkpt>
      <trkpt lat="50.0225" lon="2.3316">
        <ele>126.2</ele>
        <time>2023-12-20T13:27:28Z</time>
      </trkpt>
      <trkpt lat="50.0225" lon="2.3316">
        <ele>126.3</ele>
        <time>2023-12-20T13:27:29Z</time>
      </trkpt>
      <trkpt lat="50.02248" lon="2.3316">
        <ele>126.3</ele>
        <time>2023-12-20T13:27:30Z</time>
      </trkpt>
      <trkpt lat="50.02247" lon="2.3316">
        <ele>126.4</ele>
        <time>2023-12-20T13:27:31Z</time>
      </trkpt>
      <trkpt lat="50.02246" lon="2.33159">
        <ele>126.4</ele>
        <time>2023-12-20T13:27:32Z</time>
      </trkpt>
      <trkpt lat="50.02245" lon="2.33159">
        <ele>126.5</ele>
        <time>2023-12-20T13:27:33Z</time>
      </trkpt>
      <trkpt lat="50.02244" lon="2.33159">
        <ele>126.5</ele>
        <time>2023-12-20T13:27:34Z</time>
      </trkpt>
      <trkpt lat="50.02243" lon="2.33158">
        <ele>126.6</ele>
        <time>2023-12-20T13:27:36Z</time>
      </trkpt>
      <trkpt lat="50.02242" lon="2.33158">
        <ele>126.6</ele>
        <time>2023-12-20T13:27:37Z</time>
      </trkpt>
      <trkpt lat="50.02241" lon="2.33158">
        <ele>126.7</ele>
        <time>2023-12-20T13:27:38Z</time>
      </trkpt>
      <trkpt lat="50.0224" lon="2.33157">
        <ele>126.7</ele>
        <time>2023-12-20T13:27:39Z</time>
      </trkpt>
      <trkpt lat="50.02239" lon="2.33157">
        <ele>126.8</ele>
        <time>2023-12-20T13:27:40Z</time>
      </trkpt>
      <trkpt lat="50.02238" lon="2.33156">
        <ele>126.8</ele>
        <time>2023-12-20T13:27:41Z</time>
      </trkpt>
      <trkpt lat="50.02236" lon="2.33155">
        <ele>126.9</ele>
        <time>2023-12-20T13:27:42Z</time>
      </trkpt>
      <trkpt lat="50.02235" lon="2.33154">
        <ele>127</ele>
        <time>2023-12-20T13:27:44Z</time>
      </trkpt>
      <trkpt lat="50.02234" lon="2.33153">
        <ele>127</ele>
        <time>2023-12-20T13:27:45Z</time>
      </trkpt>
      <trkpt lat="50.02232" lon="2.33151">
        <ele>127.1</ele>
        <time>2023-12-20T13:27:46Z</time>
      </trkpt>
      <trkpt lat="50.02232" lon="2.33151">
        <ele>127.1</ele>
        <time>2023-12-20T13:27:47Z</time>
      </trkpt>
      <trkpt lat="50.02231" lon="2.3315">
        <ele>127.1</ele>
        <time>2023-12-20T13:27:48Z</time>
      </trkpt>
      <trkpt lat="50.02229" lon="2.33148">
        <ele>127.2</ele>
        <time>2023-12-20T13:27:49Z</time>
      </trkpt>
      <trkpt lat="50.02228" lon="2.33148">
        <ele>127.2</ele>
        <time>2023-12-20T13:27:51Z</time>
      </trkpt>
      <trkpt lat="50.02228" lon="2.33147">
        <ele>127.3</ele>
        <time>2023-12-20T13:27:52Z</time>
      </trkpt>
      <trkpt lat="50.02226" lon="2.33145">
        <ele>127.3</ele>
        <time>2023-12-20T13:27:53Z</time>
      </trkpt>
      <trkpt lat="50.02225" lon="2.33144">
        <ele>127.4</ele>
        <time>2023-12-20T13:27:54Z</time>
      </trkpt>
      <trkpt lat="50.02225" lon="2.33143">
        <ele>127.4</ele>
        <time>2023-12-20T13:27:55Z</time>
      </trkpt>
      <trkpt lat="50.02224" lon="2.33142">
        <ele>127.4</ele>
        <time>2023-12-20T13:27:56Z</time>
      </trkpt>
      <trkpt lat="50.02223" lon="2.33141">
        <ele>127.5</ele>
        <time>2023-12-20T13:27:57Z</time>
      </trkpt>
      <trkpt lat="50.02222" lon="2.3314">
        <ele>127.5</ele>
        <time>2023-12-20T13:27:58Z</time>
      </trkpt>
      <trkpt lat="50.02221" lon="2.33139">
        <ele>127.5</ele>
        <time>2023-12-20T13:28:00Z</time>
      </trkpt>
      <trkpt lat="50.0222" lon="2.33137">
        <ele>127.6</ele>
        <time>2023-12-20T13:28:01Z</time>
      </trkpt>
      <trkpt lat="50.02219" lon="2.33136">
        <ele>127.6</ele>
        <time>2023-12-20T13:28:02Z</time>
      </trkpt>
      <trkpt lat="50.02218" lon="2.33136">
        <ele>127.6</ele>
        <time>2023-12-20T13:28:03Z</time>
      </trkpt>
      <trkpt lat="50.02216" lon="2.33135">
        <ele>127.7</ele>
        <time>2023-12-20T13:28:04Z</time>
      </trkpt>
      <trkpt lat="50.02215" lon="2.33134">
        <ele>127.7</ele>
        <time>2023-12-20T13:28:05Z</time>
      </trkpt>
      <trkpt lat="50.02214" lon="2.33133">
        <ele>127.7</ele>
        <time>2023-12-20T13:28:07Z</time>
      </trkpt>
      <trkpt lat="50.02213" lon="2.33131">
        <ele>127.8</ele>
        <time>2023-12-20T13:28:08Z</time>
      </trkpt>
      <trkpt lat="50.02212" lon="2.3313">
        <ele>127.8</ele>
        <time>2023-12-20T13:28:09Z</time>
      </trkpt>
      <trkpt lat="50.02211" lon="2.33129">
        <ele>127.8</ele>
        <time>2023-12-20T13:28:10Z</time>
      </trkpt>
      <trkpt lat="50.0221" lon="2.33128">
        <ele>127.9</ele>
        <time>2023-12-20T13:28:11Z</time>
      </trkpt>
      <trkpt lat="50.02208" lon="2.33126">
        <ele>127.9</ele>
        <time>2023-12-20T13:28:12Z</time>
      </trkpt>
      <trkpt lat="50.02207" lon="2.33125">
        <ele>127.9</ele>
        <time>2023-12-20T13:28:14Z</time>
      </trkpt>
      <trkpt lat="50.02206" lon="2.33125">
        <ele>128</ele>
        <time>2023-12-20T13:28:15Z</time>
      </trkpt>
      <trkpt lat="50.02205" lon="2.33123">
        <ele>128</ele>
        <time>2023-12-20T13:28:16Z</time>
      </trkpt>
      <trkpt lat="50.02204" lon="2.33122">
        <ele>128</ele>
        <time>2023-12-20T13:28:17Z</time>
      </trkpt>
      <trkpt lat="50.02203" lon="2.33122">
        <ele>128</ele>
        <time>2023-12-20T13:28:18Z</time>
      </trkpt>
      <trkpt lat="50.02202" lon="2.33121">
        <ele>128</ele>
        <time>2023-12-20T13:28:19Z</time>
      </trkpt>
      <trkpt lat="50.02201" lon="2.33119">
        <ele>128.1</ele>
        <time>2023-12-20T13:28:20Z</time>
      </trkpt>
      <trkpt lat="50.02199" lon="2.33117">
        <ele>128.1</ele>
        <time>2023-12-20T13:28:21Z</time>
      </trkpt>
      <trkpt lat="50.02198" lon="2.33117">
        <ele>128.1</ele>
        <time>2023-12-20T13:28:23Z</time>
      </trkpt>
      <trkpt lat="50.02197" lon="2.33116">
        <ele>128.2</ele>
        <time>2023-12-20T13:28:24Z</time>
      </trkpt>
      <trkpt lat="50.02196" lon="2.33115">
        <ele>128.2</ele>
        <time>2023-12-20T13:28:25Z</time>
      </trkpt>
      <trkpt lat="50.02195" lon="2.33114">
        <ele>128.2</ele>
        <time>2023-12-20T13:28:26Z</time>
      </trkpt>
      <trkpt lat="50.02194" lon="2.33113">
        <ele>128.2</ele>
        <time>2023-12-20T13:28:28Z</time>
      </trkpt>
      <trkpt lat="50.02193" lon="2.33112">
        <ele>128.2</ele>
        <time>2023-12-20T13:28:29Z</time>
      </trkpt>
      <trkpt lat="50.02192" lon="2.33111">
        <ele>128.3</ele>
        <time>2023-12-20T13:28:30Z</time>
      </trkpt>
      <trkpt lat="50.02191" lon="2.3311">
        <ele>128.3</ele>
        <time>2023-12-20T13:28:31Z</time>
      </trkpt>
      <trkpt lat="50.0219" lon="2.33109">
        <ele>128.3</ele>
        <time>2023-12-20T13:28:32Z</time>
      </trkpt>
      <trkpt lat="50.02189" lon="2.33108">
        <ele>128.3</ele>
        <time>2023-12-20T13:28:33Z</time>
      </trkpt>
      <trkpt lat="50.02188" lon="2.33108">
        <ele>128.4</ele>
        <time>2023-12-20T13:28:34Z</time>
      </trkpt>
      <trkpt lat="50.02187" lon="2.33107">
        <ele>128.4</ele>
        <time>2023-12-20T13:28:35Z</time>
      </trkpt>
      <trkpt lat="50.02186" lon="2.33106">
        <ele>128.4</ele>
        <time>2023-12-20T13:28:37Z</time>
      </trkpt>
      <trkpt lat="50.02184" lon="2.33104">
        <ele>128.4</ele>
        <time>2023-12-20T13:28:38Z</time>
      </trkpt>
      <trkpt lat="50.02184" lon="2.33103">
        <ele>128.5</ele>
        <time>2023-12-20T13:28:39Z</time>
      </trkpt>
      <trkpt lat="50.02183" lon="2.33103">
        <ele>128.5</ele>
        <time>2023-12-20T13:28:40Z</time>
      </trkpt>
      <trkpt lat="50.02182" lon="2.33102">
        <ele>128.5</ele>
        <time>2023-12-20T13:28:41Z</time>
      </trkpt>
      <trkpt lat="50.02181" lon="2.33101">
        <ele>128.5</ele>
        <time>2023-12-20T13:28:42Z</time>
      </trkpt>
      <trkpt lat="50.0218" lon="2.33099">
        <ele>128.5</ele>
        <time>2023-12-20T13:28:43Z</time>
      </trkpt>
      <trkpt lat="50.02179" lon="2.33098">
        <ele>128.6</ele>
        <time>2023-12-20T13:28:44Z</time>
      </trkpt>
      <trkpt lat="50.02178" lon="2.33097">
        <ele>128.6</ele>
        <time>2023-12-20T13:28:45Z</time>
      </trkpt>
      <trkpt lat="50.02177" lon="2.33096">
        <ele>128.6</ele>
        <time>2023-12-20T13:28:47Z</time>
      </trkpt>
      <trkpt lat="50.02176" lon="2.33094">
        <ele>128.6</ele>
        <time>2023-12-20T13:28:48Z</time>
      </trkpt>
      <trkpt lat="50.02175" lon="2.33093">
        <ele>128.7</ele>
        <time>2023-12-20T13:28:49Z</time>
      </trkpt>
      <trkpt lat="50.02173" lon="2.33091">
        <ele>128.7</ele>
        <time>2023-12-20T13:28:50Z</time>
      </trkpt>
      <trkpt lat="50.02172" lon="2.33091">
        <ele>128.7</ele>
        <time>2023-12-20T13:28:51Z</time>
      </trkpt>
      <trkpt lat="50.02172" lon="2.3309">
        <ele>128.7</ele>
        <time>2023-12-20T13:28:52Z</time>
      </trkpt>
      <trkpt lat="50.0217" lon="2.33089">
        <ele>128.7</ele>
        <time>2023-12-20T13:28:53Z</time>
      </trkpt>
      <trkpt lat="50.02169" lon="2.33088">
        <ele>128.8</ele>
        <time>2023-12-20T13:28:54Z</time>
      </trkpt>
      <trkpt lat="50.02167" lon="2.33086">
        <ele>128.8</ele>
        <time>2023-12-20T13:28:56Z</time>
      </trkpt>
      <trkpt lat="50.02167" lon="2.33086">
        <ele>128.8</ele>
        <time>2023-12-20T13:28:57Z</time>
      </trkpt>
      <trkpt lat="50.02166" lon="2.33085">
        <ele>128.8</ele>
        <time>2023-12-20T13:28:58Z</time>
      </trkpt>
      <trkpt lat="50.02165" lon="2.33084">
        <ele>128.8</ele>
        <time>2023-12-20T13:28:59Z</time>
      </trkpt>
      <trkpt lat="50.02164" lon="2.33083">
        <ele>128.9</ele>
        <time>2023-12-20T13:29:00Z</time>
      </trkpt>
      <trkpt lat="50.02163" lon="2.33083">
        <ele>128.9</ele>
        <time>2023-12-20T13:29:01Z</time>
      </trkpt>
      <trkpt lat="50.02161" lon="2.33081">
        <ele>128.9</ele>
        <time>2023-12-20T13:29:02Z</time>
      </trkpt>
      <trkpt lat="50.0216" lon="2.3308">
        <ele>128.9</ele>
        <time>2023-12-20T13:29:03Z</time>
      </trkpt>
      <trkpt lat="50.02159" lon="2.3308">
        <ele>129</ele>
        <time>2023-12-20T13:29:05Z</time>
      </trkpt>
      <trkpt lat="50.02158" lon="2.33079">
        <ele>129</ele>
        <time>2023-12-20T13:29:06Z</time>
      </trkpt>
      <trkpt lat="50.02157" lon="2.33078">
        <ele>129</ele>
        <time>2023-12-20T13:29:07Z</time>
      </trkpt>
      <trkpt lat="50.02157" lon="2.33077">
        <ele>129</ele>
        <time>2023-12-20T13:29:08Z</time>
      </trkpt>
      <trkpt lat="50.02155" lon="2.33075">
        <ele>129</ele>
        <time>2023-12-20T13:29:09Z</time>
      </trkpt>
      <trkpt lat="50.02154" lon="2.33075">
        <ele>129.1</ele>
        <time>2023-12-20T13:29:10Z</time>
      </trkpt>
      <trkpt lat="50.02153" lon="2.33074">
        <ele>129.1</ele>
        <time>2023-12-20T13:29:11Z</time>
      </trkpt>
      <trkpt lat="50.02152" lon="2.33073">
        <ele>129.1</ele>
        <time>2023-12-20T13:29:12Z</time>
      </trkpt>
      <trkpt lat="50.02151" lon="2.33073">
        <ele>129.1</ele>
        <time>2023-12-20T13:29:13Z</time>
      </trkpt>
      <trkpt lat="50.0215" lon="2.33072">
        <ele>129.1</ele>
        <time>2023-12-20T13:29:15Z</time>
      </trkpt>
      <trkpt lat="50.02148" lon="2.3307">
        <ele>129.2</ele>
        <time>2023-12-20T13:29:16Z</time>
      </trkpt>
      <trkpt lat="50.02147" lon="2.33069">
        <ele>129.2</ele>
        <time>2023-12-20T13:29:17Z</time>
      </trkpt>
      <trkpt lat="50.02147" lon="2.33069">
        <ele>129.2</ele>
        <time>2023-12-20T13:29:18Z</time>
      </trkpt>
      <trkpt lat="50.02145" lon="2.33067">
        <ele>129.2</ele>
        <time>2023-12-20T13:29:19Z</time>
      </trkpt>
      <trkpt lat="50.02144" lon="2.33066">
        <ele>129.2</ele>
        <time>2023-12-20T13:29:20Z</time>
      </trkpt>
      <trkpt lat="50.02144" lon="2.33066">
        <ele>129.2</ele>
        <time>2023-12-20T13:29:21Z</time>
      </trkpt>
      <trkpt lat="50.02142" lon="2.33064">
        <ele>129.3</ele>
        <time>2023-12-20T13:29:23Z</time>
      </trkpt>
      <trkpt lat="50.02141" lon="2.33063">
        <ele>129.3</ele>
        <time>2023-12-20T13:29:24Z</time>
      </trkpt>
      <trkpt lat="50.0214" lon="2.33063">
        <ele>129.3</ele>
        <time>2023-12-20T13:29:25Z</time>
      </trkpt>
      <trkpt lat="50.02139" lon="2.33062">
        <ele>129.3</ele>
        <time>2023-12-20T13:29:26Z</time>
      </trkpt>
      <trkpt lat="50.02138" lon="2.33061">
        <ele>129.3</ele>
        <time>2023-12-20T13:29:27Z</time>
      </trkpt>
      <trkpt lat="50.02137" lon="2.3306">
        <ele>129.3</ele>
        <time>2023-12-20T13:29:28Z</time>
      </trkpt>
      <trkpt lat="50.02136" lon="2.33059">
        <ele>129.3</ele>
        <time>2023-12-20T13:29:29Z</time>
      </trkpt>
      <trkpt lat="50.02135" lon="2.33059">
        <ele>129.4</ele>
        <time>2023-12-20T13:29:30Z</time>
      </trkpt>
      <trkpt lat="50.02134" lon="2.33057">
        <ele>129.4</ele>
        <time>2023-12-20T13:29:32Z</time>
      </trkpt>
      <trkpt lat="50.02132" lon="2.33056">
        <ele>129.4</ele>
        <time>2023-12-20T13:29:33Z</time>
      </trkpt>
      <trkpt lat="50.02131" lon="2.33055">
        <ele>129.4</ele>
        <time>2023-12-20T13:29:34Z</time>
      </trkpt>
      <trkpt lat="50.02131" lon="2.33054">
        <ele>129.4</ele>
        <time>2023-12-20T13:29:35Z</time>
      </trkpt>
      <trkpt lat="50.02129" lon="2.33052">
        <ele>129.4</ele>
        <time>2023-12-20T13:29:36Z</time>
      </trkpt>
      <trkpt lat="50.02128" lon="2.33051">
        <ele>129.4</ele>
        <time>2023-12-20T13:29:37Z</time>
      </trkpt>
      <trkpt lat="50.02128" lon="2.33051">
        <ele>129.4</ele>
        <time>2023-12-20T13:29:38Z</time>
      </trkpt>
      <trkpt lat="50.02127" lon="2.33049">
        <ele>129.4</ele>
        <time>2023-12-20T13:29:39Z</time>
      </trkpt>
      <trkpt lat="50.02126" lon="2.33048">
        <ele>129.4</ele>
        <time>2023-12-20T13:29:40Z</time>
      </trkpt>
      <trkpt lat="50.02125" lon="2.33047">
        <ele>129.5</ele>
        <time>2023-12-20T13:29:42Z</time>
      </trkpt>
      <trkpt lat="50.02123" lon="2.33045">
        <ele>129.5</ele>
        <time>2023-12-20T13:29:43Z</time>
      </trkpt>
      <trkpt lat="50.02122" lon="2.33045">
        <ele>129.5</ele>
        <time>2023-12-20T13:29:44Z</time>
      </trkpt>
      <trkpt lat="50.02122" lon="2.33044">
        <ele>129.5</ele>
        <time>2023-12-20T13:29:45Z</time>
      </trkpt>
      <trkpt lat="50.02121" lon="2.33043">
        <ele>129.5</ele>
        <time>2023-12-20T13:29:46Z</time>
      </trkpt>
      <trkpt lat="50.0212" lon="2.33042">
        <ele>129.5</ele>
        <time>2023-12-20T13:29:47Z</time>
      </trkpt>
      <trkpt lat="50.02119" lon="2.33041">
        <ele>129.5</ele>
        <time>2023-12-20T13:29:48Z</time>
      </trkpt>
      <trkpt lat="50.02117" lon="2.33039">
        <ele>129.5</ele>
        <time>2023-12-20T13:29:49Z</time>
      </trkpt>
      <trkpt lat="50.02117" lon="2.33038">
        <ele>129.5</ele>
        <time>2023-12-20T13:29:50Z</time>
      </trkpt>
      <trkpt lat="50.02116" lon="2.33037">
        <ele>129.5</ele>
        <time>2023-12-20T13:29:51Z</time>
      </trkpt>
      <trkpt lat="50.02114" lon="2.33036">
        <ele>129.5</ele>
        <time>2023-12-20T13:29:53Z</time>
      </trkpt>
      <trkpt lat="50.02114" lon="2.33035">
        <ele>129.5</ele>
        <time>2023-12-20T13:29:54Z</time>
      </trkpt>
      <trkpt lat="50.02113" lon="2.33034">
        <ele>129.5</ele>
        <time>2023-12-20T13:29:55Z</time>
      </trkpt>
      <trkpt lat="50.02112" lon="2.33033">
        <ele>129.5</ele>
        <time>2023-12-20T13:29:56Z</time>
      </trkpt>
      <trkpt lat="50.02111" lon="2.33033">
        <ele>129.5</ele>
        <time>2023-12-20T13:29:57Z</time>
      </trkpt>
      <trkpt lat="50.0211" lon="2.33032">
        <ele>129.5</ele>
        <time>2023-12-20T13:29:58Z</time>
      </trkpt>
      <trkpt lat="50.02109" lon="2.3303">
        <ele>129.5</ele>
        <time>2023-12-20T13:29:59Z</time>
      </trkpt>
      <trkpt lat="50.02108" lon="2.33029">
        <ele>129.5</ele>
        <time>2023-12-20T13:30:00Z</time>
      </trkpt>
      <trkpt lat="50.02107" lon="2.33028">
        <ele>129.6</ele>
        <time>2023-12-20T13:30:01Z</time>
      </trkpt>
      <trkpt lat="50.02106" lon="2.33026">
        <ele>129.6</ele>
        <time>2023-12-20T13:30:03Z</time>
      </trkpt>
      <trkpt lat="50.02105" lon="2.33026">
        <ele>129.6</ele>
        <time>2023-12-20T13:30:04Z</time>
      </trkpt>
      <trkpt lat="50.02104" lon="2.33025">
        <ele>129.6</ele>
        <time>2023-12-20T13:30:05Z</time>
      </trkpt>
      <trkpt lat="50.02104" lon="2.33024">
        <ele>129.6</ele>
        <time>2023-12-20T13:30:06Z</time>
      </trkpt>
      <trkpt lat="50.02103" lon="2.33023">
        <ele>129.6</ele>
        <time>2023-12-20T13:30:07Z</time>
      </trkpt>
      <trkpt lat="50.02102" lon="2.33022">
        <ele>129.6</ele>
        <time>2023-12-20T13:30:08Z</time>
      </trkpt>
      <trkpt lat="50.02101" lon="2.33021">
        <ele>129.6</ele>
        <time>2023-12-20T13:30:09Z</time>
      </trkpt>
      <trkpt lat="50.021" lon="2.3302">
        <ele>129.6</ele>
        <time>2023-12-20T13:30:11Z</time>
      </trkpt>
      <trkpt lat="50.02099" lon="2.33019">
        <ele>129.6</ele>
        <time>2023-12-20T13:30:12Z</time>
      </trkpt>
      <trkpt lat="50.02098" lon="2.33018">
        <ele>129.6</ele>
        <time>2023-12-20T13:30:13Z</time>
      </trkpt>
      <trkpt lat="50.02097" lon="2.33017">
        <ele>129.7</ele>
        <time>2023-12-20T13:30:14Z</time>
      </trkpt>
      <trkpt lat="50.02096" lon="2.33015">
        <ele>129.7</ele>
        <time>2023-12-20T13:30:16Z</time>
      </trkpt>
      <trkpt lat="50.02095" lon="2.33014">
        <ele>129.7</ele>
        <time>2023-12-20T13:30:17Z</time>
      </trkpt>
      <trkpt lat="50.02094" lon="2.33013">
        <ele>129.7</ele>
        <time>2023-12-20T13:30:19Z</time>
      </trkpt>
      <trkpt lat="50.02094" lon="2.33013">
        <ele>129.7</ele>
        <time>2023-12-20T13:30:20Z</time>
      </trkpt>
      <trkpt lat="50.02093" lon="2.33012">
        <ele>129.7</ele>
        <time>2023-12-20T13:30:21Z</time>
      </trkpt>
      <trkpt lat="50.02092" lon="2.33011">
        <ele>129.7</ele>
        <time>2023-12-20T13:30:22Z</time>
      </trkpt>
      <trkpt lat="50.0209" lon="2.33009">
        <ele>129.7</ele>
        <time>2023-12-20T13:30:23Z</time>
      </trkpt>
      <trkpt lat="50.02089" lon="2.33009">
        <ele>129.8</ele>
        <time>2023-12-20T13:30:24Z</time>
      </trkpt>
      <trkpt lat="50.02088" lon="2.33008">
        <ele>129.8</ele>
        <time>2023-12-20T13:30:25Z</time>
      </trkpt>
      <trkpt lat="50.02086" lon="2.33007">
        <ele>129.8</ele>
        <time>2023-12-20T13:30:27Z</time>
      </trkpt>
      <trkpt lat="50.02086" lon="2.33006">
        <ele>129.8</ele>
        <time>2023-12-20T13:30:28Z</time>
      </trkpt>
      <trkpt lat="50.02085" lon="2.33006">
        <ele>129.8</ele>
        <time>2023-12-20T13:30:29Z</time>
      </trkpt>
      <trkpt lat="50.02084" lon="2.33005">
        <ele>129.8</ele>
        <time>2023-12-20T13:30:30Z</time>
      </trkpt>
      <trkpt lat="50.02083" lon="2.33004">
        <ele>129.8</ele>
        <time>2023-12-20T13:30:31Z</time>
      </trkpt>
      <trkpt lat="50.02082" lon="2.33003">
        <ele>129.8</ele>
        <time>2023-12-20T13:30:32Z</time>
      </trkpt>
      <trkpt lat="50.02081" lon="2.33003">
        <ele>129.9</ele>
        <time>2023-12-20T13:30:33Z</time>
      </trkpt>
      <trkpt lat="50.02081" lon="2.33003">
        <ele>129.9</ele>
        <time>2023-12-20T13:30:34Z</time>
      </trkpt>
      <trkpt lat="50.0208" lon="2.33002">
        <ele>129.9</ele>
        <time>2023-12-20T13:30:36Z</time>
      </trkpt>
      <trkpt lat="50.02079" lon="2.33002">
        <ele>129.9</ele>
        <time>2023-12-20T13:30:37Z</time>
      </trkpt>
      <trkpt lat="50.02079" lon="2.33001">
        <ele>129.9</ele>
        <time>2023-12-20T13:30:38Z</time>
      </trkpt>
      <trkpt lat="50.02079" lon="2.33001">
        <ele>129.9</ele>
        <time>2023-12-20T13:30:40Z</time>
      </trkpt>
      <trkpt lat="50.02079" lon="2.33001">
        <ele>129.9</ele>
        <time>2023-12-20T13:30:41Z</time>
      </trkpt>
      <trkpt lat="50.02079" lon="2.33001">
        <ele>129.9</ele>
        <time>2023-12-20T13:30:42Z</time>
      </trkpt>
      <trkpt lat="50.0208" lon="2.33001">
        <ele>129.9</ele>
        <time>2023-12-20T13:30:44Z</time>
      </trkpt>
      <trkpt lat="50.0208" lon="2.33001">
        <ele>129.9</ele>
        <time>2023-12-20T13:30:45Z</time>
      </trkpt>
      <trkpt lat="50.0208" lon="2.33">
        <ele>129.9</ele>
        <time>2023-12-20T13:30:46Z</time>
      </trkpt>
      <trkpt lat="50.0208" lon="2.33001">
        <ele>129.9</ele>
        <time>2023-12-20T13:30:47Z</time>
      </trkpt>
      <trkpt lat="50.0208" lon="2.33">
        <ele>129.9</ele>
        <time>2023-12-20T13:30:49Z</time>
      </trkpt>
      <trkpt lat="50.0208" lon="2.33">
        <ele>129.9</ele>
        <time>2023-12-20T13:30:50Z</time>
      </trkpt>
      <trkpt lat="50.0208" lon="2.33">
        <ele>129.9</ele>
        <time>2023-12-20T13:30:51Z</time>
      </trkpt>
      <trkpt lat="50.0208" lon="2.33">
        <ele>129.9</ele>
        <time>2023-12-20T13:30:53Z</time>
      </trkpt>
      <trkpt lat="50.0208" lon="2.33">
        <ele>129.9</ele>
        <time>2023-12-20T13:30:54Z</time>
      </trkpt>
      <trkpt lat="50.0208" lon="2.33001">
        <ele>129.9</ele>
        <time>2023-12-20T13:30:55Z</time>
      </trkpt>
      <trkpt lat="50.0208" lon="2.33001">
        <ele>129.9</ele>
        <time>2023-12-20T13:30:56Z</time>
      </trkpt>
      <trkpt lat="50.0208" lon="2.33001">
        <ele>129.9</ele>
        <time>2023-12-20T13:30:58Z</time>
      </trkpt>
      <trkpt lat="50.02079" lon="2.3301">
        <ele>129.9</ele>
        <time>2023-12-20T13:33:04Z</time>
      </trkpt>
      <trkpt lat="50.02078" lon="2.33012">
        <ele>129.9</ele>
        <time>2023-12-20T13:33:05Z</time>
      </trkpt>
      <trkpt lat="50.02077" lon="2.33015">
        <ele>129.9</ele>
        <time>2023-12-20T13:33:06Z</time>
      </trkpt>
      <trkpt lat="50.02074" lon="2.33017">
        <ele>129.9</ele>
        <time>2023-12-20T13:33:07Z</time>
      </trkpt>
      <trkpt lat="50.02074" lon="2.33018">
        <ele>129.9</ele>
        <time>2023-12-20T13:33:08Z</time>
      </trkpt>
      <trkpt lat="50.02072" lon="2.33019">
        <ele>129.9</ele>
        <time>2023-12-20T13:33:09Z</time>
      </trkpt>
      <trkpt lat="50.02071" lon="2.33021">
        <ele>129.9</ele>
        <time>2023-12-20T13:33:11Z</time>
      </trkpt>
      <trkpt lat="50.0207" lon="2.33022">
        <ele>129.9</ele>
        <time>2023-12-20T13:33:12Z</time>
      </trkpt>
      <trkpt lat="50.02069" lon="2.33023">
        <ele>129.9</ele>
        <time>2023-12-20T13:33:13Z</time>
      </trkpt>
      <trkpt lat="50.02067" lon="2.33024">
        <ele>130</ele>
        <time>2023-12-20T13:33:14Z</time>
      </trkpt>
      <trkpt lat="50.02066" lon="2.33025">
        <ele>130</ele>
        <time>2023-12-20T13:33:15Z</time>
      </trkpt>
      <trkpt lat="50.02064" lon="2.33027">
        <ele>130</ele>
        <time>2023-12-20T13:33:16Z</time>
      </trkpt>
      <trkpt lat="50.02063" lon="2.33028">
        <ele>130</ele>
        <time>2023-12-20T13:33:18Z</time>
      </trkpt>
      <trkpt lat="50.02063" lon="2.33029">
        <ele>130</ele>
        <time>2023-12-20T13:33:19Z</time>
      </trkpt>
      <trkpt lat="50.02061" lon="2.3303">
        <ele>130</ele>
        <time>2023-12-20T13:33:20Z</time>
      </trkpt>
      <trkpt lat="50.0206" lon="2.33032">
        <ele>130</ele>
        <time>2023-12-20T13:33:21Z</time>
      </trkpt>
      <trkpt lat="50.02059" lon="2.33034">
        <ele>130</ele>
        <time>2023-12-20T13:33:22Z</time>
      </trkpt>
      <trkpt lat="50.02058" lon="2.33035">
        <ele>130</ele>
        <time>2023-12-20T13:33:23Z</time>
      </trkpt>
      <trkpt lat="50.02058" lon="2.33037">
        <ele>130</ele>
        <time>2023-12-20T13:33:24Z</time>
      </trkpt>
      <trkpt lat="50.02057" lon="2.33038">
        <ele>130.1</ele>
        <time>2023-12-20T13:33:26Z</time>
      </trkpt>
      <trkpt lat="50.02056" lon="2.33039">
        <ele>130.1</ele>
        <time>2023-12-20T13:33:27Z</time>
      </trkpt>
      <trkpt lat="50.02055" lon="2.33041">
        <ele>130.1</ele>
        <time>2023-12-20T13:33:28Z</time>
      </trkpt>
      <trkpt lat="50.02054" lon="2.33042">
        <ele>130.1</ele>
        <time>2023-12-20T13:33:29Z</time>
      </trkpt>
      <trkpt lat="50.02053" lon="2.33044">
        <ele>130.1</ele>
        <time>2023-12-20T13:33:30Z</time>
      </trkpt>
      <trkpt lat="50.02052" lon="2.33045">
        <ele>130.1</ele>
        <time>2023-12-20T13:33:31Z</time>
      </trkpt>
      <trkpt lat="50.0205" lon="2.33048">
        <ele>130.2</ele>
        <time>2023-12-20T13:33:32Z</time>
      </trkpt>
      <trkpt lat="50.02049" lon="2.3305">
        <ele>130.2</ele>
        <time>2023-12-20T13:33:34Z</time>
      </trkpt>
      <trkpt lat="50.02048" lon="2.33051">
        <ele>130.2</ele>
        <time>2023-12-20T13:33:35Z</time>
      </trkpt>
      <trkpt lat="50.02047" lon="2.33052">
        <ele>130.2</ele>
        <time>2023-12-20T13:33:36Z</time>
      </trkpt>
      <trkpt lat="50.02047" lon="2.33053">
        <ele>130.2</ele>
        <time>2023-12-20T13:33:37Z</time>
      </trkpt>
      <trkpt lat="50.02045" lon="2.33055">
        <ele>130.3</ele>
        <time>2023-12-20T13:33:38Z</time>
      </trkpt>
      <trkpt lat="50.02044" lon="2.33056">
        <ele>130.3</ele>
        <time>2023-12-20T13:33:39Z</time>
      </trkpt>
      <trkpt lat="50.02044" lon="2.33057">
        <ele>130.3</ele>
        <time>2023-12-20T13:33:40Z</time>
      </trkpt>
      <trkpt lat="50.02043" lon="2.33058">
        <ele>130.3</ele>
        <time>2023-12-20T13:33:41Z</time>
      </trkpt>
      <trkpt lat="50.02041" lon="2.3306">
        <ele>130.3</ele>
        <time>2023-12-20T13:33:42Z</time>
      </trkpt>
      <trkpt lat="50.02041" lon="2.33061">
        <ele>130.4</ele>
        <time>2023-12-20T13:33:44Z</time>
      </trkpt>
      <trkpt lat="50.0204" lon="2.33062">
        <ele>130.4</ele>
        <time>2023-12-20T13:33:45Z</time>
      </trkpt>
      <trkpt lat="50.02039" lon="2.33063">
        <ele>130.4</ele>
        <time>2023-12-20T13:33:46Z</time>
      </trkpt>
      <trkpt lat="50.02038" lon="2.33064">
        <ele>130.4</ele>
        <time>2023-12-20T13:33:47Z</time>
      </trkpt>
      <trkpt lat="50.02037" lon="2.33065">
        <ele>130.4</ele>
        <time>2023-12-20T13:33:48Z</time>
      </trkpt>
      <trkpt lat="50.02036" lon="2.33067">
        <ele>130.4</ele>
        <time>2023-12-20T13:33:49Z</time>
      </trkpt>
      <trkpt lat="50.02035" lon="2.33068">
        <ele>130.5</ele>
        <time>2023-12-20T13:33:50Z</time>
      </trkpt>
      <trkpt lat="50.02035" lon="2.33069">
        <ele>130.5</ele>
        <time>2023-12-20T13:33:52Z</time>
      </trkpt>
      <trkpt lat="50.02034" lon="2.3307">
        <ele>130.5</ele>
        <time>2023-12-20T13:33:53Z</time>
      </trkpt>
      <trkpt lat="50.02032" lon="2.33072">
        <ele>130.5</ele>
        <time>2023-12-20T13:33:54Z</time>
      </trkpt>
      <trkpt lat="50.02031" lon="2.33073">
        <ele>130.5</ele>
        <time>2023-12-20T13:33:55Z</time>
      </trkpt>
      <trkpt lat="50.02031" lon="2.33074">
        <ele>130.6</ele>
        <time>2023-12-20T13:33:56Z</time>
      </trkpt>
      <trkpt lat="50.0203" lon="2.33076">
        <ele>130.6</ele>
        <time>2023-12-20T13:33:57Z</time>
      </trkpt>
      <trkpt lat="50.02029" lon="2.33077">
        <ele>130.6</ele>
        <time>2023-12-20T13:33:58Z</time>
      </trkpt>
      <trkpt lat="50.02028" lon="2.33079">
        <ele>130.6</ele>
        <time>2023-12-20T13:33:59Z</time>
      </trkpt>
      <trkpt lat="50.02027" lon="2.3308">
        <ele>130.6</ele>
        <time>2023-12-20T13:34:01Z</time>
      </trkpt>
      <trkpt lat="50.02026" lon="2.33081">
        <ele>130.6</ele>
        <time>2023-12-20T13:34:02Z</time>
      </trkpt>
      <trkpt lat="50.02025" lon="2.33083">
        <ele>130.7</ele>
        <time>2023-12-20T13:34:03Z</time>
      </trkpt>
      <trkpt lat="50.02024" lon="2.33084">
        <ele>130.7</ele>
        <time>2023-12-20T13:34:04Z</time>
      </trkpt>
      <trkpt lat="50.02024" lon="2.33085">
        <ele>130.7</ele>
        <time>2023-12-20T13:34:05Z</time>
      </trkpt>
      <trkpt lat="50.02023" lon="2.33088">
        <ele>130.7</ele>
        <time>2023-12-20T13:34:06Z</time>
      </trkpt>
      <trkpt lat="50.02023" lon="2.33089">
        <ele>130.7</ele>
        <time>2023-12-20T13:34:07Z</time>
      </trkpt>
      <trkpt lat="50.02022" lon="2.3309">
        <ele>130.7</ele>
        <time>2023-12-20T13:34:08Z</time>
      </trkpt>
      <trkpt lat="50.02022" lon="2.33092">
        <ele>130.7</ele>
        <time>2023-12-20T13:34:10Z</time>
      </trkpt>
      <trkpt lat="50.02021" lon="2.33093">
        <ele>130.8</ele>
        <time>2023-12-20T13:34:11Z</time>
      </trkpt>
      <trkpt lat="50.0202" lon="2.33095">
        <ele>130.8</ele>
        <time>2023-12-20T13:34:12Z</time>
      </trkpt>
      <trkpt lat="50.0202" lon="2.33096">
        <ele>130.8</ele>
        <time>2023-12-20T13:34:13Z</time>
      </trkpt>
      <trkpt lat="50.02019" lon="2.33097">
        <ele>130.8</ele>
        <time>2023-12-20T13:34:14Z</time>
      </trkpt>
      <trkpt lat="50.02018" lon="2.33098">
        <ele>130.8</ele>
        <time>2023-12-20T13:34:15Z</time>
      </trkpt>
      <trkpt lat="50.02017" lon="2.33099">
        <ele>130.8</ele>
        <time>2023-12-20T13:34:16Z</time>
      </trkpt>
      <trkpt lat="50.02016" lon="2.33101">
        <ele>130.9</ele>
        <time>2023-12-20T13:34:17Z</time>
      </trkpt>
      <trkpt lat="50.02015" lon="2.33102">
        <ele>130.9</ele>
        <time>2023-12-20T13:34:19Z</time>
      </trkpt>
      <trkpt lat="50.02015" lon="2.33104">
        <ele>130.9</ele>
        <time>2023-12-20T13:34:20Z</time>
      </trkpt>
      <trkpt lat="50.02014" lon="2.33106">
        <ele>130.9</ele>
        <time>2023-12-20T13:34:21Z</time>
      </trkpt>
      <trkpt lat="50.02012" lon="2.33108">
        <ele>131</ele>
        <time>2023-12-20T13:34:22Z</time>
      </trkpt>
      <trkpt lat="50.02012" lon="2.33109">
        <ele>131</ele>
        <time>2023-12-20T13:34:23Z</time>
      </trkpt>
      <trkpt lat="50.02011" lon="2.33109">
        <ele>131</ele>
        <time>2023-12-20T13:34:24Z</time>
      </trkpt>
      <trkpt lat="50.0201" lon="2.33111">
        <ele>131</ele>
        <time>2023-12-20T13:34:25Z</time>
      </trkpt>
      <trkpt lat="50.02009" lon="2.33112">
        <ele>131</ele>
        <time>2023-12-20T13:34:26Z</time>
      </trkpt>
      <trkpt lat="50.02008" lon="2.33114">
        <ele>131.1</ele>
        <time>2023-12-20T13:34:28Z</time>
      </trkpt>
      <trkpt lat="50.02007" lon="2.33115">
        <ele>131.1</ele>
        <time>2023-12-20T13:34:29Z</time>
      </trkpt>
      <trkpt lat="50.02006" lon="2.33116">
        <ele>131.1</ele>
        <time>2023-12-20T13:34:30Z</time>
      </trkpt>
      <trkpt lat="50.02005" lon="2.33117">
        <ele>131.1</ele>
        <time>2023-12-20T13:34:31Z</time>
      </trkpt>
      <trkpt lat="50.02004" lon="2.33119">
        <ele>131.1</ele>
        <time>2023-12-20T13:34:32Z</time>
      </trkpt>
      <trkpt lat="50.02003" lon="2.3312">
        <ele>131.1</ele>
        <time>2023-12-20T13:34:33Z</time>
      </trkpt>
      <trkpt lat="50.02002" lon="2.33121">
        <ele>131.1</ele>
        <time>2023-12-20T13:34:34Z</time>
      </trkpt>
      <trkpt lat="50.02" lon="2.33123">
        <ele>131.1</ele>
        <time>2023-12-20T13:34:35Z</time>
      </trkpt>
      <trkpt lat="50.01999" lon="2.33125">
        <ele>131.1</ele>
        <time>2023-12-20T13:34:37Z</time>
      </trkpt>
      <trkpt lat="50.01998" lon="2.33126">
        <ele>131.1</ele>
        <time>2023-12-20T13:34:38Z</time>
      </trkpt>
      <trkpt lat="50.01997" lon="2.33127">
        <ele>131.1</ele>
        <time>2023-12-20T13:34:39Z</time>
      </trkpt>
      <trkpt lat="50.01996" lon="2.33128">
        <ele>131.1</ele>
        <time>2023-12-20T13:34:40Z</time>
      </trkpt>
      <trkpt lat="50.01995" lon="2.33128">
        <ele>131</ele>
        <time>2023-12-20T13:34:42Z</time>
      </trkpt>
      <trkpt lat="50.01995" lon="2.33129">
        <ele>131</ele>
        <time>2023-12-20T13:34:43Z</time>
      </trkpt>
      <trkpt lat="50.01994" lon="2.33129">
        <ele>131</ele>
        <time>2023-12-20T13:34:44Z</time>
      </trkpt>
      <trkpt lat="50.01994" lon="2.3313">
        <ele>131</ele>
        <time>2023-12-20T13:34:45Z</time>
      </trkpt>
      <trkpt lat="50.01993" lon="2.33132">
        <ele>131</ele>
        <time>2023-12-20T13:34:46Z</time>
      </trkpt>
      <trkpt lat="50.01992" lon="2.33133">
        <ele>131</ele>
        <time>2023-12-20T13:34:47Z</time>
      </trkpt>
      <trkpt lat="50.01991" lon="2.33135">
        <ele>131</ele>
        <time>2023-12-20T13:34:48Z</time>
      </trkpt>
      <trkpt lat="50.0199" lon="2.33136">
        <ele>131</ele>
        <time>2023-12-20T13:34:49Z</time>
      </trkpt>
      <trkpt lat="50.01988" lon="2.33139">
        <ele>131</ele>
        <time>2023-12-20T13:34:51Z</time>
      </trkpt>
      <trkpt lat="50.01988" lon="2.3314">
        <ele>131</ele>
        <time>2023-12-20T13:34:52Z</time>
      </trkpt>
      <trkpt lat="50.01987" lon="2.33141">
        <ele>131</ele>
        <time>2023-12-20T13:34:53Z</time>
      </trkpt>
      <trkpt lat="50.01986" lon="2.33143">
        <ele>131</ele>
        <time>2023-12-20T13:34:54Z</time>
      </trkpt>
      <trkpt lat="50.01986" lon="2.33144">
        <ele>131</ele>
        <time>2023-12-20T13:34:55Z</time>
      </trkpt>
      <trkpt lat="50.01985" lon="2.33145">
        <ele>131</ele>
        <time>2023-12-20T13:34:56Z</time>
      </trkpt>
      <trkpt lat="50.01984" lon="2.33148">
        <ele>131</ele>
        <time>2023-12-20T13:34:57Z</time>
      </trkpt>
      <trkpt lat="50.01983" lon="2.33149">
        <ele>131</ele>
        <time>2023-12-20T13:34:59Z</time>
      </trkpt>
      <trkpt lat="50.01983" lon="2.33151">
        <ele>131</ele>
        <time>2023-12-20T13:35:00Z</time>
      </trkpt>
      <trkpt lat="50.01981" lon="2.33153">
        <ele>131</ele>
        <time>2023-12-20T13:35:01Z</time>
      </trkpt>
      <trkpt lat="50.01981" lon="2.33154">
        <ele>131</ele>
        <time>2023-12-20T13:35:02Z</time>
      </trkpt>
      <trkpt lat="50.0198" lon="2.33154">
        <ele>131</ele>
        <time>2023-12-20T13:35:03Z</time>
      </trkpt>
      <trkpt lat="50.01978" lon="2.33156">
        <ele>130.9</ele>
        <time>2023-12-20T13:35:04Z</time>
      </trkpt>
      <trkpt lat="50.01977" lon="2.33158">
        <ele>130.9</ele>
        <time>2023-12-20T13:35:05Z</time>
      </trkpt>
      <trkpt lat="50.01976" lon="2.33159">
        <ele>130.9</ele>
        <time>2023-12-20T13:35:07Z</time>
      </trkpt>
      <trkpt lat="50.01975" lon="2.33161">
        <ele>130.9</ele>
        <time>2023-12-20T13:35:08Z</time>
      </trkpt>
      <trkpt lat="50.01974" lon="2.33163">
        <ele>130.9</ele>
        <time>2023-12-20T13:35:09Z</time>
      </trkpt>
      <trkpt lat="50.01973" lon="2.33163">
        <ele>130.9</ele>
        <time>2023-12-20T13:35:10Z</time>
      </trkpt>
      <trkpt lat="50.01972" lon="2.33164">
        <ele>130.9</ele>
        <time>2023-12-20T13:35:11Z</time>
      </trkpt>
      <trkpt lat="50.01971" lon="2.33165">
        <ele>130.9</ele>
        <time>2023-12-20T13:35:12Z</time>
      </trkpt>
      <trkpt lat="50.01971" lon="2.33167">
        <ele>130.9</ele>
        <time>2023-12-20T13:35:13Z</time>
      </trkpt>
      <trkpt lat="50.0197" lon="2.33168">
        <ele>130.9</ele>
        <time>2023-12-20T13:35:15Z</time>
      </trkpt>
      <trkpt lat="50.01969" lon="2.33169">
        <ele>130.9</ele>
        <time>2023-12-20T13:35:16Z</time>
      </trkpt>
      <trkpt lat="50.01969" lon="2.33171">
        <ele>130.9</ele>
        <time>2023-12-20T13:35:17Z</time>
      </trkpt>
      <trkpt lat="50.01968" lon="2.33172">
        <ele>130.9</ele>
        <time>2023-12-20T13:35:18Z</time>
      </trkpt>
      <trkpt lat="50.01968" lon="2.33173">
        <ele>130.9</ele>
        <time>2023-12-20T13:35:19Z</time>
      </trkpt>
      <trkpt lat="50.01967" lon="2.33175">
        <ele>130.9</ele>
        <time>2023-12-20T13:35:20Z</time>
      </trkpt>
      <trkpt lat="50.01967" lon="2.33176">
        <ele>130.9</ele>
        <time>2023-12-20T13:35:21Z</time>
      </trkpt>
      <trkpt lat="50.01966" lon="2.33177">
        <ele>130.9</ele>
        <time>2023-12-20T13:35:23Z</time>
      </trkpt>
      <trkpt lat="50.01965" lon="2.33178">
        <ele>130.9</ele>
        <time>2023-12-20T13:35:24Z</time>
      </trkpt>
      <trkpt lat="50.01964" lon="2.33179">
        <ele>130.9</ele>
        <time>2023-12-20T13:35:25Z</time>
      </trkpt>
      <trkpt lat="50.01963" lon="2.33182">
        <ele>130.9</ele>
        <time>2023-12-20T13:35:26Z</time>
      </trkpt>
      <trkpt lat="50.01962" lon="2.33182">
        <ele>130.9</ele>
        <time>2023-12-20T13:35:27Z</time>
      </trkpt>
      <trkpt lat="50.01962" lon="2.33183">
        <ele>130.9</ele>
        <time>2023-12-20T13:35:28Z</time>
      </trkpt>
      <trkpt lat="50.01961" lon="2.33184">
        <ele>130.8</ele>
        <time>2023-12-20T13:35:30Z</time>
      </trkpt>
      <trkpt lat="50.0196" lon="2.33185">
        <ele>130.8</ele>
        <time>2023-12-20T13:35:31Z</time>
      </trkpt>
      <trkpt lat="50.01959" lon="2.33186">
        <ele>130.8</ele>
        <time>2023-12-20T13:35:32Z</time>
      </trkpt>
      <trkpt lat="50.01958" lon="2.33188">
        <ele>130.8</ele>
        <time>2023-12-20T13:35:33Z</time>
      </trkpt>
      <trkpt lat="50.01957" lon="2.33189">
        <ele>130.8</ele>
        <time>2023-12-20T13:35:34Z</time>
      </trkpt>
      <trkpt lat="50.01956" lon="2.3319">
        <ele>130.8</ele>
        <time>2023-12-20T13:35:35Z</time>
      </trkpt>
      <trkpt lat="50.01955" lon="2.33191">
        <ele>130.8</ele>
        <time>2023-12-20T13:35:36Z</time>
      </trkpt>
      <trkpt lat="50.01954" lon="2.33192">
        <ele>130.8</ele>
        <time>2023-12-20T13:35:37Z</time>
      </trkpt>
      <trkpt lat="50.01954" lon="2.33193">
        <ele>130.8</ele>
        <time>2023-12-20T13:35:38Z</time>
      </trkpt>
      <trkpt lat="50.01953" lon="2.33194">
        <ele>130.8</ele>
        <time>2023-12-20T13:35:40Z</time>
      </trkpt>
      <trkpt lat="50.01953" lon="2.33195">
        <ele>130.8</ele>
        <time>2023-12-20T13:35:41Z</time>
      </trkpt>
      <trkpt lat="50.01952" lon="2.33197">
        <ele>130.8</ele>
        <time>2023-12-20T13:35:42Z</time>
      </trkpt>
      <trkpt lat="50.01951" lon="2.33199">
        <ele>130.8</ele>
        <time>2023-12-20T13:35:43Z</time>
      </trkpt>
      <trkpt lat="50.0195" lon="2.332">
        <ele>130.8</ele>
        <time>2023-12-20T13:35:44Z</time>
      </trkpt>
      <trkpt lat="50.01949" lon="2.33203">
        <ele>130.8</ele>
        <time>2023-12-20T13:35:45Z</time>
      </trkpt>
      <trkpt lat="50.01948" lon="2.33204">
        <ele>130.8</ele>
        <time>2023-12-20T13:35:47Z</time>
      </trkpt>
      <trkpt lat="50.01947" lon="2.33205">
        <ele>130.8</ele>
        <time>2023-12-20T13:35:48Z</time>
      </trkpt>
      <trkpt lat="50.01946" lon="2.33206">
        <ele>130.8</ele>
        <time>2023-12-20T13:35:49Z</time>
      </trkpt>
      <trkpt lat="50.01945" lon="2.33207">
        <ele>130.8</ele>
        <time>2023-12-20T13:35:50Z</time>
      </trkpt>
      <trkpt lat="50.01944" lon="2.33208">
        <ele>130.8</ele>
        <time>2023-12-20T13:35:52Z</time>
      </trkpt>
      <trkpt lat="50.01943" lon="2.33209">
        <ele>130.8</ele>
        <time>2023-12-20T13:35:53Z</time>
      </trkpt>
      <trkpt lat="50.01942" lon="2.33211">
        <ele>130.7</ele>
        <time>2023-12-20T13:35:54Z</time>
      </trkpt>
      <trkpt lat="50.01942" lon="2.33212">
        <ele>130.7</ele>
        <time>2023-12-20T13:35:55Z</time>
      </trkpt>
      <trkpt lat="50.01941" lon="2.33213">
        <ele>130.7</ele>
        <time>2023-12-20T13:35:56Z</time>
      </trkpt>
      <trkpt lat="50.0194" lon="2.33215">
        <ele>130.7</ele>
        <time>2023-12-20T13:35:58Z</time>
      </trkpt>
      <trkpt lat="50.01939" lon="2.33216">
        <ele>130.7</ele>
        <time>2023-12-20T13:35:59Z</time>
      </trkpt>
      <trkpt lat="50.01938" lon="2.33219">
        <ele>130.7</ele>
        <time>2023-12-20T13:36:00Z</time>
      </trkpt>
      <trkpt lat="50.01937" lon="2.3322">
        <ele>130.7</ele>
        <time>2023-12-20T13:36:01Z</time>
      </trkpt>
      <trkpt lat="50.01937" lon="2.33221">
        <ele>130.7</ele>
        <time>2023-12-20T13:36:02Z</time>
      </trkpt>
      <trkpt lat="50.01936" lon="2.33223">
        <ele>130.7</ele>
        <time>2023-12-20T13:36:03Z</time>
      </trkpt>
      <trkpt lat="50.01935" lon="2.33224">
        <ele>130.7</ele>
        <time>2023-12-20T13:36:04Z</time>
      </trkpt>
      <trkpt lat="50.01933" lon="2.33227">
        <ele>130.7</ele>
        <time>2023-12-20T13:36:05Z</time>
      </trkpt>
      <trkpt lat="50.01932" lon="2.33228">
        <ele>130.7</ele>
        <time>2023-12-20T13:36:07Z</time>
      </trkpt>
      <trkpt lat="50.01932" lon="2.33229">
        <ele>130.7</ele>
        <time>2023-12-20T13:36:08Z</time>
      </trkpt>
      <trkpt lat="50.01931" lon="2.33231">
        <ele>130.7</ele>
        <time>2023-12-20T13:36:09Z</time>
      </trkpt>
      <trkpt lat="50.0193" lon="2.33232">
        <ele>130.7</ele>
        <time>2023-12-20T13:36:10Z</time>
      </trkpt>
      <trkpt lat="50.01929" lon="2.33233">
        <ele>130.7</ele>
        <time>2023-12-20T13:36:12Z</time>
      </trkpt>
      <trkpt lat="50.01927" lon="2.33235">
        <ele>130.7</ele>
        <time>2023-12-20T13:36:13Z</time>
      </trkpt>
      <trkpt lat="50.01927" lon="2.33236">
        <ele>130.7</ele>
        <time>2023-12-20T13:36:14Z</time>
      </trkpt>
      <trkpt lat="50.01926" lon="2.33237">
        <ele>130.7</ele>
        <time>2023-12-20T13:36:15Z</time>
      </trkpt>
      <trkpt lat="50.01926" lon="2.33238">
        <ele>130.7</ele>
        <time>2023-12-20T13:36:16Z</time>
      </trkpt>
      <trkpt lat="50.01925" lon="2.33238">
        <ele>130.7</ele>
        <time>2023-12-20T13:36:17Z</time>
      </trkpt>
      <trkpt lat="50.01924" lon="2.3324">
        <ele>130.6</ele>
        <time>2023-12-20T13:36:18Z</time>
      </trkpt>
      <trkpt lat="50.01923" lon="2.33241">
        <ele>130.6</ele>
        <time>2023-12-20T13:36:19Z</time>
      </trkpt>
      <trkpt lat="50.01922" lon="2.33242">
        <ele>130.6</ele>
        <time>2023-12-20T13:36:21Z</time>
      </trkpt>
      <trkpt lat="50.01921" lon="2.33243">
        <ele>130.6</ele>
        <time>2023-12-20T13:36:22Z</time>
      </trkpt>
      <trkpt lat="50.0192" lon="2.33244">
        <ele>130.6</ele>
        <time>2023-12-20T13:36:23Z</time>
      </trkpt>
      <trkpt lat="50.01919" lon="2.33245">
        <ele>130.6</ele>
        <time>2023-12-20T13:36:24Z</time>
      </trkpt>
      <trkpt lat="50.01918" lon="2.33246">
        <ele>130.6</ele>
        <time>2023-12-20T13:36:25Z</time>
      </trkpt>
      <trkpt lat="50.01917" lon="2.33248">
        <ele>130.6</ele>
        <time>2023-12-20T13:36:27Z</time>
      </trkpt>
      <trkpt lat="50.01917" lon="2.33249">
        <ele>130.6</ele>
        <time>2023-12-20T13:36:28Z</time>
      </trkpt>
      <trkpt lat="50.01916" lon="2.3325">
        <ele>130.6</ele>
        <time>2023-12-20T13:36:29Z</time>
      </trkpt>
      <trkpt lat="50.01914" lon="2.33251">
        <ele>130.6</ele>
        <time>2023-12-20T13:36:30Z</time>
      </trkpt>
      <trkpt lat="50.01913" lon="2.33251">
        <ele>130.6</ele>
        <time>2023-12-20T13:36:32Z</time>
      </trkpt>
      <trkpt lat="50.01912" lon="2.33251">
        <ele>130.6</ele>
        <time>2023-12-20T13:36:33Z</time>
      </trkpt>
      <trkpt lat="50.01911" lon="2.33252">
        <ele>130.6</ele>
        <time>2023-12-20T13:36:34Z</time>
      </trkpt>
      <trkpt lat="50.01911" lon="2.33252">
        <ele>130.6</ele>
        <time>2023-12-20T13:36:35Z</time>
      </trkpt>
      <trkpt lat="50.0191" lon="2.33253">
        <ele>130.6</ele>
        <time>2023-12-20T13:36:36Z</time>
      </trkpt>
      <trkpt lat="50.01909" lon="2.33255">
        <ele>130.6</ele>
        <time>2023-12-20T13:36:37Z</time>
      </trkpt>
      <trkpt lat="50.01907" lon="2.33257">
        <ele>130.6</ele>
        <time>2023-12-20T13:36:38Z</time>
      </trkpt>
      <trkpt lat="50.01907" lon="2.33258">
        <ele>130.6</ele>
        <time>2023-12-20T13:36:39Z</time>
      </trkpt>
      <trkpt lat="50.01906" lon="2.3326">
        <ele>130.6</ele>
        <time>2023-12-20T13:36:41Z</time>
      </trkpt>
      <trkpt lat="50.01905" lon="2.33261">
        <ele>130.6</ele>
        <time>2023-12-20T13:36:42Z</time>
      </trkpt>
      <trkpt lat="50.01905" lon="2.33262">
        <ele>130.5</ele>
        <time>2023-12-20T13:36:43Z</time>
      </trkpt>
      <trkpt lat="50.01904" lon="2.33263">
        <ele>130.5</ele>
        <time>2023-12-20T13:36:44Z</time>
      </trkpt>
      <trkpt lat="50.01903" lon="2.33265">
        <ele>130.5</ele>
        <time>2023-12-20T13:36:45Z</time>
      </trkpt>
      <trkpt lat="50.01902" lon="2.33267">
        <ele>130.5</ele>
        <time>2023-12-20T13:36:46Z</time>
      </trkpt>
      <trkpt lat="50.01901" lon="2.33268">
        <ele>130.5</ele>
        <time>2023-12-20T13:36:47Z</time>
      </trkpt>
      <trkpt lat="50.01901" lon="2.33269">
        <ele>130.5</ele>
        <time>2023-12-20T13:36:49Z</time>
      </trkpt>
      <trkpt lat="50.019" lon="2.33271">
        <ele>130.5</ele>
        <time>2023-12-20T13:36:50Z</time>
      </trkpt>
      <trkpt lat="50.01899" lon="2.33272">
        <ele>130.5</ele>
        <time>2023-12-20T13:36:51Z</time>
      </trkpt>
      <trkpt lat="50.01899" lon="2.33273">
        <ele>130.5</ele>
        <time>2023-12-20T13:36:52Z</time>
      </trkpt>
      <trkpt lat="50.01898" lon="2.33275">
        <ele>130.5</ele>
        <time>2023-12-20T13:36:53Z</time>
      </trkpt>
      <trkpt lat="50.01897" lon="2.33276">
        <ele>130.5</ele>
        <time>2023-12-20T13:36:54Z</time>
      </trkpt>
      <trkpt lat="50.01896" lon="2.33277">
        <ele>130.5</ele>
        <time>2023-12-20T13:36:55Z</time>
      </trkpt>
      <trkpt lat="50.01896" lon="2.33279">
        <ele>130.5</ele>
        <time>2023-12-20T13:36:57Z</time>
      </trkpt>
      <trkpt lat="50.01895" lon="2.33281">
        <ele>130.5</ele>
        <time>2023-12-20T13:36:58Z</time>
      </trkpt>
      <trkpt lat="50.01894" lon="2.33283">
        <ele>130.5</ele>
        <time>2023-12-20T13:36:59Z</time>
      </trkpt>
      <trkpt lat="50.01894" lon="2.33284">
        <ele>130.5</ele>
        <time>2023-12-20T13:37:00Z</time>
      </trkpt>
      <trkpt lat="50.01894" lon="2.33286">
        <ele>130.5</ele>
        <time>2023-12-20T13:37:01Z</time>
      </trkpt>
      <trkpt lat="50.01893" lon="2.33287">
        <ele>130.5</ele>
        <time>2023-12-20T13:37:02Z</time>
      </trkpt>
      <trkpt lat="50.01893" lon="2.33288">
        <ele>130.5</ele>
        <time>2023-12-20T13:37:04Z</time>
      </trkpt>
      <trkpt lat="50.01892" lon="2.3329">
        <ele>130.5</ele>
        <time>2023-12-20T13:37:05Z</time>
      </trkpt>
      <trkpt lat="50.01892" lon="2.33292">
        <ele>130.5</ele>
        <time>2023-12-20T13:37:06Z</time>
      </trkpt>
      <trkpt lat="50.01892" lon="2.33293">
        <ele>130.5</ele>
        <time>2023-12-20T13:37:07Z</time>
      </trkpt>
      <trkpt lat="50.01892" lon="2.33294">
        <ele>130.5</ele>
        <time>2023-12-20T13:37:08Z</time>
      </trkpt>
      <trkpt lat="50.01893" lon="2.33296">
        <ele>130.5</ele>
        <time>2023-12-20T13:37:10Z</time>
      </trkpt>
      <trkpt lat="50.01893" lon="2.33298">
        <ele>130.5</ele>
        <time>2023-12-20T13:37:12Z</time>
      </trkpt>
      <trkpt lat="50.01894" lon="2.33299">
        <ele>130.4</ele>
        <time>2023-12-20T13:37:13Z</time>
      </trkpt>
      <trkpt lat="50.01894" lon="2.333">
        <ele>130.4</ele>
        <time>2023-12-20T13:37:14Z</time>
      </trkpt>
      <trkpt lat="50.01894" lon="2.33301">
        <ele>130.4</ele>
        <time>2023-12-20T13:37:15Z</time>
      </trkpt>
      <trkpt lat="50.01895" lon="2.33301">
        <ele>130.4</ele>
        <time>2023-12-20T13:37:16Z</time>
      </trkpt>
      <trkpt lat="50.01896" lon="2.33301">
        <ele>130.4</ele>
        <time>2023-12-20T13:37:17Z</time>
      </trkpt>
      <trkpt lat="50.01896" lon="2.33302">
        <ele>130.4</ele>
        <time>2023-12-20T13:37:20Z</time>
      </trkpt>
      <trkpt lat="50.01896" lon="2.33302">
        <ele>130.4</ele>
        <time>2023-12-20T13:37:21Z</time>
      </trkpt>
      <trkpt lat="50.01896" lon="2.33302">
        <ele>130.4</ele>
        <time>2023-12-20T13:37:23Z</time>
      </trkpt>
      <trkpt lat="50.01896" lon="2.33302">
        <ele>130.4</ele>
        <time>2023-12-20T13:37:24Z</time>
      </trkpt>
      <trkpt lat="50.01896" lon="2.33301">
        <ele>130.4</ele>
        <time>2023-12-20T13:37:25Z</time>
      </trkpt>
      <trkpt lat="50.01896" lon="2.33301">
        <ele>130.4</ele>
        <time>2023-12-20T13:37:27Z</time>
      </trkpt>
      <trkpt lat="50.01896" lon="2.33301">
        <ele>130.4</ele>
        <time>2023-12-20T13:37:28Z</time>
      </trkpt>
      <trkpt lat="50.01897" lon="2.33301">
        <ele>130.4</ele>
        <time>2023-12-20T13:37:29Z</time>
      </trkpt>
      <trkpt lat="50.01897" lon="2.33302">
        <ele>130.4</ele>
        <time>2023-12-20T13:37:31Z</time>
      </trkpt>
      <trkpt lat="50.01897" lon="2.33303">
        <ele>130.4</ele>
        <time>2023-12-20T13:37:32Z</time>
      </trkpt>
      <trkpt lat="50.01896" lon="2.33303">
        <ele>130.4</ele>
        <time>2023-12-20T13:37:34Z</time>
      </trkpt>
      <trkpt lat="50.01896" lon="2.33305">
        <ele>130.4</ele>
        <time>2023-12-20T13:37:35Z</time>
      </trkpt>
      <trkpt lat="50.01896" lon="2.33307">
        <ele>130.4</ele>
        <time>2023-12-20T13:37:36Z</time>
      </trkpt>
      <trkpt lat="50.01896" lon="2.3331">
        <ele>130.4</ele>
        <time>2023-12-20T13:37:38Z</time>
      </trkpt>
      <trkpt lat="50.01896" lon="2.33311">
        <ele>130.4</ele>
        <time>2023-12-20T13:37:39Z</time>
      </trkpt>
      <trkpt lat="50.01897" lon="2.33313">
        <ele>130.4</ele>
        <time>2023-12-20T13:37:40Z</time>
      </trkpt>
      <trkpt lat="50.01897" lon="2.33315">
        <ele>130.4</ele>
        <time>2023-12-20T13:37:42Z</time>
      </trkpt>
      <trkpt lat="50.01897" lon="2.33319">
        <ele>130.4</ele>
        <time>2023-12-20T13:37:43Z</time>
      </trkpt>
      <trkpt lat="50.01897" lon="2.3332">
        <ele>130.4</ele>
        <time>2023-12-20T13:37:44Z</time>
      </trkpt>
      <trkpt lat="50.01898" lon="2.33321">
        <ele>130.4</ele>
        <time>2023-12-20T13:37:45Z</time>
      </trkpt>
      <trkpt lat="50.01898" lon="2.33322">
        <ele>130.4</ele>
        <time>2023-12-20T13:37:47Z</time>
      </trkpt>
      <trkpt lat="50.01898" lon="2.33324">
        <ele>130.4</ele>
        <time>2023-12-20T13:37:48Z</time>
      </trkpt>
      <trkpt lat="50.01899" lon="2.33326">
        <ele>130.4</ele>
        <time>2023-12-20T13:37:49Z</time>
      </trkpt>
      <trkpt lat="50.01899" lon="2.33328">
        <ele>130.4</ele>
        <time>2023-12-20T13:37:50Z</time>
      </trkpt>
      <trkpt lat="50.01899" lon="2.33329">
        <ele>130.4</ele>
        <time>2023-12-20T13:37:51Z</time>
      </trkpt>
      <trkpt lat="50.01899" lon="2.33331">
        <ele>130.4</ele>
        <time>2023-12-20T13:37:52Z</time>
      </trkpt>
      <trkpt lat="50.01899" lon="2.33332">
        <ele>130.4</ele>
        <time>2023-12-20T13:37:54Z</time>
      </trkpt>
      <trkpt lat="50.01899" lon="2.33334">
        <ele>130.4</ele>
        <time>2023-12-20T13:37:55Z</time>
      </trkpt>
      <trkpt lat="50.01899" lon="2.33336">
        <ele>130.4</ele>
        <time>2023-12-20T13:37:56Z</time>
      </trkpt>
      <trkpt lat="50.01899" lon="2.33338">
        <ele>130.4</ele>
        <time>2023-12-20T13:37:57Z</time>
      </trkpt>
      <trkpt lat="50.01899" lon="2.3334">
        <ele>130.4</ele>
        <time>2023-12-20T13:37:58Z</time>
      </trkpt>
      <trkpt lat="50.01899" lon="2.33341">
        <ele>130.4</ele>
        <time>2023-12-20T13:38:00Z</time>
      </trkpt>
      <trkpt lat="50.01899" lon="2.33342">
        <ele>130.4</ele>
        <time>2023-12-20T13:38:01Z</time>
      </trkpt>
      <trkpt lat="50.01899" lon="2.33344">
        <ele>130.4</ele>
        <time>2023-12-20T13:38:02Z</time>
      </trkpt>
      <trkpt lat="50.01899" lon="2.33346">
        <ele>130.4</ele>
        <time>2023-12-20T13:38:03Z</time>
      </trkpt>
      <trkpt lat="50.01899" lon="2.33348">
        <ele>130.4</ele>
        <time>2023-12-20T13:38:04Z</time>
      </trkpt>
      <trkpt lat="50.019" lon="2.33349">
        <ele>130.4</ele>
        <time>2023-12-20T13:38:05Z</time>
      </trkpt>
      <trkpt lat="50.019" lon="2.33351">
        <ele>130.4</ele>
        <time>2023-12-20T13:38:06Z</time>
      </trkpt>
      <trkpt lat="50.019" lon="2.33353">
        <ele>130.4</ele>
        <time>2023-12-20T13:38:07Z</time>
      </trkpt>
      <trkpt lat="50.019" lon="2.33354">
        <ele>130.4</ele>
        <time>2023-12-20T13:38:09Z</time>
      </trkpt>
      <trkpt lat="50.019" lon="2.33356">
        <ele>130.4</ele>
        <time>2023-12-20T13:38:10Z</time>
      </trkpt>
      <trkpt lat="50.019" lon="2.3336">
        <ele>130.3</ele>
        <time>2023-12-20T13:38:11Z</time>
      </trkpt>
      <trkpt lat="50.01901" lon="2.33361">
        <ele>130.3</ele>
        <time>2023-12-20T13:38:12Z</time>
      </trkpt>
      <trkpt lat="50.01901" lon="2.33362">
        <ele>130.3</ele>
        <time>2023-12-20T13:38:13Z</time>
      </trkpt>
      <trkpt lat="50.01901" lon="2.33363">
        <ele>130.3</ele>
        <time>2023-12-20T13:38:14Z</time>
      </trkpt>
      <trkpt lat="50.01901" lon="2.33365">
        <ele>130.3</ele>
        <time>2023-12-20T13:38:15Z</time>
      </trkpt>
      <trkpt lat="50.01901" lon="2.33366">
        <ele>130.3</ele>
        <time>2023-12-20T13:38:17Z</time>
      </trkpt>
      <trkpt lat="50.01901" lon="2.33367">
        <ele>130.3</ele>
        <time>2023-12-20T13:38:18Z</time>
      </trkpt>
      <trkpt lat="50.01901" lon="2.33369">
        <ele>130.3</ele>
        <time>2023-12-20T13:38:19Z</time>
      </trkpt>
      <trkpt lat="50.01902" lon="2.33373">
        <ele>130.3</ele>
        <time>2023-12-20T13:38:21Z</time>
      </trkpt>
      <trkpt lat="50.01902" lon="2.33374">
        <ele>130.3</ele>
        <time>2023-12-20T13:38:23Z</time>
      </trkpt>
      <trkpt lat="50.01901" lon="2.33376">
        <ele>130.3</ele>
        <time>2023-12-20T13:38:24Z</time>
      </trkpt>
      <trkpt lat="50.01901" lon="2.33376">
        <ele>130.3</ele>
        <time>2023-12-20T13:38:25Z</time>
      </trkpt>
      <trkpt lat="50.01901" lon="2.33376">
        <ele>130.3</ele>
        <time>2023-12-20T13:38:27Z</time>
      </trkpt>
      <trkpt lat="50.01901" lon="2.33376">
        <ele>130.3</ele>
        <time>2023-12-20T13:38:28Z</time>
      </trkpt>
      <trkpt lat="50.01901" lon="2.33376">
        <ele>130.3</ele>
        <time>2023-12-20T13:38:29Z</time>
      </trkpt>
      <trkpt lat="50.01901" lon="2.33376">
        <ele>130.3</ele>
        <time>2023-12-20T13:38:30Z</time>
      </trkpt>
      <trkpt lat="50.01901" lon="2.33376">
        <ele>130.3</ele>
        <time>2023-12-20T13:38:32Z</time>
      </trkpt>
      <trkpt lat="50.01901" lon="2.33376">
        <ele>130.3</ele>
        <time>2023-12-20T13:38:34Z</time>
      </trkpt>
      <trkpt lat="50.019" lon="2.33376">
        <ele>130.3</ele>
        <time>2023-12-20T13:38:36Z</time>
      </trkpt>
      <trkpt lat="50.019" lon="2.33376">
        <ele>130.3</ele>
        <time>2023-12-20T13:38:38Z</time>
      </trkpt>
      <trkpt lat="50.019" lon="2.33376">
        <ele>130.3</ele>
        <time>2023-12-20T13:38:40Z</time>
      </trkpt>
      <trkpt lat="50.019" lon="2.33375">
        <ele>130.3</ele>
        <time>2023-12-20T13:38:41Z</time>
      </trkpt>
      <trkpt lat="50.01903" lon="2.33379">
        <ele>130.3</ele>
        <time>2023-12-20T13:38:48Z</time>
      </trkpt>
      <trkpt lat="50.01903" lon="2.3338">
        <ele>130.3</ele>
        <time>2023-12-20T13:38:49Z</time>
      </trkpt>
      <trkpt lat="50.01904" lon="2.33381">
        <ele>130.3</ele>
        <time>2023-12-20T13:38:50Z</time>
      </trkpt>
      <trkpt lat="50.01904" lon="2.33384">
        <ele>130.3</ele>
        <time>2023-12-20T13:38:51Z</time>
      </trkpt>
      <trkpt lat="50.01904" lon="2.33386">
        <ele>130.3</ele>
        <time>2023-12-20T13:38:52Z</time>
      </trkpt>
      <trkpt lat="50.01904" lon="2.33388">
        <ele>130.3</ele>
        <time>2023-12-20T13:38:53Z</time>
      </trkpt>
      <trkpt lat="50.01904" lon="2.3339">
        <ele>130.3</ele>
        <time>2023-12-20T13:38:55Z</time>
      </trkpt>
      <trkpt lat="50.01905" lon="2.33392">
        <ele>130.3</ele>
        <time>2023-12-20T13:38:56Z</time>
      </trkpt>
      <trkpt lat="50.01905" lon="2.33393">
        <ele>130.3</ele>
        <time>2023-12-20T13:38:57Z</time>
      </trkpt>
      <trkpt lat="50.01905" lon="2.33395">
        <ele>130.3</ele>
        <time>2023-12-20T13:38:58Z</time>
      </trkpt>
      <trkpt lat="50.01905" lon="2.33397">
        <ele>130.3</ele>
        <time>2023-12-20T13:39:00Z</time>
      </trkpt>
      <trkpt lat="50.01905" lon="2.33399">
        <ele>130.3</ele>
        <time>2023-12-20T13:39:02Z</time>
      </trkpt>
      <trkpt lat="50.01905" lon="2.33401">
        <ele>130.3</ele>
        <time>2023-12-20T13:39:03Z</time>
      </trkpt>
      <trkpt lat="50.01905" lon="2.33403">
        <ele>130.3</ele>
        <time>2023-12-20T13:39:04Z</time>
      </trkpt>
      <trkpt lat="50.01905" lon="2.33406">
        <ele>130.3</ele>
        <time>2023-12-20T13:39:05Z</time>
      </trkpt>
      <trkpt lat="50.01905" lon="2.33408">
        <ele>130.3</ele>
        <time>2023-12-20T13:39:06Z</time>
      </trkpt>
      <trkpt lat="50.01905" lon="2.3341">
        <ele>130.3</ele>
        <time>2023-12-20T13:39:08Z</time>
      </trkpt>
      <trkpt lat="50.01905" lon="2.33413">
        <ele>130.3</ele>
        <time>2023-12-20T13:39:09Z</time>
      </trkpt>
      <trkpt lat="50.01906" lon="2.33415">
        <ele>130.3</ele>
        <time>2023-12-20T13:39:10Z</time>
      </trkpt>
      <trkpt lat="50.01906" lon="2.33418">
        <ele>130.3</ele>
        <time>2023-12-20T13:39:11Z</time>
      </trkpt>
      <trkpt lat="50.01906" lon="2.3342">
        <ele>130.2</ele>
        <time>2023-12-20T13:39:12Z</time>
      </trkpt>
      <trkpt lat="50.01906" lon="2.33422">
        <ele>130.2</ele>
        <time>2023-12-20T13:39:13Z</time>
      </trkpt>
      <trkpt lat="50.01906" lon="2.33425">
        <ele>130.2</ele>
        <time>2023-12-20T13:39:14Z</time>
      </trkpt>
      <trkpt lat="50.01906" lon="2.33427">
        <ele>130.2</ele>
        <time>2023-12-20T13:39:16Z</time>
      </trkpt>
      <trkpt lat="50.01907" lon="2.33428">
        <ele>130.2</ele>
        <time>2023-12-20T13:39:17Z</time>
      </trkpt>
      <trkpt lat="50.01907" lon="2.33432">
        <ele>130.2</ele>
        <time>2023-12-20T13:39:18Z</time>
      </trkpt>
      <trkpt lat="50.01907" lon="2.33433">
        <ele>130.2</ele>
        <time>2023-12-20T13:39:19Z</time>
      </trkpt>
      <trkpt lat="50.01907" lon="2.33434">
        <ele>130.2</ele>
        <time>2023-12-20T13:39:20Z</time>
      </trkpt>
      <trkpt lat="50.01907" lon="2.33437">
        <ele>130.2</ele>
        <time>2023-12-20T13:39:21Z</time>
      </trkpt>
      <trkpt lat="50.01907" lon="2.33439">
        <ele>130.2</ele>
        <time>2023-12-20T13:39:23Z</time>
      </trkpt>
      <trkpt lat="50.01908" lon="2.3344">
        <ele>130.2</ele>
        <time>2023-12-20T13:39:24Z</time>
      </trkpt>
      <trkpt lat="50.01908" lon="2.33443">
        <ele>130.2</ele>
        <time>2023-12-20T13:39:25Z</time>
      </trkpt>
      <trkpt lat="50.01908" lon="2.33444">
        <ele>130.2</ele>
        <time>2023-12-20T13:39:26Z</time>
      </trkpt>
      <trkpt lat="50.01908" lon="2.33446">
        <ele>130.2</ele>
        <time>2023-12-20T13:39:27Z</time>
      </trkpt>
      <trkpt lat="50.01909" lon="2.3345">
        <ele>130.2</ele>
        <time>2023-12-20T13:39:29Z</time>
      </trkpt>
      <trkpt lat="50.01909" lon="2.33451">
        <ele>130.2</ele>
        <time>2023-12-20T13:39:31Z</time>
      </trkpt>
      <trkpt lat="50.01909" lon="2.33453">
        <ele>130.2</ele>
        <time>2023-12-20T13:39:32Z</time>
      </trkpt>
      <trkpt lat="50.01909" lon="2.33454">
        <ele>130.2</ele>
        <time>2023-12-20T13:39:33Z</time>
      </trkpt>
      <trkpt lat="50.0191" lon="2.33456">
        <ele>130.2</ele>
        <time>2023-12-20T13:39:34Z</time>
      </trkpt>
      <trkpt lat="50.0191" lon="2.33458">
        <ele>130.2</ele>
        <time>2023-12-20T13:39:35Z</time>
      </trkpt>
      <trkpt lat="50.0191" lon="2.33459">
        <ele>130.2</ele>
        <time>2023-12-20T13:39:36Z</time>
      </trkpt>
      <trkpt lat="50.0191" lon="2.33462">
        <ele>130.2</ele>
        <time>2023-12-20T13:39:38Z</time>
      </trkpt>
      <trkpt lat="50.01911" lon="2.33464">
        <ele>130.2</ele>
        <time>2023-12-20T13:39:39Z</time>
      </trkpt>
      <trkpt lat="50.01911" lon="2.33466">
        <ele>130.2</ele>
        <time>2023-12-20T13:39:40Z</time>
      </trkpt>
      <trkpt lat="50.01911" lon="2.33468">
        <ele>130.2</ele>
        <time>2023-12-20T13:39:41Z</time>
      </trkpt>
      <trkpt lat="50.01911" lon="2.3347">
        <ele>130.2</ele>
        <time>2023-12-20T13:39:43Z</time>
      </trkpt>
      <trkpt lat="50.01911" lon="2.33471">
        <ele>130.2</ele>
        <time>2023-12-20T13:39:44Z</time>
      </trkpt>
      <trkpt lat="50.01912" lon="2.33475">
        <ele>130.2</ele>
        <time>2023-12-20T13:39:45Z</time>
      </trkpt>
      <trkpt lat="50.01912" lon="2.33476">
        <ele>130.2</ele>
        <time>2023-12-20T13:39:46Z</time>
      </trkpt>
      <trkpt lat="50.01912" lon="2.33477">
        <ele>130.2</ele>
        <time>2023-12-20T13:39:47Z</time>
      </trkpt>
      <trkpt lat="50.01912" lon="2.33479">
        <ele>130.2</ele>
        <time>2023-12-20T13:39:48Z</time>
      </trkpt>
      <trkpt lat="50.01912" lon="2.33481">
        <ele>130.2</ele>
        <time>2023-12-20T13:39:49Z</time>
      </trkpt>
      <trkpt lat="50.01912" lon="2.33483">
        <ele>130.1</ele>
        <time>2023-12-20T13:39:51Z</time>
      </trkpt>
      <trkpt lat="50.01912" lon="2.33486">
        <ele>130.1</ele>
        <time>2023-12-20T13:39:52Z</time>
      </trkpt>
      <trkpt lat="50.01912" lon="2.33488">
        <ele>130.1</ele>
        <time>2023-12-20T13:39:53Z</time>
      </trkpt>
      <trkpt lat="50.01912" lon="2.33489">
        <ele>130.1</ele>
        <time>2023-12-20T13:39:54Z</time>
      </trkpt>
      <trkpt lat="50.01912" lon="2.33493">
        <ele>130.1</ele>
        <time>2023-12-20T13:39:55Z</time>
      </trkpt>
      <trkpt lat="50.01912" lon="2.33494">
        <ele>130.1</ele>
        <time>2023-12-20T13:39:56Z</time>
      </trkpt>
      <trkpt lat="50.01912" lon="2.33496">
        <ele>130.1</ele>
        <time>2023-12-20T13:39:58Z</time>
      </trkpt>
      <trkpt lat="50.01912" lon="2.33497">
        <ele>130.1</ele>
        <time>2023-12-20T13:39:59Z</time>
      </trkpt>
      <trkpt lat="50.01913" lon="2.33499">
        <ele>130.1</ele>
        <time>2023-12-20T13:40:00Z</time>
      </trkpt>
      <trkpt lat="50.01913" lon="2.335">
        <ele>130.1</ele>
        <time>2023-12-20T13:40:01Z</time>
      </trkpt>
      <trkpt lat="50.01913" lon="2.33503">
        <ele>130.1</ele>
        <time>2023-12-20T13:40:02Z</time>
      </trkpt>
      <trkpt lat="50.01913" lon="2.33504">
        <ele>130.1</ele>
        <time>2023-12-20T13:40:03Z</time>
      </trkpt>
      <trkpt lat="50.01913" lon="2.33506">
        <ele>130.1</ele>
        <time>2023-12-20T13:40:05Z</time>
      </trkpt>
      <trkpt lat="50.01913" lon="2.33509">
        <ele>130.1</ele>
        <time>2023-12-20T13:40:06Z</time>
      </trkpt>
      <trkpt lat="50.01913" lon="2.33511">
        <ele>130.1</ele>
        <time>2023-12-20T13:40:07Z</time>
      </trkpt>
      <trkpt lat="50.01913" lon="2.33512">
        <ele>130.1</ele>
        <time>2023-12-20T13:40:08Z</time>
      </trkpt>
      <trkpt lat="50.01914" lon="2.33515">
        <ele>130.1</ele>
        <time>2023-12-20T13:40:09Z</time>
      </trkpt>
      <trkpt lat="50.01914" lon="2.33517">
        <ele>130.1</ele>
        <time>2023-12-20T13:40:10Z</time>
      </trkpt>
      <trkpt lat="50.01914" lon="2.33518">
        <ele>130.1</ele>
        <time>2023-12-20T13:40:12Z</time>
      </trkpt>
      <trkpt lat="50.01914" lon="2.3352">
        <ele>130.1</ele>
        <time>2023-12-20T13:40:13Z</time>
      </trkpt>
      <trkpt lat="50.01914" lon="2.33521">
        <ele>130.1</ele>
        <time>2023-12-20T13:40:14Z</time>
      </trkpt>
      <trkpt lat="50.01914" lon="2.33523">
        <ele>130.1</ele>
        <time>2023-12-20T13:40:15Z</time>
      </trkpt>
      <trkpt lat="50.01915" lon="2.33527">
        <ele>130.1</ele>
        <time>2023-12-20T13:40:16Z</time>
      </trkpt>
      <trkpt lat="50.01915" lon="2.33528">
        <ele>130.1</ele>
        <time>2023-12-20T13:40:18Z</time>
      </trkpt>
      <trkpt lat="50.01915" lon="2.3353">
        <ele>130.1</ele>
        <time>2023-12-20T13:40:20Z</time>
      </trkpt>
      <trkpt lat="50.01915" lon="2.33532">
        <ele>130.1</ele>
        <time>2023-12-20T13:40:21Z</time>
      </trkpt>
      <trkpt lat="50.01916" lon="2.33534">
        <ele>130.1</ele>
        <time>2023-12-20T13:40:22Z</time>
      </trkpt>
      <trkpt lat="50.01916" lon="2.33537">
        <ele>130.1</ele>
        <time>2023-12-20T13:40:23Z</time>
      </trkpt>
      <trkpt lat="50.01916" lon="2.33539">
        <ele>130.1</ele>
        <time>2023-12-20T13:40:25Z</time>
      </trkpt>
      <trkpt lat="50.01916" lon="2.33541">
        <ele>130.1</ele>
        <time>2023-12-20T13:40:26Z</time>
      </trkpt>
      <trkpt lat="50.01916" lon="2.33543">
        <ele>130.1</ele>
        <time>2023-12-20T13:40:28Z</time>
      </trkpt>
      <trkpt lat="50.01917" lon="2.33545">
        <ele>130.1</ele>
        <time>2023-12-20T13:40:29Z</time>
      </trkpt>
      <trkpt lat="50.01917" lon="2.33546">
        <ele>130.1</ele>
        <time>2023-12-20T13:40:30Z</time>
      </trkpt>
      <trkpt lat="50.01917" lon="2.33548">
        <ele>130</ele>
        <time>2023-12-20T13:40:31Z</time>
      </trkpt>
      <trkpt lat="50.01917" lon="2.3355">
        <ele>130</ele>
        <time>2023-12-20T13:40:32Z</time>
      </trkpt>
      <trkpt lat="50.01917" lon="2.33552">
        <ele>130</ele>
        <time>2023-12-20T13:40:33Z</time>
      </trkpt>
      <trkpt lat="50.01917" lon="2.33553">
        <ele>130</ele>
        <time>2023-12-20T13:40:35Z</time>
      </trkpt>
      <trkpt lat="50.01917" lon="2.33555">
        <ele>130</ele>
        <time>2023-12-20T13:40:36Z</time>
      </trkpt>
      <trkpt lat="50.01917" lon="2.33556">
        <ele>130</ele>
        <time>2023-12-20T13:40:37Z</time>
      </trkpt>
      <trkpt lat="50.01917" lon="2.33558">
        <ele>130</ele>
        <time>2023-12-20T13:40:38Z</time>
      </trkpt>
      <trkpt lat="50.01917" lon="2.3356">
        <ele>130</ele>
        <time>2023-12-20T13:40:39Z</time>
      </trkpt>
      <trkpt lat="50.01918" lon="2.33562">
        <ele>130</ele>
        <time>2023-12-20T13:40:40Z</time>
      </trkpt>
      <trkpt lat="50.01918" lon="2.33564">
        <ele>130</ele>
        <time>2023-12-20T13:40:41Z</time>
      </trkpt>
      <trkpt lat="50.01918" lon="2.33567">
        <ele>130</ele>
        <time>2023-12-20T13:40:43Z</time>
      </trkpt>
      <trkpt lat="50.01918" lon="2.33569">
        <ele>130</ele>
        <time>2023-12-20T13:40:44Z</time>
      </trkpt>
      <trkpt lat="50.01918" lon="2.33571">
        <ele>130</ele>
        <time>2023-12-20T13:40:46Z</time>
      </trkpt>
      <trkpt lat="50.01919" lon="2.33572">
        <ele>130</ele>
        <time>2023-12-20T13:40:47Z</time>
      </trkpt>
      <trkpt lat="50.01919" lon="2.33574">
        <ele>130</ele>
        <time>2023-12-20T13:40:48Z</time>
      </trkpt>
      <trkpt lat="50.01919" lon="2.33576">
        <ele>130</ele>
        <time>2023-12-20T13:40:49Z</time>
      </trkpt>
      <trkpt lat="50.01919" lon="2.33579">
        <ele>130</ele>
        <time>2023-12-20T13:40:50Z</time>
      </trkpt>
      <trkpt lat="50.01919" lon="2.3358">
        <ele>130</ele>
        <time>2023-12-20T13:40:51Z</time>
      </trkpt>
      <trkpt lat="50.01919" lon="2.33582">
        <ele>130</ele>
        <time>2023-12-20T13:40:52Z</time>
      </trkpt>
      <trkpt lat="50.0192" lon="2.33585">
        <ele>130</ele>
        <time>2023-12-20T13:40:54Z</time>
      </trkpt>
      <trkpt lat="50.0192" lon="2.33586">
        <ele>130</ele>
        <time>2023-12-20T13:40:55Z</time>
      </trkpt>
      <trkpt lat="50.0192" lon="2.33587">
        <ele>130</ele>
        <time>2023-12-20T13:40:56Z</time>
      </trkpt>
      <trkpt lat="50.0192" lon="2.33589">
        <ele>130</ele>
        <time>2023-12-20T13:40:57Z</time>
      </trkpt>
      <trkpt lat="50.01921" lon="2.33591">
        <ele>130</ele>
        <time>2023-12-20T13:40:58Z</time>
      </trkpt>
      <trkpt lat="50.01921" lon="2.33592">
        <ele>130</ele>
        <time>2023-12-20T13:40:59Z</time>
      </trkpt>
      <trkpt lat="50.01921" lon="2.33594">
        <ele>130</ele>
        <time>2023-12-20T13:41:00Z</time>
      </trkpt>
      <trkpt lat="50.01921" lon="2.33596">
        <ele>130</ele>
        <time>2023-12-20T13:41:02Z</time>
      </trkpt>
      <trkpt lat="50.01922" lon="2.33598">
        <ele>130</ele>
        <time>2023-12-20T13:41:03Z</time>
      </trkpt>
      <trkpt lat="50.01922" lon="2.33599">
        <ele>130</ele>
        <time>2023-12-20T13:41:04Z</time>
      </trkpt>
      <trkpt lat="50.01922" lon="2.33601">
        <ele>130</ele>
        <time>2023-12-20T13:41:05Z</time>
      </trkpt>
      <trkpt lat="50.01922" lon="2.33603">
        <ele>130</ele>
        <time>2023-12-20T13:41:07Z</time>
      </trkpt>
      <trkpt lat="50.01923" lon="2.33605">
        <ele>130</ele>
        <time>2023-12-20T13:41:08Z</time>
      </trkpt>
      <trkpt lat="50.01923" lon="2.33607">
        <ele>130</ele>
        <time>2023-12-20T13:41:09Z</time>
      </trkpt>
      <trkpt lat="50.01923" lon="2.33608">
        <ele>130</ele>
        <time>2023-12-20T13:41:10Z</time>
      </trkpt>
      <trkpt lat="50.01923" lon="2.33611">
        <ele>130</ele>
        <time>2023-12-20T13:41:11Z</time>
      </trkpt>
      <trkpt lat="50.01924" lon="2.33612">
        <ele>129.9</ele>
        <time>2023-12-20T13:41:12Z</time>
      </trkpt>
      <trkpt lat="50.01924" lon="2.33613">
        <ele>129.9</ele>
        <time>2023-12-20T13:41:13Z</time>
      </trkpt>
      <trkpt lat="50.01924" lon="2.33615">
        <ele>129.9</ele>
        <time>2023-12-20T13:41:14Z</time>
      </trkpt>
      <trkpt lat="50.01924" lon="2.33617">
        <ele>129.9</ele>
        <time>2023-12-20T13:41:15Z</time>
      </trkpt>
      <trkpt lat="50.01924" lon="2.33618">
        <ele>129.9</ele>
        <time>2023-12-20T13:41:17Z</time>
      </trkpt>
      <trkpt lat="50.01924" lon="2.3362">
        <ele>129.9</ele>
        <time>2023-12-20T13:41:18Z</time>
      </trkpt>
      <trkpt lat="50.01924" lon="2.33623">
        <ele>129.9</ele>
        <time>2023-12-20T13:41:19Z</time>
      </trkpt>
      <trkpt lat="50.01924" lon="2.33626">
        <ele>129.9</ele>
        <time>2023-12-20T13:41:20Z</time>
      </trkpt>
      <trkpt lat="50.01924" lon="2.33628">
        <ele>129.9</ele>
        <time>2023-12-20T13:41:21Z</time>
      </trkpt>
      <trkpt lat="50.01924" lon="2.3363">
        <ele>129.9</ele>
        <time>2023-12-20T13:41:23Z</time>
      </trkpt>
      <trkpt lat="50.01924" lon="2.33632">
        <ele>129.9</ele>
        <time>2023-12-20T13:41:25Z</time>
      </trkpt>
      <trkpt lat="50.01924" lon="2.33634">
        <ele>129.9</ele>
        <time>2023-12-20T13:41:26Z</time>
      </trkpt>
      <trkpt lat="50.01924" lon="2.33636">
        <ele>129.9</ele>
        <time>2023-12-20T13:41:27Z</time>
      </trkpt>
      <trkpt lat="50.01924" lon="2.33638">
        <ele>129.9</ele>
        <time>2023-12-20T13:41:28Z</time>
      </trkpt>
      <trkpt lat="50.01924" lon="2.33641">
        <ele>129.9</ele>
        <time>2023-12-20T13:41:30Z</time>
      </trkpt>
      <trkpt lat="50.01924" lon="2.33642">
        <ele>129.9</ele>
        <time>2023-12-20T13:41:31Z</time>
      </trkpt>
      <trkpt lat="50.01924" lon="2.33644">
        <ele>129.9</ele>
        <time>2023-12-20T13:41:32Z</time>
      </trkpt>
      <trkpt lat="50.01924" lon="2.33647">
        <ele>129.9</ele>
        <time>2023-12-20T13:41:34Z</time>
      </trkpt>
      <trkpt lat="50.01924" lon="2.33649">
        <ele>129.9</ele>
        <time>2023-12-20T13:41:35Z</time>
      </trkpt>
      <trkpt lat="50.01924" lon="2.33651">
        <ele>129.9</ele>
        <time>2023-12-20T13:41:37Z</time>
      </trkpt>
      <trkpt lat="50.01924" lon="2.33653">
        <ele>129.9</ele>
        <time>2023-12-20T13:41:38Z</time>
      </trkpt>
      <trkpt lat="50.01925" lon="2.33657">
        <ele>129.9</ele>
        <time>2023-12-20T13:41:39Z</time>
      </trkpt>
      <trkpt lat="50.01925" lon="2.33658">
        <ele>129.9</ele>
        <time>2023-12-20T13:41:41Z</time>
      </trkpt>
      <trkpt lat="50.01925" lon="2.33659">
        <ele>129.9</ele>
        <time>2023-12-20T13:41:42Z</time>
      </trkpt>
      <trkpt lat="50.01925" lon="2.33662">
        <ele>129.9</ele>
        <time>2023-12-20T13:41:43Z</time>
      </trkpt>
      <trkpt lat="50.01925" lon="2.33664">
        <ele>129.9</ele>
        <time>2023-12-20T13:41:44Z</time>
      </trkpt>
      <trkpt lat="50.01926" lon="2.33665">
        <ele>129.9</ele>
        <time>2023-12-20T13:41:45Z</time>
      </trkpt>
      <trkpt lat="50.01926" lon="2.33667">
        <ele>129.9</ele>
        <time>2023-12-20T13:41:46Z</time>
      </trkpt>
      <trkpt lat="50.01927" lon="2.33669">
        <ele>129.9</ele>
        <time>2023-12-20T13:41:47Z</time>
      </trkpt>
      <trkpt lat="50.01927" lon="2.3367">
        <ele>129.9</ele>
        <time>2023-12-20T13:41:49Z</time>
      </trkpt>
      <trkpt lat="50.01927" lon="2.33672">
        <ele>129.9</ele>
        <time>2023-12-20T13:41:50Z</time>
      </trkpt>
      <trkpt lat="50.01927" lon="2.33674">
        <ele>129.9</ele>
        <time>2023-12-20T13:41:51Z</time>
      </trkpt>
      <trkpt lat="50.01927" lon="2.33675">
        <ele>129.9</ele>
        <time>2023-12-20T13:41:52Z</time>
      </trkpt>
      <trkpt lat="50.01927" lon="2.33677">
        <ele>129.8</ele>
        <time>2023-12-20T13:41:53Z</time>
      </trkpt>
      <trkpt lat="50.01928" lon="2.33678">
        <ele>129.8</ele>
        <time>2023-12-20T13:41:54Z</time>
      </trkpt>
      <trkpt lat="50.01928" lon="2.3368">
        <ele>129.8</ele>
        <time>2023-12-20T13:41:55Z</time>
      </trkpt>
      <trkpt lat="50.01928" lon="2.33681">
        <ele>129.8</ele>
        <time>2023-12-20T13:41:57Z</time>
      </trkpt>
      <trkpt lat="50.01928" lon="2.33683">
        <ele>129.8</ele>
        <time>2023-12-20T13:41:58Z</time>
      </trkpt>
      <trkpt lat="50.01928" lon="2.33684">
        <ele>129.8</ele>
        <time>2023-12-20T13:41:59Z</time>
      </trkpt>
      <trkpt lat="50.01929" lon="2.33686">
        <ele>129.8</ele>
        <time>2023-12-20T13:42:00Z</time>
      </trkpt>
      <trkpt lat="50.01929" lon="2.33688">
        <ele>129.8</ele>
        <time>2023-12-20T13:42:01Z</time>
      </trkpt>
      <trkpt lat="50.01929" lon="2.3369">
        <ele>129.8</ele>
        <time>2023-12-20T13:42:03Z</time>
      </trkpt>
      <trkpt lat="50.0193" lon="2.33691">
        <ele>129.8</ele>
        <time>2023-12-20T13:42:04Z</time>
      </trkpt>
      <trkpt lat="50.0193" lon="2.33693">
        <ele>129.8</ele>
        <time>2023-12-20T13:42:05Z</time>
      </trkpt>
      <trkpt lat="50.0193" lon="2.33695">
        <ele>129.8</ele>
        <time>2023-12-20T13:42:06Z</time>
      </trkpt>
      <trkpt lat="50.0193" lon="2.33697">
        <ele>129.8</ele>
        <time>2023-12-20T13:42:07Z</time>
      </trkpt>
      <trkpt lat="50.01931" lon="2.33699">
        <ele>129.8</ele>
        <time>2023-12-20T13:42:08Z</time>
      </trkpt>
      <trkpt lat="50.01931" lon="2.337">
        <ele>129.8</ele>
        <time>2023-12-20T13:42:10Z</time>
      </trkpt>
      <trkpt lat="50.01931" lon="2.33702">
        <ele>129.8</ele>
        <time>2023-12-20T13:42:11Z</time>
      </trkpt>
      <trkpt lat="50.01931" lon="2.33704">
        <ele>129.8</ele>
        <time>2023-12-20T13:42:12Z</time>
      </trkpt>
      <trkpt lat="50.01931" lon="2.33707">
        <ele>129.8</ele>
        <time>2023-12-20T13:42:13Z</time>
      </trkpt>
      <trkpt lat="50.01932" lon="2.33709">
        <ele>129.8</ele>
        <time>2023-12-20T13:42:14Z</time>
      </trkpt>
      <trkpt lat="50.01932" lon="2.3371">
        <ele>129.8</ele>
        <time>2023-12-20T13:42:15Z</time>
      </trkpt>
      <trkpt lat="50.01933" lon="2.33714">
        <ele>129.8</ele>
        <time>2023-12-20T13:42:17Z</time>
      </trkpt>
      <trkpt lat="50.01933" lon="2.33718">
        <ele>129.8</ele>
        <time>2023-12-20T13:42:19Z</time>
      </trkpt>
      <trkpt lat="50.01934" lon="2.3372">
        <ele>129.8</ele>
        <time>2023-12-20T13:42:20Z</time>
      </trkpt>
      <trkpt lat="50.01934" lon="2.33721">
        <ele>129.8</ele>
        <time>2023-12-20T13:42:21Z</time>
      </trkpt>
      <trkpt lat="50.01934" lon="2.33723">
        <ele>129.8</ele>
        <time>2023-12-20T13:42:22Z</time>
      </trkpt>
      <trkpt lat="50.01934" lon="2.33725">
        <ele>129.8</ele>
        <time>2023-12-20T13:42:23Z</time>
      </trkpt>
      <trkpt lat="50.01934" lon="2.33727">
        <ele>129.8</ele>
        <time>2023-12-20T13:42:24Z</time>
      </trkpt>
      <trkpt lat="50.01935" lon="2.33729">
        <ele>129.8</ele>
        <time>2023-12-20T13:42:26Z</time>
      </trkpt>
      <trkpt lat="50.01935" lon="2.33731">
        <ele>129.8</ele>
        <time>2023-12-20T13:42:27Z</time>
      </trkpt>
      <trkpt lat="50.01935" lon="2.33733">
        <ele>129.8</ele>
        <time>2023-12-20T13:42:28Z</time>
      </trkpt>
      <trkpt lat="50.01935" lon="2.33735">
        <ele>129.8</ele>
        <time>2023-12-20T13:42:29Z</time>
      </trkpt>
      <trkpt lat="50.01935" lon="2.33737">
        <ele>129.8</ele>
        <time>2023-12-20T13:42:30Z</time>
      </trkpt>
      <trkpt lat="50.01935" lon="2.33739">
        <ele>129.8</ele>
        <time>2023-12-20T13:42:32Z</time>
      </trkpt>
      <trkpt lat="50.01935" lon="2.33741">
        <ele>129.7</ele>
        <time>2023-12-20T13:42:33Z</time>
      </trkpt>
      <trkpt lat="50.01936" lon="2.33743">
        <ele>129.7</ele>
        <time>2023-12-20T13:42:34Z</time>
      </trkpt>
      <trkpt lat="50.01936" lon="2.33746">
        <ele>129.7</ele>
        <time>2023-12-20T13:42:35Z</time>
      </trkpt>
      <trkpt lat="50.01936" lon="2.33748">
        <ele>129.7</ele>
        <time>2023-12-20T13:42:37Z</time>
      </trkpt>
      <trkpt lat="50.01936" lon="2.33749">
        <ele>129.7</ele>
        <time>2023-12-20T13:42:38Z</time>
      </trkpt>
      <trkpt lat="50.01936" lon="2.33751">
        <ele>129.7</ele>
        <time>2023-12-20T13:42:39Z</time>
      </trkpt>
      <trkpt lat="50.01936" lon="2.33753">
        <ele>129.7</ele>
        <time>2023-12-20T13:42:40Z</time>
      </trkpt>
      <trkpt lat="50.01937" lon="2.33756">
        <ele>129.7</ele>
        <time>2023-12-20T13:42:41Z</time>
      </trkpt>
      <trkpt lat="50.01937" lon="2.33758">
        <ele>129.7</ele>
        <time>2023-12-20T13:42:43Z</time>
      </trkpt>
      <trkpt lat="50.01937" lon="2.3376">
        <ele>129.7</ele>
        <time>2023-12-20T13:42:44Z</time>
      </trkpt>
      <trkpt lat="50.01937" lon="2.33761">
        <ele>129.7</ele>
        <time>2023-12-20T13:42:46Z</time>
      </trkpt>
      <trkpt lat="50.01937" lon="2.33763">
        <ele>129.7</ele>
        <time>2023-12-20T13:42:47Z</time>
      </trkpt>
      <trkpt lat="50.01938" lon="2.33767">
        <ele>129.7</ele>
        <time>2023-12-20T13:42:48Z</time>
      </trkpt>
      <trkpt lat="50.01938" lon="2.33768">
        <ele>129.7</ele>
        <time>2023-12-20T13:42:50Z</time>
      </trkpt>
      <trkpt lat="50.01938" lon="2.3377">
        <ele>129.7</ele>
        <time>2023-12-20T13:42:51Z</time>
      </trkpt>
      <trkpt lat="50.01938" lon="2.33772">
        <ele>129.7</ele>
        <time>2023-12-20T13:42:52Z</time>
      </trkpt>
      <trkpt lat="50.01938" lon="2.33773">
        <ele>129.7</ele>
        <time>2023-12-20T13:42:53Z</time>
      </trkpt>
      <trkpt lat="50.01938" lon="2.33777">
        <ele>129.7</ele>
        <time>2023-12-20T13:42:54Z</time>
      </trkpt>
      <trkpt lat="50.01938" lon="2.33779">
        <ele>129.7</ele>
        <time>2023-12-20T13:42:56Z</time>
      </trkpt>
      <trkpt lat="50.01938" lon="2.33781">
        <ele>129.7</ele>
        <time>2023-12-20T13:42:58Z</time>
      </trkpt>
      <trkpt lat="50.01938" lon="2.33783">
        <ele>129.7</ele>
        <time>2023-12-20T13:42:59Z</time>
      </trkpt>
      <trkpt lat="50.01938" lon="2.33785">
        <ele>129.7</ele>
        <time>2023-12-20T13:43:00Z</time>
      </trkpt>
      <trkpt lat="50.01939" lon="2.33787">
        <ele>129.7</ele>
        <time>2023-12-20T13:43:01Z</time>
      </trkpt>
      <trkpt lat="50.01939" lon="2.33788">
        <ele>129.7</ele>
        <time>2023-12-20T13:43:02Z</time>
      </trkpt>
      <trkpt lat="50.01939" lon="2.33789">
        <ele>129.7</ele>
        <time>2023-12-20T13:43:03Z</time>
      </trkpt>
      <trkpt lat="50.01939" lon="2.33791">
        <ele>129.7</ele>
        <time>2023-12-20T13:43:04Z</time>
      </trkpt>
      <trkpt lat="50.01939" lon="2.33793">
        <ele>129.7</ele>
        <time>2023-12-20T13:43:06Z</time>
      </trkpt>
      <trkpt lat="50.0194" lon="2.33795">
        <ele>129.7</ele>
        <time>2023-12-20T13:43:07Z</time>
      </trkpt>
      <trkpt lat="50.0194" lon="2.33796">
        <ele>129.7</ele>
        <time>2023-12-20T13:43:08Z</time>
      </trkpt>
      <trkpt lat="50.0194" lon="2.33798">
        <ele>129.7</ele>
        <time>2023-12-20T13:43:09Z</time>
      </trkpt>
      <trkpt lat="50.0194" lon="2.338">
        <ele>129.7</ele>
        <time>2023-12-20T13:43:10Z</time>
      </trkpt>
      <trkpt lat="50.0194" lon="2.33801">
        <ele>129.7</ele>
        <time>2023-12-20T13:43:11Z</time>
      </trkpt>
      <trkpt lat="50.01941" lon="2.33805">
        <ele>129.6</ele>
        <time>2023-12-20T13:43:13Z</time>
      </trkpt>
      <trkpt lat="50.01941" lon="2.33807">
        <ele>129.6</ele>
        <time>2023-12-20T13:43:15Z</time>
      </trkpt>
      <trkpt lat="50.01941" lon="2.33809">
        <ele>129.6</ele>
        <time>2023-12-20T13:43:16Z</time>
      </trkpt>
      <trkpt lat="50.01942" lon="2.33813">
        <ele>129.6</ele>
        <time>2023-12-20T13:43:17Z</time>
      </trkpt>
      <trkpt lat="50.01942" lon="2.33814">
        <ele>129.6</ele>
        <time>2023-12-20T13:43:19Z</time>
      </trkpt>
      <trkpt lat="50.01942" lon="2.33815">
        <ele>129.6</ele>
        <time>2023-12-20T13:43:20Z</time>
      </trkpt>
      <trkpt lat="50.01942" lon="2.33817">
        <ele>129.6</ele>
        <time>2023-12-20T13:43:21Z</time>
      </trkpt>
      <trkpt lat="50.01942" lon="2.33819">
        <ele>129.6</ele>
        <time>2023-12-20T13:43:22Z</time>
      </trkpt>
      <trkpt lat="50.01942" lon="2.33821">
        <ele>129.6</ele>
        <time>2023-12-20T13:43:23Z</time>
      </trkpt>
      <trkpt lat="50.01942" lon="2.33823">
        <ele>129.6</ele>
        <time>2023-12-20T13:43:24Z</time>
      </trkpt>
      <trkpt lat="50.01943" lon="2.33825">
        <ele>129.6</ele>
        <time>2023-12-20T13:43:25Z</time>
      </trkpt>
      <trkpt lat="50.01943" lon="2.33827">
        <ele>129.6</ele>
        <time>2023-12-20T13:43:27Z</time>
      </trkpt>
      <trkpt lat="50.01943" lon="2.33829">
        <ele>129.6</ele>
        <time>2023-12-20T13:43:28Z</time>
      </trkpt>
      <trkpt lat="50.01944" lon="2.33831">
        <ele>129.6</ele>
        <time>2023-12-20T13:43:29Z</time>
      </trkpt>
      <trkpt lat="50.01944" lon="2.33834">
        <ele>129.6</ele>
        <time>2023-12-20T13:43:31Z</time>
      </trkpt>
      <trkpt lat="50.01944" lon="2.33836">
        <ele>129.6</ele>
        <time>2023-12-20T13:43:33Z</time>
      </trkpt>
      <trkpt lat="50.01945" lon="2.33838">
        <ele>129.6</ele>
        <time>2023-12-20T13:43:34Z</time>
      </trkpt>
      <trkpt lat="50.01945" lon="2.3384">
        <ele>129.6</ele>
        <time>2023-12-20T13:43:35Z</time>
      </trkpt>
      <trkpt lat="50.01945" lon="2.33842">
        <ele>129.6</ele>
        <time>2023-12-20T13:43:36Z</time>
      </trkpt>
      <trkpt lat="50.01945" lon="2.33843">
        <ele>129.6</ele>
        <time>2023-12-20T13:43:37Z</time>
      </trkpt>
      <trkpt lat="50.01945" lon="2.33845">
        <ele>129.6</ele>
        <time>2023-12-20T13:43:38Z</time>
      </trkpt>
      <trkpt lat="50.01945" lon="2.33847">
        <ele>129.6</ele>
        <time>2023-12-20T13:43:39Z</time>
      </trkpt>
      <trkpt lat="50.01945" lon="2.33848">
        <ele>129.6</ele>
        <time>2023-12-20T13:43:40Z</time>
      </trkpt>
      <trkpt lat="50.01945" lon="2.33851">
        <ele>129.6</ele>
        <time>2023-12-20T13:43:42Z</time>
      </trkpt>
      <trkpt lat="50.01945" lon="2.33853">
        <ele>129.6</ele>
        <time>2023-12-20T13:43:43Z</time>
      </trkpt>
      <trkpt lat="50.01945" lon="2.33854">
        <ele>129.6</ele>
        <time>2023-12-20T13:43:44Z</time>
      </trkpt>
      <trkpt lat="50.01945" lon="2.33856">
        <ele>129.6</ele>
        <time>2023-12-20T13:43:45Z</time>
      </trkpt>
      <trkpt lat="50.01945" lon="2.33858">
        <ele>129.6</ele>
        <time>2023-12-20T13:43:46Z</time>
      </trkpt>
      <trkpt lat="50.01945" lon="2.33859">
        <ele>129.6</ele>
        <time>2023-12-20T13:43:47Z</time>
      </trkpt>
      <trkpt lat="50.01945" lon="2.33861">
        <ele>129.6</ele>
        <time>2023-12-20T13:43:49Z</time>
      </trkpt>
      <trkpt lat="50.01946" lon="2.33864">
        <ele>129.6</ele>
        <time>2023-12-20T13:43:50Z</time>
      </trkpt>
      <trkpt lat="50.01946" lon="2.33866">
        <ele>129.6</ele>
        <time>2023-12-20T13:43:51Z</time>
      </trkpt>
      <trkpt lat="50.01946" lon="2.33868">
        <ele>129.6</ele>
        <time>2023-12-20T13:43:52Z</time>
      </trkpt>
      <trkpt lat="50.01946" lon="2.33869">
        <ele>129.5</ele>
        <time>2023-12-20T13:43:53Z</time>
      </trkpt>
      <trkpt lat="50.01946" lon="2.33871">
        <ele>129.5</ele>
        <time>2023-12-20T13:43:54Z</time>
      </trkpt>
      <trkpt lat="50.01946" lon="2.33873">
        <ele>129.5</ele>
        <time>2023-12-20T13:43:55Z</time>
      </trkpt>
      <trkpt lat="50.01946" lon="2.33875">
        <ele>129.5</ele>
        <time>2023-12-20T13:43:57Z</time>
      </trkpt>
      <trkpt lat="50.01947" lon="2.33878">
        <ele>129.5</ele>
        <time>2023-12-20T13:43:58Z</time>
      </trkpt>
      <trkpt lat="50.01947" lon="2.3388">
        <ele>129.5</ele>
        <time>2023-12-20T13:43:59Z</time>
      </trkpt>
      <trkpt lat="50.01947" lon="2.33881">
        <ele>129.5</ele>
        <time>2023-12-20T13:44:00Z</time>
      </trkpt>
      <trkpt lat="50.01947" lon="2.33882">
        <ele>129.5</ele>
        <time>2023-12-20T13:44:01Z</time>
      </trkpt>
      <trkpt lat="50.01947" lon="2.33883">
        <ele>129.5</ele>
        <time>2023-12-20T13:44:02Z</time>
      </trkpt>
      <trkpt lat="50.01947" lon="2.33885">
        <ele>129.5</ele>
        <time>2023-12-20T13:44:03Z</time>
      </trkpt>
      <trkpt lat="50.01948" lon="2.33887">
        <ele>129.5</ele>
        <time>2023-12-20T13:44:04Z</time>
      </trkpt>
      <trkpt lat="50.01948" lon="2.33889">
        <ele>129.5</ele>
        <time>2023-12-20T13:44:05Z</time>
      </trkpt>
      <trkpt lat="50.01948" lon="2.33891">
        <ele>129.5</ele>
        <time>2023-12-20T13:44:07Z</time>
      </trkpt>
      <trkpt lat="50.01948" lon="2.33893">
        <ele>129.5</ele>
        <time>2023-12-20T13:44:08Z</time>
      </trkpt>
      <trkpt lat="50.01949" lon="2.33894">
        <ele>129.5</ele>
        <time>2023-12-20T13:44:09Z</time>
      </trkpt>
      <trkpt lat="50.01949" lon="2.33896">
        <ele>129.5</ele>
        <time>2023-12-20T13:44:10Z</time>
      </trkpt>
      <trkpt lat="50.01949" lon="2.33897">
        <ele>129.5</ele>
        <time>2023-12-20T13:44:11Z</time>
      </trkpt>
      <trkpt lat="50.01949" lon="2.33899">
        <ele>129.5</ele>
        <time>2023-12-20T13:44:12Z</time>
      </trkpt>
      <trkpt lat="50.01949" lon="2.33901">
        <ele>129.5</ele>
        <time>2023-12-20T13:44:14Z</time>
      </trkpt>
      <trkpt lat="50.01949" lon="2.33902">
        <ele>129.5</ele>
        <time>2023-12-20T13:44:15Z</time>
      </trkpt>
      <trkpt lat="50.01949" lon="2.33904">
        <ele>129.5</ele>
        <time>2023-12-20T13:44:16Z</time>
      </trkpt>
      <trkpt lat="50.01949" lon="2.33905">
        <ele>129.5</ele>
        <time>2023-12-20T13:44:17Z</time>
      </trkpt>
      <trkpt lat="50.0195" lon="2.33907">
        <ele>129.5</ele>
        <time>2023-12-20T13:44:18Z</time>
      </trkpt>
      <trkpt lat="50.0195" lon="2.33909">
        <ele>129.5</ele>
        <time>2023-12-20T13:44:19Z</time>
      </trkpt>
      <trkpt lat="50.0195" lon="2.33911">
        <ele>129.5</ele>
        <time>2023-12-20T13:44:20Z</time>
      </trkpt>
      <trkpt lat="50.0195" lon="2.33912">
        <ele>129.5</ele>
        <time>2023-12-20T13:44:21Z</time>
      </trkpt>
      <trkpt lat="50.0195" lon="2.33913">
        <ele>129.5</ele>
        <time>2023-12-20T13:44:23Z</time>
      </trkpt>
      <trkpt lat="50.0195" lon="2.33915">
        <ele>129.5</ele>
        <time>2023-12-20T13:44:24Z</time>
      </trkpt>
      <trkpt lat="50.0195" lon="2.33917">
        <ele>129.5</ele>
        <time>2023-12-20T13:44:25Z</time>
      </trkpt>
      <trkpt lat="50.0195" lon="2.33919">
        <ele>129.5</ele>
        <time>2023-12-20T13:44:26Z</time>
      </trkpt>
      <trkpt lat="50.0195" lon="2.3392">
        <ele>129.5</ele>
        <time>2023-12-20T13:44:27Z</time>
      </trkpt>
      <trkpt lat="50.01951" lon="2.33921">
        <ele>129.5</ele>
        <time>2023-12-20T13:44:29Z</time>
      </trkpt>
      <trkpt lat="50.01951" lon="2.33923">
        <ele>129.5</ele>
        <time>2023-12-20T13:44:30Z</time>
      </trkpt>
      <trkpt lat="50.01952" lon="2.33924">
        <ele>129.5</ele>
        <time>2023-12-20T13:44:31Z</time>
      </trkpt>
      <trkpt lat="50.01953" lon="2.33925">
        <ele>129.5</ele>
        <time>2023-12-20T13:44:33Z</time>
      </trkpt>
      <trkpt lat="50.01954" lon="2.33926">
        <ele>129.5</ele>
        <time>2023-12-20T13:44:34Z</time>
      </trkpt>
      <trkpt lat="50.01955" lon="2.33926">
        <ele>129.5</ele>
        <time>2023-12-20T13:44:35Z</time>
      </trkpt>
      <trkpt lat="50.01955" lon="2.33927">
        <ele>129.5</ele>
        <time>2023-12-20T13:44:36Z</time>
      </trkpt>
      <trkpt lat="50.01957" lon="2.33928">
        <ele>129.5</ele>
        <time>2023-12-20T13:44:38Z</time>
      </trkpt>
      <trkpt lat="50.01957" lon="2.33929">
        <ele>129.5</ele>
        <time>2023-12-20T13:44:39Z</time>
      </trkpt>
      <trkpt lat="50.01958" lon="2.3393">
        <ele>129.5</ele>
        <time>2023-12-20T13:44:41Z</time>
      </trkpt>
      <trkpt lat="50.01958" lon="2.33931">
        <ele>129.5</ele>
        <time>2023-12-20T13:44:43Z</time>
      </trkpt>
      <trkpt lat="50.01957" lon="2.33931">
        <ele>129.5</ele>
        <time>2023-12-20T13:44:44Z</time>
      </trkpt>
      <trkpt lat="50.01957" lon="2.33931">
        <ele>129.5</ele>
        <time>2023-12-20T13:44:45Z</time>
      </trkpt>
      <trkpt lat="50.01957" lon="2.33931">
        <ele>129.5</ele>
        <time>2023-12-20T13:44:47Z</time>
      </trkpt>
      <trkpt lat="50.01957" lon="2.33931">
        <ele>129.5</ele>
        <time>2023-12-20T13:44:48Z</time>
      </trkpt>
      <trkpt lat="50.01957" lon="2.33931">
        <ele>129.5</ele>
        <time>2023-12-20T13:44:50Z</time>
      </trkpt>
      <trkpt lat="50.01957" lon="2.33931">
        <ele>129.5</ele>
        <time>2023-12-20T13:44:51Z</time>
      </trkpt>
      <trkpt lat="50.01957" lon="2.33931">
        <ele>129.5</ele>
        <time>2023-12-20T13:44:53Z</time>
      </trkpt>
      <trkpt lat="50.01957" lon="2.33931">
        <ele>129.5</ele>
        <time>2023-12-20T13:44:54Z</time>
      </trkpt>
      <trkpt lat="50.01957" lon="2.3393">
        <ele>129.5</ele>
        <time>2023-12-20T13:44:56Z</time>
      </trkpt>
      <trkpt lat="50.01957" lon="2.3393">
        <ele>129.5</ele>
        <time>2023-12-20T13:44:57Z</time>
      </trkpt>
      <trkpt lat="50.01957" lon="2.3393">
        <ele>129.5</ele>
        <time>2023-12-20T13:44:58Z</time>
      </trkpt>
      <trkpt lat="50.01957" lon="2.3393">
        <ele>129.5</ele>
        <time>2023-12-20T13:45:00Z</time>
      </trkpt>
      <trkpt lat="50.01955" lon="2.33926">
        <ele>129.5</ele>
        <time>2023-12-20T13:46:21Z</time>
      </trkpt>
      <trkpt lat="50.01956" lon="2.33927">
        <ele>129.5</ele>
        <time>2023-12-20T13:46:22Z</time>
      </trkpt>
      <trkpt lat="50.01956" lon="2.33927">
        <ele>129.5</ele>
        <time>2023-12-20T13:46:23Z</time>
      </trkpt>
      <trkpt lat="50.01956" lon="2.33927">
        <ele>129.5</ele>
        <time>2023-12-20T13:46:25Z</time>
      </trkpt>
      <trkpt lat="50.01956" lon="2.33926">
        <ele>129.6</ele>
        <time>2023-12-20T13:46:27Z</time>
      </trkpt>
      <trkpt lat="50.01956" lon="2.33927">
        <ele>129.6</ele>
        <time>2023-12-20T13:46:28Z</time>
      </trkpt>
      <trkpt lat="50.01956" lon="2.33927">
        <ele>129.6</ele>
        <time>2023-12-20T13:46:30Z</time>
      </trkpt>
      <trkpt lat="50.01957" lon="2.33927">
        <ele>129.6</ele>
        <time>2023-12-20T13:46:31Z</time>
      </trkpt>
      <trkpt lat="50.01958" lon="2.33928">
        <ele>129.6</ele>
        <time>2023-12-20T13:46:32Z</time>
      </trkpt>
      <trkpt lat="50.01961" lon="2.33928">
        <ele>129.6</ele>
        <time>2023-12-20T13:46:33Z</time>
      </trkpt>
      <trkpt lat="50.01962" lon="2.33928">
        <ele>129.6</ele>
        <time>2023-12-20T13:46:34Z</time>
      </trkpt>
      <trkpt lat="50.01962" lon="2.33928">
        <ele>129.6</ele>
        <time>2023-12-20T13:46:35Z</time>
      </trkpt>
      <trkpt lat="50.01964" lon="2.33927">
        <ele>129.6</ele>
        <time>2023-12-20T13:46:36Z</time>
      </trkpt>
      <trkpt lat="50.01965" lon="2.33927">
        <ele>129.6</ele>
        <time>2023-12-20T13:46:37Z</time>
      </trkpt>
      <trkpt lat="50.01966" lon="2.33927">
        <ele>129.6</ele>
        <time>2023-12-20T13:46:38Z</time>
      </trkpt>
      <trkpt lat="50.01968" lon="2.33926">
        <ele>129.6</ele>
        <time>2023-12-20T13:46:40Z</time>
      </trkpt>
      <trkpt lat="50.01969" lon="2.33926">
        <ele>129.6</ele>
        <time>2023-12-20T13:46:41Z</time>
      </trkpt>
      <trkpt lat="50.0197" lon="2.33926">
        <ele>129.7</ele>
        <time>2023-12-20T13:46:42Z</time>
      </trkpt>
      <trkpt lat="50.01971" lon="2.33926">
        <ele>129.7</ele>
        <time>2023-12-20T13:46:43Z</time>
      </trkpt>
      <trkpt lat="50.01972" lon="2.33926">
        <ele>129.7</ele>
        <time>2023-12-20T13:46:44Z</time>
      </trkpt>
      <trkpt lat="50.01973" lon="2.33926">
        <ele>129.7</ele>
        <time>2023-12-20T13:46:46Z</time>
      </trkpt>
      <trkpt lat="50.01974" lon="2.33926">
        <ele>129.7</ele>
        <time>2023-12-20T13:46:47Z</time>
      </trkpt>
      <trkpt lat="50.01975" lon="2.33926">
        <ele>129.7</ele>
        <time>2023-12-20T13:46:48Z</time>
      </trkpt>
      <trkpt lat="50.01976" lon="2.33926">
        <ele>129.7</ele>
        <time>2023-12-20T13:46:49Z</time>
      </trkpt>
      <trkpt lat="50.01978" lon="2.33927">
        <ele>129.7</ele>
        <time>2023-12-20T13:46:50Z</time>
      </trkpt>
      <trkpt lat="50.01979" lon="2.33927">
        <ele>129.7</ele>
        <time>2023-12-20T13:46:51Z</time>
      </trkpt>
      <trkpt lat="50.0198" lon="2.33927">
        <ele>129.7</ele>
        <time>2023-12-20T13:46:52Z</time>
      </trkpt>
      <trkpt lat="50.01982" lon="2.33927">
        <ele>129.7</ele>
        <time>2023-12-20T13:46:53Z</time>
      </trkpt>
      <trkpt lat="50.01983" lon="2.33927">
        <ele>129.7</ele>
        <time>2023-12-20T13:46:55Z</time>
      </trkpt>
      <trkpt lat="50.01985" lon="2.33926">
        <ele>129.8</ele>
        <time>2023-12-20T13:46:56Z</time>
      </trkpt>
      <trkpt lat="50.01986" lon="2.33926">
        <ele>129.8</ele>
        <time>2023-12-20T13:46:57Z</time>
      </trkpt>
      <trkpt lat="50.01987" lon="2.33926">
        <ele>129.8</ele>
        <time>2023-12-20T13:46:58Z</time>
      </trkpt>
      <trkpt lat="50.01988" lon="2.33926">
        <ele>129.8</ele>
        <time>2023-12-20T13:46:59Z</time>
      </trkpt>
      <trkpt lat="50.01989" lon="2.33926">
        <ele>129.8</ele>
        <time>2023-12-20T13:47:00Z</time>
      </trkpt>
      <trkpt lat="50.0199" lon="2.33926">
        <ele>129.8</ele>
        <time>2023-12-20T13:47:01Z</time>
      </trkpt>
      <trkpt lat="50.01991" lon="2.33926">
        <ele>129.8</ele>
        <time>2023-12-20T13:47:02Z</time>
      </trkpt>
      <trkpt lat="50.01993" lon="2.33926">
        <ele>129.8</ele>
        <time>2023-12-20T13:47:03Z</time>
      </trkpt>
      <trkpt lat="50.01994" lon="2.33925">
        <ele>129.8</ele>
        <time>2023-12-20T13:47:05Z</time>
      </trkpt>
      <trkpt lat="50.01996" lon="2.33925">
        <ele>129.8</ele>
        <time>2023-12-20T13:47:06Z</time>
      </trkpt>
      <trkpt lat="50.01997" lon="2.33925">
        <ele>129.8</ele>
        <time>2023-12-20T13:47:07Z</time>
      </trkpt>
      <trkpt lat="50.01998" lon="2.33925">
        <ele>129.9</ele>
        <time>2023-12-20T13:47:08Z</time>
      </trkpt>
      <trkpt lat="50.02" lon="2.33924">
        <ele>129.9</ele>
        <time>2023-12-20T13:47:09Z</time>
      </trkpt>
      <trkpt lat="50.02001" lon="2.33924">
        <ele>129.9</ele>
        <time>2023-12-20T13:47:10Z</time>
      </trkpt>
      <trkpt lat="50.02002" lon="2.33924">
        <ele>129.9</ele>
        <time>2023-12-20T13:47:11Z</time>
      </trkpt>
      <trkpt lat="50.02003" lon="2.33923">
        <ele>129.9</ele>
        <time>2023-12-20T13:47:13Z</time>
      </trkpt>
      <trkpt lat="50.02005" lon="2.33923">
        <ele>129.9</ele>
        <time>2023-12-20T13:47:14Z</time>
      </trkpt>
      <trkpt lat="50.02006" lon="2.33922">
        <ele>129.9</ele>
        <time>2023-12-20T13:47:15Z</time>
      </trkpt>
      <trkpt lat="50.02007" lon="2.33922">
        <ele>129.9</ele>
        <time>2023-12-20T13:47:16Z</time>
      </trkpt>
      <trkpt lat="50.02008" lon="2.33922">
        <ele>129.9</ele>
        <time>2023-12-20T13:47:17Z</time>
      </trkpt>
      <trkpt lat="50.0201" lon="2.33921">
        <ele>129.9</ele>
        <time>2023-12-20T13:47:18Z</time>
      </trkpt>
      <trkpt lat="50.02011" lon="2.33921">
        <ele>130</ele>
        <time>2023-12-20T13:47:20Z</time>
      </trkpt>
      <trkpt lat="50.02012" lon="2.33921">
        <ele>130</ele>
        <time>2023-12-20T13:47:21Z</time>
      </trkpt>
      <trkpt lat="50.02014" lon="2.3392">
        <ele>130</ele>
        <time>2023-12-20T13:47:22Z</time>
      </trkpt>
      <trkpt lat="50.02015" lon="2.3392">
        <ele>130</ele>
        <time>2023-12-20T13:47:23Z</time>
      </trkpt>
      <trkpt lat="50.02016" lon="2.3392">
        <ele>130</ele>
        <time>2023-12-20T13:47:24Z</time>
      </trkpt>
      <trkpt lat="50.02017" lon="2.3392">
        <ele>130</ele>
        <time>2023-12-20T13:47:25Z</time>
      </trkpt>
      <trkpt lat="50.02018" lon="2.3392">
        <ele>130</ele>
        <time>2023-12-20T13:47:26Z</time>
      </trkpt>
      <trkpt lat="50.02019" lon="2.3392">
        <ele>130</ele>
        <time>2023-12-20T13:47:27Z</time>
      </trkpt>
      <trkpt lat="50.02021" lon="2.3392">
        <ele>130</ele>
        <time>2023-12-20T13:47:29Z</time>
      </trkpt>
      <trkpt lat="50.02023" lon="2.33919">
        <ele>130</ele>
        <time>2023-12-20T13:47:30Z</time>
      </trkpt>
      <trkpt lat="50.02024" lon="2.33919">
        <ele>130</ele>
        <time>2023-12-20T13:47:31Z</time>
      </trkpt>
      <trkpt lat="50.02025" lon="2.33919">
        <ele>130</ele>
        <time>2023-12-20T13:47:32Z</time>
      </trkpt>
      <trkpt lat="50.02026" lon="2.33919">
        <ele>130.1</ele>
        <time>2023-12-20T13:47:33Z</time>
      </trkpt>
      <trkpt lat="50.02027" lon="2.33919">
        <ele>130.1</ele>
        <time>2023-12-20T13:47:34Z</time>
      </trkpt>
      <trkpt lat="50.02029" lon="2.33919">
        <ele>130.1</ele>
        <time>2023-12-20T13:47:36Z</time>
      </trkpt>
      <trkpt lat="50.02031" lon="2.33919">
        <ele>130.1</ele>
        <time>2023-12-20T13:47:37Z</time>
      </trkpt>
      <trkpt lat="50.02031" lon="2.3392">
        <ele>130.1</ele>
        <time>2023-12-20T13:47:38Z</time>
      </trkpt>
      <trkpt lat="50.02032" lon="2.3392">
        <ele>130.1</ele>
        <time>2023-12-20T13:47:39Z</time>
      </trkpt>
      <trkpt lat="50.02034" lon="2.3392">
        <ele>130.1</ele>
        <time>2023-12-20T13:47:40Z</time>
      </trkpt>
      <trkpt lat="50.02035" lon="2.3392">
        <ele>130.1</ele>
        <time>2023-12-20T13:47:41Z</time>
      </trkpt>
      <trkpt lat="50.02036" lon="2.3392">
        <ele>130.1</ele>
        <time>2023-12-20T13:47:43Z</time>
      </trkpt>
      <trkpt lat="50.02037" lon="2.3392">
        <ele>130.1</ele>
        <time>2023-12-20T13:47:44Z</time>
      </trkpt>
      <trkpt lat="50.02038" lon="2.3392">
        <ele>130.1</ele>
        <time>2023-12-20T13:47:45Z</time>
      </trkpt>
      <trkpt lat="50.02039" lon="2.3392">
        <ele>130.2</ele>
        <time>2023-12-20T13:47:46Z</time>
      </trkpt>
      <trkpt lat="50.0204" lon="2.33919">
        <ele>130.2</ele>
        <time>2023-12-20T13:47:47Z</time>
      </trkpt>
      <trkpt lat="50.02042" lon="2.33918">
        <ele>130.2</ele>
        <time>2023-12-20T13:47:49Z</time>
      </trkpt>
      <trkpt lat="50.02043" lon="2.33918">
        <ele>130.2</ele>
        <time>2023-12-20T13:47:51Z</time>
      </trkpt>
      <trkpt lat="50.02045" lon="2.33918">
        <ele>130.2</ele>
        <time>2023-12-20T13:47:52Z</time>
      </trkpt>
      <trkpt lat="50.02046" lon="2.33918">
        <ele>130.2</ele>
        <time>2023-12-20T13:47:53Z</time>
      </trkpt>
      <trkpt lat="50.02048" lon="2.33917">
        <ele>130.2</ele>
        <time>2023-12-20T13:47:54Z</time>
      </trkpt>
      <trkpt lat="50.02049" lon="2.33917">
        <ele>130.2</ele>
        <time>2023-12-20T13:47:56Z</time>
      </trkpt>
      <trkpt lat="50.0205" lon="2.33917">
        <ele>130.2</ele>
        <time>2023-12-20T13:47:57Z</time>
      </trkpt>
      <trkpt lat="50.02051" lon="2.33917">
        <ele>130.2</ele>
        <time>2023-12-20T13:47:59Z</time>
      </trkpt>
      <trkpt lat="50.02053" lon="2.33916">
        <ele>130.3</ele>
        <time>2023-12-20T13:48:00Z</time>
      </trkpt>
      <trkpt lat="50.02055" lon="2.33916">
        <ele>130.3</ele>
        <time>2023-12-20T13:48:01Z</time>
      </trkpt>
      <trkpt lat="50.02056" lon="2.33916">
        <ele>130.3</ele>
        <time>2023-12-20T13:48:02Z</time>
      </trkpt>
      <trkpt lat="50.02056" lon="2.33916">
        <ele>130.3</ele>
        <time>2023-12-20T13:48:03Z</time>
      </trkpt>
      <trkpt lat="50.02058" lon="2.33917">
        <ele>130.3</ele>
        <time>2023-12-20T13:48:04Z</time>
      </trkpt>
      <trkpt lat="50.02059" lon="2.33917">
        <ele>130.3</ele>
        <time>2023-12-20T13:48:05Z</time>
      </trkpt>
      <trkpt lat="50.02059" lon="2.33919">
        <ele>130.3</ele>
        <time>2023-12-20T13:48:07Z</time>
      </trkpt>
      <trkpt lat="50.0206" lon="2.3392">
        <ele>130.3</ele>
        <time>2023-12-20T13:48:08Z</time>
      </trkpt>
      <trkpt lat="50.02061" lon="2.33921">
        <ele>130.3</ele>
        <time>2023-12-20T13:48:09Z</time>
      </trkpt>
      <trkpt lat="50.02062" lon="2.33921">
        <ele>130.3</ele>
        <time>2023-12-20T13:48:10Z</time>
      </trkpt>
      <trkpt lat="50.02063" lon="2.33921">
        <ele>130.3</ele>
        <time>2023-12-20T13:48:12Z</time>
      </trkpt>
      <trkpt lat="50.02064" lon="2.3392">
        <ele>130.3</ele>
        <time>2023-12-20T13:48:13Z</time>
      </trkpt>
      <trkpt lat="50.02065" lon="2.3392">
        <ele>130.3</ele>
        <time>2023-12-20T13:48:14Z</time>
      </trkpt>
      <trkpt lat="50.02066" lon="2.33919">
        <ele>130.4</ele>
        <time>2023-12-20T13:48:15Z</time>
      </trkpt>
      <trkpt lat="50.02067" lon="2.33919">
        <ele>130.4</ele>
        <time>2023-12-20T13:48:16Z</time>
      </trkpt>
      <trkpt lat="50.02068" lon="2.33919">
        <ele>130.4</ele>
        <time>2023-12-20T13:48:17Z</time>
      </trkpt>
      <trkpt lat="50.02069" lon="2.33918">
        <ele>130.4</ele>
        <time>2023-12-20T13:48:19Z</time>
      </trkpt>
      <trkpt lat="50.0207" lon="2.33918">
        <ele>130.4</ele>
        <time>2023-12-20T13:48:20Z</time>
      </trkpt>
      <trkpt lat="50.02071" lon="2.33918">
        <ele>130.4</ele>
        <time>2023-12-20T13:48:21Z</time>
      </trkpt>
      <trkpt lat="50.02073" lon="2.33917">
        <ele>130.4</ele>
        <time>2023-12-20T13:48:23Z</time>
      </trkpt>
      <trkpt lat="50.02075" lon="2.33916">
        <ele>130.4</ele>
        <time>2023-12-20T13:48:25Z</time>
      </trkpt>
      <trkpt lat="50.02076" lon="2.33916">
        <ele>130.4</ele>
        <time>2023-12-20T13:48:26Z</time>
      </trkpt>
      <trkpt lat="50.02077" lon="2.33916">
        <ele>130.4</ele>
        <time>2023-12-20T13:48:27Z</time>
      </trkpt>
      <trkpt lat="50.02078" lon="2.33916">
        <ele>130.4</ele>
        <time>2023-12-20T13:48:28Z</time>
      </trkpt>
      <trkpt lat="50.0208" lon="2.33915">
        <ele>130.5</ele>
        <time>2023-12-20T13:48:30Z</time>
      </trkpt>
      <trkpt lat="50.02081" lon="2.33915">
        <ele>130.5</ele>
        <time>2023-12-20T13:48:31Z</time>
      </trkpt>
      <trkpt lat="50.02083" lon="2.33915">
        <ele>130.5</ele>
        <time>2023-12-20T13:48:32Z</time>
      </trkpt>
      <trkpt lat="50.02084" lon="2.33915">
        <ele>130.5</ele>
        <time>2023-12-20T13:48:34Z</time>
      </trkpt>
      <trkpt lat="50.02085" lon="2.33915">
        <ele>130.5</ele>
        <time>2023-12-20T13:48:35Z</time>
      </trkpt>
      <trkpt lat="50.02088" lon="2.33915">
        <ele>130.5</ele>
        <time>2023-12-20T13:48:36Z</time>
      </trkpt>
      <trkpt lat="50.02089" lon="2.33914">
        <ele>130.5</ele>
        <time>2023-12-20T13:48:38Z</time>
      </trkpt>
      <trkpt lat="50.02089" lon="2.33914">
        <ele>130.5</ele>
        <time>2023-12-20T13:48:39Z</time>
      </trkpt>
      <trkpt lat="50.0209" lon="2.33914">
        <ele>130.5</ele>
        <time>2023-12-20T13:48:40Z</time>
      </trkpt>
      <trkpt lat="50.02091" lon="2.33914">
        <ele>130.5</ele>
        <time>2023-12-20T13:48:41Z</time>
      </trkpt>
      <trkpt lat="50.02093" lon="2.33914">
        <ele>130.6</ele>
        <time>2023-12-20T13:48:42Z</time>
      </trkpt>
      <trkpt lat="50.02094" lon="2.33914">
        <ele>130.6</ele>
        <time>2023-12-20T13:48:43Z</time>
      </trkpt>
      <trkpt lat="50.02095" lon="2.33914">
        <ele>130.6</ele>
        <time>2023-12-20T13:48:44Z</time>
      </trkpt>
      <trkpt lat="50.02097" lon="2.33914">
        <ele>130.6</ele>
        <time>2023-12-20T13:48:46Z</time>
      </trkpt>
      <trkpt lat="50.02098" lon="2.33914">
        <ele>130.6</ele>
        <time>2023-12-20T13:48:47Z</time>
      </trkpt>
      <trkpt lat="50.02099" lon="2.33914">
        <ele>130.6</ele>
        <time>2023-12-20T13:48:48Z</time>
      </trkpt>
      <trkpt lat="50.021" lon="2.33914">
        <ele>130.6</ele>
        <time>2023-12-20T13:48:49Z</time>
      </trkpt>
      <trkpt lat="50.02101" lon="2.33914">
        <ele>130.6</ele>
        <time>2023-12-20T13:48:50Z</time>
      </trkpt>
      <trkpt lat="50.02103" lon="2.33914">
        <ele>130.6</ele>
        <time>2023-12-20T13:48:52Z</time>
      </trkpt>
      <trkpt lat="50.02104" lon="2.33914">
        <ele>130.6</ele>
        <time>2023-12-20T13:48:54Z</time>
      </trkpt>
      <trkpt lat="50.02106" lon="2.33915">
        <ele>130.6</ele>
        <time>2023-12-20T13:48:55Z</time>
      </trkpt>
      <trkpt lat="50.02108" lon="2.33915">
        <ele>130.7</ele>
        <time>2023-12-20T13:48:56Z</time>
      </trkpt>
      <trkpt lat="50.02108" lon="2.33915">
        <ele>130.7</ele>
        <time>2023-12-20T13:48:57Z</time>
      </trkpt>
      <trkpt lat="50.02109" lon="2.33915">
        <ele>130.7</ele>
        <time>2023-12-20T13:48:58Z</time>
      </trkpt>
      <trkpt lat="50.0211" lon="2.33915">
        <ele>130.7</ele>
        <time>2023-12-20T13:48:59Z</time>
      </trkpt>
      <trkpt lat="50.02111" lon="2.33915">
        <ele>130.7</ele>
        <time>2023-12-20T13:49:01Z</time>
      </trkpt>
      <trkpt lat="50.02112" lon="2.33915">
        <ele>130.7</ele>
        <time>2023-12-20T13:49:02Z</time>
      </trkpt>
      <trkpt lat="50.02114" lon="2.33915">
        <ele>130.7</ele>
        <time>2023-12-20T13:49:03Z</time>
      </trkpt>
      <trkpt lat="50.02115" lon="2.33915">
        <ele>130.7</ele>
        <time>2023-12-20T13:49:04Z</time>
      </trkpt>
      <trkpt lat="50.02117" lon="2.33915">
        <ele>130.7</ele>
        <time>2023-12-20T13:49:05Z</time>
      </trkpt>
      <trkpt lat="50.02118" lon="2.33915">
        <ele>130.7</ele>
        <time>2023-12-20T13:49:07Z</time>
      </trkpt>
      <trkpt lat="50.02119" lon="2.33915">
        <ele>130.7</ele>
        <time>2023-12-20T13:49:08Z</time>
      </trkpt>
      <trkpt lat="50.0212" lon="2.33915">
        <ele>130.7</ele>
        <time>2023-12-20T13:49:09Z</time>
      </trkpt>
      <trkpt lat="50.02121" lon="2.33915">
        <ele>130.8</ele>
        <time>2023-12-20T13:49:10Z</time>
      </trkpt>
      <trkpt lat="50.02123" lon="2.33916">
        <ele>130.8</ele>
        <time>2023-12-20T13:49:11Z</time>
      </trkpt>
      <trkpt lat="50.02124" lon="2.33916">
        <ele>130.8</ele>
        <time>2023-12-20T13:49:12Z</time>
      </trkpt>
      <trkpt lat="50.02125" lon="2.33915">
        <ele>130.8</ele>
        <time>2023-12-20T13:49:13Z</time>
      </trkpt>
      <trkpt lat="50.02126" lon="2.33915">
        <ele>130.8</ele>
        <time>2023-12-20T13:49:14Z</time>
      </trkpt>
      <trkpt lat="50.02127" lon="2.33914">
        <ele>130.8</ele>
        <time>2023-12-20T13:49:16Z</time>
      </trkpt>
      <trkpt lat="50.02128" lon="2.33913">
        <ele>130.8</ele>
        <time>2023-12-20T13:49:17Z</time>
      </trkpt>
      <trkpt lat="50.02129" lon="2.33913">
        <ele>130.8</ele>
        <time>2023-12-20T13:49:18Z</time>
      </trkpt>
      <trkpt lat="50.02131" lon="2.33913">
        <ele>130.8</ele>
        <time>2023-12-20T13:49:19Z</time>
      </trkpt>
      <trkpt lat="50.02132" lon="2.33913">
        <ele>130.8</ele>
        <time>2023-12-20T13:49:20Z</time>
      </trkpt>
      <trkpt lat="50.02133" lon="2.33913">
        <ele>130.8</ele>
        <time>2023-12-20T13:49:21Z</time>
      </trkpt>
      <trkpt lat="50.02135" lon="2.33913">
        <ele>130.9</ele>
        <time>2023-12-20T13:49:22Z</time>
      </trkpt>
      <trkpt lat="50.02136" lon="2.33913">
        <ele>130.9</ele>
        <time>2023-12-20T13:49:24Z</time>
      </trkpt>
      <trkpt lat="50.02137" lon="2.33913">
        <ele>130.9</ele>
        <time>2023-12-20T13:49:25Z</time>
      </trkpt>
      <trkpt lat="50.02138" lon="2.33913">
        <ele>130.9</ele>
        <time>2023-12-20T13:49:26Z</time>
      </trkpt>
      <trkpt lat="50.02139" lon="2.33913">
        <ele>130.9</ele>
        <time>2023-12-20T13:49:27Z</time>
      </trkpt>
      <trkpt lat="50.02141" lon="2.33912">
        <ele>130.9</ele>
        <time>2023-12-20T13:49:28Z</time>
      </trkpt>
      <trkpt lat="50.02142" lon="2.33912">
        <ele>130.9</ele>
        <time>2023-12-20T13:49:29Z</time>
      </trkpt>
      <trkpt lat="50.02143" lon="2.33912">
        <ele>130.9</ele>
        <time>2023-12-20T13:49:30Z</time>
      </trkpt>
      <trkpt lat="50.02145" lon="2.33912">
        <ele>130.9</ele>
        <time>2023-12-20T13:49:32Z</time>
      </trkpt>
      <trkpt lat="50.02146" lon="2.33912">
        <ele>130.9</ele>
        <time>2023-12-20T13:49:33Z</time>
      </trkpt>
      <trkpt lat="50.02147" lon="2.33912">
        <ele>130.9</ele>
        <time>2023-12-20T13:49:34Z</time>
      </trkpt>
      <trkpt lat="50.02149" lon="2.33912">
        <ele>131</ele>
        <time>2023-12-20T13:49:35Z</time>
      </trkpt>
      <trkpt lat="50.0215" lon="2.33912">
        <ele>131</ele>
        <time>2023-12-20T13:49:36Z</time>
      </trkpt>
      <trkpt lat="50.0215" lon="2.33912">
        <ele>131</ele>
        <time>2023-12-20T13:49:37Z</time>
      </trkpt>
      <trkpt lat="50.02152" lon="2.33911">
        <ele>131</ele>
        <time>2023-12-20T13:49:39Z</time>
      </trkpt>
      <trkpt lat="50.02153" lon="2.33911">
        <ele>131</ele>
        <time>2023-12-20T13:49:40Z</time>
      </trkpt>
      <trkpt lat="50.02155" lon="2.33911">
        <ele>131</ele>
        <time>2023-12-20T13:49:41Z</time>
      </trkpt>
      <trkpt lat="50.02156" lon="2.3391">
        <ele>131</ele>
        <time>2023-12-20T13:49:42Z</time>
      </trkpt>
      <trkpt lat="50.02157" lon="2.3391">
        <ele>131</ele>
        <time>2023-12-20T13:49:43Z</time>
      </trkpt>
      <trkpt lat="50.02158" lon="2.3391">
        <ele>131</ele>
        <time>2023-12-20T13:49:44Z</time>
      </trkpt>
      <trkpt lat="50.02159" lon="2.33909">
        <ele>131</ele>
        <time>2023-12-20T13:49:45Z</time>
      </trkpt>
      <trkpt lat="50.02161" lon="2.33909">
        <ele>131</ele>
        <time>2023-12-20T13:49:47Z</time>
      </trkpt>
      <trkpt lat="50.02163" lon="2.33909">
        <ele>131.1</ele>
        <time>2023-12-20T13:49:48Z</time>
      </trkpt>
      <trkpt lat="50.02164" lon="2.33908">
        <ele>131.1</ele>
        <time>2023-12-20T13:49:49Z</time>
      </trkpt>
      <trkpt lat="50.02165" lon="2.33908">
        <ele>131.1</ele>
        <time>2023-12-20T13:49:50Z</time>
      </trkpt>
      <trkpt lat="50.02166" lon="2.33908">
        <ele>131.1</ele>
        <time>2023-12-20T13:49:51Z</time>
      </trkpt>
      <trkpt lat="50.02167" lon="2.33908">
        <ele>131.1</ele>
        <time>2023-12-20T13:49:52Z</time>
      </trkpt>
      <trkpt lat="50.0217" lon="2.33907">
        <ele>131.1</ele>
        <time>2023-12-20T13:49:53Z</time>
      </trkpt>
      <trkpt lat="50.02171" lon="2.33907">
        <ele>131.1</ele>
        <time>2023-12-20T13:49:55Z</time>
      </trkpt>
      <trkpt lat="50.02172" lon="2.33907">
        <ele>131.1</ele>
        <time>2023-12-20T13:49:56Z</time>
      </trkpt>
      <trkpt lat="50.02173" lon="2.33907">
        <ele>131.1</ele>
        <time>2023-12-20T13:49:57Z</time>
      </trkpt>
      <trkpt lat="50.02174" lon="2.33907">
        <ele>131.1</ele>
        <time>2023-12-20T13:49:58Z</time>
      </trkpt>
      <trkpt lat="50.02175" lon="2.33906">
        <ele>131.2</ele>
        <time>2023-12-20T13:49:59Z</time>
      </trkpt>
      <trkpt lat="50.02177" lon="2.33906">
        <ele>131.2</ele>
        <time>2023-12-20T13:50:00Z</time>
      </trkpt>
      <trkpt lat="50.02178" lon="2.33905">
        <ele>131.2</ele>
        <time>2023-12-20T13:50:01Z</time>
      </trkpt>
      <trkpt lat="50.02179" lon="2.33905">
        <ele>131.2</ele>
        <time>2023-12-20T13:50:03Z</time>
      </trkpt>
      <trkpt lat="50.0218" lon="2.33904">
        <ele>131.2</ele>
        <time>2023-12-20T13:50:04Z</time>
      </trkpt>
      <trkpt lat="50.02181" lon="2.33904">
        <ele>131.2</ele>
        <time>2023-12-20T13:50:05Z</time>
      </trkpt>
      <trkpt lat="50.02182" lon="2.33904">
        <ele>131.2</ele>
        <time>2023-12-20T13:50:06Z</time>
      </trkpt>
      <trkpt lat="50.02183" lon="2.33904">
        <ele>131.2</ele>
        <time>2023-12-20T13:50:07Z</time>
      </trkpt>
      <trkpt lat="50.02184" lon="2.33904">
        <ele>131.2</ele>
        <time>2023-12-20T13:50:08Z</time>
      </trkpt>
      <trkpt lat="50.02185" lon="2.33904">
        <ele>131.2</ele>
        <time>2023-12-20T13:50:10Z</time>
      </trkpt>
      <trkpt lat="50.02187" lon="2.33904">
        <ele>131.2</ele>
        <time>2023-12-20T13:50:11Z</time>
      </trkpt>
      <trkpt lat="50.02189" lon="2.33904">
        <ele>131.2</ele>
        <time>2023-12-20T13:50:12Z</time>
      </trkpt>
      <trkpt lat="50.0219" lon="2.33904">
        <ele>131.3</ele>
        <time>2023-12-20T13:50:13Z</time>
      </trkpt>
      <trkpt lat="50.02191" lon="2.33904">
        <ele>131.3</ele>
        <time>2023-12-20T13:50:14Z</time>
      </trkpt>
      <trkpt lat="50.02193" lon="2.33904">
        <ele>131.3</ele>
        <time>2023-12-20T13:50:16Z</time>
      </trkpt>
      <trkpt lat="50.02193" lon="2.33904">
        <ele>131.3</ele>
        <time>2023-12-20T13:50:17Z</time>
      </trkpt>
      <trkpt lat="50.02194" lon="2.33904">
        <ele>131.3</ele>
        <time>2023-12-20T13:50:18Z</time>
      </trkpt>
      <trkpt lat="50.02196" lon="2.33904">
        <ele>131.3</ele>
        <time>2023-12-20T13:50:19Z</time>
      </trkpt>
      <trkpt lat="50.02197" lon="2.33904">
        <ele>131.3</ele>
        <time>2023-12-20T13:50:20Z</time>
      </trkpt>
      <trkpt lat="50.02199" lon="2.33904">
        <ele>131.3</ele>
        <time>2023-12-20T13:50:21Z</time>
      </trkpt>
      <trkpt lat="50.022" lon="2.33904">
        <ele>131.3</ele>
        <time>2023-12-20T13:50:22Z</time>
      </trkpt>
      <trkpt lat="50.02203" lon="2.33903">
        <ele>131.4</ele>
        <time>2023-12-20T13:50:23Z</time>
      </trkpt>
      <trkpt lat="50.02204" lon="2.33902">
        <ele>131.4</ele>
        <time>2023-12-20T13:50:25Z</time>
      </trkpt>
      <trkpt lat="50.02205" lon="2.33902">
        <ele>131.4</ele>
        <time>2023-12-20T13:50:26Z</time>
      </trkpt>
      <trkpt lat="50.02206" lon="2.33902">
        <ele>131.4</ele>
        <time>2023-12-20T13:50:27Z</time>
      </trkpt>
      <trkpt lat="50.02207" lon="2.33902">
        <ele>131.4</ele>
        <time>2023-12-20T13:50:28Z</time>
      </trkpt>
      <trkpt lat="50.02209" lon="2.33901">
        <ele>131.4</ele>
        <time>2023-12-20T13:50:29Z</time>
      </trkpt>
      <trkpt lat="50.0221" lon="2.33901">
        <ele>131.4</ele>
        <time>2023-12-20T13:50:30Z</time>
      </trkpt>
      <trkpt lat="50.02212" lon="2.33901">
        <ele>131.4</ele>
        <time>2023-12-20T13:50:31Z</time>
      </trkpt>
      <trkpt lat="50.02213" lon="2.339">
        <ele>131.4</ele>
        <time>2023-12-20T13:50:32Z</time>
      </trkpt>
      <trkpt lat="50.02215" lon="2.339">
        <ele>131.4</ele>
        <time>2023-12-20T13:50:34Z</time>
      </trkpt>
      <trkpt lat="50.02216" lon="2.339">
        <ele>131.4</ele>
        <time>2023-12-20T13:50:35Z</time>
      </trkpt>
      <trkpt lat="50.02217" lon="2.339">
        <ele>131.5</ele>
        <time>2023-12-20T13:50:36Z</time>
      </trkpt>
      <trkpt lat="50.02218" lon="2.339">
        <ele>131.5</ele>
        <time>2023-12-20T13:50:37Z</time>
      </trkpt>
      <trkpt lat="50.02219" lon="2.339">
        <ele>131.5</ele>
        <time>2023-12-20T13:50:38Z</time>
      </trkpt>
      <trkpt lat="50.0222" lon="2.339">
        <ele>131.5</ele>
        <time>2023-12-20T13:50:39Z</time>
      </trkpt>
      <trkpt lat="50.02221" lon="2.339">
        <ele>131.5</ele>
        <time>2023-12-20T13:50:40Z</time>
      </trkpt>
      <trkpt lat="50.02223" lon="2.339">
        <ele>131.5</ele>
        <time>2023-12-20T13:50:41Z</time>
      </trkpt>
      <trkpt lat="50.02224" lon="2.339">
        <ele>131.5</ele>
        <time>2023-12-20T13:50:43Z</time>
      </trkpt>
      <trkpt lat="50.02225" lon="2.33901">
        <ele>131.5</ele>
        <time>2023-12-20T13:50:44Z</time>
      </trkpt>
      <trkpt lat="50.02226" lon="2.33901">
        <ele>131.5</ele>
        <time>2023-12-20T13:50:45Z</time>
      </trkpt>
      <trkpt lat="50.02227" lon="2.33901">
        <ele>131.5</ele>
        <time>2023-12-20T13:50:46Z</time>
      </trkpt>
      <trkpt lat="50.02228" lon="2.33901">
        <ele>131.5</ele>
        <time>2023-12-20T13:50:47Z</time>
      </trkpt>
      <trkpt lat="50.02229" lon="2.33901">
        <ele>131.5</ele>
        <time>2023-12-20T13:50:48Z</time>
      </trkpt>
      <trkpt lat="50.02231" lon="2.33901">
        <ele>131.6</ele>
        <time>2023-12-20T13:50:49Z</time>
      </trkpt>
      <trkpt lat="50.02232" lon="2.33901">
        <ele>131.6</ele>
        <time>2023-12-20T13:50:50Z</time>
      </trkpt>
      <trkpt lat="50.02233" lon="2.33901">
        <ele>131.6</ele>
        <time>2023-12-20T13:50:52Z</time>
      </trkpt>
      <trkpt lat="50.02234" lon="2.33901">
        <ele>131.6</ele>
        <time>2023-12-20T13:50:53Z</time>
      </trkpt>
      <trkpt lat="50.02235" lon="2.33901">
        <ele>131.6</ele>
        <time>2023-12-20T13:50:54Z</time>
      </trkpt>
      <trkpt lat="50.02236" lon="2.33901">
        <ele>131.6</ele>
        <time>2023-12-20T13:50:55Z</time>
      </trkpt>
      <trkpt lat="50.02238" lon="2.33901">
        <ele>131.6</ele>
        <time>2023-12-20T13:50:56Z</time>
      </trkpt>
      <trkpt lat="50.02239" lon="2.339">
        <ele>131.6</ele>
        <time>2023-12-20T13:50:57Z</time>
      </trkpt>
      <trkpt lat="50.0224" lon="2.339">
        <ele>131.6</ele>
        <time>2023-12-20T13:50:58Z</time>
      </trkpt>
      <trkpt lat="50.02242" lon="2.339">
        <ele>131.6</ele>
        <time>2023-12-20T13:50:59Z</time>
      </trkpt>
      <trkpt lat="50.02244" lon="2.339">
        <ele>131.6</ele>
        <time>2023-12-20T13:51:01Z</time>
      </trkpt>
      <trkpt lat="50.02246" lon="2.339">
        <ele>131.7</ele>
        <time>2023-12-20T13:51:02Z</time>
      </trkpt>
      <trkpt lat="50.02248" lon="2.339">
        <ele>131.7</ele>
        <time>2023-12-20T13:51:03Z</time>
      </trkpt>
      <trkpt lat="50.02249" lon="2.339">
        <ele>131.7</ele>
        <time>2023-12-20T13:51:04Z</time>
      </trkpt>
      <trkpt lat="50.02251" lon="2.33901">
        <ele>131.7</ele>
        <time>2023-12-20T13:51:05Z</time>
      </trkpt>
      <trkpt lat="50.02252" lon="2.33901">
        <ele>131.7</ele>
        <time>2023-12-20T13:51:06Z</time>
      </trkpt>
      <trkpt lat="50.02254" lon="2.33902">
        <ele>131.7</ele>
        <time>2023-12-20T13:51:07Z</time>
      </trkpt>
      <trkpt lat="50.02255" lon="2.33902">
        <ele>131.7</ele>
        <time>2023-12-20T13:51:08Z</time>
      </trkpt>
      <trkpt lat="50.02257" lon="2.33902">
        <ele>131.7</ele>
        <time>2023-12-20T13:51:09Z</time>
      </trkpt>
      <trkpt lat="50.02258" lon="2.33903">
        <ele>131.7</ele>
        <time>2023-12-20T13:51:11Z</time>
      </trkpt>
      <trkpt lat="50.02259" lon="2.33903">
        <ele>131.8</ele>
        <time>2023-12-20T13:51:12Z</time>
      </trkpt>
      <trkpt lat="50.0226" lon="2.33903">
        <ele>131.8</ele>
        <time>2023-12-20T13:51:13Z</time>
      </trkpt>
      <trkpt lat="50.02261" lon="2.33903">
        <ele>131.8</ele>
        <time>2023-12-20T13:51:14Z</time>
      </trkpt>
      <trkpt lat="50.02262" lon="2.33903">
        <ele>131.8</ele>
        <time>2023-12-20T13:51:15Z</time>
      </trkpt>
      <trkpt lat="50.02263" lon="2.33903">
        <ele>131.8</ele>
        <time>2023-12-20T13:51:16Z</time>
      </trkpt>
      <trkpt lat="50.02264" lon="2.33903">
        <ele>131.8</ele>
        <time>2023-12-20T13:51:17Z</time>
      </trkpt>
      <trkpt lat="50.02264" lon="2.33903">
        <ele>131.8</ele>
        <time>2023-12-20T13:51:18Z</time>
      </trkpt>
      <trkpt lat="50.02265" lon="2.33903">
        <ele>131.8</ele>
        <time>2023-12-20T13:51:20Z</time>
      </trkpt>
      <trkpt lat="50.02266" lon="2.33903">
        <ele>131.8</ele>
        <time>2023-12-20T13:51:21Z</time>
      </trkpt>
      <trkpt lat="50.02267" lon="2.33903">
        <ele>131.8</ele>
        <time>2023-12-20T13:51:22Z</time>
      </trkpt>
      <trkpt lat="50.02269" lon="2.33902">
        <ele>131.8</ele>
        <time>2023-12-20T13:51:23Z</time>
      </trkpt>
      <trkpt lat="50.0227" lon="2.33902">
        <ele>131.8</ele>
        <time>2023-12-20T13:51:24Z</time>
      </trkpt>
      <trkpt lat="50.02271" lon="2.33902">
        <ele>131.8</ele>
        <time>2023-12-20T13:51:25Z</time>
      </trkpt>
      <trkpt lat="50.02272" lon="2.33901">
        <ele>131.8</ele>
        <time>2023-12-20T13:51:26Z</time>
      </trkpt>
      <trkpt lat="50.02273" lon="2.33901">
        <ele>131.9</ele>
        <time>2023-12-20T13:51:27Z</time>
      </trkpt>
      <trkpt lat="50.02274" lon="2.33901">
        <ele>131.9</ele>
        <time>2023-12-20T13:51:28Z</time>
      </trkpt>
      <trkpt lat="50.02274" lon="2.33901">
        <ele>131.9</ele>
        <time>2023-12-20T13:51:30Z</time>
      </trkpt>
      <trkpt lat="50.02275" lon="2.339">
        <ele>131.9</ele>
        <time>2023-12-20T13:51:31Z</time>
      </trkpt>
      <trkpt lat="50.02276" lon="2.339">
        <ele>131.9</ele>
        <time>2023-12-20T13:51:32Z</time>
      </trkpt>
      <trkpt lat="50.02277" lon="2.339">
        <ele>131.9</ele>
        <time>2023-12-20T13:51:33Z</time>
      </trkpt>
      <trkpt lat="50.02278" lon="2.339">
        <ele>131.9</ele>
        <time>2023-12-20T13:51:34Z</time>
      </trkpt>
      <trkpt lat="50.02279" lon="2.339">
        <ele>131.9</ele>
        <time>2023-12-20T13:51:35Z</time>
      </trkpt>
      <trkpt lat="50.02281" lon="2.339">
        <ele>131.9</ele>
        <time>2023-12-20T13:51:36Z</time>
      </trkpt>
      <trkpt lat="50.02282" lon="2.339">
        <ele>131.9</ele>
        <time>2023-12-20T13:51:37Z</time>
      </trkpt>
      <trkpt lat="50.02283" lon="2.339">
        <ele>131.9</ele>
        <time>2023-12-20T13:51:38Z</time>
      </trkpt>
      <trkpt lat="50.02284" lon="2.33899">
        <ele>131.9</ele>
        <time>2023-12-20T13:51:39Z</time>
      </trkpt>
      <trkpt lat="50.02285" lon="2.33899">
        <ele>131.9</ele>
        <time>2023-12-20T13:51:40Z</time>
      </trkpt>
      <trkpt lat="50.02286" lon="2.33899">
        <ele>132</ele>
        <time>2023-12-20T13:51:42Z</time>
      </trkpt>
      <trkpt lat="50.02287" lon="2.33899">
        <ele>132</ele>
        <time>2023-12-20T13:51:43Z</time>
      </trkpt>
      <trkpt lat="50.02289" lon="2.33898">
        <ele>132</ele>
        <time>2023-12-20T13:51:44Z</time>
      </trkpt>
      <trkpt lat="50.0229" lon="2.33898">
        <ele>132</ele>
        <time>2023-12-20T13:51:45Z</time>
      </trkpt>
      <trkpt lat="50.02291" lon="2.33898">
        <ele>132</ele>
        <time>2023-12-20T13:51:46Z</time>
      </trkpt>
      <trkpt lat="50.02292" lon="2.33898">
        <ele>132</ele>
        <time>2023-12-20T13:51:48Z</time>
      </trkpt>
      <trkpt lat="50.02293" lon="2.33898">
        <ele>132</ele>
        <time>2023-12-20T13:51:49Z</time>
      </trkpt>
      <trkpt lat="50.02295" lon="2.33898">
        <ele>132</ele>
        <time>2023-12-20T13:51:50Z</time>
      </trkpt>
      <trkpt lat="50.02297" lon="2.33898">
        <ele>132</ele>
        <time>2023-12-20T13:51:51Z</time>
      </trkpt>
      <trkpt lat="50.02298" lon="2.33898">
        <ele>132</ele>
        <time>2023-12-20T13:51:52Z</time>
      </trkpt>
      <trkpt lat="50.02299" lon="2.33898">
        <ele>132</ele>
        <time>2023-12-20T13:51:53Z</time>
      </trkpt>
      <trkpt lat="50.023" lon="2.33898">
        <ele>132.1</ele>
        <time>2023-12-20T13:51:54Z</time>
      </trkpt>
      <trkpt lat="50.02302" lon="2.33898">
        <ele>132.1</ele>
        <time>2023-12-20T13:51:55Z</time>
      </trkpt>
      <trkpt lat="50.02305" lon="2.33898">
        <ele>132.1</ele>
        <time>2023-12-20T13:51:56Z</time>
      </trkpt>
      <trkpt lat="50.02306" lon="2.33898">
        <ele>132.1</ele>
        <time>2023-12-20T13:51:58Z</time>
      </trkpt>
      <trkpt lat="50.02308" lon="2.33898">
        <ele>132.1</ele>
        <time>2023-12-20T13:51:59Z</time>
      </trkpt>
      <trkpt lat="50.02309" lon="2.33898">
        <ele>132.1</ele>
        <time>2023-12-20T13:52:00Z</time>
      </trkpt>
      <trkpt lat="50.0231" lon="2.33898">
        <ele>132.1</ele>
        <time>2023-12-20T13:52:02Z</time>
      </trkpt>
      <trkpt lat="50.02312" lon="2.33898">
        <ele>132.1</ele>
        <time>2023-12-20T13:52:03Z</time>
      </trkpt>
      <trkpt lat="50.02313" lon="2.33898">
        <ele>132.1</ele>
        <time>2023-12-20T13:52:04Z</time>
      </trkpt>
      <trkpt lat="50.02315" lon="2.33898">
        <ele>132.2</ele>
        <time>2023-12-20T13:52:05Z</time>
      </trkpt>
      <trkpt lat="50.02316" lon="2.33898">
        <ele>132.2</ele>
        <time>2023-12-20T13:52:06Z</time>
      </trkpt>
      <trkpt lat="50.02317" lon="2.33899">
        <ele>132.2</ele>
        <time>2023-12-20T13:52:07Z</time>
      </trkpt>
      <trkpt lat="50.02318" lon="2.33899">
        <ele>132.2</ele>
        <time>2023-12-20T13:52:09Z</time>
      </trkpt>
      <trkpt lat="50.02319" lon="2.33899">
        <ele>132.2</ele>
        <time>2023-12-20T13:52:10Z</time>
      </trkpt>
      <trkpt lat="50.0232" lon="2.33899">
        <ele>132.2</ele>
        <time>2023-12-20T13:52:11Z</time>
      </trkpt>
      <trkpt lat="50.02322" lon="2.33899">
        <ele>132.2</ele>
        <time>2023-12-20T13:52:12Z</time>
      </trkpt>
      <trkpt lat="50.02323" lon="2.33899">
        <ele>132.2</ele>
        <time>2023-12-20T13:52:13Z</time>
      </trkpt>
      <trkpt lat="50.02324" lon="2.33899">
        <ele>132.2</ele>
        <time>2023-12-20T13:52:15Z</time>
      </trkpt>
      <trkpt lat="50.02325" lon="2.33898">
        <ele>132.2</ele>
        <time>2023-12-20T13:52:17Z</time>
      </trkpt>
      <trkpt lat="50.02326" lon="2.33898">
        <ele>132.2</ele>
        <time>2023-12-20T13:52:18Z</time>
      </trkpt>
      <trkpt lat="50.02327" lon="2.33898">
        <ele>132.3</ele>
        <time>2023-12-20T13:52:19Z</time>
      </trkpt>
      <trkpt lat="50.02328" lon="2.33898">
        <ele>132.3</ele>
        <time>2023-12-20T13:52:20Z</time>
      </trkpt>
      <trkpt lat="50.02329" lon="2.33898">
        <ele>132.3</ele>
        <time>2023-12-20T13:52:21Z</time>
      </trkpt>
      <trkpt lat="50.02331" lon="2.33899">
        <ele>132.3</ele>
        <time>2023-12-20T13:52:23Z</time>
      </trkpt>
      <trkpt lat="50.02331" lon="2.33899">
        <ele>132.3</ele>
        <time>2023-12-20T13:52:25Z</time>
      </trkpt>
      <trkpt lat="50.02332" lon="2.33899">
        <ele>132.3</ele>
        <time>2023-12-20T13:52:26Z</time>
      </trkpt>
      <trkpt lat="50.02333" lon="2.33898">
        <ele>132.3</ele>
        <time>2023-12-20T13:52:27Z</time>
      </trkpt>
      <trkpt lat="50.02334" lon="2.33898">
        <ele>132.3</ele>
        <time>2023-12-20T13:52:30Z</time>
      </trkpt>
      <trkpt lat="50.02334" lon="2.33898">
        <ele>132.3</ele>
        <time>2023-12-20T13:52:31Z</time>
      </trkpt>
      <trkpt lat="50.02334" lon="2.33898">
        <ele>132.3</ele>
        <time>2023-12-20T13:52:33Z</time>
      </trkpt>
      <trkpt lat="50.02334" lon="2.33898">
        <ele>132.3</ele>
        <time>2023-12-20T13:52:35Z</time>
      </trkpt>
      <trkpt lat="50.02334" lon="2.33898">
        <ele>132.3</ele>
        <time>2023-12-20T13:52:36Z</time>
      </trkpt>
      <trkpt lat="50.02334" lon="2.33898">
        <ele>132.3</ele>
        <time>2023-12-20T13:52:37Z</time>
      </trkpt>
      <trkpt lat="50.02334" lon="2.33898">
        <ele>132.3</ele>
        <time>2023-12-20T13:52:39Z</time>
      </trkpt>
      <trkpt lat="50.02334" lon="2.33898">
        <ele>132.3</ele>
        <time>2023-12-20T13:52:40Z</time>
      </trkpt>
      <trkpt lat="50.02334" lon="2.33898">
        <ele>132.3</ele>
        <time>2023-12-20T13:52:42Z</time>
      </trkpt>
      <trkpt lat="50.02334" lon="2.33898">
        <ele>132.3</ele>
        <time>2023-12-20T13:52:43Z</time>
      </trkpt>
      <trkpt lat="50.02333" lon="2.33898">
        <ele>132.3</ele>
        <time>2023-12-20T13:52:44Z</time>
      </trkpt>
      <trkpt lat="50.02333" lon="2.33898">
        <ele>132.3</ele>
        <time>2023-12-20T13:52:46Z</time>
      </trkpt>
      <trkpt lat="50.02333" lon="2.33898">
        <ele>132.3</ele>
        <time>2023-12-20T13:52:48Z</time>
      </trkpt>
      <trkpt lat="50.02333" lon="2.33898">
        <ele>132.3</ele>
        <time>2023-12-20T13:52:49Z</time>
      </trkpt>
      <trkpt lat="50.02333" lon="2.33898">
        <ele>132.3</ele>
        <time>2023-12-20T13:52:50Z</time>
      </trkpt>
      <trkpt lat="50.02333" lon="2.33898">
        <ele>132.3</ele>
        <time>2023-12-20T13:52:51Z</time>
      </trkpt>
      <trkpt lat="50.02333" lon="2.33898">
        <ele>132.3</ele>
        <time>2023-12-20T13:52:52Z</time>
      </trkpt>
      <trkpt lat="50.0233" lon="2.33904">
        <ele>132.4</ele>
        <time>2023-12-20T13:54:19Z</time>
      </trkpt>
      <trkpt lat="50.0233" lon="2.33905">
        <ele>132.5</ele>
        <time>2023-12-20T13:54:20Z</time>
      </trkpt>
      <trkpt lat="50.0233" lon="2.33906">
        <ele>132.5</ele>
        <time>2023-12-20T13:54:22Z</time>
      </trkpt>
      <trkpt lat="50.02331" lon="2.33907">
        <ele>132.5</ele>
        <time>2023-12-20T13:54:23Z</time>
      </trkpt>
      <trkpt lat="50.02332" lon="2.3391">
        <ele>132.5</ele>
        <time>2023-12-20T13:54:24Z</time>
      </trkpt>
      <trkpt lat="50.02333" lon="2.33911">
        <ele>132.6</ele>
        <time>2023-12-20T13:54:25Z</time>
      </trkpt>
      <trkpt lat="50.02333" lon="2.33912">
        <ele>132.6</ele>
        <time>2023-12-20T13:54:26Z</time>
      </trkpt>
      <trkpt lat="50.02334" lon="2.33915">
        <ele>132.6</ele>
        <time>2023-12-20T13:54:27Z</time>
      </trkpt>
      <trkpt lat="50.02335" lon="2.33916">
        <ele>132.7</ele>
        <time>2023-12-20T13:54:29Z</time>
      </trkpt>
      <trkpt lat="50.02335" lon="2.33918">
        <ele>132.7</ele>
        <time>2023-12-20T13:54:30Z</time>
      </trkpt>
      <trkpt lat="50.02336" lon="2.33919">
        <ele>132.7</ele>
        <time>2023-12-20T13:54:31Z</time>
      </trkpt>
      <trkpt lat="50.02336" lon="2.33921">
        <ele>132.7</ele>
        <time>2023-12-20T13:54:32Z</time>
      </trkpt>
      <trkpt lat="50.02336" lon="2.33922">
        <ele>132.8</ele>
        <time>2023-12-20T13:54:33Z</time>
      </trkpt>
      <trkpt lat="50.02337" lon="2.33924">
        <ele>132.8</ele>
        <time>2023-12-20T13:54:34Z</time>
      </trkpt>
      <trkpt lat="50.02337" lon="2.33926">
        <ele>132.8</ele>
        <time>2023-12-20T13:54:36Z</time>
      </trkpt>
      <trkpt lat="50.02337" lon="2.33928">
        <ele>132.8</ele>
        <time>2023-12-20T13:54:37Z</time>
      </trkpt>
      <trkpt lat="50.02338" lon="2.33929">
        <ele>132.9</ele>
        <time>2023-12-20T13:54:38Z</time>
      </trkpt>
      <trkpt lat="50.02338" lon="2.33931">
        <ele>132.9</ele>
        <time>2023-12-20T13:54:39Z</time>
      </trkpt>
      <trkpt lat="50.02338" lon="2.33933">
        <ele>132.9</ele>
        <time>2023-12-20T13:54:41Z</time>
      </trkpt>
      <trkpt lat="50.02339" lon="2.33934">
        <ele>132.9</ele>
        <time>2023-12-20T13:54:42Z</time>
      </trkpt>
      <trkpt lat="50.02339" lon="2.33935">
        <ele>132.9</ele>
        <time>2023-12-20T13:54:43Z</time>
      </trkpt>
      <trkpt lat="50.02339" lon="2.33937">
        <ele>133</ele>
        <time>2023-12-20T13:54:44Z</time>
      </trkpt>
      <trkpt lat="50.0234" lon="2.33938">
        <ele>133</ele>
        <time>2023-12-20T13:54:45Z</time>
      </trkpt>
      <trkpt lat="50.0234" lon="2.3394">
        <ele>133</ele>
        <time>2023-12-20T13:54:46Z</time>
      </trkpt>
      <trkpt lat="50.02341" lon="2.33943">
        <ele>133.1</ele>
        <time>2023-12-20T13:54:47Z</time>
      </trkpt>
      <trkpt lat="50.02341" lon="2.33944">
        <ele>133.1</ele>
        <time>2023-12-20T13:54:49Z</time>
      </trkpt>
      <trkpt lat="50.02342" lon="2.33946">
        <ele>133.1</ele>
        <time>2023-12-20T13:54:50Z</time>
      </trkpt>
      <trkpt lat="50.02342" lon="2.33947">
        <ele>133.1</ele>
        <time>2023-12-20T13:54:51Z</time>
      </trkpt>
      <trkpt lat="50.02343" lon="2.33949">
        <ele>133.1</ele>
        <time>2023-12-20T13:54:52Z</time>
      </trkpt>
      <trkpt lat="50.02343" lon="2.3395">
        <ele>133.1</ele>
        <time>2023-12-20T13:54:53Z</time>
      </trkpt>
      <trkpt lat="50.02344" lon="2.33952">
        <ele>133.1</ele>
        <time>2023-12-20T13:54:54Z</time>
      </trkpt>
      <trkpt lat="50.02344" lon="2.33953">
        <ele>133.2</ele>
        <time>2023-12-20T13:54:56Z</time>
      </trkpt>
      <trkpt lat="50.02344" lon="2.33955">
        <ele>133.2</ele>
        <time>2023-12-20T13:54:57Z</time>
      </trkpt>
      <trkpt lat="50.02345" lon="2.33958">
        <ele>133.2</ele>
        <time>2023-12-20T13:54:58Z</time>
      </trkpt>
      <trkpt lat="50.02345" lon="2.33959">
        <ele>133.2</ele>
        <time>2023-12-20T13:54:59Z</time>
      </trkpt>
      <trkpt lat="50.02345" lon="2.3396">
        <ele>133.2</ele>
        <time>2023-12-20T13:55:00Z</time>
      </trkpt>
      <trkpt lat="50.02346" lon="2.33963">
        <ele>133.3</ele>
        <time>2023-12-20T13:55:01Z</time>
      </trkpt>
      <trkpt lat="50.02347" lon="2.33964">
        <ele>133.3</ele>
        <time>2023-12-20T13:55:02Z</time>
      </trkpt>
      <trkpt lat="50.02347" lon="2.33966">
        <ele>133.3</ele>
        <time>2023-12-20T13:55:04Z</time>
      </trkpt>
      <trkpt lat="50.02347" lon="2.33967">
        <ele>133.3</ele>
        <time>2023-12-20T13:55:05Z</time>
      </trkpt>
      <trkpt lat="50.02348" lon="2.33968">
        <ele>133.3</ele>
        <time>2023-12-20T13:55:06Z</time>
      </trkpt>
      <trkpt lat="50.02348" lon="2.3397">
        <ele>133.3</ele>
        <time>2023-12-20T13:55:07Z</time>
      </trkpt>
      <trkpt lat="50.02349" lon="2.33972">
        <ele>133.3</ele>
        <time>2023-12-20T13:55:08Z</time>
      </trkpt>
      <trkpt lat="50.02349" lon="2.33973">
        <ele>133.4</ele>
        <time>2023-12-20T13:55:09Z</time>
      </trkpt>
      <trkpt lat="50.02349" lon="2.33975">
        <ele>133.4</ele>
        <time>2023-12-20T13:55:10Z</time>
      </trkpt>
      <trkpt lat="50.0235" lon="2.33977">
        <ele>133.4</ele>
        <time>2023-12-20T13:55:11Z</time>
      </trkpt>
      <trkpt lat="50.0235" lon="2.33979">
        <ele>133.4</ele>
        <time>2023-12-20T13:55:12Z</time>
      </trkpt>
      <trkpt lat="50.0235" lon="2.3398">
        <ele>133.4</ele>
        <time>2023-12-20T13:55:14Z</time>
      </trkpt>
      <trkpt lat="50.0235" lon="2.33982">
        <ele>133.4</ele>
        <time>2023-12-20T13:55:15Z</time>
      </trkpt>
      <trkpt lat="50.0235" lon="2.33984">
        <ele>133.4</ele>
        <time>2023-12-20T13:55:16Z</time>
      </trkpt>
      <trkpt lat="50.02351" lon="2.33985">
        <ele>133.4</ele>
        <time>2023-12-20T13:55:17Z</time>
      </trkpt>
      <trkpt lat="50.02351" lon="2.33987">
        <ele>133.5</ele>
        <time>2023-12-20T13:55:18Z</time>
      </trkpt>
      <trkpt lat="50.02351" lon="2.33989">
        <ele>133.5</ele>
        <time>2023-12-20T13:55:19Z</time>
      </trkpt>
      <trkpt lat="50.02352" lon="2.3399">
        <ele>133.5</ele>
        <time>2023-12-20T13:55:20Z</time>
      </trkpt>
      <trkpt lat="50.02352" lon="2.33994">
        <ele>133.5</ele>
        <time>2023-12-20T13:55:22Z</time>
      </trkpt>
      <trkpt lat="50.02353" lon="2.33995">
        <ele>133.5</ele>
        <time>2023-12-20T13:55:23Z</time>
      </trkpt>
      <trkpt lat="50.02353" lon="2.33998">
        <ele>133.5</ele>
        <time>2023-12-20T13:55:25Z</time>
      </trkpt>
      <trkpt lat="50.02354" lon="2.33999">
        <ele>133.5</ele>
        <time>2023-12-20T13:55:26Z</time>
      </trkpt>
      <trkpt lat="50.02354" lon="2.34">
        <ele>133.5</ele>
        <time>2023-12-20T13:55:27Z</time>
      </trkpt>
      <trkpt lat="50.02355" lon="2.34002">
        <ele>133.5</ele>
        <time>2023-12-20T13:55:28Z</time>
      </trkpt>
      <trkpt lat="50.02355" lon="2.34003">
        <ele>133.6</ele>
        <time>2023-12-20T13:55:29Z</time>
      </trkpt>
      <trkpt lat="50.02356" lon="2.34005">
        <ele>133.6</ele>
        <time>2023-12-20T13:55:30Z</time>
      </trkpt>
      <trkpt lat="50.02356" lon="2.34008">
        <ele>133.6</ele>
        <time>2023-12-20T13:55:31Z</time>
      </trkpt>
      <trkpt lat="50.02357" lon="2.34009">
        <ele>133.6</ele>
        <time>2023-12-20T13:55:33Z</time>
      </trkpt>
      <trkpt lat="50.02357" lon="2.3401">
        <ele>133.6</ele>
        <time>2023-12-20T13:55:34Z</time>
      </trkpt>
      <trkpt lat="50.02357" lon="2.34012">
        <ele>133.6</ele>
        <time>2023-12-20T13:55:35Z</time>
      </trkpt>
      <trkpt lat="50.02358" lon="2.34014">
        <ele>133.6</ele>
        <time>2023-12-20T13:55:36Z</time>
      </trkpt>
      <trkpt lat="50.02358" lon="2.34015">
        <ele>133.6</ele>
        <time>2023-12-20T13:55:37Z</time>
      </trkpt>
      <trkpt lat="50.02358" lon="2.34017">
        <ele>133.7</ele>
        <time>2023-12-20T13:55:38Z</time>
      </trkpt>
      <trkpt lat="50.02359" lon="2.34019">
        <ele>133.7</ele>
        <time>2023-12-20T13:55:39Z</time>
      </trkpt>
      <trkpt lat="50.02359" lon="2.34021">
        <ele>133.7</ele>
        <time>2023-12-20T13:55:41Z</time>
      </trkpt>
      <trkpt lat="50.02359" lon="2.34023">
        <ele>133.7</ele>
        <time>2023-12-20T13:55:42Z</time>
      </trkpt>
      <trkpt lat="50.0236" lon="2.34025">
        <ele>133.7</ele>
        <time>2023-12-20T13:55:43Z</time>
      </trkpt>
      <trkpt lat="50.0236" lon="2.34026">
        <ele>133.7</ele>
        <time>2023-12-20T13:55:44Z</time>
      </trkpt>
      <trkpt lat="50.02361" lon="2.34027">
        <ele>133.7</ele>
        <time>2023-12-20T13:55:45Z</time>
      </trkpt>
      <trkpt lat="50.02361" lon="2.34029">
        <ele>133.8</ele>
        <time>2023-12-20T13:55:46Z</time>
      </trkpt>
      <trkpt lat="50.02362" lon="2.3403">
        <ele>133.8</ele>
        <time>2023-12-20T13:55:47Z</time>
      </trkpt>
      <trkpt lat="50.02363" lon="2.34031">
        <ele>133.8</ele>
        <time>2023-12-20T13:55:49Z</time>
      </trkpt>
      <trkpt lat="50.02363" lon="2.34033">
        <ele>133.8</ele>
        <time>2023-12-20T13:55:50Z</time>
      </trkpt>
      <trkpt lat="50.02364" lon="2.34034">
        <ele>133.8</ele>
        <time>2023-12-20T13:55:51Z</time>
      </trkpt>
      <trkpt lat="50.02364" lon="2.34036">
        <ele>133.8</ele>
        <time>2023-12-20T13:55:52Z</time>
      </trkpt>
      <trkpt lat="50.02365" lon="2.34038">
        <ele>133.9</ele>
        <time>2023-12-20T13:55:54Z</time>
      </trkpt>
      <trkpt lat="50.02365" lon="2.3404">
        <ele>133.9</ele>
        <time>2023-12-20T13:55:55Z</time>
      </trkpt>
      <trkpt lat="50.02365" lon="2.34042">
        <ele>133.9</ele>
        <time>2023-12-20T13:55:56Z</time>
      </trkpt>
      <trkpt lat="50.02366" lon="2.34043">
        <ele>133.9</ele>
        <time>2023-12-20T13:55:58Z</time>
      </trkpt>
      <trkpt lat="50.02366" lon="2.34045">
        <ele>133.9</ele>
        <time>2023-12-20T13:55:59Z</time>
      </trkpt>
      <trkpt lat="50.02367" lon="2.34047">
        <ele>134</ele>
        <time>2023-12-20T13:56:00Z</time>
      </trkpt>
      <trkpt lat="50.02367" lon="2.34048">
        <ele>134</ele>
        <time>2023-12-20T13:56:01Z</time>
      </trkpt>
      <trkpt lat="50.02367" lon="2.34051">
        <ele>134</ele>
        <time>2023-12-20T13:56:02Z</time>
      </trkpt>
      <trkpt lat="50.02368" lon="2.34053">
        <ele>134</ele>
        <time>2023-12-20T13:56:03Z</time>
      </trkpt>
      <trkpt lat="50.02368" lon="2.34054">
        <ele>134</ele>
        <time>2023-12-20T13:56:05Z</time>
      </trkpt>
      <trkpt lat="50.02368" lon="2.34056">
        <ele>134.1</ele>
        <time>2023-12-20T13:56:06Z</time>
      </trkpt>
      <trkpt lat="50.02368" lon="2.34058">
        <ele>134.1</ele>
        <time>2023-12-20T13:56:07Z</time>
      </trkpt>
      <trkpt lat="50.02368" lon="2.34059">
        <ele>134.1</ele>
        <time>2023-12-20T13:56:08Z</time>
      </trkpt>
      <trkpt lat="50.02369" lon="2.34061">
        <ele>134.1</ele>
        <time>2023-12-20T13:56:09Z</time>
      </trkpt>
      <trkpt lat="50.0237" lon="2.34062">
        <ele>134.1</ele>
        <time>2023-12-20T13:56:10Z</time>
      </trkpt>
      <trkpt lat="50.0237" lon="2.34064">
        <ele>134.1</ele>
        <time>2023-12-20T13:56:11Z</time>
      </trkpt>
      <trkpt lat="50.02371" lon="2.34065">
        <ele>134.1</ele>
        <time>2023-12-20T13:56:12Z</time>
      </trkpt>
      <trkpt lat="50.02371" lon="2.34066">
        <ele>134.2</ele>
        <time>2023-12-20T13:56:13Z</time>
      </trkpt>
      <trkpt lat="50.02372" lon="2.34068">
        <ele>134.2</ele>
        <time>2023-12-20T13:56:15Z</time>
      </trkpt>
      <trkpt lat="50.02372" lon="2.34069">
        <ele>134.2</ele>
        <time>2023-12-20T13:56:16Z</time>
      </trkpt>
      <trkpt lat="50.02373" lon="2.34071">
        <ele>134.2</ele>
        <time>2023-12-20T13:56:17Z</time>
      </trkpt>
      <trkpt lat="50.02374" lon="2.34072">
        <ele>134.2</ele>
        <time>2023-12-20T13:56:18Z</time>
      </trkpt>
      <trkpt lat="50.02374" lon="2.34073">
        <ele>134.2</ele>
        <time>2023-12-20T13:56:19Z</time>
      </trkpt>
      <trkpt lat="50.02375" lon="2.34075">
        <ele>134.2</ele>
        <time>2023-12-20T13:56:20Z</time>
      </trkpt>
      <trkpt lat="50.02375" lon="2.34076">
        <ele>134.2</ele>
        <time>2023-12-20T13:56:21Z</time>
      </trkpt>
      <trkpt lat="50.02376" lon="2.34077">
        <ele>134.2</ele>
        <time>2023-12-20T13:56:23Z</time>
      </trkpt>
      <trkpt lat="50.02376" lon="2.34079">
        <ele>134.2</ele>
        <time>2023-12-20T13:56:24Z</time>
      </trkpt>
      <trkpt lat="50.02377" lon="2.3408">
        <ele>134.2</ele>
        <time>2023-12-20T13:56:25Z</time>
      </trkpt>
      <trkpt lat="50.02378" lon="2.34081">
        <ele>134.2</ele>
        <time>2023-12-20T13:56:26Z</time>
      </trkpt>
      <trkpt lat="50.02378" lon="2.34083">
        <ele>134.3</ele>
        <time>2023-12-20T13:56:27Z</time>
      </trkpt>
      <trkpt lat="50.02379" lon="2.34084">
        <ele>134.3</ele>
        <time>2023-12-20T13:56:28Z</time>
      </trkpt>
      <trkpt lat="50.0238" lon="2.34085">
        <ele>134.3</ele>
        <time>2023-12-20T13:56:29Z</time>
      </trkpt>
      <trkpt lat="50.02381" lon="2.34086">
        <ele>134.3</ele>
        <time>2023-12-20T13:56:31Z</time>
      </trkpt>
      <trkpt lat="50.02382" lon="2.34087">
        <ele>134.3</ele>
        <time>2023-12-20T13:56:32Z</time>
      </trkpt>
      <trkpt lat="50.02384" lon="2.34089">
        <ele>134.4</ele>
        <time>2023-12-20T13:56:33Z</time>
      </trkpt>
      <trkpt lat="50.02385" lon="2.3409">
        <ele>134.4</ele>
        <time>2023-12-20T13:56:34Z</time>
      </trkpt>
      <trkpt lat="50.02385" lon="2.3409">
        <ele>134.4</ele>
        <time>2023-12-20T13:56:35Z</time>
      </trkpt>
      <trkpt lat="50.02387" lon="2.34092">
        <ele>134.4</ele>
        <time>2023-12-20T13:56:36Z</time>
      </trkpt>
      <trkpt lat="50.02388" lon="2.34092">
        <ele>134.4</ele>
        <time>2023-12-20T13:56:38Z</time>
      </trkpt>
      <trkpt lat="50.02388" lon="2.34093">
        <ele>134.4</ele>
        <time>2023-12-20T13:56:39Z</time>
      </trkpt>
      <trkpt lat="50.0239" lon="2.34094">
        <ele>134.4</ele>
        <time>2023-12-20T13:56:40Z</time>
      </trkpt>
      <trkpt lat="50.02391" lon="2.34095">
        <ele>134.5</ele>
        <time>2023-12-20T13:56:41Z</time>
      </trkpt>
      <trkpt lat="50.02392" lon="2.34096">
        <ele>134.5</ele>
        <time>2023-12-20T13:56:42Z</time>
      </trkpt>
      <trkpt lat="50.02393" lon="2.34097">
        <ele>134.5</ele>
        <time>2023-12-20T13:56:43Z</time>
      </trkpt>
      <trkpt lat="50.02395" lon="2.341">
        <ele>134.5</ele>
        <time>2023-12-20T13:56:44Z</time>
      </trkpt>
      <trkpt lat="50.02395" lon="2.34101">
        <ele>134.5</ele>
        <time>2023-12-20T13:56:46Z</time>
      </trkpt>
      <trkpt lat="50.02396" lon="2.34102">
        <ele>134.5</ele>
        <time>2023-12-20T13:56:47Z</time>
      </trkpt>
      <trkpt lat="50.02398" lon="2.34104">
        <ele>134.5</ele>
        <time>2023-12-20T13:56:48Z</time>
      </trkpt>
      <trkpt lat="50.02398" lon="2.34104">
        <ele>134.6</ele>
        <time>2023-12-20T13:56:49Z</time>
      </trkpt>
      <trkpt lat="50.02399" lon="2.34105">
        <ele>134.6</ele>
        <time>2023-12-20T13:56:50Z</time>
      </trkpt>
      <trkpt lat="50.024" lon="2.34107">
        <ele>134.6</ele>
        <time>2023-12-20T13:56:51Z</time>
      </trkpt>
      <trkpt lat="50.02401" lon="2.34108">
        <ele>134.6</ele>
        <time>2023-12-20T13:56:53Z</time>
      </trkpt>
      <trkpt lat="50.02402" lon="2.34109">
        <ele>134.6</ele>
        <time>2023-12-20T13:56:55Z</time>
      </trkpt>
      <trkpt lat="50.02403" lon="2.3411">
        <ele>134.6</ele>
        <time>2023-12-20T13:56:56Z</time>
      </trkpt>
      <trkpt lat="50.02404" lon="2.34111">
        <ele>134.6</ele>
        <time>2023-12-20T13:56:57Z</time>
      </trkpt>
      <trkpt lat="50.02405" lon="2.34112">
        <ele>134.6</ele>
        <time>2023-12-20T13:56:58Z</time>
      </trkpt>
      <trkpt lat="50.02406" lon="2.34113">
        <ele>134.6</ele>
        <time>2023-12-20T13:56:59Z</time>
      </trkpt>
      <trkpt lat="50.02407" lon="2.34114">
        <ele>134.6</ele>
        <time>2023-12-20T13:57:00Z</time>
      </trkpt>
      <trkpt lat="50.02409" lon="2.34116">
        <ele>134.6</ele>
        <time>2023-12-20T13:57:02Z</time>
      </trkpt>
      <trkpt lat="50.0241" lon="2.34116">
        <ele>134.6</ele>
        <time>2023-12-20T13:57:03Z</time>
      </trkpt>
      <trkpt lat="50.0241" lon="2.34117">
        <ele>134.6</ele>
        <time>2023-12-20T13:57:04Z</time>
      </trkpt>
      <trkpt lat="50.02412" lon="2.34119">
        <ele>134.7</ele>
        <time>2023-12-20T13:57:05Z</time>
      </trkpt>
      <trkpt lat="50.02412" lon="2.34119">
        <ele>134.7</ele>
        <time>2023-12-20T13:57:06Z</time>
      </trkpt>
      <trkpt lat="50.02413" lon="2.3412">
        <ele>134.7</ele>
        <time>2023-12-20T13:57:07Z</time>
      </trkpt>
      <trkpt lat="50.02414" lon="2.34122">
        <ele>134.7</ele>
        <time>2023-12-20T13:57:08Z</time>
      </trkpt>
      <trkpt lat="50.02415" lon="2.34123">
        <ele>134.7</ele>
        <time>2023-12-20T13:57:09Z</time>
      </trkpt>
      <trkpt lat="50.02416" lon="2.34124">
        <ele>134.7</ele>
        <time>2023-12-20T13:57:11Z</time>
      </trkpt>
      <trkpt lat="50.02417" lon="2.34126">
        <ele>134.7</ele>
        <time>2023-12-20T13:57:12Z</time>
      </trkpt>
      <trkpt lat="50.02419" lon="2.34128">
        <ele>134.7</ele>
        <time>2023-12-20T13:57:13Z</time>
      </trkpt>
      <trkpt lat="50.02421" lon="2.3413">
        <ele>134.7</ele>
        <time>2023-12-20T13:57:14Z</time>
      </trkpt>
      <trkpt lat="50.02422" lon="2.34131">
        <ele>134.7</ele>
        <time>2023-12-20T13:57:15Z</time>
      </trkpt>
      <trkpt lat="50.02423" lon="2.34133">
        <ele>134.7</ele>
        <time>2023-12-20T13:57:16Z</time>
      </trkpt>
      <trkpt lat="50.02424" lon="2.34134">
        <ele>134.7</ele>
        <time>2023-12-20T13:57:17Z</time>
      </trkpt>
      <trkpt lat="50.02425" lon="2.34135">
        <ele>134.7</ele>
        <time>2023-12-20T13:57:19Z</time>
      </trkpt>
      <trkpt lat="50.02426" lon="2.34136">
        <ele>134.7</ele>
        <time>2023-12-20T13:57:20Z</time>
      </trkpt>
      <trkpt lat="50.02426" lon="2.34137">
        <ele>134.7</ele>
        <time>2023-12-20T13:57:21Z</time>
      </trkpt>
      <trkpt lat="50.02427" lon="2.34138">
        <ele>134.8</ele>
        <time>2023-12-20T13:57:22Z</time>
      </trkpt>
      <trkpt lat="50.02428" lon="2.34139">
        <ele>134.8</ele>
        <time>2023-12-20T13:57:23Z</time>
      </trkpt>
      <trkpt lat="50.02428" lon="2.3414">
        <ele>134.8</ele>
        <time>2023-12-20T13:57:24Z</time>
      </trkpt>
      <trkpt lat="50.02429" lon="2.34141">
        <ele>134.8</ele>
        <time>2023-12-20T13:57:25Z</time>
      </trkpt>
      <trkpt lat="50.0243" lon="2.34142">
        <ele>134.8</ele>
        <time>2023-12-20T13:57:26Z</time>
      </trkpt>
      <trkpt lat="50.02431" lon="2.34143">
        <ele>134.8</ele>
        <time>2023-12-20T13:57:28Z</time>
      </trkpt>
      <trkpt lat="50.02431" lon="2.34144">
        <ele>134.8</ele>
        <time>2023-12-20T13:57:29Z</time>
      </trkpt>
      <trkpt lat="50.02433" lon="2.34147">
        <ele>134.8</ele>
        <time>2023-12-20T13:57:30Z</time>
      </trkpt>
      <trkpt lat="50.02434" lon="2.34148">
        <ele>134.8</ele>
        <time>2023-12-20T13:57:31Z</time>
      </trkpt>
      <trkpt lat="50.02434" lon="2.34149">
        <ele>134.8</ele>
        <time>2023-12-20T13:57:32Z</time>
      </trkpt>
      <trkpt lat="50.02436" lon="2.34151">
        <ele>134.9</ele>
        <time>2023-12-20T13:57:33Z</time>
      </trkpt>
      <trkpt lat="50.02436" lon="2.34152">
        <ele>134.9</ele>
        <time>2023-12-20T13:57:34Z</time>
      </trkpt>
      <trkpt lat="50.02437" lon="2.34153">
        <ele>134.9</ele>
        <time>2023-12-20T13:57:35Z</time>
      </trkpt>
      <trkpt lat="50.02437" lon="2.34154">
        <ele>134.9</ele>
        <time>2023-12-20T13:57:37Z</time>
      </trkpt>
      <trkpt lat="50.02438" lon="2.34155">
        <ele>134.9</ele>
        <time>2023-12-20T13:57:38Z</time>
      </trkpt>
      <trkpt lat="50.02439" lon="2.34156">
        <ele>134.9</ele>
        <time>2023-12-20T13:57:39Z</time>
      </trkpt>
      <trkpt lat="50.02441" lon="2.34158">
        <ele>134.9</ele>
        <time>2023-12-20T13:57:40Z</time>
      </trkpt>
      <trkpt lat="50.02441" lon="2.34159">
        <ele>135</ele>
        <time>2023-12-20T13:57:41Z</time>
      </trkpt>
      <trkpt lat="50.02442" lon="2.3416">
        <ele>135</ele>
        <time>2023-12-20T13:57:42Z</time>
      </trkpt>
      <trkpt lat="50.02444" lon="2.34162">
        <ele>135</ele>
        <time>2023-12-20T13:57:43Z</time>
      </trkpt>
      <trkpt lat="50.02444" lon="2.34163">
        <ele>135</ele>
        <time>2023-12-20T13:57:44Z</time>
      </trkpt>
      <trkpt lat="50.02445" lon="2.34164">
        <ele>135</ele>
        <time>2023-12-20T13:57:45Z</time>
      </trkpt>
      <trkpt lat="50.02447" lon="2.34166">
        <ele>135</ele>
        <time>2023-12-20T13:57:47Z</time>
      </trkpt>
      <trkpt lat="50.02447" lon="2.34167">
        <ele>135</ele>
        <time>2023-12-20T13:57:48Z</time>
      </trkpt>
      <trkpt lat="50.02448" lon="2.34168">
        <ele>135</ele>
        <time>2023-12-20T13:57:49Z</time>
      </trkpt>
      <trkpt lat="50.02449" lon="2.34169">
        <ele>135</ele>
        <time>2023-12-20T13:57:50Z</time>
      </trkpt>
      <trkpt lat="50.0245" lon="2.3417">
        <ele>135</ele>
        <time>2023-12-20T13:57:51Z</time>
      </trkpt>
      <trkpt lat="50.02451" lon="2.34171">
        <ele>135</ele>
        <time>2023-12-20T13:57:52Z</time>
      </trkpt>
      <trkpt lat="50.02452" lon="2.34172">
        <ele>135</ele>
        <time>2023-12-20T13:57:53Z</time>
      </trkpt>
      <trkpt lat="50.02453" lon="2.34173">
        <ele>135</ele>
        <time>2023-12-20T13:57:54Z</time>
      </trkpt>
      <trkpt lat="50.02454" lon="2.34174">
        <ele>135</ele>
        <time>2023-12-20T13:57:56Z</time>
      </trkpt>
      <trkpt lat="50.02455" lon="2.34175">
        <ele>135</ele>
        <time>2023-12-20T13:57:57Z</time>
      </trkpt>
      <trkpt lat="50.02456" lon="2.34176">
        <ele>135</ele>
        <time>2023-12-20T13:57:58Z</time>
      </trkpt>
      <trkpt lat="50.02457" lon="2.34177">
        <ele>135</ele>
        <time>2023-12-20T13:57:59Z</time>
      </trkpt>
      <trkpt lat="50.02458" lon="2.34178">
        <ele>135</ele>
        <time>2023-12-20T13:58:00Z</time>
      </trkpt>
      <trkpt lat="50.02459" lon="2.34179">
        <ele>135.1</ele>
        <time>2023-12-20T13:58:01Z</time>
      </trkpt>
      <trkpt lat="50.02459" lon="2.34181">
        <ele>135.1</ele>
        <time>2023-12-20T13:58:02Z</time>
      </trkpt>
      <trkpt lat="50.02461" lon="2.34183">
        <ele>135.1</ele>
        <time>2023-12-20T13:58:03Z</time>
      </trkpt>
      <trkpt lat="50.02461" lon="2.34184">
        <ele>135.1</ele>
        <time>2023-12-20T13:58:05Z</time>
      </trkpt>
      <trkpt lat="50.02462" lon="2.34185">
        <ele>135.1</ele>
        <time>2023-12-20T13:58:06Z</time>
      </trkpt>
      <trkpt lat="50.02463" lon="2.34186">
        <ele>135.1</ele>
        <time>2023-12-20T13:58:07Z</time>
      </trkpt>
      <trkpt lat="50.02464" lon="2.34186">
        <ele>135.1</ele>
        <time>2023-12-20T13:58:08Z</time>
      </trkpt>
      <trkpt lat="50.02465" lon="2.34187">
        <ele>135.1</ele>
        <time>2023-12-20T13:58:09Z</time>
      </trkpt>
      <trkpt lat="50.02466" lon="2.34188">
        <ele>135.1</ele>
        <time>2023-12-20T13:58:10Z</time>
      </trkpt>
      <trkpt lat="50.02467" lon="2.34189">
        <ele>135.1</ele>
        <time>2023-12-20T13:58:11Z</time>
      </trkpt>
      <trkpt lat="50.02468" lon="2.3419">
        <ele>135.1</ele>
        <time>2023-12-20T13:58:12Z</time>
      </trkpt>
      <trkpt lat="50.02469" lon="2.34191">
        <ele>135.1</ele>
        <time>2023-12-20T13:58:13Z</time>
      </trkpt>
      <trkpt lat="50.0247" lon="2.34192">
        <ele>135.1</ele>
        <time>2023-12-20T13:58:14Z</time>
      </trkpt>
      <trkpt lat="50.02471" lon="2.34193">
        <ele>135.1</ele>
        <time>2023-12-20T13:58:16Z</time>
      </trkpt>
      <trkpt lat="50.02472" lon="2.34195">
        <ele>135.1</ele>
        <time>2023-12-20T13:58:17Z</time>
      </trkpt>
      <trkpt lat="50.02474" lon="2.34197">
        <ele>135.1</ele>
        <time>2023-12-20T13:58:18Z</time>
      </trkpt>
      <trkpt lat="50.02476" lon="2.34199">
        <ele>135.1</ele>
        <time>2023-12-20T13:58:19Z</time>
      </trkpt>
      <trkpt lat="50.02477" lon="2.342">
        <ele>135.1</ele>
        <time>2023-12-20T13:58:20Z</time>
      </trkpt>
      <trkpt lat="50.02478" lon="2.34202">
        <ele>135.1</ele>
        <time>2023-12-20T13:58:21Z</time>
      </trkpt>
      <trkpt lat="50.02479" lon="2.34203">
        <ele>135.1</ele>
        <time>2023-12-20T13:58:22Z</time>
      </trkpt>
      <trkpt lat="50.02481" lon="2.34205">
        <ele>135.1</ele>
        <time>2023-12-20T13:58:23Z</time>
      </trkpt>
      <trkpt lat="50.02482" lon="2.34206">
        <ele>135.1</ele>
        <time>2023-12-20T13:58:24Z</time>
      </trkpt>
      <trkpt lat="50.02482" lon="2.34207">
        <ele>135.1</ele>
        <time>2023-12-20T13:58:26Z</time>
      </trkpt>
      <trkpt lat="50.02483" lon="2.34208">
        <ele>135</ele>
        <time>2023-12-20T13:58:27Z</time>
      </trkpt>
      <trkpt lat="50.02484" lon="2.34208">
        <ele>135</ele>
        <time>2023-12-20T13:58:28Z</time>
      </trkpt>
      <trkpt lat="50.02484" lon="2.34209">
        <ele>135</ele>
        <time>2023-12-20T13:58:29Z</time>
      </trkpt>
      <trkpt lat="50.02485" lon="2.3421">
        <ele>135</ele>
        <time>2023-12-20T13:58:30Z</time>
      </trkpt>
      <trkpt lat="50.02486" lon="2.34211">
        <ele>135</ele>
        <time>2023-12-20T13:58:31Z</time>
      </trkpt>
      <trkpt lat="50.02486" lon="2.34212">
        <ele>135</ele>
        <time>2023-12-20T13:58:32Z</time>
      </trkpt>
      <trkpt lat="50.02487" lon="2.34213">
        <ele>135</ele>
        <time>2023-12-20T13:58:33Z</time>
      </trkpt>
      <trkpt lat="50.02489" lon="2.34215">
        <ele>135</ele>
        <time>2023-12-20T13:58:34Z</time>
      </trkpt>
      <trkpt lat="50.02489" lon="2.34216">
        <ele>135</ele>
        <time>2023-12-20T13:58:36Z</time>
      </trkpt>
      <trkpt lat="50.0249" lon="2.34217">
        <ele>135</ele>
        <time>2023-12-20T13:58:37Z</time>
      </trkpt>
      <trkpt lat="50.02491" lon="2.34219">
        <ele>135</ele>
        <time>2023-12-20T13:58:38Z</time>
      </trkpt>
      <trkpt lat="50.02493" lon="2.3422">
        <ele>135</ele>
        <time>2023-12-20T13:58:39Z</time>
      </trkpt>
      <trkpt lat="50.02494" lon="2.34222">
        <ele>135</ele>
        <time>2023-12-20T13:58:40Z</time>
      </trkpt>
      <trkpt lat="50.02495" lon="2.34223">
        <ele>134.9</ele>
        <time>2023-12-20T13:58:41Z</time>
      </trkpt>
      <trkpt lat="50.02495" lon="2.34224">
        <ele>134.9</ele>
        <time>2023-12-20T13:58:42Z</time>
      </trkpt>
      <trkpt lat="50.02496" lon="2.34225">
        <ele>134.9</ele>
        <time>2023-12-20T13:58:43Z</time>
      </trkpt>
      <trkpt lat="50.02497" lon="2.34227">
        <ele>134.9</ele>
        <time>2023-12-20T13:58:45Z</time>
      </trkpt>
      <trkpt lat="50.02498" lon="2.34229">
        <ele>134.9</ele>
        <time>2023-12-20T13:58:46Z</time>
      </trkpt>
      <trkpt lat="50.02499" lon="2.3423">
        <ele>134.9</ele>
        <time>2023-12-20T13:58:47Z</time>
      </trkpt>
      <trkpt lat="50.025" lon="2.34232">
        <ele>134.9</ele>
        <time>2023-12-20T13:58:48Z</time>
      </trkpt>
      <trkpt lat="50.02501" lon="2.34233">
        <ele>134.9</ele>
        <time>2023-12-20T13:58:49Z</time>
      </trkpt>
      <trkpt lat="50.02502" lon="2.34234">
        <ele>134.9</ele>
        <time>2023-12-20T13:58:50Z</time>
      </trkpt>
      <trkpt lat="50.02503" lon="2.34234">
        <ele>134.9</ele>
        <time>2023-12-20T13:58:51Z</time>
      </trkpt>
      <trkpt lat="50.02503" lon="2.34235">
        <ele>134.9</ele>
        <time>2023-12-20T13:58:53Z</time>
      </trkpt>
      <trkpt lat="50.02504" lon="2.34236">
        <ele>134.9</ele>
        <time>2023-12-20T13:58:54Z</time>
      </trkpt>
      <trkpt lat="50.02505" lon="2.34237">
        <ele>134.9</ele>
        <time>2023-12-20T13:58:55Z</time>
      </trkpt>
      <trkpt lat="50.02506" lon="2.34238">
        <ele>134.8</ele>
        <time>2023-12-20T13:58:56Z</time>
      </trkpt>
      <trkpt lat="50.02507" lon="2.34239">
        <ele>134.8</ele>
        <time>2023-12-20T13:58:57Z</time>
      </trkpt>
      <trkpt lat="50.02508" lon="2.34239">
        <ele>134.8</ele>
        <time>2023-12-20T13:58:58Z</time>
      </trkpt>
      <trkpt lat="50.02509" lon="2.3424">
        <ele>134.8</ele>
        <time>2023-12-20T13:58:59Z</time>
      </trkpt>
      <trkpt lat="50.0251" lon="2.34241">
        <ele>134.8</ele>
        <time>2023-12-20T13:59:00Z</time>
      </trkpt>
      <trkpt lat="50.02511" lon="2.34243">
        <ele>134.8</ele>
        <time>2023-12-20T13:59:01Z</time>
      </trkpt>
      <trkpt lat="50.02512" lon="2.34244">
        <ele>134.8</ele>
        <time>2023-12-20T13:59:03Z</time>
      </trkpt>
      <trkpt lat="50.02513" lon="2.34245">
        <ele>134.8</ele>
        <time>2023-12-20T13:59:04Z</time>
      </trkpt>
      <trkpt lat="50.02514" lon="2.34246">
        <ele>134.8</ele>
        <time>2023-12-20T13:59:05Z</time>
      </trkpt>
      <trkpt lat="50.02514" lon="2.34247">
        <ele>134.8</ele>
        <time>2023-12-20T13:59:06Z</time>
      </trkpt>
      <trkpt lat="50.02515" lon="2.34248">
        <ele>134.7</ele>
        <time>2023-12-20T13:59:07Z</time>
      </trkpt>
      <trkpt lat="50.02517" lon="2.3425">
        <ele>134.7</ele>
        <time>2023-12-20T13:59:08Z</time>
      </trkpt>
      <trkpt lat="50.02518" lon="2.34251">
        <ele>134.7</ele>
        <time>2023-12-20T13:59:10Z</time>
      </trkpt>
      <trkpt lat="50.02519" lon="2.34252">
        <ele>134.7</ele>
        <time>2023-12-20T13:59:11Z</time>
      </trkpt>
      <trkpt lat="50.0252" lon="2.34253">
        <ele>134.7</ele>
        <time>2023-12-20T13:59:12Z</time>
      </trkpt>
      <trkpt lat="50.02521" lon="2.34255">
        <ele>134.7</ele>
        <time>2023-12-20T13:59:13Z</time>
      </trkpt>
      <trkpt lat="50.02523" lon="2.34257">
        <ele>134.7</ele>
        <time>2023-12-20T13:59:14Z</time>
      </trkpt>
      <trkpt lat="50.02523" lon="2.34258">
        <ele>134.6</ele>
        <time>2023-12-20T13:59:15Z</time>
      </trkpt>
      <trkpt lat="50.02524" lon="2.34258">
        <ele>134.6</ele>
        <time>2023-12-20T13:59:16Z</time>
      </trkpt>
      <trkpt lat="50.02525" lon="2.3426">
        <ele>134.6</ele>
        <time>2023-12-20T13:59:18Z</time>
      </trkpt>
      <trkpt lat="50.02526" lon="2.34261">
        <ele>134.6</ele>
        <time>2023-12-20T13:59:19Z</time>
      </trkpt>
      <trkpt lat="50.02527" lon="2.34262">
        <ele>134.6</ele>
        <time>2023-12-20T13:59:20Z</time>
      </trkpt>
      <trkpt lat="50.02529" lon="2.34264">
        <ele>134.6</ele>
        <time>2023-12-20T13:59:21Z</time>
      </trkpt>
      <trkpt lat="50.0253" lon="2.34265">
        <ele>134.6</ele>
        <time>2023-12-20T13:59:22Z</time>
      </trkpt>
      <trkpt lat="50.02531" lon="2.34267">
        <ele>134.5</ele>
        <time>2023-12-20T13:59:23Z</time>
      </trkpt>
      <trkpt lat="50.02533" lon="2.34269">
        <ele>134.5</ele>
        <time>2023-12-20T13:59:24Z</time>
      </trkpt>
      <trkpt lat="50.02533" lon="2.3427">
        <ele>134.5</ele>
        <time>2023-12-20T13:59:25Z</time>
      </trkpt>
      <trkpt lat="50.02534" lon="2.3427">
        <ele>134.5</ele>
        <time>2023-12-20T13:59:26Z</time>
      </trkpt>
      <trkpt lat="50.02535" lon="2.34271">
        <ele>134.5</ele>
        <time>2023-12-20T13:59:28Z</time>
      </trkpt>
      <trkpt lat="50.02536" lon="2.34272">
        <ele>134.5</ele>
        <time>2023-12-20T13:59:29Z</time>
      </trkpt>
      <trkpt lat="50.02537" lon="2.34273">
        <ele>134.5</ele>
        <time>2023-12-20T13:59:30Z</time>
      </trkpt>
      <trkpt lat="50.02538" lon="2.34274">
        <ele>134.5</ele>
        <time>2023-12-20T13:59:31Z</time>
      </trkpt>
      <trkpt lat="50.02539" lon="2.34275">
        <ele>134.5</ele>
        <time>2023-12-20T13:59:32Z</time>
      </trkpt>
      <trkpt lat="50.0254" lon="2.34276">
        <ele>134.4</ele>
        <time>2023-12-20T13:59:33Z</time>
      </trkpt>
      <trkpt lat="50.02541" lon="2.34279">
        <ele>134.4</ele>
        <time>2023-12-20T13:59:34Z</time>
      </trkpt>
      <trkpt lat="50.02542" lon="2.3428">
        <ele>134.4</ele>
        <time>2023-12-20T13:59:35Z</time>
      </trkpt>
      <trkpt lat="50.02543" lon="2.34281">
        <ele>134.4</ele>
        <time>2023-12-20T13:59:36Z</time>
      </trkpt>
      <trkpt lat="50.02544" lon="2.34283">
        <ele>134.4</ele>
        <time>2023-12-20T13:59:37Z</time>
      </trkpt>
      <trkpt lat="50.02544" lon="2.34284">
        <ele>134.4</ele>
        <time>2023-12-20T13:59:39Z</time>
      </trkpt>
      <trkpt lat="50.02545" lon="2.34285">
        <ele>134.4</ele>
        <time>2023-12-20T13:59:40Z</time>
      </trkpt>
      <trkpt lat="50.02546" lon="2.34286">
        <ele>134.4</ele>
        <time>2023-12-20T13:59:41Z</time>
      </trkpt>
      <trkpt lat="50.02547" lon="2.34287">
        <ele>134.4</ele>
        <time>2023-12-20T13:59:42Z</time>
      </trkpt>
      <trkpt lat="50.02547" lon="2.34288">
        <ele>134.4</ele>
        <time>2023-12-20T13:59:43Z</time>
      </trkpt>
      <trkpt lat="50.02548" lon="2.3429">
        <ele>134.3</ele>
        <time>2023-12-20T13:59:44Z</time>
      </trkpt>
      <trkpt lat="50.02549" lon="2.34291">
        <ele>134.3</ele>
        <time>2023-12-20T13:59:45Z</time>
      </trkpt>
      <trkpt lat="50.0255" lon="2.34292">
        <ele>134.3</ele>
        <time>2023-12-20T13:59:46Z</time>
      </trkpt>
      <trkpt lat="50.02552" lon="2.34294">
        <ele>134.3</ele>
        <time>2023-12-20T13:59:48Z</time>
      </trkpt>
      <trkpt lat="50.02552" lon="2.34295">
        <ele>134.3</ele>
        <time>2023-12-20T13:59:49Z</time>
      </trkpt>
      <trkpt lat="50.02553" lon="2.34296">
        <ele>134.3</ele>
        <time>2023-12-20T13:59:50Z</time>
      </trkpt>
      <trkpt lat="50.02554" lon="2.34297">
        <ele>134.3</ele>
        <time>2023-12-20T13:59:51Z</time>
      </trkpt>
      <trkpt lat="50.02555" lon="2.34297">
        <ele>134.3</ele>
        <time>2023-12-20T13:59:52Z</time>
      </trkpt>
      <trkpt lat="50.02556" lon="2.34298">
        <ele>134.3</ele>
        <time>2023-12-20T13:59:53Z</time>
      </trkpt>
      <trkpt lat="50.02557" lon="2.343">
        <ele>134.2</ele>
        <time>2023-12-20T13:59:54Z</time>
      </trkpt>
      <trkpt lat="50.02558" lon="2.34301">
        <ele>134.2</ele>
        <time>2023-12-20T13:59:55Z</time>
      </trkpt>
      <trkpt lat="50.02559" lon="2.34302">
        <ele>134.2</ele>
        <time>2023-12-20T13:59:56Z</time>
      </trkpt>
      <trkpt lat="50.0256" lon="2.34304">
        <ele>134.2</ele>
        <time>2023-12-20T13:59:58Z</time>
      </trkpt>
      <trkpt lat="50.02561" lon="2.34305">
        <ele>134.2</ele>
        <time>2023-12-20T13:59:59Z</time>
      </trkpt>
      <trkpt lat="50.02562" lon="2.34306">
        <ele>134.2</ele>
        <time>2023-12-20T14:00:00Z</time>
      </trkpt>
      <trkpt lat="50.02563" lon="2.34308">
        <ele>134.2</ele>
        <time>2023-12-20T14:00:01Z</time>
      </trkpt>
      <trkpt lat="50.02564" lon="2.34309">
        <ele>134.2</ele>
        <time>2023-12-20T14:00:02Z</time>
      </trkpt>
      <trkpt lat="50.02564" lon="2.3431">
        <ele>134.2</ele>
        <time>2023-12-20T14:00:03Z</time>
      </trkpt>
      <trkpt lat="50.02566" lon="2.34312">
        <ele>134.1</ele>
        <time>2023-12-20T14:00:04Z</time>
      </trkpt>
      <trkpt lat="50.02567" lon="2.34313">
        <ele>134.1</ele>
        <time>2023-12-20T14:00:05Z</time>
      </trkpt>
      <trkpt lat="50.02567" lon="2.34314">
        <ele>134.1</ele>
        <time>2023-12-20T14:00:06Z</time>
      </trkpt>
      <trkpt lat="50.02568" lon="2.34315">
        <ele>134.1</ele>
        <time>2023-12-20T14:00:08Z</time>
      </trkpt>
      <trkpt lat="50.02568" lon="2.34316">
        <ele>134.1</ele>
        <time>2023-12-20T14:00:09Z</time>
      </trkpt>
      <trkpt lat="50.02569" lon="2.34317">
        <ele>134.1</ele>
        <time>2023-12-20T14:00:10Z</time>
      </trkpt>
      <trkpt lat="50.02571" lon="2.34319">
        <ele>134.1</ele>
        <time>2023-12-20T14:00:11Z</time>
      </trkpt>
      <trkpt lat="50.02571" lon="2.3432">
        <ele>134.1</ele>
        <time>2023-12-20T14:00:12Z</time>
      </trkpt>
      <trkpt lat="50.02572" lon="2.34321">
        <ele>134.1</ele>
        <time>2023-12-20T14:00:13Z</time>
      </trkpt>
      <trkpt lat="50.02574" lon="2.34323">
        <ele>134.1</ele>
        <time>2023-12-20T14:00:14Z</time>
      </trkpt>
      <trkpt lat="50.02574" lon="2.34324">
        <ele>134.1</ele>
        <time>2023-12-20T14:00:15Z</time>
      </trkpt>
      <trkpt lat="50.02575" lon="2.34325">
        <ele>134.1</ele>
        <time>2023-12-20T14:00:16Z</time>
      </trkpt>
      <trkpt lat="50.02577" lon="2.34327">
        <ele>134.1</ele>
        <time>2023-12-20T14:00:17Z</time>
      </trkpt>
      <trkpt lat="50.02578" lon="2.34328">
        <ele>134.1</ele>
        <time>2023-12-20T14:00:18Z</time>
      </trkpt>
      <trkpt lat="50.02579" lon="2.34328">
        <ele>134.1</ele>
        <time>2023-12-20T14:00:20Z</time>
      </trkpt>
      <trkpt lat="50.02579" lon="2.34329">
        <ele>134.1</ele>
        <time>2023-12-20T14:00:21Z</time>
      </trkpt>
      <trkpt lat="50.0258" lon="2.3433">
        <ele>134.1</ele>
        <time>2023-12-20T14:00:22Z</time>
      </trkpt>
      <trkpt lat="50.02581" lon="2.34331">
        <ele>134.1</ele>
        <time>2023-12-20T14:00:23Z</time>
      </trkpt>
      <trkpt lat="50.02583" lon="2.34333">
        <ele>134.1</ele>
        <time>2023-12-20T14:00:24Z</time>
      </trkpt>
      <trkpt lat="50.02584" lon="2.34334">
        <ele>134.1</ele>
        <time>2023-12-20T14:00:25Z</time>
      </trkpt>
      <trkpt lat="50.02585" lon="2.34334">
        <ele>134.1</ele>
        <time>2023-12-20T14:00:26Z</time>
      </trkpt>
      <trkpt lat="50.02586" lon="2.34335">
        <ele>134.1</ele>
        <time>2023-12-20T14:00:27Z</time>
      </trkpt>
      <trkpt lat="50.02587" lon="2.34337">
        <ele>134.1</ele>
        <time>2023-12-20T14:00:28Z</time>
      </trkpt>
      <trkpt lat="50.02587" lon="2.34338">
        <ele>134.1</ele>
        <time>2023-12-20T14:00:30Z</time>
      </trkpt>
      <trkpt lat="50.02588" lon="2.34339">
        <ele>134.1</ele>
        <time>2023-12-20T14:00:31Z</time>
      </trkpt>
      <trkpt lat="50.02589" lon="2.3434">
        <ele>134.1</ele>
        <time>2023-12-20T14:00:32Z</time>
      </trkpt>
      <trkpt lat="50.0259" lon="2.34341">
        <ele>134.1</ele>
        <time>2023-12-20T14:00:33Z</time>
      </trkpt>
      <trkpt lat="50.02592" lon="2.34343">
        <ele>134.1</ele>
        <time>2023-12-20T14:00:34Z</time>
      </trkpt>
      <trkpt lat="50.02593" lon="2.34343">
        <ele>134.1</ele>
        <time>2023-12-20T14:00:35Z</time>
      </trkpt>
      <trkpt lat="50.02594" lon="2.34344">
        <ele>134.1</ele>
        <time>2023-12-20T14:00:36Z</time>
      </trkpt>
      <trkpt lat="50.02595" lon="2.34345">
        <ele>134.1</ele>
        <time>2023-12-20T14:00:37Z</time>
      </trkpt>
      <trkpt lat="50.02596" lon="2.34346">
        <ele>134.1</ele>
        <time>2023-12-20T14:00:38Z</time>
      </trkpt>
      <trkpt lat="50.02597" lon="2.34347">
        <ele>134.1</ele>
        <time>2023-12-20T14:00:39Z</time>
      </trkpt>
      <trkpt lat="50.02598" lon="2.34348">
        <ele>134.1</ele>
        <time>2023-12-20T14:00:40Z</time>
      </trkpt>
      <trkpt lat="50.02599" lon="2.34349">
        <ele>134.1</ele>
        <time>2023-12-20T14:00:42Z</time>
      </trkpt>
      <trkpt lat="50.02601" lon="2.34351">
        <ele>134</ele>
        <time>2023-12-20T14:00:43Z</time>
      </trkpt>
      <trkpt lat="50.02602" lon="2.34351">
        <ele>134</ele>
        <time>2023-12-20T14:00:44Z</time>
      </trkpt>
      <trkpt lat="50.02602" lon="2.34352">
        <ele>134</ele>
        <time>2023-12-20T14:00:45Z</time>
      </trkpt>
      <trkpt lat="50.02603" lon="2.34353">
        <ele>134</ele>
        <time>2023-12-20T14:00:46Z</time>
      </trkpt>
      <trkpt lat="50.02605" lon="2.34354">
        <ele>134</ele>
        <time>2023-12-20T14:00:47Z</time>
      </trkpt>
      <trkpt lat="50.02606" lon="2.34355">
        <ele>134</ele>
        <time>2023-12-20T14:00:48Z</time>
      </trkpt>
      <trkpt lat="50.02607" lon="2.34357">
        <ele>134</ele>
        <time>2023-12-20T14:00:49Z</time>
      </trkpt>
      <trkpt lat="50.02608" lon="2.34358">
        <ele>134</ele>
        <time>2023-12-20T14:00:50Z</time>
      </trkpt>
      <trkpt lat="50.02609" lon="2.34359">
        <ele>133.9</ele>
        <time>2023-12-20T14:00:51Z</time>
      </trkpt>
      <trkpt lat="50.0261" lon="2.34361">
        <ele>133.9</ele>
        <time>2023-12-20T14:00:53Z</time>
      </trkpt>
      <trkpt lat="50.02611" lon="2.34362">
        <ele>133.9</ele>
        <time>2023-12-20T14:00:54Z</time>
      </trkpt>
      <trkpt lat="50.02612" lon="2.34363">
        <ele>133.9</ele>
        <time>2023-12-20T14:00:55Z</time>
      </trkpt>
      <trkpt lat="50.02613" lon="2.34364">
        <ele>133.9</ele>
        <time>2023-12-20T14:00:56Z</time>
      </trkpt>
      <trkpt lat="50.02615" lon="2.34366">
        <ele>133.9</ele>
        <time>2023-12-20T14:00:57Z</time>
      </trkpt>
      <trkpt lat="50.02616" lon="2.34367">
        <ele>133.9</ele>
        <time>2023-12-20T14:00:58Z</time>
      </trkpt>
      <trkpt lat="50.02617" lon="2.34368">
        <ele>133.8</ele>
        <time>2023-12-20T14:00:59Z</time>
      </trkpt>
      <trkpt lat="50.02618" lon="2.34369">
        <ele>133.8</ele>
        <time>2023-12-20T14:01:00Z</time>
      </trkpt>
      <trkpt lat="50.02619" lon="2.34371">
        <ele>133.8</ele>
        <time>2023-12-20T14:01:01Z</time>
      </trkpt>
      <trkpt lat="50.02619" lon="2.34371">
        <ele>133.8</ele>
        <time>2023-12-20T14:01:03Z</time>
      </trkpt>
      <trkpt lat="50.0262" lon="2.34373">
        <ele>133.8</ele>
        <time>2023-12-20T14:01:04Z</time>
      </trkpt>
      <trkpt lat="50.02621" lon="2.34374">
        <ele>133.8</ele>
        <time>2023-12-20T14:01:05Z</time>
      </trkpt>
      <trkpt lat="50.02622" lon="2.34375">
        <ele>133.8</ele>
        <time>2023-12-20T14:01:06Z</time>
      </trkpt>
      <trkpt lat="50.02623" lon="2.34376">
        <ele>133.8</ele>
        <time>2023-12-20T14:01:07Z</time>
      </trkpt>
      <trkpt lat="50.02624" lon="2.34376">
        <ele>133.7</ele>
        <time>2023-12-20T14:01:08Z</time>
      </trkpt>
      <trkpt lat="50.02625" lon="2.34377">
        <ele>133.7</ele>
        <time>2023-12-20T14:01:09Z</time>
      </trkpt>
      <trkpt lat="50.02626" lon="2.34378">
        <ele>133.7</ele>
        <time>2023-12-20T14:01:10Z</time>
      </trkpt>
      <trkpt lat="50.02627" lon="2.34378">
        <ele>133.7</ele>
        <time>2023-12-20T14:01:11Z</time>
      </trkpt>
      <trkpt lat="50.02628" lon="2.34379">
        <ele>133.7</ele>
        <time>2023-12-20T14:01:12Z</time>
      </trkpt>
      <trkpt lat="50.0263" lon="2.3438">
        <ele>133.7</ele>
        <time>2023-12-20T14:01:14Z</time>
      </trkpt>
      <trkpt lat="50.02631" lon="2.34381">
        <ele>133.6</ele>
        <time>2023-12-20T14:01:15Z</time>
      </trkpt>
      <trkpt lat="50.02632" lon="2.34382">
        <ele>133.6</ele>
        <time>2023-12-20T14:01:16Z</time>
      </trkpt>
      <trkpt lat="50.02634" lon="2.34383">
        <ele>133.6</ele>
        <time>2023-12-20T14:01:17Z</time>
      </trkpt>
      <trkpt lat="50.02635" lon="2.34384">
        <ele>133.6</ele>
        <time>2023-12-20T14:01:18Z</time>
      </trkpt>
      <trkpt lat="50.02635" lon="2.34384">
        <ele>133.6</ele>
        <time>2023-12-20T14:01:19Z</time>
      </trkpt>
      <trkpt lat="50.02638" lon="2.34386">
        <ele>133.5</ele>
        <time>2023-12-20T14:01:20Z</time>
      </trkpt>
      <trkpt lat="50.02639" lon="2.34387">
        <ele>133.5</ele>
        <time>2023-12-20T14:01:21Z</time>
      </trkpt>
      <trkpt lat="50.02641" lon="2.34389">
        <ele>133.5</ele>
        <time>2023-12-20T14:01:22Z</time>
      </trkpt>
      <trkpt lat="50.02642" lon="2.3439">
        <ele>133.5</ele>
        <time>2023-12-20T14:01:23Z</time>
      </trkpt>
      <trkpt lat="50.02644" lon="2.34391">
        <ele>133.5</ele>
        <time>2023-12-20T14:01:24Z</time>
      </trkpt>
      <trkpt lat="50.02645" lon="2.34392">
        <ele>133.5</ele>
        <time>2023-12-20T14:01:26Z</time>
      </trkpt>
      <trkpt lat="50.02645" lon="2.34392">
        <ele>133.5</ele>
        <time>2023-12-20T14:01:27Z</time>
      </trkpt>
      <trkpt lat="50.02646" lon="2.34393">
        <ele>133.4</ele>
        <time>2023-12-20T14:01:28Z</time>
      </trkpt>
      <trkpt lat="50.02647" lon="2.34394">
        <ele>133.4</ele>
        <time>2023-12-20T14:01:29Z</time>
      </trkpt>
      <trkpt lat="50.02648" lon="2.34395">
        <ele>133.4</ele>
        <time>2023-12-20T14:01:30Z</time>
      </trkpt>
      <trkpt lat="50.02649" lon="2.34396">
        <ele>133.4</ele>
        <time>2023-12-20T14:01:31Z</time>
      </trkpt>
      <trkpt lat="50.0265" lon="2.34397">
        <ele>133.4</ele>
        <time>2023-12-20T14:01:32Z</time>
      </trkpt>
      <trkpt lat="50.02651" lon="2.34398">
        <ele>133.4</ele>
        <time>2023-12-20T14:01:33Z</time>
      </trkpt>
      <trkpt lat="50.02653" lon="2.344">
        <ele>133.4</ele>
        <time>2023-12-20T14:01:34Z</time>
      </trkpt>
      <trkpt lat="50.02653" lon="2.34401">
        <ele>133.4</ele>
        <time>2023-12-20T14:01:36Z</time>
      </trkpt>
      <trkpt lat="50.02654" lon="2.34401">
        <ele>133.4</ele>
        <time>2023-12-20T14:01:37Z</time>
      </trkpt>
      <trkpt lat="50.02655" lon="2.34402">
        <ele>133.4</ele>
        <time>2023-12-20T14:01:38Z</time>
      </trkpt>
      <trkpt lat="50.02656" lon="2.34403">
        <ele>133.4</ele>
        <time>2023-12-20T14:01:39Z</time>
      </trkpt>
      <trkpt lat="50.02657" lon="2.34404">
        <ele>133.4</ele>
        <time>2023-12-20T14:01:40Z</time>
      </trkpt>
      <trkpt lat="50.02658" lon="2.34405">
        <ele>133.4</ele>
        <time>2023-12-20T14:01:41Z</time>
      </trkpt>
      <trkpt lat="50.02659" lon="2.34406">
        <ele>133.4</ele>
        <time>2023-12-20T14:01:42Z</time>
      </trkpt>
      <trkpt lat="50.0266" lon="2.34407">
        <ele>133.4</ele>
        <time>2023-12-20T14:01:43Z</time>
      </trkpt>
      <trkpt lat="50.02661" lon="2.34408">
        <ele>133.4</ele>
        <time>2023-12-20T14:01:44Z</time>
      </trkpt>
      <trkpt lat="50.02662" lon="2.34409">
        <ele>133.4</ele>
        <time>2023-12-20T14:01:45Z</time>
      </trkpt>
      <trkpt lat="50.02664" lon="2.34411">
        <ele>133.4</ele>
        <time>2023-12-20T14:01:46Z</time>
      </trkpt>
      <trkpt lat="50.02664" lon="2.34412">
        <ele>133.4</ele>
        <time>2023-12-20T14:01:48Z</time>
      </trkpt>
      <trkpt lat="50.02665" lon="2.34413">
        <ele>133.4</ele>
        <time>2023-12-20T14:01:49Z</time>
      </trkpt>
      <trkpt lat="50.02666" lon="2.34414">
        <ele>133.4</ele>
        <time>2023-12-20T14:01:50Z</time>
      </trkpt>
      <trkpt lat="50.02667" lon="2.34415">
        <ele>133.4</ele>
        <time>2023-12-20T14:01:51Z</time>
      </trkpt>
      <trkpt lat="50.02668" lon="2.34416">
        <ele>133.4</ele>
        <time>2023-12-20T14:01:52Z</time>
      </trkpt>
      <trkpt lat="50.02669" lon="2.34417">
        <ele>133.3</ele>
        <time>2023-12-20T14:01:53Z</time>
      </trkpt>
      <trkpt lat="50.0267" lon="2.34417">
        <ele>133.3</ele>
        <time>2023-12-20T14:01:54Z</time>
      </trkpt>
      <trkpt lat="50.02671" lon="2.34418">
        <ele>133.3</ele>
        <time>2023-12-20T14:01:55Z</time>
      </trkpt>
      <trkpt lat="50.02672" lon="2.34419">
        <ele>133.3</ele>
        <time>2023-12-20T14:01:56Z</time>
      </trkpt>
      <trkpt lat="50.02673" lon="2.3442">
        <ele>133.3</ele>
        <time>2023-12-20T14:01:58Z</time>
      </trkpt>
      <trkpt lat="50.02673" lon="2.34421">
        <ele>133.3</ele>
        <time>2023-12-20T14:01:59Z</time>
      </trkpt>
      <trkpt lat="50.02675" lon="2.34423">
        <ele>133.3</ele>
        <time>2023-12-20T14:02:00Z</time>
      </trkpt>
      <trkpt lat="50.02676" lon="2.34423">
        <ele>133.3</ele>
        <time>2023-12-20T14:02:01Z</time>
      </trkpt>
      <trkpt lat="50.02676" lon="2.34424">
        <ele>133.3</ele>
        <time>2023-12-20T14:02:02Z</time>
      </trkpt>
      <trkpt lat="50.02678" lon="2.34426">
        <ele>133.3</ele>
        <time>2023-12-20T14:02:03Z</time>
      </trkpt>
      <trkpt lat="50.02679" lon="2.34427">
        <ele>133.3</ele>
        <time>2023-12-20T14:02:04Z</time>
      </trkpt>
      <trkpt lat="50.02679" lon="2.34428">
        <ele>133.3</ele>
        <time>2023-12-20T14:02:05Z</time>
      </trkpt>
      <trkpt lat="50.0268" lon="2.34429">
        <ele>133.2</ele>
        <time>2023-12-20T14:02:06Z</time>
      </trkpt>
      <trkpt lat="50.02681" lon="2.3443">
        <ele>133.2</ele>
        <time>2023-12-20T14:02:08Z</time>
      </trkpt>
      <trkpt lat="50.02682" lon="2.34431">
        <ele>133.2</ele>
        <time>2023-12-20T14:02:09Z</time>
      </trkpt>
      <trkpt lat="50.02684" lon="2.34433">
        <ele>133.2</ele>
        <time>2023-12-20T14:02:10Z</time>
      </trkpt>
      <trkpt lat="50.02685" lon="2.34434">
        <ele>133.2</ele>
        <time>2023-12-20T14:02:11Z</time>
      </trkpt>
      <trkpt lat="50.02685" lon="2.34434">
        <ele>133.2</ele>
        <time>2023-12-20T14:02:12Z</time>
      </trkpt>
      <trkpt lat="50.02686" lon="2.34436">
        <ele>133.2</ele>
        <time>2023-12-20T14:02:13Z</time>
      </trkpt>
      <trkpt lat="50.02688" lon="2.34437">
        <ele>133.2</ele>
        <time>2023-12-20T14:02:14Z</time>
      </trkpt>
      <trkpt lat="50.02689" lon="2.34438">
        <ele>133.2</ele>
        <time>2023-12-20T14:02:15Z</time>
      </trkpt>
      <trkpt lat="50.0269" lon="2.3444">
        <ele>133.1</ele>
        <time>2023-12-20T14:02:16Z</time>
      </trkpt>
      <trkpt lat="50.02691" lon="2.34441">
        <ele>133.1</ele>
        <time>2023-12-20T14:02:17Z</time>
      </trkpt>
      <trkpt lat="50.02692" lon="2.34443">
        <ele>133.1</ele>
        <time>2023-12-20T14:02:19Z</time>
      </trkpt>
      <trkpt lat="50.02693" lon="2.34444">
        <ele>133.1</ele>
        <time>2023-12-20T14:02:20Z</time>
      </trkpt>
      <trkpt lat="50.02694" lon="2.34446">
        <ele>133.1</ele>
        <time>2023-12-20T14:02:21Z</time>
      </trkpt>
      <trkpt lat="50.02695" lon="2.34447">
        <ele>133.1</ele>
        <time>2023-12-20T14:02:22Z</time>
      </trkpt>
      <trkpt lat="50.02696" lon="2.34448">
        <ele>133.1</ele>
        <time>2023-12-20T14:02:23Z</time>
      </trkpt>
      <trkpt lat="50.02697" lon="2.3445">
        <ele>133.1</ele>
        <time>2023-12-20T14:02:24Z</time>
      </trkpt>
      <trkpt lat="50.02699" lon="2.34451">
        <ele>133</ele>
        <time>2023-12-20T14:02:25Z</time>
      </trkpt>
      <trkpt lat="50.027" lon="2.34453">
        <ele>133</ele>
        <time>2023-12-20T14:02:26Z</time>
      </trkpt>
      <trkpt lat="50.02701" lon="2.34454">
        <ele>133</ele>
        <time>2023-12-20T14:02:27Z</time>
      </trkpt>
      <trkpt lat="50.02701" lon="2.34454">
        <ele>133</ele>
        <time>2023-12-20T14:02:28Z</time>
      </trkpt>
      <trkpt lat="50.02702" lon="2.34455">
        <ele>133</ele>
        <time>2023-12-20T14:02:29Z</time>
      </trkpt>
      <trkpt lat="50.02703" lon="2.34456">
        <ele>133</ele>
        <time>2023-12-20T14:02:31Z</time>
      </trkpt>
      <trkpt lat="50.02704" lon="2.34457">
        <ele>133</ele>
        <time>2023-12-20T14:02:32Z</time>
      </trkpt>
      <trkpt lat="50.02706" lon="2.34459">
        <ele>132.9</ele>
        <time>2023-12-20T14:02:33Z</time>
      </trkpt>
      <trkpt lat="50.02707" lon="2.3446">
        <ele>132.9</ele>
        <time>2023-12-20T14:02:34Z</time>
      </trkpt>
      <trkpt lat="50.02707" lon="2.34461">
        <ele>132.9</ele>
        <time>2023-12-20T14:02:35Z</time>
      </trkpt>
      <trkpt lat="50.02709" lon="2.34462">
        <ele>132.9</ele>
        <time>2023-12-20T14:02:36Z</time>
      </trkpt>
      <trkpt lat="50.02709" lon="2.34463">
        <ele>132.9</ele>
        <time>2023-12-20T14:02:37Z</time>
      </trkpt>
      <trkpt lat="50.0271" lon="2.34464">
        <ele>132.9</ele>
        <time>2023-12-20T14:02:38Z</time>
      </trkpt>
      <trkpt lat="50.02711" lon="2.34465">
        <ele>132.9</ele>
        <time>2023-12-20T14:02:39Z</time>
      </trkpt>
      <trkpt lat="50.02712" lon="2.34466">
        <ele>132.9</ele>
        <time>2023-12-20T14:02:40Z</time>
      </trkpt>
      <trkpt lat="50.02713" lon="2.34468">
        <ele>132.8</ele>
        <time>2023-12-20T14:02:42Z</time>
      </trkpt>
      <trkpt lat="50.02714" lon="2.34469">
        <ele>132.8</ele>
        <time>2023-12-20T14:02:43Z</time>
      </trkpt>
      <trkpt lat="50.02715" lon="2.3447">
        <ele>132.8</ele>
        <time>2023-12-20T14:02:44Z</time>
      </trkpt>
      <trkpt lat="50.02717" lon="2.34471">
        <ele>132.8</ele>
        <time>2023-12-20T14:02:45Z</time>
      </trkpt>
      <trkpt lat="50.02718" lon="2.34472">
        <ele>132.8</ele>
        <time>2023-12-20T14:02:46Z</time>
      </trkpt>
      <trkpt lat="50.02719" lon="2.34474">
        <ele>132.7</ele>
        <time>2023-12-20T14:02:47Z</time>
      </trkpt>
      <trkpt lat="50.0272" lon="2.34474">
        <ele>132.7</ele>
        <time>2023-12-20T14:02:48Z</time>
      </trkpt>
      <trkpt lat="50.02721" lon="2.34475">
        <ele>132.7</ele>
        <time>2023-12-20T14:02:49Z</time>
      </trkpt>
      <trkpt lat="50.02722" lon="2.34476">
        <ele>132.7</ele>
        <time>2023-12-20T14:02:50Z</time>
      </trkpt>
      <trkpt lat="50.02723" lon="2.34477">
        <ele>132.7</ele>
        <time>2023-12-20T14:02:51Z</time>
      </trkpt>
      <trkpt lat="50.02724" lon="2.34478">
        <ele>132.7</ele>
        <time>2023-12-20T14:02:53Z</time>
      </trkpt>
      <trkpt lat="50.02725" lon="2.34479">
        <ele>132.6</ele>
        <time>2023-12-20T14:02:54Z</time>
      </trkpt>
      <trkpt lat="50.02727" lon="2.34481">
        <ele>132.6</ele>
        <time>2023-12-20T14:02:55Z</time>
      </trkpt>
      <trkpt lat="50.02728" lon="2.34482">
        <ele>132.6</ele>
        <time>2023-12-20T14:02:56Z</time>
      </trkpt>
      <trkpt lat="50.02729" lon="2.34483">
        <ele>132.6</ele>
        <time>2023-12-20T14:02:57Z</time>
      </trkpt>
      <trkpt lat="50.0273" lon="2.34484">
        <ele>132.6</ele>
        <time>2023-12-20T14:02:58Z</time>
      </trkpt>
      <trkpt lat="50.02731" lon="2.34485">
        <ele>132.6</ele>
        <time>2023-12-20T14:02:59Z</time>
      </trkpt>
      <trkpt lat="50.02732" lon="2.34486">
        <ele>132.5</ele>
        <time>2023-12-20T14:03:00Z</time>
      </trkpt>
      <trkpt lat="50.02733" lon="2.34487">
        <ele>132.5</ele>
        <time>2023-12-20T14:03:01Z</time>
      </trkpt>
      <trkpt lat="50.02734" lon="2.34489">
        <ele>132.5</ele>
        <time>2023-12-20T14:03:02Z</time>
      </trkpt>
      <trkpt lat="50.02735" lon="2.3449">
        <ele>132.5</ele>
        <time>2023-12-20T14:03:04Z</time>
      </trkpt>
      <trkpt lat="50.02736" lon="2.3449">
        <ele>132.4</ele>
        <time>2023-12-20T14:03:05Z</time>
      </trkpt>
      <trkpt lat="50.02737" lon="2.34492">
        <ele>132.4</ele>
        <time>2023-12-20T14:03:06Z</time>
      </trkpt>
      <trkpt lat="50.02738" lon="2.34493">
        <ele>132.4</ele>
        <time>2023-12-20T14:03:07Z</time>
      </trkpt>
      <trkpt lat="50.02739" lon="2.34493">
        <ele>132.4</ele>
        <time>2023-12-20T14:03:08Z</time>
      </trkpt>
      <trkpt lat="50.0274" lon="2.34494">
        <ele>132.4</ele>
        <time>2023-12-20T14:03:09Z</time>
      </trkpt>
      <trkpt lat="50.02741" lon="2.34495">
        <ele>132.3</ele>
        <time>2023-12-20T14:03:10Z</time>
      </trkpt>
      <trkpt lat="50.02742" lon="2.34496">
        <ele>132.3</ele>
        <time>2023-12-20T14:03:11Z</time>
      </trkpt>
      <trkpt lat="50.02743" lon="2.34497">
        <ele>132.3</ele>
        <time>2023-12-20T14:03:12Z</time>
      </trkpt>
      <trkpt lat="50.02744" lon="2.34498">
        <ele>132.3</ele>
        <time>2023-12-20T14:03:13Z</time>
      </trkpt>
      <trkpt lat="50.02745" lon="2.34499">
        <ele>132.3</ele>
        <time>2023-12-20T14:03:15Z</time>
      </trkpt>
      <trkpt lat="50.02746" lon="2.345">
        <ele>132.2</ele>
        <time>2023-12-20T14:03:16Z</time>
      </trkpt>
      <trkpt lat="50.02747" lon="2.34502">
        <ele>132.2</ele>
        <time>2023-12-20T14:03:17Z</time>
      </trkpt>
      <trkpt lat="50.02749" lon="2.34504">
        <ele>132.2</ele>
        <time>2023-12-20T14:03:18Z</time>
      </trkpt>
      <trkpt lat="50.02749" lon="2.34505">
        <ele>132.2</ele>
        <time>2023-12-20T14:03:19Z</time>
      </trkpt>
      <trkpt lat="50.0275" lon="2.34506">
        <ele>132.1</ele>
        <time>2023-12-20T14:03:20Z</time>
      </trkpt>
      <trkpt lat="50.02751" lon="2.34507">
        <ele>132.1</ele>
        <time>2023-12-20T14:03:21Z</time>
      </trkpt>
      <trkpt lat="50.02752" lon="2.34508">
        <ele>132.1</ele>
        <time>2023-12-20T14:03:22Z</time>
      </trkpt>
      <trkpt lat="50.02754" lon="2.34511">
        <ele>132.1</ele>
        <time>2023-12-20T14:03:24Z</time>
      </trkpt>
      <trkpt lat="50.02754" lon="2.34512">
        <ele>132</ele>
        <time>2023-12-20T14:03:25Z</time>
      </trkpt>
      <trkpt lat="50.02755" lon="2.34513">
        <ele>132</ele>
        <time>2023-12-20T14:03:26Z</time>
      </trkpt>
      <trkpt lat="50.02756" lon="2.34514">
        <ele>132</ele>
        <time>2023-12-20T14:03:27Z</time>
      </trkpt>
      <trkpt lat="50.02757" lon="2.34516">
        <ele>132</ele>
        <time>2023-12-20T14:03:28Z</time>
      </trkpt>
      <trkpt lat="50.02759" lon="2.34518">
        <ele>131.9</ele>
        <time>2023-12-20T14:03:29Z</time>
      </trkpt>
      <trkpt lat="50.02759" lon="2.34519">
        <ele>131.9</ele>
        <time>2023-12-20T14:03:30Z</time>
      </trkpt>
      <trkpt lat="50.0276" lon="2.3452">
        <ele>131.9</ele>
        <time>2023-12-20T14:03:31Z</time>
      </trkpt>
      <trkpt lat="50.02761" lon="2.34522">
        <ele>131.9</ele>
        <time>2023-12-20T14:03:32Z</time>
      </trkpt>
      <trkpt lat="50.02762" lon="2.34523">
        <ele>131.8</ele>
        <time>2023-12-20T14:03:33Z</time>
      </trkpt>
      <trkpt lat="50.02763" lon="2.34524">
        <ele>131.8</ele>
        <time>2023-12-20T14:03:34Z</time>
      </trkpt>
      <trkpt lat="50.02764" lon="2.34526">
        <ele>131.8</ele>
        <time>2023-12-20T14:03:36Z</time>
      </trkpt>
      <trkpt lat="50.02765" lon="2.34527">
        <ele>131.8</ele>
        <time>2023-12-20T14:03:37Z</time>
      </trkpt>
      <trkpt lat="50.02766" lon="2.34527">
        <ele>131.7</ele>
        <time>2023-12-20T14:03:38Z</time>
      </trkpt>
      <trkpt lat="50.02766" lon="2.34529">
        <ele>131.7</ele>
        <time>2023-12-20T14:03:39Z</time>
      </trkpt>
      <trkpt lat="50.02767" lon="2.3453">
        <ele>131.7</ele>
        <time>2023-12-20T14:03:40Z</time>
      </trkpt>
      <trkpt lat="50.02768" lon="2.34531">
        <ele>131.6</ele>
        <time>2023-12-20T14:03:41Z</time>
      </trkpt>
      <trkpt lat="50.02769" lon="2.34531">
        <ele>131.6</ele>
        <time>2023-12-20T14:03:42Z</time>
      </trkpt>
      <trkpt lat="50.02771" lon="2.34532">
        <ele>131.6</ele>
        <time>2023-12-20T14:03:43Z</time>
      </trkpt>
      <trkpt lat="50.02771" lon="2.34533">
        <ele>131.5</ele>
        <time>2023-12-20T14:03:45Z</time>
      </trkpt>
      <trkpt lat="50.02773" lon="2.34534">
        <ele>131.5</ele>
        <time>2023-12-20T14:03:46Z</time>
      </trkpt>
      <trkpt lat="50.02774" lon="2.34536">
        <ele>131.5</ele>
        <time>2023-12-20T14:03:47Z</time>
      </trkpt>
      <trkpt lat="50.02775" lon="2.34537">
        <ele>131.4</ele>
        <time>2023-12-20T14:03:48Z</time>
      </trkpt>
      <trkpt lat="50.02775" lon="2.34538">
        <ele>131.4</ele>
        <time>2023-12-20T14:03:49Z</time>
      </trkpt>
      <trkpt lat="50.02776" lon="2.34539">
        <ele>131.3</ele>
        <time>2023-12-20T14:03:50Z</time>
      </trkpt>
      <trkpt lat="50.02778" lon="2.34541">
        <ele>131.3</ele>
        <time>2023-12-20T14:03:52Z</time>
      </trkpt>
      <trkpt lat="50.02779" lon="2.34543">
        <ele>131.2</ele>
        <time>2023-12-20T14:03:54Z</time>
      </trkpt>
      <trkpt lat="50.0278" lon="2.34544">
        <ele>131.2</ele>
        <time>2023-12-20T14:03:55Z</time>
      </trkpt>
      <trkpt lat="50.02781" lon="2.34546">
        <ele>131.1</ele>
        <time>2023-12-20T14:03:56Z</time>
      </trkpt>
      <trkpt lat="50.02783" lon="2.34547">
        <ele>131</ele>
        <time>2023-12-20T14:03:57Z</time>
      </trkpt>
      <trkpt lat="50.02783" lon="2.34548">
        <ele>131</ele>
        <time>2023-12-20T14:03:58Z</time>
      </trkpt>
      <trkpt lat="50.02784" lon="2.34549">
        <ele>131</ele>
        <time>2023-12-20T14:03:59Z</time>
      </trkpt>
      <trkpt lat="50.02786" lon="2.3455">
        <ele>130.9</ele>
        <time>2023-12-20T14:04:01Z</time>
      </trkpt>
      <trkpt lat="50.02787" lon="2.34551">
        <ele>130.8</ele>
        <time>2023-12-20T14:04:02Z</time>
      </trkpt>
      <trkpt lat="50.02787" lon="2.34552">
        <ele>130.8</ele>
        <time>2023-12-20T14:04:03Z</time>
      </trkpt>
      <trkpt lat="50.02789" lon="2.34554">
        <ele>130.7</ele>
        <time>2023-12-20T14:04:04Z</time>
      </trkpt>
      <trkpt lat="50.0279" lon="2.34554">
        <ele>130.6</ele>
        <time>2023-12-20T14:04:05Z</time>
      </trkpt>
      <trkpt lat="50.02791" lon="2.34555">
        <ele>130.6</ele>
        <time>2023-12-20T14:04:06Z</time>
      </trkpt>
      <trkpt lat="50.02792" lon="2.34556">
        <ele>130.6</ele>
        <time>2023-12-20T14:04:07Z</time>
      </trkpt>
      <trkpt lat="50.02793" lon="2.34556">
        <ele>130.5</ele>
        <time>2023-12-20T14:04:09Z</time>
      </trkpt>
      <trkpt lat="50.02794" lon="2.34557">
        <ele>130.4</ele>
        <time>2023-12-20T14:04:10Z</time>
      </trkpt>
      <trkpt lat="50.02795" lon="2.34558">
        <ele>130.4</ele>
        <time>2023-12-20T14:04:11Z</time>
      </trkpt>
      <trkpt lat="50.02796" lon="2.34559">
        <ele>130.3</ele>
        <time>2023-12-20T14:04:12Z</time>
      </trkpt>
      <trkpt lat="50.02797" lon="2.34561">
        <ele>130.2</ele>
        <time>2023-12-20T14:04:14Z</time>
      </trkpt>
      <trkpt lat="50.02798" lon="2.34562">
        <ele>130.2</ele>
        <time>2023-12-20T14:04:15Z</time>
      </trkpt>
      <trkpt lat="50.02799" lon="2.34562">
        <ele>130.1</ele>
        <time>2023-12-20T14:04:16Z</time>
      </trkpt>
      <trkpt lat="50.028" lon="2.34563">
        <ele>130.1</ele>
        <time>2023-12-20T14:04:18Z</time>
      </trkpt>
      <trkpt lat="50.028" lon="2.34563">
        <ele>130.1</ele>
        <time>2023-12-20T14:04:19Z</time>
      </trkpt>
      <trkpt lat="50.028" lon="2.34563">
        <ele>130.1</ele>
        <time>2023-12-20T14:04:21Z</time>
      </trkpt>
      <trkpt lat="50.02799" lon="2.34564">
        <ele>130</ele>
        <time>2023-12-20T14:04:22Z</time>
      </trkpt>
      <trkpt lat="50.02799" lon="2.34564">
        <ele>130</ele>
        <time>2023-12-20T14:04:23Z</time>
      </trkpt>
      <trkpt lat="50.02799" lon="2.34564">
        <ele>130</ele>
        <time>2023-12-20T14:04:24Z</time>
      </trkpt>
      <trkpt lat="50.02798" lon="2.34564">
        <ele>130</ele>
        <time>2023-12-20T14:04:27Z</time>
      </trkpt>
      <trkpt lat="50.02798" lon="2.34564">
        <ele>129.9</ele>
        <time>2023-12-20T14:04:29Z</time>
      </trkpt>
      <trkpt lat="50.02798" lon="2.34564">
        <ele>129.9</ele>
        <time>2023-12-20T14:04:30Z</time>
      </trkpt>
      <trkpt lat="50.02797" lon="2.34564">
        <ele>129.9</ele>
        <time>2023-12-20T14:04:31Z</time>
      </trkpt>
      <trkpt lat="50.02797" lon="2.34564">
        <ele>129.9</ele>
        <time>2023-12-20T14:04:32Z</time>
      </trkpt>
      <trkpt lat="50.02797" lon="2.34564">
        <ele>129.9</ele>
        <time>2023-12-20T14:04:34Z</time>
      </trkpt>
      <trkpt lat="50.02797" lon="2.34564">
        <ele>129.9</ele>
        <time>2023-12-20T14:04:35Z</time>
      </trkpt>
      <trkpt lat="50.02797" lon="2.34564">
        <ele>129.9</ele>
        <time>2023-12-20T14:04:36Z</time>
      </trkpt>
      <trkpt lat="50.02797" lon="2.34563">
        <ele>129.9</ele>
        <time>2023-12-20T14:04:37Z</time>
      </trkpt>
      <trkpt lat="50.02797" lon="2.34563">
        <ele>129.9</ele>
        <time>2023-12-20T14:04:38Z</time>
      </trkpt>
      <trkpt lat="50.02795" lon="2.34561">
        <ele>129.7</ele>
        <time>2023-12-20T14:06:08Z</time>
      </trkpt>
      <trkpt lat="50.02795" lon="2.34561">
        <ele>129.7</ele>
        <time>2023-12-20T14:06:09Z</time>
      </trkpt>
      <trkpt lat="50.02796" lon="2.34562">
        <ele>129.7</ele>
        <time>2023-12-20T14:06:11Z</time>
      </trkpt>
      <trkpt lat="50.02796" lon="2.34564">
        <ele>129.6</ele>
        <time>2023-12-20T14:06:12Z</time>
      </trkpt>
      <trkpt lat="50.02796" lon="2.34565">
        <ele>129.6</ele>
        <time>2023-12-20T14:06:13Z</time>
      </trkpt>
      <trkpt lat="50.02797" lon="2.34566">
        <ele>129.5</ele>
        <time>2023-12-20T14:06:14Z</time>
      </trkpt>
      <trkpt lat="50.02797" lon="2.34568">
        <ele>129.5</ele>
        <time>2023-12-20T14:06:15Z</time>
      </trkpt>
      <trkpt lat="50.02798" lon="2.34569">
        <ele>129.4</ele>
        <time>2023-12-20T14:06:16Z</time>
      </trkpt>
      <trkpt lat="50.028" lon="2.34571">
        <ele>129.3</ele>
        <time>2023-12-20T14:06:18Z</time>
      </trkpt>
      <trkpt lat="50.02801" lon="2.34572">
        <ele>129.3</ele>
        <time>2023-12-20T14:06:20Z</time>
      </trkpt>
      <trkpt lat="50.02801" lon="2.34572">
        <ele>129.3</ele>
        <time>2023-12-20T14:06:21Z</time>
      </trkpt>
      <trkpt lat="50.02802" lon="2.34573">
        <ele>129.3</ele>
        <time>2023-12-20T14:06:23Z</time>
      </trkpt>
      <trkpt lat="50.02801" lon="2.34573">
        <ele>129.2</ele>
        <time>2023-12-20T14:06:24Z</time>
      </trkpt>
      <trkpt lat="50.028" lon="2.34572">
        <ele>129.2</ele>
        <time>2023-12-20T14:06:25Z</time>
      </trkpt>
      <trkpt lat="50.028" lon="2.34571">
        <ele>129.2</ele>
        <time>2023-12-20T14:06:27Z</time>
      </trkpt>
      <trkpt lat="50.028" lon="2.3457">
        <ele>129.2</ele>
        <time>2023-12-20T14:06:29Z</time>
      </trkpt>
      <trkpt lat="50.028" lon="2.3457">
        <ele>129.2</ele>
        <time>2023-12-20T14:06:31Z</time>
      </trkpt>
      <trkpt lat="50.028" lon="2.3457">
        <ele>129.1</ele>
        <time>2023-12-20T14:06:32Z</time>
      </trkpt>
      <trkpt lat="50.02801" lon="2.34571">
        <ele>129.1</ele>
        <time>2023-12-20T14:06:33Z</time>
      </trkpt>
      <trkpt lat="50.02801" lon="2.34572">
        <ele>129.1</ele>
        <time>2023-12-20T14:06:34Z</time>
      </trkpt>
      <trkpt lat="50.02801" lon="2.34572">
        <ele>129.1</ele>
        <time>2023-12-20T14:06:35Z</time>
      </trkpt>
      <trkpt lat="50.02802" lon="2.34573">
        <ele>129.1</ele>
        <time>2023-12-20T14:06:37Z</time>
      </trkpt>
      <trkpt lat="50.02803" lon="2.34574">
        <ele>129.1</ele>
        <time>2023-12-20T14:06:39Z</time>
      </trkpt>
      <trkpt lat="50.02804" lon="2.34575">
        <ele>129.1</ele>
        <time>2023-12-20T14:06:40Z</time>
      </trkpt>
      <trkpt lat="50.02804" lon="2.34577">
        <ele>129.1</ele>
        <time>2023-12-20T14:06:42Z</time>
      </trkpt>
      <trkpt lat="50.02803" lon="2.34578">
        <ele>129.1</ele>
        <time>2023-12-20T14:06:43Z</time>
      </trkpt>
      <trkpt lat="50.02803" lon="2.3458">
        <ele>129.1</ele>
        <time>2023-12-20T14:06:44Z</time>
      </trkpt>
      <trkpt lat="50.02804" lon="2.34582">
        <ele>129.1</ele>
        <time>2023-12-20T14:06:45Z</time>
      </trkpt>
      <trkpt lat="50.02804" lon="2.34584">
        <ele>129.1</ele>
        <time>2023-12-20T14:06:46Z</time>
      </trkpt>
      <trkpt lat="50.02805" lon="2.34586">
        <ele>129.1</ele>
        <time>2023-12-20T14:06:48Z</time>
      </trkpt>
      <trkpt lat="50.02805" lon="2.34588">
        <ele>129.2</ele>
        <time>2023-12-20T14:06:49Z</time>
      </trkpt>
      <trkpt lat="50.02806" lon="2.3459">
        <ele>129.2</ele>
        <time>2023-12-20T14:06:51Z</time>
      </trkpt>
      <trkpt lat="50.02806" lon="2.34591">
        <ele>129.2</ele>
        <time>2023-12-20T14:06:52Z</time>
      </trkpt>
      <trkpt lat="50.02807" lon="2.34593">
        <ele>129.2</ele>
        <time>2023-12-20T14:06:53Z</time>
      </trkpt>
      <trkpt lat="50.02806" lon="2.34593">
        <ele>129.2</ele>
        <time>2023-12-20T14:06:54Z</time>
      </trkpt>
      <trkpt lat="50.02807" lon="2.34594">
        <ele>129.3</ele>
        <time>2023-12-20T14:06:55Z</time>
      </trkpt>
      <trkpt lat="50.02807" lon="2.34596">
        <ele>129.3</ele>
        <time>2023-12-20T14:06:56Z</time>
      </trkpt>
      <trkpt lat="50.02807" lon="2.34597">
        <ele>129.3</ele>
        <time>2023-12-20T14:06:58Z</time>
      </trkpt>
      <trkpt lat="50.02808" lon="2.34599">
        <ele>129.4</ele>
        <time>2023-12-20T14:06:59Z</time>
      </trkpt>
      <trkpt lat="50.02809" lon="2.34601">
        <ele>129.4</ele>
        <time>2023-12-20T14:07:00Z</time>
      </trkpt>
      <trkpt lat="50.02809" lon="2.34603">
        <ele>129.4</ele>
        <time>2023-12-20T14:07:01Z</time>
      </trkpt>
      <trkpt lat="50.0281" lon="2.34605">
        <ele>129.5</ele>
        <time>2023-12-20T14:07:02Z</time>
      </trkpt>
      <trkpt lat="50.0281" lon="2.34608">
        <ele>129.5</ele>
        <time>2023-12-20T14:07:03Z</time>
      </trkpt>
      <trkpt lat="50.02811" lon="2.3461">
        <ele>129.6</ele>
        <time>2023-12-20T14:07:04Z</time>
      </trkpt>
      <trkpt lat="50.02811" lon="2.34613">
        <ele>129.6</ele>
        <time>2023-12-20T14:07:05Z</time>
      </trkpt>
      <trkpt lat="50.02812" lon="2.34616">
        <ele>129.7</ele>
        <time>2023-12-20T14:07:07Z</time>
      </trkpt>
      <trkpt lat="50.02813" lon="2.34617">
        <ele>129.7</ele>
        <time>2023-12-20T14:07:08Z</time>
      </trkpt>
      <trkpt lat="50.02814" lon="2.34618">
        <ele>129.8</ele>
        <time>2023-12-20T14:07:10Z</time>
      </trkpt>
      <trkpt lat="50.02814" lon="2.3462">
        <ele>129.8</ele>
        <time>2023-12-20T14:07:11Z</time>
      </trkpt>
      <trkpt lat="50.02815" lon="2.34621">
        <ele>129.8</ele>
        <time>2023-12-20T14:07:12Z</time>
      </trkpt>
      <trkpt lat="50.02815" lon="2.34623">
        <ele>129.8</ele>
        <time>2023-12-20T14:07:13Z</time>
      </trkpt>
      <trkpt lat="50.02815" lon="2.34624">
        <ele>129.9</ele>
        <time>2023-12-20T14:07:14Z</time>
      </trkpt>
      <trkpt lat="50.02816" lon="2.34626">
        <ele>129.9</ele>
        <time>2023-12-20T14:07:15Z</time>
      </trkpt>
      <trkpt lat="50.02816" lon="2.34627">
        <ele>129.9</ele>
        <time>2023-12-20T14:07:16Z</time>
      </trkpt>
      <trkpt lat="50.02817" lon="2.34629">
        <ele>129.9</ele>
        <time>2023-12-20T14:07:18Z</time>
      </trkpt>
      <trkpt lat="50.02817" lon="2.3463">
        <ele>130</ele>
        <time>2023-12-20T14:07:19Z</time>
      </trkpt>
      <trkpt lat="50.02817" lon="2.34632">
        <ele>130</ele>
        <time>2023-12-20T14:07:20Z</time>
      </trkpt>
      <trkpt lat="50.02818" lon="2.34633">
        <ele>130</ele>
        <time>2023-12-20T14:07:21Z</time>
      </trkpt>
      <trkpt lat="50.02818" lon="2.34634">
        <ele>130</ele>
        <time>2023-12-20T14:07:22Z</time>
      </trkpt>
      <trkpt lat="50.02819" lon="2.34636">
        <ele>130</ele>
        <time>2023-12-20T14:07:23Z</time>
      </trkpt>
      <trkpt lat="50.02819" lon="2.34637">
        <ele>130.1</ele>
        <time>2023-12-20T14:07:24Z</time>
      </trkpt>
      <trkpt lat="50.02819" lon="2.34639">
        <ele>130.1</ele>
        <time>2023-12-20T14:07:26Z</time>
      </trkpt>
      <trkpt lat="50.02819" lon="2.34641">
        <ele>130.1</ele>
        <time>2023-12-20T14:07:27Z</time>
      </trkpt>
      <trkpt lat="50.02819" lon="2.34642">
        <ele>130.1</ele>
        <time>2023-12-20T14:07:28Z</time>
      </trkpt>
      <trkpt lat="50.0282" lon="2.34644">
        <ele>130.1</ele>
        <time>2023-12-20T14:07:29Z</time>
      </trkpt>
      <trkpt lat="50.0282" lon="2.34645">
        <ele>130.1</ele>
        <time>2023-12-20T14:07:30Z</time>
      </trkpt>
      <trkpt lat="50.02821" lon="2.34647">
        <ele>130.1</ele>
        <time>2023-12-20T14:07:31Z</time>
      </trkpt>
      <trkpt lat="50.02821" lon="2.34648">
        <ele>130.2</ele>
        <time>2023-12-20T14:07:32Z</time>
      </trkpt>
      <trkpt lat="50.02822" lon="2.3465">
        <ele>130.2</ele>
        <time>2023-12-20T14:07:34Z</time>
      </trkpt>
      <trkpt lat="50.02822" lon="2.34651">
        <ele>130.2</ele>
        <time>2023-12-20T14:07:35Z</time>
      </trkpt>
      <trkpt lat="50.02822" lon="2.34653">
        <ele>130.2</ele>
        <time>2023-12-20T14:07:36Z</time>
      </trkpt>
      <trkpt lat="50.02823" lon="2.34655">
        <ele>130.2</ele>
        <time>2023-12-20T14:07:37Z</time>
      </trkpt>
      <trkpt lat="50.02823" lon="2.34656">
        <ele>130.2</ele>
        <time>2023-12-20T14:07:38Z</time>
      </trkpt>
      <trkpt lat="50.02824" lon="2.34658">
        <ele>130.2</ele>
        <time>2023-12-20T14:07:39Z</time>
      </trkpt>
      <trkpt lat="50.02825" lon="2.34661">
        <ele>130.2</ele>
        <time>2023-12-20T14:07:41Z</time>
      </trkpt>
      <trkpt lat="50.02825" lon="2.34662">
        <ele>130.2</ele>
        <time>2023-12-20T14:07:42Z</time>
      </trkpt>
      <trkpt lat="50.02826" lon="2.34663">
        <ele>130.2</ele>
        <time>2023-12-20T14:07:43Z</time>
      </trkpt>
      <trkpt lat="50.02826" lon="2.34664">
        <ele>130.2</ele>
        <time>2023-12-20T14:07:44Z</time>
      </trkpt>
      <trkpt lat="50.02827" lon="2.34666">
        <ele>130.2</ele>
        <time>2023-12-20T14:07:45Z</time>
      </trkpt>
      <trkpt lat="50.02827" lon="2.34668">
        <ele>130.2</ele>
        <time>2023-12-20T14:07:46Z</time>
      </trkpt>
      <trkpt lat="50.02828" lon="2.34669">
        <ele>130.2</ele>
        <time>2023-12-20T14:07:47Z</time>
      </trkpt>
      <trkpt lat="50.02828" lon="2.34671">
        <ele>130.1</ele>
        <time>2023-12-20T14:07:49Z</time>
      </trkpt>
      <trkpt lat="50.02829" lon="2.34673">
        <ele>130.1</ele>
        <time>2023-12-20T14:07:50Z</time>
      </trkpt>
      <trkpt lat="50.02829" lon="2.34674">
        <ele>130.1</ele>
        <time>2023-12-20T14:07:51Z</time>
      </trkpt>
      <trkpt lat="50.0283" lon="2.34676">
        <ele>130.1</ele>
        <time>2023-12-20T14:07:52Z</time>
      </trkpt>
      <trkpt lat="50.0283" lon="2.34677">
        <ele>130.1</ele>
        <time>2023-12-20T14:07:53Z</time>
      </trkpt>
      <trkpt lat="50.02831" lon="2.34679">
        <ele>130.1</ele>
        <time>2023-12-20T14:07:54Z</time>
      </trkpt>
      <trkpt lat="50.02831" lon="2.34681">
        <ele>130.1</ele>
        <time>2023-12-20T14:07:55Z</time>
      </trkpt>
      <trkpt lat="50.02832" lon="2.34682">
        <ele>130.1</ele>
        <time>2023-12-20T14:07:57Z</time>
      </trkpt>
      <trkpt lat="50.02832" lon="2.34684">
        <ele>130.1</ele>
        <time>2023-12-20T14:07:58Z</time>
      </trkpt>
      <trkpt lat="50.02833" lon="2.34686">
        <ele>130</ele>
        <time>2023-12-20T14:07:59Z</time>
      </trkpt>
      <trkpt lat="50.02833" lon="2.3469">
        <ele>130</ele>
        <time>2023-12-20T14:08:00Z</time>
      </trkpt>
      <trkpt lat="50.02833" lon="2.34691">
        <ele>130</ele>
        <time>2023-12-20T14:08:01Z</time>
      </trkpt>
      <trkpt lat="50.02834" lon="2.34693">
        <ele>130</ele>
        <time>2023-12-20T14:08:02Z</time>
      </trkpt>
      <trkpt lat="50.02834" lon="2.34694">
        <ele>130</ele>
        <time>2023-12-20T14:08:03Z</time>
      </trkpt>
      <trkpt lat="50.02834" lon="2.34696">
        <ele>129.9</ele>
        <time>2023-12-20T14:08:04Z</time>
      </trkpt>
      <trkpt lat="50.02835" lon="2.34698">
        <ele>129.9</ele>
        <time>2023-12-20T14:08:05Z</time>
      </trkpt>
      <trkpt lat="50.02835" lon="2.34701">
        <ele>129.9</ele>
        <time>2023-12-20T14:08:07Z</time>
      </trkpt>
      <trkpt lat="50.02835" lon="2.34702">
        <ele>129.9</ele>
        <time>2023-12-20T14:08:08Z</time>
      </trkpt>
      <trkpt lat="50.02836" lon="2.34703">
        <ele>129.8</ele>
        <time>2023-12-20T14:08:09Z</time>
      </trkpt>
      <trkpt lat="50.02836" lon="2.34707">
        <ele>129.8</ele>
        <time>2023-12-20T14:08:10Z</time>
      </trkpt>
      <trkpt lat="50.02837" lon="2.34708">
        <ele>129.8</ele>
        <time>2023-12-20T14:08:11Z</time>
      </trkpt>
      <trkpt lat="50.02837" lon="2.34709">
        <ele>129.7</ele>
        <time>2023-12-20T14:08:12Z</time>
      </trkpt>
      <trkpt lat="50.02837" lon="2.34711">
        <ele>129.7</ele>
        <time>2023-12-20T14:08:13Z</time>
      </trkpt>
      <trkpt lat="50.02838" lon="2.34713">
        <ele>129.7</ele>
        <time>2023-12-20T14:08:15Z</time>
      </trkpt>
      <trkpt lat="50.02839" lon="2.34715">
        <ele>129.6</ele>
        <time>2023-12-20T14:08:16Z</time>
      </trkpt>
      <trkpt lat="50.02839" lon="2.34717">
        <ele>129.6</ele>
        <time>2023-12-20T14:08:17Z</time>
      </trkpt>
      <trkpt lat="50.0284" lon="2.3472">
        <ele>129.5</ele>
        <time>2023-12-20T14:08:18Z</time>
      </trkpt>
      <trkpt lat="50.0284" lon="2.34721">
        <ele>129.5</ele>
        <time>2023-12-20T14:08:19Z</time>
      </trkpt>
      <trkpt lat="50.02841" lon="2.34723">
        <ele>129.5</ele>
        <time>2023-12-20T14:08:20Z</time>
      </trkpt>
      <trkpt lat="50.02841" lon="2.34726">
        <ele>129.4</ele>
        <time>2023-12-20T14:08:21Z</time>
      </trkpt>
      <trkpt lat="50.02842" lon="2.34727">
        <ele>129.4</ele>
        <time>2023-12-20T14:08:22Z</time>
      </trkpt>
      <trkpt lat="50.02842" lon="2.34728">
        <ele>129.4</ele>
        <time>2023-12-20T14:08:23Z</time>
      </trkpt>
      <trkpt lat="50.02842" lon="2.3473">
        <ele>129.3</ele>
        <time>2023-12-20T14:08:24Z</time>
      </trkpt>
      <trkpt lat="50.02843" lon="2.34732">
        <ele>129.3</ele>
        <time>2023-12-20T14:08:25Z</time>
      </trkpt>
      <trkpt lat="50.02843" lon="2.34734">
        <ele>129.2</ele>
        <time>2023-12-20T14:08:27Z</time>
      </trkpt>
      <trkpt lat="50.02844" lon="2.34736">
        <ele>129.2</ele>
        <time>2023-12-20T14:08:28Z</time>
      </trkpt>
      <trkpt lat="50.02844" lon="2.34738">
        <ele>129.2</ele>
        <time>2023-12-20T14:08:29Z</time>
      </trkpt>
      <trkpt lat="50.02845" lon="2.3474">
        <ele>129.1</ele>
        <time>2023-12-20T14:08:30Z</time>
      </trkpt>
      <trkpt lat="50.02845" lon="2.34741">
        <ele>129.1</ele>
        <time>2023-12-20T14:08:31Z</time>
      </trkpt>
      <trkpt lat="50.02846" lon="2.34743">
        <ele>129</ele>
        <time>2023-12-20T14:08:32Z</time>
      </trkpt>
      <trkpt lat="50.02846" lon="2.34744">
        <ele>129</ele>
        <time>2023-12-20T14:08:33Z</time>
      </trkpt>
      <trkpt lat="50.02847" lon="2.34746">
        <ele>129</ele>
        <time>2023-12-20T14:08:34Z</time>
      </trkpt>
      <trkpt lat="50.02847" lon="2.34748">
        <ele>128.9</ele>
        <time>2023-12-20T14:08:35Z</time>
      </trkpt>
      <trkpt lat="50.02848" lon="2.34751">
        <ele>128.9</ele>
        <time>2023-12-20T14:08:36Z</time>
      </trkpt>
      <trkpt lat="50.02848" lon="2.34752">
        <ele>128.9</ele>
        <time>2023-12-20T14:08:38Z</time>
      </trkpt>
      <trkpt lat="50.02848" lon="2.34754">
        <ele>128.8</ele>
        <time>2023-12-20T14:08:39Z</time>
      </trkpt>
      <trkpt lat="50.02849" lon="2.34757">
        <ele>128.8</ele>
        <time>2023-12-20T14:08:40Z</time>
      </trkpt>
      <trkpt lat="50.02849" lon="2.34758">
        <ele>128.8</ele>
        <time>2023-12-20T14:08:41Z</time>
      </trkpt>
      <trkpt lat="50.0285" lon="2.34759">
        <ele>128.7</ele>
        <time>2023-12-20T14:08:42Z</time>
      </trkpt>
      <trkpt lat="50.0285" lon="2.34761">
        <ele>128.7</ele>
        <time>2023-12-20T14:08:43Z</time>
      </trkpt>
      <trkpt lat="50.02851" lon="2.34763">
        <ele>128.7</ele>
        <time>2023-12-20T14:08:44Z</time>
      </trkpt>
      <trkpt lat="50.02851" lon="2.34764">
        <ele>128.7</ele>
        <time>2023-12-20T14:08:45Z</time>
      </trkpt>
      <trkpt lat="50.02852" lon="2.34767">
        <ele>128.6</ele>
        <time>2023-12-20T14:08:47Z</time>
      </trkpt>
      <trkpt lat="50.02852" lon="2.34768">
        <ele>128.6</ele>
        <time>2023-12-20T14:08:48Z</time>
      </trkpt>
      <trkpt lat="50.02853" lon="2.34769">
        <ele>128.6</ele>
        <time>2023-12-20T14:08:49Z</time>
      </trkpt>
      <trkpt lat="50.02853" lon="2.34771">
        <ele>128.6</ele>
        <time>2023-12-20T14:08:50Z</time>
      </trkpt>
      <trkpt lat="50.02853" lon="2.34773">
        <ele>128.6</ele>
        <time>2023-12-20T14:08:51Z</time>
      </trkpt>
      <trkpt lat="50.02854" lon="2.34775">
        <ele>128.5</ele>
        <time>2023-12-20T14:08:52Z</time>
      </trkpt>
      <trkpt lat="50.02854" lon="2.34778">
        <ele>128.5</ele>
        <time>2023-12-20T14:08:53Z</time>
      </trkpt>
      <trkpt lat="50.02854" lon="2.34779">
        <ele>128.5</ele>
        <time>2023-12-20T14:08:54Z</time>
      </trkpt>
      <trkpt lat="50.02854" lon="2.34781">
        <ele>128.5</ele>
        <time>2023-12-20T14:08:55Z</time>
      </trkpt>
      <trkpt lat="50.02855" lon="2.34783">
        <ele>128.5</ele>
        <time>2023-12-20T14:08:57Z</time>
      </trkpt>
      <trkpt lat="50.02855" lon="2.34785">
        <ele>128.5</ele>
        <time>2023-12-20T14:08:58Z</time>
      </trkpt>
      <trkpt lat="50.02856" lon="2.34788">
        <ele>128.4</ele>
        <time>2023-12-20T14:08:59Z</time>
      </trkpt>
      <trkpt lat="50.02856" lon="2.34789">
        <ele>128.4</ele>
        <time>2023-12-20T14:09:00Z</time>
      </trkpt>
      <trkpt lat="50.02856" lon="2.34791">
        <ele>128.4</ele>
        <time>2023-12-20T14:09:01Z</time>
      </trkpt>
      <trkpt lat="50.02857" lon="2.34792">
        <ele>128.4</ele>
        <time>2023-12-20T14:09:02Z</time>
      </trkpt>
      <trkpt lat="50.02857" lon="2.34794">
        <ele>128.4</ele>
        <time>2023-12-20T14:09:03Z</time>
      </trkpt>
      <trkpt lat="50.02858" lon="2.34796">
        <ele>128.4</ele>
        <time>2023-12-20T14:09:04Z</time>
      </trkpt>
      <trkpt lat="50.02858" lon="2.34797">
        <ele>128.3</ele>
        <time>2023-12-20T14:09:06Z</time>
      </trkpt>
      <trkpt lat="50.02859" lon="2.34799">
        <ele>128.3</ele>
        <time>2023-12-20T14:09:07Z</time>
      </trkpt>
      <trkpt lat="50.02859" lon="2.348">
        <ele>128.3</ele>
        <time>2023-12-20T14:09:08Z</time>
      </trkpt>
      <trkpt lat="50.0286" lon="2.34801">
        <ele>128.3</ele>
        <time>2023-12-20T14:09:09Z</time>
      </trkpt>
      <trkpt lat="50.0286" lon="2.34802">
        <ele>128.3</ele>
        <time>2023-12-20T14:09:10Z</time>
      </trkpt>
      <trkpt lat="50.02861" lon="2.34803">
        <ele>128.2</ele>
        <time>2023-12-20T14:09:11Z</time>
      </trkpt>
      <trkpt lat="50.02862" lon="2.34806">
        <ele>128.2</ele>
        <time>2023-12-20T14:09:12Z</time>
      </trkpt>
      <trkpt lat="50.02863" lon="2.34807">
        <ele>128.2</ele>
        <time>2023-12-20T14:09:13Z</time>
      </trkpt>
      <trkpt lat="50.02863" lon="2.34809">
        <ele>128.1</ele>
        <time>2023-12-20T14:09:14Z</time>
      </trkpt>
      <trkpt lat="50.02864" lon="2.3481">
        <ele>128.1</ele>
        <time>2023-12-20T14:09:15Z</time>
      </trkpt>
      <trkpt lat="50.02865" lon="2.34811">
        <ele>128.1</ele>
        <time>2023-12-20T14:09:17Z</time>
      </trkpt>
      <trkpt lat="50.02867" lon="2.34812">
        <ele>128</ele>
        <time>2023-12-20T14:09:18Z</time>
      </trkpt>
      <trkpt lat="50.02868" lon="2.34813">
        <ele>127.9</ele>
        <time>2023-12-20T14:09:19Z</time>
      </trkpt>
      <trkpt lat="50.02869" lon="2.34813">
        <ele>127.8</ele>
        <time>2023-12-20T14:09:20Z</time>
      </trkpt>
      <trkpt lat="50.0287" lon="2.34814">
        <ele>127.8</ele>
        <time>2023-12-20T14:09:21Z</time>
      </trkpt>
      <trkpt lat="50.02872" lon="2.34814">
        <ele>127.7</ele>
        <time>2023-12-20T14:09:22Z</time>
      </trkpt>
      <trkpt lat="50.02874" lon="2.34813">
        <ele>127.6</ele>
        <time>2023-12-20T14:09:23Z</time>
      </trkpt>
      <trkpt lat="50.02874" lon="2.34813">
        <ele>127.5</ele>
        <time>2023-12-20T14:09:24Z</time>
      </trkpt>
      <trkpt lat="50.02875" lon="2.34813">
        <ele>127.5</ele>
        <time>2023-12-20T14:09:25Z</time>
      </trkpt>
      <trkpt lat="50.02877" lon="2.34812">
        <ele>127.4</ele>
        <time>2023-12-20T14:09:26Z</time>
      </trkpt>
      <trkpt lat="50.02878" lon="2.34812">
        <ele>127.3</ele>
        <time>2023-12-20T14:09:28Z</time>
      </trkpt>
      <trkpt lat="50.02879" lon="2.34811">
        <ele>127.3</ele>
        <time>2023-12-20T14:09:29Z</time>
      </trkpt>
      <trkpt lat="50.02881" lon="2.3481">
        <ele>127.2</ele>
        <time>2023-12-20T14:09:30Z</time>
      </trkpt>
      <trkpt lat="50.02882" lon="2.3481">
        <ele>127.1</ele>
        <time>2023-12-20T14:09:31Z</time>
      </trkpt>
      <trkpt lat="50.02885" lon="2.34808">
        <ele>126.9</ele>
        <time>2023-12-20T14:09:32Z</time>
      </trkpt>
      <trkpt lat="50.02885" lon="2.34808">
        <ele>126.9</ele>
        <time>2023-12-20T14:09:33Z</time>
      </trkpt>
      <trkpt lat="50.02886" lon="2.34807">
        <ele>126.9</ele>
        <time>2023-12-20T14:09:34Z</time>
      </trkpt>
      <trkpt lat="50.02887" lon="2.34807">
        <ele>126.8</ele>
        <time>2023-12-20T14:09:35Z</time>
      </trkpt>
      <trkpt lat="50.02889" lon="2.34806">
        <ele>126.7</ele>
        <time>2023-12-20T14:09:36Z</time>
      </trkpt>
      <trkpt lat="50.0289" lon="2.34806">
        <ele>126.7</ele>
        <time>2023-12-20T14:09:37Z</time>
      </trkpt>
      <trkpt lat="50.02891" lon="2.34805">
        <ele>126.6</ele>
        <time>2023-12-20T14:09:38Z</time>
      </trkpt>
      <trkpt lat="50.02892" lon="2.34805">
        <ele>126.6</ele>
        <time>2023-12-20T14:09:40Z</time>
      </trkpt>
      <trkpt lat="50.02894" lon="2.34804">
        <ele>126.5</ele>
        <time>2023-12-20T14:09:41Z</time>
      </trkpt>
      <trkpt lat="50.02895" lon="2.34804">
        <ele>126.5</ele>
        <time>2023-12-20T14:09:42Z</time>
      </trkpt>
      <trkpt lat="50.02896" lon="2.34803">
        <ele>126.4</ele>
        <time>2023-12-20T14:09:43Z</time>
      </trkpt>
      <trkpt lat="50.02898" lon="2.34802">
        <ele>126.4</ele>
        <time>2023-12-20T14:09:44Z</time>
      </trkpt>
      <trkpt lat="50.02899" lon="2.34802">
        <ele>126.4</ele>
        <time>2023-12-20T14:09:46Z</time>
      </trkpt>
      <trkpt lat="50.029" lon="2.34801">
        <ele>126.4</ele>
        <time>2023-12-20T14:09:47Z</time>
      </trkpt>
      <trkpt lat="50.02901" lon="2.348">
        <ele>126.4</ele>
        <time>2023-12-20T14:09:48Z</time>
      </trkpt>
      <trkpt lat="50.02902" lon="2.348">
        <ele>126.4</ele>
        <time>2023-12-20T14:09:49Z</time>
      </trkpt>
      <trkpt lat="50.02903" lon="2.34799">
        <ele>126.3</ele>
        <time>2023-12-20T14:09:50Z</time>
      </trkpt>
      <trkpt lat="50.02904" lon="2.34798">
        <ele>126.3</ele>
        <time>2023-12-20T14:09:51Z</time>
      </trkpt>
      <trkpt lat="50.02904" lon="2.34797">
        <ele>126.3</ele>
        <time>2023-12-20T14:09:52Z</time>
      </trkpt>
      <trkpt lat="50.02905" lon="2.34797">
        <ele>126.3</ele>
        <time>2023-12-20T14:09:54Z</time>
      </trkpt>
      <trkpt lat="50.02906" lon="2.34796">
        <ele>126.3</ele>
        <time>2023-12-20T14:09:55Z</time>
      </trkpt>
      <trkpt lat="50.02907" lon="2.34795">
        <ele>126.4</ele>
        <time>2023-12-20T14:09:56Z</time>
      </trkpt>
      <trkpt lat="50.02908" lon="2.34795">
        <ele>126.4</ele>
        <time>2023-12-20T14:09:57Z</time>
      </trkpt>
      <trkpt lat="50.02908" lon="2.34794">
        <ele>126.4</ele>
        <time>2023-12-20T14:09:58Z</time>
      </trkpt>
      <trkpt lat="50.02909" lon="2.34794">
        <ele>126.4</ele>
        <time>2023-12-20T14:09:59Z</time>
      </trkpt>
      <trkpt lat="50.02911" lon="2.34794">
        <ele>126.4</ele>
        <time>2023-12-20T14:10:00Z</time>
      </trkpt>
      <trkpt lat="50.02913" lon="2.34793">
        <ele>126.4</ele>
        <time>2023-12-20T14:10:02Z</time>
      </trkpt>
      <trkpt lat="50.02913" lon="2.34792">
        <ele>126.4</ele>
        <time>2023-12-20T14:10:03Z</time>
      </trkpt>
      <trkpt lat="50.02914" lon="2.34792">
        <ele>126.5</ele>
        <time>2023-12-20T14:10:04Z</time>
      </trkpt>
      <trkpt lat="50.02916" lon="2.3479">
        <ele>126.5</ele>
        <time>2023-12-20T14:10:05Z</time>
      </trkpt>
      <trkpt lat="50.02917" lon="2.3479">
        <ele>126.5</ele>
        <time>2023-12-20T14:10:06Z</time>
      </trkpt>
      <trkpt lat="50.02918" lon="2.34789">
        <ele>126.5</ele>
        <time>2023-12-20T14:10:07Z</time>
      </trkpt>
      <trkpt lat="50.0292" lon="2.34788">
        <ele>126.6</ele>
        <time>2023-12-20T14:10:08Z</time>
      </trkpt>
      <trkpt lat="50.02921" lon="2.34787">
        <ele>126.6</ele>
        <time>2023-12-20T14:10:10Z</time>
      </trkpt>
      <trkpt lat="50.02921" lon="2.34787">
        <ele>126.7</ele>
        <time>2023-12-20T14:10:11Z</time>
      </trkpt>
      <trkpt lat="50.02923" lon="2.34786">
        <ele>126.7</ele>
        <time>2023-12-20T14:10:12Z</time>
      </trkpt>
      <trkpt lat="50.02924" lon="2.34786">
        <ele>126.8</ele>
        <time>2023-12-20T14:10:13Z</time>
      </trkpt>
      <trkpt lat="50.02925" lon="2.34785">
        <ele>126.8</ele>
        <time>2023-12-20T14:10:14Z</time>
      </trkpt>
      <trkpt lat="50.02926" lon="2.34785">
        <ele>126.9</ele>
        <time>2023-12-20T14:10:15Z</time>
      </trkpt>
      <trkpt lat="50.02927" lon="2.34784">
        <ele>126.9</ele>
        <time>2023-12-20T14:10:16Z</time>
      </trkpt>
      <trkpt lat="50.02929" lon="2.34783">
        <ele>127</ele>
        <time>2023-12-20T14:10:18Z</time>
      </trkpt>
      <trkpt lat="50.0293" lon="2.34782">
        <ele>127</ele>
        <time>2023-12-20T14:10:19Z</time>
      </trkpt>
      <trkpt lat="50.02931" lon="2.34782">
        <ele>127.1</ele>
        <time>2023-12-20T14:10:20Z</time>
      </trkpt>
      <trkpt lat="50.02933" lon="2.34781">
        <ele>127.2</ele>
        <time>2023-12-20T14:10:21Z</time>
      </trkpt>
      <trkpt lat="50.02934" lon="2.3478">
        <ele>127.2</ele>
        <time>2023-12-20T14:10:22Z</time>
      </trkpt>
      <trkpt lat="50.02935" lon="2.3478">
        <ele>127.3</ele>
        <time>2023-12-20T14:10:23Z</time>
      </trkpt>
      <trkpt lat="50.02937" lon="2.34779">
        <ele>127.4</ele>
        <time>2023-12-20T14:10:25Z</time>
      </trkpt>
      <trkpt lat="50.02937" lon="2.34778">
        <ele>127.4</ele>
        <time>2023-12-20T14:10:26Z</time>
      </trkpt>
      <trkpt lat="50.02938" lon="2.34778">
        <ele>127.5</ele>
        <time>2023-12-20T14:10:27Z</time>
      </trkpt>
      <trkpt lat="50.02939" lon="2.34777">
        <ele>127.5</ele>
        <time>2023-12-20T14:10:28Z</time>
      </trkpt>
      <trkpt lat="50.0294" lon="2.34776">
        <ele>127.6</ele>
        <time>2023-12-20T14:10:29Z</time>
      </trkpt>
      <trkpt lat="50.02941" lon="2.34776">
        <ele>127.6</ele>
        <time>2023-12-20T14:10:30Z</time>
      </trkpt>
      <trkpt lat="50.02943" lon="2.34775">
        <ele>127.7</ele>
        <time>2023-12-20T14:10:31Z</time>
      </trkpt>
      <trkpt lat="50.02944" lon="2.34775">
        <ele>127.8</ele>
        <time>2023-12-20T14:10:33Z</time>
      </trkpt>
      <trkpt lat="50.02945" lon="2.34775">
        <ele>127.9</ele>
        <time>2023-12-20T14:10:34Z</time>
      </trkpt>
      <trkpt lat="50.02946" lon="2.34775">
        <ele>127.9</ele>
        <time>2023-12-20T14:10:35Z</time>
      </trkpt>
      <trkpt lat="50.02947" lon="2.34775">
        <ele>128</ele>
        <time>2023-12-20T14:10:36Z</time>
      </trkpt>
      <trkpt lat="50.02948" lon="2.34774">
        <ele>128.1</ele>
        <time>2023-12-20T14:10:37Z</time>
      </trkpt>
      <trkpt lat="50.0295" lon="2.34773">
        <ele>128.2</ele>
        <time>2023-12-20T14:10:39Z</time>
      </trkpt>
      <trkpt lat="50.02951" lon="2.34772">
        <ele>128.3</ele>
        <time>2023-12-20T14:10:41Z</time>
      </trkpt>
      <trkpt lat="50.02952" lon="2.34772">
        <ele>128.3</ele>
        <time>2023-12-20T14:10:42Z</time>
      </trkpt>
      <trkpt lat="50.02954" lon="2.34771">
        <ele>128.4</ele>
        <time>2023-12-20T14:10:43Z</time>
      </trkpt>
      <trkpt lat="50.02955" lon="2.34771">
        <ele>128.5</ele>
        <time>2023-12-20T14:10:44Z</time>
      </trkpt>
      <trkpt lat="50.02956" lon="2.34771">
        <ele>128.6</ele>
        <time>2023-12-20T14:10:45Z</time>
      </trkpt>
      <trkpt lat="50.02957" lon="2.3477">
        <ele>128.6</ele>
        <time>2023-12-20T14:10:46Z</time>
      </trkpt>
      <trkpt lat="50.02958" lon="2.3477">
        <ele>128.7</ele>
        <time>2023-12-20T14:10:48Z</time>
      </trkpt>
      <trkpt lat="50.02959" lon="2.3477">
        <ele>128.8</ele>
        <time>2023-12-20T14:10:49Z</time>
      </trkpt>
      <trkpt lat="50.0296" lon="2.34769">
        <ele>128.8</ele>
        <time>2023-12-20T14:10:50Z</time>
      </trkpt>
      <trkpt lat="50.02961" lon="2.34769">
        <ele>128.9</ele>
        <time>2023-12-20T14:10:51Z</time>
      </trkpt>
      <trkpt lat="50.02963" lon="2.34767">
        <ele>129</ele>
        <time>2023-12-20T14:10:53Z</time>
      </trkpt>
      <trkpt lat="50.02963" lon="2.34767">
        <ele>129</ele>
        <time>2023-12-20T14:10:54Z</time>
      </trkpt>
      <trkpt lat="50.02964" lon="2.34766">
        <ele>129.1</ele>
        <time>2023-12-20T14:10:55Z</time>
      </trkpt>
      <trkpt lat="50.02965" lon="2.34766">
        <ele>129.1</ele>
        <time>2023-12-20T14:10:56Z</time>
      </trkpt>
      <trkpt lat="50.02966" lon="2.34765">
        <ele>129.2</ele>
        <time>2023-12-20T14:10:57Z</time>
      </trkpt>
      <trkpt lat="50.02967" lon="2.34764">
        <ele>129.3</ele>
        <time>2023-12-20T14:10:58Z</time>
      </trkpt>
      <trkpt lat="50.02969" lon="2.34764">
        <ele>129.4</ele>
        <time>2023-12-20T14:10:59Z</time>
      </trkpt>
      <trkpt lat="50.0297" lon="2.34763">
        <ele>129.4</ele>
        <time>2023-12-20T14:11:00Z</time>
      </trkpt>
      <trkpt lat="50.02971" lon="2.34763">
        <ele>129.5</ele>
        <time>2023-12-20T14:11:01Z</time>
      </trkpt>
      <trkpt lat="50.02973" lon="2.34762">
        <ele>129.6</ele>
        <time>2023-12-20T14:11:03Z</time>
      </trkpt>
      <trkpt lat="50.02974" lon="2.34762">
        <ele>129.6</ele>
        <time>2023-12-20T14:11:04Z</time>
      </trkpt>
      <trkpt lat="50.02975" lon="2.34761">
        <ele>129.7</ele>
        <time>2023-12-20T14:11:05Z</time>
      </trkpt>
      <trkpt lat="50.02977" lon="2.3476">
        <ele>129.8</ele>
        <time>2023-12-20T14:11:06Z</time>
      </trkpt>
      <trkpt lat="50.02977" lon="2.34759">
        <ele>129.8</ele>
        <time>2023-12-20T14:11:07Z</time>
      </trkpt>
      <trkpt lat="50.02978" lon="2.34759">
        <ele>129.8</ele>
        <time>2023-12-20T14:11:08Z</time>
      </trkpt>
      <trkpt lat="50.0298" lon="2.34757">
        <ele>129.9</ele>
        <time>2023-12-20T14:11:09Z</time>
      </trkpt>
      <trkpt lat="50.02981" lon="2.34757">
        <ele>130</ele>
        <time>2023-12-20T14:11:11Z</time>
      </trkpt>
      <trkpt lat="50.02982" lon="2.34756">
        <ele>130</ele>
        <time>2023-12-20T14:11:12Z</time>
      </trkpt>
      <trkpt lat="50.02983" lon="2.34755">
        <ele>130.1</ele>
        <time>2023-12-20T14:11:13Z</time>
      </trkpt>
      <trkpt lat="50.02984" lon="2.34754">
        <ele>130.1</ele>
        <time>2023-12-20T14:11:14Z</time>
      </trkpt>
      <trkpt lat="50.02985" lon="2.34753">
        <ele>130.2</ele>
        <time>2023-12-20T14:11:15Z</time>
      </trkpt>
      <trkpt lat="50.02987" lon="2.34753">
        <ele>130.3</ele>
        <time>2023-12-20T14:11:17Z</time>
      </trkpt>
      <trkpt lat="50.02989" lon="2.34751">
        <ele>130.4</ele>
        <time>2023-12-20T14:11:19Z</time>
      </trkpt>
      <trkpt lat="50.0299" lon="2.34751">
        <ele>130.4</ele>
        <time>2023-12-20T14:11:20Z</time>
      </trkpt>
      <trkpt lat="50.02991" lon="2.34751">
        <ele>130.5</ele>
        <time>2023-12-20T14:11:21Z</time>
      </trkpt>
      <trkpt lat="50.02992" lon="2.3475">
        <ele>130.5</ele>
        <time>2023-12-20T14:11:22Z</time>
      </trkpt>
      <trkpt lat="50.02993" lon="2.3475">
        <ele>130.6</ele>
        <time>2023-12-20T14:11:23Z</time>
      </trkpt>
      <trkpt lat="50.02994" lon="2.34749">
        <ele>130.6</ele>
        <time>2023-12-20T14:11:25Z</time>
      </trkpt>
      <trkpt lat="50.02997" lon="2.34748">
        <ele>130.7</ele>
        <time>2023-12-20T14:11:26Z</time>
      </trkpt>
      <trkpt lat="50.02997" lon="2.34747">
        <ele>130.7</ele>
        <time>2023-12-20T14:11:27Z</time>
      </trkpt>
      <trkpt lat="50.02998" lon="2.34747">
        <ele>130.8</ele>
        <time>2023-12-20T14:11:28Z</time>
      </trkpt>
      <trkpt lat="50.03" lon="2.34746">
        <ele>130.9</ele>
        <time>2023-12-20T14:11:29Z</time>
      </trkpt>
      <trkpt lat="50.03001" lon="2.34745">
        <ele>130.9</ele>
        <time>2023-12-20T14:11:30Z</time>
      </trkpt>
      <trkpt lat="50.03002" lon="2.34745">
        <ele>130.9</ele>
        <time>2023-12-20T14:11:31Z</time>
      </trkpt>
      <trkpt lat="50.03003" lon="2.34744">
        <ele>131</ele>
        <time>2023-12-20T14:11:33Z</time>
      </trkpt>
      <trkpt lat="50.03004" lon="2.34743">
        <ele>131</ele>
        <time>2023-12-20T14:11:34Z</time>
      </trkpt>
      <trkpt lat="50.03006" lon="2.34742">
        <ele>131.1</ele>
        <time>2023-12-20T14:11:35Z</time>
      </trkpt>
      <trkpt lat="50.03007" lon="2.34742">
        <ele>131.1</ele>
        <time>2023-12-20T14:11:36Z</time>
      </trkpt>
      <trkpt lat="50.03008" lon="2.34742">
        <ele>131.2</ele>
        <time>2023-12-20T14:11:37Z</time>
      </trkpt>
      <trkpt lat="50.0301" lon="2.34741">
        <ele>131.2</ele>
        <time>2023-12-20T14:11:38Z</time>
      </trkpt>
      <trkpt lat="50.03011" lon="2.3474">
        <ele>131.3</ele>
        <time>2023-12-20T14:11:40Z</time>
      </trkpt>
      <trkpt lat="50.03011" lon="2.3474">
        <ele>131.3</ele>
        <time>2023-12-20T14:11:41Z</time>
      </trkpt>
      <trkpt lat="50.03013" lon="2.34739">
        <ele>131.3</ele>
        <time>2023-12-20T14:11:42Z</time>
      </trkpt>
      <trkpt lat="50.03014" lon="2.34739">
        <ele>131.3</ele>
        <time>2023-12-20T14:11:43Z</time>
      </trkpt>
      <trkpt lat="50.03016" lon="2.34737">
        <ele>131.4</ele>
        <time>2023-12-20T14:11:44Z</time>
      </trkpt>
      <trkpt lat="50.03017" lon="2.34737">
        <ele>131.4</ele>
        <time>2023-12-20T14:11:45Z</time>
      </trkpt>
      <trkpt lat="50.03018" lon="2.34737">
        <ele>131.4</ele>
        <time>2023-12-20T14:11:46Z</time>
      </trkpt>
      <trkpt lat="50.03019" lon="2.34736">
        <ele>131.5</ele>
        <time>2023-12-20T14:11:47Z</time>
      </trkpt>
      <trkpt lat="50.0302" lon="2.34735">
        <ele>131.5</ele>
        <time>2023-12-20T14:11:48Z</time>
      </trkpt>
      <trkpt lat="50.03021" lon="2.34735">
        <ele>131.5</ele>
        <time>2023-12-20T14:11:50Z</time>
      </trkpt>
      <trkpt lat="50.03023" lon="2.34734">
        <ele>131.6</ele>
        <time>2023-12-20T14:11:51Z</time>
      </trkpt>
      <trkpt lat="50.03024" lon="2.34734">
        <ele>131.6</ele>
        <time>2023-12-20T14:11:52Z</time>
      </trkpt>
      <trkpt lat="50.03025" lon="2.34733">
        <ele>131.6</ele>
        <time>2023-12-20T14:11:53Z</time>
      </trkpt>
      <trkpt lat="50.03026" lon="2.34733">
        <ele>131.6</ele>
        <time>2023-12-20T14:11:54Z</time>
      </trkpt>
      <trkpt lat="50.03028" lon="2.34732">
        <ele>131.7</ele>
        <time>2023-12-20T14:11:55Z</time>
      </trkpt>
      <trkpt lat="50.03029" lon="2.34731">
        <ele>131.7</ele>
        <time>2023-12-20T14:11:56Z</time>
      </trkpt>
      <trkpt lat="50.03031" lon="2.3473">
        <ele>131.7</ele>
        <time>2023-12-20T14:11:58Z</time>
      </trkpt>
      <trkpt lat="50.03032" lon="2.34729">
        <ele>131.8</ele>
        <time>2023-12-20T14:11:59Z</time>
      </trkpt>
      <trkpt lat="50.03034" lon="2.34728">
        <ele>131.8</ele>
        <time>2023-12-20T14:12:00Z</time>
      </trkpt>
      <trkpt lat="50.03035" lon="2.34727">
        <ele>131.8</ele>
        <time>2023-12-20T14:12:01Z</time>
      </trkpt>
      <trkpt lat="50.03036" lon="2.34727">
        <ele>131.9</ele>
        <time>2023-12-20T14:12:02Z</time>
      </trkpt>
      <trkpt lat="50.03037" lon="2.34726">
        <ele>131.9</ele>
        <time>2023-12-20T14:12:03Z</time>
      </trkpt>
      <trkpt lat="50.03039" lon="2.34725">
        <ele>131.9</ele>
        <time>2023-12-20T14:12:05Z</time>
      </trkpt>
      <trkpt lat="50.0304" lon="2.34724">
        <ele>132</ele>
        <time>2023-12-20T14:12:06Z</time>
      </trkpt>
      <trkpt lat="50.03041" lon="2.34724">
        <ele>132</ele>
        <time>2023-12-20T14:12:08Z</time>
      </trkpt>
      <trkpt lat="50.03042" lon="2.34723">
        <ele>132</ele>
        <time>2023-12-20T14:12:09Z</time>
      </trkpt>
      <trkpt lat="50.03043" lon="2.34723">
        <ele>132</ele>
        <time>2023-12-20T14:12:10Z</time>
      </trkpt>
      <trkpt lat="50.03045" lon="2.34722">
        <ele>132.1</ele>
        <time>2023-12-20T14:12:11Z</time>
      </trkpt>
      <trkpt lat="50.03046" lon="2.34722">
        <ele>132.1</ele>
        <time>2023-12-20T14:12:12Z</time>
      </trkpt>
      <trkpt lat="50.03047" lon="2.34721">
        <ele>132.1</ele>
        <time>2023-12-20T14:12:13Z</time>
      </trkpt>
      <trkpt lat="50.03049" lon="2.3472">
        <ele>132.2</ele>
        <time>2023-12-20T14:12:15Z</time>
      </trkpt>
      <trkpt lat="50.0305" lon="2.34719">
        <ele>132.2</ele>
        <time>2023-12-20T14:12:17Z</time>
      </trkpt>
      <trkpt lat="50.03051" lon="2.34719">
        <ele>132.2</ele>
        <time>2023-12-20T14:12:18Z</time>
      </trkpt>
      <trkpt lat="50.03052" lon="2.34719">
        <ele>132.2</ele>
        <time>2023-12-20T14:12:19Z</time>
      </trkpt>
      <trkpt lat="50.03054" lon="2.34718">
        <ele>132.3</ele>
        <time>2023-12-20T14:12:21Z</time>
      </trkpt>
      <trkpt lat="50.03055" lon="2.34717">
        <ele>132.3</ele>
        <time>2023-12-20T14:12:22Z</time>
      </trkpt>
      <trkpt lat="50.03056" lon="2.34717">
        <ele>132.3</ele>
        <time>2023-12-20T14:12:23Z</time>
      </trkpt>
      <trkpt lat="50.03057" lon="2.34716">
        <ele>132.3</ele>
        <time>2023-12-20T14:12:25Z</time>
      </trkpt>
      <trkpt lat="50.03058" lon="2.34716">
        <ele>132.4</ele>
        <time>2023-12-20T14:12:26Z</time>
      </trkpt>
      <trkpt lat="50.0306" lon="2.34715">
        <ele>132.4</ele>
        <time>2023-12-20T14:12:27Z</time>
      </trkpt>
      <trkpt lat="50.0306" lon="2.34715">
        <ele>132.4</ele>
        <time>2023-12-20T14:12:28Z</time>
      </trkpt>
      <trkpt lat="50.03061" lon="2.34714">
        <ele>132.4</ele>
        <time>2023-12-20T14:12:29Z</time>
      </trkpt>
      <trkpt lat="50.03062" lon="2.34714">
        <ele>132.4</ele>
        <time>2023-12-20T14:12:30Z</time>
      </trkpt>
      <trkpt lat="50.03063" lon="2.34713">
        <ele>132.5</ele>
        <time>2023-12-20T14:12:31Z</time>
      </trkpt>
      <trkpt lat="50.03064" lon="2.34713">
        <ele>132.5</ele>
        <time>2023-12-20T14:12:32Z</time>
      </trkpt>
      <trkpt lat="50.03065" lon="2.34712">
        <ele>132.5</ele>
        <time>2023-12-20T14:12:33Z</time>
      </trkpt>
      <trkpt lat="50.03066" lon="2.34712">
        <ele>132.5</ele>
        <time>2023-12-20T14:12:35Z</time>
      </trkpt>
      <trkpt lat="50.03067" lon="2.34711">
        <ele>132.6</ele>
        <time>2023-12-20T14:12:36Z</time>
      </trkpt>
      <trkpt lat="50.03069" lon="2.3471">
        <ele>132.6</ele>
        <time>2023-12-20T14:12:37Z</time>
      </trkpt>
      <trkpt lat="50.03071" lon="2.34709">
        <ele>132.7</ele>
        <time>2023-12-20T14:12:38Z</time>
      </trkpt>
      <trkpt lat="50.03071" lon="2.34709">
        <ele>132.7</ele>
        <time>2023-12-20T14:12:39Z</time>
      </trkpt>
      <trkpt lat="50.03072" lon="2.34709">
        <ele>132.7</ele>
        <time>2023-12-20T14:12:40Z</time>
      </trkpt>
      <trkpt lat="50.03073" lon="2.34708">
        <ele>132.7</ele>
        <time>2023-12-20T14:12:41Z</time>
      </trkpt>
      <trkpt lat="50.03074" lon="2.34707">
        <ele>132.8</ele>
        <time>2023-12-20T14:12:43Z</time>
      </trkpt>
      <trkpt lat="50.03075" lon="2.34707">
        <ele>132.8</ele>
        <time>2023-12-20T14:12:44Z</time>
      </trkpt>
      <trkpt lat="50.03076" lon="2.34706">
        <ele>132.8</ele>
        <time>2023-12-20T14:12:45Z</time>
      </trkpt>
      <trkpt lat="50.03077" lon="2.34705">
        <ele>132.9</ele>
        <time>2023-12-20T14:12:46Z</time>
      </trkpt>
      <trkpt lat="50.03079" lon="2.34704">
        <ele>132.9</ele>
        <time>2023-12-20T14:12:47Z</time>
      </trkpt>
      <trkpt lat="50.0308" lon="2.34703">
        <ele>132.9</ele>
        <time>2023-12-20T14:12:48Z</time>
      </trkpt>
      <trkpt lat="50.03081" lon="2.34703">
        <ele>132.9</ele>
        <time>2023-12-20T14:12:49Z</time>
      </trkpt>
      <trkpt lat="50.03082" lon="2.34702">
        <ele>133</ele>
        <time>2023-12-20T14:12:50Z</time>
      </trkpt>
      <trkpt lat="50.03083" lon="2.34702">
        <ele>133</ele>
        <time>2023-12-20T14:12:51Z</time>
      </trkpt>
      <trkpt lat="50.03084" lon="2.34701">
        <ele>133</ele>
        <time>2023-12-20T14:12:53Z</time>
      </trkpt>
      <trkpt lat="50.03085" lon="2.34701">
        <ele>133</ele>
        <time>2023-12-20T14:12:54Z</time>
      </trkpt>
      <trkpt lat="50.03086" lon="2.347">
        <ele>133.1</ele>
        <time>2023-12-20T14:12:55Z</time>
      </trkpt>
      <trkpt lat="50.03087" lon="2.34699">
        <ele>133.1</ele>
        <time>2023-12-20T14:12:56Z</time>
      </trkpt>
      <trkpt lat="50.0309" lon="2.34699">
        <ele>133.1</ele>
        <time>2023-12-20T14:12:57Z</time>
      </trkpt>
      <trkpt lat="50.0309" lon="2.34698">
        <ele>133.2</ele>
        <time>2023-12-20T14:12:59Z</time>
      </trkpt>
      <trkpt lat="50.03091" lon="2.34698">
        <ele>133.2</ele>
        <time>2023-12-20T14:13:00Z</time>
      </trkpt>
      <trkpt lat="50.03093" lon="2.34697">
        <ele>133.2</ele>
        <time>2023-12-20T14:13:01Z</time>
      </trkpt>
      <trkpt lat="50.03094" lon="2.34697">
        <ele>133.2</ele>
        <time>2023-12-20T14:13:02Z</time>
      </trkpt>
      <trkpt lat="50.03095" lon="2.34697">
        <ele>133.2</ele>
        <time>2023-12-20T14:13:03Z</time>
      </trkpt>
      <trkpt lat="50.03096" lon="2.34696">
        <ele>133.2</ele>
        <time>2023-12-20T14:13:04Z</time>
      </trkpt>
      <trkpt lat="50.03097" lon="2.34696">
        <ele>133.3</ele>
        <time>2023-12-20T14:13:05Z</time>
      </trkpt>
      <trkpt lat="50.03098" lon="2.34695">
        <ele>133.3</ele>
        <time>2023-12-20T14:13:06Z</time>
      </trkpt>
      <trkpt lat="50.03098" lon="2.34694">
        <ele>133.3</ele>
        <time>2023-12-20T14:13:08Z</time>
      </trkpt>
      <trkpt lat="50.03099" lon="2.34693">
        <ele>133.3</ele>
        <time>2023-12-20T14:13:09Z</time>
      </trkpt>
      <trkpt lat="50.03099" lon="2.34693">
        <ele>133.3</ele>
        <time>2023-12-20T14:13:10Z</time>
      </trkpt>
      <trkpt lat="50.031" lon="2.34692">
        <ele>133.3</ele>
        <time>2023-12-20T14:13:11Z</time>
      </trkpt>
      <trkpt lat="50.03102" lon="2.3469">
        <ele>133.3</ele>
        <time>2023-12-20T14:13:12Z</time>
      </trkpt>
      <trkpt lat="50.03103" lon="2.3469">
        <ele>133.3</ele>
        <time>2023-12-20T14:13:13Z</time>
      </trkpt>
      <trkpt lat="50.03104" lon="2.34689">
        <ele>133.4</ele>
        <time>2023-12-20T14:13:14Z</time>
      </trkpt>
      <trkpt lat="50.03106" lon="2.34688">
        <ele>133.4</ele>
        <time>2023-12-20T14:13:15Z</time>
      </trkpt>
      <trkpt lat="50.03107" lon="2.34687">
        <ele>133.4</ele>
        <time>2023-12-20T14:13:16Z</time>
      </trkpt>
      <trkpt lat="50.03108" lon="2.34687">
        <ele>133.4</ele>
        <time>2023-12-20T14:13:18Z</time>
      </trkpt>
      <trkpt lat="50.03109" lon="2.34686">
        <ele>133.4</ele>
        <time>2023-12-20T14:13:19Z</time>
      </trkpt>
      <trkpt lat="50.0311" lon="2.34685">
        <ele>133.4</ele>
        <time>2023-12-20T14:13:20Z</time>
      </trkpt>
      <trkpt lat="50.03112" lon="2.34684">
        <ele>133.4</ele>
        <time>2023-12-20T14:13:21Z</time>
      </trkpt>
      <trkpt lat="50.03113" lon="2.34684">
        <ele>133.4</ele>
        <time>2023-12-20T14:13:22Z</time>
      </trkpt>
      <trkpt lat="50.03114" lon="2.34683">
        <ele>133.4</ele>
        <time>2023-12-20T14:13:23Z</time>
      </trkpt>
      <trkpt lat="50.03115" lon="2.34682">
        <ele>133.4</ele>
        <time>2023-12-20T14:13:24Z</time>
      </trkpt>
      <trkpt lat="50.03116" lon="2.34682">
        <ele>133.5</ele>
        <time>2023-12-20T14:13:26Z</time>
      </trkpt>
      <trkpt lat="50.03117" lon="2.34682">
        <ele>133.5</ele>
        <time>2023-12-20T14:13:27Z</time>
      </trkpt>
      <trkpt lat="50.03119" lon="2.34681">
        <ele>133.5</ele>
        <time>2023-12-20T14:13:28Z</time>
      </trkpt>
      <trkpt lat="50.0312" lon="2.3468">
        <ele>133.5</ele>
        <time>2023-12-20T14:13:29Z</time>
      </trkpt>
      <trkpt lat="50.03121" lon="2.3468">
        <ele>133.5</ele>
        <time>2023-12-20T14:13:30Z</time>
      </trkpt>
      <trkpt lat="50.03123" lon="2.34679">
        <ele>133.5</ele>
        <time>2023-12-20T14:13:31Z</time>
      </trkpt>
      <trkpt lat="50.03124" lon="2.34679">
        <ele>133.5</ele>
        <time>2023-12-20T14:13:32Z</time>
      </trkpt>
      <trkpt lat="50.03125" lon="2.34678">
        <ele>133.5</ele>
        <time>2023-12-20T14:13:33Z</time>
      </trkpt>
      <trkpt lat="50.03127" lon="2.34677">
        <ele>133.5</ele>
        <time>2023-12-20T14:13:35Z</time>
      </trkpt>
      <trkpt lat="50.03127" lon="2.34677">
        <ele>133.5</ele>
        <time>2023-12-20T14:13:36Z</time>
      </trkpt>
      <trkpt lat="50.03128" lon="2.34676">
        <ele>133.5</ele>
        <time>2023-12-20T14:13:37Z</time>
      </trkpt>
      <trkpt lat="50.0313" lon="2.34675">
        <ele>133.5</ele>
        <time>2023-12-20T14:13:38Z</time>
      </trkpt>
      <trkpt lat="50.03131" lon="2.34675">
        <ele>133.5</ele>
        <time>2023-12-20T14:13:39Z</time>
      </trkpt>
      <trkpt lat="50.03132" lon="2.34675">
        <ele>133.5</ele>
        <time>2023-12-20T14:13:40Z</time>
      </trkpt>
      <trkpt lat="50.03133" lon="2.34674">
        <ele>133.5</ele>
        <time>2023-12-20T14:13:41Z</time>
      </trkpt>
      <trkpt lat="50.03134" lon="2.34674">
        <ele>133.5</ele>
        <time>2023-12-20T14:13:42Z</time>
      </trkpt>
      <trkpt lat="50.03135" lon="2.34673">
        <ele>133.5</ele>
        <time>2023-12-20T14:13:44Z</time>
      </trkpt>
      <trkpt lat="50.03137" lon="2.34673">
        <ele>133.5</ele>
        <time>2023-12-20T14:13:45Z</time>
      </trkpt>
      <trkpt lat="50.03138" lon="2.34672">
        <ele>133.5</ele>
        <time>2023-12-20T14:13:46Z</time>
      </trkpt>
      <trkpt lat="50.0314" lon="2.34671">
        <ele>133.4</ele>
        <time>2023-12-20T14:13:47Z</time>
      </trkpt>
      <trkpt lat="50.03141" lon="2.34671">
        <ele>133.4</ele>
        <time>2023-12-20T14:13:48Z</time>
      </trkpt>
      <trkpt lat="50.03142" lon="2.34671">
        <ele>133.4</ele>
        <time>2023-12-20T14:13:49Z</time>
      </trkpt>
      <trkpt lat="50.03143" lon="2.3467">
        <ele>133.4</ele>
        <time>2023-12-20T14:13:50Z</time>
      </trkpt>
      <trkpt lat="50.03145" lon="2.34669">
        <ele>133.4</ele>
        <time>2023-12-20T14:13:51Z</time>
      </trkpt>
      <trkpt lat="50.03147" lon="2.34668">
        <ele>133.4</ele>
        <time>2023-12-20T14:13:52Z</time>
      </trkpt>
      <trkpt lat="50.03148" lon="2.34668">
        <ele>133.4</ele>
        <time>2023-12-20T14:13:53Z</time>
      </trkpt>
      <trkpt lat="50.03148" lon="2.34667">
        <ele>133.4</ele>
        <time>2023-12-20T14:13:55Z</time>
      </trkpt>
      <trkpt lat="50.03149" lon="2.34667">
        <ele>133.4</ele>
        <time>2023-12-20T14:13:56Z</time>
      </trkpt>
      <trkpt lat="50.0315" lon="2.34667">
        <ele>133.4</ele>
        <time>2023-12-20T14:13:57Z</time>
      </trkpt>
      <trkpt lat="50.03151" lon="2.34666">
        <ele>133.4</ele>
        <time>2023-12-20T14:13:58Z</time>
      </trkpt>
      <trkpt lat="50.03153" lon="2.34665">
        <ele>133.4</ele>
        <time>2023-12-20T14:13:59Z</time>
      </trkpt>
      <trkpt lat="50.03154" lon="2.34665">
        <ele>133.4</ele>
        <time>2023-12-20T14:14:00Z</time>
      </trkpt>
      <trkpt lat="50.03155" lon="2.34664">
        <ele>133.4</ele>
        <time>2023-12-20T14:14:01Z</time>
      </trkpt>
      <trkpt lat="50.03156" lon="2.34664">
        <ele>133.4</ele>
        <time>2023-12-20T14:14:02Z</time>
      </trkpt>
      <trkpt lat="50.03157" lon="2.34663">
        <ele>133.4</ele>
        <time>2023-12-20T14:14:03Z</time>
      </trkpt>
      <trkpt lat="50.03157" lon="2.34662">
        <ele>133.4</ele>
        <time>2023-12-20T14:14:04Z</time>
      </trkpt>
      <trkpt lat="50.03158" lon="2.34661">
        <ele>133.4</ele>
        <time>2023-12-20T14:14:06Z</time>
      </trkpt>
      <trkpt lat="50.03159" lon="2.3466">
        <ele>133.4</ele>
        <time>2023-12-20T14:14:07Z</time>
      </trkpt>
      <trkpt lat="50.03161" lon="2.34659">
        <ele>133.4</ele>
        <time>2023-12-20T14:14:09Z</time>
      </trkpt>
      <trkpt lat="50.03163" lon="2.34659">
        <ele>133.4</ele>
        <time>2023-12-20T14:14:11Z</time>
      </trkpt>
      <trkpt lat="50.03163" lon="2.34659">
        <ele>133.4</ele>
        <time>2023-12-20T14:14:12Z</time>
      </trkpt>
      <trkpt lat="50.03164" lon="2.34659">
        <ele>133.5</ele>
        <time>2023-12-20T14:14:13Z</time>
      </trkpt>
      <trkpt lat="50.03165" lon="2.34658">
        <ele>133.5</ele>
        <time>2023-12-20T14:14:14Z</time>
      </trkpt>
      <trkpt lat="50.03166" lon="2.34658">
        <ele>133.5</ele>
        <time>2023-12-20T14:14:16Z</time>
      </trkpt>
      <trkpt lat="50.03167" lon="2.34657">
        <ele>133.5</ele>
        <time>2023-12-20T14:14:17Z</time>
      </trkpt>
      <trkpt lat="50.03168" lon="2.34656">
        <ele>133.5</ele>
        <time>2023-12-20T14:14:18Z</time>
      </trkpt>
      <trkpt lat="50.03169" lon="2.34655">
        <ele>133.5</ele>
        <time>2023-12-20T14:14:19Z</time>
      </trkpt>
      <trkpt lat="50.03169" lon="2.34655">
        <ele>133.5</ele>
        <time>2023-12-20T14:14:20Z</time>
      </trkpt>
      <trkpt lat="50.0317" lon="2.34654">
        <ele>133.6</ele>
        <time>2023-12-20T14:14:21Z</time>
      </trkpt>
      <trkpt lat="50.03171" lon="2.34653">
        <ele>133.6</ele>
        <time>2023-12-20T14:14:22Z</time>
      </trkpt>
      <trkpt lat="50.03172" lon="2.34652">
        <ele>133.6</ele>
        <time>2023-12-20T14:14:23Z</time>
      </trkpt>
      <trkpt lat="50.03173" lon="2.34651">
        <ele>133.6</ele>
        <time>2023-12-20T14:14:25Z</time>
      </trkpt>
      <trkpt lat="50.03174" lon="2.3465">
        <ele>133.6</ele>
        <time>2023-12-20T14:14:26Z</time>
      </trkpt>
      <trkpt lat="50.03175" lon="2.3465">
        <ele>133.7</ele>
        <time>2023-12-20T14:14:27Z</time>
      </trkpt>
      <trkpt lat="50.03176" lon="2.34649">
        <ele>133.7</ele>
        <time>2023-12-20T14:14:28Z</time>
      </trkpt>
      <trkpt lat="50.03178" lon="2.34647">
        <ele>133.7</ele>
        <time>2023-12-20T14:14:30Z</time>
      </trkpt>
      <trkpt lat="50.03179" lon="2.34647">
        <ele>133.8</ele>
        <time>2023-12-20T14:14:31Z</time>
      </trkpt>
      <trkpt lat="50.0318" lon="2.34646">
        <ele>133.8</ele>
        <time>2023-12-20T14:14:32Z</time>
      </trkpt>
      <trkpt lat="50.03182" lon="2.34644">
        <ele>133.8</ele>
        <time>2023-12-20T14:14:34Z</time>
      </trkpt>
      <trkpt lat="50.03183" lon="2.34644">
        <ele>133.9</ele>
        <time>2023-12-20T14:14:35Z</time>
      </trkpt>
      <trkpt lat="50.03184" lon="2.34643">
        <ele>133.9</ele>
        <time>2023-12-20T14:14:36Z</time>
      </trkpt>
      <trkpt lat="50.03185" lon="2.34643">
        <ele>133.9</ele>
        <time>2023-12-20T14:14:37Z</time>
      </trkpt>
      <trkpt lat="50.03186" lon="2.34642">
        <ele>133.9</ele>
        <time>2023-12-20T14:14:38Z</time>
      </trkpt>
      <trkpt lat="50.03187" lon="2.34641">
        <ele>134</ele>
        <time>2023-12-20T14:14:39Z</time>
      </trkpt>
      <trkpt lat="50.03189" lon="2.3464">
        <ele>134.1</ele>
        <time>2023-12-20T14:14:41Z</time>
      </trkpt>
      <trkpt lat="50.03189" lon="2.34639">
        <ele>134.1</ele>
        <time>2023-12-20T14:14:42Z</time>
      </trkpt>
      <trkpt lat="50.0319" lon="2.34639">
        <ele>134.1</ele>
        <time>2023-12-20T14:14:43Z</time>
      </trkpt>
      <trkpt lat="50.03192" lon="2.34638">
        <ele>134.2</ele>
        <time>2023-12-20T14:14:44Z</time>
      </trkpt>
      <trkpt lat="50.03193" lon="2.34638">
        <ele>134.2</ele>
        <time>2023-12-20T14:14:45Z</time>
      </trkpt>
      <trkpt lat="50.03194" lon="2.34637">
        <ele>134.2</ele>
        <time>2023-12-20T14:14:46Z</time>
      </trkpt>
      <trkpt lat="50.03196" lon="2.34636">
        <ele>134.3</ele>
        <time>2023-12-20T14:14:48Z</time>
      </trkpt>
      <trkpt lat="50.03197" lon="2.34636">
        <ele>134.4</ele>
        <time>2023-12-20T14:14:50Z</time>
      </trkpt>
      <trkpt lat="50.03199" lon="2.34635">
        <ele>134.5</ele>
        <time>2023-12-20T14:14:51Z</time>
      </trkpt>
      <trkpt lat="50.032" lon="2.34635">
        <ele>134.5</ele>
        <time>2023-12-20T14:14:52Z</time>
      </trkpt>
      <trkpt lat="50.03201" lon="2.34634">
        <ele>134.5</ele>
        <time>2023-12-20T14:14:53Z</time>
      </trkpt>
      <trkpt lat="50.03202" lon="2.34634">
        <ele>134.6</ele>
        <time>2023-12-20T14:14:54Z</time>
      </trkpt>
      <trkpt lat="50.03203" lon="2.34633">
        <ele>134.6</ele>
        <time>2023-12-20T14:14:55Z</time>
      </trkpt>
      <trkpt lat="50.03205" lon="2.34633">
        <ele>134.7</ele>
        <time>2023-12-20T14:14:57Z</time>
      </trkpt>
      <trkpt lat="50.03207" lon="2.34632">
        <ele>134.8</ele>
        <time>2023-12-20T14:14:58Z</time>
      </trkpt>
      <trkpt lat="50.03208" lon="2.34632">
        <ele>134.8</ele>
        <time>2023-12-20T14:14:59Z</time>
      </trkpt>
      <trkpt lat="50.03208" lon="2.34631">
        <ele>134.9</ele>
        <time>2023-12-20T14:15:00Z</time>
      </trkpt>
      <trkpt lat="50.0321" lon="2.34631">
        <ele>134.9</ele>
        <time>2023-12-20T14:15:01Z</time>
      </trkpt>
      <trkpt lat="50.03211" lon="2.3463">
        <ele>135</ele>
        <time>2023-12-20T14:15:02Z</time>
      </trkpt>
      <trkpt lat="50.03212" lon="2.3463">
        <ele>135</ele>
        <time>2023-12-20T14:15:03Z</time>
      </trkpt>
      <trkpt lat="50.03214" lon="2.34629">
        <ele>135.1</ele>
        <time>2023-12-20T14:15:05Z</time>
      </trkpt>
      <trkpt lat="50.03215" lon="2.34628">
        <ele>135.2</ele>
        <time>2023-12-20T14:15:06Z</time>
      </trkpt>
      <trkpt lat="50.03215" lon="2.34628">
        <ele>135.2</ele>
        <time>2023-12-20T14:15:07Z</time>
      </trkpt>
      <trkpt lat="50.03216" lon="2.34627">
        <ele>135.3</ele>
        <time>2023-12-20T14:15:08Z</time>
      </trkpt>
      <trkpt lat="50.03218" lon="2.34627">
        <ele>135.3</ele>
        <time>2023-12-20T14:15:09Z</time>
      </trkpt>
      <trkpt lat="50.03219" lon="2.34626">
        <ele>135.4</ele>
        <time>2023-12-20T14:15:10Z</time>
      </trkpt>
      <trkpt lat="50.0322" lon="2.34626">
        <ele>135.4</ele>
        <time>2023-12-20T14:15:12Z</time>
      </trkpt>
      <trkpt lat="50.03221" lon="2.34625">
        <ele>135.5</ele>
        <time>2023-12-20T14:15:13Z</time>
      </trkpt>
      <trkpt lat="50.03222" lon="2.34625">
        <ele>135.5</ele>
        <time>2023-12-20T14:15:14Z</time>
      </trkpt>
      <trkpt lat="50.03223" lon="2.34624">
        <ele>135.6</ele>
        <time>2023-12-20T14:15:15Z</time>
      </trkpt>
      <trkpt lat="50.03224" lon="2.34623">
        <ele>135.6</ele>
        <time>2023-12-20T14:15:16Z</time>
      </trkpt>
      <trkpt lat="50.03225" lon="2.34623">
        <ele>135.7</ele>
        <time>2023-12-20T14:15:17Z</time>
      </trkpt>
      <trkpt lat="50.03227" lon="2.34622">
        <ele>135.8</ele>
        <time>2023-12-20T14:15:19Z</time>
      </trkpt>
      <trkpt lat="50.03228" lon="2.34621">
        <ele>135.8</ele>
        <time>2023-12-20T14:15:20Z</time>
      </trkpt>
      <trkpt lat="50.03229" lon="2.34621">
        <ele>135.8</ele>
        <time>2023-12-20T14:15:21Z</time>
      </trkpt>
      <trkpt lat="50.0323" lon="2.3462">
        <ele>135.9</ele>
        <time>2023-12-20T14:15:22Z</time>
      </trkpt>
      <trkpt lat="50.03231" lon="2.3462">
        <ele>135.9</ele>
        <time>2023-12-20T14:15:23Z</time>
      </trkpt>
      <trkpt lat="50.03232" lon="2.3462">
        <ele>136</ele>
        <time>2023-12-20T14:15:24Z</time>
      </trkpt>
      <trkpt lat="50.03234" lon="2.34619">
        <ele>136</ele>
        <time>2023-12-20T14:15:25Z</time>
      </trkpt>
      <trkpt lat="50.03235" lon="2.34618">
        <ele>136.1</ele>
        <time>2023-12-20T14:15:26Z</time>
      </trkpt>
      <trkpt lat="50.03236" lon="2.34618">
        <ele>136.1</ele>
        <time>2023-12-20T14:15:28Z</time>
      </trkpt>
      <trkpt lat="50.03237" lon="2.34617">
        <ele>136.2</ele>
        <time>2023-12-20T14:15:29Z</time>
      </trkpt>
      <trkpt lat="50.03238" lon="2.34617">
        <ele>136.2</ele>
        <time>2023-12-20T14:15:30Z</time>
      </trkpt>
      <trkpt lat="50.03239" lon="2.34616">
        <ele>136.2</ele>
        <time>2023-12-20T14:15:31Z</time>
      </trkpt>
      <trkpt lat="50.0324" lon="2.34616">
        <ele>136.3</ele>
        <time>2023-12-20T14:15:32Z</time>
      </trkpt>
      <trkpt lat="50.03242" lon="2.34615">
        <ele>136.3</ele>
        <time>2023-12-20T14:15:33Z</time>
      </trkpt>
      <trkpt lat="50.03243" lon="2.34615">
        <ele>136.4</ele>
        <time>2023-12-20T14:15:35Z</time>
      </trkpt>
      <trkpt lat="50.03244" lon="2.34615">
        <ele>136.4</ele>
        <time>2023-12-20T14:15:36Z</time>
      </trkpt>
      <trkpt lat="50.03245" lon="2.34614">
        <ele>136.4</ele>
        <time>2023-12-20T14:15:37Z</time>
      </trkpt>
      <trkpt lat="50.03246" lon="2.34614">
        <ele>136.5</ele>
        <time>2023-12-20T14:15:38Z</time>
      </trkpt>
      <trkpt lat="50.03248" lon="2.34613">
        <ele>136.5</ele>
        <time>2023-12-20T14:15:39Z</time>
      </trkpt>
      <trkpt lat="50.03249" lon="2.34612">
        <ele>136.5</ele>
        <time>2023-12-20T14:15:40Z</time>
      </trkpt>
      <trkpt lat="50.0325" lon="2.34612">
        <ele>136.6</ele>
        <time>2023-12-20T14:15:42Z</time>
      </trkpt>
      <trkpt lat="50.03251" lon="2.34612">
        <ele>136.6</ele>
        <time>2023-12-20T14:15:43Z</time>
      </trkpt>
      <trkpt lat="50.03252" lon="2.34611">
        <ele>136.6</ele>
        <time>2023-12-20T14:15:44Z</time>
      </trkpt>
      <trkpt lat="50.03253" lon="2.34611">
        <ele>136.6</ele>
        <time>2023-12-20T14:15:45Z</time>
      </trkpt>
      <trkpt lat="50.03254" lon="2.3461">
        <ele>136.6</ele>
        <time>2023-12-20T14:15:46Z</time>
      </trkpt>
      <trkpt lat="50.03255" lon="2.3461">
        <ele>136.7</ele>
        <time>2023-12-20T14:15:47Z</time>
      </trkpt>
      <trkpt lat="50.03256" lon="2.34609">
        <ele>136.7</ele>
        <time>2023-12-20T14:15:48Z</time>
      </trkpt>
      <trkpt lat="50.03258" lon="2.34609">
        <ele>136.7</ele>
        <time>2023-12-20T14:15:50Z</time>
      </trkpt>
      <trkpt lat="50.03259" lon="2.34608">
        <ele>136.7</ele>
        <time>2023-12-20T14:15:51Z</time>
      </trkpt>
      <trkpt lat="50.0326" lon="2.34607">
        <ele>136.7</ele>
        <time>2023-12-20T14:15:52Z</time>
      </trkpt>
      <trkpt lat="50.03261" lon="2.34607">
        <ele>136.8</ele>
        <time>2023-12-20T14:15:53Z</time>
      </trkpt>
      <trkpt lat="50.03262" lon="2.34606">
        <ele>136.8</ele>
        <time>2023-12-20T14:15:54Z</time>
      </trkpt>
      <trkpt lat="50.03263" lon="2.34605">
        <ele>136.8</ele>
        <time>2023-12-20T14:15:55Z</time>
      </trkpt>
      <trkpt lat="50.03264" lon="2.34604">
        <ele>136.8</ele>
        <time>2023-12-20T14:15:56Z</time>
      </trkpt>
      <trkpt lat="50.03265" lon="2.34604">
        <ele>136.8</ele>
        <time>2023-12-20T14:15:57Z</time>
      </trkpt>
      <trkpt lat="50.03266" lon="2.34603">
        <ele>136.8</ele>
        <time>2023-12-20T14:15:59Z</time>
      </trkpt>
      <trkpt lat="50.03268" lon="2.34602">
        <ele>136.8</ele>
        <time>2023-12-20T14:16:00Z</time>
      </trkpt>
      <trkpt lat="50.03269" lon="2.34601">
        <ele>136.8</ele>
        <time>2023-12-20T14:16:01Z</time>
      </trkpt>
      <trkpt lat="50.03271" lon="2.346">
        <ele>136.8</ele>
        <time>2023-12-20T14:16:02Z</time>
      </trkpt>
      <trkpt lat="50.03271" lon="2.34599">
        <ele>136.8</ele>
        <time>2023-12-20T14:16:03Z</time>
      </trkpt>
      <trkpt lat="50.03272" lon="2.34599">
        <ele>136.8</ele>
        <time>2023-12-20T14:16:04Z</time>
      </trkpt>
      <trkpt lat="50.03273" lon="2.34598">
        <ele>136.8</ele>
        <time>2023-12-20T14:16:05Z</time>
      </trkpt>
      <trkpt lat="50.03274" lon="2.34597">
        <ele>136.8</ele>
        <time>2023-12-20T14:16:06Z</time>
      </trkpt>
      <trkpt lat="50.03275" lon="2.34597">
        <ele>136.8</ele>
        <time>2023-12-20T14:16:08Z</time>
      </trkpt>
      <trkpt lat="50.03277" lon="2.34596">
        <ele>136.8</ele>
        <time>2023-12-20T14:16:09Z</time>
      </trkpt>
      <trkpt lat="50.03278" lon="2.34596">
        <ele>136.8</ele>
        <time>2023-12-20T14:16:10Z</time>
      </trkpt>
      <trkpt lat="50.03279" lon="2.34595">
        <ele>136.8</ele>
        <time>2023-12-20T14:16:11Z</time>
      </trkpt>
      <trkpt lat="50.03281" lon="2.34594">
        <ele>136.8</ele>
        <time>2023-12-20T14:16:12Z</time>
      </trkpt>
      <trkpt lat="50.03281" lon="2.34593">
        <ele>136.8</ele>
        <time>2023-12-20T14:16:13Z</time>
      </trkpt>
      <trkpt lat="50.03282" lon="2.34593">
        <ele>136.8</ele>
        <time>2023-12-20T14:16:14Z</time>
      </trkpt>
      <trkpt lat="50.03284" lon="2.34592">
        <ele>136.8</ele>
        <time>2023-12-20T14:16:15Z</time>
      </trkpt>
      <trkpt lat="50.03285" lon="2.34591">
        <ele>136.8</ele>
        <time>2023-12-20T14:16:17Z</time>
      </trkpt>
      <trkpt lat="50.03286" lon="2.34591">
        <ele>136.8</ele>
        <time>2023-12-20T14:16:18Z</time>
      </trkpt>
      <trkpt lat="50.03288" lon="2.3459">
        <ele>136.8</ele>
        <time>2023-12-20T14:16:19Z</time>
      </trkpt>
      <trkpt lat="50.03289" lon="2.34589">
        <ele>136.8</ele>
        <time>2023-12-20T14:16:20Z</time>
      </trkpt>
      <trkpt lat="50.03289" lon="2.34589">
        <ele>136.8</ele>
        <time>2023-12-20T14:16:21Z</time>
      </trkpt>
      <trkpt lat="50.03291" lon="2.34588">
        <ele>136.8</ele>
        <time>2023-12-20T14:16:22Z</time>
      </trkpt>
      <trkpt lat="50.03292" lon="2.34588">
        <ele>136.8</ele>
        <time>2023-12-20T14:16:23Z</time>
      </trkpt>
      <trkpt lat="50.03293" lon="2.34587">
        <ele>136.8</ele>
        <time>2023-12-20T14:16:24Z</time>
      </trkpt>
      <trkpt lat="50.03295" lon="2.34587">
        <ele>136.8</ele>
        <time>2023-12-20T14:16:25Z</time>
      </trkpt>
      <trkpt lat="50.03296" lon="2.34586">
        <ele>136.8</ele>
        <time>2023-12-20T14:16:27Z</time>
      </trkpt>
      <trkpt lat="50.03296" lon="2.34586">
        <ele>136.8</ele>
        <time>2023-12-20T14:16:28Z</time>
      </trkpt>
      <trkpt lat="50.03298" lon="2.34585">
        <ele>136.8</ele>
        <time>2023-12-20T14:16:29Z</time>
      </trkpt>
      <trkpt lat="50.03299" lon="2.34585">
        <ele>136.8</ele>
        <time>2023-12-20T14:16:30Z</time>
      </trkpt>
      <trkpt lat="50.033" lon="2.34585">
        <ele>136.8</ele>
        <time>2023-12-20T14:16:31Z</time>
      </trkpt>
      <trkpt lat="50.03301" lon="2.34584">
        <ele>136.8</ele>
        <time>2023-12-20T14:16:32Z</time>
      </trkpt>
      <trkpt lat="50.03302" lon="2.34584">
        <ele>136.8</ele>
        <time>2023-12-20T14:16:33Z</time>
      </trkpt>
      <trkpt lat="50.03303" lon="2.34584">
        <ele>136.8</ele>
        <time>2023-12-20T14:16:34Z</time>
      </trkpt>
      <trkpt lat="50.03304" lon="2.34584">
        <ele>136.8</ele>
        <time>2023-12-20T14:16:35Z</time>
      </trkpt>
      <trkpt lat="50.03305" lon="2.34584">
        <ele>136.8</ele>
        <time>2023-12-20T14:16:37Z</time>
      </trkpt>
      <trkpt lat="50.03306" lon="2.34583">
        <ele>136.8</ele>
        <time>2023-12-20T14:16:38Z</time>
      </trkpt>
      <trkpt lat="50.03308" lon="2.34582">
        <ele>136.8</ele>
        <time>2023-12-20T14:16:39Z</time>
      </trkpt>
      <trkpt lat="50.03309" lon="2.34581">
        <ele>136.8</ele>
        <time>2023-12-20T14:16:40Z</time>
      </trkpt>
      <trkpt lat="50.0331" lon="2.34581">
        <ele>136.8</ele>
        <time>2023-12-20T14:16:41Z</time>
      </trkpt>
      <trkpt lat="50.03311" lon="2.34581">
        <ele>136.8</ele>
        <time>2023-12-20T14:16:42Z</time>
      </trkpt>
      <trkpt lat="50.03312" lon="2.3458">
        <ele>136.8</ele>
        <time>2023-12-20T14:16:43Z</time>
      </trkpt>
      <trkpt lat="50.03313" lon="2.3458">
        <ele>136.8</ele>
        <time>2023-12-20T14:16:44Z</time>
      </trkpt>
      <trkpt lat="50.03315" lon="2.3458">
        <ele>136.8</ele>
        <time>2023-12-20T14:16:45Z</time>
      </trkpt>
      <trkpt lat="50.03315" lon="2.34579">
        <ele>136.8</ele>
        <time>2023-12-20T14:16:46Z</time>
      </trkpt>
      <trkpt lat="50.03316" lon="2.34579">
        <ele>136.8</ele>
        <time>2023-12-20T14:16:47Z</time>
      </trkpt>
      <trkpt lat="50.03318" lon="2.34577">
        <ele>136.8</ele>
        <time>2023-12-20T14:16:49Z</time>
      </trkpt>
      <trkpt lat="50.03319" lon="2.34577">
        <ele>136.8</ele>
        <time>2023-12-20T14:16:50Z</time>
      </trkpt>
      <trkpt lat="50.03319" lon="2.34576">
        <ele>136.8</ele>
        <time>2023-12-20T14:16:51Z</time>
      </trkpt>
      <trkpt lat="50.0332" lon="2.34575">
        <ele>136.8</ele>
        <time>2023-12-20T14:16:52Z</time>
      </trkpt>
      <trkpt lat="50.03321" lon="2.34574">
        <ele>136.8</ele>
        <time>2023-12-20T14:16:53Z</time>
      </trkpt>
      <trkpt lat="50.03322" lon="2.34573">
        <ele>136.8</ele>
        <time>2023-12-20T14:16:54Z</time>
      </trkpt>
      <trkpt lat="50.03324" lon="2.34571">
        <ele>136.8</ele>
        <time>2023-12-20T14:16:55Z</time>
      </trkpt>
      <trkpt lat="50.03325" lon="2.3457">
        <ele>136.8</ele>
        <time>2023-12-20T14:16:57Z</time>
      </trkpt>
      <trkpt lat="50.03326" lon="2.34569">
        <ele>136.8</ele>
        <time>2023-12-20T14:16:59Z</time>
      </trkpt>
      <trkpt lat="50.03327" lon="2.34569">
        <ele>136.8</ele>
        <time>2023-12-20T14:17:00Z</time>
      </trkpt>
      <trkpt lat="50.03328" lon="2.34568">
        <ele>136.8</ele>
        <time>2023-12-20T14:17:01Z</time>
      </trkpt>
      <trkpt lat="50.0333" lon="2.34567">
        <ele>136.8</ele>
        <time>2023-12-20T14:17:02Z</time>
      </trkpt>
      <trkpt lat="50.03331" lon="2.34566">
        <ele>136.8</ele>
        <time>2023-12-20T14:17:03Z</time>
      </trkpt>
      <trkpt lat="50.03332" lon="2.34566">
        <ele>136.8</ele>
        <time>2023-12-20T14:17:04Z</time>
      </trkpt>
      <trkpt lat="50.03333" lon="2.34565">
        <ele>136.8</ele>
        <time>2023-12-20T14:17:05Z</time>
      </trkpt>
      <trkpt lat="50.03334" lon="2.34565">
        <ele>136.8</ele>
        <time>2023-12-20T14:17:06Z</time>
      </trkpt>
      <trkpt lat="50.03335" lon="2.34564">
        <ele>136.8</ele>
        <time>2023-12-20T14:17:08Z</time>
      </trkpt>
      <trkpt lat="50.03337" lon="2.34564">
        <ele>136.8</ele>
        <time>2023-12-20T14:17:09Z</time>
      </trkpt>
      <trkpt lat="50.03338" lon="2.34563">
        <ele>136.8</ele>
        <time>2023-12-20T14:17:10Z</time>
      </trkpt>
      <trkpt lat="50.03339" lon="2.34563">
        <ele>136.8</ele>
        <time>2023-12-20T14:17:11Z</time>
      </trkpt>
      <trkpt lat="50.0334" lon="2.34562">
        <ele>136.8</ele>
        <time>2023-12-20T14:17:12Z</time>
      </trkpt>
      <trkpt lat="50.03341" lon="2.34561">
        <ele>136.8</ele>
        <time>2023-12-20T14:17:13Z</time>
      </trkpt>
      <trkpt lat="50.03342" lon="2.34561">
        <ele>136.8</ele>
        <time>2023-12-20T14:17:14Z</time>
      </trkpt>
      <trkpt lat="50.03344" lon="2.34559">
        <ele>136.7</ele>
        <time>2023-12-20T14:17:15Z</time>
      </trkpt>
      <trkpt lat="50.03345" lon="2.34559">
        <ele>136.7</ele>
        <time>2023-12-20T14:17:16Z</time>
      </trkpt>
      <trkpt lat="50.03346" lon="2.34558">
        <ele>136.7</ele>
        <time>2023-12-20T14:17:18Z</time>
      </trkpt>
      <trkpt lat="50.03347" lon="2.34557">
        <ele>136.7</ele>
        <time>2023-12-20T14:17:19Z</time>
      </trkpt>
      <trkpt lat="50.03348" lon="2.34557">
        <ele>136.7</ele>
        <time>2023-12-20T14:17:20Z</time>
      </trkpt>
      <trkpt lat="50.03349" lon="2.34556">
        <ele>136.7</ele>
        <time>2023-12-20T14:17:21Z</time>
      </trkpt>
      <trkpt lat="50.0335" lon="2.34555">
        <ele>136.7</ele>
        <time>2023-12-20T14:17:22Z</time>
      </trkpt>
      <trkpt lat="50.03351" lon="2.34555">
        <ele>136.7</ele>
        <time>2023-12-20T14:17:23Z</time>
      </trkpt>
      <trkpt lat="50.03352" lon="2.34554">
        <ele>136.6</ele>
        <time>2023-12-20T14:17:24Z</time>
      </trkpt>
      <trkpt lat="50.03354" lon="2.34552">
        <ele>136.6</ele>
        <time>2023-12-20T14:17:25Z</time>
      </trkpt>
      <trkpt lat="50.03355" lon="2.34552">
        <ele>136.6</ele>
        <time>2023-12-20T14:17:26Z</time>
      </trkpt>
      <trkpt lat="50.03356" lon="2.34551">
        <ele>136.6</ele>
        <time>2023-12-20T14:17:27Z</time>
      </trkpt>
      <trkpt lat="50.03357" lon="2.3455">
        <ele>136.6</ele>
        <time>2023-12-20T14:17:29Z</time>
      </trkpt>
      <trkpt lat="50.03358" lon="2.34549">
        <ele>136.5</ele>
        <time>2023-12-20T14:17:30Z</time>
      </trkpt>
      <trkpt lat="50.0336" lon="2.34548">
        <ele>136.5</ele>
        <time>2023-12-20T14:17:31Z</time>
      </trkpt>
      <trkpt lat="50.03361" lon="2.34548">
        <ele>136.5</ele>
        <time>2023-12-20T14:17:32Z</time>
      </trkpt>
      <trkpt lat="50.03362" lon="2.34548">
        <ele>136.5</ele>
        <time>2023-12-20T14:17:33Z</time>
      </trkpt>
      <trkpt lat="50.03363" lon="2.34547">
        <ele>136.5</ele>
        <time>2023-12-20T14:17:34Z</time>
      </trkpt>
      <trkpt lat="50.03364" lon="2.34546">
        <ele>136.5</ele>
        <time>2023-12-20T14:17:35Z</time>
      </trkpt>
      <trkpt lat="50.03365" lon="2.34546">
        <ele>136.5</ele>
        <time>2023-12-20T14:17:36Z</time>
      </trkpt>
      <trkpt lat="50.03367" lon="2.34545">
        <ele>136.5</ele>
        <time>2023-12-20T14:17:38Z</time>
      </trkpt>
      <trkpt lat="50.03368" lon="2.34545">
        <ele>136.5</ele>
        <time>2023-12-20T14:17:39Z</time>
      </trkpt>
      <trkpt lat="50.03369" lon="2.34544">
        <ele>136.5</ele>
        <time>2023-12-20T14:17:40Z</time>
      </trkpt>
      <trkpt lat="50.03371" lon="2.34544">
        <ele>136.5</ele>
        <time>2023-12-20T14:17:41Z</time>
      </trkpt>
      <trkpt lat="50.03372" lon="2.34544">
        <ele>136.5</ele>
        <time>2023-12-20T14:17:42Z</time>
      </trkpt>
      <trkpt lat="50.03372" lon="2.34543">
        <ele>136.5</ele>
        <time>2023-12-20T14:17:43Z</time>
      </trkpt>
      <trkpt lat="50.03374" lon="2.34543">
        <ele>136.5</ele>
        <time>2023-12-20T14:17:44Z</time>
      </trkpt>
      <trkpt lat="50.03375" lon="2.34542">
        <ele>136.5</ele>
        <time>2023-12-20T14:17:45Z</time>
      </trkpt>
      <trkpt lat="50.03376" lon="2.34542">
        <ele>136.6</ele>
        <time>2023-12-20T14:17:46Z</time>
      </trkpt>
      <trkpt lat="50.03378" lon="2.34541">
        <ele>136.6</ele>
        <time>2023-12-20T14:17:48Z</time>
      </trkpt>
      <trkpt lat="50.03379" lon="2.3454">
        <ele>136.6</ele>
        <time>2023-12-20T14:17:49Z</time>
      </trkpt>
      <trkpt lat="50.0338" lon="2.3454">
        <ele>136.6</ele>
        <time>2023-12-20T14:17:50Z</time>
      </trkpt>
      <trkpt lat="50.03381" lon="2.34539">
        <ele>136.7</ele>
        <time>2023-12-20T14:17:51Z</time>
      </trkpt>
      <trkpt lat="50.03382" lon="2.34539">
        <ele>136.7</ele>
        <time>2023-12-20T14:17:52Z</time>
      </trkpt>
      <trkpt lat="50.03383" lon="2.34538">
        <ele>136.7</ele>
        <time>2023-12-20T14:17:53Z</time>
      </trkpt>
      <trkpt lat="50.03385" lon="2.34536">
        <ele>136.7</ele>
        <time>2023-12-20T14:17:54Z</time>
      </trkpt>
      <trkpt lat="50.03386" lon="2.34535">
        <ele>136.8</ele>
        <time>2023-12-20T14:17:55Z</time>
      </trkpt>
      <trkpt lat="50.03386" lon="2.34535">
        <ele>136.8</ele>
        <time>2023-12-20T14:17:57Z</time>
      </trkpt>
      <trkpt lat="50.03387" lon="2.34534">
        <ele>136.8</ele>
        <time>2023-12-20T14:17:58Z</time>
      </trkpt>
      <trkpt lat="50.03388" lon="2.34533">
        <ele>136.8</ele>
        <time>2023-12-20T14:17:59Z</time>
      </trkpt>
      <trkpt lat="50.03389" lon="2.34532">
        <ele>136.9</ele>
        <time>2023-12-20T14:18:00Z</time>
      </trkpt>
      <trkpt lat="50.0339" lon="2.34531">
        <ele>136.9</ele>
        <time>2023-12-20T14:18:01Z</time>
      </trkpt>
      <trkpt lat="50.03391" lon="2.3453">
        <ele>136.9</ele>
        <time>2023-12-20T14:18:02Z</time>
      </trkpt>
      <trkpt lat="50.03392" lon="2.34529">
        <ele>136.9</ele>
        <time>2023-12-20T14:18:03Z</time>
      </trkpt>
      <trkpt lat="50.03394" lon="2.34528">
        <ele>137</ele>
        <time>2023-12-20T14:18:04Z</time>
      </trkpt>
      <trkpt lat="50.03395" lon="2.34528">
        <ele>137</ele>
        <time>2023-12-20T14:18:06Z</time>
      </trkpt>
      <trkpt lat="50.03396" lon="2.34527">
        <ele>137</ele>
        <time>2023-12-20T14:18:07Z</time>
      </trkpt>
      <trkpt lat="50.03397" lon="2.34526">
        <ele>137</ele>
        <time>2023-12-20T14:18:08Z</time>
      </trkpt>
      <trkpt lat="50.03398" lon="2.34525">
        <ele>137.1</ele>
        <time>2023-12-20T14:18:09Z</time>
      </trkpt>
      <trkpt lat="50.03399" lon="2.34525">
        <ele>137.1</ele>
        <time>2023-12-20T14:18:10Z</time>
      </trkpt>
      <trkpt lat="50.034" lon="2.34524">
        <ele>137.1</ele>
        <time>2023-12-20T14:18:11Z</time>
      </trkpt>
      <trkpt lat="50.03401" lon="2.34524">
        <ele>137.1</ele>
        <time>2023-12-20T14:18:12Z</time>
      </trkpt>
      <trkpt lat="50.03402" lon="2.34523">
        <ele>137.2</ele>
        <time>2023-12-20T14:18:13Z</time>
      </trkpt>
      <trkpt lat="50.03404" lon="2.34522">
        <ele>137.2</ele>
        <time>2023-12-20T14:18:15Z</time>
      </trkpt>
      <trkpt lat="50.03405" lon="2.34522">
        <ele>137.2</ele>
        <time>2023-12-20T14:18:16Z</time>
      </trkpt>
      <trkpt lat="50.03406" lon="2.34521">
        <ele>137.2</ele>
        <time>2023-12-20T14:18:17Z</time>
      </trkpt>
      <trkpt lat="50.03407" lon="2.34521">
        <ele>137.3</ele>
        <time>2023-12-20T14:18:18Z</time>
      </trkpt>
      <trkpt lat="50.03408" lon="2.34521">
        <ele>137.3</ele>
        <time>2023-12-20T14:18:19Z</time>
      </trkpt>
      <trkpt lat="50.03409" lon="2.3452">
        <ele>137.3</ele>
        <time>2023-12-20T14:18:20Z</time>
      </trkpt>
      <trkpt lat="50.0341" lon="2.3452">
        <ele>137.3</ele>
        <time>2023-12-20T14:18:21Z</time>
      </trkpt>
      <trkpt lat="50.03412" lon="2.34519">
        <ele>137.3</ele>
        <time>2023-12-20T14:18:22Z</time>
      </trkpt>
      <trkpt lat="50.03413" lon="2.34519">
        <ele>137.4</ele>
        <time>2023-12-20T14:18:24Z</time>
      </trkpt>
      <trkpt lat="50.03415" lon="2.34518">
        <ele>137.4</ele>
        <time>2023-12-20T14:18:25Z</time>
      </trkpt>
      <trkpt lat="50.03416" lon="2.34518">
        <ele>137.4</ele>
        <time>2023-12-20T14:18:26Z</time>
      </trkpt>
      <trkpt lat="50.03417" lon="2.34518">
        <ele>137.4</ele>
        <time>2023-12-20T14:18:27Z</time>
      </trkpt>
      <trkpt lat="50.03418" lon="2.34518">
        <ele>137.5</ele>
        <time>2023-12-20T14:18:28Z</time>
      </trkpt>
      <trkpt lat="50.03419" lon="2.34518">
        <ele>137.5</ele>
        <time>2023-12-20T14:18:29Z</time>
      </trkpt>
      <trkpt lat="50.0342" lon="2.34517">
        <ele>137.5</ele>
        <time>2023-12-20T14:18:30Z</time>
      </trkpt>
      <trkpt lat="50.03422" lon="2.34516">
        <ele>137.5</ele>
        <time>2023-12-20T14:18:31Z</time>
      </trkpt>
      <trkpt lat="50.03423" lon="2.34516">
        <ele>137.5</ele>
        <time>2023-12-20T14:18:33Z</time>
      </trkpt>
      <trkpt lat="50.03424" lon="2.34515">
        <ele>137.6</ele>
        <time>2023-12-20T14:18:34Z</time>
      </trkpt>
      <trkpt lat="50.03426" lon="2.34514">
        <ele>137.6</ele>
        <time>2023-12-20T14:18:35Z</time>
      </trkpt>
      <trkpt lat="50.03427" lon="2.34514">
        <ele>137.6</ele>
        <time>2023-12-20T14:18:36Z</time>
      </trkpt>
      <trkpt lat="50.03427" lon="2.34514">
        <ele>137.6</ele>
        <time>2023-12-20T14:18:37Z</time>
      </trkpt>
      <trkpt lat="50.03429" lon="2.34513">
        <ele>137.6</ele>
        <time>2023-12-20T14:18:38Z</time>
      </trkpt>
      <trkpt lat="50.0343" lon="2.34513">
        <ele>137.6</ele>
        <time>2023-12-20T14:18:39Z</time>
      </trkpt>
      <trkpt lat="50.03431" lon="2.34513">
        <ele>137.6</ele>
        <time>2023-12-20T14:18:40Z</time>
      </trkpt>
      <trkpt lat="50.03432" lon="2.34512">
        <ele>137.7</ele>
        <time>2023-12-20T14:18:41Z</time>
      </trkpt>
      <trkpt lat="50.03433" lon="2.34512">
        <ele>137.7</ele>
        <time>2023-12-20T14:18:43Z</time>
      </trkpt>
      <trkpt lat="50.03434" lon="2.34511">
        <ele>137.7</ele>
        <time>2023-12-20T14:18:44Z</time>
      </trkpt>
      <trkpt lat="50.03435" lon="2.3451">
        <ele>137.7</ele>
        <time>2023-12-20T14:18:45Z</time>
      </trkpt>
      <trkpt lat="50.03436" lon="2.3451">
        <ele>137.7</ele>
        <time>2023-12-20T14:18:46Z</time>
      </trkpt>
      <trkpt lat="50.03438" lon="2.34509">
        <ele>137.7</ele>
        <time>2023-12-20T14:18:47Z</time>
      </trkpt>
      <trkpt lat="50.03439" lon="2.34509">
        <ele>137.8</ele>
        <time>2023-12-20T14:18:48Z</time>
      </trkpt>
      <trkpt lat="50.0344" lon="2.34508">
        <ele>137.8</ele>
        <time>2023-12-20T14:18:49Z</time>
      </trkpt>
      <trkpt lat="50.03441" lon="2.34508">
        <ele>137.8</ele>
        <time>2023-12-20T14:18:50Z</time>
      </trkpt>
      <trkpt lat="50.03442" lon="2.34507">
        <ele>137.8</ele>
        <time>2023-12-20T14:18:52Z</time>
      </trkpt>
      <trkpt lat="50.03443" lon="2.34506">
        <ele>137.8</ele>
        <time>2023-12-20T14:18:53Z</time>
      </trkpt>
      <trkpt lat="50.03444" lon="2.34505">
        <ele>137.8</ele>
        <time>2023-12-20T14:18:54Z</time>
      </trkpt>
      <trkpt lat="50.03446" lon="2.34504">
        <ele>137.9</ele>
        <time>2023-12-20T14:18:55Z</time>
      </trkpt>
      <trkpt lat="50.03447" lon="2.34503">
        <ele>137.9</ele>
        <time>2023-12-20T14:18:56Z</time>
      </trkpt>
      <trkpt lat="50.03447" lon="2.34502">
        <ele>137.9</ele>
        <time>2023-12-20T14:18:57Z</time>
      </trkpt>
      <trkpt lat="50.03449" lon="2.34501">
        <ele>137.9</ele>
        <time>2023-12-20T14:18:58Z</time>
      </trkpt>
      <trkpt lat="50.0345" lon="2.345">
        <ele>138</ele>
        <time>2023-12-20T14:18:59Z</time>
      </trkpt>
      <trkpt lat="50.03451" lon="2.345">
        <ele>138</ele>
        <time>2023-12-20T14:19:00Z</time>
      </trkpt>
      <trkpt lat="50.03452" lon="2.34499">
        <ele>138</ele>
        <time>2023-12-20T14:19:02Z</time>
      </trkpt>
      <trkpt lat="50.03453" lon="2.34498">
        <ele>138</ele>
        <time>2023-12-20T14:19:03Z</time>
      </trkpt>
      <trkpt lat="50.03455" lon="2.34497">
        <ele>138</ele>
        <time>2023-12-20T14:19:04Z</time>
      </trkpt>
      <trkpt lat="50.03456" lon="2.34496">
        <ele>138</ele>
        <time>2023-12-20T14:19:05Z</time>
      </trkpt>
      <trkpt lat="50.03457" lon="2.34496">
        <ele>138.1</ele>
        <time>2023-12-20T14:19:06Z</time>
      </trkpt>
      <trkpt lat="50.03459" lon="2.34495">
        <ele>138.1</ele>
        <time>2023-12-20T14:19:07Z</time>
      </trkpt>
      <trkpt lat="50.0346" lon="2.34495">
        <ele>138.1</ele>
        <time>2023-12-20T14:19:08Z</time>
      </trkpt>
      <trkpt lat="50.03462" lon="2.34494">
        <ele>138.1</ele>
        <time>2023-12-20T14:19:09Z</time>
      </trkpt>
      <trkpt lat="50.03464" lon="2.34493">
        <ele>138.1</ele>
        <time>2023-12-20T14:19:11Z</time>
      </trkpt>
      <trkpt lat="50.03465" lon="2.34493">
        <ele>138.2</ele>
        <time>2023-12-20T14:19:12Z</time>
      </trkpt>
      <trkpt lat="50.03465" lon="2.34493">
        <ele>138.2</ele>
        <time>2023-12-20T14:19:13Z</time>
      </trkpt>
      <trkpt lat="50.03467" lon="2.34492">
        <ele>138.2</ele>
        <time>2023-12-20T14:19:14Z</time>
      </trkpt>
      <trkpt lat="50.03468" lon="2.34491">
        <ele>138.2</ele>
        <time>2023-12-20T14:19:15Z</time>
      </trkpt>
      <trkpt lat="50.03469" lon="2.34491">
        <ele>138.3</ele>
        <time>2023-12-20T14:19:16Z</time>
      </trkpt>
      <trkpt lat="50.0347" lon="2.3449">
        <ele>138.3</ele>
        <time>2023-12-20T14:19:17Z</time>
      </trkpt>
      <trkpt lat="50.03471" lon="2.34489">
        <ele>138.3</ele>
        <time>2023-12-20T14:19:18Z</time>
      </trkpt>
      <trkpt lat="50.03472" lon="2.34489">
        <ele>138.3</ele>
        <time>2023-12-20T14:19:20Z</time>
      </trkpt>
      <trkpt lat="50.03474" lon="2.34488">
        <ele>138.4</ele>
        <time>2023-12-20T14:19:21Z</time>
      </trkpt>
      <trkpt lat="50.03475" lon="2.34487">
        <ele>138.4</ele>
        <time>2023-12-20T14:19:22Z</time>
      </trkpt>
      <trkpt lat="50.03476" lon="2.34487">
        <ele>138.4</ele>
        <time>2023-12-20T14:19:23Z</time>
      </trkpt>
      <trkpt lat="50.03477" lon="2.34486">
        <ele>138.5</ele>
        <time>2023-12-20T14:19:24Z</time>
      </trkpt>
      <trkpt lat="50.03478" lon="2.34486">
        <ele>138.5</ele>
        <time>2023-12-20T14:19:25Z</time>
      </trkpt>
      <trkpt lat="50.0348" lon="2.34485">
        <ele>138.5</ele>
        <time>2023-12-20T14:19:26Z</time>
      </trkpt>
      <trkpt lat="50.03481" lon="2.34485">
        <ele>138.5</ele>
        <time>2023-12-20T14:19:27Z</time>
      </trkpt>
      <trkpt lat="50.03483" lon="2.34484">
        <ele>138.6</ele>
        <time>2023-12-20T14:19:28Z</time>
      </trkpt>
      <trkpt lat="50.03484" lon="2.34484">
        <ele>138.6</ele>
        <time>2023-12-20T14:19:30Z</time>
      </trkpt>
      <trkpt lat="50.03485" lon="2.34483">
        <ele>138.6</ele>
        <time>2023-12-20T14:19:31Z</time>
      </trkpt>
      <trkpt lat="50.03486" lon="2.34483">
        <ele>138.6</ele>
        <time>2023-12-20T14:19:32Z</time>
      </trkpt>
      <trkpt lat="50.03487" lon="2.34482">
        <ele>138.6</ele>
        <time>2023-12-20T14:19:33Z</time>
      </trkpt>
      <trkpt lat="50.0349" lon="2.34481">
        <ele>138.7</ele>
        <time>2023-12-20T14:19:34Z</time>
      </trkpt>
      <trkpt lat="50.0349" lon="2.34481">
        <ele>138.7</ele>
        <time>2023-12-20T14:19:35Z</time>
      </trkpt>
      <trkpt lat="50.03491" lon="2.34481">
        <ele>138.7</ele>
        <time>2023-12-20T14:19:36Z</time>
      </trkpt>
      <trkpt lat="50.03492" lon="2.34481">
        <ele>138.7</ele>
        <time>2023-12-20T14:19:38Z</time>
      </trkpt>
      <trkpt lat="50.03493" lon="2.3448">
        <ele>138.7</ele>
        <time>2023-12-20T14:19:39Z</time>
      </trkpt>
      <trkpt lat="50.03494" lon="2.34479">
        <ele>138.7</ele>
        <time>2023-12-20T14:19:40Z</time>
      </trkpt>
      <trkpt lat="50.03496" lon="2.34479">
        <ele>138.8</ele>
        <time>2023-12-20T14:19:41Z</time>
      </trkpt>
      <trkpt lat="50.03497" lon="2.34478">
        <ele>138.8</ele>
        <time>2023-12-20T14:19:42Z</time>
      </trkpt>
      <trkpt lat="50.03498" lon="2.34478">
        <ele>138.8</ele>
        <time>2023-12-20T14:19:43Z</time>
      </trkpt>
      <trkpt lat="50.03499" lon="2.34478">
        <ele>138.8</ele>
        <time>2023-12-20T14:19:44Z</time>
      </trkpt>
      <trkpt lat="50.03499" lon="2.34478">
        <ele>138.8</ele>
        <time>2023-12-20T14:19:46Z</time>
      </trkpt>
      <trkpt lat="50.035" lon="2.34478">
        <ele>138.8</ele>
        <time>2023-12-20T14:19:47Z</time>
      </trkpt>
      <trkpt lat="50.03502" lon="2.34478">
        <ele>138.8</ele>
        <time>2023-12-20T14:19:48Z</time>
      </trkpt>
      <trkpt lat="50.03503" lon="2.34478">
        <ele>138.9</ele>
        <time>2023-12-20T14:19:49Z</time>
      </trkpt>
      <trkpt lat="50.03504" lon="2.34477">
        <ele>138.9</ele>
        <time>2023-12-20T14:19:50Z</time>
      </trkpt>
      <trkpt lat="50.03505" lon="2.34477">
        <ele>138.9</ele>
        <time>2023-12-20T14:19:51Z</time>
      </trkpt>
      <trkpt lat="50.03506" lon="2.34476">
        <ele>138.9</ele>
        <time>2023-12-20T14:19:52Z</time>
      </trkpt>
      <trkpt lat="50.03507" lon="2.34475">
        <ele>138.9</ele>
        <time>2023-12-20T14:19:53Z</time>
      </trkpt>
      <trkpt lat="50.03508" lon="2.34473">
        <ele>139</ele>
        <time>2023-12-20T14:19:55Z</time>
      </trkpt>
      <trkpt lat="50.03509" lon="2.34472">
        <ele>139</ele>
        <time>2023-12-20T14:19:56Z</time>
      </trkpt>
      <trkpt lat="50.0351" lon="2.34471">
        <ele>139</ele>
        <time>2023-12-20T14:19:57Z</time>
      </trkpt>
      <trkpt lat="50.03511" lon="2.3447">
        <ele>139.1</ele>
        <time>2023-12-20T14:19:58Z</time>
      </trkpt>
      <trkpt lat="50.03511" lon="2.34469">
        <ele>139.1</ele>
        <time>2023-12-20T14:19:59Z</time>
      </trkpt>
      <trkpt lat="50.03512" lon="2.34469">
        <ele>139.1</ele>
        <time>2023-12-20T14:20:00Z</time>
      </trkpt>
      <trkpt lat="50.03514" lon="2.34467">
        <ele>139.2</ele>
        <time>2023-12-20T14:20:01Z</time>
      </trkpt>
      <trkpt lat="50.03515" lon="2.34467">
        <ele>139.2</ele>
        <time>2023-12-20T14:20:03Z</time>
      </trkpt>
      <trkpt lat="50.03516" lon="2.34466">
        <ele>139.2</ele>
        <time>2023-12-20T14:20:04Z</time>
      </trkpt>
      <trkpt lat="50.03517" lon="2.34465">
        <ele>139.3</ele>
        <time>2023-12-20T14:20:05Z</time>
      </trkpt>
      <trkpt lat="50.03518" lon="2.34464">
        <ele>139.3</ele>
        <time>2023-12-20T14:20:06Z</time>
      </trkpt>
      <trkpt lat="50.0352" lon="2.34463">
        <ele>139.3</ele>
        <time>2023-12-20T14:20:07Z</time>
      </trkpt>
      <trkpt lat="50.03521" lon="2.34463">
        <ele>139.4</ele>
        <time>2023-12-20T14:20:08Z</time>
      </trkpt>
      <trkpt lat="50.03522" lon="2.34463">
        <ele>139.4</ele>
        <time>2023-12-20T14:20:09Z</time>
      </trkpt>
      <trkpt lat="50.03523" lon="2.34462">
        <ele>139.4</ele>
        <time>2023-12-20T14:20:10Z</time>
      </trkpt>
      <trkpt lat="50.03523" lon="2.34461">
        <ele>139.4</ele>
        <time>2023-12-20T14:20:12Z</time>
      </trkpt>
      <trkpt lat="50.03524" lon="2.34461">
        <ele>139.5</ele>
        <time>2023-12-20T14:20:13Z</time>
      </trkpt>
      <trkpt lat="50.03525" lon="2.3446">
        <ele>139.5</ele>
        <time>2023-12-20T14:20:14Z</time>
      </trkpt>
      <trkpt lat="50.03526" lon="2.34459">
        <ele>139.5</ele>
        <time>2023-12-20T14:20:15Z</time>
      </trkpt>
      <trkpt lat="50.03527" lon="2.34458">
        <ele>139.5</ele>
        <time>2023-12-20T14:20:16Z</time>
      </trkpt>
      <trkpt lat="50.03528" lon="2.34458">
        <ele>139.6</ele>
        <time>2023-12-20T14:20:17Z</time>
      </trkpt>
      <trkpt lat="50.03529" lon="2.34457">
        <ele>139.6</ele>
        <time>2023-12-20T14:20:18Z</time>
      </trkpt>
      <trkpt lat="50.0353" lon="2.34456">
        <ele>139.6</ele>
        <time>2023-12-20T14:20:20Z</time>
      </trkpt>
      <trkpt lat="50.03531" lon="2.34456">
        <ele>139.7</ele>
        <time>2023-12-20T14:20:21Z</time>
      </trkpt>
      <trkpt lat="50.03532" lon="2.34455">
        <ele>139.7</ele>
        <time>2023-12-20T14:20:22Z</time>
      </trkpt>
      <trkpt lat="50.03533" lon="2.34454">
        <ele>139.7</ele>
        <time>2023-12-20T14:20:23Z</time>
      </trkpt>
      <trkpt lat="50.03534" lon="2.34454">
        <ele>139.7</ele>
        <time>2023-12-20T14:20:24Z</time>
      </trkpt>
      <trkpt lat="50.03535" lon="2.34453">
        <ele>139.8</ele>
        <time>2023-12-20T14:20:25Z</time>
      </trkpt>
      <trkpt lat="50.03537" lon="2.34452">
        <ele>139.8</ele>
        <time>2023-12-20T14:20:26Z</time>
      </trkpt>
      <trkpt lat="50.03539" lon="2.34451">
        <ele>139.8</ele>
        <time>2023-12-20T14:20:27Z</time>
      </trkpt>
      <trkpt lat="50.03539" lon="2.34451">
        <ele>139.9</ele>
        <time>2023-12-20T14:20:29Z</time>
      </trkpt>
      <trkpt lat="50.0354" lon="2.3445">
        <ele>139.9</ele>
        <time>2023-12-20T14:20:30Z</time>
      </trkpt>
      <trkpt lat="50.03542" lon="2.34449">
        <ele>139.9</ele>
        <time>2023-12-20T14:20:31Z</time>
      </trkpt>
      <trkpt lat="50.03543" lon="2.34449">
        <ele>139.9</ele>
        <time>2023-12-20T14:20:32Z</time>
      </trkpt>
      <trkpt lat="50.03544" lon="2.34448">
        <ele>140</ele>
        <time>2023-12-20T14:20:33Z</time>
      </trkpt>
      <trkpt lat="50.03545" lon="2.34447">
        <ele>140</ele>
        <time>2023-12-20T14:20:34Z</time>
      </trkpt>
      <trkpt lat="50.03547" lon="2.34446">
        <ele>140</ele>
        <time>2023-12-20T14:20:35Z</time>
      </trkpt>
      <trkpt lat="50.03548" lon="2.34445">
        <ele>140.1</ele>
        <time>2023-12-20T14:20:36Z</time>
      </trkpt>
      <trkpt lat="50.03549" lon="2.34445">
        <ele>140.1</ele>
        <time>2023-12-20T14:20:38Z</time>
      </trkpt>
      <trkpt lat="50.0355" lon="2.34445">
        <ele>140.1</ele>
        <time>2023-12-20T14:20:39Z</time>
      </trkpt>
      <trkpt lat="50.03552" lon="2.34444">
        <ele>140.1</ele>
        <time>2023-12-20T14:20:40Z</time>
      </trkpt>
      <trkpt lat="50.03553" lon="2.34444">
        <ele>140.1</ele>
        <time>2023-12-20T14:20:41Z</time>
      </trkpt>
      <trkpt lat="50.03554" lon="2.34444">
        <ele>140.2</ele>
        <time>2023-12-20T14:20:42Z</time>
      </trkpt>
      <trkpt lat="50.03555" lon="2.34443">
        <ele>140.2</ele>
        <time>2023-12-20T14:20:43Z</time>
      </trkpt>
      <trkpt lat="50.03556" lon="2.34443">
        <ele>140.2</ele>
        <time>2023-12-20T14:20:45Z</time>
      </trkpt>
      <trkpt lat="50.03557" lon="2.34442">
        <ele>140.2</ele>
        <time>2023-12-20T14:20:46Z</time>
      </trkpt>
      <trkpt lat="50.03559" lon="2.3444">
        <ele>140.3</ele>
        <time>2023-12-20T14:20:47Z</time>
      </trkpt>
      <trkpt lat="50.03559" lon="2.3444">
        <ele>140.3</ele>
        <time>2023-12-20T14:20:48Z</time>
      </trkpt>
      <trkpt lat="50.0356" lon="2.34439">
        <ele>140.3</ele>
        <time>2023-12-20T14:20:49Z</time>
      </trkpt>
      <trkpt lat="50.03561" lon="2.34438">
        <ele>140.4</ele>
        <time>2023-12-20T14:20:50Z</time>
      </trkpt>
      <trkpt lat="50.03562" lon="2.34437">
        <ele>140.4</ele>
        <time>2023-12-20T14:20:51Z</time>
      </trkpt>
      <trkpt lat="50.03564" lon="2.34437">
        <ele>140.4</ele>
        <time>2023-12-20T14:20:53Z</time>
      </trkpt>
      <trkpt lat="50.03566" lon="2.34436">
        <ele>140.5</ele>
        <time>2023-12-20T14:20:54Z</time>
      </trkpt>
      <trkpt lat="50.03567" lon="2.34436">
        <ele>140.5</ele>
        <time>2023-12-20T14:20:55Z</time>
      </trkpt>
      <trkpt lat="50.03568" lon="2.34435">
        <ele>140.5</ele>
        <time>2023-12-20T14:20:56Z</time>
      </trkpt>
      <trkpt lat="50.03569" lon="2.34435">
        <ele>140.5</ele>
        <time>2023-12-20T14:20:57Z</time>
      </trkpt>
      <trkpt lat="50.0357" lon="2.34434">
        <ele>140.6</ele>
        <time>2023-12-20T14:20:58Z</time>
      </trkpt>
      <trkpt lat="50.03571" lon="2.34434">
        <ele>140.6</ele>
        <time>2023-12-20T14:21:00Z</time>
      </trkpt>
      <trkpt lat="50.03573" lon="2.34433">
        <ele>140.6</ele>
        <time>2023-12-20T14:21:01Z</time>
      </trkpt>
      <trkpt lat="50.03574" lon="2.34433">
        <ele>140.7</ele>
        <time>2023-12-20T14:21:02Z</time>
      </trkpt>
      <trkpt lat="50.03576" lon="2.34432">
        <ele>140.7</ele>
        <time>2023-12-20T14:21:03Z</time>
      </trkpt>
      <trkpt lat="50.03577" lon="2.34431">
        <ele>140.7</ele>
        <time>2023-12-20T14:21:04Z</time>
      </trkpt>
      <trkpt lat="50.03578" lon="2.34431">
        <ele>140.7</ele>
        <time>2023-12-20T14:21:05Z</time>
      </trkpt>
      <trkpt lat="50.03579" lon="2.3443">
        <ele>140.8</ele>
        <time>2023-12-20T14:21:07Z</time>
      </trkpt>
      <trkpt lat="50.0358" lon="2.34429">
        <ele>140.8</ele>
        <time>2023-12-20T14:21:08Z</time>
      </trkpt>
      <trkpt lat="50.03581" lon="2.34429">
        <ele>140.8</ele>
        <time>2023-12-20T14:21:09Z</time>
      </trkpt>
      <trkpt lat="50.03582" lon="2.34428">
        <ele>140.9</ele>
        <time>2023-12-20T14:21:10Z</time>
      </trkpt>
      <trkpt lat="50.03584" lon="2.34428">
        <ele>140.9</ele>
        <time>2023-12-20T14:21:11Z</time>
      </trkpt>
      <trkpt lat="50.03586" lon="2.34427">
        <ele>140.9</ele>
        <time>2023-12-20T14:21:12Z</time>
      </trkpt>
      <trkpt lat="50.03587" lon="2.34427">
        <ele>141</ele>
        <time>2023-12-20T14:21:13Z</time>
      </trkpt>
      <trkpt lat="50.03588" lon="2.34426">
        <ele>141</ele>
        <time>2023-12-20T14:21:15Z</time>
      </trkpt>
      <trkpt lat="50.03589" lon="2.34426">
        <ele>141</ele>
        <time>2023-12-20T14:21:16Z</time>
      </trkpt>
      <trkpt lat="50.03589" lon="2.34426">
        <ele>141</ele>
        <time>2023-12-20T14:21:17Z</time>
      </trkpt>
      <trkpt lat="50.0359" lon="2.34425">
        <ele>141</ele>
        <time>2023-12-20T14:21:18Z</time>
      </trkpt>
      <trkpt lat="50.03592" lon="2.34425">
        <ele>141.1</ele>
        <time>2023-12-20T14:21:19Z</time>
      </trkpt>
      <trkpt lat="50.03593" lon="2.34424">
        <ele>141.1</ele>
        <time>2023-12-20T14:21:20Z</time>
      </trkpt>
      <trkpt lat="50.03593" lon="2.34423">
        <ele>141.1</ele>
        <time>2023-12-20T14:21:22Z</time>
      </trkpt>
      <trkpt lat="50.03594" lon="2.34422">
        <ele>141.1</ele>
        <time>2023-12-20T14:21:23Z</time>
      </trkpt>
      <trkpt lat="50.03595" lon="2.34421">
        <ele>141.1</ele>
        <time>2023-12-20T14:21:24Z</time>
      </trkpt>
      <trkpt lat="50.03596" lon="2.3442">
        <ele>141.2</ele>
        <time>2023-12-20T14:21:25Z</time>
      </trkpt>
      <trkpt lat="50.03598" lon="2.34419">
        <ele>141.2</ele>
        <time>2023-12-20T14:21:26Z</time>
      </trkpt>
      <trkpt lat="50.03599" lon="2.34418">
        <ele>141.2</ele>
        <time>2023-12-20T14:21:27Z</time>
      </trkpt>
      <trkpt lat="50.036" lon="2.34418">
        <ele>141.3</ele>
        <time>2023-12-20T14:21:28Z</time>
      </trkpt>
      <trkpt lat="50.036" lon="2.34417">
        <ele>141.3</ele>
        <time>2023-12-20T14:21:29Z</time>
      </trkpt>
      <trkpt lat="50.03602" lon="2.34417">
        <ele>141.3</ele>
        <time>2023-12-20T14:21:30Z</time>
      </trkpt>
      <trkpt lat="50.03603" lon="2.34417">
        <ele>141.3</ele>
        <time>2023-12-20T14:21:31Z</time>
      </trkpt>
      <trkpt lat="50.03603" lon="2.34416">
        <ele>141.3</ele>
        <time>2023-12-20T14:21:33Z</time>
      </trkpt>
      <trkpt lat="50.03604" lon="2.34416">
        <ele>141.4</ele>
        <time>2023-12-20T14:21:34Z</time>
      </trkpt>
      <trkpt lat="50.03605" lon="2.34416">
        <ele>141.4</ele>
        <time>2023-12-20T14:21:35Z</time>
      </trkpt>
      <trkpt lat="50.03606" lon="2.34415">
        <ele>141.4</ele>
        <time>2023-12-20T14:21:36Z</time>
      </trkpt>
      <trkpt lat="50.03607" lon="2.34415">
        <ele>141.4</ele>
        <time>2023-12-20T14:21:37Z</time>
      </trkpt>
      <trkpt lat="50.03608" lon="2.34414">
        <ele>141.5</ele>
        <time>2023-12-20T14:21:38Z</time>
      </trkpt>
      <trkpt lat="50.03609" lon="2.34414">
        <ele>141.5</ele>
        <time>2023-12-20T14:21:40Z</time>
      </trkpt>
      <trkpt lat="50.0361" lon="2.34413">
        <ele>141.5</ele>
        <time>2023-12-20T14:21:41Z</time>
      </trkpt>
      <trkpt lat="50.03611" lon="2.34413">
        <ele>141.6</ele>
        <time>2023-12-20T14:21:42Z</time>
      </trkpt>
      <trkpt lat="50.03612" lon="2.34413">
        <ele>141.6</ele>
        <time>2023-12-20T14:21:43Z</time>
      </trkpt>
      <trkpt lat="50.03612" lon="2.34415">
        <ele>141.5</ele>
        <time>2023-12-20T14:21:45Z</time>
      </trkpt>
      <trkpt lat="50.03612" lon="2.34415">
        <ele>141.5</ele>
        <time>2023-12-20T14:21:46Z</time>
      </trkpt>
      <trkpt lat="50.03612" lon="2.34416">
        <ele>141.5</ele>
        <time>2023-12-20T14:21:49Z</time>
      </trkpt>
      <trkpt lat="50.03611" lon="2.34417">
        <ele>141.5</ele>
        <time>2023-12-20T14:21:50Z</time>
      </trkpt>
      <trkpt lat="50.03611" lon="2.34417">
        <ele>141.5</ele>
        <time>2023-12-20T14:21:52Z</time>
      </trkpt>
      <trkpt lat="50.03611" lon="2.34417">
        <ele>141.5</ele>
        <time>2023-12-20T14:21:53Z</time>
      </trkpt>
      <trkpt lat="50.03611" lon="2.34417">
        <ele>141.5</ele>
        <time>2023-12-20T14:21:54Z</time>
      </trkpt>
      <trkpt lat="50.0361" lon="2.34418">
        <ele>141.5</ele>
        <time>2023-12-20T14:21:57Z</time>
      </trkpt>
      <trkpt lat="50.0361" lon="2.34418">
        <ele>141.5</ele>
        <time>2023-12-20T14:21:59Z</time>
      </trkpt>
      <trkpt lat="50.0361" lon="2.34418">
        <ele>141.5</ele>
        <time>2023-12-20T14:22:01Z</time>
      </trkpt>
      <trkpt lat="50.0361" lon="2.34418">
        <ele>141.5</ele>
        <time>2023-12-20T14:22:47Z</time>
      </trkpt>
      <trkpt lat="50.0361" lon="2.34418">
        <ele>141.5</ele>
        <time>2023-12-20T14:22:48Z</time>
      </trkpt>
      <trkpt lat="50.0361" lon="2.34419">
        <ele>141.5</ele>
        <time>2023-12-20T14:22:49Z</time>
      </trkpt>
      <trkpt lat="50.03611" lon="2.34419">
        <ele>141.5</ele>
        <time>2023-12-20T14:22:50Z</time>
      </trkpt>
      <trkpt lat="50.03611" lon="2.34419">
        <ele>141.5</ele>
        <time>2023-12-20T14:22:51Z</time>
      </trkpt>
      <trkpt lat="50.03611" lon="2.34419">
        <ele>141.5</ele>
        <time>2023-12-20T14:22:52Z</time>
      </trkpt>
      <trkpt lat="50.03611" lon="2.34419">
        <ele>141.5</ele>
        <time>2023-12-20T14:22:54Z</time>
      </trkpt>
      <trkpt lat="50.03611" lon="2.34419">
        <ele>141.5</ele>
        <time>2023-12-20T14:22:55Z</time>
      </trkpt>
      <trkpt lat="50.03611" lon="2.34419">
        <ele>141.5</ele>
        <time>2023-12-20T14:22:57Z</time>
      </trkpt>
      <trkpt lat="50.03611" lon="2.3442">
        <ele>141.5</ele>
        <time>2023-12-20T14:22:58Z</time>
      </trkpt>
      <trkpt lat="50.03611" lon="2.3442">
        <ele>141.5</ele>
        <time>2023-12-20T14:22:59Z</time>
      </trkpt>
      <trkpt lat="50.03611" lon="2.3442">
        <ele>141.5</ele>
        <time>2023-12-20T14:23:00Z</time>
      </trkpt>
      <trkpt lat="50.03611" lon="2.3442">
        <ele>141.5</ele>
        <time>2023-12-20T14:23:01Z</time>
      </trkpt>
      <trkpt lat="50.03611" lon="2.3442">
        <ele>141.5</ele>
        <time>2023-12-20T14:23:03Z</time>
      </trkpt>
      <trkpt lat="50.03611" lon="2.3442">
        <ele>141.5</ele>
        <time>2023-12-20T14:23:04Z</time>
      </trkpt>
      <trkpt lat="50.03612" lon="2.3442">
        <ele>141.5</ele>
        <time>2023-12-20T14:23:05Z</time>
      </trkpt>
      <trkpt lat="50.03612" lon="2.3442">
        <ele>141.5</ele>
        <time>2023-12-20T14:23:06Z</time>
      </trkpt>
      <trkpt lat="50.03612" lon="2.34421">
        <ele>141.5</ele>
        <time>2023-12-20T14:26:24Z</time>
      </trkpt>
      <trkpt lat="50.03612" lon="2.34421">
        <ele>141.5</ele>
        <time>2023-12-20T14:26:25Z</time>
      </trkpt>
      <trkpt lat="50.03613" lon="2.34421">
        <ele>141.5</ele>
        <time>2023-12-20T14:26:26Z</time>
      </trkpt>
      <trkpt lat="50.03613" lon="2.34422">
        <ele>141.5</ele>
        <time>2023-12-20T14:26:27Z</time>
      </trkpt>
      <trkpt lat="50.03614" lon="2.34423">
        <ele>141.5</ele>
        <time>2023-12-20T14:26:28Z</time>
      </trkpt>
      <trkpt lat="50.03616" lon="2.34426">
        <ele>141.5</ele>
        <time>2023-12-20T14:26:30Z</time>
      </trkpt>
      <trkpt lat="50.03616" lon="2.34428">
        <ele>141.5</ele>
        <time>2023-12-20T14:26:31Z</time>
      </trkpt>
      <trkpt lat="50.03617" lon="2.34429">
        <ele>141.5</ele>
        <time>2023-12-20T14:26:32Z</time>
      </trkpt>
      <trkpt lat="50.03617" lon="2.34431">
        <ele>141.5</ele>
        <time>2023-12-20T14:26:33Z</time>
      </trkpt>
      <trkpt lat="50.03618" lon="2.34432">
        <ele>141.4</ele>
        <time>2023-12-20T14:26:34Z</time>
      </trkpt>
      <trkpt lat="50.03618" lon="2.34434">
        <ele>141.4</ele>
        <time>2023-12-20T14:26:35Z</time>
      </trkpt>
      <trkpt lat="50.03618" lon="2.34435">
        <ele>141.4</ele>
        <time>2023-12-20T14:26:36Z</time>
      </trkpt>
      <trkpt lat="50.03619" lon="2.34437">
        <ele>141.4</ele>
        <time>2023-12-20T14:26:38Z</time>
      </trkpt>
      <trkpt lat="50.03619" lon="2.34438">
        <ele>141.4</ele>
        <time>2023-12-20T14:26:39Z</time>
      </trkpt>
      <trkpt lat="50.0362" lon="2.3444">
        <ele>141.4</ele>
        <time>2023-12-20T14:26:40Z</time>
      </trkpt>
      <trkpt lat="50.0362" lon="2.34441">
        <ele>141.4</ele>
        <time>2023-12-20T14:26:41Z</time>
      </trkpt>
      <trkpt lat="50.03621" lon="2.34442">
        <ele>141.4</ele>
        <time>2023-12-20T14:26:42Z</time>
      </trkpt>
      <trkpt lat="50.03622" lon="2.34444">
        <ele>141.4</ele>
        <time>2023-12-20T14:26:43Z</time>
      </trkpt>
      <trkpt lat="50.03622" lon="2.34446">
        <ele>141.4</ele>
        <time>2023-12-20T14:26:44Z</time>
      </trkpt>
      <trkpt lat="50.03623" lon="2.34447">
        <ele>141.4</ele>
        <time>2023-12-20T14:26:45Z</time>
      </trkpt>
      <trkpt lat="50.03623" lon="2.34449">
        <ele>141.4</ele>
        <time>2023-12-20T14:26:46Z</time>
      </trkpt>
      <trkpt lat="50.03624" lon="2.3445">
        <ele>141.4</ele>
        <time>2023-12-20T14:26:47Z</time>
      </trkpt>
      <trkpt lat="50.03624" lon="2.34453">
        <ele>141.4</ele>
        <time>2023-12-20T14:26:49Z</time>
      </trkpt>
      <trkpt lat="50.03626" lon="2.34457">
        <ele>141.4</ele>
        <time>2023-12-20T14:26:50Z</time>
      </trkpt>
      <trkpt lat="50.03626" lon="2.34459">
        <ele>141.4</ele>
        <time>2023-12-20T14:26:51Z</time>
      </trkpt>
      <trkpt lat="50.03627" lon="2.34462">
        <ele>141.4</ele>
        <time>2023-12-20T14:26:52Z</time>
      </trkpt>
      <trkpt lat="50.03627" lon="2.34464">
        <ele>141.3</ele>
        <time>2023-12-20T14:26:53Z</time>
      </trkpt>
      <trkpt lat="50.03627" lon="2.34467">
        <ele>141.3</ele>
        <time>2023-12-20T14:26:55Z</time>
      </trkpt>
      <trkpt lat="50.03628" lon="2.34469">
        <ele>141.3</ele>
        <time>2023-12-20T14:26:56Z</time>
      </trkpt>
      <trkpt lat="50.03628" lon="2.34471">
        <ele>141.3</ele>
        <time>2023-12-20T14:26:57Z</time>
      </trkpt>
      <trkpt lat="50.03628" lon="2.34474">
        <ele>141.3</ele>
        <time>2023-12-20T14:26:58Z</time>
      </trkpt>
      <trkpt lat="50.03629" lon="2.34477">
        <ele>141.3</ele>
        <time>2023-12-20T14:26:59Z</time>
      </trkpt>
      <trkpt lat="50.03629" lon="2.34478">
        <ele>141.3</ele>
        <time>2023-12-20T14:27:00Z</time>
      </trkpt>
      <trkpt lat="50.03629" lon="2.34479">
        <ele>141.3</ele>
        <time>2023-12-20T14:27:01Z</time>
      </trkpt>
      <trkpt lat="50.0363" lon="2.34481">
        <ele>141.3</ele>
        <time>2023-12-20T14:27:02Z</time>
      </trkpt>
      <trkpt lat="50.0363" lon="2.34483">
        <ele>141.3</ele>
        <time>2023-12-20T14:27:03Z</time>
      </trkpt>
      <trkpt lat="50.0363" lon="2.34487">
        <ele>141.3</ele>
        <time>2023-12-20T14:27:05Z</time>
      </trkpt>
      <trkpt lat="50.03631" lon="2.3449">
        <ele>141.3</ele>
        <time>2023-12-20T14:27:06Z</time>
      </trkpt>
      <trkpt lat="50.03631" lon="2.34491">
        <ele>141.3</ele>
        <time>2023-12-20T14:27:08Z</time>
      </trkpt>
      <trkpt lat="50.03631" lon="2.34493">
        <ele>141.3</ele>
        <time>2023-12-20T14:27:09Z</time>
      </trkpt>
      <trkpt lat="50.03631" lon="2.34494">
        <ele>141.3</ele>
        <time>2023-12-20T14:27:10Z</time>
      </trkpt>
      <trkpt lat="50.03631" lon="2.34496">
        <ele>141.3</ele>
        <time>2023-12-20T14:27:11Z</time>
      </trkpt>
      <trkpt lat="50.03632" lon="2.34499">
        <ele>141.2</ele>
        <time>2023-12-20T14:27:12Z</time>
      </trkpt>
      <trkpt lat="50.03632" lon="2.345">
        <ele>141.2</ele>
        <time>2023-12-20T14:27:13Z</time>
      </trkpt>
      <trkpt lat="50.03632" lon="2.34501">
        <ele>141.2</ele>
        <time>2023-12-20T14:27:14Z</time>
      </trkpt>
      <trkpt lat="50.03632" lon="2.34504">
        <ele>141.2</ele>
        <time>2023-12-20T14:27:15Z</time>
      </trkpt>
      <trkpt lat="50.03633" lon="2.34505">
        <ele>141.2</ele>
        <time>2023-12-20T14:27:17Z</time>
      </trkpt>
      <trkpt lat="50.03633" lon="2.34507">
        <ele>141.2</ele>
        <time>2023-12-20T14:27:18Z</time>
      </trkpt>
      <trkpt lat="50.03633" lon="2.34509">
        <ele>141.2</ele>
        <time>2023-12-20T14:27:19Z</time>
      </trkpt>
      <trkpt lat="50.03634" lon="2.3451">
        <ele>141.2</ele>
        <time>2023-12-20T14:27:20Z</time>
      </trkpt>
      <trkpt lat="50.03634" lon="2.34512">
        <ele>141.2</ele>
        <time>2023-12-20T14:27:21Z</time>
      </trkpt>
      <trkpt lat="50.03635" lon="2.34513">
        <ele>141.2</ele>
        <time>2023-12-20T14:27:23Z</time>
      </trkpt>
      <trkpt lat="50.03636" lon="2.34515">
        <ele>141.2</ele>
        <time>2023-12-20T14:27:24Z</time>
      </trkpt>
      <trkpt lat="50.03636" lon="2.34516">
        <ele>141.2</ele>
        <time>2023-12-20T14:27:25Z</time>
      </trkpt>
      <trkpt lat="50.03637" lon="2.34519">
        <ele>141.2</ele>
        <time>2023-12-20T14:27:26Z</time>
      </trkpt>
      <trkpt lat="50.03637" lon="2.3452">
        <ele>141.2</ele>
        <time>2023-12-20T14:27:27Z</time>
      </trkpt>
      <trkpt lat="50.03638" lon="2.34521">
        <ele>141.2</ele>
        <time>2023-12-20T14:27:28Z</time>
      </trkpt>
      <trkpt lat="50.03638" lon="2.34523">
        <ele>141.2</ele>
        <time>2023-12-20T14:27:29Z</time>
      </trkpt>
      <trkpt lat="50.03639" lon="2.34525">
        <ele>141.2</ele>
        <time>2023-12-20T14:27:30Z</time>
      </trkpt>
      <trkpt lat="50.03639" lon="2.34527">
        <ele>141.2</ele>
        <time>2023-12-20T14:27:31Z</time>
      </trkpt>
      <trkpt lat="50.0364" lon="2.34529">
        <ele>141.2</ele>
        <time>2023-12-20T14:27:33Z</time>
      </trkpt>
      <trkpt lat="50.0364" lon="2.34531">
        <ele>141.2</ele>
        <time>2023-12-20T14:27:34Z</time>
      </trkpt>
      <trkpt lat="50.03641" lon="2.34534">
        <ele>141.2</ele>
        <time>2023-12-20T14:27:35Z</time>
      </trkpt>
      <trkpt lat="50.03641" lon="2.34537">
        <ele>141.2</ele>
        <time>2023-12-20T14:27:36Z</time>
      </trkpt>
      <trkpt lat="50.03641" lon="2.34539">
        <ele>141.2</ele>
        <time>2023-12-20T14:27:37Z</time>
      </trkpt>
      <trkpt lat="50.03642" lon="2.34541">
        <ele>141.2</ele>
        <time>2023-12-20T14:27:38Z</time>
      </trkpt>
      <trkpt lat="50.03642" lon="2.34543">
        <ele>141.2</ele>
        <time>2023-12-20T14:27:39Z</time>
      </trkpt>
      <trkpt lat="50.03642" lon="2.34544">
        <ele>141.2</ele>
        <time>2023-12-20T14:27:41Z</time>
      </trkpt>
      <trkpt lat="50.03642" lon="2.34548">
        <ele>141.2</ele>
        <time>2023-12-20T14:27:42Z</time>
      </trkpt>
      <trkpt lat="50.03642" lon="2.34549">
        <ele>141.2</ele>
        <time>2023-12-20T14:27:43Z</time>
      </trkpt>
      <trkpt lat="50.03643" lon="2.34551">
        <ele>141.2</ele>
        <time>2023-12-20T14:27:44Z</time>
      </trkpt>
      <trkpt lat="50.03643" lon="2.34553">
        <ele>141.2</ele>
        <time>2023-12-20T14:27:45Z</time>
      </trkpt>
      <trkpt lat="50.03643" lon="2.34555">
        <ele>141.2</ele>
        <time>2023-12-20T14:27:46Z</time>
      </trkpt>
      <trkpt lat="50.03644" lon="2.34557">
        <ele>141.2</ele>
        <time>2023-12-20T14:27:47Z</time>
      </trkpt>
      <trkpt lat="50.03644" lon="2.34559">
        <ele>141.2</ele>
        <time>2023-12-20T14:27:49Z</time>
      </trkpt>
      <trkpt lat="50.03644" lon="2.34561">
        <ele>141.3</ele>
        <time>2023-12-20T14:27:50Z</time>
      </trkpt>
      <trkpt lat="50.03645" lon="2.34563">
        <ele>141.3</ele>
        <time>2023-12-20T14:27:51Z</time>
      </trkpt>
      <trkpt lat="50.03645" lon="2.34565">
        <ele>141.3</ele>
        <time>2023-12-20T14:27:52Z</time>
      </trkpt>
      <trkpt lat="50.03645" lon="2.34568">
        <ele>141.3</ele>
        <time>2023-12-20T14:27:53Z</time>
      </trkpt>
      <trkpt lat="50.03646" lon="2.34571">
        <ele>141.3</ele>
        <time>2023-12-20T14:27:54Z</time>
      </trkpt>
      <trkpt lat="50.03646" lon="2.34573">
        <ele>141.3</ele>
        <time>2023-12-20T14:27:56Z</time>
      </trkpt>
      <trkpt lat="50.03646" lon="2.34574">
        <ele>141.3</ele>
        <time>2023-12-20T14:27:57Z</time>
      </trkpt>
      <trkpt lat="50.03647" lon="2.34577">
        <ele>141.3</ele>
        <time>2023-12-20T14:27:58Z</time>
      </trkpt>
      <trkpt lat="50.03647" lon="2.34578">
        <ele>141.3</ele>
        <time>2023-12-20T14:27:59Z</time>
      </trkpt>
      <trkpt lat="50.03648" lon="2.3458">
        <ele>141.3</ele>
        <time>2023-12-20T14:28:00Z</time>
      </trkpt>
      <trkpt lat="50.03648" lon="2.34582">
        <ele>141.4</ele>
        <time>2023-12-20T14:28:01Z</time>
      </trkpt>
      <trkpt lat="50.03648" lon="2.34584">
        <ele>141.4</ele>
        <time>2023-12-20T14:28:02Z</time>
      </trkpt>
      <trkpt lat="50.03649" lon="2.34587">
        <ele>141.4</ele>
        <time>2023-12-20T14:28:03Z</time>
      </trkpt>
      <trkpt lat="50.03649" lon="2.34589">
        <ele>141.4</ele>
        <time>2023-12-20T14:28:05Z</time>
      </trkpt>
      <trkpt lat="50.03649" lon="2.3459">
        <ele>141.4</ele>
        <time>2023-12-20T14:28:06Z</time>
      </trkpt>
      <trkpt lat="50.03649" lon="2.34593">
        <ele>141.4</ele>
        <time>2023-12-20T14:28:07Z</time>
      </trkpt>
      <trkpt lat="50.0365" lon="2.34594">
        <ele>141.4</ele>
        <time>2023-12-20T14:28:08Z</time>
      </trkpt>
      <trkpt lat="50.0365" lon="2.34596">
        <ele>141.4</ele>
        <time>2023-12-20T14:28:09Z</time>
      </trkpt>
      <trkpt lat="50.0365" lon="2.34597">
        <ele>141.4</ele>
        <time>2023-12-20T14:28:10Z</time>
      </trkpt>
      <trkpt lat="50.0365" lon="2.34599">
        <ele>141.4</ele>
        <time>2023-12-20T14:28:11Z</time>
      </trkpt>
      <trkpt lat="50.03651" lon="2.34602">
        <ele>141.4</ele>
        <time>2023-12-20T14:28:12Z</time>
      </trkpt>
      <trkpt lat="50.03651" lon="2.34603">
        <ele>141.4</ele>
        <time>2023-12-20T14:28:14Z</time>
      </trkpt>
      <trkpt lat="50.03651" lon="2.34604">
        <ele>141.4</ele>
        <time>2023-12-20T14:28:15Z</time>
      </trkpt>
      <trkpt lat="50.03652" lon="2.34608">
        <ele>141.5</ele>
        <time>2023-12-20T14:28:16Z</time>
      </trkpt>
      <trkpt lat="50.03652" lon="2.34609">
        <ele>141.5</ele>
        <time>2023-12-20T14:28:17Z</time>
      </trkpt>
      <trkpt lat="50.03652" lon="2.3461">
        <ele>141.5</ele>
        <time>2023-12-20T14:28:18Z</time>
      </trkpt>
      <trkpt lat="50.03652" lon="2.34612">
        <ele>141.5</ele>
        <time>2023-12-20T14:28:19Z</time>
      </trkpt>
      <trkpt lat="50.03652" lon="2.34615">
        <ele>141.5</ele>
        <time>2023-12-20T14:28:20Z</time>
      </trkpt>
      <trkpt lat="50.03653" lon="2.34617">
        <ele>141.5</ele>
        <time>2023-12-20T14:28:22Z</time>
      </trkpt>
      <trkpt lat="50.03653" lon="2.34619">
        <ele>141.5</ele>
        <time>2023-12-20T14:28:23Z</time>
      </trkpt>
      <trkpt lat="50.03654" lon="2.34622">
        <ele>141.5</ele>
        <time>2023-12-20T14:28:24Z</time>
      </trkpt>
      <trkpt lat="50.03654" lon="2.34624">
        <ele>141.5</ele>
        <time>2023-12-20T14:28:25Z</time>
      </trkpt>
      <trkpt lat="50.03654" lon="2.34626">
        <ele>141.5</ele>
        <time>2023-12-20T14:28:26Z</time>
      </trkpt>
      <trkpt lat="50.03655" lon="2.34629">
        <ele>141.5</ele>
        <time>2023-12-20T14:28:27Z</time>
      </trkpt>
      <trkpt lat="50.03656" lon="2.34632">
        <ele>141.5</ele>
        <time>2023-12-20T14:28:28Z</time>
      </trkpt>
      <trkpt lat="50.03656" lon="2.34633">
        <ele>141.5</ele>
        <time>2023-12-20T14:28:30Z</time>
      </trkpt>
      <trkpt lat="50.03656" lon="2.34634">
        <ele>141.5</ele>
        <time>2023-12-20T14:28:31Z</time>
      </trkpt>
      <trkpt lat="50.03657" lon="2.34637">
        <ele>141.5</ele>
        <time>2023-12-20T14:28:32Z</time>
      </trkpt>
      <trkpt lat="50.03657" lon="2.34638">
        <ele>141.5</ele>
        <time>2023-12-20T14:28:33Z</time>
      </trkpt>
      <trkpt lat="50.03658" lon="2.3464">
        <ele>141.5</ele>
        <time>2023-12-20T14:28:34Z</time>
      </trkpt>
      <trkpt lat="50.03658" lon="2.34642">
        <ele>141.5</ele>
        <time>2023-12-20T14:28:35Z</time>
      </trkpt>
      <trkpt lat="50.03659" lon="2.34643">
        <ele>141.5</ele>
        <time>2023-12-20T14:28:36Z</time>
      </trkpt>
      <trkpt lat="50.03659" lon="2.34645">
        <ele>141.6</ele>
        <time>2023-12-20T14:28:37Z</time>
      </trkpt>
      <trkpt lat="50.03659" lon="2.34647">
        <ele>141.6</ele>
        <time>2023-12-20T14:28:38Z</time>
      </trkpt>
      <trkpt lat="50.0366" lon="2.34648">
        <ele>141.6</ele>
        <time>2023-12-20T14:28:39Z</time>
      </trkpt>
      <trkpt lat="50.03661" lon="2.34651">
        <ele>141.6</ele>
        <time>2023-12-20T14:28:41Z</time>
      </trkpt>
      <trkpt lat="50.03661" lon="2.34653">
        <ele>141.6</ele>
        <time>2023-12-20T14:28:42Z</time>
      </trkpt>
      <trkpt lat="50.03662" lon="2.34654">
        <ele>141.6</ele>
        <time>2023-12-20T14:28:43Z</time>
      </trkpt>
      <trkpt lat="50.03662" lon="2.34657">
        <ele>141.6</ele>
        <time>2023-12-20T14:28:44Z</time>
      </trkpt>
      <trkpt lat="50.03663" lon="2.34659">
        <ele>141.6</ele>
        <time>2023-12-20T14:28:45Z</time>
      </trkpt>
      <trkpt lat="50.03663" lon="2.3466">
        <ele>141.6</ele>
        <time>2023-12-20T14:28:46Z</time>
      </trkpt>
      <trkpt lat="50.03664" lon="2.34663">
        <ele>141.6</ele>
        <time>2023-12-20T14:28:47Z</time>
      </trkpt>
      <trkpt lat="50.03664" lon="2.34664">
        <ele>141.6</ele>
        <time>2023-12-20T14:28:48Z</time>
      </trkpt>
      <trkpt lat="50.03664" lon="2.34666">
        <ele>141.6</ele>
        <time>2023-12-20T14:28:49Z</time>
      </trkpt>
      <trkpt lat="50.03665" lon="2.34669">
        <ele>141.6</ele>
        <time>2023-12-20T14:28:50Z</time>
      </trkpt>
      <trkpt lat="50.03666" lon="2.3467">
        <ele>141.6</ele>
        <time>2023-12-20T14:28:52Z</time>
      </trkpt>
      <trkpt lat="50.03666" lon="2.34671">
        <ele>141.6</ele>
        <time>2023-12-20T14:28:53Z</time>
      </trkpt>
      <trkpt lat="50.03666" lon="2.34673">
        <ele>141.7</ele>
        <time>2023-12-20T14:28:54Z</time>
      </trkpt>
      <trkpt lat="50.03667" lon="2.34675">
        <ele>141.7</ele>
        <time>2023-12-20T14:28:55Z</time>
      </trkpt>
      <trkpt lat="50.03668" lon="2.34678">
        <ele>141.7</ele>
        <time>2023-12-20T14:28:56Z</time>
      </trkpt>
      <trkpt lat="50.03668" lon="2.3468">
        <ele>141.7</ele>
        <time>2023-12-20T14:28:57Z</time>
      </trkpt>
      <trkpt lat="50.03668" lon="2.34681">
        <ele>141.7</ele>
        <time>2023-12-20T14:28:58Z</time>
      </trkpt>
      <trkpt lat="50.03668" lon="2.34682">
        <ele>141.7</ele>
        <time>2023-12-20T14:28:59Z</time>
      </trkpt>
      <trkpt lat="50.03669" lon="2.34683">
        <ele>141.7</ele>
        <time>2023-12-20T14:29:00Z</time>
      </trkpt>
      <trkpt lat="50.03669" lon="2.34685">
        <ele>141.7</ele>
        <time>2023-12-20T14:29:01Z</time>
      </trkpt>
      <trkpt lat="50.0367" lon="2.34688">
        <ele>141.7</ele>
        <time>2023-12-20T14:29:03Z</time>
      </trkpt>
      <trkpt lat="50.0367" lon="2.34689">
        <ele>141.7</ele>
        <time>2023-12-20T14:29:04Z</time>
      </trkpt>
      <trkpt lat="50.0367" lon="2.34691">
        <ele>141.7</ele>
        <time>2023-12-20T14:29:05Z</time>
      </trkpt>
      <trkpt lat="50.03671" lon="2.34693">
        <ele>141.8</ele>
        <time>2023-12-20T14:29:06Z</time>
      </trkpt>
      <trkpt lat="50.03671" lon="2.34695">
        <ele>141.8</ele>
        <time>2023-12-20T14:29:07Z</time>
      </trkpt>
      <trkpt lat="50.03672" lon="2.34698">
        <ele>141.8</ele>
        <time>2023-12-20T14:29:08Z</time>
      </trkpt>
      <trkpt lat="50.03672" lon="2.34699">
        <ele>141.8</ele>
        <time>2023-12-20T14:29:09Z</time>
      </trkpt>
      <trkpt lat="50.03673" lon="2.34701">
        <ele>141.8</ele>
        <time>2023-12-20T14:29:10Z</time>
      </trkpt>
      <trkpt lat="50.03674" lon="2.34704">
        <ele>141.8</ele>
        <time>2023-12-20T14:29:11Z</time>
      </trkpt>
      <trkpt lat="50.03674" lon="2.34705">
        <ele>141.8</ele>
        <time>2023-12-20T14:29:13Z</time>
      </trkpt>
      <trkpt lat="50.03675" lon="2.34706">
        <ele>141.8</ele>
        <time>2023-12-20T14:29:14Z</time>
      </trkpt>
      <trkpt lat="50.03675" lon="2.34709">
        <ele>141.8</ele>
        <time>2023-12-20T14:29:15Z</time>
      </trkpt>
      <trkpt lat="50.03675" lon="2.34711">
        <ele>141.8</ele>
        <time>2023-12-20T14:29:16Z</time>
      </trkpt>
      <trkpt lat="50.03676" lon="2.34712">
        <ele>141.8</ele>
        <time>2023-12-20T14:29:17Z</time>
      </trkpt>
      <trkpt lat="50.03676" lon="2.34714">
        <ele>141.8</ele>
        <time>2023-12-20T14:29:18Z</time>
      </trkpt>
      <trkpt lat="50.03676" lon="2.34715">
        <ele>141.8</ele>
        <time>2023-12-20T14:29:19Z</time>
      </trkpt>
      <trkpt lat="50.03677" lon="2.34717">
        <ele>141.8</ele>
        <time>2023-12-20T14:29:20Z</time>
      </trkpt>
      <trkpt lat="50.03678" lon="2.3472">
        <ele>141.8</ele>
        <time>2023-12-20T14:29:21Z</time>
      </trkpt>
      <trkpt lat="50.03678" lon="2.34721">
        <ele>141.8</ele>
        <time>2023-12-20T14:29:22Z</time>
      </trkpt>
      <trkpt lat="50.03678" lon="2.34722">
        <ele>141.8</ele>
        <time>2023-12-20T14:29:23Z</time>
      </trkpt>
      <trkpt lat="50.03679" lon="2.34724">
        <ele>141.9</ele>
        <time>2023-12-20T14:29:24Z</time>
      </trkpt>
      <trkpt lat="50.03679" lon="2.34726">
        <ele>141.9</ele>
        <time>2023-12-20T14:29:25Z</time>
      </trkpt>
      <trkpt lat="50.0368" lon="2.34728">
        <ele>141.9</ele>
        <time>2023-12-20T14:29:27Z</time>
      </trkpt>
      <trkpt lat="50.03681" lon="2.3473">
        <ele>141.9</ele>
        <time>2023-12-20T14:29:28Z</time>
      </trkpt>
      <trkpt lat="50.03681" lon="2.34733">
        <ele>141.9</ele>
        <time>2023-12-20T14:29:29Z</time>
      </trkpt>
      <trkpt lat="50.03682" lon="2.34734">
        <ele>141.9</ele>
        <time>2023-12-20T14:29:30Z</time>
      </trkpt>
      <trkpt lat="50.03682" lon="2.34736">
        <ele>141.9</ele>
        <time>2023-12-20T14:29:31Z</time>
      </trkpt>
      <trkpt lat="50.03683" lon="2.34738">
        <ele>141.9</ele>
        <time>2023-12-20T14:29:32Z</time>
      </trkpt>
      <trkpt lat="50.03684" lon="2.34743">
        <ele>141.9</ele>
        <time>2023-12-20T14:29:34Z</time>
      </trkpt>
      <trkpt lat="50.03685" lon="2.34745">
        <ele>141.9</ele>
        <time>2023-12-20T14:29:36Z</time>
      </trkpt>
      <trkpt lat="50.03685" lon="2.34746">
        <ele>141.9</ele>
        <time>2023-12-20T14:29:37Z</time>
      </trkpt>
      <trkpt lat="50.03685" lon="2.34748">
        <ele>141.9</ele>
        <time>2023-12-20T14:29:38Z</time>
      </trkpt>
      <trkpt lat="50.03685" lon="2.34749">
        <ele>141.9</ele>
        <time>2023-12-20T14:29:39Z</time>
      </trkpt>
      <trkpt lat="50.03686" lon="2.34751">
        <ele>141.9</ele>
        <time>2023-12-20T14:29:40Z</time>
      </trkpt>
      <trkpt lat="50.03686" lon="2.34753">
        <ele>141.9</ele>
        <time>2023-12-20T14:29:42Z</time>
      </trkpt>
      <trkpt lat="50.03687" lon="2.34755">
        <ele>142</ele>
        <time>2023-12-20T14:29:43Z</time>
      </trkpt>
      <trkpt lat="50.03688" lon="2.34757">
        <ele>142</ele>
        <time>2023-12-20T14:29:44Z</time>
      </trkpt>
      <trkpt lat="50.03689" lon="2.3476">
        <ele>142</ele>
        <time>2023-12-20T14:29:45Z</time>
      </trkpt>
      <trkpt lat="50.03689" lon="2.34761">
        <ele>142</ele>
        <time>2023-12-20T14:29:46Z</time>
      </trkpt>
      <trkpt lat="50.0369" lon="2.34763">
        <ele>142</ele>
        <time>2023-12-20T14:29:47Z</time>
      </trkpt>
      <trkpt lat="50.0369" lon="2.34766">
        <ele>142</ele>
        <time>2023-12-20T14:29:48Z</time>
      </trkpt>
      <trkpt lat="50.03691" lon="2.34767">
        <ele>142</ele>
        <time>2023-12-20T14:29:49Z</time>
      </trkpt>
      <trkpt lat="50.03691" lon="2.34768">
        <ele>142</ele>
        <time>2023-12-20T14:29:50Z</time>
      </trkpt>
      <trkpt lat="50.03691" lon="2.3477">
        <ele>142</ele>
        <time>2023-12-20T14:29:51Z</time>
      </trkpt>
      <trkpt lat="50.03692" lon="2.34772">
        <ele>142</ele>
        <time>2023-12-20T14:29:52Z</time>
      </trkpt>
      <trkpt lat="50.03692" lon="2.34773">
        <ele>142</ele>
        <time>2023-12-20T14:29:54Z</time>
      </trkpt>
      <trkpt lat="50.03692" lon="2.34774">
        <ele>142</ele>
        <time>2023-12-20T14:29:55Z</time>
      </trkpt>
      <trkpt lat="50.03693" lon="2.34776">
        <ele>142</ele>
        <time>2023-12-20T14:29:56Z</time>
      </trkpt>
      <trkpt lat="50.03693" lon="2.34778">
        <ele>142</ele>
        <time>2023-12-20T14:29:57Z</time>
      </trkpt>
      <trkpt lat="50.03693" lon="2.34779">
        <ele>142</ele>
        <time>2023-12-20T14:29:58Z</time>
      </trkpt>
      <trkpt lat="50.03694" lon="2.34781">
        <ele>142</ele>
        <time>2023-12-20T14:30:00Z</time>
      </trkpt>
      <trkpt lat="50.03694" lon="2.34783">
        <ele>142</ele>
        <time>2023-12-20T14:30:01Z</time>
      </trkpt>
      <trkpt lat="50.03695" lon="2.34785">
        <ele>142</ele>
        <time>2023-12-20T14:30:02Z</time>
      </trkpt>
      <trkpt lat="50.03695" lon="2.34787">
        <ele>142</ele>
        <time>2023-12-20T14:30:03Z</time>
      </trkpt>
      <trkpt lat="50.03696" lon="2.34789">
        <ele>142.1</ele>
        <time>2023-12-20T14:30:04Z</time>
      </trkpt>
      <trkpt lat="50.03696" lon="2.34791">
        <ele>142.1</ele>
        <time>2023-12-20T14:30:05Z</time>
      </trkpt>
      <trkpt lat="50.03697" lon="2.34794">
        <ele>142.1</ele>
        <time>2023-12-20T14:30:06Z</time>
      </trkpt>
      <trkpt lat="50.03697" lon="2.34795">
        <ele>142.1</ele>
        <time>2023-12-20T14:30:07Z</time>
      </trkpt>
      <trkpt lat="50.03698" lon="2.34796">
        <ele>142.1</ele>
        <time>2023-12-20T14:30:08Z</time>
      </trkpt>
      <trkpt lat="50.03698" lon="2.34799">
        <ele>142.1</ele>
        <time>2023-12-20T14:30:09Z</time>
      </trkpt>
      <trkpt lat="50.03699" lon="2.34801">
        <ele>142.1</ele>
        <time>2023-12-20T14:30:10Z</time>
      </trkpt>
      <trkpt lat="50.03699" lon="2.34803">
        <ele>142.1</ele>
        <time>2023-12-20T14:30:12Z</time>
      </trkpt>
      <trkpt lat="50.03699" lon="2.34804">
        <ele>142.1</ele>
        <time>2023-12-20T14:30:13Z</time>
      </trkpt>
      <trkpt lat="50.037" lon="2.34806">
        <ele>142.1</ele>
        <time>2023-12-20T14:30:14Z</time>
      </trkpt>
      <trkpt lat="50.037" lon="2.34808">
        <ele>142.1</ele>
        <time>2023-12-20T14:30:15Z</time>
      </trkpt>
      <trkpt lat="50.037" lon="2.3481">
        <ele>142.1</ele>
        <time>2023-12-20T14:30:16Z</time>
      </trkpt>
      <trkpt lat="50.03701" lon="2.34812">
        <ele>142.1</ele>
        <time>2023-12-20T14:30:17Z</time>
      </trkpt>
      <trkpt lat="50.03701" lon="2.34814">
        <ele>142.2</ele>
        <time>2023-12-20T14:30:19Z</time>
      </trkpt>
      <trkpt lat="50.03701" lon="2.34816">
        <ele>142.2</ele>
        <time>2023-12-20T14:30:20Z</time>
      </trkpt>
      <trkpt lat="50.03702" lon="2.34819">
        <ele>142.2</ele>
        <time>2023-12-20T14:30:21Z</time>
      </trkpt>
      <trkpt lat="50.03703" lon="2.3482">
        <ele>142.2</ele>
        <time>2023-12-20T14:30:22Z</time>
      </trkpt>
      <trkpt lat="50.03703" lon="2.34821">
        <ele>142.2</ele>
        <time>2023-12-20T14:30:23Z</time>
      </trkpt>
      <trkpt lat="50.03704" lon="2.34824">
        <ele>142.2</ele>
        <time>2023-12-20T14:30:24Z</time>
      </trkpt>
      <trkpt lat="50.03704" lon="2.34826">
        <ele>142.2</ele>
        <time>2023-12-20T14:30:25Z</time>
      </trkpt>
      <trkpt lat="50.03704" lon="2.34827">
        <ele>142.2</ele>
        <time>2023-12-20T14:30:26Z</time>
      </trkpt>
      <trkpt lat="50.03705" lon="2.34828">
        <ele>142.2</ele>
        <time>2023-12-20T14:30:27Z</time>
      </trkpt>
      <trkpt lat="50.03705" lon="2.3483">
        <ele>142.2</ele>
        <time>2023-12-20T14:30:29Z</time>
      </trkpt>
      <trkpt lat="50.03706" lon="2.34832">
        <ele>142.3</ele>
        <time>2023-12-20T14:30:30Z</time>
      </trkpt>
      <trkpt lat="50.03706" lon="2.34834">
        <ele>142.3</ele>
        <time>2023-12-20T14:30:31Z</time>
      </trkpt>
      <trkpt lat="50.03707" lon="2.34836">
        <ele>142.3</ele>
        <time>2023-12-20T14:30:32Z</time>
      </trkpt>
      <trkpt lat="50.03707" lon="2.34838">
        <ele>142.3</ele>
        <time>2023-12-20T14:30:33Z</time>
      </trkpt>
      <trkpt lat="50.03708" lon="2.3484">
        <ele>142.3</ele>
        <time>2023-12-20T14:30:34Z</time>
      </trkpt>
      <trkpt lat="50.03708" lon="2.34842">
        <ele>142.3</ele>
        <time>2023-12-20T14:30:35Z</time>
      </trkpt>
      <trkpt lat="50.03709" lon="2.34845">
        <ele>142.3</ele>
        <time>2023-12-20T14:30:36Z</time>
      </trkpt>
      <trkpt lat="50.03709" lon="2.34847">
        <ele>142.3</ele>
        <time>2023-12-20T14:30:37Z</time>
      </trkpt>
      <trkpt lat="50.0371" lon="2.34849">
        <ele>142.3</ele>
        <time>2023-12-20T14:30:39Z</time>
      </trkpt>
      <trkpt lat="50.0371" lon="2.34851">
        <ele>142.3</ele>
        <time>2023-12-20T14:30:40Z</time>
      </trkpt>
      <trkpt lat="50.03711" lon="2.34854">
        <ele>142.4</ele>
        <time>2023-12-20T14:30:41Z</time>
      </trkpt>
      <trkpt lat="50.03712" lon="2.34858">
        <ele>142.4</ele>
        <time>2023-12-20T14:30:42Z</time>
      </trkpt>
      <trkpt lat="50.03712" lon="2.34859">
        <ele>142.4</ele>
        <time>2023-12-20T14:30:43Z</time>
      </trkpt>
      <trkpt lat="50.03712" lon="2.34862">
        <ele>142.4</ele>
        <time>2023-12-20T14:30:45Z</time>
      </trkpt>
      <trkpt lat="50.03712" lon="2.34864">
        <ele>142.4</ele>
        <time>2023-12-20T14:30:46Z</time>
      </trkpt>
      <trkpt lat="50.03713" lon="2.34866">
        <ele>142.4</ele>
        <time>2023-12-20T14:30:47Z</time>
      </trkpt>
      <trkpt lat="50.03713" lon="2.34868">
        <ele>142.4</ele>
        <time>2023-12-20T14:30:48Z</time>
      </trkpt>
      <trkpt lat="50.03713" lon="2.34872">
        <ele>142.4</ele>
        <time>2023-12-20T14:30:49Z</time>
      </trkpt>
      <trkpt lat="50.03713" lon="2.34873">
        <ele>142.4</ele>
        <time>2023-12-20T14:30:51Z</time>
      </trkpt>
      <trkpt lat="50.03714" lon="2.34875">
        <ele>142.4</ele>
        <time>2023-12-20T14:30:52Z</time>
      </trkpt>
      <trkpt lat="50.03714" lon="2.34877">
        <ele>142.5</ele>
        <time>2023-12-20T14:30:53Z</time>
      </trkpt>
      <trkpt lat="50.03714" lon="2.34879">
        <ele>142.5</ele>
        <time>2023-12-20T14:30:54Z</time>
      </trkpt>
      <trkpt lat="50.03715" lon="2.34882">
        <ele>142.5</ele>
        <time>2023-12-20T14:30:55Z</time>
      </trkpt>
      <trkpt lat="50.03715" lon="2.34884">
        <ele>142.5</ele>
        <time>2023-12-20T14:30:56Z</time>
      </trkpt>
      <trkpt lat="50.03715" lon="2.34885">
        <ele>142.5</ele>
        <time>2023-12-20T14:30:57Z</time>
      </trkpt>
      <trkpt lat="50.03716" lon="2.34889">
        <ele>142.5</ele>
        <time>2023-12-20T14:30:59Z</time>
      </trkpt>
      <trkpt lat="50.03716" lon="2.34891">
        <ele>142.5</ele>
        <time>2023-12-20T14:31:01Z</time>
      </trkpt>
      <trkpt lat="50.03717" lon="2.34894">
        <ele>142.6</ele>
        <time>2023-12-20T14:31:02Z</time>
      </trkpt>
      <trkpt lat="50.03717" lon="2.34895">
        <ele>142.6</ele>
        <time>2023-12-20T14:31:03Z</time>
      </trkpt>
      <trkpt lat="50.03717" lon="2.34896">
        <ele>142.6</ele>
        <time>2023-12-20T14:31:04Z</time>
      </trkpt>
      <trkpt lat="50.03718" lon="2.34897">
        <ele>142.6</ele>
        <time>2023-12-20T14:31:05Z</time>
      </trkpt>
      <trkpt lat="50.03719" lon="2.349">
        <ele>142.6</ele>
        <time>2023-12-20T14:31:07Z</time>
      </trkpt>
      <trkpt lat="50.03719" lon="2.34902">
        <ele>142.6</ele>
        <time>2023-12-20T14:31:08Z</time>
      </trkpt>
      <trkpt lat="50.03719" lon="2.34903">
        <ele>142.6</ele>
        <time>2023-12-20T14:31:09Z</time>
      </trkpt>
      <trkpt lat="50.0372" lon="2.34905">
        <ele>142.6</ele>
        <time>2023-12-20T14:31:10Z</time>
      </trkpt>
      <trkpt lat="50.0372" lon="2.34907">
        <ele>142.6</ele>
        <time>2023-12-20T14:31:12Z</time>
      </trkpt>
      <trkpt lat="50.0372" lon="2.34908">
        <ele>142.6</ele>
        <time>2023-12-20T14:31:13Z</time>
      </trkpt>
      <trkpt lat="50.0372" lon="2.34911">
        <ele>142.6</ele>
        <time>2023-12-20T14:31:14Z</time>
      </trkpt>
      <trkpt lat="50.03721" lon="2.34914">
        <ele>142.6</ele>
        <time>2023-12-20T14:31:15Z</time>
      </trkpt>
      <trkpt lat="50.03721" lon="2.34915">
        <ele>142.6</ele>
        <time>2023-12-20T14:31:16Z</time>
      </trkpt>
      <trkpt lat="50.03722" lon="2.34917">
        <ele>142.6</ele>
        <time>2023-12-20T14:31:17Z</time>
      </trkpt>
      <trkpt lat="50.03722" lon="2.34918">
        <ele>142.6</ele>
        <time>2023-12-20T14:31:19Z</time>
      </trkpt>
      <trkpt lat="50.03723" lon="2.3492">
        <ele>142.6</ele>
        <time>2023-12-20T14:31:20Z</time>
      </trkpt>
      <trkpt lat="50.03723" lon="2.34921">
        <ele>142.6</ele>
        <time>2023-12-20T14:31:21Z</time>
      </trkpt>
      <trkpt lat="50.03724" lon="2.34925">
        <ele>142.6</ele>
        <time>2023-12-20T14:31:22Z</time>
      </trkpt>
      <trkpt lat="50.03724" lon="2.34926">
        <ele>142.6</ele>
        <time>2023-12-20T14:31:23Z</time>
      </trkpt>
      <trkpt lat="50.03724" lon="2.34927">
        <ele>142.6</ele>
        <time>2023-12-20T14:31:24Z</time>
      </trkpt>
      <trkpt lat="50.03724" lon="2.3493">
        <ele>142.6</ele>
        <time>2023-12-20T14:31:25Z</time>
      </trkpt>
      <trkpt lat="50.03725" lon="2.34932">
        <ele>142.6</ele>
        <time>2023-12-20T14:31:26Z</time>
      </trkpt>
      <trkpt lat="50.03725" lon="2.34934">
        <ele>142.6</ele>
        <time>2023-12-20T14:31:27Z</time>
      </trkpt>
      <trkpt lat="50.03725" lon="2.34936">
        <ele>142.6</ele>
        <time>2023-12-20T14:31:28Z</time>
      </trkpt>
      <trkpt lat="50.03726" lon="2.34937">
        <ele>142.6</ele>
        <time>2023-12-20T14:31:30Z</time>
      </trkpt>
      <trkpt lat="50.03726" lon="2.3494">
        <ele>142.6</ele>
        <time>2023-12-20T14:31:31Z</time>
      </trkpt>
      <trkpt lat="50.03727" lon="2.34942">
        <ele>142.6</ele>
        <time>2023-12-20T14:31:32Z</time>
      </trkpt>
      <trkpt lat="50.03727" lon="2.34944">
        <ele>142.6</ele>
        <time>2023-12-20T14:31:33Z</time>
      </trkpt>
      <trkpt lat="50.03728" lon="2.34946">
        <ele>142.6</ele>
        <time>2023-12-20T14:31:34Z</time>
      </trkpt>
      <trkpt lat="50.03728" lon="2.34948">
        <ele>142.6</ele>
        <time>2023-12-20T14:31:36Z</time>
      </trkpt>
      <trkpt lat="50.03728" lon="2.3495">
        <ele>142.6</ele>
        <time>2023-12-20T14:31:37Z</time>
      </trkpt>
      <trkpt lat="50.03729" lon="2.34953">
        <ele>142.6</ele>
        <time>2023-12-20T14:31:38Z</time>
      </trkpt>
      <trkpt lat="50.03729" lon="2.34954">
        <ele>142.6</ele>
        <time>2023-12-20T14:31:39Z</time>
      </trkpt>
      <trkpt lat="50.03731" lon="2.34957">
        <ele>142.6</ele>
        <time>2023-12-20T14:31:40Z</time>
      </trkpt>
      <trkpt lat="50.03731" lon="2.34958">
        <ele>142.6</ele>
        <time>2023-12-20T14:31:41Z</time>
      </trkpt>
      <trkpt lat="50.03732" lon="2.34959">
        <ele>142.6</ele>
        <time>2023-12-20T14:31:42Z</time>
      </trkpt>
      <trkpt lat="50.03733" lon="2.34961">
        <ele>142.6</ele>
        <time>2023-12-20T14:31:43Z</time>
      </trkpt>
      <trkpt lat="50.03734" lon="2.34962">
        <ele>142.6</ele>
        <time>2023-12-20T14:31:44Z</time>
      </trkpt>
      <trkpt lat="50.03735" lon="2.34962">
        <ele>142.6</ele>
        <time>2023-12-20T14:31:45Z</time>
      </trkpt>
      <trkpt lat="50.03737" lon="2.34964">
        <ele>142.6</ele>
        <time>2023-12-20T14:31:46Z</time>
      </trkpt>
      <trkpt lat="50.03737" lon="2.34965">
        <ele>142.6</ele>
        <time>2023-12-20T14:31:47Z</time>
      </trkpt>
      <trkpt lat="50.03738" lon="2.34965">
        <ele>142.6</ele>
        <time>2023-12-20T14:31:48Z</time>
      </trkpt>
      <trkpt lat="50.03739" lon="2.34966">
        <ele>142.6</ele>
        <time>2023-12-20T14:31:49Z</time>
      </trkpt>
      <trkpt lat="50.0374" lon="2.34967">
        <ele>142.6</ele>
        <time>2023-12-20T14:31:51Z</time>
      </trkpt>
      <trkpt lat="50.03742" lon="2.34968">
        <ele>142.6</ele>
        <time>2023-12-20T14:31:52Z</time>
      </trkpt>
      <trkpt lat="50.03743" lon="2.34969">
        <ele>142.6</ele>
        <time>2023-12-20T14:31:53Z</time>
      </trkpt>
      <trkpt lat="50.03744" lon="2.34969">
        <ele>142.6</ele>
        <time>2023-12-20T14:31:54Z</time>
      </trkpt>
      <trkpt lat="50.03745" lon="2.34969">
        <ele>142.6</ele>
        <time>2023-12-20T14:31:56Z</time>
      </trkpt>
      <trkpt lat="50.03747" lon="2.3497">
        <ele>142.6</ele>
        <time>2023-12-20T14:31:58Z</time>
      </trkpt>
      <trkpt lat="50.03747" lon="2.3497">
        <ele>142.6</ele>
        <time>2023-12-20T14:31:59Z</time>
      </trkpt>
      <trkpt lat="50.03748" lon="2.34971">
        <ele>142.6</ele>
        <time>2023-12-20T14:32:00Z</time>
      </trkpt>
      <trkpt lat="50.0375" lon="2.34972">
        <ele>142.6</ele>
        <time>2023-12-20T14:32:02Z</time>
      </trkpt>
      <trkpt lat="50.03751" lon="2.34973">
        <ele>142.6</ele>
        <time>2023-12-20T14:32:03Z</time>
      </trkpt>
      <trkpt lat="50.0375" lon="2.34974">
        <ele>142.6</ele>
        <time>2023-12-20T14:32:05Z</time>
      </trkpt>
      <trkpt lat="50.0375" lon="2.34975">
        <ele>142.6</ele>
        <time>2023-12-20T14:32:08Z</time>
      </trkpt>
      <trkpt lat="50.0375" lon="2.34974">
        <ele>142.6</ele>
        <time>2023-12-20T14:32:09Z</time>
      </trkpt>
      <trkpt lat="50.03749" lon="2.34974">
        <ele>142.6</ele>
        <time>2023-12-20T14:32:11Z</time>
      </trkpt>
      <trkpt lat="50.03749" lon="2.34975">
        <ele>142.6</ele>
        <time>2023-12-20T14:32:13Z</time>
      </trkpt>
      <trkpt lat="50.03749" lon="2.34975">
        <ele>142.6</ele>
        <time>2023-12-20T14:32:14Z</time>
      </trkpt>
      <trkpt lat="50.03749" lon="2.34975">
        <ele>142.6</ele>
        <time>2023-12-20T14:32:16Z</time>
      </trkpt>
      <trkpt lat="50.03749" lon="2.34975">
        <ele>142.6</ele>
        <time>2023-12-20T14:32:19Z</time>
      </trkpt>
      <trkpt lat="50.03749" lon="2.34974">
        <ele>142.6</ele>
        <time>2023-12-20T14:32:20Z</time>
      </trkpt>
      <trkpt lat="50.03749" lon="2.34974">
        <ele>142.6</ele>
        <time>2023-12-20T14:32:21Z</time>
      </trkpt>
      <trkpt lat="50.03749" lon="2.34974">
        <ele>142.6</ele>
        <time>2023-12-20T14:32:23Z</time>
      </trkpt>
      <trkpt lat="50.03753" lon="2.34969">
        <ele>142.7</ele>
        <time>2023-12-20T14:32:33Z</time>
      </trkpt>
      <trkpt lat="50.03754" lon="2.34967">
        <ele>142.8</ele>
        <time>2023-12-20T14:32:34Z</time>
      </trkpt>
      <trkpt lat="50.03755" lon="2.34966">
        <ele>142.8</ele>
        <time>2023-12-20T14:32:35Z</time>
      </trkpt>
      <trkpt lat="50.03756" lon="2.34965">
        <ele>142.8</ele>
        <time>2023-12-20T14:32:37Z</time>
      </trkpt>
      <trkpt lat="50.03757" lon="2.34964">
        <ele>142.8</ele>
        <time>2023-12-20T14:32:38Z</time>
      </trkpt>
      <trkpt lat="50.03758" lon="2.34963">
        <ele>142.8</ele>
        <time>2023-12-20T14:32:39Z</time>
      </trkpt>
      <trkpt lat="50.03759" lon="2.34962">
        <ele>142.9</ele>
        <time>2023-12-20T14:32:40Z</time>
      </trkpt>
      <trkpt lat="50.0376" lon="2.3496">
        <ele>142.9</ele>
        <time>2023-12-20T14:32:41Z</time>
      </trkpt>
      <trkpt lat="50.03761" lon="2.34959">
        <ele>142.9</ele>
        <time>2023-12-20T14:32:42Z</time>
      </trkpt>
      <trkpt lat="50.03763" lon="2.34957">
        <ele>142.9</ele>
        <time>2023-12-20T14:32:43Z</time>
      </trkpt>
      <trkpt lat="50.03764" lon="2.34956">
        <ele>143</ele>
        <time>2023-12-20T14:32:44Z</time>
      </trkpt>
      <trkpt lat="50.03765" lon="2.34955">
        <ele>143</ele>
        <time>2023-12-20T14:32:45Z</time>
      </trkpt>
      <trkpt lat="50.03766" lon="2.34955">
        <ele>143</ele>
        <time>2023-12-20T14:32:46Z</time>
      </trkpt>
      <trkpt lat="50.03768" lon="2.34953">
        <ele>143</ele>
        <time>2023-12-20T14:32:48Z</time>
      </trkpt>
      <trkpt lat="50.03768" lon="2.34952">
        <ele>143</ele>
        <time>2023-12-20T14:32:49Z</time>
      </trkpt>
      <trkpt lat="50.03769" lon="2.34951">
        <ele>143</ele>
        <time>2023-12-20T14:32:50Z</time>
      </trkpt>
      <trkpt lat="50.03771" lon="2.3495">
        <ele>143</ele>
        <time>2023-12-20T14:32:51Z</time>
      </trkpt>
      <trkpt lat="50.03772" lon="2.34949">
        <ele>143</ele>
        <time>2023-12-20T14:32:52Z</time>
      </trkpt>
      <trkpt lat="50.03774" lon="2.34947">
        <ele>143</ele>
        <time>2023-12-20T14:32:54Z</time>
      </trkpt>
      <trkpt lat="50.03774" lon="2.34946">
        <ele>143</ele>
        <time>2023-12-20T14:32:55Z</time>
      </trkpt>
      <trkpt lat="50.03775" lon="2.34946">
        <ele>143</ele>
        <time>2023-12-20T14:32:56Z</time>
      </trkpt>
      <trkpt lat="50.03776" lon="2.34945">
        <ele>143</ele>
        <time>2023-12-20T14:32:57Z</time>
      </trkpt>
      <trkpt lat="50.03777" lon="2.34943">
        <ele>143</ele>
        <time>2023-12-20T14:32:58Z</time>
      </trkpt>
      <trkpt lat="50.03778" lon="2.34942">
        <ele>143</ele>
        <time>2023-12-20T14:32:59Z</time>
      </trkpt>
      <trkpt lat="50.0378" lon="2.34941">
        <ele>143</ele>
        <time>2023-12-20T14:33:00Z</time>
      </trkpt>
      <trkpt lat="50.0378" lon="2.3494">
        <ele>143</ele>
        <time>2023-12-20T14:33:01Z</time>
      </trkpt>
      <trkpt lat="50.03781" lon="2.34939">
        <ele>143</ele>
        <time>2023-12-20T14:33:02Z</time>
      </trkpt>
      <trkpt lat="50.03783" lon="2.34937">
        <ele>143</ele>
        <time>2023-12-20T14:33:04Z</time>
      </trkpt>
      <trkpt lat="50.03784" lon="2.34937">
        <ele>143</ele>
        <time>2023-12-20T14:33:05Z</time>
      </trkpt>
      <trkpt lat="50.03784" lon="2.34936">
        <ele>143</ele>
        <time>2023-12-20T14:33:06Z</time>
      </trkpt>
      <trkpt lat="50.03785" lon="2.34935">
        <ele>143</ele>
        <time>2023-12-20T14:33:07Z</time>
      </trkpt>
      <trkpt lat="50.03786" lon="2.34934">
        <ele>143</ele>
        <time>2023-12-20T14:33:08Z</time>
      </trkpt>
      <trkpt lat="50.03787" lon="2.34933">
        <ele>143</ele>
        <time>2023-12-20T14:33:09Z</time>
      </trkpt>
      <trkpt lat="50.03789" lon="2.34931">
        <ele>142.9</ele>
        <time>2023-12-20T14:33:10Z</time>
      </trkpt>
      <trkpt lat="50.0379" lon="2.34931">
        <ele>142.9</ele>
        <time>2023-12-20T14:33:11Z</time>
      </trkpt>
      <trkpt lat="50.0379" lon="2.3493">
        <ele>142.9</ele>
        <time>2023-12-20T14:33:12Z</time>
      </trkpt>
      <trkpt lat="50.03791" lon="2.34929">
        <ele>142.9</ele>
        <time>2023-12-20T14:33:13Z</time>
      </trkpt>
      <trkpt lat="50.03793" lon="2.34927">
        <ele>142.9</ele>
        <time>2023-12-20T14:33:15Z</time>
      </trkpt>
      <trkpt lat="50.03794" lon="2.34926">
        <ele>142.9</ele>
        <time>2023-12-20T14:33:16Z</time>
      </trkpt>
      <trkpt lat="50.03795" lon="2.34925">
        <ele>142.9</ele>
        <time>2023-12-20T14:33:17Z</time>
      </trkpt>
      <trkpt lat="50.03797" lon="2.34924">
        <ele>142.8</ele>
        <time>2023-12-20T14:33:19Z</time>
      </trkpt>
      <trkpt lat="50.03798" lon="2.34923">
        <ele>142.8</ele>
        <time>2023-12-20T14:33:20Z</time>
      </trkpt>
      <trkpt lat="50.03799" lon="2.34922">
        <ele>142.8</ele>
        <time>2023-12-20T14:33:21Z</time>
      </trkpt>
      <trkpt lat="50.038" lon="2.34922">
        <ele>142.8</ele>
        <time>2023-12-20T14:33:22Z</time>
      </trkpt>
      <trkpt lat="50.03802" lon="2.3492">
        <ele>142.8</ele>
        <time>2023-12-20T14:33:23Z</time>
      </trkpt>
      <trkpt lat="50.03802" lon="2.34919">
        <ele>142.7</ele>
        <time>2023-12-20T14:33:24Z</time>
      </trkpt>
      <trkpt lat="50.03803" lon="2.34918">
        <ele>142.7</ele>
        <time>2023-12-20T14:33:25Z</time>
      </trkpt>
      <trkpt lat="50.03805" lon="2.34917">
        <ele>142.7</ele>
        <time>2023-12-20T14:33:27Z</time>
      </trkpt>
      <trkpt lat="50.03806" lon="2.34916">
        <ele>142.7</ele>
        <time>2023-12-20T14:33:28Z</time>
      </trkpt>
      <trkpt lat="50.03806" lon="2.34915">
        <ele>142.7</ele>
        <time>2023-12-20T14:33:29Z</time>
      </trkpt>
      <trkpt lat="50.03808" lon="2.34915">
        <ele>142.7</ele>
        <time>2023-12-20T14:33:30Z</time>
      </trkpt>
      <trkpt lat="50.03809" lon="2.34914">
        <ele>142.6</ele>
        <time>2023-12-20T14:33:31Z</time>
      </trkpt>
      <trkpt lat="50.03809" lon="2.34913">
        <ele>142.6</ele>
        <time>2023-12-20T14:33:32Z</time>
      </trkpt>
      <trkpt lat="50.03811" lon="2.34911">
        <ele>142.6</ele>
        <time>2023-12-20T14:33:33Z</time>
      </trkpt>
      <trkpt lat="50.03812" lon="2.3491">
        <ele>142.6</ele>
        <time>2023-12-20T14:33:34Z</time>
      </trkpt>
      <trkpt lat="50.03813" lon="2.3491">
        <ele>142.6</ele>
        <time>2023-12-20T14:33:35Z</time>
      </trkpt>
      <trkpt lat="50.03814" lon="2.34908">
        <ele>142.5</ele>
        <time>2023-12-20T14:33:37Z</time>
      </trkpt>
      <trkpt lat="50.03815" lon="2.34907">
        <ele>142.5</ele>
        <time>2023-12-20T14:33:38Z</time>
      </trkpt>
      <trkpt lat="50.03816" lon="2.34906">
        <ele>142.5</ele>
        <time>2023-12-20T14:33:39Z</time>
      </trkpt>
      <trkpt lat="50.03818" lon="2.34904">
        <ele>142.5</ele>
        <time>2023-12-20T14:33:40Z</time>
      </trkpt>
      <trkpt lat="50.03819" lon="2.34904">
        <ele>142.5</ele>
        <time>2023-12-20T14:33:42Z</time>
      </trkpt>
      <trkpt lat="50.0382" lon="2.34903">
        <ele>142.5</ele>
        <time>2023-12-20T14:33:43Z</time>
      </trkpt>
      <trkpt lat="50.03821" lon="2.34902">
        <ele>142.5</ele>
        <time>2023-12-20T14:33:44Z</time>
      </trkpt>
      <trkpt lat="50.03822" lon="2.34901">
        <ele>142.5</ele>
        <time>2023-12-20T14:33:45Z</time>
      </trkpt>
      <trkpt lat="50.03823" lon="2.34899">
        <ele>142.5</ele>
        <time>2023-12-20T14:33:47Z</time>
      </trkpt>
      <trkpt lat="50.03824" lon="2.34898">
        <ele>142.4</ele>
        <time>2023-12-20T14:33:48Z</time>
      </trkpt>
      <trkpt lat="50.03826" lon="2.34895">
        <ele>142.4</ele>
        <time>2023-12-20T14:33:49Z</time>
      </trkpt>
      <trkpt lat="50.03827" lon="2.34895">
        <ele>142.4</ele>
        <time>2023-12-20T14:33:50Z</time>
      </trkpt>
      <trkpt lat="50.03828" lon="2.34894">
        <ele>142.4</ele>
        <time>2023-12-20T14:33:52Z</time>
      </trkpt>
      <trkpt lat="50.03828" lon="2.34893">
        <ele>142.4</ele>
        <time>2023-12-20T14:33:53Z</time>
      </trkpt>
      <trkpt lat="50.03829" lon="2.34892">
        <ele>142.4</ele>
        <time>2023-12-20T14:33:54Z</time>
      </trkpt>
      <trkpt lat="50.0383" lon="2.34891">
        <ele>142.4</ele>
        <time>2023-12-20T14:33:55Z</time>
      </trkpt>
      <trkpt lat="50.03832" lon="2.34889">
        <ele>142.4</ele>
        <time>2023-12-20T14:33:56Z</time>
      </trkpt>
      <trkpt lat="50.03832" lon="2.34888">
        <ele>142.4</ele>
        <time>2023-12-20T14:33:57Z</time>
      </trkpt>
      <trkpt lat="50.03833" lon="2.34888">
        <ele>142.4</ele>
        <time>2023-12-20T14:33:58Z</time>
      </trkpt>
      <trkpt lat="50.03834" lon="2.34887">
        <ele>142.4</ele>
        <time>2023-12-20T14:33:59Z</time>
      </trkpt>
      <trkpt lat="50.03835" lon="2.34886">
        <ele>142.4</ele>
        <time>2023-12-20T14:34:00Z</time>
      </trkpt>
      <trkpt lat="50.03836" lon="2.34885">
        <ele>142.4</ele>
        <time>2023-12-20T14:34:02Z</time>
      </trkpt>
      <trkpt lat="50.03837" lon="2.34883">
        <ele>142.5</ele>
        <time>2023-12-20T14:34:03Z</time>
      </trkpt>
      <trkpt lat="50.03838" lon="2.34883">
        <ele>142.5</ele>
        <time>2023-12-20T14:34:04Z</time>
      </trkpt>
      <trkpt lat="50.0384" lon="2.34881">
        <ele>142.5</ele>
        <time>2023-12-20T14:34:05Z</time>
      </trkpt>
      <trkpt lat="50.03841" lon="2.3488">
        <ele>142.5</ele>
        <time>2023-12-20T14:34:07Z</time>
      </trkpt>
      <trkpt lat="50.03842" lon="2.3488">
        <ele>142.5</ele>
        <time>2023-12-20T14:34:08Z</time>
      </trkpt>
      <trkpt lat="50.03843" lon="2.34878">
        <ele>142.5</ele>
        <time>2023-12-20T14:34:09Z</time>
      </trkpt>
      <trkpt lat="50.03844" lon="2.34877">
        <ele>142.5</ele>
        <time>2023-12-20T14:34:10Z</time>
      </trkpt>
      <trkpt lat="50.03845" lon="2.34877">
        <ele>142.5</ele>
        <time>2023-12-20T14:34:11Z</time>
      </trkpt>
      <trkpt lat="50.03846" lon="2.34875">
        <ele>142.5</ele>
        <time>2023-12-20T14:34:12Z</time>
      </trkpt>
      <trkpt lat="50.03847" lon="2.34874">
        <ele>142.5</ele>
        <time>2023-12-20T14:34:13Z</time>
      </trkpt>
      <trkpt lat="50.03848" lon="2.34874">
        <ele>142.5</ele>
        <time>2023-12-20T14:34:14Z</time>
      </trkpt>
      <trkpt lat="50.0385" lon="2.34872">
        <ele>142.5</ele>
        <time>2023-12-20T14:34:15Z</time>
      </trkpt>
      <trkpt lat="50.0385" lon="2.34871">
        <ele>142.5</ele>
        <time>2023-12-20T14:34:17Z</time>
      </trkpt>
      <trkpt lat="50.03851" lon="2.34871">
        <ele>142.5</ele>
        <time>2023-12-20T14:34:18Z</time>
      </trkpt>
      <trkpt lat="50.03853" lon="2.34869">
        <ele>142.6</ele>
        <time>2023-12-20T14:34:19Z</time>
      </trkpt>
      <trkpt lat="50.03854" lon="2.34868">
        <ele>142.6</ele>
        <time>2023-12-20T14:34:20Z</time>
      </trkpt>
      <trkpt lat="50.03854" lon="2.34867">
        <ele>142.6</ele>
        <time>2023-12-20T14:34:21Z</time>
      </trkpt>
      <trkpt lat="50.03856" lon="2.34866">
        <ele>142.6</ele>
        <time>2023-12-20T14:34:22Z</time>
      </trkpt>
      <trkpt lat="50.03856" lon="2.34865">
        <ele>142.6</ele>
        <time>2023-12-20T14:34:23Z</time>
      </trkpt>
      <trkpt lat="50.03857" lon="2.34864">
        <ele>142.6</ele>
        <time>2023-12-20T14:34:24Z</time>
      </trkpt>
      <trkpt lat="50.03858" lon="2.34863">
        <ele>142.6</ele>
        <time>2023-12-20T14:34:26Z</time>
      </trkpt>
      <trkpt lat="50.03859" lon="2.34861">
        <ele>142.6</ele>
        <time>2023-12-20T14:34:27Z</time>
      </trkpt>
      <trkpt lat="50.03861" lon="2.34859">
        <ele>142.6</ele>
        <time>2023-12-20T14:34:28Z</time>
      </trkpt>
      <trkpt lat="50.03861" lon="2.34859">
        <ele>142.6</ele>
        <time>2023-12-20T14:34:29Z</time>
      </trkpt>
      <trkpt lat="50.03862" lon="2.34858">
        <ele>142.6</ele>
        <time>2023-12-20T14:34:30Z</time>
      </trkpt>
      <trkpt lat="50.03863" lon="2.34857">
        <ele>142.6</ele>
        <time>2023-12-20T14:34:31Z</time>
      </trkpt>
      <trkpt lat="50.03864" lon="2.34856">
        <ele>142.6</ele>
        <time>2023-12-20T14:34:32Z</time>
      </trkpt>
      <trkpt lat="50.03865" lon="2.34855">
        <ele>142.6</ele>
        <time>2023-12-20T14:34:33Z</time>
      </trkpt>
      <trkpt lat="50.03867" lon="2.34852">
        <ele>142.6</ele>
        <time>2023-12-20T14:34:35Z</time>
      </trkpt>
      <trkpt lat="50.03867" lon="2.34852">
        <ele>142.6</ele>
        <time>2023-12-20T14:34:36Z</time>
      </trkpt>
      <trkpt lat="50.03868" lon="2.34851">
        <ele>142.6</ele>
        <time>2023-12-20T14:34:37Z</time>
      </trkpt>
      <trkpt lat="50.03869" lon="2.3485">
        <ele>142.6</ele>
        <time>2023-12-20T14:34:38Z</time>
      </trkpt>
      <trkpt lat="50.03869" lon="2.34849">
        <ele>142.6</ele>
        <time>2023-12-20T14:34:39Z</time>
      </trkpt>
      <trkpt lat="50.0387" lon="2.34848">
        <ele>142.6</ele>
        <time>2023-12-20T14:34:40Z</time>
      </trkpt>
      <trkpt lat="50.03871" lon="2.34847">
        <ele>142.6</ele>
        <time>2023-12-20T14:34:41Z</time>
      </trkpt>
      <trkpt lat="50.03872" lon="2.34845">
        <ele>142.6</ele>
        <time>2023-12-20T14:34:42Z</time>
      </trkpt>
      <trkpt lat="50.03873" lon="2.34844">
        <ele>142.7</ele>
        <time>2023-12-20T14:34:44Z</time>
      </trkpt>
      <trkpt lat="50.03874" lon="2.34842">
        <ele>142.7</ele>
        <time>2023-12-20T14:34:45Z</time>
      </trkpt>
      <trkpt lat="50.03875" lon="2.34841">
        <ele>142.7</ele>
        <time>2023-12-20T14:34:46Z</time>
      </trkpt>
      <trkpt lat="50.03876" lon="2.3484">
        <ele>142.7</ele>
        <time>2023-12-20T14:34:47Z</time>
      </trkpt>
      <trkpt lat="50.03877" lon="2.34839">
        <ele>142.7</ele>
        <time>2023-12-20T14:34:48Z</time>
      </trkpt>
      <trkpt lat="50.03878" lon="2.34838">
        <ele>142.7</ele>
        <time>2023-12-20T14:34:49Z</time>
      </trkpt>
      <trkpt lat="50.03879" lon="2.34837">
        <ele>142.7</ele>
        <time>2023-12-20T14:34:50Z</time>
      </trkpt>
      <trkpt lat="50.0388" lon="2.34836">
        <ele>142.7</ele>
        <time>2023-12-20T14:34:51Z</time>
      </trkpt>
      <trkpt lat="50.03881" lon="2.34835">
        <ele>142.7</ele>
        <time>2023-12-20T14:34:53Z</time>
      </trkpt>
      <trkpt lat="50.03884" lon="2.34834">
        <ele>142.7</ele>
        <time>2023-12-20T14:34:54Z</time>
      </trkpt>
      <trkpt lat="50.03884" lon="2.34833">
        <ele>142.8</ele>
        <time>2023-12-20T14:34:55Z</time>
      </trkpt>
      <trkpt lat="50.03885" lon="2.34833">
        <ele>142.8</ele>
        <time>2023-12-20T14:34:56Z</time>
      </trkpt>
      <trkpt lat="50.03887" lon="2.34831">
        <ele>142.8</ele>
        <time>2023-12-20T14:34:57Z</time>
      </trkpt>
      <trkpt lat="50.03888" lon="2.34831">
        <ele>142.8</ele>
        <time>2023-12-20T14:34:58Z</time>
      </trkpt>
      <trkpt lat="50.03888" lon="2.3483">
        <ele>142.8</ele>
        <time>2023-12-20T14:34:59Z</time>
      </trkpt>
      <trkpt lat="50.0389" lon="2.34828">
        <ele>142.8</ele>
        <time>2023-12-20T14:35:00Z</time>
      </trkpt>
      <trkpt lat="50.03891" lon="2.34828">
        <ele>142.8</ele>
        <time>2023-12-20T14:35:02Z</time>
      </trkpt>
      <trkpt lat="50.03892" lon="2.34827">
        <ele>142.8</ele>
        <time>2023-12-20T14:35:03Z</time>
      </trkpt>
      <trkpt lat="50.03893" lon="2.34825">
        <ele>142.9</ele>
        <time>2023-12-20T14:35:04Z</time>
      </trkpt>
      <trkpt lat="50.03894" lon="2.34824">
        <ele>142.9</ele>
        <time>2023-12-20T14:35:05Z</time>
      </trkpt>
      <trkpt lat="50.03895" lon="2.34823">
        <ele>142.9</ele>
        <time>2023-12-20T14:35:06Z</time>
      </trkpt>
      <trkpt lat="50.03896" lon="2.34821">
        <ele>142.9</ele>
        <time>2023-12-20T14:35:07Z</time>
      </trkpt>
      <trkpt lat="50.03897" lon="2.3482">
        <ele>142.9</ele>
        <time>2023-12-20T14:35:08Z</time>
      </trkpt>
      <trkpt lat="50.03897" lon="2.3482">
        <ele>142.9</ele>
        <time>2023-12-20T14:35:09Z</time>
      </trkpt>
      <trkpt lat="50.03899" lon="2.34818">
        <ele>142.9</ele>
        <time>2023-12-20T14:35:10Z</time>
      </trkpt>
      <trkpt lat="50.039" lon="2.34817">
        <ele>142.9</ele>
        <time>2023-12-20T14:35:12Z</time>
      </trkpt>
      <trkpt lat="50.039" lon="2.34816">
        <ele>142.9</ele>
        <time>2023-12-20T14:35:13Z</time>
      </trkpt>
      <trkpt lat="50.03902" lon="2.34814">
        <ele>142.9</ele>
        <time>2023-12-20T14:35:14Z</time>
      </trkpt>
      <trkpt lat="50.03903" lon="2.34814">
        <ele>142.9</ele>
        <time>2023-12-20T14:35:15Z</time>
      </trkpt>
      <trkpt lat="50.03904" lon="2.34813">
        <ele>142.9</ele>
        <time>2023-12-20T14:35:16Z</time>
      </trkpt>
      <trkpt lat="50.03905" lon="2.34811">
        <ele>142.9</ele>
        <time>2023-12-20T14:35:17Z</time>
      </trkpt>
      <trkpt lat="50.03906" lon="2.3481">
        <ele>142.9</ele>
        <time>2023-12-20T14:35:18Z</time>
      </trkpt>
      <trkpt lat="50.03907" lon="2.3481">
        <ele>142.9</ele>
        <time>2023-12-20T14:35:19Z</time>
      </trkpt>
      <trkpt lat="50.03908" lon="2.34808">
        <ele>142.9</ele>
        <time>2023-12-20T14:35:21Z</time>
      </trkpt>
      <trkpt lat="50.03909" lon="2.34807">
        <ele>142.9</ele>
        <time>2023-12-20T14:35:22Z</time>
      </trkpt>
      <trkpt lat="50.03911" lon="2.34806">
        <ele>142.9</ele>
        <time>2023-12-20T14:35:23Z</time>
      </trkpt>
      <trkpt lat="50.03912" lon="2.34805">
        <ele>142.9</ele>
        <time>2023-12-20T14:35:24Z</time>
      </trkpt>
      <trkpt lat="50.03912" lon="2.34804">
        <ele>142.9</ele>
        <time>2023-12-20T14:35:25Z</time>
      </trkpt>
      <trkpt lat="50.03914" lon="2.34802">
        <ele>142.9</ele>
        <time>2023-12-20T14:35:26Z</time>
      </trkpt>
      <trkpt lat="50.03915" lon="2.34802">
        <ele>142.9</ele>
        <time>2023-12-20T14:35:27Z</time>
      </trkpt>
      <trkpt lat="50.03916" lon="2.34801">
        <ele>142.9</ele>
        <time>2023-12-20T14:35:28Z</time>
      </trkpt>
      <trkpt lat="50.03917" lon="2.348">
        <ele>142.9</ele>
        <time>2023-12-20T14:35:29Z</time>
      </trkpt>
      <trkpt lat="50.03918" lon="2.34799">
        <ele>142.9</ele>
        <time>2023-12-20T14:35:31Z</time>
      </trkpt>
      <trkpt lat="50.03919" lon="2.34798">
        <ele>142.9</ele>
        <time>2023-12-20T14:35:32Z</time>
      </trkpt>
      <trkpt lat="50.0392" lon="2.34797">
        <ele>142.9</ele>
        <time>2023-12-20T14:35:33Z</time>
      </trkpt>
      <trkpt lat="50.03921" lon="2.34795">
        <ele>142.9</ele>
        <time>2023-12-20T14:35:34Z</time>
      </trkpt>
      <trkpt lat="50.03922" lon="2.34794">
        <ele>142.9</ele>
        <time>2023-12-20T14:35:35Z</time>
      </trkpt>
      <trkpt lat="50.03923" lon="2.34793">
        <ele>142.8</ele>
        <time>2023-12-20T14:35:36Z</time>
      </trkpt>
      <trkpt lat="50.03924" lon="2.34792">
        <ele>142.8</ele>
        <time>2023-12-20T14:35:37Z</time>
      </trkpt>
      <trkpt lat="50.03926" lon="2.34791">
        <ele>142.8</ele>
        <time>2023-12-20T14:35:38Z</time>
      </trkpt>
      <trkpt lat="50.03927" lon="2.34789">
        <ele>142.8</ele>
        <time>2023-12-20T14:35:40Z</time>
      </trkpt>
      <trkpt lat="50.03928" lon="2.34788">
        <ele>142.8</ele>
        <time>2023-12-20T14:35:41Z</time>
      </trkpt>
      <trkpt lat="50.03929" lon="2.34787">
        <ele>142.8</ele>
        <time>2023-12-20T14:35:42Z</time>
      </trkpt>
      <trkpt lat="50.03931" lon="2.34786">
        <ele>142.8</ele>
        <time>2023-12-20T14:35:43Z</time>
      </trkpt>
      <trkpt lat="50.03932" lon="2.34785">
        <ele>142.8</ele>
        <time>2023-12-20T14:35:44Z</time>
      </trkpt>
      <trkpt lat="50.03932" lon="2.34784">
        <ele>142.8</ele>
        <time>2023-12-20T14:35:45Z</time>
      </trkpt>
      <trkpt lat="50.03934" lon="2.34782">
        <ele>142.8</ele>
        <time>2023-12-20T14:35:46Z</time>
      </trkpt>
      <trkpt lat="50.03935" lon="2.34782">
        <ele>142.7</ele>
        <time>2023-12-20T14:35:47Z</time>
      </trkpt>
      <trkpt lat="50.03936" lon="2.34781">
        <ele>142.7</ele>
        <time>2023-12-20T14:35:48Z</time>
      </trkpt>
      <trkpt lat="50.03936" lon="2.3478">
        <ele>142.7</ele>
        <time>2023-12-20T14:35:49Z</time>
      </trkpt>
      <trkpt lat="50.03937" lon="2.34779">
        <ele>142.7</ele>
        <time>2023-12-20T14:35:51Z</time>
      </trkpt>
      <trkpt lat="50.03938" lon="2.34777">
        <ele>142.7</ele>
        <time>2023-12-20T14:35:52Z</time>
      </trkpt>
      <trkpt lat="50.0394" lon="2.34775">
        <ele>142.7</ele>
        <time>2023-12-20T14:35:53Z</time>
      </trkpt>
      <trkpt lat="50.03941" lon="2.34773">
        <ele>142.7</ele>
        <time>2023-12-20T14:35:55Z</time>
      </trkpt>
      <trkpt lat="50.03942" lon="2.34772">
        <ele>142.7</ele>
        <time>2023-12-20T14:35:56Z</time>
      </trkpt>
      <trkpt lat="50.03943" lon="2.34771">
        <ele>142.7</ele>
        <time>2023-12-20T14:35:57Z</time>
      </trkpt>
      <trkpt lat="50.03945" lon="2.3477">
        <ele>142.7</ele>
        <time>2023-12-20T14:35:58Z</time>
      </trkpt>
      <trkpt lat="50.03946" lon="2.34769">
        <ele>142.6</ele>
        <time>2023-12-20T14:36:00Z</time>
      </trkpt>
      <trkpt lat="50.03947" lon="2.34768">
        <ele>142.6</ele>
        <time>2023-12-20T14:36:01Z</time>
      </trkpt>
      <trkpt lat="50.03948" lon="2.34767">
        <ele>142.6</ele>
        <time>2023-12-20T14:36:02Z</time>
      </trkpt>
      <trkpt lat="50.03949" lon="2.34766">
        <ele>142.6</ele>
        <time>2023-12-20T14:36:03Z</time>
      </trkpt>
      <trkpt lat="50.03951" lon="2.34765">
        <ele>142.6</ele>
        <time>2023-12-20T14:36:05Z</time>
      </trkpt>
      <trkpt lat="50.03951" lon="2.34764">
        <ele>142.6</ele>
        <time>2023-12-20T14:36:06Z</time>
      </trkpt>
      <trkpt lat="50.03952" lon="2.34763">
        <ele>142.6</ele>
        <time>2023-12-20T14:36:07Z</time>
      </trkpt>
      <trkpt lat="50.03954" lon="2.34761">
        <ele>142.6</ele>
        <time>2023-12-20T14:36:08Z</time>
      </trkpt>
      <trkpt lat="50.03955" lon="2.34761">
        <ele>142.6</ele>
        <time>2023-12-20T14:36:09Z</time>
      </trkpt>
      <trkpt lat="50.03956" lon="2.3476">
        <ele>142.6</ele>
        <time>2023-12-20T14:36:11Z</time>
      </trkpt>
      <trkpt lat="50.03956" lon="2.34759">
        <ele>142.6</ele>
        <time>2023-12-20T14:36:12Z</time>
      </trkpt>
      <trkpt lat="50.03957" lon="2.34758">
        <ele>142.6</ele>
        <time>2023-12-20T14:36:13Z</time>
      </trkpt>
      <trkpt lat="50.03958" lon="2.34758">
        <ele>142.6</ele>
        <time>2023-12-20T14:36:14Z</time>
      </trkpt>
      <trkpt lat="50.0396" lon="2.34756">
        <ele>142.6</ele>
        <time>2023-12-20T14:36:15Z</time>
      </trkpt>
      <trkpt lat="50.03961" lon="2.34755">
        <ele>142.6</ele>
        <time>2023-12-20T14:36:17Z</time>
      </trkpt>
      <trkpt lat="50.03961" lon="2.34754">
        <ele>142.6</ele>
        <time>2023-12-20T14:36:18Z</time>
      </trkpt>
      <trkpt lat="50.03962" lon="2.34753">
        <ele>142.6</ele>
        <time>2023-12-20T14:36:19Z</time>
      </trkpt>
      <trkpt lat="50.03963" lon="2.34752">
        <ele>142.6</ele>
        <time>2023-12-20T14:36:20Z</time>
      </trkpt>
      <trkpt lat="50.03964" lon="2.34751">
        <ele>142.6</ele>
        <time>2023-12-20T14:36:21Z</time>
      </trkpt>
      <trkpt lat="50.03965" lon="2.34751">
        <ele>142.6</ele>
        <time>2023-12-20T14:36:22Z</time>
      </trkpt>
      <trkpt lat="50.03966" lon="2.3475">
        <ele>142.6</ele>
        <time>2023-12-20T14:36:23Z</time>
      </trkpt>
      <trkpt lat="50.03967" lon="2.34749">
        <ele>142.6</ele>
        <time>2023-12-20T14:36:24Z</time>
      </trkpt>
      <trkpt lat="50.03967" lon="2.34749">
        <ele>142.6</ele>
        <time>2023-12-20T14:36:26Z</time>
      </trkpt>
      <trkpt lat="50.03968" lon="2.34748">
        <ele>142.6</ele>
        <time>2023-12-20T14:36:27Z</time>
      </trkpt>
      <trkpt lat="50.03969" lon="2.34747">
        <ele>142.6</ele>
        <time>2023-12-20T14:36:28Z</time>
      </trkpt>
      <trkpt lat="50.0397" lon="2.34747">
        <ele>142.6</ele>
        <time>2023-12-20T14:36:29Z</time>
      </trkpt>
      <trkpt lat="50.03971" lon="2.34746">
        <ele>142.6</ele>
        <time>2023-12-20T14:36:30Z</time>
      </trkpt>
      <trkpt lat="50.03972" lon="2.34746">
        <ele>142.6</ele>
        <time>2023-12-20T14:36:31Z</time>
      </trkpt>
      <trkpt lat="50.03973" lon="2.34745">
        <ele>142.6</ele>
        <time>2023-12-20T14:36:32Z</time>
      </trkpt>
      <trkpt lat="50.03974" lon="2.34744">
        <ele>142.6</ele>
        <time>2023-12-20T14:36:33Z</time>
      </trkpt>
      <trkpt lat="50.03975" lon="2.34743">
        <ele>142.6</ele>
        <time>2023-12-20T14:36:34Z</time>
      </trkpt>
      <trkpt lat="50.03977" lon="2.34741">
        <ele>142.6</ele>
        <time>2023-12-20T14:36:36Z</time>
      </trkpt>
      <trkpt lat="50.03977" lon="2.3474">
        <ele>142.6</ele>
        <time>2023-12-20T14:36:37Z</time>
      </trkpt>
      <trkpt lat="50.03978" lon="2.34739">
        <ele>142.6</ele>
        <time>2023-12-20T14:36:38Z</time>
      </trkpt>
      <trkpt lat="50.03979" lon="2.34738">
        <ele>142.6</ele>
        <time>2023-12-20T14:36:39Z</time>
      </trkpt>
      <trkpt lat="50.0398" lon="2.34737">
        <ele>142.6</ele>
        <time>2023-12-20T14:36:40Z</time>
      </trkpt>
      <trkpt lat="50.0398" lon="2.34736">
        <ele>142.6</ele>
        <time>2023-12-20T14:36:41Z</time>
      </trkpt>
      <trkpt lat="50.03981" lon="2.34735">
        <ele>142.6</ele>
        <time>2023-12-20T14:36:42Z</time>
      </trkpt>
      <trkpt lat="50.03982" lon="2.34734">
        <ele>142.6</ele>
        <time>2023-12-20T14:36:43Z</time>
      </trkpt>
      <trkpt lat="50.03983" lon="2.34733">
        <ele>142.6</ele>
        <time>2023-12-20T14:36:44Z</time>
      </trkpt>
      <trkpt lat="50.03984" lon="2.34732">
        <ele>142.6</ele>
        <time>2023-12-20T14:36:46Z</time>
      </trkpt>
      <trkpt lat="50.03985" lon="2.34731">
        <ele>142.6</ele>
        <time>2023-12-20T14:36:47Z</time>
      </trkpt>
      <trkpt lat="50.03986" lon="2.3473">
        <ele>142.6</ele>
        <time>2023-12-20T14:36:48Z</time>
      </trkpt>
      <trkpt lat="50.03987" lon="2.34729">
        <ele>142.6</ele>
        <time>2023-12-20T14:36:49Z</time>
      </trkpt>
      <trkpt lat="50.03988" lon="2.34728">
        <ele>142.6</ele>
        <time>2023-12-20T14:36:50Z</time>
      </trkpt>
      <trkpt lat="50.03989" lon="2.34727">
        <ele>142.6</ele>
        <time>2023-12-20T14:36:51Z</time>
      </trkpt>
      <trkpt lat="50.0399" lon="2.34726">
        <ele>142.6</ele>
        <time>2023-12-20T14:36:52Z</time>
      </trkpt>
      <trkpt lat="50.03991" lon="2.34725">
        <ele>142.6</ele>
        <time>2023-12-20T14:36:53Z</time>
      </trkpt>
      <trkpt lat="50.03992" lon="2.34724">
        <ele>142.6</ele>
        <time>2023-12-20T14:36:55Z</time>
      </trkpt>
      <trkpt lat="50.03993" lon="2.34723">
        <ele>142.6</ele>
        <time>2023-12-20T14:36:56Z</time>
      </trkpt>
      <trkpt lat="50.03994" lon="2.34722">
        <ele>142.6</ele>
        <time>2023-12-20T14:36:57Z</time>
      </trkpt>
      <trkpt lat="50.03994" lon="2.34721">
        <ele>142.6</ele>
        <time>2023-12-20T14:36:58Z</time>
      </trkpt>
      <trkpt lat="50.03995" lon="2.3472">
        <ele>142.6</ele>
        <time>2023-12-20T14:36:59Z</time>
      </trkpt>
      <trkpt lat="50.03996" lon="2.34719">
        <ele>142.7</ele>
        <time>2023-12-20T14:37:00Z</time>
      </trkpt>
      <trkpt lat="50.03997" lon="2.34718">
        <ele>142.7</ele>
        <time>2023-12-20T14:37:01Z</time>
      </trkpt>
      <trkpt lat="50.03999" lon="2.34716">
        <ele>142.7</ele>
        <time>2023-12-20T14:37:02Z</time>
      </trkpt>
      <trkpt lat="50.04" lon="2.34716">
        <ele>142.7</ele>
        <time>2023-12-20T14:37:04Z</time>
      </trkpt>
      <trkpt lat="50.04001" lon="2.34715">
        <ele>142.7</ele>
        <time>2023-12-20T14:37:05Z</time>
      </trkpt>
      <trkpt lat="50.04002" lon="2.34714">
        <ele>142.7</ele>
        <time>2023-12-20T14:37:06Z</time>
      </trkpt>
      <trkpt lat="50.04003" lon="2.34712">
        <ele>142.7</ele>
        <time>2023-12-20T14:37:07Z</time>
      </trkpt>
      <trkpt lat="50.04003" lon="2.34712">
        <ele>142.7</ele>
        <time>2023-12-20T14:37:08Z</time>
      </trkpt>
      <trkpt lat="50.04004" lon="2.34711">
        <ele>142.7</ele>
        <time>2023-12-20T14:37:10Z</time>
      </trkpt>
      <trkpt lat="50.04005" lon="2.3471">
        <ele>142.7</ele>
        <time>2023-12-20T14:37:11Z</time>
      </trkpt>
      <trkpt lat="50.04005" lon="2.3471">
        <ele>142.7</ele>
        <time>2023-12-20T14:37:12Z</time>
      </trkpt>
      <trkpt lat="50.04006" lon="2.34709">
        <ele>142.7</ele>
        <time>2023-12-20T14:37:13Z</time>
      </trkpt>
      <trkpt lat="50.04007" lon="2.34708">
        <ele>142.7</ele>
        <time>2023-12-20T14:37:14Z</time>
      </trkpt>
      <trkpt lat="50.04008" lon="2.34706">
        <ele>142.7</ele>
        <time>2023-12-20T14:37:15Z</time>
      </trkpt>
      <trkpt lat="50.04008" lon="2.34705">
        <ele>142.7</ele>
        <time>2023-12-20T14:37:16Z</time>
      </trkpt>
      <trkpt lat="50.0401" lon="2.34703">
        <ele>142.7</ele>
        <time>2023-12-20T14:37:17Z</time>
      </trkpt>
      <trkpt lat="50.0401" lon="2.34702">
        <ele>142.7</ele>
        <time>2023-12-20T14:37:18Z</time>
      </trkpt>
      <trkpt lat="50.04011" lon="2.34702">
        <ele>142.7</ele>
        <time>2023-12-20T14:37:20Z</time>
      </trkpt>
      <trkpt lat="50.04012" lon="2.34701">
        <ele>142.7</ele>
        <time>2023-12-20T14:37:21Z</time>
      </trkpt>
      <trkpt lat="50.04013" lon="2.347">
        <ele>142.7</ele>
        <time>2023-12-20T14:37:22Z</time>
      </trkpt>
      <trkpt lat="50.04014" lon="2.34699">
        <ele>142.7</ele>
        <time>2023-12-20T14:37:23Z</time>
      </trkpt>
      <trkpt lat="50.04015" lon="2.34698">
        <ele>142.7</ele>
        <time>2023-12-20T14:37:24Z</time>
      </trkpt>
      <trkpt lat="50.04016" lon="2.34698">
        <ele>142.7</ele>
        <time>2023-12-20T14:37:25Z</time>
      </trkpt>
      <trkpt lat="50.04018" lon="2.34695">
        <ele>142.7</ele>
        <time>2023-12-20T14:37:27Z</time>
      </trkpt>
      <trkpt lat="50.04019" lon="2.34694">
        <ele>142.7</ele>
        <time>2023-12-20T14:37:29Z</time>
      </trkpt>
      <trkpt lat="50.0402" lon="2.34693">
        <ele>142.7</ele>
        <time>2023-12-20T14:37:30Z</time>
      </trkpt>
      <trkpt lat="50.04021" lon="2.34692">
        <ele>142.7</ele>
        <time>2023-12-20T14:37:31Z</time>
      </trkpt>
      <trkpt lat="50.04022" lon="2.34691">
        <ele>142.7</ele>
        <time>2023-12-20T14:37:32Z</time>
      </trkpt>
      <trkpt lat="50.04023" lon="2.34689">
        <ele>142.7</ele>
        <time>2023-12-20T14:37:33Z</time>
      </trkpt>
      <trkpt lat="50.04024" lon="2.34688">
        <ele>142.7</ele>
        <time>2023-12-20T14:37:34Z</time>
      </trkpt>
      <trkpt lat="50.04025" lon="2.34687">
        <ele>142.7</ele>
        <time>2023-12-20T14:37:36Z</time>
      </trkpt>
      <trkpt lat="50.04026" lon="2.34686">
        <ele>142.7</ele>
        <time>2023-12-20T14:37:37Z</time>
      </trkpt>
      <trkpt lat="50.04027" lon="2.34685">
        <ele>142.7</ele>
        <time>2023-12-20T14:37:38Z</time>
      </trkpt>
      <trkpt lat="50.04028" lon="2.34684">
        <ele>142.7</ele>
        <time>2023-12-20T14:37:39Z</time>
      </trkpt>
      <trkpt lat="50.0403" lon="2.34683">
        <ele>142.7</ele>
        <time>2023-12-20T14:37:40Z</time>
      </trkpt>
      <trkpt lat="50.04031" lon="2.34682">
        <ele>142.7</ele>
        <time>2023-12-20T14:37:41Z</time>
      </trkpt>
      <trkpt lat="50.04031" lon="2.34682">
        <ele>142.7</ele>
        <time>2023-12-20T14:37:42Z</time>
      </trkpt>
      <trkpt lat="50.04032" lon="2.34681">
        <ele>142.7</ele>
        <time>2023-12-20T14:37:44Z</time>
      </trkpt>
      <trkpt lat="50.04033" lon="2.3468">
        <ele>142.6</ele>
        <time>2023-12-20T14:37:45Z</time>
      </trkpt>
      <trkpt lat="50.04034" lon="2.34679">
        <ele>142.6</ele>
        <time>2023-12-20T14:37:46Z</time>
      </trkpt>
      <trkpt lat="50.04035" lon="2.34678">
        <ele>142.6</ele>
        <time>2023-12-20T14:37:47Z</time>
      </trkpt>
      <trkpt lat="50.04036" lon="2.34678">
        <ele>142.6</ele>
        <time>2023-12-20T14:37:48Z</time>
      </trkpt>
      <trkpt lat="50.04038" lon="2.34677">
        <ele>142.6</ele>
        <time>2023-12-20T14:37:50Z</time>
      </trkpt>
      <trkpt lat="50.04039" lon="2.34676">
        <ele>142.6</ele>
        <time>2023-12-20T14:37:51Z</time>
      </trkpt>
      <trkpt lat="50.0404" lon="2.34675">
        <ele>142.6</ele>
        <time>2023-12-20T14:37:52Z</time>
      </trkpt>
      <trkpt lat="50.04041" lon="2.34673">
        <ele>142.6</ele>
        <time>2023-12-20T14:37:53Z</time>
      </trkpt>
      <trkpt lat="50.04042" lon="2.34672">
        <ele>142.6</ele>
        <time>2023-12-20T14:37:54Z</time>
      </trkpt>
      <trkpt lat="50.04043" lon="2.34671">
        <ele>142.6</ele>
        <time>2023-12-20T14:37:56Z</time>
      </trkpt>
      <trkpt lat="50.04045" lon="2.3467">
        <ele>142.6</ele>
        <time>2023-12-20T14:37:57Z</time>
      </trkpt>
      <trkpt lat="50.04046" lon="2.34669">
        <ele>142.6</ele>
        <time>2023-12-20T14:37:58Z</time>
      </trkpt>
      <trkpt lat="50.04047" lon="2.34668">
        <ele>142.5</ele>
        <time>2023-12-20T14:37:59Z</time>
      </trkpt>
      <trkpt lat="50.04049" lon="2.34667">
        <ele>142.5</ele>
        <time>2023-12-20T14:38:00Z</time>
      </trkpt>
      <trkpt lat="50.04049" lon="2.34666">
        <ele>142.5</ele>
        <time>2023-12-20T14:38:02Z</time>
      </trkpt>
      <trkpt lat="50.0405" lon="2.34665">
        <ele>142.5</ele>
        <time>2023-12-20T14:38:03Z</time>
      </trkpt>
      <trkpt lat="50.04051" lon="2.34664">
        <ele>142.5</ele>
        <time>2023-12-20T14:38:04Z</time>
      </trkpt>
      <trkpt lat="50.04052" lon="2.34663">
        <ele>142.5</ele>
        <time>2023-12-20T14:38:05Z</time>
      </trkpt>
      <trkpt lat="50.04053" lon="2.34662">
        <ele>142.5</ele>
        <time>2023-12-20T14:38:06Z</time>
      </trkpt>
      <trkpt lat="50.04053" lon="2.34661">
        <ele>142.5</ele>
        <time>2023-12-20T14:38:07Z</time>
      </trkpt>
      <trkpt lat="50.04054" lon="2.34659">
        <ele>142.5</ele>
        <time>2023-12-20T14:38:08Z</time>
      </trkpt>
      <trkpt lat="50.04055" lon="2.34658">
        <ele>142.5</ele>
        <time>2023-12-20T14:38:10Z</time>
      </trkpt>
      <trkpt lat="50.04057" lon="2.34656">
        <ele>142.5</ele>
        <time>2023-12-20T14:38:11Z</time>
      </trkpt>
      <trkpt lat="50.04057" lon="2.34655">
        <ele>142.5</ele>
        <time>2023-12-20T14:38:12Z</time>
      </trkpt>
      <trkpt lat="50.04058" lon="2.34654">
        <ele>142.5</ele>
        <time>2023-12-20T14:38:13Z</time>
      </trkpt>
      <trkpt lat="50.04059" lon="2.34652">
        <ele>142.4</ele>
        <time>2023-12-20T14:38:14Z</time>
      </trkpt>
      <trkpt lat="50.0406" lon="2.34651">
        <ele>142.4</ele>
        <time>2023-12-20T14:38:15Z</time>
      </trkpt>
      <trkpt lat="50.04061" lon="2.3465">
        <ele>142.4</ele>
        <time>2023-12-20T14:38:17Z</time>
      </trkpt>
      <trkpt lat="50.04062" lon="2.34648">
        <ele>142.4</ele>
        <time>2023-12-20T14:38:18Z</time>
      </trkpt>
      <trkpt lat="50.04063" lon="2.34647">
        <ele>142.4</ele>
        <time>2023-12-20T14:38:19Z</time>
      </trkpt>
      <trkpt lat="50.04064" lon="2.34646">
        <ele>142.4</ele>
        <time>2023-12-20T14:38:20Z</time>
      </trkpt>
      <trkpt lat="50.04065" lon="2.34644">
        <ele>142.4</ele>
        <time>2023-12-20T14:38:21Z</time>
      </trkpt>
      <trkpt lat="50.04066" lon="2.34643">
        <ele>142.4</ele>
        <time>2023-12-20T14:38:22Z</time>
      </trkpt>
      <trkpt lat="50.04067" lon="2.34642">
        <ele>142.4</ele>
        <time>2023-12-20T14:38:23Z</time>
      </trkpt>
      <trkpt lat="50.04068" lon="2.34641">
        <ele>142.4</ele>
        <time>2023-12-20T14:38:25Z</time>
      </trkpt>
      <trkpt lat="50.04069" lon="2.3464">
        <ele>142.4</ele>
        <time>2023-12-20T14:38:26Z</time>
      </trkpt>
      <trkpt lat="50.0407" lon="2.34639">
        <ele>142.4</ele>
        <time>2023-12-20T14:38:27Z</time>
      </trkpt>
      <trkpt lat="50.04072" lon="2.34638">
        <ele>142.4</ele>
        <time>2023-12-20T14:38:28Z</time>
      </trkpt>
      <trkpt lat="50.04072" lon="2.34637">
        <ele>142.4</ele>
        <time>2023-12-20T14:38:29Z</time>
      </trkpt>
      <trkpt lat="50.04073" lon="2.34637">
        <ele>142.4</ele>
        <time>2023-12-20T14:38:30Z</time>
      </trkpt>
      <trkpt lat="50.04074" lon="2.34636">
        <ele>142.4</ele>
        <time>2023-12-20T14:38:31Z</time>
      </trkpt>
      <trkpt lat="50.04075" lon="2.34635">
        <ele>142.3</ele>
        <time>2023-12-20T14:38:33Z</time>
      </trkpt>
      <trkpt lat="50.04076" lon="2.34634">
        <ele>142.3</ele>
        <time>2023-12-20T14:38:34Z</time>
      </trkpt>
      <trkpt lat="50.04078" lon="2.34633">
        <ele>142.3</ele>
        <time>2023-12-20T14:38:35Z</time>
      </trkpt>
      <trkpt lat="50.04079" lon="2.34632">
        <ele>142.3</ele>
        <time>2023-12-20T14:38:36Z</time>
      </trkpt>
      <trkpt lat="50.04079" lon="2.34631">
        <ele>142.3</ele>
        <time>2023-12-20T14:38:37Z</time>
      </trkpt>
      <trkpt lat="50.04081" lon="2.34629">
        <ele>142.3</ele>
        <time>2023-12-20T14:38:38Z</time>
      </trkpt>
      <trkpt lat="50.04082" lon="2.34629">
        <ele>142.3</ele>
        <time>2023-12-20T14:38:39Z</time>
      </trkpt>
      <trkpt lat="50.04083" lon="2.34628">
        <ele>142.3</ele>
        <time>2023-12-20T14:38:40Z</time>
      </trkpt>
      <trkpt lat="50.04084" lon="2.34627">
        <ele>142.3</ele>
        <time>2023-12-20T14:38:41Z</time>
      </trkpt>
      <trkpt lat="50.04084" lon="2.34626">
        <ele>142.3</ele>
        <time>2023-12-20T14:38:42Z</time>
      </trkpt>
      <trkpt lat="50.04085" lon="2.34625">
        <ele>142.3</ele>
        <time>2023-12-20T14:38:44Z</time>
      </trkpt>
      <trkpt lat="50.04086" lon="2.34624">
        <ele>142.3</ele>
        <time>2023-12-20T14:38:45Z</time>
      </trkpt>
      <trkpt lat="50.04087" lon="2.34623">
        <ele>142.2</ele>
        <time>2023-12-20T14:38:46Z</time>
      </trkpt>
      <trkpt lat="50.04088" lon="2.34622">
        <ele>142.2</ele>
        <time>2023-12-20T14:38:47Z</time>
      </trkpt>
      <trkpt lat="50.0409" lon="2.3462">
        <ele>142.2</ele>
        <time>2023-12-20T14:38:48Z</time>
      </trkpt>
      <trkpt lat="50.04091" lon="2.3462">
        <ele>142.2</ele>
        <time>2023-12-20T14:38:49Z</time>
      </trkpt>
      <trkpt lat="50.04092" lon="2.34619">
        <ele>142.2</ele>
        <time>2023-12-20T14:38:50Z</time>
      </trkpt>
      <trkpt lat="50.04093" lon="2.34617">
        <ele>142.2</ele>
        <time>2023-12-20T14:38:51Z</time>
      </trkpt>
      <trkpt lat="50.04094" lon="2.34616">
        <ele>142.2</ele>
        <time>2023-12-20T14:38:53Z</time>
      </trkpt>
      <trkpt lat="50.04094" lon="2.34615">
        <ele>142.2</ele>
        <time>2023-12-20T14:38:54Z</time>
      </trkpt>
      <trkpt lat="50.04096" lon="2.34613">
        <ele>142.1</ele>
        <time>2023-12-20T14:38:55Z</time>
      </trkpt>
      <trkpt lat="50.04097" lon="2.34612">
        <ele>142.1</ele>
        <time>2023-12-20T14:38:56Z</time>
      </trkpt>
      <trkpt lat="50.04097" lon="2.34611">
        <ele>142.1</ele>
        <time>2023-12-20T14:38:57Z</time>
      </trkpt>
      <trkpt lat="50.04099" lon="2.34609">
        <ele>142.1</ele>
        <time>2023-12-20T14:38:58Z</time>
      </trkpt>
      <trkpt lat="50.041" lon="2.34608">
        <ele>142.1</ele>
        <time>2023-12-20T14:39:00Z</time>
      </trkpt>
      <trkpt lat="50.041" lon="2.34607">
        <ele>142</ele>
        <time>2023-12-20T14:39:01Z</time>
      </trkpt>
      <trkpt lat="50.04101" lon="2.34606">
        <ele>142</ele>
        <time>2023-12-20T14:39:02Z</time>
      </trkpt>
      <trkpt lat="50.04102" lon="2.34605">
        <ele>142</ele>
        <time>2023-12-20T14:39:03Z</time>
      </trkpt>
      <trkpt lat="50.04103" lon="2.34604">
        <ele>142</ele>
        <time>2023-12-20T14:39:04Z</time>
      </trkpt>
      <trkpt lat="50.04105" lon="2.34602">
        <ele>142</ele>
        <time>2023-12-20T14:39:05Z</time>
      </trkpt>
      <trkpt lat="50.04105" lon="2.34601">
        <ele>142</ele>
        <time>2023-12-20T14:39:06Z</time>
      </trkpt>
      <trkpt lat="50.04106" lon="2.34601">
        <ele>141.9</ele>
        <time>2023-12-20T14:39:07Z</time>
      </trkpt>
      <trkpt lat="50.04108" lon="2.34599">
        <ele>141.9</ele>
        <time>2023-12-20T14:39:09Z</time>
      </trkpt>
      <trkpt lat="50.04108" lon="2.34598">
        <ele>141.9</ele>
        <time>2023-12-20T14:39:10Z</time>
      </trkpt>
      <trkpt lat="50.04109" lon="2.34597">
        <ele>141.9</ele>
        <time>2023-12-20T14:39:11Z</time>
      </trkpt>
      <trkpt lat="50.0411" lon="2.34597">
        <ele>141.9</ele>
        <time>2023-12-20T14:39:12Z</time>
      </trkpt>
      <trkpt lat="50.04111" lon="2.34596">
        <ele>141.9</ele>
        <time>2023-12-20T14:39:13Z</time>
      </trkpt>
      <trkpt lat="50.04112" lon="2.34595">
        <ele>141.9</ele>
        <time>2023-12-20T14:39:14Z</time>
      </trkpt>
      <trkpt lat="50.04113" lon="2.34594">
        <ele>141.9</ele>
        <time>2023-12-20T14:39:15Z</time>
      </trkpt>
      <trkpt lat="50.04114" lon="2.34594">
        <ele>141.9</ele>
        <time>2023-12-20T14:39:17Z</time>
      </trkpt>
      <trkpt lat="50.04115" lon="2.34593">
        <ele>141.9</ele>
        <time>2023-12-20T14:39:18Z</time>
      </trkpt>
      <trkpt lat="50.04116" lon="2.34592">
        <ele>141.9</ele>
        <time>2023-12-20T14:39:19Z</time>
      </trkpt>
      <trkpt lat="50.04117" lon="2.34591">
        <ele>141.9</ele>
        <time>2023-12-20T14:39:20Z</time>
      </trkpt>
      <trkpt lat="50.04118" lon="2.3459">
        <ele>141.9</ele>
        <time>2023-12-20T14:39:21Z</time>
      </trkpt>
      <trkpt lat="50.04119" lon="2.34587">
        <ele>141.9</ele>
        <time>2023-12-20T14:39:23Z</time>
      </trkpt>
      <trkpt lat="50.0412" lon="2.34586">
        <ele>141.9</ele>
        <time>2023-12-20T14:39:25Z</time>
      </trkpt>
      <trkpt lat="50.04121" lon="2.34584">
        <ele>141.9</ele>
        <time>2023-12-20T14:39:26Z</time>
      </trkpt>
      <trkpt lat="50.04121" lon="2.34583">
        <ele>141.9</ele>
        <time>2023-12-20T14:39:27Z</time>
      </trkpt>
      <trkpt lat="50.04122" lon="2.34582">
        <ele>141.9</ele>
        <time>2023-12-20T14:39:28Z</time>
      </trkpt>
      <trkpt lat="50.04123" lon="2.34581">
        <ele>141.9</ele>
        <time>2023-12-20T14:39:29Z</time>
      </trkpt>
      <trkpt lat="50.04124" lon="2.34581">
        <ele>141.9</ele>
        <time>2023-12-20T14:39:30Z</time>
      </trkpt>
      <trkpt lat="50.04125" lon="2.3458">
        <ele>141.9</ele>
        <time>2023-12-20T14:39:31Z</time>
      </trkpt>
      <trkpt lat="50.04126" lon="2.34579">
        <ele>141.9</ele>
        <time>2023-12-20T14:39:33Z</time>
      </trkpt>
      <trkpt lat="50.04127" lon="2.34578">
        <ele>141.9</ele>
        <time>2023-12-20T14:39:34Z</time>
      </trkpt>
      <trkpt lat="50.04127" lon="2.34576">
        <ele>141.9</ele>
        <time>2023-12-20T14:39:35Z</time>
      </trkpt>
      <trkpt lat="50.04129" lon="2.34574">
        <ele>141.9</ele>
        <time>2023-12-20T14:39:36Z</time>
      </trkpt>
      <trkpt lat="50.04129" lon="2.34573">
        <ele>141.9</ele>
        <time>2023-12-20T14:39:37Z</time>
      </trkpt>
      <trkpt lat="50.0413" lon="2.34573">
        <ele>141.8</ele>
        <time>2023-12-20T14:39:38Z</time>
      </trkpt>
      <trkpt lat="50.04131" lon="2.34572">
        <ele>141.8</ele>
        <time>2023-12-20T14:39:39Z</time>
      </trkpt>
      <trkpt lat="50.04132" lon="2.34571">
        <ele>141.8</ele>
        <time>2023-12-20T14:39:41Z</time>
      </trkpt>
      <trkpt lat="50.04133" lon="2.3457">
        <ele>141.8</ele>
        <time>2023-12-20T14:39:42Z</time>
      </trkpt>
      <trkpt lat="50.04135" lon="2.34568">
        <ele>141.8</ele>
        <time>2023-12-20T14:39:43Z</time>
      </trkpt>
      <trkpt lat="50.04136" lon="2.34567">
        <ele>141.8</ele>
        <time>2023-12-20T14:39:44Z</time>
      </trkpt>
      <trkpt lat="50.04136" lon="2.34566">
        <ele>141.8</ele>
        <time>2023-12-20T14:39:45Z</time>
      </trkpt>
      <trkpt lat="50.04137" lon="2.34564">
        <ele>141.7</ele>
        <time>2023-12-20T14:39:46Z</time>
      </trkpt>
      <trkpt lat="50.04138" lon="2.34563">
        <ele>141.7</ele>
        <time>2023-12-20T14:39:47Z</time>
      </trkpt>
      <trkpt lat="50.04139" lon="2.34562">
        <ele>141.7</ele>
        <time>2023-12-20T14:39:49Z</time>
      </trkpt>
      <trkpt lat="50.0414" lon="2.34559">
        <ele>141.7</ele>
        <time>2023-12-20T14:39:50Z</time>
      </trkpt>
      <trkpt lat="50.04141" lon="2.34558">
        <ele>141.7</ele>
        <time>2023-12-20T14:39:51Z</time>
      </trkpt>
      <trkpt lat="50.04142" lon="2.34557">
        <ele>141.7</ele>
        <time>2023-12-20T14:39:52Z</time>
      </trkpt>
      <trkpt lat="50.04143" lon="2.34556">
        <ele>141.7</ele>
        <time>2023-12-20T14:39:53Z</time>
      </trkpt>
      <trkpt lat="50.04144" lon="2.34554">
        <ele>141.6</ele>
        <time>2023-12-20T14:39:54Z</time>
      </trkpt>
      <trkpt lat="50.04145" lon="2.34553">
        <ele>141.6</ele>
        <time>2023-12-20T14:39:55Z</time>
      </trkpt>
      <trkpt lat="50.04146" lon="2.34552">
        <ele>141.6</ele>
        <time>2023-12-20T14:39:56Z</time>
      </trkpt>
      <trkpt lat="50.04146" lon="2.34551">
        <ele>141.6</ele>
        <time>2023-12-20T14:39:58Z</time>
      </trkpt>
      <trkpt lat="50.04147" lon="2.34549">
        <ele>141.6</ele>
        <time>2023-12-20T14:39:59Z</time>
      </trkpt>
      <trkpt lat="50.04148" lon="2.34548">
        <ele>141.6</ele>
        <time>2023-12-20T14:40:00Z</time>
      </trkpt>
      <trkpt lat="50.04149" lon="2.34547">
        <ele>141.6</ele>
        <time>2023-12-20T14:40:01Z</time>
      </trkpt>
      <trkpt lat="50.0415" lon="2.34546">
        <ele>141.6</ele>
        <time>2023-12-20T14:40:02Z</time>
      </trkpt>
      <trkpt lat="50.04151" lon="2.34545">
        <ele>141.6</ele>
        <time>2023-12-20T14:40:03Z</time>
      </trkpt>
      <trkpt lat="50.04151" lon="2.34544">
        <ele>141.5</ele>
        <time>2023-12-20T14:40:04Z</time>
      </trkpt>
      <trkpt lat="50.04152" lon="2.34543">
        <ele>141.5</ele>
        <time>2023-12-20T14:40:05Z</time>
      </trkpt>
      <trkpt lat="50.04153" lon="2.34542">
        <ele>141.5</ele>
        <time>2023-12-20T14:40:06Z</time>
      </trkpt>
      <trkpt lat="50.04153" lon="2.34541">
        <ele>141.5</ele>
        <time>2023-12-20T14:40:07Z</time>
      </trkpt>
      <trkpt lat="50.04154" lon="2.34539">
        <ele>141.5</ele>
        <time>2023-12-20T14:40:09Z</time>
      </trkpt>
      <trkpt lat="50.04155" lon="2.34538">
        <ele>141.5</ele>
        <time>2023-12-20T14:40:10Z</time>
      </trkpt>
      <trkpt lat="50.04155" lon="2.34537">
        <ele>141.5</ele>
        <time>2023-12-20T14:40:11Z</time>
      </trkpt>
      <trkpt lat="50.04156" lon="2.34535">
        <ele>141.5</ele>
        <time>2023-12-20T14:40:12Z</time>
      </trkpt>
      <trkpt lat="50.04157" lon="2.34534">
        <ele>141.5</ele>
        <time>2023-12-20T14:40:13Z</time>
      </trkpt>
      <trkpt lat="50.04157" lon="2.34533">
        <ele>141.5</ele>
        <time>2023-12-20T14:40:14Z</time>
      </trkpt>
      <trkpt lat="50.04159" lon="2.34532">
        <ele>141.5</ele>
        <time>2023-12-20T14:40:15Z</time>
      </trkpt>
      <trkpt lat="50.04159" lon="2.34531">
        <ele>141.5</ele>
        <time>2023-12-20T14:40:17Z</time>
      </trkpt>
      <trkpt lat="50.0416" lon="2.34531">
        <ele>141.5</ele>
        <time>2023-12-20T14:40:18Z</time>
      </trkpt>
      <trkpt lat="50.04161" lon="2.3453">
        <ele>141.5</ele>
        <time>2023-12-20T14:40:19Z</time>
      </trkpt>
      <trkpt lat="50.04161" lon="2.34529">
        <ele>141.5</ele>
        <time>2023-12-20T14:40:20Z</time>
      </trkpt>
      <trkpt lat="50.04162" lon="2.34528">
        <ele>141.5</ele>
        <time>2023-12-20T14:40:21Z</time>
      </trkpt>
      <trkpt lat="50.04163" lon="2.34527">
        <ele>141.5</ele>
        <time>2023-12-20T14:40:22Z</time>
      </trkpt>
      <trkpt lat="50.04164" lon="2.34526">
        <ele>141.5</ele>
        <time>2023-12-20T14:40:24Z</time>
      </trkpt>
      <trkpt lat="50.04164" lon="2.34525">
        <ele>141.5</ele>
        <time>2023-12-20T14:40:25Z</time>
      </trkpt>
      <trkpt lat="50.04165" lon="2.34524">
        <ele>141.5</ele>
        <time>2023-12-20T14:40:26Z</time>
      </trkpt>
      <trkpt lat="50.04166" lon="2.34523">
        <ele>141.5</ele>
        <time>2023-12-20T14:40:27Z</time>
      </trkpt>
      <trkpt lat="50.04167" lon="2.34522">
        <ele>141.6</ele>
        <time>2023-12-20T14:40:28Z</time>
      </trkpt>
      <trkpt lat="50.04168" lon="2.34521">
        <ele>141.6</ele>
        <time>2023-12-20T14:40:29Z</time>
      </trkpt>
      <trkpt lat="50.04169" lon="2.3452">
        <ele>141.6</ele>
        <time>2023-12-20T14:40:30Z</time>
      </trkpt>
      <trkpt lat="50.0417" lon="2.34519">
        <ele>141.6</ele>
        <time>2023-12-20T14:40:31Z</time>
      </trkpt>
      <trkpt lat="50.04171" lon="2.34518">
        <ele>141.6</ele>
        <time>2023-12-20T14:40:33Z</time>
      </trkpt>
      <trkpt lat="50.04171" lon="2.34519">
        <ele>141.6</ele>
        <time>2023-12-20T14:40:34Z</time>
      </trkpt>
      <trkpt lat="50.04171" lon="2.34521">
        <ele>141.6</ele>
        <time>2023-12-20T14:40:35Z</time>
      </trkpt>
      <trkpt lat="50.04171" lon="2.34522">
        <ele>141.6</ele>
        <time>2023-12-20T14:40:37Z</time>
      </trkpt>
      <trkpt lat="50.04171" lon="2.34522">
        <ele>141.6</ele>
        <time>2023-12-20T14:40:38Z</time>
      </trkpt>
      <trkpt lat="50.04171" lon="2.34523">
        <ele>141.6</ele>
        <time>2023-12-20T14:40:39Z</time>
      </trkpt>
      <trkpt lat="50.04172" lon="2.34522">
        <ele>141.6</ele>
        <time>2023-12-20T14:40:40Z</time>
      </trkpt>
      <trkpt lat="50.04173" lon="2.34522">
        <ele>141.6</ele>
        <time>2023-12-20T14:40:41Z</time>
      </trkpt>
      <trkpt lat="50.04173" lon="2.34521">
        <ele>141.6</ele>
        <time>2023-12-20T14:40:42Z</time>
      </trkpt>
      <trkpt lat="50.04174" lon="2.34521">
        <ele>141.6</ele>
        <time>2023-12-20T14:40:43Z</time>
      </trkpt>
      <trkpt lat="50.04174" lon="2.3452">
        <ele>141.7</ele>
        <time>2023-12-20T14:40:44Z</time>
      </trkpt>
      <trkpt lat="50.04176" lon="2.34518">
        <ele>141.7</ele>
        <time>2023-12-20T14:40:46Z</time>
      </trkpt>
      <trkpt lat="50.04176" lon="2.34516">
        <ele>141.7</ele>
        <time>2023-12-20T14:40:47Z</time>
      </trkpt>
      <trkpt lat="50.04177" lon="2.34515">
        <ele>141.7</ele>
        <time>2023-12-20T14:40:48Z</time>
      </trkpt>
      <trkpt lat="50.04178" lon="2.34512">
        <ele>141.7</ele>
        <time>2023-12-20T14:40:49Z</time>
      </trkpt>
      <trkpt lat="50.04179" lon="2.34511">
        <ele>141.7</ele>
        <time>2023-12-20T14:40:50Z</time>
      </trkpt>
      <trkpt lat="50.04179" lon="2.3451">
        <ele>141.7</ele>
        <time>2023-12-20T14:40:51Z</time>
      </trkpt>
      <trkpt lat="50.0418" lon="2.34509">
        <ele>141.7</ele>
        <time>2023-12-20T14:40:52Z</time>
      </trkpt>
      <trkpt lat="50.04181" lon="2.34507">
        <ele>141.8</ele>
        <time>2023-12-20T14:40:53Z</time>
      </trkpt>
      <trkpt lat="50.04182" lon="2.34505">
        <ele>141.8</ele>
        <time>2023-12-20T14:40:55Z</time>
      </trkpt>
      <trkpt lat="50.04183" lon="2.34504">
        <ele>141.8</ele>
        <time>2023-12-20T14:40:56Z</time>
      </trkpt>
      <trkpt lat="50.04184" lon="2.34502">
        <ele>141.8</ele>
        <time>2023-12-20T14:40:57Z</time>
      </trkpt>
      <trkpt lat="50.04185" lon="2.345">
        <ele>141.8</ele>
        <time>2023-12-20T14:40:58Z</time>
      </trkpt>
      <trkpt lat="50.04186" lon="2.34499">
        <ele>141.8</ele>
        <time>2023-12-20T14:40:59Z</time>
      </trkpt>
      <trkpt lat="50.04187" lon="2.34498">
        <ele>141.8</ele>
        <time>2023-12-20T14:41:00Z</time>
      </trkpt>
      <trkpt lat="50.04188" lon="2.34498">
        <ele>141.8</ele>
        <time>2023-12-20T14:41:01Z</time>
      </trkpt>
      <trkpt lat="50.04189" lon="2.34497">
        <ele>141.8</ele>
        <time>2023-12-20T14:41:03Z</time>
      </trkpt>
      <trkpt lat="50.0419" lon="2.34495">
        <ele>141.8</ele>
        <time>2023-12-20T14:41:04Z</time>
      </trkpt>
      <trkpt lat="50.04191" lon="2.34494">
        <ele>141.9</ele>
        <time>2023-12-20T14:41:05Z</time>
      </trkpt>
      <trkpt lat="50.04191" lon="2.34493">
        <ele>141.9</ele>
        <time>2023-12-20T14:41:06Z</time>
      </trkpt>
      <trkpt lat="50.04192" lon="2.34492">
        <ele>141.9</ele>
        <time>2023-12-20T14:41:07Z</time>
      </trkpt>
      <trkpt lat="50.04193" lon="2.3449">
        <ele>141.9</ele>
        <time>2023-12-20T14:41:08Z</time>
      </trkpt>
      <trkpt lat="50.04194" lon="2.34489">
        <ele>141.9</ele>
        <time>2023-12-20T14:41:10Z</time>
      </trkpt>
      <trkpt lat="50.04195" lon="2.34488">
        <ele>141.9</ele>
        <time>2023-12-20T14:41:11Z</time>
      </trkpt>
      <trkpt lat="50.04196" lon="2.34486">
        <ele>141.9</ele>
        <time>2023-12-20T14:41:12Z</time>
      </trkpt>
      <trkpt lat="50.04197" lon="2.34485">
        <ele>141.9</ele>
        <time>2023-12-20T14:41:13Z</time>
      </trkpt>
      <trkpt lat="50.04198" lon="2.34484">
        <ele>141.9</ele>
        <time>2023-12-20T14:41:14Z</time>
      </trkpt>
      <trkpt lat="50.04199" lon="2.34483">
        <ele>141.9</ele>
        <time>2023-12-20T14:41:15Z</time>
      </trkpt>
      <trkpt lat="50.042" lon="2.34482">
        <ele>141.9</ele>
        <time>2023-12-20T14:41:16Z</time>
      </trkpt>
      <trkpt lat="50.04201" lon="2.34481">
        <ele>141.9</ele>
        <time>2023-12-20T14:41:17Z</time>
      </trkpt>
      <trkpt lat="50.04202" lon="2.34479">
        <ele>141.9</ele>
        <time>2023-12-20T14:41:18Z</time>
      </trkpt>
      <trkpt lat="50.04203" lon="2.34479">
        <ele>141.9</ele>
        <time>2023-12-20T14:41:20Z</time>
      </trkpt>
      <trkpt lat="50.04204" lon="2.34478">
        <ele>141.9</ele>
        <time>2023-12-20T14:41:21Z</time>
      </trkpt>
      <trkpt lat="50.04205" lon="2.34477">
        <ele>141.9</ele>
        <time>2023-12-20T14:41:22Z</time>
      </trkpt>
      <trkpt lat="50.04206" lon="2.34475">
        <ele>141.9</ele>
        <time>2023-12-20T14:41:23Z</time>
      </trkpt>
      <trkpt lat="50.04206" lon="2.34474">
        <ele>141.9</ele>
        <time>2023-12-20T14:41:24Z</time>
      </trkpt>
      <trkpt lat="50.04207" lon="2.34473">
        <ele>141.9</ele>
        <time>2023-12-20T14:41:25Z</time>
      </trkpt>
      <trkpt lat="50.04208" lon="2.34471">
        <ele>141.9</ele>
        <time>2023-12-20T14:41:26Z</time>
      </trkpt>
      <trkpt lat="50.04209" lon="2.3447">
        <ele>141.9</ele>
        <time>2023-12-20T14:41:28Z</time>
      </trkpt>
      <trkpt lat="50.04211" lon="2.34468">
        <ele>141.9</ele>
        <time>2023-12-20T14:41:29Z</time>
      </trkpt>
      <trkpt lat="50.04211" lon="2.34467">
        <ele>141.9</ele>
        <time>2023-12-20T14:41:30Z</time>
      </trkpt>
      <trkpt lat="50.04212" lon="2.34467">
        <ele>141.9</ele>
        <time>2023-12-20T14:41:31Z</time>
      </trkpt>
      <trkpt lat="50.04213" lon="2.34465">
        <ele>141.9</ele>
        <time>2023-12-20T14:41:32Z</time>
      </trkpt>
      <trkpt lat="50.04213" lon="2.34464">
        <ele>141.9</ele>
        <time>2023-12-20T14:41:33Z</time>
      </trkpt>
      <trkpt lat="50.04214" lon="2.34463">
        <ele>141.9</ele>
        <time>2023-12-20T14:41:34Z</time>
      </trkpt>
      <trkpt lat="50.04215" lon="2.34462">
        <ele>141.9</ele>
        <time>2023-12-20T14:41:35Z</time>
      </trkpt>
      <trkpt lat="50.04216" lon="2.3446">
        <ele>141.9</ele>
        <time>2023-12-20T14:41:36Z</time>
      </trkpt>
      <trkpt lat="50.04216" lon="2.34458">
        <ele>141.9</ele>
        <time>2023-12-20T14:41:38Z</time>
      </trkpt>
      <trkpt lat="50.04217" lon="2.34457">
        <ele>141.8</ele>
        <time>2023-12-20T14:41:39Z</time>
      </trkpt>
      <trkpt lat="50.04218" lon="2.34455">
        <ele>141.8</ele>
        <time>2023-12-20T14:41:40Z</time>
      </trkpt>
      <trkpt lat="50.04219" lon="2.34453">
        <ele>141.8</ele>
        <time>2023-12-20T14:41:41Z</time>
      </trkpt>
      <trkpt lat="50.0422" lon="2.34452">
        <ele>141.8</ele>
        <time>2023-12-20T14:41:42Z</time>
      </trkpt>
      <trkpt lat="50.04221" lon="2.34449">
        <ele>141.8</ele>
        <time>2023-12-20T14:41:43Z</time>
      </trkpt>
      <trkpt lat="50.04222" lon="2.34448">
        <ele>141.8</ele>
        <time>2023-12-20T14:41:44Z</time>
      </trkpt>
      <trkpt lat="50.04223" lon="2.34447">
        <ele>141.8</ele>
        <time>2023-12-20T14:41:45Z</time>
      </trkpt>
      <trkpt lat="50.04224" lon="2.34446">
        <ele>141.8</ele>
        <time>2023-12-20T14:41:46Z</time>
      </trkpt>
      <trkpt lat="50.04225" lon="2.34444">
        <ele>141.7</ele>
        <time>2023-12-20T14:41:48Z</time>
      </trkpt>
      <trkpt lat="50.04227" lon="2.34443">
        <ele>141.7</ele>
        <time>2023-12-20T14:41:49Z</time>
      </trkpt>
      <trkpt lat="50.04228" lon="2.34442">
        <ele>141.7</ele>
        <time>2023-12-20T14:41:50Z</time>
      </trkpt>
      <trkpt lat="50.04229" lon="2.3444">
        <ele>141.7</ele>
        <time>2023-12-20T14:41:51Z</time>
      </trkpt>
      <trkpt lat="50.0423" lon="2.34439">
        <ele>141.7</ele>
        <time>2023-12-20T14:41:52Z</time>
      </trkpt>
      <trkpt lat="50.04231" lon="2.34437">
        <ele>141.7</ele>
        <time>2023-12-20T14:41:53Z</time>
      </trkpt>
      <trkpt lat="50.04232" lon="2.34436">
        <ele>141.6</ele>
        <time>2023-12-20T14:41:54Z</time>
      </trkpt>
      <trkpt lat="50.04233" lon="2.34435">
        <ele>141.6</ele>
        <time>2023-12-20T14:41:55Z</time>
      </trkpt>
      <trkpt lat="50.04234" lon="2.34434">
        <ele>141.6</ele>
        <time>2023-12-20T14:41:56Z</time>
      </trkpt>
      <trkpt lat="50.04235" lon="2.34432">
        <ele>141.6</ele>
        <time>2023-12-20T14:41:57Z</time>
      </trkpt>
      <trkpt lat="50.04235" lon="2.34431">
        <ele>141.6</ele>
        <time>2023-12-20T14:41:59Z</time>
      </trkpt>
      <trkpt lat="50.04237" lon="2.34428">
        <ele>141.6</ele>
        <time>2023-12-20T14:42:00Z</time>
      </trkpt>
      <trkpt lat="50.04238" lon="2.34428">
        <ele>141.6</ele>
        <time>2023-12-20T14:42:01Z</time>
      </trkpt>
      <trkpt lat="50.04238" lon="2.34427">
        <ele>141.5</ele>
        <time>2023-12-20T14:42:02Z</time>
      </trkpt>
      <trkpt lat="50.04239" lon="2.34425">
        <ele>141.5</ele>
        <time>2023-12-20T14:42:03Z</time>
      </trkpt>
      <trkpt lat="50.0424" lon="2.34424">
        <ele>141.5</ele>
        <time>2023-12-20T14:42:04Z</time>
      </trkpt>
      <trkpt lat="50.04241" lon="2.34423">
        <ele>141.5</ele>
        <time>2023-12-20T14:42:05Z</time>
      </trkpt>
      <trkpt lat="50.04241" lon="2.34421">
        <ele>141.5</ele>
        <time>2023-12-20T14:42:06Z</time>
      </trkpt>
      <trkpt lat="50.04242" lon="2.3442">
        <ele>141.5</ele>
        <time>2023-12-20T14:42:07Z</time>
      </trkpt>
      <trkpt lat="50.04243" lon="2.34418">
        <ele>141.5</ele>
        <time>2023-12-20T14:42:09Z</time>
      </trkpt>
      <trkpt lat="50.04244" lon="2.34417">
        <ele>141.5</ele>
        <time>2023-12-20T14:42:10Z</time>
      </trkpt>
      <trkpt lat="50.04245" lon="2.34415">
        <ele>141.4</ele>
        <time>2023-12-20T14:42:11Z</time>
      </trkpt>
      <trkpt lat="50.04246" lon="2.34414">
        <ele>141.4</ele>
        <time>2023-12-20T14:42:12Z</time>
      </trkpt>
      <trkpt lat="50.04247" lon="2.34413">
        <ele>141.4</ele>
        <time>2023-12-20T14:42:13Z</time>
      </trkpt>
      <trkpt lat="50.04249" lon="2.34411">
        <ele>141.4</ele>
        <time>2023-12-20T14:42:14Z</time>
      </trkpt>
      <trkpt lat="50.04249" lon="2.3441">
        <ele>141.4</ele>
        <time>2023-12-20T14:42:15Z</time>
      </trkpt>
      <trkpt lat="50.0425" lon="2.34409">
        <ele>141.4</ele>
        <time>2023-12-20T14:42:16Z</time>
      </trkpt>
      <trkpt lat="50.04251" lon="2.34407">
        <ele>141.4</ele>
        <time>2023-12-20T14:42:18Z</time>
      </trkpt>
      <trkpt lat="50.04252" lon="2.34406">
        <ele>141.4</ele>
        <time>2023-12-20T14:42:19Z</time>
      </trkpt>
      <trkpt lat="50.04252" lon="2.34405">
        <ele>141.4</ele>
        <time>2023-12-20T14:42:20Z</time>
      </trkpt>
      <trkpt lat="50.04254" lon="2.34403">
        <ele>141.3</ele>
        <time>2023-12-20T14:42:21Z</time>
      </trkpt>
      <trkpt lat="50.04254" lon="2.34402">
        <ele>141.3</ele>
        <time>2023-12-20T14:42:22Z</time>
      </trkpt>
      <trkpt lat="50.04255" lon="2.34401">
        <ele>141.3</ele>
        <time>2023-12-20T14:42:23Z</time>
      </trkpt>
      <trkpt lat="50.04257" lon="2.34399">
        <ele>141.3</ele>
        <time>2023-12-20T14:42:24Z</time>
      </trkpt>
      <trkpt lat="50.04257" lon="2.34398">
        <ele>141.3</ele>
        <time>2023-12-20T14:42:25Z</time>
      </trkpt>
      <trkpt lat="50.04258" lon="2.34397">
        <ele>141.3</ele>
        <time>2023-12-20T14:42:26Z</time>
      </trkpt>
      <trkpt lat="50.04259" lon="2.34396">
        <ele>141.3</ele>
        <time>2023-12-20T14:42:28Z</time>
      </trkpt>
      <trkpt lat="50.04259" lon="2.34394">
        <ele>141.3</ele>
        <time>2023-12-20T14:42:29Z</time>
      </trkpt>
      <trkpt lat="50.0426" lon="2.34393">
        <ele>141.3</ele>
        <time>2023-12-20T14:42:30Z</time>
      </trkpt>
      <trkpt lat="50.04262" lon="2.34391">
        <ele>141.3</ele>
        <time>2023-12-20T14:42:31Z</time>
      </trkpt>
      <trkpt lat="50.04262" lon="2.3439">
        <ele>141.3</ele>
        <time>2023-12-20T14:42:32Z</time>
      </trkpt>
      <trkpt lat="50.04263" lon="2.34389">
        <ele>141.2</ele>
        <time>2023-12-20T14:42:33Z</time>
      </trkpt>
      <trkpt lat="50.04264" lon="2.34388">
        <ele>141.2</ele>
        <time>2023-12-20T14:42:34Z</time>
      </trkpt>
      <trkpt lat="50.04265" lon="2.34386">
        <ele>141.2</ele>
        <time>2023-12-20T14:42:35Z</time>
      </trkpt>
      <trkpt lat="50.04266" lon="2.34385">
        <ele>141.2</ele>
        <time>2023-12-20T14:42:36Z</time>
      </trkpt>
      <trkpt lat="50.04267" lon="2.34384">
        <ele>141.2</ele>
        <time>2023-12-20T14:42:38Z</time>
      </trkpt>
      <trkpt lat="50.04268" lon="2.34382">
        <ele>141.2</ele>
        <time>2023-12-20T14:42:39Z</time>
      </trkpt>
      <trkpt lat="50.04269" lon="2.3438">
        <ele>141.1</ele>
        <time>2023-12-20T14:42:40Z</time>
      </trkpt>
      <trkpt lat="50.0427" lon="2.34379">
        <ele>141.1</ele>
        <time>2023-12-20T14:42:41Z</time>
      </trkpt>
      <trkpt lat="50.04272" lon="2.34377">
        <ele>141.1</ele>
        <time>2023-12-20T14:42:43Z</time>
      </trkpt>
      <trkpt lat="50.04273" lon="2.34376">
        <ele>141.1</ele>
        <time>2023-12-20T14:42:44Z</time>
      </trkpt>
      <trkpt lat="50.04274" lon="2.34375">
        <ele>141.1</ele>
        <time>2023-12-20T14:42:45Z</time>
      </trkpt>
      <trkpt lat="50.04275" lon="2.34373">
        <ele>141</ele>
        <time>2023-12-20T14:42:46Z</time>
      </trkpt>
      <trkpt lat="50.04276" lon="2.34373">
        <ele>141</ele>
        <time>2023-12-20T14:42:47Z</time>
      </trkpt>
      <trkpt lat="50.04277" lon="2.34372">
        <ele>141</ele>
        <time>2023-12-20T14:42:48Z</time>
      </trkpt>
      <trkpt lat="50.04279" lon="2.3437">
        <ele>141</ele>
        <time>2023-12-20T14:42:49Z</time>
      </trkpt>
      <trkpt lat="50.04279" lon="2.3437">
        <ele>141</ele>
        <time>2023-12-20T14:42:50Z</time>
      </trkpt>
      <trkpt lat="50.0428" lon="2.34369">
        <ele>140.9</ele>
        <time>2023-12-20T14:42:51Z</time>
      </trkpt>
      <trkpt lat="50.04282" lon="2.34367">
        <ele>140.9</ele>
        <time>2023-12-20T14:42:53Z</time>
      </trkpt>
      <trkpt lat="50.04282" lon="2.34367">
        <ele>140.9</ele>
        <time>2023-12-20T14:42:54Z</time>
      </trkpt>
      <trkpt lat="50.04283" lon="2.34366">
        <ele>140.9</ele>
        <time>2023-12-20T14:42:55Z</time>
      </trkpt>
      <trkpt lat="50.04285" lon="2.34364">
        <ele>140.8</ele>
        <time>2023-12-20T14:42:56Z</time>
      </trkpt>
      <trkpt lat="50.04286" lon="2.34363">
        <ele>140.8</ele>
        <time>2023-12-20T14:42:57Z</time>
      </trkpt>
      <trkpt lat="50.04286" lon="2.34363">
        <ele>140.8</ele>
        <time>2023-12-20T14:42:58Z</time>
      </trkpt>
      <trkpt lat="50.04288" lon="2.34361">
        <ele>140.7</ele>
        <time>2023-12-20T14:42:59Z</time>
      </trkpt>
      <trkpt lat="50.04288" lon="2.3436">
        <ele>140.7</ele>
        <time>2023-12-20T14:43:00Z</time>
      </trkpt>
      <trkpt lat="50.04289" lon="2.34359">
        <ele>140.7</ele>
        <time>2023-12-20T14:43:01Z</time>
      </trkpt>
      <trkpt lat="50.0429" lon="2.34357">
        <ele>140.6</ele>
        <time>2023-12-20T14:43:03Z</time>
      </trkpt>
      <trkpt lat="50.04291" lon="2.34356">
        <ele>140.6</ele>
        <time>2023-12-20T14:43:04Z</time>
      </trkpt>
      <trkpt lat="50.04292" lon="2.34353">
        <ele>140.6</ele>
        <time>2023-12-20T14:43:05Z</time>
      </trkpt>
      <trkpt lat="50.04293" lon="2.34353">
        <ele>140.5</ele>
        <time>2023-12-20T14:43:06Z</time>
      </trkpt>
      <trkpt lat="50.04294" lon="2.34352">
        <ele>140.5</ele>
        <time>2023-12-20T14:43:07Z</time>
      </trkpt>
      <trkpt lat="50.04294" lon="2.34351">
        <ele>140.5</ele>
        <time>2023-12-20T14:43:08Z</time>
      </trkpt>
      <trkpt lat="50.04295" lon="2.34349">
        <ele>140.5</ele>
        <time>2023-12-20T14:43:09Z</time>
      </trkpt>
      <trkpt lat="50.04296" lon="2.34348">
        <ele>140.4</ele>
        <time>2023-12-20T14:43:10Z</time>
      </trkpt>
      <trkpt lat="50.04298" lon="2.34346">
        <ele>140.4</ele>
        <time>2023-12-20T14:43:11Z</time>
      </trkpt>
      <trkpt lat="50.04298" lon="2.34345">
        <ele>140.4</ele>
        <time>2023-12-20T14:43:12Z</time>
      </trkpt>
      <trkpt lat="50.04299" lon="2.34344">
        <ele>140.3</ele>
        <time>2023-12-20T14:43:13Z</time>
      </trkpt>
      <trkpt lat="50.043" lon="2.34341">
        <ele>140.3</ele>
        <time>2023-12-20T14:43:15Z</time>
      </trkpt>
      <trkpt lat="50.04301" lon="2.3434">
        <ele>140.3</ele>
        <time>2023-12-20T14:43:16Z</time>
      </trkpt>
      <trkpt lat="50.04301" lon="2.3434">
        <ele>140.2</ele>
        <time>2023-12-20T14:43:17Z</time>
      </trkpt>
      <trkpt lat="50.04303" lon="2.34338">
        <ele>140.2</ele>
        <time>2023-12-20T14:43:18Z</time>
      </trkpt>
      <trkpt lat="50.04304" lon="2.34337">
        <ele>140.2</ele>
        <time>2023-12-20T14:43:19Z</time>
      </trkpt>
      <trkpt lat="50.04304" lon="2.34336">
        <ele>140.2</ele>
        <time>2023-12-20T14:43:20Z</time>
      </trkpt>
      <trkpt lat="50.04305" lon="2.34335">
        <ele>140.1</ele>
        <time>2023-12-20T14:43:21Z</time>
      </trkpt>
      <trkpt lat="50.04307" lon="2.34334">
        <ele>140.1</ele>
        <time>2023-12-20T14:43:22Z</time>
      </trkpt>
      <trkpt lat="50.04308" lon="2.34333">
        <ele>140.1</ele>
        <time>2023-12-20T14:43:24Z</time>
      </trkpt>
      <trkpt lat="50.04309" lon="2.34332">
        <ele>140.1</ele>
        <time>2023-12-20T14:43:25Z</time>
      </trkpt>
      <trkpt lat="50.0431" lon="2.3433">
        <ele>140</ele>
        <time>2023-12-20T14:43:26Z</time>
      </trkpt>
      <trkpt lat="50.04311" lon="2.34329">
        <ele>140</ele>
        <time>2023-12-20T14:43:27Z</time>
      </trkpt>
      <trkpt lat="50.04312" lon="2.34327">
        <ele>140</ele>
        <time>2023-12-20T14:43:28Z</time>
      </trkpt>
      <trkpt lat="50.04314" lon="2.34326">
        <ele>140</ele>
        <time>2023-12-20T14:43:29Z</time>
      </trkpt>
      <trkpt lat="50.04315" lon="2.34324">
        <ele>139.9</ele>
        <time>2023-12-20T14:43:30Z</time>
      </trkpt>
      <trkpt lat="50.04316" lon="2.34322">
        <ele>139.9</ele>
        <time>2023-12-20T14:43:31Z</time>
      </trkpt>
      <trkpt lat="50.04317" lon="2.34321">
        <ele>139.9</ele>
        <time>2023-12-20T14:43:32Z</time>
      </trkpt>
      <trkpt lat="50.04318" lon="2.34321">
        <ele>139.9</ele>
        <time>2023-12-20T14:43:33Z</time>
      </trkpt>
      <trkpt lat="50.04319" lon="2.34318">
        <ele>139.8</ele>
        <time>2023-12-20T14:43:35Z</time>
      </trkpt>
      <trkpt lat="50.0432" lon="2.34317">
        <ele>139.8</ele>
        <time>2023-12-20T14:43:36Z</time>
      </trkpt>
      <trkpt lat="50.0432" lon="2.34316">
        <ele>139.8</ele>
        <time>2023-12-20T14:43:37Z</time>
      </trkpt>
      <trkpt lat="50.04322" lon="2.34314">
        <ele>139.8</ele>
        <time>2023-12-20T14:43:38Z</time>
      </trkpt>
      <trkpt lat="50.04322" lon="2.34313">
        <ele>139.8</ele>
        <time>2023-12-20T14:43:39Z</time>
      </trkpt>
      <trkpt lat="50.04323" lon="2.34312">
        <ele>139.7</ele>
        <time>2023-12-20T14:43:40Z</time>
      </trkpt>
      <trkpt lat="50.04325" lon="2.3431">
        <ele>139.7</ele>
        <time>2023-12-20T14:43:42Z</time>
      </trkpt>
      <trkpt lat="50.04325" lon="2.34309">
        <ele>139.7</ele>
        <time>2023-12-20T14:43:43Z</time>
      </trkpt>
      <trkpt lat="50.04326" lon="2.34308">
        <ele>139.7</ele>
        <time>2023-12-20T14:43:44Z</time>
      </trkpt>
      <trkpt lat="50.04327" lon="2.34307">
        <ele>139.6</ele>
        <time>2023-12-20T14:43:45Z</time>
      </trkpt>
      <trkpt lat="50.04328" lon="2.34306">
        <ele>139.6</ele>
        <time>2023-12-20T14:43:46Z</time>
      </trkpt>
      <trkpt lat="50.04328" lon="2.34304">
        <ele>139.6</ele>
        <time>2023-12-20T14:43:47Z</time>
      </trkpt>
      <trkpt lat="50.04329" lon="2.34303">
        <ele>139.6</ele>
        <time>2023-12-20T14:43:48Z</time>
      </trkpt>
      <trkpt lat="50.0433" lon="2.34301">
        <ele>139.6</ele>
        <time>2023-12-20T14:43:49Z</time>
      </trkpt>
      <trkpt lat="50.0433" lon="2.343">
        <ele>139.5</ele>
        <time>2023-12-20T14:43:50Z</time>
      </trkpt>
      <trkpt lat="50.04332" lon="2.34297">
        <ele>139.5</ele>
        <time>2023-12-20T14:43:51Z</time>
      </trkpt>
      <trkpt lat="50.04332" lon="2.34296">
        <ele>139.5</ele>
        <time>2023-12-20T14:43:52Z</time>
      </trkpt>
      <trkpt lat="50.04333" lon="2.34295">
        <ele>139.5</ele>
        <time>2023-12-20T14:43:53Z</time>
      </trkpt>
      <trkpt lat="50.04334" lon="2.34292">
        <ele>139.4</ele>
        <time>2023-12-20T14:43:55Z</time>
      </trkpt>
      <trkpt lat="50.04334" lon="2.34291">
        <ele>139.4</ele>
        <time>2023-12-20T14:43:56Z</time>
      </trkpt>
      <trkpt lat="50.04335" lon="2.3429">
        <ele>139.4</ele>
        <time>2023-12-20T14:43:57Z</time>
      </trkpt>
      <trkpt lat="50.04336" lon="2.34289">
        <ele>139.3</ele>
        <time>2023-12-20T14:43:58Z</time>
      </trkpt>
      <trkpt lat="50.04336" lon="2.34288">
        <ele>139.3</ele>
        <time>2023-12-20T14:43:59Z</time>
      </trkpt>
      <trkpt lat="50.04337" lon="2.34287">
        <ele>139.3</ele>
        <time>2023-12-20T14:44:00Z</time>
      </trkpt>
      <trkpt lat="50.04338" lon="2.34286">
        <ele>139.3</ele>
        <time>2023-12-20T14:44:02Z</time>
      </trkpt>
      <trkpt lat="50.04339" lon="2.34285">
        <ele>139.3</ele>
        <time>2023-12-20T14:44:03Z</time>
      </trkpt>
      <trkpt lat="50.0434" lon="2.34284">
        <ele>139.2</ele>
        <time>2023-12-20T14:44:04Z</time>
      </trkpt>
      <trkpt lat="50.04341" lon="2.34282">
        <ele>139.2</ele>
        <time>2023-12-20T14:44:05Z</time>
      </trkpt>
      <trkpt lat="50.04342" lon="2.34281">
        <ele>139.2</ele>
        <time>2023-12-20T14:44:07Z</time>
      </trkpt>
      <trkpt lat="50.04343" lon="2.34279">
        <ele>139.1</ele>
        <time>2023-12-20T14:44:08Z</time>
      </trkpt>
      <trkpt lat="50.04344" lon="2.34278">
        <ele>139.1</ele>
        <time>2023-12-20T14:44:09Z</time>
      </trkpt>
      <trkpt lat="50.04346" lon="2.34276">
        <ele>139.1</ele>
        <time>2023-12-20T14:44:10Z</time>
      </trkpt>
      <trkpt lat="50.04347" lon="2.34275">
        <ele>139</ele>
        <time>2023-12-20T14:44:11Z</time>
      </trkpt>
      <trkpt lat="50.04348" lon="2.34274">
        <ele>139</ele>
        <time>2023-12-20T14:44:12Z</time>
      </trkpt>
      <trkpt lat="50.04349" lon="2.34272">
        <ele>139</ele>
        <time>2023-12-20T14:44:13Z</time>
      </trkpt>
      <trkpt lat="50.0435" lon="2.34271">
        <ele>138.9</ele>
        <time>2023-12-20T14:44:15Z</time>
      </trkpt>
      <trkpt lat="50.04351" lon="2.34268">
        <ele>138.9</ele>
        <time>2023-12-20T14:44:16Z</time>
      </trkpt>
      <trkpt lat="50.04352" lon="2.34267">
        <ele>138.9</ele>
        <time>2023-12-20T14:44:17Z</time>
      </trkpt>
      <trkpt lat="50.04352" lon="2.34266">
        <ele>138.9</ele>
        <time>2023-12-20T14:44:18Z</time>
      </trkpt>
      <trkpt lat="50.04353" lon="2.34265">
        <ele>138.8</ele>
        <time>2023-12-20T14:44:19Z</time>
      </trkpt>
      <trkpt lat="50.04354" lon="2.34263">
        <ele>138.8</ele>
        <time>2023-12-20T14:44:20Z</time>
      </trkpt>
      <trkpt lat="50.04356" lon="2.34261">
        <ele>138.7</ele>
        <time>2023-12-20T14:44:21Z</time>
      </trkpt>
      <trkpt lat="50.04356" lon="2.3426">
        <ele>138.7</ele>
        <time>2023-12-20T14:44:22Z</time>
      </trkpt>
      <trkpt lat="50.04357" lon="2.34259">
        <ele>138.7</ele>
        <time>2023-12-20T14:44:23Z</time>
      </trkpt>
      <trkpt lat="50.04359" lon="2.34256">
        <ele>138.7</ele>
        <time>2023-12-20T14:44:24Z</time>
      </trkpt>
      <trkpt lat="50.04359" lon="2.34255">
        <ele>138.6</ele>
        <time>2023-12-20T14:44:26Z</time>
      </trkpt>
      <trkpt lat="50.0436" lon="2.34254">
        <ele>138.6</ele>
        <time>2023-12-20T14:44:27Z</time>
      </trkpt>
      <trkpt lat="50.04361" lon="2.34253">
        <ele>138.6</ele>
        <time>2023-12-20T14:44:28Z</time>
      </trkpt>
      <trkpt lat="50.04362" lon="2.34252">
        <ele>138.6</ele>
        <time>2023-12-20T14:44:29Z</time>
      </trkpt>
      <trkpt lat="50.04363" lon="2.3425">
        <ele>138.6</ele>
        <time>2023-12-20T14:44:30Z</time>
      </trkpt>
      <trkpt lat="50.04364" lon="2.34249">
        <ele>138.5</ele>
        <time>2023-12-20T14:44:31Z</time>
      </trkpt>
      <trkpt lat="50.04365" lon="2.34248">
        <ele>138.5</ele>
        <time>2023-12-20T14:44:33Z</time>
      </trkpt>
      <trkpt lat="50.04366" lon="2.34246">
        <ele>138.5</ele>
        <time>2023-12-20T14:44:34Z</time>
      </trkpt>
      <trkpt lat="50.04367" lon="2.34245">
        <ele>138.4</ele>
        <time>2023-12-20T14:44:35Z</time>
      </trkpt>
      <trkpt lat="50.04369" lon="2.34243">
        <ele>138.4</ele>
        <time>2023-12-20T14:44:36Z</time>
      </trkpt>
      <trkpt lat="50.0437" lon="2.34243">
        <ele>138.4</ele>
        <time>2023-12-20T14:44:37Z</time>
      </trkpt>
      <trkpt lat="50.04371" lon="2.34242">
        <ele>138.4</ele>
        <time>2023-12-20T14:44:38Z</time>
      </trkpt>
      <trkpt lat="50.04372" lon="2.3424">
        <ele>138.3</ele>
        <time>2023-12-20T14:44:39Z</time>
      </trkpt>
      <trkpt lat="50.04373" lon="2.34239">
        <ele>138.3</ele>
        <time>2023-12-20T14:44:40Z</time>
      </trkpt>
      <trkpt lat="50.04374" lon="2.34238">
        <ele>138.3</ele>
        <time>2023-12-20T14:44:41Z</time>
      </trkpt>
      <trkpt lat="50.04375" lon="2.34236">
        <ele>138.3</ele>
        <time>2023-12-20T14:44:42Z</time>
      </trkpt>
      <trkpt lat="50.04376" lon="2.34235">
        <ele>138.2</ele>
        <time>2023-12-20T14:44:43Z</time>
      </trkpt>
      <trkpt lat="50.04377" lon="2.34234">
        <ele>138.2</ele>
        <time>2023-12-20T14:44:45Z</time>
      </trkpt>
      <trkpt lat="50.04378" lon="2.34232">
        <ele>138.2</ele>
        <time>2023-12-20T14:44:46Z</time>
      </trkpt>
      <trkpt lat="50.04379" lon="2.34231">
        <ele>138.1</ele>
        <time>2023-12-20T14:44:47Z</time>
      </trkpt>
      <trkpt lat="50.0438" lon="2.34229">
        <ele>138.1</ele>
        <time>2023-12-20T14:44:48Z</time>
      </trkpt>
      <trkpt lat="50.04381" lon="2.34228">
        <ele>138.1</ele>
        <time>2023-12-20T14:44:49Z</time>
      </trkpt>
      <trkpt lat="50.04382" lon="2.34227">
        <ele>138.1</ele>
        <time>2023-12-20T14:44:50Z</time>
      </trkpt>
      <trkpt lat="50.04383" lon="2.34226">
        <ele>138</ele>
        <time>2023-12-20T14:44:51Z</time>
      </trkpt>
      <trkpt lat="50.04384" lon="2.34225">
        <ele>138</ele>
        <time>2023-12-20T14:44:52Z</time>
      </trkpt>
      <trkpt lat="50.04385" lon="2.34223">
        <ele>138</ele>
        <time>2023-12-20T14:44:53Z</time>
      </trkpt>
      <trkpt lat="50.04386" lon="2.34222">
        <ele>138</ele>
        <time>2023-12-20T14:44:54Z</time>
      </trkpt>
      <trkpt lat="50.04387" lon="2.34221">
        <ele>137.9</ele>
        <time>2023-12-20T14:44:56Z</time>
      </trkpt>
      <trkpt lat="50.04388" lon="2.34219">
        <ele>137.9</ele>
        <time>2023-12-20T14:44:57Z</time>
      </trkpt>
      <trkpt lat="50.04389" lon="2.34218">
        <ele>137.9</ele>
        <time>2023-12-20T14:44:58Z</time>
      </trkpt>
      <trkpt lat="50.04391" lon="2.34216">
        <ele>137.8</ele>
        <time>2023-12-20T14:44:59Z</time>
      </trkpt>
      <trkpt lat="50.04391" lon="2.34215">
        <ele>137.8</ele>
        <time>2023-12-20T14:45:00Z</time>
      </trkpt>
      <trkpt lat="50.04392" lon="2.34215">
        <ele>137.8</ele>
        <time>2023-12-20T14:45:01Z</time>
      </trkpt>
      <trkpt lat="50.04394" lon="2.34213">
        <ele>137.7</ele>
        <time>2023-12-20T14:45:02Z</time>
      </trkpt>
      <trkpt lat="50.04395" lon="2.34212">
        <ele>137.7</ele>
        <time>2023-12-20T14:45:03Z</time>
      </trkpt>
      <trkpt lat="50.04395" lon="2.34211">
        <ele>137.7</ele>
        <time>2023-12-20T14:45:04Z</time>
      </trkpt>
      <trkpt lat="50.04397" lon="2.34209">
        <ele>137.7</ele>
        <time>2023-12-20T14:45:05Z</time>
      </trkpt>
      <trkpt lat="50.04398" lon="2.34208">
        <ele>137.6</ele>
        <time>2023-12-20T14:45:07Z</time>
      </trkpt>
      <trkpt lat="50.04398" lon="2.34207">
        <ele>137.6</ele>
        <time>2023-12-20T14:45:08Z</time>
      </trkpt>
      <trkpt lat="50.044" lon="2.34206">
        <ele>137.6</ele>
        <time>2023-12-20T14:45:09Z</time>
      </trkpt>
      <trkpt lat="50.04401" lon="2.34204">
        <ele>137.6</ele>
        <time>2023-12-20T14:45:10Z</time>
      </trkpt>
      <trkpt lat="50.04402" lon="2.34203">
        <ele>137.5</ele>
        <time>2023-12-20T14:45:11Z</time>
      </trkpt>
      <trkpt lat="50.04402" lon="2.34202">
        <ele>137.5</ele>
        <time>2023-12-20T14:45:12Z</time>
      </trkpt>
      <trkpt lat="50.04403" lon="2.34201">
        <ele>137.5</ele>
        <time>2023-12-20T14:45:13Z</time>
      </trkpt>
      <trkpt lat="50.04405" lon="2.34199">
        <ele>137.4</ele>
        <time>2023-12-20T14:45:14Z</time>
      </trkpt>
      <trkpt lat="50.04406" lon="2.34198">
        <ele>137.4</ele>
        <time>2023-12-20T14:45:16Z</time>
      </trkpt>
      <trkpt lat="50.04406" lon="2.34197">
        <ele>137.4</ele>
        <time>2023-12-20T14:45:17Z</time>
      </trkpt>
      <trkpt lat="50.04408" lon="2.34196">
        <ele>137.4</ele>
        <time>2023-12-20T14:45:18Z</time>
      </trkpt>
      <trkpt lat="50.04409" lon="2.34194">
        <ele>137.3</ele>
        <time>2023-12-20T14:45:19Z</time>
      </trkpt>
      <trkpt lat="50.04409" lon="2.34193">
        <ele>137.3</ele>
        <time>2023-12-20T14:45:20Z</time>
      </trkpt>
      <trkpt lat="50.0441" lon="2.34192">
        <ele>137.3</ele>
        <time>2023-12-20T14:45:21Z</time>
      </trkpt>
      <trkpt lat="50.04411" lon="2.34191">
        <ele>137.3</ele>
        <time>2023-12-20T14:45:23Z</time>
      </trkpt>
      <trkpt lat="50.04412" lon="2.34189">
        <ele>137.2</ele>
        <time>2023-12-20T14:45:24Z</time>
      </trkpt>
      <trkpt lat="50.04413" lon="2.34187">
        <ele>137.2</ele>
        <time>2023-12-20T14:45:25Z</time>
      </trkpt>
      <trkpt lat="50.04414" lon="2.34186">
        <ele>137.2</ele>
        <time>2023-12-20T14:45:26Z</time>
      </trkpt>
      <trkpt lat="50.04415" lon="2.34182">
        <ele>137.1</ele>
        <time>2023-12-20T14:45:28Z</time>
      </trkpt>
      <trkpt lat="50.04416" lon="2.34179">
        <ele>137.1</ele>
        <time>2023-12-20T14:45:29Z</time>
      </trkpt>
      <trkpt lat="50.04417" lon="2.34178">
        <ele>137.1</ele>
        <time>2023-12-20T14:45:31Z</time>
      </trkpt>
      <trkpt lat="50.04417" lon="2.34177">
        <ele>137.1</ele>
        <time>2023-12-20T14:45:32Z</time>
      </trkpt>
      <trkpt lat="50.04418" lon="2.34176">
        <ele>137</ele>
        <time>2023-12-20T14:45:33Z</time>
      </trkpt>
      <trkpt lat="50.04419" lon="2.34175">
        <ele>137</ele>
        <time>2023-12-20T14:45:34Z</time>
      </trkpt>
      <trkpt lat="50.04419" lon="2.34173">
        <ele>137</ele>
        <time>2023-12-20T14:45:35Z</time>
      </trkpt>
      <trkpt lat="50.04421" lon="2.34171">
        <ele>136.9</ele>
        <time>2023-12-20T14:45:36Z</time>
      </trkpt>
      <trkpt lat="50.04421" lon="2.34169">
        <ele>136.9</ele>
        <time>2023-12-20T14:45:37Z</time>
      </trkpt>
      <trkpt lat="50.04422" lon="2.34168">
        <ele>136.9</ele>
        <time>2023-12-20T14:45:39Z</time>
      </trkpt>
      <trkpt lat="50.04423" lon="2.34167">
        <ele>136.9</ele>
        <time>2023-12-20T14:45:40Z</time>
      </trkpt>
      <trkpt lat="50.04423" lon="2.34166">
        <ele>136.8</ele>
        <time>2023-12-20T14:45:41Z</time>
      </trkpt>
      <trkpt lat="50.04424" lon="2.34164">
        <ele>136.8</ele>
        <time>2023-12-20T14:45:42Z</time>
      </trkpt>
      <trkpt lat="50.04425" lon="2.34163">
        <ele>136.8</ele>
        <time>2023-12-20T14:45:43Z</time>
      </trkpt>
      <trkpt lat="50.04426" lon="2.34161">
        <ele>136.8</ele>
        <time>2023-12-20T14:45:44Z</time>
      </trkpt>
      <trkpt lat="50.04426" lon="2.3416">
        <ele>136.7</ele>
        <time>2023-12-20T14:45:45Z</time>
      </trkpt>
      <trkpt lat="50.04428" lon="2.34158">
        <ele>136.7</ele>
        <time>2023-12-20T14:45:47Z</time>
      </trkpt>
      <trkpt lat="50.04428" lon="2.34157">
        <ele>136.7</ele>
        <time>2023-12-20T14:45:48Z</time>
      </trkpt>
      <trkpt lat="50.04429" lon="2.34156">
        <ele>136.6</ele>
        <time>2023-12-20T14:45:49Z</time>
      </trkpt>
      <trkpt lat="50.04431" lon="2.34154">
        <ele>136.6</ele>
        <time>2023-12-20T14:45:50Z</time>
      </trkpt>
      <trkpt lat="50.04432" lon="2.34153">
        <ele>136.6</ele>
        <time>2023-12-20T14:45:51Z</time>
      </trkpt>
      <trkpt lat="50.04432" lon="2.34153">
        <ele>136.6</ele>
        <time>2023-12-20T14:45:52Z</time>
      </trkpt>
      <trkpt lat="50.04433" lon="2.34151">
        <ele>136.5</ele>
        <time>2023-12-20T14:45:53Z</time>
      </trkpt>
      <trkpt lat="50.04435" lon="2.3415">
        <ele>136.5</ele>
        <time>2023-12-20T14:45:54Z</time>
      </trkpt>
      <trkpt lat="50.04435" lon="2.34149">
        <ele>136.5</ele>
        <time>2023-12-20T14:45:56Z</time>
      </trkpt>
      <trkpt lat="50.04437" lon="2.34147">
        <ele>136.4</ele>
        <time>2023-12-20T14:45:57Z</time>
      </trkpt>
      <trkpt lat="50.04438" lon="2.34146">
        <ele>136.4</ele>
        <time>2023-12-20T14:45:58Z</time>
      </trkpt>
      <trkpt lat="50.04439" lon="2.34145">
        <ele>136.4</ele>
        <time>2023-12-20T14:45:59Z</time>
      </trkpt>
      <trkpt lat="50.0444" lon="2.34143">
        <ele>136.3</ele>
        <time>2023-12-20T14:46:00Z</time>
      </trkpt>
      <trkpt lat="50.04441" lon="2.34142">
        <ele>136.3</ele>
        <time>2023-12-20T14:46:02Z</time>
      </trkpt>
      <trkpt lat="50.04442" lon="2.3414">
        <ele>136.3</ele>
        <time>2023-12-20T14:46:03Z</time>
      </trkpt>
      <trkpt lat="50.04443" lon="2.34139">
        <ele>136.2</ele>
        <time>2023-12-20T14:46:04Z</time>
      </trkpt>
      <trkpt lat="50.04444" lon="2.34138">
        <ele>136.2</ele>
        <time>2023-12-20T14:46:05Z</time>
      </trkpt>
      <trkpt lat="50.04445" lon="2.34136">
        <ele>136.2</ele>
        <time>2023-12-20T14:46:06Z</time>
      </trkpt>
      <trkpt lat="50.04447" lon="2.34134">
        <ele>136.1</ele>
        <time>2023-12-20T14:46:07Z</time>
      </trkpt>
      <trkpt lat="50.04448" lon="2.34133">
        <ele>136.1</ele>
        <time>2023-12-20T14:46:08Z</time>
      </trkpt>
      <trkpt lat="50.04449" lon="2.34133">
        <ele>136.1</ele>
        <time>2023-12-20T14:46:09Z</time>
      </trkpt>
      <trkpt lat="50.0445" lon="2.34131">
        <ele>136.1</ele>
        <time>2023-12-20T14:46:11Z</time>
      </trkpt>
      <trkpt lat="50.04451" lon="2.3413">
        <ele>136</ele>
        <time>2023-12-20T14:46:12Z</time>
      </trkpt>
      <trkpt lat="50.04452" lon="2.34128">
        <ele>136</ele>
        <time>2023-12-20T14:46:13Z</time>
      </trkpt>
      <trkpt lat="50.04453" lon="2.34126">
        <ele>135.9</ele>
        <time>2023-12-20T14:46:14Z</time>
      </trkpt>
      <trkpt lat="50.04455" lon="2.34124">
        <ele>135.9</ele>
        <time>2023-12-20T14:46:15Z</time>
      </trkpt>
      <trkpt lat="50.04455" lon="2.34123">
        <ele>135.9</ele>
        <time>2023-12-20T14:46:16Z</time>
      </trkpt>
      <trkpt lat="50.04456" lon="2.34122">
        <ele>135.8</ele>
        <time>2023-12-20T14:46:17Z</time>
      </trkpt>
      <trkpt lat="50.04458" lon="2.3412">
        <ele>135.8</ele>
        <time>2023-12-20T14:46:19Z</time>
      </trkpt>
      <trkpt lat="50.04458" lon="2.34119">
        <ele>135.8</ele>
        <time>2023-12-20T14:46:20Z</time>
      </trkpt>
      <trkpt lat="50.04459" lon="2.34118">
        <ele>135.8</ele>
        <time>2023-12-20T14:46:21Z</time>
      </trkpt>
      <trkpt lat="50.0446" lon="2.34116">
        <ele>135.7</ele>
        <time>2023-12-20T14:46:22Z</time>
      </trkpt>
      <trkpt lat="50.04462" lon="2.34115">
        <ele>135.7</ele>
        <time>2023-12-20T14:46:24Z</time>
      </trkpt>
      <trkpt lat="50.04463" lon="2.34113">
        <ele>135.6</ele>
        <time>2023-12-20T14:46:25Z</time>
      </trkpt>
      <trkpt lat="50.04464" lon="2.34112">
        <ele>135.6</ele>
        <time>2023-12-20T14:46:26Z</time>
      </trkpt>
      <trkpt lat="50.04465" lon="2.34111">
        <ele>135.6</ele>
        <time>2023-12-20T14:46:27Z</time>
      </trkpt>
      <trkpt lat="50.04465" lon="2.34109">
        <ele>135.5</ele>
        <time>2023-12-20T14:46:28Z</time>
      </trkpt>
      <trkpt lat="50.04466" lon="2.34108">
        <ele>135.5</ele>
        <time>2023-12-20T14:46:29Z</time>
      </trkpt>
      <trkpt lat="50.04467" lon="2.34107">
        <ele>135.5</ele>
        <time>2023-12-20T14:46:31Z</time>
      </trkpt>
      <trkpt lat="50.04468" lon="2.34105">
        <ele>135.4</ele>
        <time>2023-12-20T14:46:32Z</time>
      </trkpt>
      <trkpt lat="50.04468" lon="2.34104">
        <ele>135.4</ele>
        <time>2023-12-20T14:46:33Z</time>
      </trkpt>
      <trkpt lat="50.04469" lon="2.34102">
        <ele>135.4</ele>
        <time>2023-12-20T14:46:34Z</time>
      </trkpt>
      <trkpt lat="50.0447" lon="2.34101">
        <ele>135.3</ele>
        <time>2023-12-20T14:46:35Z</time>
      </trkpt>
      <trkpt lat="50.04471" lon="2.34099">
        <ele>135.3</ele>
        <time>2023-12-20T14:46:36Z</time>
      </trkpt>
      <trkpt lat="50.04472" lon="2.34098">
        <ele>135.3</ele>
        <time>2023-12-20T14:46:37Z</time>
      </trkpt>
      <trkpt lat="50.04474" lon="2.34096">
        <ele>135.2</ele>
        <time>2023-12-20T14:46:39Z</time>
      </trkpt>
      <trkpt lat="50.04475" lon="2.34095">
        <ele>135.2</ele>
        <time>2023-12-20T14:46:40Z</time>
      </trkpt>
      <trkpt lat="50.04476" lon="2.34094">
        <ele>135.2</ele>
        <time>2023-12-20T14:46:41Z</time>
      </trkpt>
      <trkpt lat="50.04477" lon="2.34092">
        <ele>135.1</ele>
        <time>2023-12-20T14:46:43Z</time>
      </trkpt>
      <trkpt lat="50.04478" lon="2.3409">
        <ele>135.1</ele>
        <time>2023-12-20T14:46:44Z</time>
      </trkpt>
      <trkpt lat="50.04479" lon="2.34089">
        <ele>135.1</ele>
        <time>2023-12-20T14:46:45Z</time>
      </trkpt>
      <trkpt lat="50.0448" lon="2.34087">
        <ele>135</ele>
        <time>2023-12-20T14:46:46Z</time>
      </trkpt>
      <trkpt lat="50.04481" lon="2.34086">
        <ele>135</ele>
        <time>2023-12-20T14:46:48Z</time>
      </trkpt>
      <trkpt lat="50.04483" lon="2.34083">
        <ele>134.9</ele>
        <time>2023-12-20T14:46:49Z</time>
      </trkpt>
      <trkpt lat="50.04484" lon="2.34082">
        <ele>134.9</ele>
        <time>2023-12-20T14:46:50Z</time>
      </trkpt>
      <trkpt lat="50.04484" lon="2.34081">
        <ele>134.9</ele>
        <time>2023-12-20T14:46:51Z</time>
      </trkpt>
      <trkpt lat="50.04485" lon="2.34079">
        <ele>134.9</ele>
        <time>2023-12-20T14:46:52Z</time>
      </trkpt>
      <trkpt lat="50.04486" lon="2.34078">
        <ele>134.9</ele>
        <time>2023-12-20T14:46:53Z</time>
      </trkpt>
      <trkpt lat="50.04486" lon="2.34076">
        <ele>134.8</ele>
        <time>2023-12-20T14:46:54Z</time>
      </trkpt>
      <trkpt lat="50.04488" lon="2.34074">
        <ele>134.8</ele>
        <time>2023-12-20T14:46:56Z</time>
      </trkpt>
      <trkpt lat="50.04488" lon="2.34073">
        <ele>134.8</ele>
        <time>2023-12-20T14:46:57Z</time>
      </trkpt>
      <trkpt lat="50.04489" lon="2.34071">
        <ele>134.8</ele>
        <time>2023-12-20T14:46:58Z</time>
      </trkpt>
      <trkpt lat="50.0449" lon="2.3407">
        <ele>134.7</ele>
        <time>2023-12-20T14:46:59Z</time>
      </trkpt>
      <trkpt lat="50.04491" lon="2.34068">
        <ele>134.7</ele>
        <time>2023-12-20T14:47:00Z</time>
      </trkpt>
      <trkpt lat="50.04491" lon="2.34067">
        <ele>134.7</ele>
        <time>2023-12-20T14:47:01Z</time>
      </trkpt>
      <trkpt lat="50.04492" lon="2.34065">
        <ele>134.7</ele>
        <time>2023-12-20T14:47:02Z</time>
      </trkpt>
      <trkpt lat="50.04494" lon="2.34063">
        <ele>134.6</ele>
        <time>2023-12-20T14:47:03Z</time>
      </trkpt>
      <trkpt lat="50.04495" lon="2.34062">
        <ele>134.6</ele>
        <time>2023-12-20T14:47:04Z</time>
      </trkpt>
      <trkpt lat="50.04495" lon="2.34061">
        <ele>134.6</ele>
        <time>2023-12-20T14:47:05Z</time>
      </trkpt>
      <trkpt lat="50.04497" lon="2.34059">
        <ele>134.6</ele>
        <time>2023-12-20T14:47:07Z</time>
      </trkpt>
      <trkpt lat="50.04498" lon="2.34058">
        <ele>134.6</ele>
        <time>2023-12-20T14:47:08Z</time>
      </trkpt>
      <trkpt lat="50.04498" lon="2.34057">
        <ele>134.5</ele>
        <time>2023-12-20T14:47:09Z</time>
      </trkpt>
      <trkpt lat="50.045" lon="2.34055">
        <ele>134.5</ele>
        <time>2023-12-20T14:47:10Z</time>
      </trkpt>
      <trkpt lat="50.045" lon="2.34054">
        <ele>134.5</ele>
        <time>2023-12-20T14:47:11Z</time>
      </trkpt>
      <trkpt lat="50.04501" lon="2.34053">
        <ele>134.5</ele>
        <time>2023-12-20T14:47:12Z</time>
      </trkpt>
      <trkpt lat="50.04502" lon="2.34052">
        <ele>134.4</ele>
        <time>2023-12-20T14:47:13Z</time>
      </trkpt>
      <trkpt lat="50.04504" lon="2.3405">
        <ele>134.4</ele>
        <time>2023-12-20T14:47:15Z</time>
      </trkpt>
      <trkpt lat="50.04505" lon="2.34049">
        <ele>134.4</ele>
        <time>2023-12-20T14:47:16Z</time>
      </trkpt>
      <trkpt lat="50.04506" lon="2.34048">
        <ele>134.4</ele>
        <time>2023-12-20T14:47:17Z</time>
      </trkpt>
      <trkpt lat="50.04507" lon="2.34047">
        <ele>134.3</ele>
        <time>2023-12-20T14:47:19Z</time>
      </trkpt>
      <trkpt lat="50.04509" lon="2.34045">
        <ele>134.3</ele>
        <time>2023-12-20T14:47:20Z</time>
      </trkpt>
      <trkpt lat="50.0451" lon="2.34044">
        <ele>134.3</ele>
        <time>2023-12-20T14:47:21Z</time>
      </trkpt>
      <trkpt lat="50.04511" lon="2.34043">
        <ele>134.3</ele>
        <time>2023-12-20T14:47:23Z</time>
      </trkpt>
      <trkpt lat="50.04512" lon="2.34042">
        <ele>134.2</ele>
        <time>2023-12-20T14:47:24Z</time>
      </trkpt>
      <trkpt lat="50.04513" lon="2.34041">
        <ele>134.2</ele>
        <time>2023-12-20T14:47:25Z</time>
      </trkpt>
      <trkpt lat="50.04514" lon="2.34039">
        <ele>134.2</ele>
        <time>2023-12-20T14:47:26Z</time>
      </trkpt>
      <trkpt lat="50.04515" lon="2.34038">
        <ele>134.1</ele>
        <time>2023-12-20T14:47:27Z</time>
      </trkpt>
      <trkpt lat="50.04516" lon="2.34037">
        <ele>134.1</ele>
        <time>2023-12-20T14:47:28Z</time>
      </trkpt>
      <trkpt lat="50.04518" lon="2.34034">
        <ele>134.1</ele>
        <time>2023-12-20T14:47:29Z</time>
      </trkpt>
      <trkpt lat="50.04518" lon="2.34033">
        <ele>134.1</ele>
        <time>2023-12-20T14:47:31Z</time>
      </trkpt>
      <trkpt lat="50.04519" lon="2.34032">
        <ele>134</ele>
        <time>2023-12-20T14:47:32Z</time>
      </trkpt>
      <trkpt lat="50.04521" lon="2.3403">
        <ele>134</ele>
        <time>2023-12-20T14:47:33Z</time>
      </trkpt>
      <trkpt lat="50.04521" lon="2.34029">
        <ele>134</ele>
        <time>2023-12-20T14:47:34Z</time>
      </trkpt>
      <trkpt lat="50.04522" lon="2.34028">
        <ele>134</ele>
        <time>2023-12-20T14:47:35Z</time>
      </trkpt>
      <trkpt lat="50.04523" lon="2.34026">
        <ele>133.9</ele>
        <time>2023-12-20T14:47:36Z</time>
      </trkpt>
      <trkpt lat="50.04523" lon="2.34024">
        <ele>133.9</ele>
        <time>2023-12-20T14:47:38Z</time>
      </trkpt>
      <trkpt lat="50.04524" lon="2.34022">
        <ele>133.9</ele>
        <time>2023-12-20T14:47:39Z</time>
      </trkpt>
      <trkpt lat="50.04525" lon="2.34021">
        <ele>133.9</ele>
        <time>2023-12-20T14:47:40Z</time>
      </trkpt>
      <trkpt lat="50.04526" lon="2.34019">
        <ele>133.8</ele>
        <time>2023-12-20T14:47:41Z</time>
      </trkpt>
      <trkpt lat="50.04527" lon="2.34017">
        <ele>133.8</ele>
        <time>2023-12-20T14:47:42Z</time>
      </trkpt>
      <trkpt lat="50.04527" lon="2.34016">
        <ele>133.8</ele>
        <time>2023-12-20T14:47:44Z</time>
      </trkpt>
      <trkpt lat="50.04528" lon="2.34013">
        <ele>133.8</ele>
        <time>2023-12-20T14:47:45Z</time>
      </trkpt>
      <trkpt lat="50.04528" lon="2.34011">
        <ele>133.7</ele>
        <time>2023-12-20T14:47:46Z</time>
      </trkpt>
      <trkpt lat="50.04528" lon="2.3401">
        <ele>133.7</ele>
        <time>2023-12-20T14:47:47Z</time>
      </trkpt>
      <trkpt lat="50.04529" lon="2.34007">
        <ele>133.7</ele>
        <time>2023-12-20T14:47:48Z</time>
      </trkpt>
      <trkpt lat="50.0453" lon="2.34005">
        <ele>133.7</ele>
        <time>2023-12-20T14:47:49Z</time>
      </trkpt>
      <trkpt lat="50.0453" lon="2.34004">
        <ele>133.7</ele>
        <time>2023-12-20T14:47:50Z</time>
      </trkpt>
      <trkpt lat="50.0453" lon="2.34002">
        <ele>133.7</ele>
        <time>2023-12-20T14:47:51Z</time>
      </trkpt>
      <trkpt lat="50.04531" lon="2.33999">
        <ele>133.6</ele>
        <time>2023-12-20T14:47:53Z</time>
      </trkpt>
      <trkpt lat="50.04532" lon="2.33997">
        <ele>133.6</ele>
        <time>2023-12-20T14:47:55Z</time>
      </trkpt>
      <trkpt lat="50.04532" lon="2.33995">
        <ele>133.6</ele>
        <time>2023-12-20T14:47:56Z</time>
      </trkpt>
      <trkpt lat="50.04533" lon="2.33992">
        <ele>133.6</ele>
        <time>2023-12-20T14:47:57Z</time>
      </trkpt>
      <trkpt lat="50.04534" lon="2.33991">
        <ele>133.6</ele>
        <time>2023-12-20T14:47:58Z</time>
      </trkpt>
      <trkpt lat="50.04534" lon="2.3399">
        <ele>133.5</ele>
        <time>2023-12-20T14:47:59Z</time>
      </trkpt>
      <trkpt lat="50.04535" lon="2.33988">
        <ele>133.5</ele>
        <time>2023-12-20T14:48:00Z</time>
      </trkpt>
      <trkpt lat="50.04536" lon="2.33986">
        <ele>133.5</ele>
        <time>2023-12-20T14:48:01Z</time>
      </trkpt>
      <trkpt lat="50.04537" lon="2.33983">
        <ele>133.5</ele>
        <time>2023-12-20T14:48:03Z</time>
      </trkpt>
      <trkpt lat="50.04537" lon="2.33982">
        <ele>133.5</ele>
        <time>2023-12-20T14:48:04Z</time>
      </trkpt>
      <trkpt lat="50.04538" lon="2.33981">
        <ele>133.5</ele>
        <time>2023-12-20T14:48:05Z</time>
      </trkpt>
      <trkpt lat="50.04538" lon="2.33979">
        <ele>133.4</ele>
        <time>2023-12-20T14:48:06Z</time>
      </trkpt>
      <trkpt lat="50.04539" lon="2.33978">
        <ele>133.4</ele>
        <time>2023-12-20T14:48:07Z</time>
      </trkpt>
      <trkpt lat="50.04539" lon="2.33976">
        <ele>133.4</ele>
        <time>2023-12-20T14:48:08Z</time>
      </trkpt>
      <trkpt lat="50.0454" lon="2.33975">
        <ele>133.4</ele>
        <time>2023-12-20T14:48:09Z</time>
      </trkpt>
      <trkpt lat="50.0454" lon="2.33973">
        <ele>133.4</ele>
        <time>2023-12-20T14:48:10Z</time>
      </trkpt>
      <trkpt lat="50.04541" lon="2.33971">
        <ele>133.3</ele>
        <time>2023-12-20T14:48:11Z</time>
      </trkpt>
      <trkpt lat="50.04542" lon="2.33968">
        <ele>133.3</ele>
        <time>2023-12-20T14:48:12Z</time>
      </trkpt>
      <trkpt lat="50.04542" lon="2.33967">
        <ele>133.3</ele>
        <time>2023-12-20T14:48:14Z</time>
      </trkpt>
      <trkpt lat="50.04542" lon="2.33966">
        <ele>133.3</ele>
        <time>2023-12-20T14:48:15Z</time>
      </trkpt>
      <trkpt lat="50.04543" lon="2.33964">
        <ele>133.3</ele>
        <time>2023-12-20T14:48:16Z</time>
      </trkpt>
      <trkpt lat="50.04543" lon="2.33962">
        <ele>133.2</ele>
        <time>2023-12-20T14:48:17Z</time>
      </trkpt>
      <trkpt lat="50.04544" lon="2.33958">
        <ele>133.2</ele>
        <time>2023-12-20T14:48:18Z</time>
      </trkpt>
      <trkpt lat="50.04545" lon="2.33956">
        <ele>133.2</ele>
        <time>2023-12-20T14:48:19Z</time>
      </trkpt>
      <trkpt lat="50.04545" lon="2.33954">
        <ele>133.1</ele>
        <time>2023-12-20T14:48:21Z</time>
      </trkpt>
      <trkpt lat="50.04546" lon="2.33953">
        <ele>133.1</ele>
        <time>2023-12-20T14:48:23Z</time>
      </trkpt>
      <trkpt lat="50.04546" lon="2.33951">
        <ele>133.1</ele>
        <time>2023-12-20T14:48:24Z</time>
      </trkpt>
      <trkpt lat="50.04547" lon="2.33949">
        <ele>133.1</ele>
        <time>2023-12-20T14:48:25Z</time>
      </trkpt>
      <trkpt lat="50.04548" lon="2.33948">
        <ele>133</ele>
        <time>2023-12-20T14:48:26Z</time>
      </trkpt>
      <trkpt lat="50.0455" lon="2.33942">
        <ele>132.9</ele>
        <time>2023-12-20T14:48:28Z</time>
      </trkpt>
      <trkpt lat="50.0455" lon="2.33941">
        <ele>132.9</ele>
        <time>2023-12-20T14:48:29Z</time>
      </trkpt>
      <trkpt lat="50.04551" lon="2.33939">
        <ele>132.9</ele>
        <time>2023-12-20T14:48:31Z</time>
      </trkpt>
      <trkpt lat="50.04551" lon="2.33938">
        <ele>132.9</ele>
        <time>2023-12-20T14:48:32Z</time>
      </trkpt>
      <trkpt lat="50.04552" lon="2.33936">
        <ele>132.8</ele>
        <time>2023-12-20T14:48:33Z</time>
      </trkpt>
      <trkpt lat="50.04553" lon="2.33935">
        <ele>132.8</ele>
        <time>2023-12-20T14:48:34Z</time>
      </trkpt>
      <trkpt lat="50.04553" lon="2.33933">
        <ele>132.8</ele>
        <time>2023-12-20T14:48:35Z</time>
      </trkpt>
      <trkpt lat="50.04554" lon="2.33932">
        <ele>132.8</ele>
        <time>2023-12-20T14:48:37Z</time>
      </trkpt>
      <trkpt lat="50.04555" lon="2.3393">
        <ele>132.7</ele>
        <time>2023-12-20T14:48:38Z</time>
      </trkpt>
      <trkpt lat="50.04556" lon="2.33928">
        <ele>132.7</ele>
        <time>2023-12-20T14:48:39Z</time>
      </trkpt>
      <trkpt lat="50.04556" lon="2.33926">
        <ele>132.6</ele>
        <time>2023-12-20T14:48:40Z</time>
      </trkpt>
      <trkpt lat="50.04557" lon="2.33924">
        <ele>132.6</ele>
        <time>2023-12-20T14:48:41Z</time>
      </trkpt>
      <trkpt lat="50.04558" lon="2.33922">
        <ele>132.6</ele>
        <time>2023-12-20T14:48:42Z</time>
      </trkpt>
      <trkpt lat="50.04559" lon="2.33919">
        <ele>132.5</ele>
        <time>2023-12-20T14:48:44Z</time>
      </trkpt>
      <trkpt lat="50.0456" lon="2.33917">
        <ele>132.5</ele>
        <time>2023-12-20T14:48:46Z</time>
      </trkpt>
      <trkpt lat="50.04561" lon="2.33914">
        <ele>132.4</ele>
        <time>2023-12-20T14:48:47Z</time>
      </trkpt>
      <trkpt lat="50.04562" lon="2.33913">
        <ele>132.4</ele>
        <time>2023-12-20T14:48:48Z</time>
      </trkpt>
      <trkpt lat="50.04562" lon="2.33911">
        <ele>132.4</ele>
        <time>2023-12-20T14:48:49Z</time>
      </trkpt>
      <trkpt lat="50.04563" lon="2.3391">
        <ele>132.4</ele>
        <time>2023-12-20T14:48:51Z</time>
      </trkpt>
      <trkpt lat="50.04564" lon="2.33908">
        <ele>132.3</ele>
        <time>2023-12-20T14:48:52Z</time>
      </trkpt>
      <trkpt lat="50.04565" lon="2.33905">
        <ele>132.3</ele>
        <time>2023-12-20T14:48:53Z</time>
      </trkpt>
      <trkpt lat="50.04565" lon="2.33904">
        <ele>132.3</ele>
        <time>2023-12-20T14:48:54Z</time>
      </trkpt>
      <trkpt lat="50.04565" lon="2.33902">
        <ele>132.2</ele>
        <time>2023-12-20T14:48:55Z</time>
      </trkpt>
      <trkpt lat="50.04566" lon="2.33901">
        <ele>132.2</ele>
        <time>2023-12-20T14:48:56Z</time>
      </trkpt>
      <trkpt lat="50.04566" lon="2.33899">
        <ele>132.2</ele>
        <time>2023-12-20T14:48:57Z</time>
      </trkpt>
      <trkpt lat="50.04567" lon="2.33896">
        <ele>132.1</ele>
        <time>2023-12-20T14:48:59Z</time>
      </trkpt>
      <trkpt lat="50.04568" lon="2.33894">
        <ele>132.1</ele>
        <time>2023-12-20T14:49:00Z</time>
      </trkpt>
      <trkpt lat="50.04569" lon="2.33892">
        <ele>132.1</ele>
        <time>2023-12-20T14:49:01Z</time>
      </trkpt>
      <trkpt lat="50.04569" lon="2.33891">
        <ele>132.1</ele>
        <time>2023-12-20T14:49:02Z</time>
      </trkpt>
      <trkpt lat="50.0457" lon="2.3389">
        <ele>132</ele>
        <time>2023-12-20T14:49:03Z</time>
      </trkpt>
      <trkpt lat="50.0457" lon="2.33888">
        <ele>132</ele>
        <time>2023-12-20T14:49:04Z</time>
      </trkpt>
      <trkpt lat="50.04571" lon="2.33887">
        <ele>132</ele>
        <time>2023-12-20T14:49:05Z</time>
      </trkpt>
      <trkpt lat="50.04571" lon="2.33885">
        <ele>132</ele>
        <time>2023-12-20T14:49:06Z</time>
      </trkpt>
      <trkpt lat="50.04572" lon="2.33884">
        <ele>131.9</ele>
        <time>2023-12-20T14:49:07Z</time>
      </trkpt>
      <trkpt lat="50.04572" lon="2.33882">
        <ele>131.9</ele>
        <time>2023-12-20T14:49:08Z</time>
      </trkpt>
      <trkpt lat="50.04573" lon="2.3388">
        <ele>131.9</ele>
        <time>2023-12-20T14:49:09Z</time>
      </trkpt>
      <trkpt lat="50.04574" lon="2.33879">
        <ele>131.9</ele>
        <time>2023-12-20T14:49:11Z</time>
      </trkpt>
      <trkpt lat="50.04574" lon="2.33877">
        <ele>131.8</ele>
        <time>2023-12-20T14:49:12Z</time>
      </trkpt>
      <trkpt lat="50.04575" lon="2.33876">
        <ele>131.8</ele>
        <time>2023-12-20T14:49:13Z</time>
      </trkpt>
      <trkpt lat="50.04576" lon="2.33874">
        <ele>131.8</ele>
        <time>2023-12-20T14:49:14Z</time>
      </trkpt>
      <trkpt lat="50.04577" lon="2.33871">
        <ele>131.7</ele>
        <time>2023-12-20T14:49:15Z</time>
      </trkpt>
      <trkpt lat="50.04577" lon="2.3387">
        <ele>131.7</ele>
        <time>2023-12-20T14:49:16Z</time>
      </trkpt>
      <trkpt lat="50.04578" lon="2.33869">
        <ele>131.7</ele>
        <time>2023-12-20T14:49:17Z</time>
      </trkpt>
      <trkpt lat="50.04578" lon="2.33868">
        <ele>131.7</ele>
        <time>2023-12-20T14:49:18Z</time>
      </trkpt>
      <trkpt lat="50.04579" lon="2.33866">
        <ele>131.7</ele>
        <time>2023-12-20T14:49:20Z</time>
      </trkpt>
      <trkpt lat="50.04579" lon="2.33865">
        <ele>131.6</ele>
        <time>2023-12-20T14:49:21Z</time>
      </trkpt>
      <trkpt lat="50.0458" lon="2.33862">
        <ele>131.6</ele>
        <time>2023-12-20T14:49:22Z</time>
      </trkpt>
      <trkpt lat="50.04581" lon="2.33861">
        <ele>131.6</ele>
        <time>2023-12-20T14:49:23Z</time>
      </trkpt>
      <trkpt lat="50.04582" lon="2.33858">
        <ele>131.5</ele>
        <time>2023-12-20T14:49:24Z</time>
      </trkpt>
      <trkpt lat="50.04583" lon="2.33856">
        <ele>131.5</ele>
        <time>2023-12-20T14:49:26Z</time>
      </trkpt>
      <trkpt lat="50.04583" lon="2.33855">
        <ele>131.5</ele>
        <time>2023-12-20T14:49:27Z</time>
      </trkpt>
      <trkpt lat="50.04584" lon="2.33852">
        <ele>131.4</ele>
        <time>2023-12-20T14:49:28Z</time>
      </trkpt>
      <trkpt lat="50.04585" lon="2.33851">
        <ele>131.4</ele>
        <time>2023-12-20T14:49:29Z</time>
      </trkpt>
      <trkpt lat="50.04585" lon="2.3385">
        <ele>131.4</ele>
        <time>2023-12-20T14:49:30Z</time>
      </trkpt>
      <trkpt lat="50.04586" lon="2.33848">
        <ele>131.4</ele>
        <time>2023-12-20T14:49:31Z</time>
      </trkpt>
      <trkpt lat="50.04586" lon="2.33846">
        <ele>131.3</ele>
        <time>2023-12-20T14:49:32Z</time>
      </trkpt>
      <trkpt lat="50.04587" lon="2.33845">
        <ele>131.3</ele>
        <time>2023-12-20T14:49:34Z</time>
      </trkpt>
      <trkpt lat="50.04587" lon="2.33843">
        <ele>131.3</ele>
        <time>2023-12-20T14:49:35Z</time>
      </trkpt>
      <trkpt lat="50.04588" lon="2.33842">
        <ele>131.3</ele>
        <time>2023-12-20T14:49:36Z</time>
      </trkpt>
      <trkpt lat="50.04589" lon="2.3384">
        <ele>131.2</ele>
        <time>2023-12-20T14:49:37Z</time>
      </trkpt>
      <trkpt lat="50.04589" lon="2.33836">
        <ele>131.2</ele>
        <time>2023-12-20T14:49:38Z</time>
      </trkpt>
      <trkpt lat="50.0459" lon="2.33835">
        <ele>131.2</ele>
        <time>2023-12-20T14:49:40Z</time>
      </trkpt>
      <trkpt lat="50.0459" lon="2.33833">
        <ele>131.1</ele>
        <time>2023-12-20T14:49:41Z</time>
      </trkpt>
      <trkpt lat="50.04591" lon="2.33832">
        <ele>131.1</ele>
        <time>2023-12-20T14:49:42Z</time>
      </trkpt>
      <trkpt lat="50.04591" lon="2.3383">
        <ele>131.1</ele>
        <time>2023-12-20T14:49:43Z</time>
      </trkpt>
      <trkpt lat="50.04592" lon="2.33829">
        <ele>131.1</ele>
        <time>2023-12-20T14:49:44Z</time>
      </trkpt>
      <trkpt lat="50.04592" lon="2.33827">
        <ele>131</ele>
        <time>2023-12-20T14:49:45Z</time>
      </trkpt>
      <trkpt lat="50.04593" lon="2.33826">
        <ele>131</ele>
        <time>2023-12-20T14:49:46Z</time>
      </trkpt>
      <trkpt lat="50.04593" lon="2.33824">
        <ele>131</ele>
        <time>2023-12-20T14:49:47Z</time>
      </trkpt>
      <trkpt lat="50.04594" lon="2.33823">
        <ele>131</ele>
        <time>2023-12-20T14:49:48Z</time>
      </trkpt>
      <trkpt lat="50.04594" lon="2.33821">
        <ele>130.9</ele>
        <time>2023-12-20T14:49:49Z</time>
      </trkpt>
      <trkpt lat="50.04595" lon="2.33819">
        <ele>130.9</ele>
        <time>2023-12-20T14:49:50Z</time>
      </trkpt>
      <trkpt lat="50.04596" lon="2.33818">
        <ele>130.9</ele>
        <time>2023-12-20T14:49:51Z</time>
      </trkpt>
      <trkpt lat="50.04596" lon="2.33816">
        <ele>130.9</ele>
        <time>2023-12-20T14:49:53Z</time>
      </trkpt>
      <trkpt lat="50.04597" lon="2.33814">
        <ele>130.8</ele>
        <time>2023-12-20T14:49:54Z</time>
      </trkpt>
      <trkpt lat="50.04598" lon="2.33812">
        <ele>130.8</ele>
        <time>2023-12-20T14:49:55Z</time>
      </trkpt>
      <trkpt lat="50.04599" lon="2.33809">
        <ele>130.8</ele>
        <time>2023-12-20T14:49:56Z</time>
      </trkpt>
      <trkpt lat="50.04599" lon="2.33808">
        <ele>130.8</ele>
        <time>2023-12-20T14:49:57Z</time>
      </trkpt>
      <trkpt lat="50.046" lon="2.33807">
        <ele>130.7</ele>
        <time>2023-12-20T14:49:58Z</time>
      </trkpt>
      <trkpt lat="50.04601" lon="2.33804">
        <ele>130.7</ele>
        <time>2023-12-20T14:49:59Z</time>
      </trkpt>
      <trkpt lat="50.04601" lon="2.33803">
        <ele>130.7</ele>
        <time>2023-12-20T14:50:01Z</time>
      </trkpt>
      <trkpt lat="50.04602" lon="2.33802">
        <ele>130.7</ele>
        <time>2023-12-20T14:50:02Z</time>
      </trkpt>
      <trkpt lat="50.04602" lon="2.338">
        <ele>130.6</ele>
        <time>2023-12-20T14:50:03Z</time>
      </trkpt>
      <trkpt lat="50.04603" lon="2.33798">
        <ele>130.6</ele>
        <time>2023-12-20T14:50:04Z</time>
      </trkpt>
      <trkpt lat="50.04605" lon="2.33794">
        <ele>130.6</ele>
        <time>2023-12-20T14:50:05Z</time>
      </trkpt>
      <trkpt lat="50.04605" lon="2.33793">
        <ele>130.5</ele>
        <time>2023-12-20T14:50:07Z</time>
      </trkpt>
      <trkpt lat="50.04606" lon="2.33791">
        <ele>130.5</ele>
        <time>2023-12-20T14:50:08Z</time>
      </trkpt>
      <trkpt lat="50.04606" lon="2.3379">
        <ele>130.5</ele>
        <time>2023-12-20T14:50:09Z</time>
      </trkpt>
      <trkpt lat="50.04607" lon="2.33788">
        <ele>130.5</ele>
        <time>2023-12-20T14:50:10Z</time>
      </trkpt>
      <trkpt lat="50.04608" lon="2.33786">
        <ele>130.4</ele>
        <time>2023-12-20T14:50:11Z</time>
      </trkpt>
      <trkpt lat="50.04608" lon="2.33784">
        <ele>130.4</ele>
        <time>2023-12-20T14:50:12Z</time>
      </trkpt>
      <trkpt lat="50.04609" lon="2.33783">
        <ele>130.4</ele>
        <time>2023-12-20T14:50:13Z</time>
      </trkpt>
      <trkpt lat="50.04609" lon="2.33781">
        <ele>130.4</ele>
        <time>2023-12-20T14:50:14Z</time>
      </trkpt>
      <trkpt lat="50.0461" lon="2.33779">
        <ele>130.3</ele>
        <time>2023-12-20T14:50:15Z</time>
      </trkpt>
      <trkpt lat="50.04611" lon="2.33778">
        <ele>130.3</ele>
        <time>2023-12-20T14:50:16Z</time>
      </trkpt>
      <trkpt lat="50.04611" lon="2.33776">
        <ele>130.3</ele>
        <time>2023-12-20T14:50:17Z</time>
      </trkpt>
      <trkpt lat="50.04612" lon="2.33773">
        <ele>130.3</ele>
        <time>2023-12-20T14:50:19Z</time>
      </trkpt>
      <trkpt lat="50.04613" lon="2.33772">
        <ele>130.2</ele>
        <time>2023-12-20T14:50:20Z</time>
      </trkpt>
      <trkpt lat="50.04613" lon="2.33771">
        <ele>130.2</ele>
        <time>2023-12-20T14:50:21Z</time>
      </trkpt>
      <trkpt lat="50.04614" lon="2.33769">
        <ele>130.2</ele>
        <time>2023-12-20T14:50:22Z</time>
      </trkpt>
      <trkpt lat="50.04614" lon="2.33767">
        <ele>130.2</ele>
        <time>2023-12-20T14:50:23Z</time>
      </trkpt>
      <trkpt lat="50.04615" lon="2.33766">
        <ele>130.2</ele>
        <time>2023-12-20T14:50:24Z</time>
      </trkpt>
      <trkpt lat="50.04615" lon="2.33764">
        <ele>130.2</ele>
        <time>2023-12-20T14:50:25Z</time>
      </trkpt>
      <trkpt lat="50.04616" lon="2.33762">
        <ele>130.1</ele>
        <time>2023-12-20T14:50:26Z</time>
      </trkpt>
      <trkpt lat="50.04616" lon="2.33761">
        <ele>130.1</ele>
        <time>2023-12-20T14:50:27Z</time>
      </trkpt>
      <trkpt lat="50.04617" lon="2.33759">
        <ele>130.1</ele>
        <time>2023-12-20T14:50:28Z</time>
      </trkpt>
      <trkpt lat="50.04617" lon="2.33757">
        <ele>130.1</ele>
        <time>2023-12-20T14:50:29Z</time>
      </trkpt>
      <trkpt lat="50.04618" lon="2.33755">
        <ele>130.1</ele>
        <time>2023-12-20T14:50:31Z</time>
      </trkpt>
      <trkpt lat="50.04619" lon="2.33752">
        <ele>130.1</ele>
        <time>2023-12-20T14:50:33Z</time>
      </trkpt>
      <trkpt lat="50.0462" lon="2.3375">
        <ele>130.1</ele>
        <time>2023-12-20T14:50:34Z</time>
      </trkpt>
      <trkpt lat="50.0462" lon="2.33749">
        <ele>130.1</ele>
        <time>2023-12-20T14:50:35Z</time>
      </trkpt>
      <trkpt lat="50.04621" lon="2.33748">
        <ele>130</ele>
        <time>2023-12-20T14:50:36Z</time>
      </trkpt>
      <trkpt lat="50.04622" lon="2.33746">
        <ele>130</ele>
        <time>2023-12-20T14:50:37Z</time>
      </trkpt>
      <trkpt lat="50.04623" lon="2.33743">
        <ele>130</ele>
        <time>2023-12-20T14:50:38Z</time>
      </trkpt>
      <trkpt lat="50.04623" lon="2.33742">
        <ele>130</ele>
        <time>2023-12-20T14:50:40Z</time>
      </trkpt>
      <trkpt lat="50.04623" lon="2.33741">
        <ele>130</ele>
        <time>2023-12-20T14:50:41Z</time>
      </trkpt>
      <trkpt lat="50.04624" lon="2.33739">
        <ele>130</ele>
        <time>2023-12-20T14:50:42Z</time>
      </trkpt>
      <trkpt lat="50.04625" lon="2.33737">
        <ele>130</ele>
        <time>2023-12-20T14:50:43Z</time>
      </trkpt>
      <trkpt lat="50.04626" lon="2.33735">
        <ele>130</ele>
        <time>2023-12-20T14:50:44Z</time>
      </trkpt>
      <trkpt lat="50.04626" lon="2.33734">
        <ele>130</ele>
        <time>2023-12-20T14:50:45Z</time>
      </trkpt>
      <trkpt lat="50.04627" lon="2.33732">
        <ele>130</ele>
        <time>2023-12-20T14:50:46Z</time>
      </trkpt>
      <trkpt lat="50.04627" lon="2.3373">
        <ele>130</ele>
        <time>2023-12-20T14:50:47Z</time>
      </trkpt>
      <trkpt lat="50.04628" lon="2.33728">
        <ele>130</ele>
        <time>2023-12-20T14:50:48Z</time>
      </trkpt>
      <trkpt lat="50.04628" lon="2.33727">
        <ele>130</ele>
        <time>2023-12-20T14:50:49Z</time>
      </trkpt>
      <trkpt lat="50.04629" lon="2.33724">
        <ele>130</ele>
        <time>2023-12-20T14:50:50Z</time>
      </trkpt>
      <trkpt lat="50.0463" lon="2.33723">
        <ele>130</ele>
        <time>2023-12-20T14:50:52Z</time>
      </trkpt>
      <trkpt lat="50.0463" lon="2.33722">
        <ele>130</ele>
        <time>2023-12-20T14:50:53Z</time>
      </trkpt>
      <trkpt lat="50.04631" lon="2.3372">
        <ele>129.9</ele>
        <time>2023-12-20T14:50:54Z</time>
      </trkpt>
      <trkpt lat="50.04631" lon="2.33718">
        <ele>129.9</ele>
        <time>2023-12-20T14:50:55Z</time>
      </trkpt>
      <trkpt lat="50.04633" lon="2.33715">
        <ele>129.9</ele>
        <time>2023-12-20T14:50:56Z</time>
      </trkpt>
      <trkpt lat="50.04633" lon="2.33714">
        <ele>129.9</ele>
        <time>2023-12-20T14:50:57Z</time>
      </trkpt>
      <trkpt lat="50.04634" lon="2.33712">
        <ele>129.9</ele>
        <time>2023-12-20T14:50:59Z</time>
      </trkpt>
      <trkpt lat="50.04634" lon="2.33711">
        <ele>129.9</ele>
        <time>2023-12-20T14:51:01Z</time>
      </trkpt>
      <trkpt lat="50.04635" lon="2.33709">
        <ele>129.9</ele>
        <time>2023-12-20T14:51:02Z</time>
      </trkpt>
      <trkpt lat="50.04635" lon="2.33707">
        <ele>129.9</ele>
        <time>2023-12-20T14:51:03Z</time>
      </trkpt>
      <trkpt lat="50.04636" lon="2.33705">
        <ele>129.9</ele>
        <time>2023-12-20T14:51:04Z</time>
      </trkpt>
      <trkpt lat="50.04636" lon="2.33703">
        <ele>129.9</ele>
        <time>2023-12-20T14:51:05Z</time>
      </trkpt>
      <trkpt lat="50.04637" lon="2.33701">
        <ele>129.9</ele>
        <time>2023-12-20T14:51:06Z</time>
      </trkpt>
      <trkpt lat="50.04637" lon="2.337">
        <ele>129.9</ele>
        <time>2023-12-20T14:51:08Z</time>
      </trkpt>
      <trkpt lat="50.04638" lon="2.33697">
        <ele>129.9</ele>
        <time>2023-12-20T14:51:09Z</time>
      </trkpt>
      <trkpt lat="50.04639" lon="2.33696">
        <ele>129.9</ele>
        <time>2023-12-20T14:51:10Z</time>
      </trkpt>
      <trkpt lat="50.04639" lon="2.33695">
        <ele>129.9</ele>
        <time>2023-12-20T14:51:11Z</time>
      </trkpt>
      <trkpt lat="50.0464" lon="2.33692">
        <ele>129.8</ele>
        <time>2023-12-20T14:51:12Z</time>
      </trkpt>
      <trkpt lat="50.04641" lon="2.33691">
        <ele>129.8</ele>
        <time>2023-12-20T14:51:13Z</time>
      </trkpt>
      <trkpt lat="50.04641" lon="2.3369">
        <ele>129.8</ele>
        <time>2023-12-20T14:51:14Z</time>
      </trkpt>
      <trkpt lat="50.04642" lon="2.33687">
        <ele>129.8</ele>
        <time>2023-12-20T14:51:15Z</time>
      </trkpt>
      <trkpt lat="50.04642" lon="2.33685">
        <ele>129.8</ele>
        <time>2023-12-20T14:51:16Z</time>
      </trkpt>
      <trkpt lat="50.04643" lon="2.33684">
        <ele>129.8</ele>
        <time>2023-12-20T14:51:18Z</time>
      </trkpt>
      <trkpt lat="50.04643" lon="2.33682">
        <ele>129.8</ele>
        <time>2023-12-20T14:51:19Z</time>
      </trkpt>
      <trkpt lat="50.04644" lon="2.33681">
        <ele>129.8</ele>
        <time>2023-12-20T14:51:20Z</time>
      </trkpt>
      <trkpt lat="50.04644" lon="2.33679">
        <ele>129.8</ele>
        <time>2023-12-20T14:51:21Z</time>
      </trkpt>
      <trkpt lat="50.04644" lon="2.33678">
        <ele>129.8</ele>
        <time>2023-12-20T14:51:22Z</time>
      </trkpt>
      <trkpt lat="50.04645" lon="2.33676">
        <ele>129.8</ele>
        <time>2023-12-20T14:51:23Z</time>
      </trkpt>
      <trkpt lat="50.04645" lon="2.33674">
        <ele>129.8</ele>
        <time>2023-12-20T14:51:25Z</time>
      </trkpt>
      <trkpt lat="50.04645" lon="2.33672">
        <ele>129.8</ele>
        <time>2023-12-20T14:51:26Z</time>
      </trkpt>
      <trkpt lat="50.04645" lon="2.3367">
        <ele>129.8</ele>
        <time>2023-12-20T14:51:27Z</time>
      </trkpt>
      <trkpt lat="50.04646" lon="2.33668">
        <ele>129.8</ele>
        <time>2023-12-20T14:51:29Z</time>
      </trkpt>
      <trkpt lat="50.04646" lon="2.33667">
        <ele>129.7</ele>
        <time>2023-12-20T14:51:30Z</time>
      </trkpt>
      <trkpt lat="50.04647" lon="2.33666">
        <ele>129.7</ele>
        <time>2023-12-20T14:51:31Z</time>
      </trkpt>
      <trkpt lat="50.04647" lon="2.33664">
        <ele>129.7</ele>
        <time>2023-12-20T14:51:32Z</time>
      </trkpt>
      <trkpt lat="50.04647" lon="2.33663">
        <ele>129.7</ele>
        <time>2023-12-20T14:51:33Z</time>
      </trkpt>
      <trkpt lat="50.04647" lon="2.33662">
        <ele>129.7</ele>
        <time>2023-12-20T14:51:35Z</time>
      </trkpt>
      <trkpt lat="50.04647" lon="2.33661">
        <ele>129.7</ele>
        <time>2023-12-20T14:51:36Z</time>
      </trkpt>
      <trkpt lat="50.04648" lon="2.33659">
        <ele>129.7</ele>
        <time>2023-12-20T14:51:37Z</time>
      </trkpt>
      <trkpt lat="50.04648" lon="2.33658">
        <ele>129.7</ele>
        <time>2023-12-20T14:51:38Z</time>
      </trkpt>
      <trkpt lat="50.04649" lon="2.33657">
        <ele>129.7</ele>
        <time>2023-12-20T14:51:39Z</time>
      </trkpt>
      <trkpt lat="50.04648" lon="2.33657">
        <ele>129.7</ele>
        <time>2023-12-20T14:51:41Z</time>
      </trkpt>
      <trkpt lat="50.04648" lon="2.33657">
        <ele>129.7</ele>
        <time>2023-12-20T14:51:42Z</time>
      </trkpt>
      <trkpt lat="50.04647" lon="2.33657">
        <ele>129.7</ele>
        <time>2023-12-20T14:51:44Z</time>
      </trkpt>
      <trkpt lat="50.04647" lon="2.33657">
        <ele>129.7</ele>
        <time>2023-12-20T14:51:45Z</time>
      </trkpt>
      <trkpt lat="50.04647" lon="2.33658">
        <ele>129.7</ele>
        <time>2023-12-20T14:51:47Z</time>
      </trkpt>
      <trkpt lat="50.04648" lon="2.33658">
        <ele>129.7</ele>
        <time>2023-12-20T14:51:48Z</time>
      </trkpt>
      <trkpt lat="50.04647" lon="2.33658">
        <ele>129.7</ele>
        <time>2023-12-20T14:51:50Z</time>
      </trkpt>
      <trkpt lat="50.04647" lon="2.33658">
        <ele>129.7</ele>
        <time>2023-12-20T14:51:52Z</time>
      </trkpt>
      <trkpt lat="50.04647" lon="2.33658">
        <ele>129.6</ele>
        <time>2023-12-20T14:51:54Z</time>
      </trkpt>
      <trkpt lat="50.04646" lon="2.33666">
        <ele>129.5</ele>
        <time>2023-12-20T14:52:27Z</time>
      </trkpt>
      <trkpt lat="50.04646" lon="2.33666">
        <ele>129.5</ele>
        <time>2023-12-20T14:52:29Z</time>
      </trkpt>
      <trkpt lat="50.04646" lon="2.33667">
        <ele>129.5</ele>
        <time>2023-12-20T14:52:30Z</time>
      </trkpt>
      <trkpt lat="50.04645" lon="2.33667">
        <ele>129.5</ele>
        <time>2023-12-20T14:52:31Z</time>
      </trkpt>
      <trkpt lat="50.04645" lon="2.33667">
        <ele>129.5</ele>
        <time>2023-12-20T14:52:32Z</time>
      </trkpt>
      <trkpt lat="50.04645" lon="2.33667">
        <ele>129.5</ele>
        <time>2023-12-20T14:52:34Z</time>
      </trkpt>
      <trkpt lat="50.04645" lon="2.33667">
        <ele>129.5</ele>
        <time>2023-12-20T14:52:35Z</time>
      </trkpt>
      <trkpt lat="50.04645" lon="2.33667">
        <ele>129.5</ele>
        <time>2023-12-20T14:52:36Z</time>
      </trkpt>
      <trkpt lat="50.04645" lon="2.33667">
        <ele>129.5</ele>
        <time>2023-12-20T14:52:37Z</time>
      </trkpt>
      <trkpt lat="50.04645" lon="2.33668">
        <ele>129.5</ele>
        <time>2023-12-20T14:52:38Z</time>
      </trkpt>
      <trkpt lat="50.04645" lon="2.33669">
        <ele>129.5</ele>
        <time>2023-12-20T14:52:39Z</time>
      </trkpt>
      <trkpt lat="50.04644" lon="2.33671">
        <ele>129.5</ele>
        <time>2023-12-20T14:52:40Z</time>
      </trkpt>
      <trkpt lat="50.04643" lon="2.33673">
        <ele>129.4</ele>
        <time>2023-12-20T14:52:42Z</time>
      </trkpt>
      <trkpt lat="50.04642" lon="2.33674">
        <ele>129.4</ele>
        <time>2023-12-20T14:52:43Z</time>
      </trkpt>
      <trkpt lat="50.04641" lon="2.33676">
        <ele>129.4</ele>
        <time>2023-12-20T14:52:44Z</time>
      </trkpt>
      <trkpt lat="50.04639" lon="2.33676">
        <ele>129.4</ele>
        <time>2023-12-20T14:52:47Z</time>
      </trkpt>
      <trkpt lat="50.04639" lon="2.33676">
        <ele>129.4</ele>
        <time>2023-12-20T14:52:48Z</time>
      </trkpt>
      <trkpt lat="50.04639" lon="2.33675">
        <ele>129.4</ele>
        <time>2023-12-20T14:52:50Z</time>
      </trkpt>
      <trkpt lat="50.0464" lon="2.33673">
        <ele>129.3</ele>
        <time>2023-12-20T14:52:51Z</time>
      </trkpt>
      <trkpt lat="50.04641" lon="2.33672">
        <ele>129.3</ele>
        <time>2023-12-20T14:52:53Z</time>
      </trkpt>
      <trkpt lat="50.04642" lon="2.33671">
        <ele>129.3</ele>
        <time>2023-12-20T14:52:54Z</time>
      </trkpt>
      <trkpt lat="50.04642" lon="2.3367">
        <ele>129.3</ele>
        <time>2023-12-20T14:52:56Z</time>
      </trkpt>
      <trkpt lat="50.04642" lon="2.33669">
        <ele>129.3</ele>
        <time>2023-12-20T14:52:57Z</time>
      </trkpt>
      <trkpt lat="50.04642" lon="2.33669">
        <ele>129.3</ele>
        <time>2023-12-20T14:52:59Z</time>
      </trkpt>
      <trkpt lat="50.04641" lon="2.3367">
        <ele>129.3</ele>
        <time>2023-12-20T14:53:00Z</time>
      </trkpt>
      <trkpt lat="50.04641" lon="2.3367">
        <ele>129.3</ele>
        <time>2023-12-20T14:53:01Z</time>
      </trkpt>
      <trkpt lat="50.04641" lon="2.33671">
        <ele>129.3</ele>
        <time>2023-12-20T14:53:02Z</time>
      </trkpt>
      <trkpt lat="50.04641" lon="2.33671">
        <ele>129.3</ele>
        <time>2023-12-20T14:53:05Z</time>
      </trkpt>
      <trkpt lat="50.04642" lon="2.33673">
        <ele>129.3</ele>
        <time>2023-12-20T14:53:06Z</time>
      </trkpt>
      <trkpt lat="50.04642" lon="2.33673">
        <ele>129.3</ele>
        <time>2023-12-20T14:53:07Z</time>
      </trkpt>
      <trkpt lat="50.04642" lon="2.33674">
        <ele>129.3</ele>
        <time>2023-12-20T14:53:08Z</time>
      </trkpt>
      <trkpt lat="50.04642" lon="2.33674">
        <ele>129.3</ele>
        <time>2023-12-20T14:53:09Z</time>
      </trkpt>
      <trkpt lat="50.04642" lon="2.33674">
        <ele>129.3</ele>
        <time>2023-12-20T14:53:10Z</time>
      </trkpt>
      <trkpt lat="50.04642" lon="2.33674">
        <ele>129.3</ele>
        <time>2023-12-20T14:53:11Z</time>
      </trkpt>
      <trkpt lat="50.04643" lon="2.33664">
        <ele>129.3</ele>
        <time>2023-12-20T14:54:09Z</time>
      </trkpt>
      <trkpt lat="50.04642" lon="2.33663">
        <ele>129.3</ele>
        <time>2023-12-20T14:54:10Z</time>
      </trkpt>
      <trkpt lat="50.04642" lon="2.33662">
        <ele>129.3</ele>
        <time>2023-12-20T14:54:12Z</time>
      </trkpt>
      <trkpt lat="50.04641" lon="2.33659">
        <ele>129.3</ele>
        <time>2023-12-20T14:54:14Z</time>
      </trkpt>
      <trkpt lat="50.0464" lon="2.33658">
        <ele>129.3</ele>
        <time>2023-12-20T14:54:15Z</time>
      </trkpt>
      <trkpt lat="50.04639" lon="2.33656">
        <ele>129.3</ele>
        <time>2023-12-20T14:54:17Z</time>
      </trkpt>
      <trkpt lat="50.04638" lon="2.33655">
        <ele>129.3</ele>
        <time>2023-12-20T14:54:18Z</time>
      </trkpt>
      <trkpt lat="50.04637" lon="2.33653">
        <ele>129.3</ele>
        <time>2023-12-20T14:54:20Z</time>
      </trkpt>
      <trkpt lat="50.04635" lon="2.33652">
        <ele>129.3</ele>
        <time>2023-12-20T14:54:22Z</time>
      </trkpt>
      <trkpt lat="50.04634" lon="2.33652">
        <ele>129.3</ele>
        <time>2023-12-20T14:54:24Z</time>
      </trkpt>
      <trkpt lat="50.04633" lon="2.33652">
        <ele>129.3</ele>
        <time>2023-12-20T14:54:25Z</time>
      </trkpt>
      <trkpt lat="50.04631" lon="2.33651">
        <ele>129.3</ele>
        <time>2023-12-20T14:54:26Z</time>
      </trkpt>
      <trkpt lat="50.0463" lon="2.3365">
        <ele>129.3</ele>
        <time>2023-12-20T14:54:28Z</time>
      </trkpt>
      <trkpt lat="50.04628" lon="2.3365">
        <ele>129.3</ele>
        <time>2023-12-20T14:54:29Z</time>
      </trkpt>
      <trkpt lat="50.04625" lon="2.33649">
        <ele>129.3</ele>
        <time>2023-12-20T14:54:30Z</time>
      </trkpt>
      <trkpt lat="50.04625" lon="2.33649">
        <ele>129.3</ele>
        <time>2023-12-20T14:54:31Z</time>
      </trkpt>
      <trkpt lat="50.04623" lon="2.33649">
        <ele>129.3</ele>
        <time>2023-12-20T14:54:33Z</time>
      </trkpt>
      <trkpt lat="50.04621" lon="2.33648">
        <ele>129.3</ele>
        <time>2023-12-20T14:54:34Z</time>
      </trkpt>
      <trkpt lat="50.0462" lon="2.33648">
        <ele>129.3</ele>
        <time>2023-12-20T14:54:35Z</time>
      </trkpt>
      <trkpt lat="50.04618" lon="2.33648">
        <ele>129.3</ele>
        <time>2023-12-20T14:54:36Z</time>
      </trkpt>
      <trkpt lat="50.04617" lon="2.33648">
        <ele>129.3</ele>
        <time>2023-12-20T14:54:37Z</time>
      </trkpt>
      <trkpt lat="50.04615" lon="2.33648">
        <ele>129.3</ele>
        <time>2023-12-20T14:54:38Z</time>
      </trkpt>
      <trkpt lat="50.04613" lon="2.33647">
        <ele>129.3</ele>
        <time>2023-12-20T14:54:39Z</time>
      </trkpt>
      <trkpt lat="50.04612" lon="2.33648">
        <ele>129.3</ele>
        <time>2023-12-20T14:54:41Z</time>
      </trkpt>
      <trkpt lat="50.04611" lon="2.33648">
        <ele>129.3</ele>
        <time>2023-12-20T14:54:42Z</time>
      </trkpt>
      <trkpt lat="50.04609" lon="2.33648">
        <ele>129.3</ele>
        <time>2023-12-20T14:54:43Z</time>
      </trkpt>
      <trkpt lat="50.04608" lon="2.33648">
        <ele>129.3</ele>
        <time>2023-12-20T14:54:44Z</time>
      </trkpt>
      <trkpt lat="50.04607" lon="2.33648">
        <ele>129.3</ele>
        <time>2023-12-20T14:54:45Z</time>
      </trkpt>
      <trkpt lat="50.04606" lon="2.33648">
        <ele>129.3</ele>
        <time>2023-12-20T14:54:46Z</time>
      </trkpt>
      <trkpt lat="50.04604" lon="2.33648">
        <ele>129.3</ele>
        <time>2023-12-20T14:54:48Z</time>
      </trkpt>
      <trkpt lat="50.04603" lon="2.33649">
        <ele>129.3</ele>
        <time>2023-12-20T14:54:50Z</time>
      </trkpt>
      <trkpt lat="50.04602" lon="2.33649">
        <ele>129.4</ele>
        <time>2023-12-20T14:54:51Z</time>
      </trkpt>
      <trkpt lat="50.046" lon="2.33649">
        <ele>129.4</ele>
        <time>2023-12-20T14:54:52Z</time>
      </trkpt>
      <trkpt lat="50.04599" lon="2.33648">
        <ele>129.4</ele>
        <time>2023-12-20T14:54:53Z</time>
      </trkpt>
      <trkpt lat="50.04598" lon="2.33648">
        <ele>129.4</ele>
        <time>2023-12-20T14:54:54Z</time>
      </trkpt>
      <trkpt lat="50.04597" lon="2.33651">
        <ele>129.4</ele>
        <time>2023-12-20T14:54:56Z</time>
      </trkpt>
      <trkpt lat="50.04596" lon="2.33652">
        <ele>129.4</ele>
        <time>2023-12-20T14:54:58Z</time>
      </trkpt>
      <trkpt lat="50.04595" lon="2.33652">
        <ele>129.4</ele>
        <time>2023-12-20T14:54:59Z</time>
      </trkpt>
      <trkpt lat="50.04593" lon="2.33653">
        <ele>129.4</ele>
        <time>2023-12-20T14:55:00Z</time>
      </trkpt>
      <trkpt lat="50.04593" lon="2.33653">
        <ele>129.4</ele>
        <time>2023-12-20T14:55:01Z</time>
      </trkpt>
      <trkpt lat="50.04592" lon="2.33653">
        <ele>129.4</ele>
        <time>2023-12-20T14:55:02Z</time>
      </trkpt>
      <trkpt lat="50.04591" lon="2.33653">
        <ele>129.4</ele>
        <time>2023-12-20T14:55:03Z</time>
      </trkpt>
      <trkpt lat="50.0459" lon="2.33652">
        <ele>129.4</ele>
        <time>2023-12-20T14:55:04Z</time>
      </trkpt>
      <trkpt lat="50.04589" lon="2.33652">
        <ele>129.4</ele>
        <time>2023-12-20T14:55:05Z</time>
      </trkpt>
      <trkpt lat="50.04587" lon="2.33651">
        <ele>129.4</ele>
        <time>2023-12-20T14:55:07Z</time>
      </trkpt>
      <trkpt lat="50.04585" lon="2.3365">
        <ele>129.5</ele>
        <time>2023-12-20T14:55:08Z</time>
      </trkpt>
      <trkpt lat="50.04585" lon="2.3365">
        <ele>129.5</ele>
        <time>2023-12-20T14:55:09Z</time>
      </trkpt>
      <trkpt lat="50.04584" lon="2.3365">
        <ele>129.5</ele>
        <time>2023-12-20T14:55:10Z</time>
      </trkpt>
      <trkpt lat="50.04583" lon="2.33649">
        <ele>129.5</ele>
        <time>2023-12-20T14:55:11Z</time>
      </trkpt>
      <trkpt lat="50.04582" lon="2.33649">
        <ele>129.5</ele>
        <time>2023-12-20T14:55:12Z</time>
      </trkpt>
      <trkpt lat="50.0458" lon="2.33649">
        <ele>129.5</ele>
        <time>2023-12-20T14:55:13Z</time>
      </trkpt>
      <trkpt lat="50.04579" lon="2.33648">
        <ele>129.5</ele>
        <time>2023-12-20T14:55:14Z</time>
      </trkpt>
      <trkpt lat="50.04578" lon="2.33648">
        <ele>129.5</ele>
        <time>2023-12-20T14:55:15Z</time>
      </trkpt>
      <trkpt lat="50.04577" lon="2.33648">
        <ele>129.5</ele>
        <time>2023-12-20T14:55:17Z</time>
      </trkpt>
      <trkpt lat="50.04575" lon="2.33648">
        <ele>129.5</ele>
        <time>2023-12-20T14:55:18Z</time>
      </trkpt>
      <trkpt lat="50.04574" lon="2.33648">
        <ele>129.5</ele>
        <time>2023-12-20T14:55:19Z</time>
      </trkpt>
      <trkpt lat="50.04572" lon="2.33647">
        <ele>129.5</ele>
        <time>2023-12-20T14:55:20Z</time>
      </trkpt>
      <trkpt lat="50.04571" lon="2.33647">
        <ele>129.6</ele>
        <time>2023-12-20T14:55:21Z</time>
      </trkpt>
      <trkpt lat="50.0457" lon="2.33647">
        <ele>129.6</ele>
        <time>2023-12-20T14:55:22Z</time>
      </trkpt>
      <trkpt lat="50.04568" lon="2.33646">
        <ele>129.6</ele>
        <time>2023-12-20T14:55:23Z</time>
      </trkpt>
      <trkpt lat="50.04567" lon="2.33646">
        <ele>129.6</ele>
        <time>2023-12-20T14:55:24Z</time>
      </trkpt>
      <trkpt lat="50.04566" lon="2.33646">
        <ele>129.6</ele>
        <time>2023-12-20T14:55:25Z</time>
      </trkpt>
      <trkpt lat="50.04565" lon="2.33646">
        <ele>129.6</ele>
        <time>2023-12-20T14:55:26Z</time>
      </trkpt>
      <trkpt lat="50.04564" lon="2.33646">
        <ele>129.6</ele>
        <time>2023-12-20T14:55:27Z</time>
      </trkpt>
      <trkpt lat="50.04562" lon="2.33645">
        <ele>129.6</ele>
        <time>2023-12-20T14:55:29Z</time>
      </trkpt>
      <trkpt lat="50.0456" lon="2.33645">
        <ele>129.6</ele>
        <time>2023-12-20T14:55:30Z</time>
      </trkpt>
      <trkpt lat="50.04559" lon="2.33645">
        <ele>129.6</ele>
        <time>2023-12-20T14:55:31Z</time>
      </trkpt>
      <trkpt lat="50.04558" lon="2.33645">
        <ele>129.6</ele>
        <time>2023-12-20T14:55:32Z</time>
      </trkpt>
      <trkpt lat="50.04557" lon="2.33644">
        <ele>129.6</ele>
        <time>2023-12-20T14:55:33Z</time>
      </trkpt>
      <trkpt lat="50.04556" lon="2.33644">
        <ele>129.6</ele>
        <time>2023-12-20T14:55:34Z</time>
      </trkpt>
      <trkpt lat="50.04554" lon="2.33644">
        <ele>129.6</ele>
        <time>2023-12-20T14:55:36Z</time>
      </trkpt>
      <trkpt lat="50.04553" lon="2.33644">
        <ele>129.6</ele>
        <time>2023-12-20T14:55:37Z</time>
      </trkpt>
      <trkpt lat="50.04551" lon="2.33644">
        <ele>129.7</ele>
        <time>2023-12-20T14:55:38Z</time>
      </trkpt>
      <trkpt lat="50.0455" lon="2.33643">
        <ele>129.7</ele>
        <time>2023-12-20T14:55:39Z</time>
      </trkpt>
      <trkpt lat="50.0455" lon="2.33641">
        <ele>129.7</ele>
        <time>2023-12-20T14:55:41Z</time>
      </trkpt>
      <trkpt lat="50.04551" lon="2.33642">
        <ele>129.7</ele>
        <time>2023-12-20T14:55:42Z</time>
      </trkpt>
      <trkpt lat="50.04551" lon="2.33642">
        <ele>129.7</ele>
        <time>2023-12-20T14:55:43Z</time>
      </trkpt>
      <trkpt lat="50.04549" lon="2.33642">
        <ele>129.7</ele>
        <time>2023-12-20T14:55:44Z</time>
      </trkpt>
      <trkpt lat="50.04548" lon="2.33643">
        <ele>129.7</ele>
        <time>2023-12-20T14:55:45Z</time>
      </trkpt>
      <trkpt lat="50.04547" lon="2.33643">
        <ele>129.7</ele>
        <time>2023-12-20T14:55:46Z</time>
      </trkpt>
      <trkpt lat="50.04545" lon="2.33643">
        <ele>129.7</ele>
        <time>2023-12-20T14:55:47Z</time>
      </trkpt>
      <trkpt lat="50.04544" lon="2.33643">
        <ele>129.7</ele>
        <time>2023-12-20T14:55:48Z</time>
      </trkpt>
      <trkpt lat="50.04542" lon="2.33643">
        <ele>129.7</ele>
        <time>2023-12-20T14:55:49Z</time>
      </trkpt>
      <trkpt lat="50.04541" lon="2.33643">
        <ele>129.7</ele>
        <time>2023-12-20T14:55:50Z</time>
      </trkpt>
      <trkpt lat="50.04539" lon="2.33643">
        <ele>129.7</ele>
        <time>2023-12-20T14:55:51Z</time>
      </trkpt>
      <trkpt lat="50.04538" lon="2.33643">
        <ele>129.8</ele>
        <time>2023-12-20T14:55:52Z</time>
      </trkpt>
      <trkpt lat="50.04537" lon="2.33643">
        <ele>129.8</ele>
        <time>2023-12-20T14:55:53Z</time>
      </trkpt>
      <trkpt lat="50.04535" lon="2.33643">
        <ele>129.8</ele>
        <time>2023-12-20T14:55:55Z</time>
      </trkpt>
      <trkpt lat="50.04534" lon="2.33643">
        <ele>129.8</ele>
        <time>2023-12-20T14:55:56Z</time>
      </trkpt>
      <trkpt lat="50.04533" lon="2.33642">
        <ele>129.8</ele>
        <time>2023-12-20T14:55:57Z</time>
      </trkpt>
      <trkpt lat="50.04531" lon="2.33642">
        <ele>129.8</ele>
        <time>2023-12-20T14:55:58Z</time>
      </trkpt>
      <trkpt lat="50.0453" lon="2.33642">
        <ele>129.8</ele>
        <time>2023-12-20T14:55:59Z</time>
      </trkpt>
      <trkpt lat="50.04529" lon="2.33642">
        <ele>129.8</ele>
        <time>2023-12-20T14:56:00Z</time>
      </trkpt>
      <trkpt lat="50.04528" lon="2.33641">
        <ele>129.8</ele>
        <time>2023-12-20T14:56:01Z</time>
      </trkpt>
      <trkpt lat="50.04527" lon="2.33641">
        <ele>129.8</ele>
        <time>2023-12-20T14:56:02Z</time>
      </trkpt>
      <trkpt lat="50.04526" lon="2.33641">
        <ele>129.8</ele>
        <time>2023-12-20T14:56:03Z</time>
      </trkpt>
      <trkpt lat="50.04524" lon="2.33641">
        <ele>129.8</ele>
        <time>2023-12-20T14:56:04Z</time>
      </trkpt>
      <trkpt lat="50.04523" lon="2.33641">
        <ele>129.9</ele>
        <time>2023-12-20T14:56:06Z</time>
      </trkpt>
      <trkpt lat="50.04521" lon="2.33641">
        <ele>129.9</ele>
        <time>2023-12-20T14:56:07Z</time>
      </trkpt>
      <trkpt lat="50.0452" lon="2.3364">
        <ele>129.9</ele>
        <time>2023-12-20T14:56:08Z</time>
      </trkpt>
      <trkpt lat="50.04519" lon="2.3364">
        <ele>129.9</ele>
        <time>2023-12-20T14:56:09Z</time>
      </trkpt>
      <trkpt lat="50.04518" lon="2.3364">
        <ele>129.9</ele>
        <time>2023-12-20T14:56:10Z</time>
      </trkpt>
      <trkpt lat="50.04517" lon="2.3364">
        <ele>129.9</ele>
        <time>2023-12-20T14:56:11Z</time>
      </trkpt>
      <trkpt lat="50.04516" lon="2.3364">
        <ele>129.9</ele>
        <time>2023-12-20T14:56:12Z</time>
      </trkpt>
      <trkpt lat="50.04515" lon="2.3364">
        <ele>129.9</ele>
        <time>2023-12-20T14:56:13Z</time>
      </trkpt>
      <trkpt lat="50.04513" lon="2.3364">
        <ele>129.9</ele>
        <time>2023-12-20T14:56:14Z</time>
      </trkpt>
      <trkpt lat="50.04512" lon="2.3364">
        <ele>129.9</ele>
        <time>2023-12-20T14:56:15Z</time>
      </trkpt>
      <trkpt lat="50.0451" lon="2.3364">
        <ele>129.9</ele>
        <time>2023-12-20T14:56:16Z</time>
      </trkpt>
      <trkpt lat="50.04509" lon="2.3364">
        <ele>130</ele>
        <time>2023-12-20T14:56:18Z</time>
      </trkpt>
      <trkpt lat="50.04508" lon="2.3364">
        <ele>130</ele>
        <time>2023-12-20T14:56:19Z</time>
      </trkpt>
      <trkpt lat="50.04506" lon="2.3364">
        <ele>130</ele>
        <time>2023-12-20T14:56:20Z</time>
      </trkpt>
      <trkpt lat="50.04505" lon="2.3364">
        <ele>130</ele>
        <time>2023-12-20T14:56:21Z</time>
      </trkpt>
      <trkpt lat="50.04505" lon="2.3364">
        <ele>130</ele>
        <time>2023-12-20T14:56:22Z</time>
      </trkpt>
      <trkpt lat="50.04503" lon="2.3364">
        <ele>130</ele>
        <time>2023-12-20T14:56:23Z</time>
      </trkpt>
      <trkpt lat="50.04501" lon="2.3364">
        <ele>130</ele>
        <time>2023-12-20T14:56:25Z</time>
      </trkpt>
      <trkpt lat="50.045" lon="2.3364">
        <ele>130</ele>
        <time>2023-12-20T14:56:26Z</time>
      </trkpt>
      <trkpt lat="50.04499" lon="2.3364">
        <ele>130</ele>
        <time>2023-12-20T14:56:28Z</time>
      </trkpt>
      <trkpt lat="50.04498" lon="2.3364">
        <ele>130</ele>
        <time>2023-12-20T14:56:29Z</time>
      </trkpt>
      <trkpt lat="50.04497" lon="2.3364">
        <ele>130</ele>
        <time>2023-12-20T14:56:30Z</time>
      </trkpt>
      <trkpt lat="50.04496" lon="2.3364">
        <ele>130.1</ele>
        <time>2023-12-20T14:56:31Z</time>
      </trkpt>
      <trkpt lat="50.04494" lon="2.3364">
        <ele>130.1</ele>
        <time>2023-12-20T14:56:32Z</time>
      </trkpt>
      <trkpt lat="50.04493" lon="2.3364">
        <ele>130.1</ele>
        <time>2023-12-20T14:56:33Z</time>
      </trkpt>
      <trkpt lat="50.04492" lon="2.3364">
        <ele>130.1</ele>
        <time>2023-12-20T14:56:34Z</time>
      </trkpt>
      <trkpt lat="50.0449" lon="2.3364">
        <ele>130.1</ele>
        <time>2023-12-20T14:56:36Z</time>
      </trkpt>
      <trkpt lat="50.04489" lon="2.3364">
        <ele>130.1</ele>
        <time>2023-12-20T14:56:37Z</time>
      </trkpt>
      <trkpt lat="50.04487" lon="2.3364">
        <ele>130.2</ele>
        <time>2023-12-20T14:56:38Z</time>
      </trkpt>
      <trkpt lat="50.04486" lon="2.3364">
        <ele>130.2</ele>
        <time>2023-12-20T14:56:39Z</time>
      </trkpt>
      <trkpt lat="50.04485" lon="2.3364">
        <ele>130.2</ele>
        <time>2023-12-20T14:56:40Z</time>
      </trkpt>
      <trkpt lat="50.04483" lon="2.33639">
        <ele>130.2</ele>
        <time>2023-12-20T14:56:41Z</time>
      </trkpt>
      <trkpt lat="50.04482" lon="2.33639">
        <ele>130.2</ele>
        <time>2023-12-20T14:56:42Z</time>
      </trkpt>
      <trkpt lat="50.04481" lon="2.33639">
        <ele>130.2</ele>
        <time>2023-12-20T14:56:43Z</time>
      </trkpt>
      <trkpt lat="50.0448" lon="2.33639">
        <ele>130.2</ele>
        <time>2023-12-20T14:56:44Z</time>
      </trkpt>
      <trkpt lat="50.04478" lon="2.33638">
        <ele>130.2</ele>
        <time>2023-12-20T14:56:45Z</time>
      </trkpt>
      <trkpt lat="50.04477" lon="2.33638">
        <ele>130.3</ele>
        <time>2023-12-20T14:56:47Z</time>
      </trkpt>
      <trkpt lat="50.04476" lon="2.33638">
        <ele>130.3</ele>
        <time>2023-12-20T14:56:48Z</time>
      </trkpt>
      <trkpt lat="50.04474" lon="2.33638">
        <ele>130.3</ele>
        <time>2023-12-20T14:56:49Z</time>
      </trkpt>
      <trkpt lat="50.04472" lon="2.33638">
        <ele>130.3</ele>
        <time>2023-12-20T14:56:50Z</time>
      </trkpt>
      <trkpt lat="50.04471" lon="2.33638">
        <ele>130.3</ele>
        <time>2023-12-20T14:56:51Z</time>
      </trkpt>
      <trkpt lat="50.0447" lon="2.33638">
        <ele>130.3</ele>
        <time>2023-12-20T14:56:52Z</time>
      </trkpt>
      <trkpt lat="50.04468" lon="2.33638">
        <ele>130.4</ele>
        <time>2023-12-20T14:56:53Z</time>
      </trkpt>
      <trkpt lat="50.04467" lon="2.33637">
        <ele>130.4</ele>
        <time>2023-12-20T14:56:54Z</time>
      </trkpt>
      <trkpt lat="50.04467" lon="2.33637">
        <ele>130.4</ele>
        <time>2023-12-20T14:56:55Z</time>
      </trkpt>
      <trkpt lat="50.04465" lon="2.33637">
        <ele>130.4</ele>
        <time>2023-12-20T14:56:56Z</time>
      </trkpt>
      <trkpt lat="50.04464" lon="2.33637">
        <ele>130.4</ele>
        <time>2023-12-20T14:56:57Z</time>
      </trkpt>
      <trkpt lat="50.04463" lon="2.33637">
        <ele>130.4</ele>
        <time>2023-12-20T14:56:59Z</time>
      </trkpt>
      <trkpt lat="50.04462" lon="2.33637">
        <ele>130.4</ele>
        <time>2023-12-20T14:57:00Z</time>
      </trkpt>
      <trkpt lat="50.04461" lon="2.33636">
        <ele>130.4</ele>
        <time>2023-12-20T14:57:01Z</time>
      </trkpt>
      <trkpt lat="50.04459" lon="2.33636">
        <ele>130.5</ele>
        <time>2023-12-20T14:57:02Z</time>
      </trkpt>
      <trkpt lat="50.04458" lon="2.33637">
        <ele>130.5</ele>
        <time>2023-12-20T14:57:03Z</time>
      </trkpt>
      <trkpt lat="50.04457" lon="2.33637">
        <ele>130.5</ele>
        <time>2023-12-20T14:57:04Z</time>
      </trkpt>
      <trkpt lat="50.04456" lon="2.33637">
        <ele>130.5</ele>
        <time>2023-12-20T14:57:05Z</time>
      </trkpt>
      <trkpt lat="50.04455" lon="2.33637">
        <ele>130.5</ele>
        <time>2023-12-20T14:57:06Z</time>
      </trkpt>
      <trkpt lat="50.04454" lon="2.33636">
        <ele>130.5</ele>
        <time>2023-12-20T14:57:07Z</time>
      </trkpt>
      <trkpt lat="50.04452" lon="2.33636">
        <ele>130.5</ele>
        <time>2023-12-20T14:57:09Z</time>
      </trkpt>
      <trkpt lat="50.0445" lon="2.33635">
        <ele>130.6</ele>
        <time>2023-12-20T14:57:10Z</time>
      </trkpt>
      <trkpt lat="50.04449" lon="2.33635">
        <ele>130.6</ele>
        <time>2023-12-20T14:57:11Z</time>
      </trkpt>
      <trkpt lat="50.04448" lon="2.33635">
        <ele>130.6</ele>
        <time>2023-12-20T14:57:12Z</time>
      </trkpt>
      <trkpt lat="50.04446" lon="2.33635">
        <ele>130.6</ele>
        <time>2023-12-20T14:57:13Z</time>
      </trkpt>
      <trkpt lat="50.04445" lon="2.33635">
        <ele>130.6</ele>
        <time>2023-12-20T14:57:14Z</time>
      </trkpt>
      <trkpt lat="50.04444" lon="2.33635">
        <ele>130.7</ele>
        <time>2023-12-20T14:57:15Z</time>
      </trkpt>
      <trkpt lat="50.04442" lon="2.33634">
        <ele>130.7</ele>
        <time>2023-12-20T14:57:16Z</time>
      </trkpt>
      <trkpt lat="50.04441" lon="2.33634">
        <ele>130.7</ele>
        <time>2023-12-20T14:57:17Z</time>
      </trkpt>
      <trkpt lat="50.0444" lon="2.33634">
        <ele>130.7</ele>
        <time>2023-12-20T14:57:18Z</time>
      </trkpt>
      <trkpt lat="50.04439" lon="2.33634">
        <ele>130.7</ele>
        <time>2023-12-20T14:57:20Z</time>
      </trkpt>
      <trkpt lat="50.04438" lon="2.33634">
        <ele>130.7</ele>
        <time>2023-12-20T14:57:21Z</time>
      </trkpt>
      <trkpt lat="50.04436" lon="2.33635">
        <ele>130.8</ele>
        <time>2023-12-20T14:57:22Z</time>
      </trkpt>
      <trkpt lat="50.04435" lon="2.33635">
        <ele>130.8</ele>
        <time>2023-12-20T14:57:23Z</time>
      </trkpt>
      <trkpt lat="50.04434" lon="2.33635">
        <ele>130.8</ele>
        <time>2023-12-20T14:57:24Z</time>
      </trkpt>
      <trkpt lat="50.04432" lon="2.33635">
        <ele>130.8</ele>
        <time>2023-12-20T14:57:25Z</time>
      </trkpt>
      <trkpt lat="50.04431" lon="2.33635">
        <ele>130.8</ele>
        <time>2023-12-20T14:57:26Z</time>
      </trkpt>
      <trkpt lat="50.0443" lon="2.33635">
        <ele>130.8</ele>
        <time>2023-12-20T14:57:27Z</time>
      </trkpt>
      <trkpt lat="50.04428" lon="2.33634">
        <ele>130.9</ele>
        <time>2023-12-20T14:57:28Z</time>
      </trkpt>
      <trkpt lat="50.04427" lon="2.33634">
        <ele>130.9</ele>
        <time>2023-12-20T14:57:30Z</time>
      </trkpt>
      <trkpt lat="50.04426" lon="2.33634">
        <ele>130.9</ele>
        <time>2023-12-20T14:57:31Z</time>
      </trkpt>
      <trkpt lat="50.04423" lon="2.33634">
        <ele>130.9</ele>
        <time>2023-12-20T14:57:32Z</time>
      </trkpt>
      <trkpt lat="50.04422" lon="2.33633">
        <ele>131</ele>
        <time>2023-12-20T14:57:33Z</time>
      </trkpt>
      <trkpt lat="50.04422" lon="2.33633">
        <ele>131</ele>
        <time>2023-12-20T14:57:34Z</time>
      </trkpt>
      <trkpt lat="50.04419" lon="2.33633">
        <ele>131</ele>
        <time>2023-12-20T14:57:35Z</time>
      </trkpt>
      <trkpt lat="50.04418" lon="2.33633">
        <ele>131</ele>
        <time>2023-12-20T14:57:36Z</time>
      </trkpt>
      <trkpt lat="50.04417" lon="2.33633">
        <ele>131</ele>
        <time>2023-12-20T14:57:38Z</time>
      </trkpt>
      <trkpt lat="50.04416" lon="2.33633">
        <ele>131</ele>
        <time>2023-12-20T14:57:39Z</time>
      </trkpt>
      <trkpt lat="50.04415" lon="2.33633">
        <ele>131.1</ele>
        <time>2023-12-20T14:57:41Z</time>
      </trkpt>
      <trkpt lat="50.04413" lon="2.33633">
        <ele>131.1</ele>
        <time>2023-12-20T14:57:42Z</time>
      </trkpt>
      <trkpt lat="50.04412" lon="2.33633">
        <ele>131.1</ele>
        <time>2023-12-20T14:57:43Z</time>
      </trkpt>
      <trkpt lat="50.04411" lon="2.33633">
        <ele>131.1</ele>
        <time>2023-12-20T14:57:44Z</time>
      </trkpt>
      <trkpt lat="50.0441" lon="2.33633">
        <ele>131.1</ele>
        <time>2023-12-20T14:57:45Z</time>
      </trkpt>
      <trkpt lat="50.04409" lon="2.33632">
        <ele>131.1</ele>
        <time>2023-12-20T14:57:46Z</time>
      </trkpt>
      <trkpt lat="50.04407" lon="2.33632">
        <ele>131.1</ele>
        <time>2023-12-20T14:57:48Z</time>
      </trkpt>
      <trkpt lat="50.04406" lon="2.33632">
        <ele>131.2</ele>
        <time>2023-12-20T14:57:49Z</time>
      </trkpt>
      <trkpt lat="50.04405" lon="2.33632">
        <ele>131.2</ele>
        <time>2023-12-20T14:57:50Z</time>
      </trkpt>
      <trkpt lat="50.04404" lon="2.33632">
        <ele>131.2</ele>
        <time>2023-12-20T14:57:51Z</time>
      </trkpt>
      <trkpt lat="50.04401" lon="2.33632">
        <ele>131.2</ele>
        <time>2023-12-20T14:57:52Z</time>
      </trkpt>
      <trkpt lat="50.04401" lon="2.33632">
        <ele>131.2</ele>
        <time>2023-12-20T14:57:53Z</time>
      </trkpt>
      <trkpt lat="50.044" lon="2.33632">
        <ele>131.2</ele>
        <time>2023-12-20T14:57:54Z</time>
      </trkpt>
      <trkpt lat="50.04399" lon="2.33632">
        <ele>131.3</ele>
        <time>2023-12-20T14:57:56Z</time>
      </trkpt>
      <trkpt lat="50.04398" lon="2.33631">
        <ele>131.3</ele>
        <time>2023-12-20T14:57:57Z</time>
      </trkpt>
      <trkpt lat="50.04396" lon="2.33631">
        <ele>131.3</ele>
        <time>2023-12-20T14:57:58Z</time>
      </trkpt>
      <trkpt lat="50.04395" lon="2.33631">
        <ele>131.3</ele>
        <time>2023-12-20T14:57:59Z</time>
      </trkpt>
      <trkpt lat="50.04394" lon="2.33631">
        <ele>131.3</ele>
        <time>2023-12-20T14:58:00Z</time>
      </trkpt>
      <trkpt lat="50.04393" lon="2.33631">
        <ele>131.3</ele>
        <time>2023-12-20T14:58:01Z</time>
      </trkpt>
      <trkpt lat="50.04392" lon="2.33631">
        <ele>131.3</ele>
        <time>2023-12-20T14:58:02Z</time>
      </trkpt>
      <trkpt lat="50.04391" lon="2.33631">
        <ele>131.4</ele>
        <time>2023-12-20T14:58:03Z</time>
      </trkpt>
      <trkpt lat="50.04389" lon="2.33631">
        <ele>131.4</ele>
        <time>2023-12-20T14:58:04Z</time>
      </trkpt>
      <trkpt lat="50.04387" lon="2.33632">
        <ele>131.4</ele>
        <time>2023-12-20T14:58:05Z</time>
      </trkpt>
      <trkpt lat="50.04386" lon="2.33632">
        <ele>131.4</ele>
        <time>2023-12-20T14:58:07Z</time>
      </trkpt>
      <trkpt lat="50.04385" lon="2.33632">
        <ele>131.4</ele>
        <time>2023-12-20T14:58:08Z</time>
      </trkpt>
      <trkpt lat="50.04384" lon="2.33632">
        <ele>131.5</ele>
        <time>2023-12-20T14:58:09Z</time>
      </trkpt>
      <trkpt lat="50.04383" lon="2.33632">
        <ele>131.5</ele>
        <time>2023-12-20T14:58:10Z</time>
      </trkpt>
      <trkpt lat="50.04382" lon="2.33632">
        <ele>131.5</ele>
        <time>2023-12-20T14:58:11Z</time>
      </trkpt>
      <trkpt lat="50.04381" lon="2.33632">
        <ele>131.5</ele>
        <time>2023-12-20T14:58:13Z</time>
      </trkpt>
      <trkpt lat="50.0438" lon="2.33632">
        <ele>131.5</ele>
        <time>2023-12-20T14:58:14Z</time>
      </trkpt>
      <trkpt lat="50.04379" lon="2.33633">
        <ele>131.6</ele>
        <time>2023-12-20T14:58:15Z</time>
      </trkpt>
      <trkpt lat="50.04377" lon="2.33632">
        <ele>131.6</ele>
        <time>2023-12-20T14:58:16Z</time>
      </trkpt>
      <trkpt lat="50.04376" lon="2.33632">
        <ele>131.6</ele>
        <time>2023-12-20T14:58:17Z</time>
      </trkpt>
      <trkpt lat="50.04374" lon="2.33632">
        <ele>131.6</ele>
        <time>2023-12-20T14:58:18Z</time>
      </trkpt>
      <trkpt lat="50.04373" lon="2.33632">
        <ele>131.7</ele>
        <time>2023-12-20T14:58:19Z</time>
      </trkpt>
      <trkpt lat="50.04372" lon="2.33632">
        <ele>131.7</ele>
        <time>2023-12-20T14:58:20Z</time>
      </trkpt>
      <trkpt lat="50.04371" lon="2.33632">
        <ele>131.7</ele>
        <time>2023-12-20T14:58:22Z</time>
      </trkpt>
      <trkpt lat="50.04369" lon="2.33631">
        <ele>131.7</ele>
        <time>2023-12-20T14:58:23Z</time>
      </trkpt>
      <trkpt lat="50.04367" lon="2.33631">
        <ele>131.8</ele>
        <time>2023-12-20T14:58:24Z</time>
      </trkpt>
      <trkpt lat="50.04366" lon="2.33631">
        <ele>131.8</ele>
        <time>2023-12-20T14:58:25Z</time>
      </trkpt>
      <trkpt lat="50.04365" lon="2.3363">
        <ele>131.8</ele>
        <time>2023-12-20T14:58:26Z</time>
      </trkpt>
      <trkpt lat="50.04364" lon="2.3363">
        <ele>131.8</ele>
        <time>2023-12-20T14:58:27Z</time>
      </trkpt>
      <trkpt lat="50.04363" lon="2.3363">
        <ele>131.8</ele>
        <time>2023-12-20T14:58:28Z</time>
      </trkpt>
      <trkpt lat="50.04361" lon="2.3363">
        <ele>131.9</ele>
        <time>2023-12-20T14:58:29Z</time>
      </trkpt>
      <trkpt lat="50.0436" lon="2.33629">
        <ele>131.9</ele>
        <time>2023-12-20T14:58:30Z</time>
      </trkpt>
      <trkpt lat="50.04359" lon="2.33629">
        <ele>131.9</ele>
        <time>2023-12-20T14:58:32Z</time>
      </trkpt>
      <trkpt lat="50.04358" lon="2.33629">
        <ele>131.9</ele>
        <time>2023-12-20T14:58:33Z</time>
      </trkpt>
      <trkpt lat="50.04356" lon="2.33629">
        <ele>132</ele>
        <time>2023-12-20T14:58:34Z</time>
      </trkpt>
      <trkpt lat="50.04355" lon="2.33629">
        <ele>132</ele>
        <time>2023-12-20T14:58:35Z</time>
      </trkpt>
      <trkpt lat="50.04354" lon="2.33629">
        <ele>132</ele>
        <time>2023-12-20T14:58:36Z</time>
      </trkpt>
      <trkpt lat="50.04353" lon="2.33629">
        <ele>132</ele>
        <time>2023-12-20T14:58:37Z</time>
      </trkpt>
      <trkpt lat="50.04352" lon="2.33628">
        <ele>132</ele>
        <time>2023-12-20T14:58:38Z</time>
      </trkpt>
      <trkpt lat="50.04351" lon="2.33628">
        <ele>132.1</ele>
        <time>2023-12-20T14:58:39Z</time>
      </trkpt>
      <trkpt lat="50.0435" lon="2.33627">
        <ele>132.1</ele>
        <time>2023-12-20T14:58:41Z</time>
      </trkpt>
      <trkpt lat="50.04349" lon="2.33627">
        <ele>132.1</ele>
        <time>2023-12-20T14:58:42Z</time>
      </trkpt>
      <trkpt lat="50.04346" lon="2.33626">
        <ele>132.1</ele>
        <time>2023-12-20T14:58:43Z</time>
      </trkpt>
      <trkpt lat="50.04346" lon="2.33626">
        <ele>132.2</ele>
        <time>2023-12-20T14:58:44Z</time>
      </trkpt>
      <trkpt lat="50.04345" lon="2.33625">
        <ele>132.2</ele>
        <time>2023-12-20T14:58:45Z</time>
      </trkpt>
      <trkpt lat="50.04344" lon="2.33625">
        <ele>132.2</ele>
        <time>2023-12-20T14:58:46Z</time>
      </trkpt>
      <trkpt lat="50.04342" lon="2.33624">
        <ele>132.2</ele>
        <time>2023-12-20T14:58:47Z</time>
      </trkpt>
      <trkpt lat="50.0434" lon="2.33623">
        <ele>132.3</ele>
        <time>2023-12-20T14:58:48Z</time>
      </trkpt>
      <trkpt lat="50.0434" lon="2.33622">
        <ele>132.3</ele>
        <time>2023-12-20T14:58:49Z</time>
      </trkpt>
      <trkpt lat="50.04339" lon="2.33622">
        <ele>132.3</ele>
        <time>2023-12-20T14:58:50Z</time>
      </trkpt>
      <trkpt lat="50.04337" lon="2.3362">
        <ele>132.3</ele>
        <time>2023-12-20T14:58:51Z</time>
      </trkpt>
      <trkpt lat="50.04336" lon="2.3362">
        <ele>132.3</ele>
        <time>2023-12-20T14:58:53Z</time>
      </trkpt>
      <trkpt lat="50.04335" lon="2.33619">
        <ele>132.4</ele>
        <time>2023-12-20T14:58:54Z</time>
      </trkpt>
      <trkpt lat="50.04333" lon="2.33619">
        <ele>132.4</ele>
        <time>2023-12-20T14:58:55Z</time>
      </trkpt>
      <trkpt lat="50.04332" lon="2.33618">
        <ele>132.4</ele>
        <time>2023-12-20T14:58:56Z</time>
      </trkpt>
      <trkpt lat="50.0433" lon="2.33617">
        <ele>132.5</ele>
        <time>2023-12-20T14:58:57Z</time>
      </trkpt>
      <trkpt lat="50.04329" lon="2.33616">
        <ele>132.5</ele>
        <time>2023-12-20T14:58:58Z</time>
      </trkpt>
      <trkpt lat="50.04327" lon="2.33615">
        <ele>132.5</ele>
        <time>2023-12-20T14:59:00Z</time>
      </trkpt>
      <trkpt lat="50.04326" lon="2.33614">
        <ele>132.6</ele>
        <time>2023-12-20T14:59:01Z</time>
      </trkpt>
      <trkpt lat="50.04324" lon="2.33613">
        <ele>132.6</ele>
        <time>2023-12-20T14:59:02Z</time>
      </trkpt>
      <trkpt lat="50.04323" lon="2.33612">
        <ele>132.6</ele>
        <time>2023-12-20T14:59:03Z</time>
      </trkpt>
      <trkpt lat="50.04321" lon="2.33611">
        <ele>132.6</ele>
        <time>2023-12-20T14:59:04Z</time>
      </trkpt>
      <trkpt lat="50.0432" lon="2.3361">
        <ele>132.7</ele>
        <time>2023-12-20T14:59:05Z</time>
      </trkpt>
      <trkpt lat="50.04318" lon="2.33608">
        <ele>132.7</ele>
        <time>2023-12-20T14:59:06Z</time>
      </trkpt>
      <trkpt lat="50.04317" lon="2.33607">
        <ele>132.8</ele>
        <time>2023-12-20T14:59:08Z</time>
      </trkpt>
      <trkpt lat="50.04316" lon="2.33607">
        <ele>132.8</ele>
        <time>2023-12-20T14:59:09Z</time>
      </trkpt>
      <trkpt lat="50.04315" lon="2.33605">
        <ele>132.8</ele>
        <time>2023-12-20T14:59:10Z</time>
      </trkpt>
      <trkpt lat="50.04314" lon="2.33604">
        <ele>132.9</ele>
        <time>2023-12-20T14:59:11Z</time>
      </trkpt>
      <trkpt lat="50.04313" lon="2.33603">
        <ele>132.9</ele>
        <time>2023-12-20T14:59:12Z</time>
      </trkpt>
      <trkpt lat="50.04311" lon="2.33602">
        <ele>132.9</ele>
        <time>2023-12-20T14:59:13Z</time>
      </trkpt>
      <trkpt lat="50.0431" lon="2.33601">
        <ele>133</ele>
        <time>2023-12-20T14:59:14Z</time>
      </trkpt>
      <trkpt lat="50.04309" lon="2.336">
        <ele>133</ele>
        <time>2023-12-20T14:59:15Z</time>
      </trkpt>
      <trkpt lat="50.04307" lon="2.33598">
        <ele>133.1</ele>
        <time>2023-12-20T14:59:16Z</time>
      </trkpt>
      <trkpt lat="50.04306" lon="2.33598">
        <ele>133.1</ele>
        <time>2023-12-20T14:59:17Z</time>
      </trkpt>
      <trkpt lat="50.04305" lon="2.33597">
        <ele>133.1</ele>
        <time>2023-12-20T14:59:18Z</time>
      </trkpt>
      <trkpt lat="50.04304" lon="2.33597">
        <ele>133.2</ele>
        <time>2023-12-20T14:59:20Z</time>
      </trkpt>
      <trkpt lat="50.04304" lon="2.33596">
        <ele>133.2</ele>
        <time>2023-12-20T14:59:21Z</time>
      </trkpt>
      <trkpt lat="50.04302" lon="2.33596">
        <ele>133.3</ele>
        <time>2023-12-20T14:59:22Z</time>
      </trkpt>
      <trkpt lat="50.04301" lon="2.33595">
        <ele>133.3</ele>
        <time>2023-12-20T14:59:23Z</time>
      </trkpt>
      <trkpt lat="50.043" lon="2.33594">
        <ele>133.3</ele>
        <time>2023-12-20T14:59:24Z</time>
      </trkpt>
      <trkpt lat="50.04299" lon="2.33594">
        <ele>133.4</ele>
        <time>2023-12-20T14:59:25Z</time>
      </trkpt>
      <trkpt lat="50.04298" lon="2.33593">
        <ele>133.4</ele>
        <time>2023-12-20T14:59:26Z</time>
      </trkpt>
      <trkpt lat="50.04297" lon="2.33592">
        <ele>133.4</ele>
        <time>2023-12-20T14:59:27Z</time>
      </trkpt>
      <trkpt lat="50.04296" lon="2.33591">
        <ele>133.5</ele>
        <time>2023-12-20T14:59:28Z</time>
      </trkpt>
      <trkpt lat="50.04294" lon="2.3359">
        <ele>133.6</ele>
        <time>2023-12-20T14:59:29Z</time>
      </trkpt>
      <trkpt lat="50.04293" lon="2.33589">
        <ele>133.6</ele>
        <time>2023-12-20T14:59:30Z</time>
      </trkpt>
      <trkpt lat="50.04292" lon="2.33589">
        <ele>133.6</ele>
        <time>2023-12-20T14:59:32Z</time>
      </trkpt>
      <trkpt lat="50.04292" lon="2.33588">
        <ele>133.6</ele>
        <time>2023-12-20T14:59:33Z</time>
      </trkpt>
      <trkpt lat="50.04291" lon="2.33587">
        <ele>133.7</ele>
        <time>2023-12-20T14:59:34Z</time>
      </trkpt>
      <trkpt lat="50.0429" lon="2.33586">
        <ele>133.7</ele>
        <time>2023-12-20T14:59:35Z</time>
      </trkpt>
      <trkpt lat="50.04288" lon="2.33585">
        <ele>133.8</ele>
        <time>2023-12-20T14:59:36Z</time>
      </trkpt>
      <trkpt lat="50.04288" lon="2.33585">
        <ele>133.8</ele>
        <time>2023-12-20T14:59:37Z</time>
      </trkpt>
      <trkpt lat="50.04287" lon="2.33585">
        <ele>133.8</ele>
        <time>2023-12-20T14:59:38Z</time>
      </trkpt>
      <trkpt lat="50.04286" lon="2.33585">
        <ele>133.8</ele>
        <time>2023-12-20T14:59:40Z</time>
      </trkpt>
      <trkpt lat="50.04286" lon="2.33585">
        <ele>133.9</ele>
        <time>2023-12-20T14:59:41Z</time>
      </trkpt>
      <trkpt lat="50.04285" lon="2.33585">
        <ele>133.9</ele>
        <time>2023-12-20T14:59:42Z</time>
      </trkpt>
      <trkpt lat="50.04285" lon="2.33585">
        <ele>133.9</ele>
        <time>2023-12-20T14:59:43Z</time>
      </trkpt>
      <trkpt lat="50.04284" lon="2.33585">
        <ele>133.9</ele>
        <time>2023-12-20T14:59:44Z</time>
      </trkpt>
      <trkpt lat="50.04283" lon="2.33584">
        <ele>133.9</ele>
        <time>2023-12-20T14:59:45Z</time>
      </trkpt>
      <trkpt lat="50.04282" lon="2.33583">
        <ele>134</ele>
        <time>2023-12-20T14:59:46Z</time>
      </trkpt>
      <trkpt lat="50.04281" lon="2.33582">
        <ele>134</ele>
        <time>2023-12-20T14:59:47Z</time>
      </trkpt>
      <trkpt lat="50.04279" lon="2.33581">
        <ele>134.1</ele>
        <time>2023-12-20T14:59:48Z</time>
      </trkpt>
      <trkpt lat="50.04278" lon="2.3358">
        <ele>134.1</ele>
        <time>2023-12-20T14:59:50Z</time>
      </trkpt>
      <trkpt lat="50.04278" lon="2.33579">
        <ele>134.2</ele>
        <time>2023-12-20T14:59:51Z</time>
      </trkpt>
      <trkpt lat="50.04276" lon="2.33578">
        <ele>134.2</ele>
        <time>2023-12-20T14:59:52Z</time>
      </trkpt>
      <trkpt lat="50.04275" lon="2.33578">
        <ele>134.3</ele>
        <time>2023-12-20T14:59:53Z</time>
      </trkpt>
      <trkpt lat="50.04274" lon="2.33577">
        <ele>134.3</ele>
        <time>2023-12-20T14:59:54Z</time>
      </trkpt>
      <trkpt lat="50.04273" lon="2.33577">
        <ele>134.3</ele>
        <time>2023-12-20T14:59:55Z</time>
      </trkpt>
      <trkpt lat="50.04272" lon="2.33577">
        <ele>134.4</ele>
        <time>2023-12-20T14:59:56Z</time>
      </trkpt>
      <trkpt lat="50.0427" lon="2.33577">
        <ele>134.4</ele>
        <time>2023-12-20T14:59:57Z</time>
      </trkpt>
      <trkpt lat="50.04268" lon="2.33575">
        <ele>134.5</ele>
        <time>2023-12-20T14:59:59Z</time>
      </trkpt>
      <trkpt lat="50.04268" lon="2.33575">
        <ele>134.5</ele>
        <time>2023-12-20T15:00:00Z</time>
      </trkpt>
      <trkpt lat="50.04267" lon="2.33574">
        <ele>134.5</ele>
        <time>2023-12-20T15:00:01Z</time>
      </trkpt>
      <trkpt lat="50.04266" lon="2.33573">
        <ele>134.6</ele>
        <time>2023-12-20T15:00:02Z</time>
      </trkpt>
      <trkpt lat="50.04265" lon="2.33573">
        <ele>134.6</ele>
        <time>2023-12-20T15:00:03Z</time>
      </trkpt>
      <trkpt lat="50.04264" lon="2.33572">
        <ele>134.6</ele>
        <time>2023-12-20T15:00:04Z</time>
      </trkpt>
      <trkpt lat="50.04262" lon="2.3357">
        <ele>134.7</ele>
        <time>2023-12-20T15:00:05Z</time>
      </trkpt>
      <trkpt lat="50.04261" lon="2.33569">
        <ele>134.7</ele>
        <time>2023-12-20T15:00:06Z</time>
      </trkpt>
      <trkpt lat="50.04261" lon="2.33568">
        <ele>134.8</ele>
        <time>2023-12-20T15:00:07Z</time>
      </trkpt>
      <trkpt lat="50.0426" lon="2.33567">
        <ele>134.8</ele>
        <time>2023-12-20T15:00:09Z</time>
      </trkpt>
      <trkpt lat="50.04259" lon="2.33566">
        <ele>134.8</ele>
        <time>2023-12-20T15:00:10Z</time>
      </trkpt>
      <trkpt lat="50.04258" lon="2.33566">
        <ele>134.9</ele>
        <time>2023-12-20T15:00:11Z</time>
      </trkpt>
      <trkpt lat="50.04256" lon="2.33565">
        <ele>134.9</ele>
        <time>2023-12-20T15:00:12Z</time>
      </trkpt>
      <trkpt lat="50.04255" lon="2.33565">
        <ele>134.9</ele>
        <time>2023-12-20T15:00:13Z</time>
      </trkpt>
      <trkpt lat="50.04254" lon="2.33564">
        <ele>135</ele>
        <time>2023-12-20T15:00:14Z</time>
      </trkpt>
      <trkpt lat="50.04252" lon="2.33564">
        <ele>135</ele>
        <time>2023-12-20T15:00:15Z</time>
      </trkpt>
      <trkpt lat="50.04251" lon="2.33564">
        <ele>135.1</ele>
        <time>2023-12-20T15:00:16Z</time>
      </trkpt>
      <trkpt lat="50.0425" lon="2.33563">
        <ele>135.1</ele>
        <time>2023-12-20T15:00:17Z</time>
      </trkpt>
      <trkpt lat="50.04249" lon="2.33563">
        <ele>135.1</ele>
        <time>2023-12-20T15:00:18Z</time>
      </trkpt>
      <trkpt lat="50.04248" lon="2.33562">
        <ele>135.2</ele>
        <time>2023-12-20T15:00:19Z</time>
      </trkpt>
      <trkpt lat="50.04246" lon="2.33562">
        <ele>135.2</ele>
        <time>2023-12-20T15:00:21Z</time>
      </trkpt>
      <trkpt lat="50.04244" lon="2.33561">
        <ele>135.2</ele>
        <time>2023-12-20T15:00:22Z</time>
      </trkpt>
      <trkpt lat="50.04243" lon="2.33561">
        <ele>135.3</ele>
        <time>2023-12-20T15:00:23Z</time>
      </trkpt>
      <trkpt lat="50.04243" lon="2.33561">
        <ele>135.3</ele>
        <time>2023-12-20T15:00:24Z</time>
      </trkpt>
      <trkpt lat="50.04241" lon="2.3356">
        <ele>135.4</ele>
        <time>2023-12-20T15:00:25Z</time>
      </trkpt>
      <trkpt lat="50.0424" lon="2.3356">
        <ele>135.4</ele>
        <time>2023-12-20T15:00:26Z</time>
      </trkpt>
      <trkpt lat="50.04239" lon="2.3356">
        <ele>135.4</ele>
        <time>2023-12-20T15:00:27Z</time>
      </trkpt>
      <trkpt lat="50.04237" lon="2.33559">
        <ele>135.5</ele>
        <time>2023-12-20T15:00:29Z</time>
      </trkpt>
      <trkpt lat="50.04236" lon="2.33558">
        <ele>135.5</ele>
        <time>2023-12-20T15:00:30Z</time>
      </trkpt>
      <trkpt lat="50.04236" lon="2.33558">
        <ele>135.5</ele>
        <time>2023-12-20T15:00:31Z</time>
      </trkpt>
      <trkpt lat="50.04233" lon="2.33557">
        <ele>135.6</ele>
        <time>2023-12-20T15:00:32Z</time>
      </trkpt>
      <trkpt lat="50.04233" lon="2.33557">
        <ele>135.6</ele>
        <time>2023-12-20T15:00:33Z</time>
      </trkpt>
      <trkpt lat="50.04232" lon="2.33556">
        <ele>135.6</ele>
        <time>2023-12-20T15:00:34Z</time>
      </trkpt>
      <trkpt lat="50.0423" lon="2.33556">
        <ele>135.7</ele>
        <time>2023-12-20T15:00:35Z</time>
      </trkpt>
      <trkpt lat="50.04229" lon="2.33556">
        <ele>135.7</ele>
        <time>2023-12-20T15:00:36Z</time>
      </trkpt>
      <trkpt lat="50.04228" lon="2.33555">
        <ele>135.7</ele>
        <time>2023-12-20T15:00:37Z</time>
      </trkpt>
      <trkpt lat="50.04226" lon="2.33555">
        <ele>135.8</ele>
        <time>2023-12-20T15:00:38Z</time>
      </trkpt>
      <trkpt lat="50.04225" lon="2.33554">
        <ele>135.8</ele>
        <time>2023-12-20T15:00:40Z</time>
      </trkpt>
      <trkpt lat="50.04224" lon="2.33554">
        <ele>135.8</ele>
        <time>2023-12-20T15:00:41Z</time>
      </trkpt>
      <trkpt lat="50.04222" lon="2.33554">
        <ele>135.9</ele>
        <time>2023-12-20T15:00:42Z</time>
      </trkpt>
      <trkpt lat="50.04222" lon="2.33553">
        <ele>135.9</ele>
        <time>2023-12-20T15:00:43Z</time>
      </trkpt>
      <trkpt lat="50.04221" lon="2.33553">
        <ele>135.9</ele>
        <time>2023-12-20T15:00:44Z</time>
      </trkpt>
      <trkpt lat="50.04219" lon="2.33553">
        <ele>136</ele>
        <time>2023-12-20T15:00:45Z</time>
      </trkpt>
      <trkpt lat="50.04218" lon="2.33552">
        <ele>136</ele>
        <time>2023-12-20T15:00:46Z</time>
      </trkpt>
      <trkpt lat="50.04217" lon="2.33552">
        <ele>136</ele>
        <time>2023-12-20T15:00:47Z</time>
      </trkpt>
      <trkpt lat="50.04216" lon="2.33552">
        <ele>136.1</ele>
        <time>2023-12-20T15:00:48Z</time>
      </trkpt>
      <trkpt lat="50.04215" lon="2.33551">
        <ele>136.1</ele>
        <time>2023-12-20T15:00:49Z</time>
      </trkpt>
      <trkpt lat="50.04213" lon="2.33551">
        <ele>136.1</ele>
        <time>2023-12-20T15:00:51Z</time>
      </trkpt>
      <trkpt lat="50.04211" lon="2.3355">
        <ele>136.2</ele>
        <time>2023-12-20T15:00:52Z</time>
      </trkpt>
      <trkpt lat="50.04211" lon="2.3355">
        <ele>136.2</ele>
        <time>2023-12-20T15:00:53Z</time>
      </trkpt>
      <trkpt lat="50.0421" lon="2.33549">
        <ele>136.2</ele>
        <time>2023-12-20T15:00:54Z</time>
      </trkpt>
      <trkpt lat="50.04209" lon="2.33549">
        <ele>136.3</ele>
        <time>2023-12-20T15:00:55Z</time>
      </trkpt>
      <trkpt lat="50.04207" lon="2.33548">
        <ele>136.3</ele>
        <time>2023-12-20T15:00:56Z</time>
      </trkpt>
      <trkpt lat="50.04206" lon="2.33548">
        <ele>136.3</ele>
        <time>2023-12-20T15:00:57Z</time>
      </trkpt>
      <trkpt lat="50.04205" lon="2.33547">
        <ele>136.4</ele>
        <time>2023-12-20T15:00:58Z</time>
      </trkpt>
      <trkpt lat="50.04204" lon="2.33547">
        <ele>136.4</ele>
        <time>2023-12-20T15:01:00Z</time>
      </trkpt>
      <trkpt lat="50.04203" lon="2.33546">
        <ele>136.4</ele>
        <time>2023-12-20T15:01:01Z</time>
      </trkpt>
      <trkpt lat="50.04202" lon="2.33546">
        <ele>136.5</ele>
        <time>2023-12-20T15:01:02Z</time>
      </trkpt>
      <trkpt lat="50.04201" lon="2.33546">
        <ele>136.5</ele>
        <time>2023-12-20T15:01:03Z</time>
      </trkpt>
      <trkpt lat="50.042" lon="2.33545">
        <ele>136.5</ele>
        <time>2023-12-20T15:01:04Z</time>
      </trkpt>
      <trkpt lat="50.04198" lon="2.33544">
        <ele>136.6</ele>
        <time>2023-12-20T15:01:05Z</time>
      </trkpt>
      <trkpt lat="50.04197" lon="2.33544">
        <ele>136.6</ele>
        <time>2023-12-20T15:01:06Z</time>
      </trkpt>
      <trkpt lat="50.04196" lon="2.33544">
        <ele>136.7</ele>
        <time>2023-12-20T15:01:07Z</time>
      </trkpt>
      <trkpt lat="50.04195" lon="2.33543">
        <ele>136.7</ele>
        <time>2023-12-20T15:01:08Z</time>
      </trkpt>
      <trkpt lat="50.04194" lon="2.33543">
        <ele>136.7</ele>
        <time>2023-12-20T15:01:10Z</time>
      </trkpt>
      <trkpt lat="50.04193" lon="2.33542">
        <ele>136.8</ele>
        <time>2023-12-20T15:01:11Z</time>
      </trkpt>
      <trkpt lat="50.04192" lon="2.33542">
        <ele>136.8</ele>
        <time>2023-12-20T15:01:12Z</time>
      </trkpt>
      <trkpt lat="50.04191" lon="2.33541">
        <ele>136.8</ele>
        <time>2023-12-20T15:01:13Z</time>
      </trkpt>
      <trkpt lat="50.04189" lon="2.33541">
        <ele>136.8</ele>
        <time>2023-12-20T15:01:14Z</time>
      </trkpt>
      <trkpt lat="50.04188" lon="2.3354">
        <ele>136.9</ele>
        <time>2023-12-20T15:01:15Z</time>
      </trkpt>
      <trkpt lat="50.04187" lon="2.3354">
        <ele>136.9</ele>
        <time>2023-12-20T15:01:16Z</time>
      </trkpt>
      <trkpt lat="50.04186" lon="2.33539">
        <ele>136.9</ele>
        <time>2023-12-20T15:01:18Z</time>
      </trkpt>
      <trkpt lat="50.04184" lon="2.33539">
        <ele>137</ele>
        <time>2023-12-20T15:01:19Z</time>
      </trkpt>
      <trkpt lat="50.04183" lon="2.33538">
        <ele>137</ele>
        <time>2023-12-20T15:01:20Z</time>
      </trkpt>
      <trkpt lat="50.04182" lon="2.33538">
        <ele>137</ele>
        <time>2023-12-20T15:01:21Z</time>
      </trkpt>
      <trkpt lat="50.0418" lon="2.33537">
        <ele>137.1</ele>
        <time>2023-12-20T15:01:22Z</time>
      </trkpt>
      <trkpt lat="50.0418" lon="2.33537">
        <ele>137.1</ele>
        <time>2023-12-20T15:01:23Z</time>
      </trkpt>
      <trkpt lat="50.04179" lon="2.33537">
        <ele>137.1</ele>
        <time>2023-12-20T15:01:24Z</time>
      </trkpt>
      <trkpt lat="50.04178" lon="2.33536">
        <ele>137.1</ele>
        <time>2023-12-20T15:01:25Z</time>
      </trkpt>
      <trkpt lat="50.04176" lon="2.33536">
        <ele>137.2</ele>
        <time>2023-12-20T15:01:26Z</time>
      </trkpt>
      <trkpt lat="50.04175" lon="2.33536">
        <ele>137.2</ele>
        <time>2023-12-20T15:01:28Z</time>
      </trkpt>
      <trkpt lat="50.04173" lon="2.33535">
        <ele>137.2</ele>
        <time>2023-12-20T15:01:29Z</time>
      </trkpt>
      <trkpt lat="50.04172" lon="2.33535">
        <ele>137.2</ele>
        <time>2023-12-20T15:01:30Z</time>
      </trkpt>
      <trkpt lat="50.04172" lon="2.33534">
        <ele>137.3</ele>
        <time>2023-12-20T15:01:31Z</time>
      </trkpt>
      <trkpt lat="50.0417" lon="2.33534">
        <ele>137.3</ele>
        <time>2023-12-20T15:01:32Z</time>
      </trkpt>
      <trkpt lat="50.04169" lon="2.33533">
        <ele>137.3</ele>
        <time>2023-12-20T15:01:33Z</time>
      </trkpt>
      <trkpt lat="50.04168" lon="2.33533">
        <ele>137.3</ele>
        <time>2023-12-20T15:01:34Z</time>
      </trkpt>
      <trkpt lat="50.04167" lon="2.33532">
        <ele>137.4</ele>
        <time>2023-12-20T15:01:35Z</time>
      </trkpt>
      <trkpt lat="50.04166" lon="2.33532">
        <ele>137.4</ele>
        <time>2023-12-20T15:01:36Z</time>
      </trkpt>
      <trkpt lat="50.04164" lon="2.33531">
        <ele>137.4</ele>
        <time>2023-12-20T15:01:38Z</time>
      </trkpt>
      <trkpt lat="50.04162" lon="2.33531">
        <ele>137.4</ele>
        <time>2023-12-20T15:01:39Z</time>
      </trkpt>
      <trkpt lat="50.04161" lon="2.3353">
        <ele>137.5</ele>
        <time>2023-12-20T15:01:40Z</time>
      </trkpt>
      <trkpt lat="50.04161" lon="2.3353">
        <ele>137.5</ele>
        <time>2023-12-20T15:01:41Z</time>
      </trkpt>
      <trkpt lat="50.04159" lon="2.3353">
        <ele>137.5</ele>
        <time>2023-12-20T15:01:42Z</time>
      </trkpt>
      <trkpt lat="50.04158" lon="2.33529">
        <ele>137.5</ele>
        <time>2023-12-20T15:01:43Z</time>
      </trkpt>
      <trkpt lat="50.04157" lon="2.33529">
        <ele>137.6</ele>
        <time>2023-12-20T15:01:44Z</time>
      </trkpt>
      <trkpt lat="50.04155" lon="2.33528">
        <ele>137.6</ele>
        <time>2023-12-20T15:01:45Z</time>
      </trkpt>
      <trkpt lat="50.04154" lon="2.33528">
        <ele>137.6</ele>
        <time>2023-12-20T15:01:46Z</time>
      </trkpt>
      <trkpt lat="50.04153" lon="2.33528">
        <ele>137.6</ele>
        <time>2023-12-20T15:01:48Z</time>
      </trkpt>
      <trkpt lat="50.04152" lon="2.33528">
        <ele>137.7</ele>
        <time>2023-12-20T15:01:49Z</time>
      </trkpt>
      <trkpt lat="50.04151" lon="2.33527">
        <ele>137.7</ele>
        <time>2023-12-20T15:01:50Z</time>
      </trkpt>
      <trkpt lat="50.0415" lon="2.33527">
        <ele>137.7</ele>
        <time>2023-12-20T15:01:51Z</time>
      </trkpt>
      <trkpt lat="50.04148" lon="2.33527">
        <ele>137.7</ele>
        <time>2023-12-20T15:01:52Z</time>
      </trkpt>
      <trkpt lat="50.04147" lon="2.33526">
        <ele>137.8</ele>
        <time>2023-12-20T15:01:53Z</time>
      </trkpt>
      <trkpt lat="50.04147" lon="2.33526">
        <ele>137.8</ele>
        <time>2023-12-20T15:01:54Z</time>
      </trkpt>
      <trkpt lat="50.04145" lon="2.33526">
        <ele>137.8</ele>
        <time>2023-12-20T15:01:55Z</time>
      </trkpt>
      <trkpt lat="50.04144" lon="2.33525">
        <ele>137.8</ele>
        <time>2023-12-20T15:01:56Z</time>
      </trkpt>
      <trkpt lat="50.04143" lon="2.33525">
        <ele>137.8</ele>
        <time>2023-12-20T15:01:58Z</time>
      </trkpt>
      <trkpt lat="50.04142" lon="2.33525">
        <ele>137.9</ele>
        <time>2023-12-20T15:01:59Z</time>
      </trkpt>
      <trkpt lat="50.04141" lon="2.33524">
        <ele>137.9</ele>
        <time>2023-12-20T15:02:00Z</time>
      </trkpt>
      <trkpt lat="50.0414" lon="2.33524">
        <ele>137.9</ele>
        <time>2023-12-20T15:02:01Z</time>
      </trkpt>
      <trkpt lat="50.04139" lon="2.33524">
        <ele>137.9</ele>
        <time>2023-12-20T15:02:02Z</time>
      </trkpt>
      <trkpt lat="50.04138" lon="2.33523">
        <ele>138</ele>
        <time>2023-12-20T15:02:03Z</time>
      </trkpt>
      <trkpt lat="50.04137" lon="2.33522">
        <ele>138</ele>
        <time>2023-12-20T15:02:04Z</time>
      </trkpt>
      <trkpt lat="50.04136" lon="2.33522">
        <ele>138</ele>
        <time>2023-12-20T15:02:05Z</time>
      </trkpt>
      <trkpt lat="50.04134" lon="2.33521">
        <ele>138</ele>
        <time>2023-12-20T15:02:06Z</time>
      </trkpt>
      <trkpt lat="50.04133" lon="2.33521">
        <ele>138.1</ele>
        <time>2023-12-20T15:02:08Z</time>
      </trkpt>
      <trkpt lat="50.04131" lon="2.33521">
        <ele>138.1</ele>
        <time>2023-12-20T15:02:09Z</time>
      </trkpt>
      <trkpt lat="50.0413" lon="2.3352">
        <ele>138.1</ele>
        <time>2023-12-20T15:02:10Z</time>
      </trkpt>
      <trkpt lat="50.04129" lon="2.3352">
        <ele>138.1</ele>
        <time>2023-12-20T15:02:11Z</time>
      </trkpt>
      <trkpt lat="50.04128" lon="2.3352">
        <ele>138.2</ele>
        <time>2023-12-20T15:02:12Z</time>
      </trkpt>
      <trkpt lat="50.04127" lon="2.3352">
        <ele>138.2</ele>
        <time>2023-12-20T15:02:13Z</time>
      </trkpt>
      <trkpt lat="50.04126" lon="2.3352">
        <ele>138.2</ele>
        <time>2023-12-20T15:02:14Z</time>
      </trkpt>
      <trkpt lat="50.04125" lon="2.33519">
        <ele>138.2</ele>
        <time>2023-12-20T15:02:15Z</time>
      </trkpt>
      <trkpt lat="50.04125" lon="2.33519">
        <ele>138.2</ele>
        <time>2023-12-20T15:02:16Z</time>
      </trkpt>
      <trkpt lat="50.04124" lon="2.33519">
        <ele>138.2</ele>
        <time>2023-12-20T15:02:18Z</time>
      </trkpt>
      <trkpt lat="50.04124" lon="2.33519">
        <ele>138.3</ele>
        <time>2023-12-20T15:02:19Z</time>
      </trkpt>
      <trkpt lat="50.04123" lon="2.33519">
        <ele>138.3</ele>
        <time>2023-12-20T15:02:20Z</time>
      </trkpt>
      <trkpt lat="50.04122" lon="2.33519">
        <ele>138.3</ele>
        <time>2023-12-20T15:02:21Z</time>
      </trkpt>
      <trkpt lat="50.04122" lon="2.33518">
        <ele>138.3</ele>
        <time>2023-12-20T15:02:22Z</time>
      </trkpt>
      <trkpt lat="50.04121" lon="2.33518">
        <ele>138.3</ele>
        <time>2023-12-20T15:02:23Z</time>
      </trkpt>
      <trkpt lat="50.0412" lon="2.33518">
        <ele>138.3</ele>
        <time>2023-12-20T15:02:24Z</time>
      </trkpt>
      <trkpt lat="50.04119" lon="2.33518">
        <ele>138.4</ele>
        <time>2023-12-20T15:02:25Z</time>
      </trkpt>
      <trkpt lat="50.04118" lon="2.33518">
        <ele>138.4</ele>
        <time>2023-12-20T15:02:26Z</time>
      </trkpt>
      <trkpt lat="50.04117" lon="2.33518">
        <ele>138.4</ele>
        <time>2023-12-20T15:02:27Z</time>
      </trkpt>
      <trkpt lat="50.04115" lon="2.33517">
        <ele>138.5</ele>
        <time>2023-12-20T15:02:28Z</time>
      </trkpt>
      <trkpt lat="50.04114" lon="2.33517">
        <ele>138.5</ele>
        <time>2023-12-20T15:02:30Z</time>
      </trkpt>
      <trkpt lat="50.04113" lon="2.33517">
        <ele>138.5</ele>
        <time>2023-12-20T15:02:31Z</time>
      </trkpt>
      <trkpt lat="50.04111" lon="2.33516">
        <ele>138.5</ele>
        <time>2023-12-20T15:02:32Z</time>
      </trkpt>
      <trkpt lat="50.0411" lon="2.33516">
        <ele>138.6</ele>
        <time>2023-12-20T15:02:33Z</time>
      </trkpt>
      <trkpt lat="50.04109" lon="2.33515">
        <ele>138.6</ele>
        <time>2023-12-20T15:02:34Z</time>
      </trkpt>
      <trkpt lat="50.04108" lon="2.33515">
        <ele>138.6</ele>
        <time>2023-12-20T15:02:35Z</time>
      </trkpt>
      <trkpt lat="50.04107" lon="2.33515">
        <ele>138.6</ele>
        <time>2023-12-20T15:02:36Z</time>
      </trkpt>
      <trkpt lat="50.04106" lon="2.33514">
        <ele>138.6</ele>
        <time>2023-12-20T15:02:37Z</time>
      </trkpt>
      <trkpt lat="50.04105" lon="2.33514">
        <ele>138.7</ele>
        <time>2023-12-20T15:02:38Z</time>
      </trkpt>
      <trkpt lat="50.04104" lon="2.33514">
        <ele>138.7</ele>
        <time>2023-12-20T15:02:40Z</time>
      </trkpt>
      <trkpt lat="50.04103" lon="2.33513">
        <ele>138.7</ele>
        <time>2023-12-20T15:02:41Z</time>
      </trkpt>
      <trkpt lat="50.04101" lon="2.33513">
        <ele>138.8</ele>
        <time>2023-12-20T15:02:42Z</time>
      </trkpt>
      <trkpt lat="50.041" lon="2.33513">
        <ele>138.8</ele>
        <time>2023-12-20T15:02:43Z</time>
      </trkpt>
      <trkpt lat="50.04099" lon="2.33512">
        <ele>138.8</ele>
        <time>2023-12-20T15:02:44Z</time>
      </trkpt>
      <trkpt lat="50.04098" lon="2.33512">
        <ele>138.8</ele>
        <time>2023-12-20T15:02:45Z</time>
      </trkpt>
      <trkpt lat="50.04097" lon="2.33511">
        <ele>138.8</ele>
        <time>2023-12-20T15:02:46Z</time>
      </trkpt>
      <trkpt lat="50.04096" lon="2.33511">
        <ele>138.9</ele>
        <time>2023-12-20T15:02:47Z</time>
      </trkpt>
      <trkpt lat="50.04095" lon="2.3351">
        <ele>138.9</ele>
        <time>2023-12-20T15:02:49Z</time>
      </trkpt>
      <trkpt lat="50.04094" lon="2.3351">
        <ele>138.9</ele>
        <time>2023-12-20T15:02:50Z</time>
      </trkpt>
      <trkpt lat="50.04093" lon="2.3351">
        <ele>138.9</ele>
        <time>2023-12-20T15:02:51Z</time>
      </trkpt>
      <trkpt lat="50.04091" lon="2.33509">
        <ele>139</ele>
        <time>2023-12-20T15:02:52Z</time>
      </trkpt>
      <trkpt lat="50.0409" lon="2.33509">
        <ele>139</ele>
        <time>2023-12-20T15:02:53Z</time>
      </trkpt>
      <trkpt lat="50.04089" lon="2.33509">
        <ele>139</ele>
        <time>2023-12-20T15:02:54Z</time>
      </trkpt>
      <trkpt lat="50.04087" lon="2.33508">
        <ele>139</ele>
        <time>2023-12-20T15:02:55Z</time>
      </trkpt>
      <trkpt lat="50.04086" lon="2.33507">
        <ele>139.1</ele>
        <time>2023-12-20T15:02:56Z</time>
      </trkpt>
      <trkpt lat="50.04085" lon="2.33507">
        <ele>139.1</ele>
        <time>2023-12-20T15:02:57Z</time>
      </trkpt>
      <trkpt lat="50.04083" lon="2.33506">
        <ele>139.1</ele>
        <time>2023-12-20T15:02:59Z</time>
      </trkpt>
      <trkpt lat="50.04082" lon="2.33506">
        <ele>139.1</ele>
        <time>2023-12-20T15:03:00Z</time>
      </trkpt>
      <trkpt lat="50.04081" lon="2.33505">
        <ele>139.2</ele>
        <time>2023-12-20T15:03:01Z</time>
      </trkpt>
      <trkpt lat="50.0408" lon="2.33505">
        <ele>139.2</ele>
        <time>2023-12-20T15:03:02Z</time>
      </trkpt>
      <trkpt lat="50.04078" lon="2.33504">
        <ele>139.2</ele>
        <time>2023-12-20T15:03:03Z</time>
      </trkpt>
      <trkpt lat="50.04077" lon="2.33504">
        <ele>139.2</ele>
        <time>2023-12-20T15:03:04Z</time>
      </trkpt>
      <trkpt lat="50.04075" lon="2.33503">
        <ele>139.3</ele>
        <time>2023-12-20T15:03:05Z</time>
      </trkpt>
      <trkpt lat="50.04074" lon="2.33503">
        <ele>139.3</ele>
        <time>2023-12-20T15:03:06Z</time>
      </trkpt>
      <trkpt lat="50.04072" lon="2.33502">
        <ele>139.3</ele>
        <time>2023-12-20T15:03:08Z</time>
      </trkpt>
      <trkpt lat="50.0407" lon="2.33502">
        <ele>139.4</ele>
        <time>2023-12-20T15:03:09Z</time>
      </trkpt>
      <trkpt lat="50.04069" lon="2.33502">
        <ele>139.4</ele>
        <time>2023-12-20T15:03:10Z</time>
      </trkpt>
      <trkpt lat="50.04067" lon="2.33501">
        <ele>139.4</ele>
        <time>2023-12-20T15:03:11Z</time>
      </trkpt>
      <trkpt lat="50.04066" lon="2.33501">
        <ele>139.4</ele>
        <time>2023-12-20T15:03:12Z</time>
      </trkpt>
      <trkpt lat="50.04064" lon="2.33501">
        <ele>139.5</ele>
        <time>2023-12-20T15:03:13Z</time>
      </trkpt>
      <trkpt lat="50.04063" lon="2.33501">
        <ele>139.5</ele>
        <time>2023-12-20T15:03:14Z</time>
      </trkpt>
      <trkpt lat="50.04062" lon="2.335">
        <ele>139.5</ele>
        <time>2023-12-20T15:03:15Z</time>
      </trkpt>
      <trkpt lat="50.0406" lon="2.335">
        <ele>139.5</ele>
        <time>2023-12-20T15:03:16Z</time>
      </trkpt>
      <trkpt lat="50.04059" lon="2.335">
        <ele>139.6</ele>
        <time>2023-12-20T15:03:18Z</time>
      </trkpt>
      <trkpt lat="50.04057" lon="2.33499">
        <ele>139.6</ele>
        <time>2023-12-20T15:03:19Z</time>
      </trkpt>
      <trkpt lat="50.04056" lon="2.33499">
        <ele>139.6</ele>
        <time>2023-12-20T15:03:20Z</time>
      </trkpt>
      <trkpt lat="50.04055" lon="2.33498">
        <ele>139.6</ele>
        <time>2023-12-20T15:03:21Z</time>
      </trkpt>
      <trkpt lat="50.04052" lon="2.33497">
        <ele>139.7</ele>
        <time>2023-12-20T15:03:22Z</time>
      </trkpt>
      <trkpt lat="50.04052" lon="2.33497">
        <ele>139.7</ele>
        <time>2023-12-20T15:03:23Z</time>
      </trkpt>
      <trkpt lat="50.04051" lon="2.33497">
        <ele>139.7</ele>
        <time>2023-12-20T15:03:24Z</time>
      </trkpt>
      <trkpt lat="50.04049" lon="2.33496">
        <ele>139.7</ele>
        <time>2023-12-20T15:03:25Z</time>
      </trkpt>
      <trkpt lat="50.04048" lon="2.33496">
        <ele>139.8</ele>
        <time>2023-12-20T15:03:26Z</time>
      </trkpt>
      <trkpt lat="50.04047" lon="2.33496">
        <ele>139.8</ele>
        <time>2023-12-20T15:03:28Z</time>
      </trkpt>
      <trkpt lat="50.04045" lon="2.33495">
        <ele>139.8</ele>
        <time>2023-12-20T15:03:29Z</time>
      </trkpt>
      <trkpt lat="50.04044" lon="2.33495">
        <ele>139.9</ele>
        <time>2023-12-20T15:03:30Z</time>
      </trkpt>
      <trkpt lat="50.04042" lon="2.33495">
        <ele>139.9</ele>
        <time>2023-12-20T15:03:31Z</time>
      </trkpt>
      <trkpt lat="50.04041" lon="2.33495">
        <ele>139.9</ele>
        <time>2023-12-20T15:03:32Z</time>
      </trkpt>
      <trkpt lat="50.04039" lon="2.33494">
        <ele>139.9</ele>
        <time>2023-12-20T15:03:33Z</time>
      </trkpt>
      <trkpt lat="50.04038" lon="2.33494">
        <ele>140</ele>
        <time>2023-12-20T15:03:35Z</time>
      </trkpt>
      <trkpt lat="50.04036" lon="2.33494">
        <ele>140</ele>
        <time>2023-12-20T15:03:36Z</time>
      </trkpt>
      <trkpt lat="50.04035" lon="2.33493">
        <ele>140</ele>
        <time>2023-12-20T15:03:37Z</time>
      </trkpt>
      <trkpt lat="50.04033" lon="2.33493">
        <ele>140.1</ele>
        <time>2023-12-20T15:03:38Z</time>
      </trkpt>
      <trkpt lat="50.04032" lon="2.33493">
        <ele>140.1</ele>
        <time>2023-12-20T15:03:39Z</time>
      </trkpt>
      <trkpt lat="50.0403" lon="2.33492">
        <ele>140.1</ele>
        <time>2023-12-20T15:03:40Z</time>
      </trkpt>
      <trkpt lat="50.04029" lon="2.33492">
        <ele>140.2</ele>
        <time>2023-12-20T15:03:41Z</time>
      </trkpt>
      <trkpt lat="50.04028" lon="2.33492">
        <ele>140.2</ele>
        <time>2023-12-20T15:03:42Z</time>
      </trkpt>
      <trkpt lat="50.04026" lon="2.33491">
        <ele>140.2</ele>
        <time>2023-12-20T15:03:43Z</time>
      </trkpt>
      <trkpt lat="50.04024" lon="2.33491">
        <ele>140.3</ele>
        <time>2023-12-20T15:03:44Z</time>
      </trkpt>
      <trkpt lat="50.04023" lon="2.3349">
        <ele>140.3</ele>
        <time>2023-12-20T15:03:45Z</time>
      </trkpt>
      <trkpt lat="50.04023" lon="2.3349">
        <ele>140.3</ele>
        <time>2023-12-20T15:03:46Z</time>
      </trkpt>
      <trkpt lat="50.04021" lon="2.3349">
        <ele>140.4</ele>
        <time>2023-12-20T15:03:48Z</time>
      </trkpt>
      <trkpt lat="50.0402" lon="2.33489">
        <ele>140.4</ele>
        <time>2023-12-20T15:03:49Z</time>
      </trkpt>
      <trkpt lat="50.04019" lon="2.33489">
        <ele>140.4</ele>
        <time>2023-12-20T15:03:50Z</time>
      </trkpt>
      <trkpt lat="50.04018" lon="2.33489">
        <ele>140.4</ele>
        <time>2023-12-20T15:03:51Z</time>
      </trkpt>
      <trkpt lat="50.04018" lon="2.33489">
        <ele>140.5</ele>
        <time>2023-12-20T15:03:52Z</time>
      </trkpt>
      <trkpt lat="50.04017" lon="2.33489">
        <ele>140.5</ele>
        <time>2023-12-20T15:03:53Z</time>
      </trkpt>
      <trkpt lat="50.04017" lon="2.33489">
        <ele>140.5</ele>
        <time>2023-12-20T15:03:54Z</time>
      </trkpt>
      <trkpt lat="50.04016" lon="2.33489">
        <ele>140.5</ele>
        <time>2023-12-20T15:03:55Z</time>
      </trkpt>
      <trkpt lat="50.04015" lon="2.33489">
        <ele>140.5</ele>
        <time>2023-12-20T15:03:56Z</time>
      </trkpt>
      <trkpt lat="50.04014" lon="2.33489">
        <ele>140.6</ele>
        <time>2023-12-20T15:03:57Z</time>
      </trkpt>
      <trkpt lat="50.04014" lon="2.33489">
        <ele>140.6</ele>
        <time>2023-12-20T15:03:59Z</time>
      </trkpt>
      <trkpt lat="50.04013" lon="2.33489">
        <ele>140.6</ele>
        <time>2023-12-20T15:04:00Z</time>
      </trkpt>
      <trkpt lat="50.04012" lon="2.33489">
        <ele>140.6</ele>
        <time>2023-12-20T15:04:01Z</time>
      </trkpt>
      <trkpt lat="50.04012" lon="2.33489">
        <ele>140.6</ele>
        <time>2023-12-20T15:04:02Z</time>
      </trkpt>
      <trkpt lat="50.04011" lon="2.33489">
        <ele>140.6</ele>
        <time>2023-12-20T15:04:03Z</time>
      </trkpt>
      <trkpt lat="50.0401" lon="2.33489">
        <ele>140.7</ele>
        <time>2023-12-20T15:04:04Z</time>
      </trkpt>
      <trkpt lat="50.04009" lon="2.33489">
        <ele>140.7</ele>
        <time>2023-12-20T15:04:05Z</time>
      </trkpt>
      <trkpt lat="50.04008" lon="2.33489">
        <ele>140.7</ele>
        <time>2023-12-20T15:04:06Z</time>
      </trkpt>
      <trkpt lat="50.04007" lon="2.33489">
        <ele>140.7</ele>
        <time>2023-12-20T15:04:07Z</time>
      </trkpt>
      <trkpt lat="50.04006" lon="2.33489">
        <ele>140.8</ele>
        <time>2023-12-20T15:04:09Z</time>
      </trkpt>
      <trkpt lat="50.04005" lon="2.33489">
        <ele>140.8</ele>
        <time>2023-12-20T15:04:10Z</time>
      </trkpt>
      <trkpt lat="50.04002" lon="2.33488">
        <ele>140.9</ele>
        <time>2023-12-20T15:04:11Z</time>
      </trkpt>
      <trkpt lat="50.04002" lon="2.33488">
        <ele>140.9</ele>
        <time>2023-12-20T15:04:12Z</time>
      </trkpt>
      <trkpt lat="50.04001" lon="2.33488">
        <ele>140.9</ele>
        <time>2023-12-20T15:04:13Z</time>
      </trkpt>
      <trkpt lat="50.03999" lon="2.33487">
        <ele>141</ele>
        <time>2023-12-20T15:04:14Z</time>
      </trkpt>
      <trkpt lat="50.03998" lon="2.33487">
        <ele>141</ele>
        <time>2023-12-20T15:04:15Z</time>
      </trkpt>
      <trkpt lat="50.03997" lon="2.33487">
        <ele>141</ele>
        <time>2023-12-20T15:04:16Z</time>
      </trkpt>
      <trkpt lat="50.03995" lon="2.33486">
        <ele>141.1</ele>
        <time>2023-12-20T15:04:17Z</time>
      </trkpt>
      <trkpt lat="50.03994" lon="2.33486">
        <ele>141.1</ele>
        <time>2023-12-20T15:04:19Z</time>
      </trkpt>
      <trkpt lat="50.03992" lon="2.33485">
        <ele>141.1</ele>
        <time>2023-12-20T15:04:20Z</time>
      </trkpt>
      <trkpt lat="50.03991" lon="2.33485">
        <ele>141.2</ele>
        <time>2023-12-20T15:04:21Z</time>
      </trkpt>
      <trkpt lat="50.03989" lon="2.33485">
        <ele>141.2</ele>
        <time>2023-12-20T15:04:22Z</time>
      </trkpt>
      <trkpt lat="50.03988" lon="2.33484">
        <ele>141.3</ele>
        <time>2023-12-20T15:04:23Z</time>
      </trkpt>
      <trkpt lat="50.03986" lon="2.33484">
        <ele>141.3</ele>
        <time>2023-12-20T15:04:24Z</time>
      </trkpt>
      <trkpt lat="50.03985" lon="2.33483">
        <ele>141.3</ele>
        <time>2023-12-20T15:04:25Z</time>
      </trkpt>
      <trkpt lat="50.03983" lon="2.33483">
        <ele>141.4</ele>
        <time>2023-12-20T15:04:26Z</time>
      </trkpt>
      <trkpt lat="50.03982" lon="2.33482">
        <ele>141.4</ele>
        <time>2023-12-20T15:04:27Z</time>
      </trkpt>
      <trkpt lat="50.0398" lon="2.33482">
        <ele>141.5</ele>
        <time>2023-12-20T15:04:29Z</time>
      </trkpt>
      <trkpt lat="50.03979" lon="2.33481">
        <ele>141.5</ele>
        <time>2023-12-20T15:04:30Z</time>
      </trkpt>
      <trkpt lat="50.03977" lon="2.33481">
        <ele>141.6</ele>
        <time>2023-12-20T15:04:31Z</time>
      </trkpt>
      <trkpt lat="50.03976" lon="2.33481">
        <ele>141.6</ele>
        <time>2023-12-20T15:04:32Z</time>
      </trkpt>
      <trkpt lat="50.03974" lon="2.3348">
        <ele>141.7</ele>
        <time>2023-12-20T15:04:33Z</time>
      </trkpt>
      <trkpt lat="50.03973" lon="2.3348">
        <ele>141.7</ele>
        <time>2023-12-20T15:04:34Z</time>
      </trkpt>
      <trkpt lat="50.03971" lon="2.33479">
        <ele>141.8</ele>
        <time>2023-12-20T15:04:35Z</time>
      </trkpt>
      <trkpt lat="50.0397" lon="2.33479">
        <ele>141.8</ele>
        <time>2023-12-20T15:04:37Z</time>
      </trkpt>
      <trkpt lat="50.03968" lon="2.33478">
        <ele>141.9</ele>
        <time>2023-12-20T15:04:38Z</time>
      </trkpt>
      <trkpt lat="50.03967" lon="2.33478">
        <ele>141.9</ele>
        <time>2023-12-20T15:04:39Z</time>
      </trkpt>
      <trkpt lat="50.03966" lon="2.33477">
        <ele>142</ele>
        <time>2023-12-20T15:04:40Z</time>
      </trkpt>
      <trkpt lat="50.03963" lon="2.33477">
        <ele>142.1</ele>
        <time>2023-12-20T15:04:41Z</time>
      </trkpt>
      <trkpt lat="50.03963" lon="2.33477">
        <ele>142.1</ele>
        <time>2023-12-20T15:04:42Z</time>
      </trkpt>
      <trkpt lat="50.03962" lon="2.33476">
        <ele>142.2</ele>
        <time>2023-12-20T15:04:43Z</time>
      </trkpt>
      <trkpt lat="50.03959" lon="2.33476">
        <ele>142.3</ele>
        <time>2023-12-20T15:04:45Z</time>
      </trkpt>
      <trkpt lat="50.03959" lon="2.33476">
        <ele>142.3</ele>
        <time>2023-12-20T15:04:46Z</time>
      </trkpt>
      <trkpt lat="50.03958" lon="2.33475">
        <ele>142.3</ele>
        <time>2023-12-20T15:04:47Z</time>
      </trkpt>
      <trkpt lat="50.03956" lon="2.33475">
        <ele>142.4</ele>
        <time>2023-12-20T15:04:48Z</time>
      </trkpt>
      <trkpt lat="50.03955" lon="2.33475">
        <ele>142.5</ele>
        <time>2023-12-20T15:04:49Z</time>
      </trkpt>
      <trkpt lat="50.03954" lon="2.33474">
        <ele>142.5</ele>
        <time>2023-12-20T15:04:50Z</time>
      </trkpt>
      <trkpt lat="50.03952" lon="2.33474">
        <ele>142.6</ele>
        <time>2023-12-20T15:04:52Z</time>
      </trkpt>
      <trkpt lat="50.03951" lon="2.33474">
        <ele>142.6</ele>
        <time>2023-12-20T15:04:53Z</time>
      </trkpt>
      <trkpt lat="50.0395" lon="2.33473">
        <ele>142.6</ele>
        <time>2023-12-20T15:04:54Z</time>
      </trkpt>
      <trkpt lat="50.03948" lon="2.33473">
        <ele>142.6</ele>
        <time>2023-12-20T15:04:55Z</time>
      </trkpt>
      <trkpt lat="50.03947" lon="2.33472">
        <ele>142.7</ele>
        <time>2023-12-20T15:04:56Z</time>
      </trkpt>
      <trkpt lat="50.03946" lon="2.33472">
        <ele>142.7</ele>
        <time>2023-12-20T15:04:57Z</time>
      </trkpt>
      <trkpt lat="50.03944" lon="2.33471">
        <ele>142.7</ele>
        <time>2023-12-20T15:04:58Z</time>
      </trkpt>
      <trkpt lat="50.03943" lon="2.33471">
        <ele>142.7</ele>
        <time>2023-12-20T15:05:00Z</time>
      </trkpt>
      <trkpt lat="50.03943" lon="2.33471">
        <ele>142.7</ele>
        <time>2023-12-20T15:05:01Z</time>
      </trkpt>
      <trkpt lat="50.0394" lon="2.3347">
        <ele>142.7</ele>
        <time>2023-12-20T15:05:02Z</time>
      </trkpt>
      <trkpt lat="50.0394" lon="2.3347">
        <ele>142.7</ele>
        <time>2023-12-20T15:05:03Z</time>
      </trkpt>
      <trkpt lat="50.03939" lon="2.33469">
        <ele>142.8</ele>
        <time>2023-12-20T15:05:04Z</time>
      </trkpt>
      <trkpt lat="50.03937" lon="2.33469">
        <ele>142.8</ele>
        <time>2023-12-20T15:05:05Z</time>
      </trkpt>
      <trkpt lat="50.03936" lon="2.33468">
        <ele>142.8</ele>
        <time>2023-12-20T15:05:06Z</time>
      </trkpt>
      <trkpt lat="50.03935" lon="2.33468">
        <ele>142.8</ele>
        <time>2023-12-20T15:05:07Z</time>
      </trkpt>
      <trkpt lat="50.03934" lon="2.33468">
        <ele>142.8</ele>
        <time>2023-12-20T15:05:09Z</time>
      </trkpt>
      <trkpt lat="50.03933" lon="2.33467">
        <ele>142.9</ele>
        <time>2023-12-20T15:05:10Z</time>
      </trkpt>
      <trkpt lat="50.03931" lon="2.33467">
        <ele>142.9</ele>
        <time>2023-12-20T15:05:11Z</time>
      </trkpt>
      <trkpt lat="50.0393" lon="2.33467">
        <ele>142.9</ele>
        <time>2023-12-20T15:05:12Z</time>
      </trkpt>
      <trkpt lat="50.03929" lon="2.33467">
        <ele>142.9</ele>
        <time>2023-12-20T15:05:13Z</time>
      </trkpt>
      <trkpt lat="50.03928" lon="2.33467">
        <ele>142.9</ele>
        <time>2023-12-20T15:05:14Z</time>
      </trkpt>
      <trkpt lat="50.03927" lon="2.33467">
        <ele>142.9</ele>
        <time>2023-12-20T15:05:15Z</time>
      </trkpt>
      <trkpt lat="50.03926" lon="2.33467">
        <ele>142.9</ele>
        <time>2023-12-20T15:05:17Z</time>
      </trkpt>
      <trkpt lat="50.03924" lon="2.33467">
        <ele>143</ele>
        <time>2023-12-20T15:05:18Z</time>
      </trkpt>
      <trkpt lat="50.03923" lon="2.33467">
        <ele>143</ele>
        <time>2023-12-20T15:05:19Z</time>
      </trkpt>
      <trkpt lat="50.03922" lon="2.33467">
        <ele>143</ele>
        <time>2023-12-20T15:05:20Z</time>
      </trkpt>
      <trkpt lat="50.03921" lon="2.33466">
        <ele>143</ele>
        <time>2023-12-20T15:05:21Z</time>
      </trkpt>
      <trkpt lat="50.0392" lon="2.33466">
        <ele>143</ele>
        <time>2023-12-20T15:05:22Z</time>
      </trkpt>
      <trkpt lat="50.03919" lon="2.33465">
        <ele>143</ele>
        <time>2023-12-20T15:05:23Z</time>
      </trkpt>
      <trkpt lat="50.03917" lon="2.33464">
        <ele>143.1</ele>
        <time>2023-12-20T15:05:24Z</time>
      </trkpt>
      <trkpt lat="50.03916" lon="2.33464">
        <ele>143.1</ele>
        <time>2023-12-20T15:05:25Z</time>
      </trkpt>
      <trkpt lat="50.03915" lon="2.33463">
        <ele>143.1</ele>
        <time>2023-12-20T15:05:27Z</time>
      </trkpt>
      <trkpt lat="50.03914" lon="2.33462">
        <ele>143.1</ele>
        <time>2023-12-20T15:05:28Z</time>
      </trkpt>
      <trkpt lat="50.03914" lon="2.33462">
        <ele>143.1</ele>
        <time>2023-12-20T15:05:29Z</time>
      </trkpt>
      <trkpt lat="50.03913" lon="2.33461">
        <ele>143.1</ele>
        <time>2023-12-20T15:05:30Z</time>
      </trkpt>
      <trkpt lat="50.03912" lon="2.33461">
        <ele>143.2</ele>
        <time>2023-12-20T15:05:31Z</time>
      </trkpt>
      <trkpt lat="50.0391" lon="2.3346">
        <ele>143.2</ele>
        <time>2023-12-20T15:05:32Z</time>
      </trkpt>
      <trkpt lat="50.03909" lon="2.3346">
        <ele>143.2</ele>
        <time>2023-12-20T15:05:33Z</time>
      </trkpt>
      <trkpt lat="50.03908" lon="2.33459">
        <ele>143.2</ele>
        <time>2023-12-20T15:05:34Z</time>
      </trkpt>
      <trkpt lat="50.03907" lon="2.33459">
        <ele>143.2</ele>
        <time>2023-12-20T15:05:35Z</time>
      </trkpt>
      <trkpt lat="50.03906" lon="2.33458">
        <ele>143.2</ele>
        <time>2023-12-20T15:05:37Z</time>
      </trkpt>
      <trkpt lat="50.03905" lon="2.33458">
        <ele>143.2</ele>
        <time>2023-12-20T15:05:38Z</time>
      </trkpt>
      <trkpt lat="50.03904" lon="2.33457">
        <ele>143.2</ele>
        <time>2023-12-20T15:05:39Z</time>
      </trkpt>
      <trkpt lat="50.03903" lon="2.33456">
        <ele>143.3</ele>
        <time>2023-12-20T15:05:40Z</time>
      </trkpt>
      <trkpt lat="50.03901" lon="2.33456">
        <ele>143.3</ele>
        <time>2023-12-20T15:05:41Z</time>
      </trkpt>
      <trkpt lat="50.039" lon="2.33456">
        <ele>143.3</ele>
        <time>2023-12-20T15:05:42Z</time>
      </trkpt>
      <trkpt lat="50.03899" lon="2.33456">
        <ele>143.3</ele>
        <time>2023-12-20T15:05:43Z</time>
      </trkpt>
      <trkpt lat="50.03898" lon="2.33456">
        <ele>143.3</ele>
        <time>2023-12-20T15:05:44Z</time>
      </trkpt>
      <trkpt lat="50.03897" lon="2.33455">
        <ele>143.3</ele>
        <time>2023-12-20T15:05:45Z</time>
      </trkpt>
      <trkpt lat="50.03896" lon="2.33455">
        <ele>143.3</ele>
        <time>2023-12-20T15:05:46Z</time>
      </trkpt>
      <trkpt lat="50.03894" lon="2.33455">
        <ele>143.3</ele>
        <time>2023-12-20T15:05:47Z</time>
      </trkpt>
      <trkpt lat="50.03893" lon="2.33455">
        <ele>143.3</ele>
        <time>2023-12-20T15:05:48Z</time>
      </trkpt>
      <trkpt lat="50.03892" lon="2.33454">
        <ele>143.3</ele>
        <time>2023-12-20T15:05:49Z</time>
      </trkpt>
      <trkpt lat="50.0389" lon="2.33454">
        <ele>143.3</ele>
        <time>2023-12-20T15:05:51Z</time>
      </trkpt>
      <trkpt lat="50.03889" lon="2.33453">
        <ele>143.4</ele>
        <time>2023-12-20T15:05:52Z</time>
      </trkpt>
      <trkpt lat="50.03888" lon="2.33453">
        <ele>143.4</ele>
        <time>2023-12-20T15:05:53Z</time>
      </trkpt>
      <trkpt lat="50.03886" lon="2.33452">
        <ele>143.4</ele>
        <time>2023-12-20T15:05:54Z</time>
      </trkpt>
      <trkpt lat="50.03886" lon="2.33452">
        <ele>143.4</ele>
        <time>2023-12-20T15:05:55Z</time>
      </trkpt>
      <trkpt lat="50.03885" lon="2.33451">
        <ele>143.4</ele>
        <time>2023-12-20T15:05:56Z</time>
      </trkpt>
      <trkpt lat="50.03884" lon="2.33451">
        <ele>143.4</ele>
        <time>2023-12-20T15:05:57Z</time>
      </trkpt>
      <trkpt lat="50.03883" lon="2.3345">
        <ele>143.4</ele>
        <time>2023-12-20T15:05:58Z</time>
      </trkpt>
      <trkpt lat="50.03882" lon="2.3345">
        <ele>143.4</ele>
        <time>2023-12-20T15:05:59Z</time>
      </trkpt>
      <trkpt lat="50.03881" lon="2.33449">
        <ele>143.4</ele>
        <time>2023-12-20T15:06:00Z</time>
      </trkpt>
      <trkpt lat="50.0388" lon="2.33448">
        <ele>143.4</ele>
        <time>2023-12-20T15:06:01Z</time>
      </trkpt>
      <trkpt lat="50.03879" lon="2.33448">
        <ele>143.4</ele>
        <time>2023-12-20T15:06:02Z</time>
      </trkpt>
      <trkpt lat="50.03878" lon="2.33447">
        <ele>143.3</ele>
        <time>2023-12-20T15:06:03Z</time>
      </trkpt>
      <trkpt lat="50.03878" lon="2.33446">
        <ele>143.3</ele>
        <time>2023-12-20T15:06:04Z</time>
      </trkpt>
      <trkpt lat="50.03879" lon="2.33444">
        <ele>143.3</ele>
        <time>2023-12-20T15:06:06Z</time>
      </trkpt>
      <trkpt lat="50.03879" lon="2.33444">
        <ele>143.3</ele>
        <time>2023-12-20T15:06:07Z</time>
      </trkpt>
      <trkpt lat="50.03878" lon="2.33444">
        <ele>143.3</ele>
        <time>2023-12-20T15:06:08Z</time>
      </trkpt>
      <trkpt lat="50.03878" lon="2.33444">
        <ele>143.3</ele>
        <time>2023-12-20T15:06:10Z</time>
      </trkpt>
      <trkpt lat="50.03878" lon="2.33445">
        <ele>143.3</ele>
        <time>2023-12-20T15:06:11Z</time>
      </trkpt>
      <trkpt lat="50.03877" lon="2.33446">
        <ele>143.3</ele>
        <time>2023-12-20T15:06:12Z</time>
      </trkpt>
      <trkpt lat="50.03876" lon="2.33446">
        <ele>143.3</ele>
        <time>2023-12-20T15:06:14Z</time>
      </trkpt>
      <trkpt lat="50.03876" lon="2.33446">
        <ele>143.3</ele>
        <time>2023-12-20T15:06:15Z</time>
      </trkpt>
      <trkpt lat="50.03875" lon="2.33447">
        <ele>143.3</ele>
        <time>2023-12-20T15:06:17Z</time>
      </trkpt>
      <trkpt lat="50.03875" lon="2.33447">
        <ele>143.3</ele>
        <time>2023-12-20T15:06:18Z</time>
      </trkpt>
      <trkpt lat="50.03874" lon="2.33447">
        <ele>143.3</ele>
        <time>2023-12-20T15:06:20Z</time>
      </trkpt>
      <trkpt lat="50.03874" lon="2.33447">
        <ele>143.3</ele>
        <time>2023-12-20T15:06:22Z</time>
      </trkpt>
      <trkpt lat="50.03874" lon="2.33447">
        <ele>143.3</ele>
        <time>2023-12-20T15:06:24Z</time>
      </trkpt>
      <trkpt lat="50.03873" lon="2.33447">
        <ele>143.3</ele>
        <time>2023-12-20T15:06:25Z</time>
      </trkpt>
      <trkpt lat="50.03873" lon="2.33447">
        <ele>143.3</ele>
        <time>2023-12-20T15:06:26Z</time>
      </trkpt>
      <trkpt lat="50.03873" lon="2.33447">
        <ele>143.3</ele>
        <time>2023-12-20T15:06:27Z</time>
      </trkpt>
      <trkpt lat="50.03872" lon="2.33447">
        <ele>143.3</ele>
        <time>2023-12-20T15:06:28Z</time>
      </trkpt>
      <trkpt lat="50.03871" lon="2.33446">
        <ele>143.3</ele>
        <time>2023-12-20T15:06:29Z</time>
      </trkpt>
      <trkpt lat="50.0387" lon="2.33446">
        <ele>143.3</ele>
        <time>2023-12-20T15:06:30Z</time>
      </trkpt>
      <trkpt lat="50.03867" lon="2.33445">
        <ele>143.3</ele>
        <time>2023-12-20T15:06:31Z</time>
      </trkpt>
      <trkpt lat="50.03867" lon="2.33445">
        <ele>143.3</ele>
        <time>2023-12-20T15:06:33Z</time>
      </trkpt>
      <trkpt lat="50.03866" lon="2.33445">
        <ele>143.3</ele>
        <time>2023-12-20T15:06:34Z</time>
      </trkpt>
      <trkpt lat="50.03864" lon="2.33445">
        <ele>143.3</ele>
        <time>2023-12-20T15:06:35Z</time>
      </trkpt>
      <trkpt lat="50.03862" lon="2.33445">
        <ele>143.3</ele>
        <time>2023-12-20T15:06:36Z</time>
      </trkpt>
      <trkpt lat="50.0386" lon="2.33443">
        <ele>143.3</ele>
        <time>2023-12-20T15:06:38Z</time>
      </trkpt>
      <trkpt lat="50.03859" lon="2.33443">
        <ele>143.3</ele>
        <time>2023-12-20T15:06:39Z</time>
      </trkpt>
      <trkpt lat="50.03857" lon="2.33442">
        <ele>143.3</ele>
        <time>2023-12-20T15:06:41Z</time>
      </trkpt>
      <trkpt lat="50.03856" lon="2.33441">
        <ele>143.3</ele>
        <time>2023-12-20T15:06:42Z</time>
      </trkpt>
      <trkpt lat="50.03853" lon="2.3344">
        <ele>143.3</ele>
        <time>2023-12-20T15:06:43Z</time>
      </trkpt>
      <trkpt lat="50.03852" lon="2.3344">
        <ele>143.3</ele>
        <time>2023-12-20T15:06:45Z</time>
      </trkpt>
      <trkpt lat="50.03851" lon="2.3344">
        <ele>143.3</ele>
        <time>2023-12-20T15:06:46Z</time>
      </trkpt>
      <trkpt lat="50.0385" lon="2.3344">
        <ele>143.2</ele>
        <time>2023-12-20T15:06:48Z</time>
      </trkpt>
      <trkpt lat="50.03849" lon="2.3344">
        <ele>143.2</ele>
        <time>2023-12-20T15:06:49Z</time>
      </trkpt>
      <trkpt lat="50.03848" lon="2.3344">
        <ele>143.2</ele>
        <time>2023-12-20T15:06:50Z</time>
      </trkpt>
      <trkpt lat="50.03847" lon="2.3344">
        <ele>143.2</ele>
        <time>2023-12-20T15:06:51Z</time>
      </trkpt>
      <trkpt lat="50.03846" lon="2.33439">
        <ele>143.2</ele>
        <time>2023-12-20T15:06:52Z</time>
      </trkpt>
      <trkpt lat="50.03845" lon="2.33438">
        <ele>143.2</ele>
        <time>2023-12-20T15:06:53Z</time>
      </trkpt>
      <trkpt lat="50.03846" lon="2.33436">
        <ele>143.2</ele>
        <time>2023-12-20T15:06:55Z</time>
      </trkpt>
      <trkpt lat="50.03846" lon="2.33435">
        <ele>143.2</ele>
        <time>2023-12-20T15:06:56Z</time>
      </trkpt>
      <trkpt lat="50.03846" lon="2.33434">
        <ele>143.1</ele>
        <time>2023-12-20T15:06:57Z</time>
      </trkpt>
      <trkpt lat="50.03845" lon="2.33433">
        <ele>143.1</ele>
        <time>2023-12-20T15:06:58Z</time>
      </trkpt>
      <trkpt lat="50.03844" lon="2.33432">
        <ele>143.1</ele>
        <time>2023-12-20T15:06:59Z</time>
      </trkpt>
      <trkpt lat="50.03842" lon="2.3343">
        <ele>143.1</ele>
        <time>2023-12-20T15:07:00Z</time>
      </trkpt>
      <trkpt lat="50.03841" lon="2.3343">
        <ele>143.1</ele>
        <time>2023-12-20T15:07:01Z</time>
      </trkpt>
      <trkpt lat="50.0384" lon="2.33429">
        <ele>143</ele>
        <time>2023-12-20T15:07:02Z</time>
      </trkpt>
      <trkpt lat="50.03839" lon="2.33428">
        <ele>143</ele>
        <time>2023-12-20T15:07:03Z</time>
      </trkpt>
      <trkpt lat="50.03838" lon="2.33426">
        <ele>143</ele>
        <time>2023-12-20T15:07:05Z</time>
      </trkpt>
      <trkpt lat="50.03837" lon="2.33425">
        <ele>143</ele>
        <time>2023-12-20T15:07:06Z</time>
      </trkpt>
      <trkpt lat="50.03835" lon="2.33424">
        <ele>143</ele>
        <time>2023-12-20T15:07:07Z</time>
      </trkpt>
      <trkpt lat="50.03834" lon="2.33422">
        <ele>142.9</ele>
        <time>2023-12-20T15:07:08Z</time>
      </trkpt>
      <trkpt lat="50.03833" lon="2.33421">
        <ele>142.9</ele>
        <time>2023-12-20T15:07:09Z</time>
      </trkpt>
      <trkpt lat="50.03832" lon="2.3342">
        <ele>142.9</ele>
        <time>2023-12-20T15:07:10Z</time>
      </trkpt>
      <trkpt lat="50.03831" lon="2.33419">
        <ele>142.9</ele>
        <time>2023-12-20T15:07:11Z</time>
      </trkpt>
      <trkpt lat="50.03829" lon="2.33417">
        <ele>142.9</ele>
        <time>2023-12-20T15:07:13Z</time>
      </trkpt>
      <trkpt lat="50.03828" lon="2.33416">
        <ele>142.9</ele>
        <time>2023-12-20T15:07:14Z</time>
      </trkpt>
      <trkpt lat="50.03827" lon="2.33416">
        <ele>142.8</ele>
        <time>2023-12-20T15:07:15Z</time>
      </trkpt>
      <trkpt lat="50.03826" lon="2.33414">
        <ele>142.8</ele>
        <time>2023-12-20T15:07:16Z</time>
      </trkpt>
      <trkpt lat="50.03825" lon="2.33413">
        <ele>142.8</ele>
        <time>2023-12-20T15:07:17Z</time>
      </trkpt>
      <trkpt lat="50.03824" lon="2.33413">
        <ele>142.8</ele>
        <time>2023-12-20T15:07:18Z</time>
      </trkpt>
      <trkpt lat="50.03823" lon="2.33412">
        <ele>142.8</ele>
        <time>2023-12-20T15:07:19Z</time>
      </trkpt>
      <trkpt lat="50.03822" lon="2.33411">
        <ele>142.8</ele>
        <time>2023-12-20T15:07:20Z</time>
      </trkpt>
      <trkpt lat="50.03821" lon="2.3341">
        <ele>142.8</ele>
        <time>2023-12-20T15:07:21Z</time>
      </trkpt>
      <trkpt lat="50.0382" lon="2.33409">
        <ele>142.7</ele>
        <time>2023-12-20T15:07:22Z</time>
      </trkpt>
      <trkpt lat="50.03818" lon="2.33408">
        <ele>142.7</ele>
        <time>2023-12-20T15:07:24Z</time>
      </trkpt>
      <trkpt lat="50.03817" lon="2.33407">
        <ele>142.7</ele>
        <time>2023-12-20T15:07:25Z</time>
      </trkpt>
      <trkpt lat="50.03816" lon="2.33406">
        <ele>142.7</ele>
        <time>2023-12-20T15:07:26Z</time>
      </trkpt>
      <trkpt lat="50.03815" lon="2.33405">
        <ele>142.6</ele>
        <time>2023-12-20T15:07:27Z</time>
      </trkpt>
      <trkpt lat="50.03814" lon="2.33404">
        <ele>142.6</ele>
        <time>2023-12-20T15:07:28Z</time>
      </trkpt>
      <trkpt lat="50.03813" lon="2.33402">
        <ele>142.6</ele>
        <time>2023-12-20T15:07:29Z</time>
      </trkpt>
      <trkpt lat="50.03811" lon="2.33401">
        <ele>142.6</ele>
        <time>2023-12-20T15:07:30Z</time>
      </trkpt>
      <trkpt lat="50.0381" lon="2.334">
        <ele>142.5</ele>
        <time>2023-12-20T15:07:31Z</time>
      </trkpt>
      <trkpt lat="50.03809" lon="2.33398">
        <ele>142.5</ele>
        <time>2023-12-20T15:07:32Z</time>
      </trkpt>
      <trkpt lat="50.03808" lon="2.33397">
        <ele>142.5</ele>
        <time>2023-12-20T15:07:34Z</time>
      </trkpt>
      <trkpt lat="50.03807" lon="2.33396">
        <ele>142.5</ele>
        <time>2023-12-20T15:07:35Z</time>
      </trkpt>
      <trkpt lat="50.03806" lon="2.33394">
        <ele>142.5</ele>
        <time>2023-12-20T15:07:36Z</time>
      </trkpt>
      <trkpt lat="50.03805" lon="2.33393">
        <ele>142.4</ele>
        <time>2023-12-20T15:07:37Z</time>
      </trkpt>
      <trkpt lat="50.03804" lon="2.33392">
        <ele>142.4</ele>
        <time>2023-12-20T15:07:38Z</time>
      </trkpt>
      <trkpt lat="50.03803" lon="2.33392">
        <ele>142.4</ele>
        <time>2023-12-20T15:07:39Z</time>
      </trkpt>
      <trkpt lat="50.03801" lon="2.33391">
        <ele>142.4</ele>
        <time>2023-12-20T15:07:40Z</time>
      </trkpt>
      <trkpt lat="50.038" lon="2.33391">
        <ele>142.4</ele>
        <time>2023-12-20T15:07:41Z</time>
      </trkpt>
      <trkpt lat="50.03799" lon="2.3339">
        <ele>142.4</ele>
        <time>2023-12-20T15:07:43Z</time>
      </trkpt>
      <trkpt lat="50.03798" lon="2.33389">
        <ele>142.4</ele>
        <time>2023-12-20T15:07:44Z</time>
      </trkpt>
      <trkpt lat="50.03797" lon="2.33388">
        <ele>142.3</ele>
        <time>2023-12-20T15:07:45Z</time>
      </trkpt>
      <trkpt lat="50.03797" lon="2.33388">
        <ele>142.3</ele>
        <time>2023-12-20T15:07:46Z</time>
      </trkpt>
      <trkpt lat="50.03795" lon="2.33387">
        <ele>142.3</ele>
        <time>2023-12-20T15:07:47Z</time>
      </trkpt>
      <trkpt lat="50.03794" lon="2.33386">
        <ele>142.3</ele>
        <time>2023-12-20T15:07:48Z</time>
      </trkpt>
      <trkpt lat="50.03793" lon="2.33386">
        <ele>142.3</ele>
        <time>2023-12-20T15:07:49Z</time>
      </trkpt>
      <trkpt lat="50.03792" lon="2.33386">
        <ele>142.3</ele>
        <time>2023-12-20T15:07:50Z</time>
      </trkpt>
      <trkpt lat="50.03791" lon="2.33385">
        <ele>142.2</ele>
        <time>2023-12-20T15:07:51Z</time>
      </trkpt>
      <trkpt lat="50.0379" lon="2.33384">
        <ele>142.2</ele>
        <time>2023-12-20T15:07:52Z</time>
      </trkpt>
      <trkpt lat="50.03789" lon="2.33383">
        <ele>142.2</ele>
        <time>2023-12-20T15:07:54Z</time>
      </trkpt>
      <trkpt lat="50.03788" lon="2.33382">
        <ele>142.2</ele>
        <time>2023-12-20T15:07:55Z</time>
      </trkpt>
      <trkpt lat="50.03787" lon="2.33382">
        <ele>142.2</ele>
        <time>2023-12-20T15:07:56Z</time>
      </trkpt>
      <trkpt lat="50.03786" lon="2.3338">
        <ele>142.1</ele>
        <time>2023-12-20T15:07:57Z</time>
      </trkpt>
      <trkpt lat="50.03784" lon="2.33379">
        <ele>142.1</ele>
        <time>2023-12-20T15:07:58Z</time>
      </trkpt>
      <trkpt lat="50.03783" lon="2.33378">
        <ele>142.1</ele>
        <time>2023-12-20T15:07:59Z</time>
      </trkpt>
      <trkpt lat="50.03783" lon="2.33377">
        <ele>142.1</ele>
        <time>2023-12-20T15:08:00Z</time>
      </trkpt>
      <trkpt lat="50.03781" lon="2.33376">
        <ele>142.1</ele>
        <time>2023-12-20T15:08:02Z</time>
      </trkpt>
      <trkpt lat="50.0378" lon="2.33375">
        <ele>142.1</ele>
        <time>2023-12-20T15:08:03Z</time>
      </trkpt>
      <trkpt lat="50.03779" lon="2.33374">
        <ele>142</ele>
        <time>2023-12-20T15:08:04Z</time>
      </trkpt>
      <trkpt lat="50.03778" lon="2.33372">
        <ele>142</ele>
        <time>2023-12-20T15:08:05Z</time>
      </trkpt>
      <trkpt lat="50.03777" lon="2.3337">
        <ele>142</ele>
        <time>2023-12-20T15:08:06Z</time>
      </trkpt>
      <trkpt lat="50.03776" lon="2.33369">
        <ele>142</ele>
        <time>2023-12-20T15:08:07Z</time>
      </trkpt>
      <trkpt lat="50.03775" lon="2.33368">
        <ele>142</ele>
        <time>2023-12-20T15:08:08Z</time>
      </trkpt>
      <trkpt lat="50.03774" lon="2.33367">
        <ele>142</ele>
        <time>2023-12-20T15:08:09Z</time>
      </trkpt>
      <trkpt lat="50.03773" lon="2.33366">
        <ele>141.9</ele>
        <time>2023-12-20T15:08:10Z</time>
      </trkpt>
      <trkpt lat="50.03772" lon="2.33365">
        <ele>141.9</ele>
        <time>2023-12-20T15:08:12Z</time>
      </trkpt>
      <trkpt lat="50.03771" lon="2.33363">
        <ele>141.9</ele>
        <time>2023-12-20T15:08:13Z</time>
      </trkpt>
      <trkpt lat="50.0377" lon="2.33362">
        <ele>141.9</ele>
        <time>2023-12-20T15:08:14Z</time>
      </trkpt>
      <trkpt lat="50.03768" lon="2.3336">
        <ele>141.9</ele>
        <time>2023-12-20T15:08:15Z</time>
      </trkpt>
      <trkpt lat="50.03767" lon="2.3336">
        <ele>141.9</ele>
        <time>2023-12-20T15:08:16Z</time>
      </trkpt>
      <trkpt lat="50.03766" lon="2.33359">
        <ele>141.9</ele>
        <time>2023-12-20T15:08:17Z</time>
      </trkpt>
      <trkpt lat="50.03765" lon="2.33358">
        <ele>141.9</ele>
        <time>2023-12-20T15:08:18Z</time>
      </trkpt>
      <trkpt lat="50.03764" lon="2.33356">
        <ele>141.9</ele>
        <time>2023-12-20T15:08:20Z</time>
      </trkpt>
      <trkpt lat="50.03763" lon="2.33355">
        <ele>141.9</ele>
        <time>2023-12-20T15:08:22Z</time>
      </trkpt>
      <trkpt lat="50.03762" lon="2.33354">
        <ele>141.8</ele>
        <time>2023-12-20T15:08:23Z</time>
      </trkpt>
      <trkpt lat="50.03761" lon="2.33352">
        <ele>141.8</ele>
        <time>2023-12-20T15:08:24Z</time>
      </trkpt>
      <trkpt lat="50.0376" lon="2.33351">
        <ele>141.8</ele>
        <time>2023-12-20T15:08:25Z</time>
      </trkpt>
      <trkpt lat="50.03759" lon="2.33349">
        <ele>141.8</ele>
        <time>2023-12-20T15:08:26Z</time>
      </trkpt>
      <trkpt lat="50.03757" lon="2.33347">
        <ele>141.8</ele>
        <time>2023-12-20T15:08:28Z</time>
      </trkpt>
      <trkpt lat="50.03756" lon="2.33345">
        <ele>141.8</ele>
        <time>2023-12-20T15:08:30Z</time>
      </trkpt>
      <trkpt lat="50.03754" lon="2.33344">
        <ele>141.8</ele>
        <time>2023-12-20T15:08:31Z</time>
      </trkpt>
      <trkpt lat="50.03753" lon="2.33343">
        <ele>141.8</ele>
        <time>2023-12-20T15:08:32Z</time>
      </trkpt>
      <trkpt lat="50.03752" lon="2.33341">
        <ele>141.8</ele>
        <time>2023-12-20T15:08:33Z</time>
      </trkpt>
      <trkpt lat="50.03751" lon="2.3334">
        <ele>141.8</ele>
        <time>2023-12-20T15:08:34Z</time>
      </trkpt>
      <trkpt lat="50.0375" lon="2.33339">
        <ele>141.8</ele>
        <time>2023-12-20T15:08:35Z</time>
      </trkpt>
      <trkpt lat="50.03749" lon="2.33338">
        <ele>141.7</ele>
        <time>2023-12-20T15:08:36Z</time>
      </trkpt>
      <trkpt lat="50.03747" lon="2.33336">
        <ele>141.7</ele>
        <time>2023-12-20T15:08:38Z</time>
      </trkpt>
      <trkpt lat="50.03746" lon="2.33335">
        <ele>141.7</ele>
        <time>2023-12-20T15:08:39Z</time>
      </trkpt>
      <trkpt lat="50.03744" lon="2.33334">
        <ele>141.7</ele>
        <time>2023-12-20T15:08:40Z</time>
      </trkpt>
      <trkpt lat="50.03743" lon="2.33333">
        <ele>141.7</ele>
        <time>2023-12-20T15:08:41Z</time>
      </trkpt>
      <trkpt lat="50.03742" lon="2.33332">
        <ele>141.7</ele>
        <time>2023-12-20T15:08:42Z</time>
      </trkpt>
      <trkpt lat="50.03741" lon="2.33331">
        <ele>141.7</ele>
        <time>2023-12-20T15:08:44Z</time>
      </trkpt>
      <trkpt lat="50.0374" lon="2.33329">
        <ele>141.7</ele>
        <time>2023-12-20T15:08:45Z</time>
      </trkpt>
      <trkpt lat="50.03739" lon="2.33327">
        <ele>141.7</ele>
        <time>2023-12-20T15:08:46Z</time>
      </trkpt>
      <trkpt lat="50.03738" lon="2.33326">
        <ele>141.7</ele>
        <time>2023-12-20T15:08:47Z</time>
      </trkpt>
      <trkpt lat="50.03738" lon="2.33325">
        <ele>141.6</ele>
        <time>2023-12-20T15:08:48Z</time>
      </trkpt>
      <trkpt lat="50.03737" lon="2.33323">
        <ele>141.6</ele>
        <time>2023-12-20T15:08:49Z</time>
      </trkpt>
      <trkpt lat="50.03736" lon="2.33322">
        <ele>141.6</ele>
        <time>2023-12-20T15:08:50Z</time>
      </trkpt>
      <trkpt lat="50.03735" lon="2.33321">
        <ele>141.6</ele>
        <time>2023-12-20T15:08:51Z</time>
      </trkpt>
      <trkpt lat="50.03733" lon="2.33318">
        <ele>141.6</ele>
        <time>2023-12-20T15:08:53Z</time>
      </trkpt>
      <trkpt lat="50.03732" lon="2.33317">
        <ele>141.5</ele>
        <time>2023-12-20T15:08:54Z</time>
      </trkpt>
      <trkpt lat="50.03731" lon="2.33315">
        <ele>141.5</ele>
        <time>2023-12-20T15:08:56Z</time>
      </trkpt>
      <trkpt lat="50.0373" lon="2.33313">
        <ele>141.5</ele>
        <time>2023-12-20T15:08:57Z</time>
      </trkpt>
      <trkpt lat="50.03729" lon="2.33312">
        <ele>141.5</ele>
        <time>2023-12-20T15:08:58Z</time>
      </trkpt>
      <trkpt lat="50.03728" lon="2.33311">
        <ele>141.5</ele>
        <time>2023-12-20T15:08:59Z</time>
      </trkpt>
      <trkpt lat="50.03727" lon="2.3331">
        <ele>141.4</ele>
        <time>2023-12-20T15:09:00Z</time>
      </trkpt>
      <trkpt lat="50.03726" lon="2.33309">
        <ele>141.4</ele>
        <time>2023-12-20T15:09:01Z</time>
      </trkpt>
      <trkpt lat="50.03726" lon="2.33308">
        <ele>141.4</ele>
        <time>2023-12-20T15:09:02Z</time>
      </trkpt>
      <trkpt lat="50.03725" lon="2.33307">
        <ele>141.4</ele>
        <time>2023-12-20T15:09:03Z</time>
      </trkpt>
      <trkpt lat="50.03724" lon="2.33306">
        <ele>141.4</ele>
        <time>2023-12-20T15:09:05Z</time>
      </trkpt>
      <trkpt lat="50.03723" lon="2.33304">
        <ele>141.4</ele>
        <time>2023-12-20T15:09:06Z</time>
      </trkpt>
      <trkpt lat="50.03722" lon="2.33302">
        <ele>141.3</ele>
        <time>2023-12-20T15:09:07Z</time>
      </trkpt>
      <trkpt lat="50.03722" lon="2.33301">
        <ele>141.3</ele>
        <time>2023-12-20T15:09:08Z</time>
      </trkpt>
      <trkpt lat="50.03721" lon="2.33299">
        <ele>141.3</ele>
        <time>2023-12-20T15:09:09Z</time>
      </trkpt>
      <trkpt lat="50.0372" lon="2.33298">
        <ele>141.3</ele>
        <time>2023-12-20T15:09:10Z</time>
      </trkpt>
      <trkpt lat="50.03719" lon="2.33295">
        <ele>141.3</ele>
        <time>2023-12-20T15:09:11Z</time>
      </trkpt>
      <trkpt lat="50.03718" lon="2.33292">
        <ele>141.2</ele>
        <time>2023-12-20T15:09:12Z</time>
      </trkpt>
      <trkpt lat="50.03717" lon="2.33291">
        <ele>141.2</ele>
        <time>2023-12-20T15:09:14Z</time>
      </trkpt>
      <trkpt lat="50.03717" lon="2.3329">
        <ele>141.2</ele>
        <time>2023-12-20T15:09:15Z</time>
      </trkpt>
      <trkpt lat="50.03716" lon="2.33288">
        <ele>141.2</ele>
        <time>2023-12-20T15:09:16Z</time>
      </trkpt>
      <trkpt lat="50.03715" lon="2.33287">
        <ele>141.1</ele>
        <time>2023-12-20T15:09:17Z</time>
      </trkpt>
      <trkpt lat="50.03714" lon="2.33285">
        <ele>141.1</ele>
        <time>2023-12-20T15:09:18Z</time>
      </trkpt>
      <trkpt lat="50.03713" lon="2.33282">
        <ele>141.1</ele>
        <time>2023-12-20T15:09:20Z</time>
      </trkpt>
      <trkpt lat="50.03711" lon="2.3328">
        <ele>141.1</ele>
        <time>2023-12-20T15:09:22Z</time>
      </trkpt>
      <trkpt lat="50.03711" lon="2.33279">
        <ele>141</ele>
        <time>2023-12-20T15:09:23Z</time>
      </trkpt>
      <trkpt lat="50.0371" lon="2.33278">
        <ele>141</ele>
        <time>2023-12-20T15:09:24Z</time>
      </trkpt>
      <trkpt lat="50.03709" lon="2.33276">
        <ele>141</ele>
        <time>2023-12-20T15:09:25Z</time>
      </trkpt>
      <trkpt lat="50.03708" lon="2.33275">
        <ele>141</ele>
        <time>2023-12-20T15:09:26Z</time>
      </trkpt>
      <trkpt lat="50.03707" lon="2.33273">
        <ele>141</ele>
        <time>2023-12-20T15:09:27Z</time>
      </trkpt>
      <trkpt lat="50.03706" lon="2.33272">
        <ele>141</ele>
        <time>2023-12-20T15:09:28Z</time>
      </trkpt>
      <trkpt lat="50.03705" lon="2.33271">
        <ele>141</ele>
        <time>2023-12-20T15:09:30Z</time>
      </trkpt>
      <trkpt lat="50.03704" lon="2.3327">
        <ele>141</ele>
        <time>2023-12-20T15:09:31Z</time>
      </trkpt>
      <trkpt lat="50.03702" lon="2.33268">
        <ele>140.9</ele>
        <time>2023-12-20T15:09:32Z</time>
      </trkpt>
      <trkpt lat="50.03701" lon="2.33268">
        <ele>140.9</ele>
        <time>2023-12-20T15:09:33Z</time>
      </trkpt>
      <trkpt lat="50.037" lon="2.33267">
        <ele>140.9</ele>
        <time>2023-12-20T15:09:34Z</time>
      </trkpt>
      <trkpt lat="50.037" lon="2.33266">
        <ele>140.9</ele>
        <time>2023-12-20T15:09:35Z</time>
      </trkpt>
      <trkpt lat="50.03699" lon="2.33265">
        <ele>140.9</ele>
        <time>2023-12-20T15:09:36Z</time>
      </trkpt>
      <trkpt lat="50.03698" lon="2.33265">
        <ele>140.9</ele>
        <time>2023-12-20T15:09:37Z</time>
      </trkpt>
      <trkpt lat="50.03697" lon="2.33263">
        <ele>140.8</ele>
        <time>2023-12-20T15:09:39Z</time>
      </trkpt>
      <trkpt lat="50.03696" lon="2.33262">
        <ele>140.8</ele>
        <time>2023-12-20T15:09:40Z</time>
      </trkpt>
      <trkpt lat="50.03696" lon="2.33261">
        <ele>140.8</ele>
        <time>2023-12-20T15:09:41Z</time>
      </trkpt>
      <trkpt lat="50.03694" lon="2.33258">
        <ele>140.8</ele>
        <time>2023-12-20T15:09:42Z</time>
      </trkpt>
      <trkpt lat="50.03694" lon="2.33258">
        <ele>140.8</ele>
        <time>2023-12-20T15:09:43Z</time>
      </trkpt>
      <trkpt lat="50.03693" lon="2.33257">
        <ele>140.8</ele>
        <time>2023-12-20T15:09:44Z</time>
      </trkpt>
      <trkpt lat="50.03692" lon="2.33256">
        <ele>140.7</ele>
        <time>2023-12-20T15:09:45Z</time>
      </trkpt>
      <trkpt lat="50.03691" lon="2.33255">
        <ele>140.7</ele>
        <time>2023-12-20T15:09:46Z</time>
      </trkpt>
      <trkpt lat="50.0369" lon="2.33253">
        <ele>140.7</ele>
        <time>2023-12-20T15:09:47Z</time>
      </trkpt>
      <trkpt lat="50.03689" lon="2.33251">
        <ele>140.7</ele>
        <time>2023-12-20T15:09:48Z</time>
      </trkpt>
      <trkpt lat="50.03688" lon="2.3325">
        <ele>140.7</ele>
        <time>2023-12-20T15:09:49Z</time>
      </trkpt>
      <trkpt lat="50.03688" lon="2.33249">
        <ele>140.6</ele>
        <time>2023-12-20T15:09:50Z</time>
      </trkpt>
      <trkpt lat="50.03687" lon="2.33248">
        <ele>140.6</ele>
        <time>2023-12-20T15:09:51Z</time>
      </trkpt>
      <trkpt lat="50.03686" lon="2.33248">
        <ele>140.6</ele>
        <time>2023-12-20T15:09:52Z</time>
      </trkpt>
      <trkpt lat="50.03685" lon="2.33247">
        <ele>140.6</ele>
        <time>2023-12-20T15:09:53Z</time>
      </trkpt>
      <trkpt lat="50.03684" lon="2.33246">
        <ele>140.6</ele>
        <time>2023-12-20T15:09:55Z</time>
      </trkpt>
      <trkpt lat="50.03683" lon="2.33245">
        <ele>140.5</ele>
        <time>2023-12-20T15:09:56Z</time>
      </trkpt>
      <trkpt lat="50.03682" lon="2.33244">
        <ele>140.5</ele>
        <time>2023-12-20T15:09:57Z</time>
      </trkpt>
      <trkpt lat="50.03682" lon="2.33242">
        <ele>140.5</ele>
        <time>2023-12-20T15:09:58Z</time>
      </trkpt>
      <trkpt lat="50.03681" lon="2.33241">
        <ele>140.5</ele>
        <time>2023-12-20T15:09:59Z</time>
      </trkpt>
      <trkpt lat="50.0368" lon="2.3324">
        <ele>140.5</ele>
        <time>2023-12-20T15:10:00Z</time>
      </trkpt>
      <trkpt lat="50.03679" lon="2.33238">
        <ele>140.4</ele>
        <time>2023-12-20T15:10:01Z</time>
      </trkpt>
      <trkpt lat="50.03679" lon="2.33237">
        <ele>140.4</ele>
        <time>2023-12-20T15:10:02Z</time>
      </trkpt>
      <trkpt lat="50.03678" lon="2.33236">
        <ele>140.4</ele>
        <time>2023-12-20T15:10:03Z</time>
      </trkpt>
      <trkpt lat="50.03677" lon="2.33234">
        <ele>140.4</ele>
        <time>2023-12-20T15:10:04Z</time>
      </trkpt>
      <trkpt lat="50.03676" lon="2.33233">
        <ele>140.4</ele>
        <time>2023-12-20T15:10:05Z</time>
      </trkpt>
      <trkpt lat="50.03675" lon="2.33232">
        <ele>140.3</ele>
        <time>2023-12-20T15:10:06Z</time>
      </trkpt>
      <trkpt lat="50.03674" lon="2.33231">
        <ele>140.3</ele>
        <time>2023-12-20T15:10:07Z</time>
      </trkpt>
      <trkpt lat="50.03674" lon="2.33229">
        <ele>140.3</ele>
        <time>2023-12-20T15:10:08Z</time>
      </trkpt>
      <trkpt lat="50.03673" lon="2.33228">
        <ele>140.3</ele>
        <time>2023-12-20T15:10:09Z</time>
      </trkpt>
      <trkpt lat="50.03671" lon="2.33225">
        <ele>140.2</ele>
        <time>2023-12-20T15:10:10Z</time>
      </trkpt>
      <trkpt lat="50.03671" lon="2.33225">
        <ele>140.2</ele>
        <time>2023-12-20T15:10:12Z</time>
      </trkpt>
      <trkpt lat="50.0367" lon="2.33224">
        <ele>140.2</ele>
        <time>2023-12-20T15:10:13Z</time>
      </trkpt>
      <trkpt lat="50.03669" lon="2.33221">
        <ele>140.2</ele>
        <time>2023-12-20T15:10:14Z</time>
      </trkpt>
      <trkpt lat="50.03668" lon="2.3322">
        <ele>140.2</ele>
        <time>2023-12-20T15:10:15Z</time>
      </trkpt>
      <trkpt lat="50.03667" lon="2.3322">
        <ele>140.2</ele>
        <time>2023-12-20T15:10:16Z</time>
      </trkpt>
      <trkpt lat="50.03666" lon="2.33218">
        <ele>140.1</ele>
        <time>2023-12-20T15:10:17Z</time>
      </trkpt>
      <trkpt lat="50.03665" lon="2.33217">
        <ele>140.1</ele>
        <time>2023-12-20T15:10:18Z</time>
      </trkpt>
      <trkpt lat="50.03664" lon="2.33215">
        <ele>140.1</ele>
        <time>2023-12-20T15:10:20Z</time>
      </trkpt>
      <trkpt lat="50.03663" lon="2.33214">
        <ele>140.1</ele>
        <time>2023-12-20T15:10:21Z</time>
      </trkpt>
      <trkpt lat="50.03662" lon="2.33212">
        <ele>140</ele>
        <time>2023-12-20T15:10:22Z</time>
      </trkpt>
      <trkpt lat="50.03661" lon="2.33211">
        <ele>140</ele>
        <time>2023-12-20T15:10:23Z</time>
      </trkpt>
      <trkpt lat="50.0366" lon="2.33209">
        <ele>140</ele>
        <time>2023-12-20T15:10:24Z</time>
      </trkpt>
      <trkpt lat="50.03658" lon="2.33207">
        <ele>139.9</ele>
        <time>2023-12-20T15:10:25Z</time>
      </trkpt>
      <trkpt lat="50.03657" lon="2.33205">
        <ele>139.9</ele>
        <time>2023-12-20T15:10:26Z</time>
      </trkpt>
      <trkpt lat="50.03657" lon="2.33204">
        <ele>139.9</ele>
        <time>2023-12-20T15:10:27Z</time>
      </trkpt>
      <trkpt lat="50.03655" lon="2.33201">
        <ele>139.9</ele>
        <time>2023-12-20T15:10:28Z</time>
      </trkpt>
      <trkpt lat="50.03655" lon="2.332">
        <ele>139.8</ele>
        <time>2023-12-20T15:10:29Z</time>
      </trkpt>
      <trkpt lat="50.03654" lon="2.33199">
        <ele>139.8</ele>
        <time>2023-12-20T15:10:30Z</time>
      </trkpt>
      <trkpt lat="50.03653" lon="2.33197">
        <ele>139.8</ele>
        <time>2023-12-20T15:10:32Z</time>
      </trkpt>
      <trkpt lat="50.03652" lon="2.33195">
        <ele>139.8</ele>
        <time>2023-12-20T15:10:33Z</time>
      </trkpt>
      <trkpt lat="50.03651" lon="2.33192">
        <ele>139.8</ele>
        <time>2023-12-20T15:10:34Z</time>
      </trkpt>
      <trkpt lat="50.03651" lon="2.33191">
        <ele>139.7</ele>
        <time>2023-12-20T15:10:35Z</time>
      </trkpt>
      <trkpt lat="50.0365" lon="2.3319">
        <ele>139.7</ele>
        <time>2023-12-20T15:10:36Z</time>
      </trkpt>
      <trkpt lat="50.03649" lon="2.33187">
        <ele>139.7</ele>
        <time>2023-12-20T15:10:37Z</time>
      </trkpt>
      <trkpt lat="50.03648" lon="2.33186">
        <ele>139.7</ele>
        <time>2023-12-20T15:10:38Z</time>
      </trkpt>
      <trkpt lat="50.03648" lon="2.33185">
        <ele>139.7</ele>
        <time>2023-12-20T15:10:39Z</time>
      </trkpt>
      <trkpt lat="50.03647" lon="2.33184">
        <ele>139.7</ele>
        <time>2023-12-20T15:10:41Z</time>
      </trkpt>
      <trkpt lat="50.03646" lon="2.33183">
        <ele>139.7</ele>
        <time>2023-12-20T15:10:42Z</time>
      </trkpt>
      <trkpt lat="50.03646" lon="2.33182">
        <ele>139.7</ele>
        <time>2023-12-20T15:10:43Z</time>
      </trkpt>
      <trkpt lat="50.03645" lon="2.3318">
        <ele>139.6</ele>
        <time>2023-12-20T15:10:44Z</time>
      </trkpt>
      <trkpt lat="50.03644" lon="2.33179">
        <ele>139.6</ele>
        <time>2023-12-20T15:10:45Z</time>
      </trkpt>
      <trkpt lat="50.03642" lon="2.33176">
        <ele>139.6</ele>
        <time>2023-12-20T15:10:46Z</time>
      </trkpt>
      <trkpt lat="50.03641" lon="2.33175">
        <ele>139.6</ele>
        <time>2023-12-20T15:10:47Z</time>
      </trkpt>
      <trkpt lat="50.03641" lon="2.33174">
        <ele>139.6</ele>
        <time>2023-12-20T15:10:48Z</time>
      </trkpt>
      <trkpt lat="50.03639" lon="2.33172">
        <ele>139.6</ele>
        <time>2023-12-20T15:10:49Z</time>
      </trkpt>
      <trkpt lat="50.03639" lon="2.33171">
        <ele>139.6</ele>
        <time>2023-12-20T15:10:50Z</time>
      </trkpt>
      <trkpt lat="50.03638" lon="2.3317">
        <ele>139.6</ele>
        <time>2023-12-20T15:10:51Z</time>
      </trkpt>
      <trkpt lat="50.03637" lon="2.33169">
        <ele>139.6</ele>
        <time>2023-12-20T15:10:52Z</time>
      </trkpt>
      <trkpt lat="50.03637" lon="2.33168">
        <ele>139.6</ele>
        <time>2023-12-20T15:10:54Z</time>
      </trkpt>
      <trkpt lat="50.03636" lon="2.33167">
        <ele>139.5</ele>
        <time>2023-12-20T15:10:55Z</time>
      </trkpt>
      <trkpt lat="50.03634" lon="2.33164">
        <ele>139.5</ele>
        <time>2023-12-20T15:10:56Z</time>
      </trkpt>
      <trkpt lat="50.03633" lon="2.33163">
        <ele>139.5</ele>
        <time>2023-12-20T15:10:57Z</time>
      </trkpt>
      <trkpt lat="50.03633" lon="2.33162">
        <ele>139.5</ele>
        <time>2023-12-20T15:10:58Z</time>
      </trkpt>
      <trkpt lat="50.03631" lon="2.3316">
        <ele>139.5</ele>
        <time>2023-12-20T15:10:59Z</time>
      </trkpt>
      <trkpt lat="50.03631" lon="2.33159">
        <ele>139.5</ele>
        <time>2023-12-20T15:11:00Z</time>
      </trkpt>
      <trkpt lat="50.0363" lon="2.33158">
        <ele>139.5</ele>
        <time>2023-12-20T15:11:01Z</time>
      </trkpt>
      <trkpt lat="50.03629" lon="2.33156">
        <ele>139.4</ele>
        <time>2023-12-20T15:11:03Z</time>
      </trkpt>
      <trkpt lat="50.03628" lon="2.33156">
        <ele>139.4</ele>
        <time>2023-12-20T15:11:04Z</time>
      </trkpt>
      <trkpt lat="50.03627" lon="2.33155">
        <ele>139.4</ele>
        <time>2023-12-20T15:11:05Z</time>
      </trkpt>
      <trkpt lat="50.03626" lon="2.33154">
        <ele>139.4</ele>
        <time>2023-12-20T15:11:06Z</time>
      </trkpt>
      <trkpt lat="50.03625" lon="2.33152">
        <ele>139.4</ele>
        <time>2023-12-20T15:11:07Z</time>
      </trkpt>
      <trkpt lat="50.03624" lon="2.3315">
        <ele>139.4</ele>
        <time>2023-12-20T15:11:08Z</time>
      </trkpt>
      <trkpt lat="50.03623" lon="2.33148">
        <ele>139.4</ele>
        <time>2023-12-20T15:11:10Z</time>
      </trkpt>
      <trkpt lat="50.03622" lon="2.33147">
        <ele>139.3</ele>
        <time>2023-12-20T15:11:11Z</time>
      </trkpt>
      <trkpt lat="50.03621" lon="2.33146">
        <ele>139.3</ele>
        <time>2023-12-20T15:11:12Z</time>
      </trkpt>
      <trkpt lat="50.0362" lon="2.33144">
        <ele>139.3</ele>
        <time>2023-12-20T15:11:14Z</time>
      </trkpt>
      <trkpt lat="50.03619" lon="2.33142">
        <ele>139.3</ele>
        <time>2023-12-20T15:11:15Z</time>
      </trkpt>
      <trkpt lat="50.03618" lon="2.33141">
        <ele>139.3</ele>
        <time>2023-12-20T15:11:17Z</time>
      </trkpt>
      <trkpt lat="50.03617" lon="2.33139">
        <ele>139.2</ele>
        <time>2023-12-20T15:11:18Z</time>
      </trkpt>
      <trkpt lat="50.03616" lon="2.33138">
        <ele>139.2</ele>
        <time>2023-12-20T15:11:19Z</time>
      </trkpt>
      <trkpt lat="50.03614" lon="2.33135">
        <ele>139.2</ele>
        <time>2023-12-20T15:11:20Z</time>
      </trkpt>
      <trkpt lat="50.03614" lon="2.33134">
        <ele>139.2</ele>
        <time>2023-12-20T15:11:21Z</time>
      </trkpt>
      <trkpt lat="50.03613" lon="2.33133">
        <ele>139.2</ele>
        <time>2023-12-20T15:11:22Z</time>
      </trkpt>
      <trkpt lat="50.03612" lon="2.33131">
        <ele>139.2</ele>
        <time>2023-12-20T15:11:23Z</time>
      </trkpt>
      <trkpt lat="50.03611" lon="2.33129">
        <ele>139.2</ele>
        <time>2023-12-20T15:11:25Z</time>
      </trkpt>
      <trkpt lat="50.03611" lon="2.33128">
        <ele>139.1</ele>
        <time>2023-12-20T15:11:26Z</time>
      </trkpt>
      <trkpt lat="50.0361" lon="2.33126">
        <ele>139.1</ele>
        <time>2023-12-20T15:11:27Z</time>
      </trkpt>
      <trkpt lat="50.03609" lon="2.33124">
        <ele>139.1</ele>
        <time>2023-12-20T15:11:28Z</time>
      </trkpt>
      <trkpt lat="50.03608" lon="2.33122">
        <ele>139.1</ele>
        <time>2023-12-20T15:11:29Z</time>
      </trkpt>
      <trkpt lat="50.03607" lon="2.3312">
        <ele>139.1</ele>
        <time>2023-12-20T15:11:31Z</time>
      </trkpt>
      <trkpt lat="50.03607" lon="2.33119">
        <ele>139</ele>
        <time>2023-12-20T15:11:32Z</time>
      </trkpt>
      <trkpt lat="50.03606" lon="2.33117">
        <ele>139</ele>
        <time>2023-12-20T15:11:33Z</time>
      </trkpt>
      <trkpt lat="50.03605" lon="2.33116">
        <ele>139</ele>
        <time>2023-12-20T15:11:34Z</time>
      </trkpt>
      <trkpt lat="50.03605" lon="2.33114">
        <ele>139</ele>
        <time>2023-12-20T15:11:35Z</time>
      </trkpt>
      <trkpt lat="50.03604" lon="2.33113">
        <ele>139</ele>
        <time>2023-12-20T15:11:37Z</time>
      </trkpt>
      <trkpt lat="50.03603" lon="2.33111">
        <ele>138.9</ele>
        <time>2023-12-20T15:11:38Z</time>
      </trkpt>
      <trkpt lat="50.03602" lon="2.3311">
        <ele>138.9</ele>
        <time>2023-12-20T15:11:39Z</time>
      </trkpt>
      <trkpt lat="50.03601" lon="2.33109">
        <ele>138.9</ele>
        <time>2023-12-20T15:11:40Z</time>
      </trkpt>
      <trkpt lat="50.036" lon="2.33108">
        <ele>138.9</ele>
        <time>2023-12-20T15:11:41Z</time>
      </trkpt>
      <trkpt lat="50.03599" lon="2.33108">
        <ele>138.9</ele>
        <time>2023-12-20T15:11:42Z</time>
      </trkpt>
      <trkpt lat="50.03598" lon="2.33108">
        <ele>138.9</ele>
        <time>2023-12-20T15:11:43Z</time>
      </trkpt>
      <trkpt lat="50.03597" lon="2.33107">
        <ele>138.9</ele>
        <time>2023-12-20T15:11:44Z</time>
      </trkpt>
      <trkpt lat="50.03596" lon="2.33106">
        <ele>138.8</ele>
        <time>2023-12-20T15:11:45Z</time>
      </trkpt>
      <trkpt lat="50.03595" lon="2.33104">
        <ele>138.8</ele>
        <time>2023-12-20T15:11:47Z</time>
      </trkpt>
      <trkpt lat="50.03594" lon="2.33103">
        <ele>138.8</ele>
        <time>2023-12-20T15:11:48Z</time>
      </trkpt>
      <trkpt lat="50.03594" lon="2.33101">
        <ele>138.8</ele>
        <time>2023-12-20T15:11:49Z</time>
      </trkpt>
      <trkpt lat="50.03593" lon="2.33098">
        <ele>138.8</ele>
        <time>2023-12-20T15:11:50Z</time>
      </trkpt>
      <trkpt lat="50.03592" lon="2.33097">
        <ele>138.7</ele>
        <time>2023-12-20T15:11:51Z</time>
      </trkpt>
      <trkpt lat="50.03592" lon="2.33096">
        <ele>138.7</ele>
        <time>2023-12-20T15:11:52Z</time>
      </trkpt>
      <trkpt lat="50.03591" lon="2.33094">
        <ele>138.7</ele>
        <time>2023-12-20T15:11:53Z</time>
      </trkpt>
      <trkpt lat="50.03591" lon="2.33092">
        <ele>138.7</ele>
        <time>2023-12-20T15:11:54Z</time>
      </trkpt>
      <trkpt lat="50.03591" lon="2.3309">
        <ele>138.7</ele>
        <time>2023-12-20T15:11:56Z</time>
      </trkpt>
      <trkpt lat="50.0359" lon="2.33088">
        <ele>138.7</ele>
        <time>2023-12-20T15:11:57Z</time>
      </trkpt>
      <trkpt lat="50.03589" lon="2.33086">
        <ele>138.6</ele>
        <time>2023-12-20T15:11:58Z</time>
      </trkpt>
      <trkpt lat="50.03589" lon="2.33084">
        <ele>138.6</ele>
        <time>2023-12-20T15:11:59Z</time>
      </trkpt>
      <trkpt lat="50.03588" lon="2.33082">
        <ele>138.6</ele>
        <time>2023-12-20T15:12:00Z</time>
      </trkpt>
      <trkpt lat="50.03587" lon="2.33079">
        <ele>138.6</ele>
        <time>2023-12-20T15:12:01Z</time>
      </trkpt>
      <trkpt lat="50.03587" lon="2.33078">
        <ele>138.6</ele>
        <time>2023-12-20T15:12:02Z</time>
      </trkpt>
      <trkpt lat="50.03586" lon="2.33077">
        <ele>138.6</ele>
        <time>2023-12-20T15:12:03Z</time>
      </trkpt>
      <trkpt lat="50.03586" lon="2.33075">
        <ele>138.5</ele>
        <time>2023-12-20T15:12:04Z</time>
      </trkpt>
      <trkpt lat="50.03585" lon="2.33073">
        <ele>138.5</ele>
        <time>2023-12-20T15:12:06Z</time>
      </trkpt>
      <trkpt lat="50.03585" lon="2.33072">
        <ele>138.5</ele>
        <time>2023-12-20T15:12:07Z</time>
      </trkpt>
      <trkpt lat="50.03584" lon="2.33069">
        <ele>138.5</ele>
        <time>2023-12-20T15:12:08Z</time>
      </trkpt>
      <trkpt lat="50.03583" lon="2.33068">
        <ele>138.5</ele>
        <time>2023-12-20T15:12:09Z</time>
      </trkpt>
      <trkpt lat="50.03583" lon="2.33067">
        <ele>138.5</ele>
        <time>2023-12-20T15:12:10Z</time>
      </trkpt>
      <trkpt lat="50.03582" lon="2.33064">
        <ele>138.5</ele>
        <time>2023-12-20T15:12:11Z</time>
      </trkpt>
      <trkpt lat="50.03581" lon="2.33063">
        <ele>138.4</ele>
        <time>2023-12-20T15:12:12Z</time>
      </trkpt>
      <trkpt lat="50.03581" lon="2.33062">
        <ele>138.4</ele>
        <time>2023-12-20T15:12:13Z</time>
      </trkpt>
      <trkpt lat="50.03579" lon="2.3306">
        <ele>138.4</ele>
        <time>2023-12-20T15:12:15Z</time>
      </trkpt>
      <trkpt lat="50.03578" lon="2.33058">
        <ele>138.4</ele>
        <time>2023-12-20T15:12:16Z</time>
      </trkpt>
      <trkpt lat="50.03578" lon="2.33057">
        <ele>138.4</ele>
        <time>2023-12-20T15:12:17Z</time>
      </trkpt>
      <trkpt lat="50.03577" lon="2.33055">
        <ele>138.4</ele>
        <time>2023-12-20T15:12:18Z</time>
      </trkpt>
      <trkpt lat="50.03576" lon="2.33054">
        <ele>138.4</ele>
        <time>2023-12-20T15:12:19Z</time>
      </trkpt>
      <trkpt lat="50.03576" lon="2.33052">
        <ele>138.3</ele>
        <time>2023-12-20T15:12:20Z</time>
      </trkpt>
      <trkpt lat="50.03575" lon="2.33051">
        <ele>138.3</ele>
        <time>2023-12-20T15:12:21Z</time>
      </trkpt>
      <trkpt lat="50.03574" lon="2.3305">
        <ele>138.3</ele>
        <time>2023-12-20T15:12:23Z</time>
      </trkpt>
      <trkpt lat="50.03574" lon="2.33049">
        <ele>138.3</ele>
        <time>2023-12-20T15:12:24Z</time>
      </trkpt>
      <trkpt lat="50.03572" lon="2.33046">
        <ele>138.3</ele>
        <time>2023-12-20T15:12:25Z</time>
      </trkpt>
      <trkpt lat="50.03572" lon="2.33045">
        <ele>138.3</ele>
        <time>2023-12-20T15:12:26Z</time>
      </trkpt>
      <trkpt lat="50.03571" lon="2.33044">
        <ele>138.2</ele>
        <time>2023-12-20T15:12:27Z</time>
      </trkpt>
      <trkpt lat="50.0357" lon="2.33043">
        <ele>138.2</ele>
        <time>2023-12-20T15:12:28Z</time>
      </trkpt>
      <trkpt lat="50.0357" lon="2.33041">
        <ele>138.2</ele>
        <time>2023-12-20T15:12:29Z</time>
      </trkpt>
      <trkpt lat="50.03569" lon="2.3304">
        <ele>138.2</ele>
        <time>2023-12-20T15:12:30Z</time>
      </trkpt>
      <trkpt lat="50.03568" lon="2.33039">
        <ele>138.2</ele>
        <time>2023-12-20T15:12:31Z</time>
      </trkpt>
      <trkpt lat="50.03567" lon="2.33039">
        <ele>138.2</ele>
        <time>2023-12-20T15:12:33Z</time>
      </trkpt>
      <trkpt lat="50.03566" lon="2.33038">
        <ele>138.1</ele>
        <time>2023-12-20T15:12:34Z</time>
      </trkpt>
      <trkpt lat="50.03566" lon="2.33037">
        <ele>138.1</ele>
        <time>2023-12-20T15:12:35Z</time>
      </trkpt>
      <trkpt lat="50.03566" lon="2.33036">
        <ele>138.1</ele>
        <time>2023-12-20T15:12:37Z</time>
      </trkpt>
      <trkpt lat="50.03567" lon="2.33036">
        <ele>138.1</ele>
        <time>2023-12-20T15:12:39Z</time>
      </trkpt>
      <trkpt lat="50.03568" lon="2.33037">
        <ele>138.1</ele>
        <time>2023-12-20T15:12:40Z</time>
      </trkpt>
      <trkpt lat="50.03569" lon="2.33038">
        <ele>138.1</ele>
        <time>2023-12-20T15:12:41Z</time>
      </trkpt>
      <trkpt lat="50.0357" lon="2.33038">
        <ele>138</ele>
        <time>2023-12-20T15:12:43Z</time>
      </trkpt>
      <trkpt lat="50.0357" lon="2.33039">
        <ele>138</ele>
        <time>2023-12-20T15:12:44Z</time>
      </trkpt>
      <trkpt lat="50.03571" lon="2.33039">
        <ele>138</ele>
        <time>2023-12-20T15:12:46Z</time>
      </trkpt>
      <trkpt lat="50.03571" lon="2.3304">
        <ele>138</ele>
        <time>2023-12-20T15:12:47Z</time>
      </trkpt>
      <trkpt lat="50.03571" lon="2.3304">
        <ele>138</ele>
        <time>2023-12-20T15:12:48Z</time>
      </trkpt>
      <trkpt lat="50.03571" lon="2.3304">
        <ele>138</ele>
        <time>2023-12-20T15:12:50Z</time>
      </trkpt>
      <trkpt lat="50.03569" lon="2.3304">
        <ele>138</ele>
        <time>2023-12-20T15:13:45Z</time>
      </trkpt>
      <trkpt lat="50.03568" lon="2.33039">
        <ele>137.9</ele>
        <time>2023-12-20T15:13:46Z</time>
      </trkpt>
      <trkpt lat="50.03568" lon="2.33037">
        <ele>137.9</ele>
        <time>2023-12-20T15:13:47Z</time>
      </trkpt>
      <trkpt lat="50.03567" lon="2.33035">
        <ele>137.9</ele>
        <time>2023-12-20T15:13:49Z</time>
      </trkpt>
      <trkpt lat="50.03567" lon="2.3303">
        <ele>137.8</ele>
        <time>2023-12-20T15:13:50Z</time>
      </trkpt>
      <trkpt lat="50.03567" lon="2.33029">
        <ele>137.8</ele>
        <time>2023-12-20T15:13:51Z</time>
      </trkpt>
      <trkpt lat="50.03566" lon="2.33027">
        <ele>137.8</ele>
        <time>2023-12-20T15:13:53Z</time>
      </trkpt>
      <trkpt lat="50.03565" lon="2.33025">
        <ele>137.8</ele>
        <time>2023-12-20T15:13:54Z</time>
      </trkpt>
      <trkpt lat="50.03564" lon="2.33023">
        <ele>137.8</ele>
        <time>2023-12-20T15:13:55Z</time>
      </trkpt>
      <trkpt lat="50.03563" lon="2.33021">
        <ele>137.7</ele>
        <time>2023-12-20T15:13:56Z</time>
      </trkpt>
      <trkpt lat="50.03562" lon="2.33018">
        <ele>137.7</ele>
        <time>2023-12-20T15:13:57Z</time>
      </trkpt>
      <trkpt lat="50.03562" lon="2.33017">
        <ele>137.7</ele>
        <time>2023-12-20T15:13:58Z</time>
      </trkpt>
      <trkpt lat="50.03562" lon="2.33016">
        <ele>137.7</ele>
        <time>2023-12-20T15:13:59Z</time>
      </trkpt>
      <trkpt lat="50.03561" lon="2.33014">
        <ele>137.6</ele>
        <time>2023-12-20T15:14:00Z</time>
      </trkpt>
      <trkpt lat="50.03561" lon="2.33013">
        <ele>137.6</ele>
        <time>2023-12-20T15:14:01Z</time>
      </trkpt>
      <trkpt lat="50.0356" lon="2.33011">
        <ele>137.6</ele>
        <time>2023-12-20T15:14:02Z</time>
      </trkpt>
      <trkpt lat="50.03559" lon="2.33009">
        <ele>137.6</ele>
        <time>2023-12-20T15:14:04Z</time>
      </trkpt>
      <trkpt lat="50.03558" lon="2.33007">
        <ele>137.6</ele>
        <time>2023-12-20T15:14:05Z</time>
      </trkpt>
      <trkpt lat="50.03557" lon="2.33006">
        <ele>137.5</ele>
        <time>2023-12-20T15:14:06Z</time>
      </trkpt>
      <trkpt lat="50.03556" lon="2.33004">
        <ele>137.5</ele>
        <time>2023-12-20T15:14:07Z</time>
      </trkpt>
      <trkpt lat="50.03554" lon="2.33001">
        <ele>137.5</ele>
        <time>2023-12-20T15:14:09Z</time>
      </trkpt>
      <trkpt lat="50.03553" lon="2.33">
        <ele>137.5</ele>
        <time>2023-12-20T15:14:11Z</time>
      </trkpt>
      <trkpt lat="50.03552" lon="2.32997">
        <ele>137.4</ele>
        <time>2023-12-20T15:14:12Z</time>
      </trkpt>
      <trkpt lat="50.03551" lon="2.32996">
        <ele>137.4</ele>
        <time>2023-12-20T15:14:13Z</time>
      </trkpt>
      <trkpt lat="50.03551" lon="2.32995">
        <ele>137.4</ele>
        <time>2023-12-20T15:14:14Z</time>
      </trkpt>
      <trkpt lat="50.03549" lon="2.32993">
        <ele>137.4</ele>
        <time>2023-12-20T15:14:15Z</time>
      </trkpt>
      <trkpt lat="50.03549" lon="2.32992">
        <ele>137.4</ele>
        <time>2023-12-20T15:14:16Z</time>
      </trkpt>
      <trkpt lat="50.03548" lon="2.32991">
        <ele>137.3</ele>
        <time>2023-12-20T15:14:17Z</time>
      </trkpt>
      <trkpt lat="50.03547" lon="2.32988">
        <ele>137.3</ele>
        <time>2023-12-20T15:14:19Z</time>
      </trkpt>
      <trkpt lat="50.03546" lon="2.32987">
        <ele>137.3</ele>
        <time>2023-12-20T15:14:20Z</time>
      </trkpt>
      <trkpt lat="50.03546" lon="2.32986">
        <ele>137.3</ele>
        <time>2023-12-20T15:14:21Z</time>
      </trkpt>
      <trkpt lat="50.03544" lon="2.32984">
        <ele>137.3</ele>
        <time>2023-12-20T15:14:22Z</time>
      </trkpt>
      <trkpt lat="50.03544" lon="2.32982">
        <ele>137.2</ele>
        <time>2023-12-20T15:14:23Z</time>
      </trkpt>
      <trkpt lat="50.03543" lon="2.32981">
        <ele>137.2</ele>
        <time>2023-12-20T15:14:25Z</time>
      </trkpt>
      <trkpt lat="50.03542" lon="2.3298">
        <ele>137.2</ele>
        <time>2023-12-20T15:14:26Z</time>
      </trkpt>
      <trkpt lat="50.03542" lon="2.32979">
        <ele>137.2</ele>
        <time>2023-12-20T15:14:27Z</time>
      </trkpt>
      <trkpt lat="50.03541" lon="2.32977">
        <ele>137.2</ele>
        <time>2023-12-20T15:14:28Z</time>
      </trkpt>
      <trkpt lat="50.0354" lon="2.32976">
        <ele>137.2</ele>
        <time>2023-12-20T15:14:29Z</time>
      </trkpt>
      <trkpt lat="50.0354" lon="2.32974">
        <ele>137.2</ele>
        <time>2023-12-20T15:14:30Z</time>
      </trkpt>
      <trkpt lat="50.03539" lon="2.32973">
        <ele>137.2</ele>
        <time>2023-12-20T15:14:31Z</time>
      </trkpt>
      <trkpt lat="50.03538" lon="2.3297">
        <ele>137.1</ele>
        <time>2023-12-20T15:14:32Z</time>
      </trkpt>
      <trkpt lat="50.03537" lon="2.32969">
        <ele>137.1</ele>
        <time>2023-12-20T15:14:33Z</time>
      </trkpt>
      <trkpt lat="50.03536" lon="2.32968">
        <ele>137.1</ele>
        <time>2023-12-20T15:14:35Z</time>
      </trkpt>
      <trkpt lat="50.03536" lon="2.32966">
        <ele>137.1</ele>
        <time>2023-12-20T15:14:36Z</time>
      </trkpt>
      <trkpt lat="50.03535" lon="2.32965">
        <ele>137.1</ele>
        <time>2023-12-20T15:14:37Z</time>
      </trkpt>
      <trkpt lat="50.03535" lon="2.32964">
        <ele>137.1</ele>
        <time>2023-12-20T15:14:38Z</time>
      </trkpt>
      <trkpt lat="50.03534" lon="2.32961">
        <ele>137.1</ele>
        <time>2023-12-20T15:14:39Z</time>
      </trkpt>
      <trkpt lat="50.03533" lon="2.3296">
        <ele>137.1</ele>
        <time>2023-12-20T15:14:40Z</time>
      </trkpt>
      <trkpt lat="50.03533" lon="2.32959">
        <ele>137.1</ele>
        <time>2023-12-20T15:14:41Z</time>
      </trkpt>
      <trkpt lat="50.03533" lon="2.32957">
        <ele>137.1</ele>
        <time>2023-12-20T15:14:42Z</time>
      </trkpt>
      <trkpt lat="50.03533" lon="2.32955">
        <ele>137.1</ele>
        <time>2023-12-20T15:14:43Z</time>
      </trkpt>
      <trkpt lat="50.03532" lon="2.32953">
        <ele>137</ele>
        <time>2023-12-20T15:14:45Z</time>
      </trkpt>
      <trkpt lat="50.03532" lon="2.32952">
        <ele>137</ele>
        <time>2023-12-20T15:14:46Z</time>
      </trkpt>
      <trkpt lat="50.03532" lon="2.3295">
        <ele>137</ele>
        <time>2023-12-20T15:14:47Z</time>
      </trkpt>
      <trkpt lat="50.03532" lon="2.32949">
        <ele>137</ele>
        <time>2023-12-20T15:14:48Z</time>
      </trkpt>
      <trkpt lat="50.03532" lon="2.32948">
        <ele>137</ele>
        <time>2023-12-20T15:14:49Z</time>
      </trkpt>
      <trkpt lat="50.03532" lon="2.32947">
        <ele>137.1</ele>
        <time>2023-12-20T15:14:50Z</time>
      </trkpt>
      <trkpt lat="50.03532" lon="2.32945">
        <ele>137.1</ele>
        <time>2023-12-20T15:14:51Z</time>
      </trkpt>
      <trkpt lat="50.03532" lon="2.32944">
        <ele>137.1</ele>
        <time>2023-12-20T15:14:52Z</time>
      </trkpt>
      <trkpt lat="50.03532" lon="2.32942">
        <ele>137.1</ele>
        <time>2023-12-20T15:14:54Z</time>
      </trkpt>
      <trkpt lat="50.03532" lon="2.32941">
        <ele>137.1</ele>
        <time>2023-12-20T15:14:55Z</time>
      </trkpt>
      <trkpt lat="50.03532" lon="2.3294">
        <ele>137.1</ele>
        <time>2023-12-20T15:14:56Z</time>
      </trkpt>
      <trkpt lat="50.03533" lon="2.32938">
        <ele>137.1</ele>
        <time>2023-12-20T15:14:57Z</time>
      </trkpt>
      <trkpt lat="50.03533" lon="2.32936">
        <ele>137.1</ele>
        <time>2023-12-20T15:14:59Z</time>
      </trkpt>
      <trkpt lat="50.03534" lon="2.32934">
        <ele>137.2</ele>
        <time>2023-12-20T15:15:01Z</time>
      </trkpt>
      <trkpt lat="50.03534" lon="2.32933">
        <ele>137.2</ele>
        <time>2023-12-20T15:15:02Z</time>
      </trkpt>
      <trkpt lat="50.03534" lon="2.32932">
        <ele>137.2</ele>
        <time>2023-12-20T15:15:03Z</time>
      </trkpt>
      <trkpt lat="50.03535" lon="2.3293">
        <ele>137.2</ele>
        <time>2023-12-20T15:15:04Z</time>
      </trkpt>
      <trkpt lat="50.03536" lon="2.32928">
        <ele>137.2</ele>
        <time>2023-12-20T15:15:06Z</time>
      </trkpt>
      <trkpt lat="50.03537" lon="2.32927">
        <ele>137.2</ele>
        <time>2023-12-20T15:15:07Z</time>
      </trkpt>
      <trkpt lat="50.03537" lon="2.32926">
        <ele>137.3</ele>
        <time>2023-12-20T15:15:08Z</time>
      </trkpt>
      <trkpt lat="50.03538" lon="2.32925">
        <ele>137.3</ele>
        <time>2023-12-20T15:15:10Z</time>
      </trkpt>
      <trkpt lat="50.03539" lon="2.32924">
        <ele>137.3</ele>
        <time>2023-12-20T15:15:11Z</time>
      </trkpt>
      <trkpt lat="50.03539" lon="2.32923">
        <ele>137.3</ele>
        <time>2023-12-20T15:15:13Z</time>
      </trkpt>
      <trkpt lat="50.03541" lon="2.32922">
        <ele>137.3</ele>
        <time>2023-12-20T15:15:14Z</time>
      </trkpt>
      <trkpt lat="50.03541" lon="2.32922">
        <ele>137.3</ele>
        <time>2023-12-20T15:15:16Z</time>
      </trkpt>
      <trkpt lat="50.03541" lon="2.32921">
        <ele>137.3</ele>
        <time>2023-12-20T15:15:18Z</time>
      </trkpt>
      <trkpt lat="50.03541" lon="2.32921">
        <ele>137.3</ele>
        <time>2023-12-20T15:15:19Z</time>
      </trkpt>
      <trkpt lat="50.03541" lon="2.32922">
        <ele>137.3</ele>
        <time>2023-12-20T15:15:22Z</time>
      </trkpt>
      <trkpt lat="50.03541" lon="2.32921">
        <ele>137.3</ele>
        <time>2023-12-20T15:15:23Z</time>
      </trkpt>
      <trkpt lat="50.03541" lon="2.32921">
        <ele>137.3</ele>
        <time>2023-12-20T15:15:25Z</time>
      </trkpt>
      <trkpt lat="50.03541" lon="2.32921">
        <ele>137.3</ele>
        <time>2023-12-20T15:15:26Z</time>
      </trkpt>
      <trkpt lat="50.03541" lon="2.32921">
        <ele>137.4</ele>
        <time>2023-12-20T15:15:27Z</time>
      </trkpt>
      <trkpt lat="50.03542" lon="2.3292">
        <ele>137.4</ele>
        <time>2023-12-20T15:15:28Z</time>
      </trkpt>
      <trkpt lat="50.03542" lon="2.3292">
        <ele>137.4</ele>
        <time>2023-12-20T15:15:29Z</time>
      </trkpt>
      <trkpt lat="50.03542" lon="2.32919">
        <ele>137.4</ele>
        <time>2023-12-20T15:15:30Z</time>
      </trkpt>
      <trkpt lat="50.03543" lon="2.32918">
        <ele>137.4</ele>
        <time>2023-12-20T15:15:31Z</time>
      </trkpt>
      <trkpt lat="50.03543" lon="2.32917">
        <ele>137.4</ele>
        <time>2023-12-20T15:15:32Z</time>
      </trkpt>
      <trkpt lat="50.03543" lon="2.32916">
        <ele>137.4</ele>
        <time>2023-12-20T15:15:34Z</time>
      </trkpt>
      <trkpt lat="50.03543" lon="2.32915">
        <ele>137.4</ele>
        <time>2023-12-20T15:15:35Z</time>
      </trkpt>
      <trkpt lat="50.03543" lon="2.32914">
        <ele>137.4</ele>
        <time>2023-12-20T15:15:36Z</time>
      </trkpt>
      <trkpt lat="50.03543" lon="2.32912">
        <ele>137.4</ele>
        <time>2023-12-20T15:15:37Z</time>
      </trkpt>
      <trkpt lat="50.03543" lon="2.32911">
        <ele>137.5</ele>
        <time>2023-12-20T15:15:38Z</time>
      </trkpt>
      <trkpt lat="50.03543" lon="2.32909">
        <ele>137.5</ele>
        <time>2023-12-20T15:15:39Z</time>
      </trkpt>
      <trkpt lat="50.03544" lon="2.32908">
        <ele>137.5</ele>
        <time>2023-12-20T15:15:41Z</time>
      </trkpt>
      <trkpt lat="50.03544" lon="2.32907">
        <ele>137.5</ele>
        <time>2023-12-20T15:15:42Z</time>
      </trkpt>
      <trkpt lat="50.03544" lon="2.32906">
        <ele>137.5</ele>
        <time>2023-12-20T15:15:43Z</time>
      </trkpt>
      <trkpt lat="50.03545" lon="2.32903">
        <ele>137.5</ele>
        <time>2023-12-20T15:15:44Z</time>
      </trkpt>
      <trkpt lat="50.03545" lon="2.32901">
        <ele>137.5</ele>
        <time>2023-12-20T15:15:45Z</time>
      </trkpt>
      <trkpt lat="50.03546" lon="2.329">
        <ele>137.5</ele>
        <time>2023-12-20T15:15:46Z</time>
      </trkpt>
      <trkpt lat="50.03547" lon="2.32897">
        <ele>137.6</ele>
        <time>2023-12-20T15:15:48Z</time>
      </trkpt>
      <trkpt lat="50.03547" lon="2.32895">
        <ele>137.6</ele>
        <time>2023-12-20T15:15:50Z</time>
      </trkpt>
      <trkpt lat="50.03548" lon="2.32893">
        <ele>137.6</ele>
        <time>2023-12-20T15:15:51Z</time>
      </trkpt>
      <trkpt lat="50.03548" lon="2.32891">
        <ele>137.6</ele>
        <time>2023-12-20T15:15:52Z</time>
      </trkpt>
      <trkpt lat="50.03549" lon="2.3289">
        <ele>137.6</ele>
        <time>2023-12-20T15:15:53Z</time>
      </trkpt>
      <trkpt lat="50.03549" lon="2.32888">
        <ele>137.6</ele>
        <time>2023-12-20T15:15:54Z</time>
      </trkpt>
      <trkpt lat="50.0355" lon="2.32885">
        <ele>137.6</ele>
        <time>2023-12-20T15:15:55Z</time>
      </trkpt>
      <trkpt lat="50.03551" lon="2.32884">
        <ele>137.6</ele>
        <time>2023-12-20T15:15:56Z</time>
      </trkpt>
      <trkpt lat="50.03552" lon="2.32882">
        <ele>137.6</ele>
        <time>2023-12-20T15:15:58Z</time>
      </trkpt>
      <trkpt lat="50.03553" lon="2.3288">
        <ele>137.6</ele>
        <time>2023-12-20T15:15:59Z</time>
      </trkpt>
      <trkpt lat="50.03555" lon="2.32878">
        <ele>137.6</ele>
        <time>2023-12-20T15:16:00Z</time>
      </trkpt>
      <trkpt lat="50.03555" lon="2.32877">
        <ele>137.6</ele>
        <time>2023-12-20T15:16:01Z</time>
      </trkpt>
      <trkpt lat="50.03556" lon="2.32876">
        <ele>137.6</ele>
        <time>2023-12-20T15:16:02Z</time>
      </trkpt>
      <trkpt lat="50.03557" lon="2.32875">
        <ele>137.6</ele>
        <time>2023-12-20T15:16:03Z</time>
      </trkpt>
      <trkpt lat="50.03558" lon="2.32873">
        <ele>137.7</ele>
        <time>2023-12-20T15:16:04Z</time>
      </trkpt>
      <trkpt lat="50.0356" lon="2.32871">
        <ele>137.7</ele>
        <time>2023-12-20T15:16:05Z</time>
      </trkpt>
      <trkpt lat="50.0356" lon="2.3287">
        <ele>137.7</ele>
        <time>2023-12-20T15:16:06Z</time>
      </trkpt>
      <trkpt lat="50.03561" lon="2.32869">
        <ele>137.7</ele>
        <time>2023-12-20T15:16:07Z</time>
      </trkpt>
      <trkpt lat="50.03563" lon="2.32867">
        <ele>137.7</ele>
        <time>2023-12-20T15:16:09Z</time>
      </trkpt>
      <trkpt lat="50.03563" lon="2.32866">
        <ele>137.7</ele>
        <time>2023-12-20T15:16:10Z</time>
      </trkpt>
      <trkpt lat="50.03564" lon="2.32866">
        <ele>137.7</ele>
        <time>2023-12-20T15:16:11Z</time>
      </trkpt>
      <trkpt lat="50.03566" lon="2.32864">
        <ele>137.7</ele>
        <time>2023-12-20T15:16:12Z</time>
      </trkpt>
      <trkpt lat="50.03566" lon="2.32863">
        <ele>137.7</ele>
        <time>2023-12-20T15:16:13Z</time>
      </trkpt>
      <trkpt lat="50.03567" lon="2.32862">
        <ele>137.7</ele>
        <time>2023-12-20T15:16:14Z</time>
      </trkpt>
      <trkpt lat="50.03569" lon="2.32859">
        <ele>137.7</ele>
        <time>2023-12-20T15:16:16Z</time>
      </trkpt>
      <trkpt lat="50.0357" lon="2.32858">
        <ele>137.7</ele>
        <time>2023-12-20T15:16:18Z</time>
      </trkpt>
      <trkpt lat="50.03571" lon="2.32856">
        <ele>137.7</ele>
        <time>2023-12-20T15:16:19Z</time>
      </trkpt>
      <trkpt lat="50.03572" lon="2.32854">
        <ele>137.7</ele>
        <time>2023-12-20T15:16:20Z</time>
      </trkpt>
      <trkpt lat="50.03573" lon="2.32853">
        <ele>137.7</ele>
        <time>2023-12-20T15:16:21Z</time>
      </trkpt>
      <trkpt lat="50.03574" lon="2.32851">
        <ele>137.7</ele>
        <time>2023-12-20T15:16:22Z</time>
      </trkpt>
      <trkpt lat="50.03575" lon="2.32849">
        <ele>137.7</ele>
        <time>2023-12-20T15:16:23Z</time>
      </trkpt>
      <trkpt lat="50.03575" lon="2.32847">
        <ele>137.7</ele>
        <time>2023-12-20T15:16:24Z</time>
      </trkpt>
      <trkpt lat="50.03576" lon="2.32844">
        <ele>137.7</ele>
        <time>2023-12-20T15:16:25Z</time>
      </trkpt>
      <trkpt lat="50.03576" lon="2.32843">
        <ele>137.7</ele>
        <time>2023-12-20T15:16:27Z</time>
      </trkpt>
      <trkpt lat="50.03576" lon="2.32841">
        <ele>137.7</ele>
        <time>2023-12-20T15:16:28Z</time>
      </trkpt>
      <trkpt lat="50.03576" lon="2.32839">
        <ele>137.7</ele>
        <time>2023-12-20T15:16:29Z</time>
      </trkpt>
      <trkpt lat="50.03575" lon="2.32837">
        <ele>137.7</ele>
        <time>2023-12-20T15:16:30Z</time>
      </trkpt>
      <trkpt lat="50.03575" lon="2.32835">
        <ele>137.6</ele>
        <time>2023-12-20T15:16:31Z</time>
      </trkpt>
      <trkpt lat="50.03573" lon="2.32833">
        <ele>137.6</ele>
        <time>2023-12-20T15:16:32Z</time>
      </trkpt>
      <trkpt lat="50.03572" lon="2.32832">
        <ele>137.6</ele>
        <time>2023-12-20T15:16:33Z</time>
      </trkpt>
      <trkpt lat="50.0357" lon="2.3283">
        <ele>137.6</ele>
        <time>2023-12-20T15:16:34Z</time>
      </trkpt>
      <trkpt lat="50.03569" lon="2.32829">
        <ele>137.5</ele>
        <time>2023-12-20T15:16:35Z</time>
      </trkpt>
      <trkpt lat="50.03567" lon="2.32828">
        <ele>137.5</ele>
        <time>2023-12-20T15:16:37Z</time>
      </trkpt>
      <trkpt lat="50.03566" lon="2.32827">
        <ele>137.5</ele>
        <time>2023-12-20T15:16:38Z</time>
      </trkpt>
      <trkpt lat="50.03564" lon="2.32826">
        <ele>137.5</ele>
        <time>2023-12-20T15:16:39Z</time>
      </trkpt>
      <trkpt lat="50.03563" lon="2.32825">
        <ele>137.4</ele>
        <time>2023-12-20T15:16:40Z</time>
      </trkpt>
      <trkpt lat="50.03561" lon="2.32824">
        <ele>137.4</ele>
        <time>2023-12-20T15:16:41Z</time>
      </trkpt>
      <trkpt lat="50.0356" lon="2.32823">
        <ele>137.4</ele>
        <time>2023-12-20T15:16:42Z</time>
      </trkpt>
      <trkpt lat="50.03559" lon="2.32822">
        <ele>137.4</ele>
        <time>2023-12-20T15:16:43Z</time>
      </trkpt>
      <trkpt lat="50.03558" lon="2.32821">
        <ele>137.4</ele>
        <time>2023-12-20T15:16:45Z</time>
      </trkpt>
      <trkpt lat="50.03557" lon="2.3282">
        <ele>137.4</ele>
        <time>2023-12-20T15:16:46Z</time>
      </trkpt>
      <trkpt lat="50.03556" lon="2.32819">
        <ele>137.4</ele>
        <time>2023-12-20T15:16:47Z</time>
      </trkpt>
      <trkpt lat="50.03555" lon="2.32818">
        <ele>137.4</ele>
        <time>2023-12-20T15:16:48Z</time>
      </trkpt>
      <trkpt lat="50.03554" lon="2.32817">
        <ele>137.3</ele>
        <time>2023-12-20T15:16:49Z</time>
      </trkpt>
      <trkpt lat="50.03553" lon="2.32815">
        <ele>137.3</ele>
        <time>2023-12-20T15:16:50Z</time>
      </trkpt>
      <trkpt lat="50.03552" lon="2.32814">
        <ele>137.3</ele>
        <time>2023-12-20T15:16:51Z</time>
      </trkpt>
      <trkpt lat="50.03551" lon="2.32814">
        <ele>137.3</ele>
        <time>2023-12-20T15:16:53Z</time>
      </trkpt>
      <trkpt lat="50.0355" lon="2.32813">
        <ele>137.3</ele>
        <time>2023-12-20T15:16:54Z</time>
      </trkpt>
      <trkpt lat="50.0355" lon="2.32812">
        <ele>137.3</ele>
        <time>2023-12-20T15:16:55Z</time>
      </trkpt>
      <trkpt lat="50.03549" lon="2.32811">
        <ele>137.3</ele>
        <time>2023-12-20T15:16:56Z</time>
      </trkpt>
      <trkpt lat="50.03548" lon="2.3281">
        <ele>137.3</ele>
        <time>2023-12-20T15:16:57Z</time>
      </trkpt>
      <trkpt lat="50.03545" lon="2.32807">
        <ele>137.3</ele>
        <time>2023-12-20T15:16:58Z</time>
      </trkpt>
      <trkpt lat="50.03545" lon="2.32805">
        <ele>137.2</ele>
        <time>2023-12-20T15:17:00Z</time>
      </trkpt>
      <trkpt lat="50.03544" lon="2.32804">
        <ele>137.2</ele>
        <time>2023-12-20T15:17:01Z</time>
      </trkpt>
      <trkpt lat="50.03543" lon="2.32802">
        <ele>137.2</ele>
        <time>2023-12-20T15:17:02Z</time>
      </trkpt>
      <trkpt lat="50.03542" lon="2.32801">
        <ele>137.2</ele>
        <time>2023-12-20T15:17:04Z</time>
      </trkpt>
      <trkpt lat="50.03542" lon="2.328">
        <ele>137.2</ele>
        <time>2023-12-20T15:17:05Z</time>
      </trkpt>
      <trkpt lat="50.03541" lon="2.32798">
        <ele>137.2</ele>
        <time>2023-12-20T15:17:06Z</time>
      </trkpt>
      <trkpt lat="50.0354" lon="2.32797">
        <ele>137.2</ele>
        <time>2023-12-20T15:17:07Z</time>
      </trkpt>
      <trkpt lat="50.03538" lon="2.32796">
        <ele>137.2</ele>
        <time>2023-12-20T15:17:08Z</time>
      </trkpt>
      <trkpt lat="50.03537" lon="2.32794">
        <ele>137.2</ele>
        <time>2023-12-20T15:17:09Z</time>
      </trkpt>
      <trkpt lat="50.03536" lon="2.32793">
        <ele>137.1</ele>
        <time>2023-12-20T15:17:10Z</time>
      </trkpt>
      <trkpt lat="50.03535" lon="2.32792">
        <ele>137.1</ele>
        <time>2023-12-20T15:17:11Z</time>
      </trkpt>
      <trkpt lat="50.03534" lon="2.32791">
        <ele>137.1</ele>
        <time>2023-12-20T15:17:13Z</time>
      </trkpt>
      <trkpt lat="50.03533" lon="2.3279">
        <ele>137.1</ele>
        <time>2023-12-20T15:17:14Z</time>
      </trkpt>
      <trkpt lat="50.03533" lon="2.3279">
        <ele>137.1</ele>
        <time>2023-12-20T15:17:15Z</time>
      </trkpt>
      <trkpt lat="50.03532" lon="2.32789">
        <ele>137.1</ele>
        <time>2023-12-20T15:17:16Z</time>
      </trkpt>
      <trkpt lat="50.03531" lon="2.32788">
        <ele>137.1</ele>
        <time>2023-12-20T15:17:17Z</time>
      </trkpt>
      <trkpt lat="50.0353" lon="2.32787">
        <ele>137.1</ele>
        <time>2023-12-20T15:17:18Z</time>
      </trkpt>
      <trkpt lat="50.03529" lon="2.32786">
        <ele>137.1</ele>
        <time>2023-12-20T15:17:19Z</time>
      </trkpt>
      <trkpt lat="50.03528" lon="2.32785">
        <ele>137.1</ele>
        <time>2023-12-20T15:17:20Z</time>
      </trkpt>
      <trkpt lat="50.03527" lon="2.32784">
        <ele>137</ele>
        <time>2023-12-20T15:17:21Z</time>
      </trkpt>
      <trkpt lat="50.03526" lon="2.32783">
        <ele>137</ele>
        <time>2023-12-20T15:17:23Z</time>
      </trkpt>
      <trkpt lat="50.03525" lon="2.32782">
        <ele>137</ele>
        <time>2023-12-20T15:17:24Z</time>
      </trkpt>
      <trkpt lat="50.03524" lon="2.32781">
        <ele>137</ele>
        <time>2023-12-20T15:17:25Z</time>
      </trkpt>
      <trkpt lat="50.03523" lon="2.3278">
        <ele>137</ele>
        <time>2023-12-20T15:17:26Z</time>
      </trkpt>
      <trkpt lat="50.03522" lon="2.32779">
        <ele>137</ele>
        <time>2023-12-20T15:17:27Z</time>
      </trkpt>
      <trkpt lat="50.03521" lon="2.32778">
        <ele>137</ele>
        <time>2023-12-20T15:17:28Z</time>
      </trkpt>
      <trkpt lat="50.03521" lon="2.32777">
        <ele>137</ele>
        <time>2023-12-20T15:17:29Z</time>
      </trkpt>
      <trkpt lat="50.0352" lon="2.32776">
        <ele>137</ele>
        <time>2023-12-20T15:17:31Z</time>
      </trkpt>
      <trkpt lat="50.03519" lon="2.32776">
        <ele>136.9</ele>
        <time>2023-12-20T15:17:32Z</time>
      </trkpt>
      <trkpt lat="50.03518" lon="2.32775">
        <ele>136.9</ele>
        <time>2023-12-20T15:17:33Z</time>
      </trkpt>
      <trkpt lat="50.03517" lon="2.32774">
        <ele>136.9</ele>
        <time>2023-12-20T15:17:34Z</time>
      </trkpt>
      <trkpt lat="50.03516" lon="2.32773">
        <ele>136.9</ele>
        <time>2023-12-20T15:17:35Z</time>
      </trkpt>
      <trkpt lat="50.03516" lon="2.32772">
        <ele>136.9</ele>
        <time>2023-12-20T15:17:36Z</time>
      </trkpt>
      <trkpt lat="50.03515" lon="2.32771">
        <ele>136.9</ele>
        <time>2023-12-20T15:17:37Z</time>
      </trkpt>
      <trkpt lat="50.03514" lon="2.32771">
        <ele>136.9</ele>
        <time>2023-12-20T15:17:38Z</time>
      </trkpt>
      <trkpt lat="50.03513" lon="2.3277">
        <ele>136.9</ele>
        <time>2023-12-20T15:17:39Z</time>
      </trkpt>
      <trkpt lat="50.03512" lon="2.3277">
        <ele>136.9</ele>
        <time>2023-12-20T15:17:41Z</time>
      </trkpt>
      <trkpt lat="50.03512" lon="2.32769">
        <ele>136.9</ele>
        <time>2023-12-20T15:17:42Z</time>
      </trkpt>
      <trkpt lat="50.03511" lon="2.32768">
        <ele>136.9</ele>
        <time>2023-12-20T15:17:43Z</time>
      </trkpt>
      <trkpt lat="50.0351" lon="2.32768">
        <ele>136.8</ele>
        <time>2023-12-20T15:17:44Z</time>
      </trkpt>
      <trkpt lat="50.03509" lon="2.32767">
        <ele>136.8</ele>
        <time>2023-12-20T15:17:45Z</time>
      </trkpt>
      <trkpt lat="50.03508" lon="2.32766">
        <ele>136.8</ele>
        <time>2023-12-20T15:17:46Z</time>
      </trkpt>
      <trkpt lat="50.03506" lon="2.32766">
        <ele>136.8</ele>
        <time>2023-12-20T15:17:48Z</time>
      </trkpt>
      <trkpt lat="50.03505" lon="2.32765">
        <ele>136.8</ele>
        <time>2023-12-20T15:17:49Z</time>
      </trkpt>
      <trkpt lat="50.03504" lon="2.32764">
        <ele>136.8</ele>
        <time>2023-12-20T15:17:50Z</time>
      </trkpt>
      <trkpt lat="50.03503" lon="2.32763">
        <ele>136.8</ele>
        <time>2023-12-20T15:17:51Z</time>
      </trkpt>
      <trkpt lat="50.03501" lon="2.32762">
        <ele>136.8</ele>
        <time>2023-12-20T15:17:52Z</time>
      </trkpt>
      <trkpt lat="50.035" lon="2.32761">
        <ele>136.8</ele>
        <time>2023-12-20T15:17:53Z</time>
      </trkpt>
      <trkpt lat="50.03498" lon="2.3276">
        <ele>136.7</ele>
        <time>2023-12-20T15:17:54Z</time>
      </trkpt>
      <trkpt lat="50.03497" lon="2.32759">
        <ele>136.7</ele>
        <time>2023-12-20T15:17:56Z</time>
      </trkpt>
      <trkpt lat="50.03495" lon="2.32758">
        <ele>136.7</ele>
        <time>2023-12-20T15:17:57Z</time>
      </trkpt>
      <trkpt lat="50.03494" lon="2.32757">
        <ele>136.7</ele>
        <time>2023-12-20T15:17:58Z</time>
      </trkpt>
      <trkpt lat="50.03492" lon="2.32756">
        <ele>136.7</ele>
        <time>2023-12-20T15:17:59Z</time>
      </trkpt>
      <trkpt lat="50.0349" lon="2.32755">
        <ele>136.6</ele>
        <time>2023-12-20T15:18:01Z</time>
      </trkpt>
      <trkpt lat="50.03488" lon="2.32753">
        <ele>136.6</ele>
        <time>2023-12-20T15:18:02Z</time>
      </trkpt>
      <trkpt lat="50.03488" lon="2.32753">
        <ele>136.6</ele>
        <time>2023-12-20T15:18:03Z</time>
      </trkpt>
      <trkpt lat="50.03487" lon="2.32752">
        <ele>136.6</ele>
        <time>2023-12-20T15:18:04Z</time>
      </trkpt>
      <trkpt lat="50.03486" lon="2.32752">
        <ele>136.6</ele>
        <time>2023-12-20T15:18:05Z</time>
      </trkpt>
      <trkpt lat="50.03485" lon="2.32751">
        <ele>136.5</ele>
        <time>2023-12-20T15:18:06Z</time>
      </trkpt>
      <trkpt lat="50.03483" lon="2.3275">
        <ele>136.5</ele>
        <time>2023-12-20T15:18:07Z</time>
      </trkpt>
      <trkpt lat="50.03482" lon="2.32749">
        <ele>136.5</ele>
        <time>2023-12-20T15:18:08Z</time>
      </trkpt>
      <trkpt lat="50.03481" lon="2.32749">
        <ele>136.5</ele>
        <time>2023-12-20T15:18:10Z</time>
      </trkpt>
      <trkpt lat="50.0348" lon="2.32748">
        <ele>136.5</ele>
        <time>2023-12-20T15:18:11Z</time>
      </trkpt>
      <trkpt lat="50.03479" lon="2.32748">
        <ele>136.4</ele>
        <time>2023-12-20T15:18:12Z</time>
      </trkpt>
      <trkpt lat="50.03478" lon="2.32747">
        <ele>136.4</ele>
        <time>2023-12-20T15:18:13Z</time>
      </trkpt>
      <trkpt lat="50.03477" lon="2.32747">
        <ele>136.4</ele>
        <time>2023-12-20T15:18:14Z</time>
      </trkpt>
      <trkpt lat="50.03476" lon="2.32746">
        <ele>136.4</ele>
        <time>2023-12-20T15:18:15Z</time>
      </trkpt>
      <trkpt lat="50.03475" lon="2.32746">
        <ele>136.4</ele>
        <time>2023-12-20T15:18:16Z</time>
      </trkpt>
      <trkpt lat="50.03474" lon="2.32745">
        <ele>136.3</ele>
        <time>2023-12-20T15:18:17Z</time>
      </trkpt>
      <trkpt lat="50.03473" lon="2.32745">
        <ele>136.3</ele>
        <time>2023-12-20T15:18:19Z</time>
      </trkpt>
      <trkpt lat="50.03472" lon="2.32745">
        <ele>136.3</ele>
        <time>2023-12-20T15:18:20Z</time>
      </trkpt>
      <trkpt lat="50.03471" lon="2.32745">
        <ele>136.3</ele>
        <time>2023-12-20T15:18:21Z</time>
      </trkpt>
      <trkpt lat="50.03468" lon="2.32744">
        <ele>136.3</ele>
        <time>2023-12-20T15:18:22Z</time>
      </trkpt>
      <trkpt lat="50.03468" lon="2.32744">
        <ele>136.2</ele>
        <time>2023-12-20T15:18:23Z</time>
      </trkpt>
      <trkpt lat="50.03467" lon="2.32744">
        <ele>136.2</ele>
        <time>2023-12-20T15:18:24Z</time>
      </trkpt>
      <trkpt lat="50.03466" lon="2.32744">
        <ele>136.2</ele>
        <time>2023-12-20T15:18:25Z</time>
      </trkpt>
      <trkpt lat="50.03464" lon="2.32744">
        <ele>136.2</ele>
        <time>2023-12-20T15:18:26Z</time>
      </trkpt>
      <trkpt lat="50.03463" lon="2.32743">
        <ele>136.2</ele>
        <time>2023-12-20T15:18:28Z</time>
      </trkpt>
      <trkpt lat="50.03461" lon="2.32743">
        <ele>136.2</ele>
        <time>2023-12-20T15:18:29Z</time>
      </trkpt>
      <trkpt lat="50.0346" lon="2.32742">
        <ele>136.1</ele>
        <time>2023-12-20T15:18:30Z</time>
      </trkpt>
      <trkpt lat="50.03459" lon="2.32742">
        <ele>136.1</ele>
        <time>2023-12-20T15:18:31Z</time>
      </trkpt>
      <trkpt lat="50.03459" lon="2.32742">
        <ele>136.1</ele>
        <time>2023-12-20T15:18:32Z</time>
      </trkpt>
      <trkpt lat="50.03458" lon="2.32742">
        <ele>136.1</ele>
        <time>2023-12-20T15:18:33Z</time>
      </trkpt>
      <trkpt lat="50.03457" lon="2.32742">
        <ele>136.1</ele>
        <time>2023-12-20T15:18:34Z</time>
      </trkpt>
      <trkpt lat="50.03456" lon="2.32741">
        <ele>136.1</ele>
        <time>2023-12-20T15:18:35Z</time>
      </trkpt>
      <trkpt lat="50.03455" lon="2.32741">
        <ele>136.1</ele>
        <time>2023-12-20T15:18:36Z</time>
      </trkpt>
      <trkpt lat="50.03454" lon="2.32741">
        <ele>136.1</ele>
        <time>2023-12-20T15:18:38Z</time>
      </trkpt>
      <trkpt lat="50.03453" lon="2.3274">
        <ele>136</ele>
        <time>2023-12-20T15:18:39Z</time>
      </trkpt>
      <trkpt lat="50.03452" lon="2.3274">
        <ele>136</ele>
        <time>2023-12-20T15:18:40Z</time>
      </trkpt>
      <trkpt lat="50.03451" lon="2.32739">
        <ele>136</ele>
        <time>2023-12-20T15:18:41Z</time>
      </trkpt>
      <trkpt lat="50.03449" lon="2.32739">
        <ele>136</ele>
        <time>2023-12-20T15:18:42Z</time>
      </trkpt>
      <trkpt lat="50.03448" lon="2.32738">
        <ele>136</ele>
        <time>2023-12-20T15:18:43Z</time>
      </trkpt>
      <trkpt lat="50.03448" lon="2.32739">
        <ele>136</ele>
        <time>2023-12-20T15:18:44Z</time>
      </trkpt>
      <trkpt lat="50.03447" lon="2.32739">
        <ele>135.9</ele>
        <time>2023-12-20T15:18:45Z</time>
      </trkpt>
      <trkpt lat="50.03445" lon="2.32739">
        <ele>135.9</ele>
        <time>2023-12-20T15:18:46Z</time>
      </trkpt>
      <trkpt lat="50.03445" lon="2.32739">
        <ele>135.9</ele>
        <time>2023-12-20T15:18:47Z</time>
      </trkpt>
      <trkpt lat="50.03444" lon="2.32738">
        <ele>135.9</ele>
        <time>2023-12-20T15:18:49Z</time>
      </trkpt>
      <trkpt lat="50.03443" lon="2.32738">
        <ele>135.9</ele>
        <time>2023-12-20T15:18:50Z</time>
      </trkpt>
      <trkpt lat="50.03441" lon="2.32737">
        <ele>135.8</ele>
        <time>2023-12-20T15:18:51Z</time>
      </trkpt>
      <trkpt lat="50.0344" lon="2.32737">
        <ele>135.8</ele>
        <time>2023-12-20T15:18:52Z</time>
      </trkpt>
      <trkpt lat="50.03439" lon="2.32736">
        <ele>135.8</ele>
        <time>2023-12-20T15:18:53Z</time>
      </trkpt>
      <trkpt lat="50.03438" lon="2.32736">
        <ele>135.8</ele>
        <time>2023-12-20T15:18:54Z</time>
      </trkpt>
      <trkpt lat="50.03436" lon="2.32735">
        <ele>135.7</ele>
        <time>2023-12-20T15:18:55Z</time>
      </trkpt>
      <trkpt lat="50.03435" lon="2.32734">
        <ele>135.7</ele>
        <time>2023-12-20T15:18:57Z</time>
      </trkpt>
      <trkpt lat="50.03434" lon="2.32734">
        <ele>135.7</ele>
        <time>2023-12-20T15:18:58Z</time>
      </trkpt>
      <trkpt lat="50.03433" lon="2.32733">
        <ele>135.7</ele>
        <time>2023-12-20T15:18:59Z</time>
      </trkpt>
      <trkpt lat="50.03432" lon="2.32733">
        <ele>135.7</ele>
        <time>2023-12-20T15:19:00Z</time>
      </trkpt>
      <trkpt lat="50.03431" lon="2.32732">
        <ele>135.6</ele>
        <time>2023-12-20T15:19:01Z</time>
      </trkpt>
      <trkpt lat="50.0343" lon="2.32732">
        <ele>135.6</ele>
        <time>2023-12-20T15:19:02Z</time>
      </trkpt>
      <trkpt lat="50.03429" lon="2.32731">
        <ele>135.6</ele>
        <time>2023-12-20T15:19:04Z</time>
      </trkpt>
      <trkpt lat="50.03428" lon="2.32731">
        <ele>135.6</ele>
        <time>2023-12-20T15:19:05Z</time>
      </trkpt>
      <trkpt lat="50.03427" lon="2.3273">
        <ele>135.6</ele>
        <time>2023-12-20T15:19:06Z</time>
      </trkpt>
      <trkpt lat="50.03426" lon="2.3273">
        <ele>135.6</ele>
        <time>2023-12-20T15:19:07Z</time>
      </trkpt>
      <trkpt lat="50.03425" lon="2.3273">
        <ele>135.5</ele>
        <time>2023-12-20T15:19:08Z</time>
      </trkpt>
      <trkpt lat="50.03424" lon="2.32729">
        <ele>135.5</ele>
        <time>2023-12-20T15:19:09Z</time>
      </trkpt>
      <trkpt lat="50.03423" lon="2.32729">
        <ele>135.5</ele>
        <time>2023-12-20T15:19:10Z</time>
      </trkpt>
      <trkpt lat="50.03423" lon="2.32728">
        <ele>135.5</ele>
        <time>2023-12-20T15:19:12Z</time>
      </trkpt>
      <trkpt lat="50.03422" lon="2.32728">
        <ele>135.5</ele>
        <time>2023-12-20T15:19:13Z</time>
      </trkpt>
      <trkpt lat="50.03421" lon="2.32727">
        <ele>135.5</ele>
        <time>2023-12-20T15:19:14Z</time>
      </trkpt>
      <trkpt lat="50.0342" lon="2.32727">
        <ele>135.4</ele>
        <time>2023-12-20T15:19:15Z</time>
      </trkpt>
      <trkpt lat="50.03419" lon="2.32726">
        <ele>135.4</ele>
        <time>2023-12-20T15:19:16Z</time>
      </trkpt>
      <trkpt lat="50.03418" lon="2.32726">
        <ele>135.4</ele>
        <time>2023-12-20T15:19:17Z</time>
      </trkpt>
      <trkpt lat="50.03417" lon="2.32727">
        <ele>135.4</ele>
        <time>2023-12-20T15:19:18Z</time>
      </trkpt>
      <trkpt lat="50.03416" lon="2.32728">
        <ele>135.4</ele>
        <time>2023-12-20T15:19:19Z</time>
      </trkpt>
      <trkpt lat="50.03416" lon="2.32731">
        <ele>135.4</ele>
        <time>2023-12-20T15:19:21Z</time>
      </trkpt>
      <trkpt lat="50.03415" lon="2.32733">
        <ele>135.4</ele>
        <time>2023-12-20T15:19:22Z</time>
      </trkpt>
      <trkpt lat="50.03415" lon="2.32736">
        <ele>135.4</ele>
        <time>2023-12-20T15:19:23Z</time>
      </trkpt>
      <trkpt lat="50.03414" lon="2.32738">
        <ele>135.4</ele>
        <time>2023-12-20T15:19:24Z</time>
      </trkpt>
      <trkpt lat="50.03414" lon="2.3274">
        <ele>135.4</ele>
        <time>2023-12-20T15:19:26Z</time>
      </trkpt>
      <trkpt lat="50.03413" lon="2.32742">
        <ele>135.4</ele>
        <time>2023-12-20T15:19:27Z</time>
      </trkpt>
      <trkpt lat="50.03413" lon="2.32744">
        <ele>135.4</ele>
        <time>2023-12-20T15:19:28Z</time>
      </trkpt>
      <trkpt lat="50.03412" lon="2.32745">
        <ele>135.4</ele>
        <time>2023-12-20T15:19:29Z</time>
      </trkpt>
      <trkpt lat="50.03411" lon="2.32747">
        <ele>135.4</ele>
        <time>2023-12-20T15:19:30Z</time>
      </trkpt>
      <trkpt lat="50.0341" lon="2.32748">
        <ele>135.4</ele>
        <time>2023-12-20T15:19:31Z</time>
      </trkpt>
      <trkpt lat="50.0341" lon="2.3275">
        <ele>135.4</ele>
        <time>2023-12-20T15:19:32Z</time>
      </trkpt>
      <trkpt lat="50.03409" lon="2.32751">
        <ele>135.4</ele>
        <time>2023-12-20T15:19:33Z</time>
      </trkpt>
      <trkpt lat="50.03408" lon="2.32753">
        <ele>135.4</ele>
        <time>2023-12-20T15:19:34Z</time>
      </trkpt>
      <trkpt lat="50.03408" lon="2.32754">
        <ele>135.4</ele>
        <time>2023-12-20T15:19:36Z</time>
      </trkpt>
      <trkpt lat="50.03407" lon="2.32756">
        <ele>135.4</ele>
        <time>2023-12-20T15:19:37Z</time>
      </trkpt>
      <trkpt lat="50.03406" lon="2.32758">
        <ele>135.4</ele>
        <time>2023-12-20T15:19:38Z</time>
      </trkpt>
      <trkpt lat="50.03405" lon="2.3276">
        <ele>135.4</ele>
        <time>2023-12-20T15:19:39Z</time>
      </trkpt>
      <trkpt lat="50.03405" lon="2.32762">
        <ele>135.4</ele>
        <time>2023-12-20T15:19:40Z</time>
      </trkpt>
      <trkpt lat="50.03404" lon="2.32764">
        <ele>135.4</ele>
        <time>2023-12-20T15:19:41Z</time>
      </trkpt>
      <trkpt lat="50.03404" lon="2.32766">
        <ele>135.4</ele>
        <time>2023-12-20T15:19:42Z</time>
      </trkpt>
      <trkpt lat="50.03403" lon="2.32768">
        <ele>135.4</ele>
        <time>2023-12-20T15:19:43Z</time>
      </trkpt>
      <trkpt lat="50.03403" lon="2.3277">
        <ele>135.4</ele>
        <time>2023-12-20T15:19:44Z</time>
      </trkpt>
      <trkpt lat="50.03403" lon="2.32772">
        <ele>135.4</ele>
        <time>2023-12-20T15:19:45Z</time>
      </trkpt>
      <trkpt lat="50.03402" lon="2.32774">
        <ele>135.4</ele>
        <time>2023-12-20T15:19:47Z</time>
      </trkpt>
      <trkpt lat="50.03402" lon="2.32776">
        <ele>135.4</ele>
        <time>2023-12-20T15:19:48Z</time>
      </trkpt>
      <trkpt lat="50.03402" lon="2.32779">
        <ele>135.4</ele>
        <time>2023-12-20T15:19:49Z</time>
      </trkpt>
      <trkpt lat="50.03401" lon="2.32781">
        <ele>135.4</ele>
        <time>2023-12-20T15:19:50Z</time>
      </trkpt>
      <trkpt lat="50.03401" lon="2.32783">
        <ele>135.4</ele>
        <time>2023-12-20T15:19:52Z</time>
      </trkpt>
      <trkpt lat="50.03401" lon="2.32785">
        <ele>135.4</ele>
        <time>2023-12-20T15:19:53Z</time>
      </trkpt>
      <trkpt lat="50.03401" lon="2.32788">
        <ele>135.4</ele>
        <time>2023-12-20T15:19:54Z</time>
      </trkpt>
      <trkpt lat="50.034" lon="2.3279">
        <ele>135.4</ele>
        <time>2023-12-20T15:19:55Z</time>
      </trkpt>
      <trkpt lat="50.034" lon="2.32791">
        <ele>135.4</ele>
        <time>2023-12-20T15:19:56Z</time>
      </trkpt>
      <trkpt lat="50.034" lon="2.32793">
        <ele>135.4</ele>
        <time>2023-12-20T15:19:57Z</time>
      </trkpt>
      <trkpt lat="50.03401" lon="2.32795">
        <ele>135.4</ele>
        <time>2023-12-20T15:19:58Z</time>
      </trkpt>
      <trkpt lat="50.03401" lon="2.32797">
        <ele>135.4</ele>
        <time>2023-12-20T15:19:59Z</time>
      </trkpt>
      <trkpt lat="50.03401" lon="2.32799">
        <ele>135.4</ele>
        <time>2023-12-20T15:20:00Z</time>
      </trkpt>
      <trkpt lat="50.03401" lon="2.328">
        <ele>135.4</ele>
        <time>2023-12-20T15:20:01Z</time>
      </trkpt>
      <trkpt lat="50.03401" lon="2.32802">
        <ele>135.4</ele>
        <time>2023-12-20T15:20:03Z</time>
      </trkpt>
      <trkpt lat="50.03401" lon="2.32804">
        <ele>135.5</ele>
        <time>2023-12-20T15:20:04Z</time>
      </trkpt>
      <trkpt lat="50.03401" lon="2.32806">
        <ele>135.5</ele>
        <time>2023-12-20T15:20:05Z</time>
      </trkpt>
      <trkpt lat="50.03401" lon="2.32809">
        <ele>135.5</ele>
        <time>2023-12-20T15:20:06Z</time>
      </trkpt>
      <trkpt lat="50.03402" lon="2.3281">
        <ele>135.5</ele>
        <time>2023-12-20T15:20:07Z</time>
      </trkpt>
      <trkpt lat="50.03402" lon="2.32811">
        <ele>135.5</ele>
        <time>2023-12-20T15:20:08Z</time>
      </trkpt>
      <trkpt lat="50.03402" lon="2.32815">
        <ele>135.5</ele>
        <time>2023-12-20T15:20:09Z</time>
      </trkpt>
      <trkpt lat="50.03403" lon="2.32816">
        <ele>135.5</ele>
        <time>2023-12-20T15:20:10Z</time>
      </trkpt>
      <trkpt lat="50.03403" lon="2.32817">
        <ele>135.5</ele>
        <time>2023-12-20T15:20:11Z</time>
      </trkpt>
      <trkpt lat="50.03403" lon="2.3282">
        <ele>135.5</ele>
        <time>2023-12-20T15:20:13Z</time>
      </trkpt>
      <trkpt lat="50.03404" lon="2.32822">
        <ele>135.5</ele>
        <time>2023-12-20T15:20:15Z</time>
      </trkpt>
      <trkpt lat="50.03404" lon="2.32824">
        <ele>135.5</ele>
        <time>2023-12-20T15:20:16Z</time>
      </trkpt>
      <trkpt lat="50.03404" lon="2.32826">
        <ele>135.5</ele>
        <time>2023-12-20T15:20:17Z</time>
      </trkpt>
      <trkpt lat="50.03404" lon="2.32828">
        <ele>135.5</ele>
        <time>2023-12-20T15:20:18Z</time>
      </trkpt>
      <trkpt lat="50.03404" lon="2.32831">
        <ele>135.5</ele>
        <time>2023-12-20T15:20:19Z</time>
      </trkpt>
      <trkpt lat="50.03404" lon="2.32834">
        <ele>135.5</ele>
        <time>2023-12-20T15:20:20Z</time>
      </trkpt>
      <trkpt lat="50.03404" lon="2.32835">
        <ele>135.5</ele>
        <time>2023-12-20T15:20:21Z</time>
      </trkpt>
      <trkpt lat="50.03404" lon="2.32836">
        <ele>135.5</ele>
        <time>2023-12-20T15:20:22Z</time>
      </trkpt>
      <trkpt lat="50.03404" lon="2.32838">
        <ele>135.5</ele>
        <time>2023-12-20T15:20:23Z</time>
      </trkpt>
      <trkpt lat="50.03404" lon="2.3284">
        <ele>135.5</ele>
        <time>2023-12-20T15:20:24Z</time>
      </trkpt>
      <trkpt lat="50.03404" lon="2.32842">
        <ele>135.5</ele>
        <time>2023-12-20T15:20:26Z</time>
      </trkpt>
      <trkpt lat="50.03404" lon="2.32844">
        <ele>135.5</ele>
        <time>2023-12-20T15:20:27Z</time>
      </trkpt>
      <trkpt lat="50.03404" lon="2.32846">
        <ele>135.5</ele>
        <time>2023-12-20T15:20:28Z</time>
      </trkpt>
      <trkpt lat="50.03404" lon="2.32848">
        <ele>135.6</ele>
        <time>2023-12-20T15:20:29Z</time>
      </trkpt>
      <trkpt lat="50.03404" lon="2.3285">
        <ele>135.6</ele>
        <time>2023-12-20T15:20:30Z</time>
      </trkpt>
      <trkpt lat="50.03403" lon="2.32854">
        <ele>135.6</ele>
        <time>2023-12-20T15:20:32Z</time>
      </trkpt>
      <trkpt lat="50.03403" lon="2.32856">
        <ele>135.6</ele>
        <time>2023-12-20T15:20:34Z</time>
      </trkpt>
      <trkpt lat="50.03402" lon="2.32858">
        <ele>135.6</ele>
        <time>2023-12-20T15:20:35Z</time>
      </trkpt>
      <trkpt lat="50.03401" lon="2.3286">
        <ele>135.6</ele>
        <time>2023-12-20T15:20:36Z</time>
      </trkpt>
      <trkpt lat="50.03401" lon="2.32862">
        <ele>135.6</ele>
        <time>2023-12-20T15:20:37Z</time>
      </trkpt>
      <trkpt lat="50.034" lon="2.32864">
        <ele>135.6</ele>
        <time>2023-12-20T15:20:38Z</time>
      </trkpt>
      <trkpt lat="50.034" lon="2.32866">
        <ele>135.6</ele>
        <time>2023-12-20T15:20:39Z</time>
      </trkpt>
      <trkpt lat="50.034" lon="2.32868">
        <ele>135.6</ele>
        <time>2023-12-20T15:20:40Z</time>
      </trkpt>
      <trkpt lat="50.03399" lon="2.32871">
        <ele>135.6</ele>
        <time>2023-12-20T15:20:41Z</time>
      </trkpt>
      <trkpt lat="50.03399" lon="2.32873">
        <ele>135.6</ele>
        <time>2023-12-20T15:20:43Z</time>
      </trkpt>
      <trkpt lat="50.03399" lon="2.32875">
        <ele>135.6</ele>
        <time>2023-12-20T15:20:44Z</time>
      </trkpt>
      <trkpt lat="50.03399" lon="2.32877">
        <ele>135.6</ele>
        <time>2023-12-20T15:20:45Z</time>
      </trkpt>
      <trkpt lat="50.03399" lon="2.3288">
        <ele>135.6</ele>
        <time>2023-12-20T15:20:46Z</time>
      </trkpt>
      <trkpt lat="50.03398" lon="2.32882">
        <ele>135.6</ele>
        <time>2023-12-20T15:20:47Z</time>
      </trkpt>
      <trkpt lat="50.03398" lon="2.32884">
        <ele>135.6</ele>
        <time>2023-12-20T15:20:48Z</time>
      </trkpt>
      <trkpt lat="50.03398" lon="2.32886">
        <ele>135.6</ele>
        <time>2023-12-20T15:20:49Z</time>
      </trkpt>
      <trkpt lat="50.03398" lon="2.32887">
        <ele>135.6</ele>
        <time>2023-12-20T15:20:51Z</time>
      </trkpt>
      <trkpt lat="50.03398" lon="2.32891">
        <ele>135.6</ele>
        <time>2023-12-20T15:20:52Z</time>
      </trkpt>
      <trkpt lat="50.03397" lon="2.32892">
        <ele>135.6</ele>
        <time>2023-12-20T15:20:53Z</time>
      </trkpt>
      <trkpt lat="50.03397" lon="2.32893">
        <ele>135.6</ele>
        <time>2023-12-20T15:20:54Z</time>
      </trkpt>
      <trkpt lat="50.03398" lon="2.32897">
        <ele>135.6</ele>
        <time>2023-12-20T15:20:55Z</time>
      </trkpt>
      <trkpt lat="50.03398" lon="2.32898">
        <ele>135.6</ele>
        <time>2023-12-20T15:20:56Z</time>
      </trkpt>
      <trkpt lat="50.03398" lon="2.32899">
        <ele>135.6</ele>
        <time>2023-12-20T15:20:57Z</time>
      </trkpt>
      <trkpt lat="50.03398" lon="2.32901">
        <ele>135.6</ele>
        <time>2023-12-20T15:20:58Z</time>
      </trkpt>
      <trkpt lat="50.03399" lon="2.32903">
        <ele>135.6</ele>
        <time>2023-12-20T15:20:59Z</time>
      </trkpt>
      <trkpt lat="50.03399" lon="2.32904">
        <ele>135.6</ele>
        <time>2023-12-20T15:21:01Z</time>
      </trkpt>
      <trkpt lat="50.03399" lon="2.32906">
        <ele>135.6</ele>
        <time>2023-12-20T15:21:02Z</time>
      </trkpt>
      <trkpt lat="50.03399" lon="2.32908">
        <ele>135.6</ele>
        <time>2023-12-20T15:21:03Z</time>
      </trkpt>
      <trkpt lat="50.034" lon="2.32909">
        <ele>135.6</ele>
        <time>2023-12-20T15:21:04Z</time>
      </trkpt>
      <trkpt lat="50.034" lon="2.32913">
        <ele>135.6</ele>
        <time>2023-12-20T15:21:05Z</time>
      </trkpt>
      <trkpt lat="50.03401" lon="2.32914">
        <ele>135.6</ele>
        <time>2023-12-20T15:21:06Z</time>
      </trkpt>
      <trkpt lat="50.03401" lon="2.32915">
        <ele>135.6</ele>
        <time>2023-12-20T15:21:07Z</time>
      </trkpt>
      <trkpt lat="50.03401" lon="2.32917">
        <ele>135.6</ele>
        <time>2023-12-20T15:21:08Z</time>
      </trkpt>
      <trkpt lat="50.03401" lon="2.32919">
        <ele>135.6</ele>
        <time>2023-12-20T15:21:09Z</time>
      </trkpt>
      <trkpt lat="50.03402" lon="2.32921">
        <ele>135.6</ele>
        <time>2023-12-20T15:21:11Z</time>
      </trkpt>
      <trkpt lat="50.03402" lon="2.32923">
        <ele>135.6</ele>
        <time>2023-12-20T15:21:12Z</time>
      </trkpt>
      <trkpt lat="50.03402" lon="2.32925">
        <ele>135.6</ele>
        <time>2023-12-20T15:21:13Z</time>
      </trkpt>
      <trkpt lat="50.03402" lon="2.32926">
        <ele>135.6</ele>
        <time>2023-12-20T15:21:15Z</time>
      </trkpt>
      <trkpt lat="50.03402" lon="2.32929">
        <ele>135.7</ele>
        <time>2023-12-20T15:21:16Z</time>
      </trkpt>
      <trkpt lat="50.03402" lon="2.32931">
        <ele>135.7</ele>
        <time>2023-12-20T15:21:17Z</time>
      </trkpt>
      <trkpt lat="50.03403" lon="2.32934">
        <ele>135.7</ele>
        <time>2023-12-20T15:21:18Z</time>
      </trkpt>
      <trkpt lat="50.03403" lon="2.32935">
        <ele>135.7</ele>
        <time>2023-12-20T15:21:19Z</time>
      </trkpt>
      <trkpt lat="50.03403" lon="2.32937">
        <ele>135.7</ele>
        <time>2023-12-20T15:21:20Z</time>
      </trkpt>
      <trkpt lat="50.03404" lon="2.32938">
        <ele>135.7</ele>
        <time>2023-12-20T15:21:22Z</time>
      </trkpt>
      <trkpt lat="50.03404" lon="2.3294">
        <ele>135.7</ele>
        <time>2023-12-20T15:21:23Z</time>
      </trkpt>
      <trkpt lat="50.03404" lon="2.32942">
        <ele>135.7</ele>
        <time>2023-12-20T15:21:24Z</time>
      </trkpt>
      <trkpt lat="50.03405" lon="2.32943">
        <ele>135.7</ele>
        <time>2023-12-20T15:21:25Z</time>
      </trkpt>
      <trkpt lat="50.03405" lon="2.32945">
        <ele>135.7</ele>
        <time>2023-12-20T15:21:26Z</time>
      </trkpt>
      <trkpt lat="50.03405" lon="2.32946">
        <ele>135.7</ele>
        <time>2023-12-20T15:21:27Z</time>
      </trkpt>
      <trkpt lat="50.03405" lon="2.32948">
        <ele>135.7</ele>
        <time>2023-12-20T15:21:28Z</time>
      </trkpt>
      <trkpt lat="50.03404" lon="2.32949">
        <ele>135.7</ele>
        <time>2023-12-20T15:21:30Z</time>
      </trkpt>
      <trkpt lat="50.03403" lon="2.32951">
        <ele>135.7</ele>
        <time>2023-12-20T15:21:31Z</time>
      </trkpt>
      <trkpt lat="50.03403" lon="2.32952">
        <ele>135.7</ele>
        <time>2023-12-20T15:21:32Z</time>
      </trkpt>
      <trkpt lat="50.03403" lon="2.32954">
        <ele>135.7</ele>
        <time>2023-12-20T15:21:33Z</time>
      </trkpt>
      <trkpt lat="50.03402" lon="2.32955">
        <ele>135.7</ele>
        <time>2023-12-20T15:21:34Z</time>
      </trkpt>
      <trkpt lat="50.03402" lon="2.32957">
        <ele>135.7</ele>
        <time>2023-12-20T15:21:35Z</time>
      </trkpt>
      <trkpt lat="50.03402" lon="2.32958">
        <ele>135.7</ele>
        <time>2023-12-20T15:21:37Z</time>
      </trkpt>
      <trkpt lat="50.03402" lon="2.32959">
        <ele>135.7</ele>
        <time>2023-12-20T15:21:38Z</time>
      </trkpt>
      <trkpt lat="50.03402" lon="2.32961">
        <ele>135.7</ele>
        <time>2023-12-20T15:21:39Z</time>
      </trkpt>
      <trkpt lat="50.03402" lon="2.32962">
        <ele>135.7</ele>
        <time>2023-12-20T15:21:40Z</time>
      </trkpt>
      <trkpt lat="50.03403" lon="2.32964">
        <ele>135.7</ele>
        <time>2023-12-20T15:21:41Z</time>
      </trkpt>
      <trkpt lat="50.03403" lon="2.32965">
        <ele>135.7</ele>
        <time>2023-12-20T15:21:42Z</time>
      </trkpt>
      <trkpt lat="50.03404" lon="2.32966">
        <ele>135.7</ele>
        <time>2023-12-20T15:21:43Z</time>
      </trkpt>
      <trkpt lat="50.03405" lon="2.32968">
        <ele>135.7</ele>
        <time>2023-12-20T15:21:45Z</time>
      </trkpt>
      <trkpt lat="50.03405" lon="2.32968">
        <ele>135.7</ele>
        <time>2023-12-20T15:21:47Z</time>
      </trkpt>
      <trkpt lat="50.03406" lon="2.32969">
        <ele>135.7</ele>
        <time>2023-12-20T15:21:48Z</time>
      </trkpt>
      <trkpt lat="50.03406" lon="2.3297">
        <ele>135.7</ele>
        <time>2023-12-20T15:21:49Z</time>
      </trkpt>
      <trkpt lat="50.03407" lon="2.32971">
        <ele>135.8</ele>
        <time>2023-12-20T15:21:50Z</time>
      </trkpt>
      <trkpt lat="50.03406" lon="2.32973">
        <ele>135.8</ele>
        <time>2023-12-20T15:21:53Z</time>
      </trkpt>
      <trkpt lat="50.03405" lon="2.32972">
        <ele>135.7</ele>
        <time>2023-12-20T15:21:55Z</time>
      </trkpt>
      <trkpt lat="50.03404" lon="2.32971">
        <ele>135.7</ele>
        <time>2023-12-20T15:21:57Z</time>
      </trkpt>
      <trkpt lat="50.03404" lon="2.3297">
        <ele>135.7</ele>
        <time>2023-12-20T15:21:58Z</time>
      </trkpt>
      <trkpt lat="50.03404" lon="2.3297">
        <ele>135.7</ele>
        <time>2023-12-20T15:22:00Z</time>
      </trkpt>
      <trkpt lat="50.03404" lon="2.3297">
        <ele>135.7</ele>
        <time>2023-12-20T15:22:01Z</time>
      </trkpt>
      <trkpt lat="50.03404" lon="2.3297">
        <ele>135.7</ele>
        <time>2023-12-20T15:22:04Z</time>
      </trkpt>
      <trkpt lat="50.03403" lon="2.3297">
        <ele>135.7</ele>
        <time>2023-12-20T15:22:05Z</time>
      </trkpt>
      <trkpt lat="50.03402" lon="2.32962">
        <ele>135.5</ele>
        <time>2023-12-20T15:22:39Z</time>
      </trkpt>
      <trkpt lat="50.03401" lon="2.32962">
        <ele>135.5</ele>
        <time>2023-12-20T15:22:41Z</time>
      </trkpt>
      <trkpt lat="50.03401" lon="2.32963">
        <ele>135.5</ele>
        <time>2023-12-20T15:22:42Z</time>
      </trkpt>
      <trkpt lat="50.034" lon="2.32963">
        <ele>135.5</ele>
        <time>2023-12-20T15:22:43Z</time>
      </trkpt>
      <trkpt lat="50.03398" lon="2.32964">
        <ele>135.4</ele>
        <time>2023-12-20T15:22:44Z</time>
      </trkpt>
      <trkpt lat="50.03397" lon="2.32964">
        <ele>135.4</ele>
        <time>2023-12-20T15:22:45Z</time>
      </trkpt>
      <trkpt lat="50.03395" lon="2.32965">
        <ele>135.3</ele>
        <time>2023-12-20T15:22:46Z</time>
      </trkpt>
      <trkpt lat="50.03393" lon="2.32965">
        <ele>135.3</ele>
        <time>2023-12-20T15:22:48Z</time>
      </trkpt>
      <trkpt lat="50.03392" lon="2.32966">
        <ele>135.2</ele>
        <time>2023-12-20T15:22:49Z</time>
      </trkpt>
      <trkpt lat="50.0339" lon="2.32967">
        <ele>135.2</ele>
        <time>2023-12-20T15:22:50Z</time>
      </trkpt>
      <trkpt lat="50.03389" lon="2.32967">
        <ele>135.2</ele>
        <time>2023-12-20T15:22:51Z</time>
      </trkpt>
      <trkpt lat="50.03387" lon="2.32968">
        <ele>135.1</ele>
        <time>2023-12-20T15:22:52Z</time>
      </trkpt>
      <trkpt lat="50.03386" lon="2.32969">
        <ele>135.1</ele>
        <time>2023-12-20T15:22:53Z</time>
      </trkpt>
      <trkpt lat="50.03384" lon="2.32969">
        <ele>135.1</ele>
        <time>2023-12-20T15:22:54Z</time>
      </trkpt>
      <trkpt lat="50.03383" lon="2.32969">
        <ele>135</ele>
        <time>2023-12-20T15:22:56Z</time>
      </trkpt>
      <trkpt lat="50.03382" lon="2.3297">
        <ele>135</ele>
        <time>2023-12-20T15:22:57Z</time>
      </trkpt>
      <trkpt lat="50.03381" lon="2.3297">
        <ele>135</ele>
        <time>2023-12-20T15:22:58Z</time>
      </trkpt>
      <trkpt lat="50.0338" lon="2.3297">
        <ele>135</ele>
        <time>2023-12-20T15:22:59Z</time>
      </trkpt>
      <trkpt lat="50.03379" lon="2.3297">
        <ele>135</ele>
        <time>2023-12-20T15:23:00Z</time>
      </trkpt>
      <trkpt lat="50.03377" lon="2.3297">
        <ele>134.9</ele>
        <time>2023-12-20T15:23:02Z</time>
      </trkpt>
      <trkpt lat="50.03376" lon="2.32969">
        <ele>134.9</ele>
        <time>2023-12-20T15:23:03Z</time>
      </trkpt>
      <trkpt lat="50.03375" lon="2.32969">
        <ele>134.9</ele>
        <time>2023-12-20T15:23:04Z</time>
      </trkpt>
      <trkpt lat="50.03373" lon="2.32969">
        <ele>134.9</ele>
        <time>2023-12-20T15:23:05Z</time>
      </trkpt>
      <trkpt lat="50.03372" lon="2.32969">
        <ele>134.9</ele>
        <time>2023-12-20T15:23:06Z</time>
      </trkpt>
      <trkpt lat="50.03371" lon="2.32969">
        <ele>134.9</ele>
        <time>2023-12-20T15:23:07Z</time>
      </trkpt>
      <trkpt lat="50.0337" lon="2.32969">
        <ele>134.8</ele>
        <time>2023-12-20T15:23:08Z</time>
      </trkpt>
      <trkpt lat="50.03369" lon="2.32969">
        <ele>134.8</ele>
        <time>2023-12-20T15:23:09Z</time>
      </trkpt>
      <trkpt lat="50.03368" lon="2.32969">
        <ele>134.8</ele>
        <time>2023-12-20T15:23:11Z</time>
      </trkpt>
      <trkpt lat="50.03366" lon="2.32969">
        <ele>134.8</ele>
        <time>2023-12-20T15:23:12Z</time>
      </trkpt>
      <trkpt lat="50.03365" lon="2.32969">
        <ele>134.8</ele>
        <time>2023-12-20T15:23:13Z</time>
      </trkpt>
      <trkpt lat="50.03364" lon="2.32969">
        <ele>134.8</ele>
        <time>2023-12-20T15:23:14Z</time>
      </trkpt>
      <trkpt lat="50.03362" lon="2.32969">
        <ele>134.8</ele>
        <time>2023-12-20T15:23:15Z</time>
      </trkpt>
      <trkpt lat="50.03361" lon="2.32969">
        <ele>134.8</ele>
        <time>2023-12-20T15:23:16Z</time>
      </trkpt>
      <trkpt lat="50.0336" lon="2.32969">
        <ele>134.8</ele>
        <time>2023-12-20T15:23:17Z</time>
      </trkpt>
      <trkpt lat="50.03359" lon="2.3297">
        <ele>134.8</ele>
        <time>2023-12-20T15:23:19Z</time>
      </trkpt>
      <trkpt lat="50.03358" lon="2.3297">
        <ele>134.8</ele>
        <time>2023-12-20T15:23:20Z</time>
      </trkpt>
      <trkpt lat="50.03357" lon="2.32971">
        <ele>134.8</ele>
        <time>2023-12-20T15:23:21Z</time>
      </trkpt>
      <trkpt lat="50.03356" lon="2.32971">
        <ele>134.8</ele>
        <time>2023-12-20T15:23:22Z</time>
      </trkpt>
      <trkpt lat="50.03355" lon="2.32972">
        <ele>134.8</ele>
        <time>2023-12-20T15:23:23Z</time>
      </trkpt>
      <trkpt lat="50.03354" lon="2.32973">
        <ele>134.8</ele>
        <time>2023-12-20T15:23:24Z</time>
      </trkpt>
      <trkpt lat="50.03353" lon="2.32973">
        <ele>134.8</ele>
        <time>2023-12-20T15:23:25Z</time>
      </trkpt>
      <trkpt lat="50.03352" lon="2.32974">
        <ele>134.8</ele>
        <time>2023-12-20T15:23:26Z</time>
      </trkpt>
      <trkpt lat="50.03351" lon="2.32974">
        <ele>134.8</ele>
        <time>2023-12-20T15:23:27Z</time>
      </trkpt>
      <trkpt lat="50.0335" lon="2.32975">
        <ele>134.8</ele>
        <time>2023-12-20T15:23:28Z</time>
      </trkpt>
      <trkpt lat="50.03349" lon="2.32976">
        <ele>134.8</ele>
        <time>2023-12-20T15:23:30Z</time>
      </trkpt>
      <trkpt lat="50.03348" lon="2.32977">
        <ele>134.8</ele>
        <time>2023-12-20T15:23:31Z</time>
      </trkpt>
      <trkpt lat="50.03346" lon="2.32978">
        <ele>134.8</ele>
        <time>2023-12-20T15:23:32Z</time>
      </trkpt>
      <trkpt lat="50.03345" lon="2.32978">
        <ele>134.8</ele>
        <time>2023-12-20T15:23:33Z</time>
      </trkpt>
      <trkpt lat="50.03344" lon="2.32979">
        <ele>134.8</ele>
        <time>2023-12-20T15:23:35Z</time>
      </trkpt>
      <trkpt lat="50.03343" lon="2.32979">
        <ele>134.8</ele>
        <time>2023-12-20T15:23:36Z</time>
      </trkpt>
      <trkpt lat="50.03342" lon="2.32979">
        <ele>134.8</ele>
        <time>2023-12-20T15:23:37Z</time>
      </trkpt>
      <trkpt lat="50.03342" lon="2.3298">
        <ele>134.8</ele>
        <time>2023-12-20T15:23:38Z</time>
      </trkpt>
      <trkpt lat="50.03339" lon="2.3298">
        <ele>134.8</ele>
        <time>2023-12-20T15:23:39Z</time>
      </trkpt>
      <trkpt lat="50.03339" lon="2.3298">
        <ele>134.8</ele>
        <time>2023-12-20T15:23:40Z</time>
      </trkpt>
      <trkpt lat="50.03338" lon="2.3298">
        <ele>134.8</ele>
        <time>2023-12-20T15:23:41Z</time>
      </trkpt>
      <trkpt lat="50.03336" lon="2.3298">
        <ele>134.8</ele>
        <time>2023-12-20T15:23:42Z</time>
      </trkpt>
      <trkpt lat="50.03335" lon="2.3298">
        <ele>134.8</ele>
        <time>2023-12-20T15:23:43Z</time>
      </trkpt>
      <trkpt lat="50.03334" lon="2.3298">
        <ele>134.8</ele>
        <time>2023-12-20T15:23:44Z</time>
      </trkpt>
      <trkpt lat="50.03332" lon="2.32981">
        <ele>134.8</ele>
        <time>2023-12-20T15:23:45Z</time>
      </trkpt>
      <trkpt lat="50.03331" lon="2.32982">
        <ele>134.8</ele>
        <time>2023-12-20T15:23:47Z</time>
      </trkpt>
      <trkpt lat="50.0333" lon="2.32983">
        <ele>134.8</ele>
        <time>2023-12-20T15:23:48Z</time>
      </trkpt>
      <trkpt lat="50.03329" lon="2.32983">
        <ele>134.8</ele>
        <time>2023-12-20T15:23:49Z</time>
      </trkpt>
      <trkpt lat="50.03328" lon="2.32984">
        <ele>134.8</ele>
        <time>2023-12-20T15:23:50Z</time>
      </trkpt>
      <trkpt lat="50.03326" lon="2.32985">
        <ele>134.8</ele>
        <time>2023-12-20T15:23:51Z</time>
      </trkpt>
      <trkpt lat="50.03325" lon="2.32986">
        <ele>134.8</ele>
        <time>2023-12-20T15:23:52Z</time>
      </trkpt>
      <trkpt lat="50.03324" lon="2.32986">
        <ele>134.8</ele>
        <time>2023-12-20T15:23:53Z</time>
      </trkpt>
      <trkpt lat="50.03323" lon="2.32987">
        <ele>134.8</ele>
        <time>2023-12-20T15:23:54Z</time>
      </trkpt>
      <trkpt lat="50.03322" lon="2.32988">
        <ele>134.8</ele>
        <time>2023-12-20T15:23:56Z</time>
      </trkpt>
      <trkpt lat="50.03321" lon="2.32989">
        <ele>134.8</ele>
        <time>2023-12-20T15:23:57Z</time>
      </trkpt>
      <trkpt lat="50.0332" lon="2.32989">
        <ele>134.8</ele>
        <time>2023-12-20T15:23:58Z</time>
      </trkpt>
      <trkpt lat="50.03319" lon="2.3299">
        <ele>134.8</ele>
        <time>2023-12-20T15:23:59Z</time>
      </trkpt>
      <trkpt lat="50.03318" lon="2.32991">
        <ele>134.8</ele>
        <time>2023-12-20T15:24:00Z</time>
      </trkpt>
      <trkpt lat="50.03317" lon="2.32992">
        <ele>134.8</ele>
        <time>2023-12-20T15:24:01Z</time>
      </trkpt>
      <trkpt lat="50.03316" lon="2.32992">
        <ele>134.8</ele>
        <time>2023-12-20T15:24:02Z</time>
      </trkpt>
      <trkpt lat="50.03315" lon="2.32993">
        <ele>134.8</ele>
        <time>2023-12-20T15:24:03Z</time>
      </trkpt>
      <trkpt lat="50.03313" lon="2.32994">
        <ele>134.8</ele>
        <time>2023-12-20T15:24:05Z</time>
      </trkpt>
      <trkpt lat="50.03312" lon="2.32994">
        <ele>134.8</ele>
        <time>2023-12-20T15:24:06Z</time>
      </trkpt>
      <trkpt lat="50.03311" lon="2.32995">
        <ele>134.9</ele>
        <time>2023-12-20T15:24:07Z</time>
      </trkpt>
      <trkpt lat="50.0331" lon="2.32994">
        <ele>134.9</ele>
        <time>2023-12-20T15:24:08Z</time>
      </trkpt>
      <trkpt lat="50.03309" lon="2.32994">
        <ele>134.9</ele>
        <time>2023-12-20T15:24:09Z</time>
      </trkpt>
      <trkpt lat="50.03308" lon="2.32994">
        <ele>134.9</ele>
        <time>2023-12-20T15:24:10Z</time>
      </trkpt>
      <trkpt lat="50.03307" lon="2.32994">
        <ele>134.9</ele>
        <time>2023-12-20T15:24:11Z</time>
      </trkpt>
      <trkpt lat="50.03306" lon="2.32994">
        <ele>134.9</ele>
        <time>2023-12-20T15:24:12Z</time>
      </trkpt>
      <trkpt lat="50.03305" lon="2.32994">
        <ele>134.9</ele>
        <time>2023-12-20T15:24:13Z</time>
      </trkpt>
      <trkpt lat="50.03303" lon="2.32995">
        <ele>134.9</ele>
        <time>2023-12-20T15:24:15Z</time>
      </trkpt>
      <trkpt lat="50.03302" lon="2.32995">
        <ele>134.9</ele>
        <time>2023-12-20T15:24:16Z</time>
      </trkpt>
      <trkpt lat="50.03301" lon="2.32995">
        <ele>134.9</ele>
        <time>2023-12-20T15:24:17Z</time>
      </trkpt>
      <trkpt lat="50.033" lon="2.32995">
        <ele>134.9</ele>
        <time>2023-12-20T15:24:18Z</time>
      </trkpt>
      <trkpt lat="50.03299" lon="2.32994">
        <ele>134.9</ele>
        <time>2023-12-20T15:24:19Z</time>
      </trkpt>
      <trkpt lat="50.03297" lon="2.32994">
        <ele>134.9</ele>
        <time>2023-12-20T15:24:20Z</time>
      </trkpt>
      <trkpt lat="50.03296" lon="2.32994">
        <ele>134.9</ele>
        <time>2023-12-20T15:24:21Z</time>
      </trkpt>
      <trkpt lat="50.03295" lon="2.32994">
        <ele>134.9</ele>
        <time>2023-12-20T15:24:22Z</time>
      </trkpt>
      <trkpt lat="50.03294" lon="2.32994">
        <ele>134.9</ele>
        <time>2023-12-20T15:24:23Z</time>
      </trkpt>
      <trkpt lat="50.03293" lon="2.32995">
        <ele>134.9</ele>
        <time>2023-12-20T15:24:25Z</time>
      </trkpt>
      <trkpt lat="50.03291" lon="2.32995">
        <ele>134.9</ele>
        <time>2023-12-20T15:24:26Z</time>
      </trkpt>
      <trkpt lat="50.0329" lon="2.32995">
        <ele>134.9</ele>
        <time>2023-12-20T15:24:27Z</time>
      </trkpt>
      <trkpt lat="50.03288" lon="2.32996">
        <ele>134.9</ele>
        <time>2023-12-20T15:24:28Z</time>
      </trkpt>
      <trkpt lat="50.03288" lon="2.32997">
        <ele>135</ele>
        <time>2023-12-20T15:24:29Z</time>
      </trkpt>
      <trkpt lat="50.03287" lon="2.32997">
        <ele>135</ele>
        <time>2023-12-20T15:24:30Z</time>
      </trkpt>
      <trkpt lat="50.03285" lon="2.32998">
        <ele>135</ele>
        <time>2023-12-20T15:24:31Z</time>
      </trkpt>
      <trkpt lat="50.03284" lon="2.32998">
        <ele>135</ele>
        <time>2023-12-20T15:24:32Z</time>
      </trkpt>
      <trkpt lat="50.03282" lon="2.32998">
        <ele>135</ele>
        <time>2023-12-20T15:24:34Z</time>
      </trkpt>
      <trkpt lat="50.03281" lon="2.32998">
        <ele>135</ele>
        <time>2023-12-20T15:24:35Z</time>
      </trkpt>
      <trkpt lat="50.0328" lon="2.32998">
        <ele>135</ele>
        <time>2023-12-20T15:24:36Z</time>
      </trkpt>
      <trkpt lat="50.03278" lon="2.32998">
        <ele>135</ele>
        <time>2023-12-20T15:24:37Z</time>
      </trkpt>
      <trkpt lat="50.03277" lon="2.32997">
        <ele>135</ele>
        <time>2023-12-20T15:24:38Z</time>
      </trkpt>
      <trkpt lat="50.03276" lon="2.32997">
        <ele>135</ele>
        <time>2023-12-20T15:24:39Z</time>
      </trkpt>
      <trkpt lat="50.03274" lon="2.32996">
        <ele>135</ele>
        <time>2023-12-20T15:24:40Z</time>
      </trkpt>
      <trkpt lat="50.03273" lon="2.32995">
        <ele>135</ele>
        <time>2023-12-20T15:24:41Z</time>
      </trkpt>
      <trkpt lat="50.03272" lon="2.32994">
        <ele>135</ele>
        <time>2023-12-20T15:24:43Z</time>
      </trkpt>
      <trkpt lat="50.03271" lon="2.32994">
        <ele>135</ele>
        <time>2023-12-20T15:24:44Z</time>
      </trkpt>
      <trkpt lat="50.03271" lon="2.32993">
        <ele>135</ele>
        <time>2023-12-20T15:24:45Z</time>
      </trkpt>
      <trkpt lat="50.0327" lon="2.32992">
        <ele>135</ele>
        <time>2023-12-20T15:24:46Z</time>
      </trkpt>
      <trkpt lat="50.03269" lon="2.32992">
        <ele>135</ele>
        <time>2023-12-20T15:24:47Z</time>
      </trkpt>
      <trkpt lat="50.03268" lon="2.32991">
        <ele>135</ele>
        <time>2023-12-20T15:24:48Z</time>
      </trkpt>
      <trkpt lat="50.03267" lon="2.3299">
        <ele>135</ele>
        <time>2023-12-20T15:24:49Z</time>
      </trkpt>
      <trkpt lat="50.03266" lon="2.32989">
        <ele>135</ele>
        <time>2023-12-20T15:24:50Z</time>
      </trkpt>
      <trkpt lat="50.03265" lon="2.32988">
        <ele>135</ele>
        <time>2023-12-20T15:24:52Z</time>
      </trkpt>
      <trkpt lat="50.03265" lon="2.32987">
        <ele>135</ele>
        <time>2023-12-20T15:24:53Z</time>
      </trkpt>
      <trkpt lat="50.03264" lon="2.32986">
        <ele>135</ele>
        <time>2023-12-20T15:24:54Z</time>
      </trkpt>
      <trkpt lat="50.03263" lon="2.32985">
        <ele>135</ele>
        <time>2023-12-20T15:24:55Z</time>
      </trkpt>
      <trkpt lat="50.03262" lon="2.32984">
        <ele>135</ele>
        <time>2023-12-20T15:24:56Z</time>
      </trkpt>
      <trkpt lat="50.0326" lon="2.32982">
        <ele>135</ele>
        <time>2023-12-20T15:24:57Z</time>
      </trkpt>
      <trkpt lat="50.03259" lon="2.32981">
        <ele>135</ele>
        <time>2023-12-20T15:24:58Z</time>
      </trkpt>
      <trkpt lat="50.03259" lon="2.32981">
        <ele>135</ele>
        <time>2023-12-20T15:24:59Z</time>
      </trkpt>
      <trkpt lat="50.03258" lon="2.3298">
        <ele>135</ele>
        <time>2023-12-20T15:25:01Z</time>
      </trkpt>
      <trkpt lat="50.03257" lon="2.32979">
        <ele>135.1</ele>
        <time>2023-12-20T15:25:02Z</time>
      </trkpt>
      <trkpt lat="50.03256" lon="2.32977">
        <ele>135.1</ele>
        <time>2023-12-20T15:25:03Z</time>
      </trkpt>
      <trkpt lat="50.03255" lon="2.32975">
        <ele>135.1</ele>
        <time>2023-12-20T15:25:04Z</time>
      </trkpt>
      <trkpt lat="50.03254" lon="2.32975">
        <ele>135.1</ele>
        <time>2023-12-20T15:25:05Z</time>
      </trkpt>
      <trkpt lat="50.03254" lon="2.32974">
        <ele>135.1</ele>
        <time>2023-12-20T15:25:06Z</time>
      </trkpt>
      <trkpt lat="50.03253" lon="2.32972">
        <ele>135.1</ele>
        <time>2023-12-20T15:25:07Z</time>
      </trkpt>
      <trkpt lat="50.03252" lon="2.32971">
        <ele>135.1</ele>
        <time>2023-12-20T15:25:08Z</time>
      </trkpt>
      <trkpt lat="50.03251" lon="2.3297">
        <ele>135.1</ele>
        <time>2023-12-20T15:25:10Z</time>
      </trkpt>
      <trkpt lat="50.03249" lon="2.32967">
        <ele>135.1</ele>
        <time>2023-12-20T15:25:11Z</time>
      </trkpt>
      <trkpt lat="50.03249" lon="2.32966">
        <ele>135.1</ele>
        <time>2023-12-20T15:25:12Z</time>
      </trkpt>
      <trkpt lat="50.03248" lon="2.32965">
        <ele>135.1</ele>
        <time>2023-12-20T15:25:13Z</time>
      </trkpt>
      <trkpt lat="50.03247" lon="2.32963">
        <ele>135.1</ele>
        <time>2023-12-20T15:25:14Z</time>
      </trkpt>
      <trkpt lat="50.03246" lon="2.32962">
        <ele>135.1</ele>
        <time>2023-12-20T15:25:15Z</time>
      </trkpt>
      <trkpt lat="50.03246" lon="2.32961">
        <ele>135.1</ele>
        <time>2023-12-20T15:25:16Z</time>
      </trkpt>
      <trkpt lat="50.03245" lon="2.32958">
        <ele>135.1</ele>
        <time>2023-12-20T15:25:18Z</time>
      </trkpt>
      <trkpt lat="50.03245" lon="2.32957">
        <ele>135.1</ele>
        <time>2023-12-20T15:25:19Z</time>
      </trkpt>
      <trkpt lat="50.03244" lon="2.32955">
        <ele>135.1</ele>
        <time>2023-12-20T15:25:20Z</time>
      </trkpt>
      <trkpt lat="50.03244" lon="2.32954">
        <ele>135.1</ele>
        <time>2023-12-20T15:25:21Z</time>
      </trkpt>
      <trkpt lat="50.03243" lon="2.32953">
        <ele>135.1</ele>
        <time>2023-12-20T15:25:22Z</time>
      </trkpt>
      <trkpt lat="50.03242" lon="2.32952">
        <ele>135.1</ele>
        <time>2023-12-20T15:25:23Z</time>
      </trkpt>
      <trkpt lat="50.0324" lon="2.32951">
        <ele>135.1</ele>
        <time>2023-12-20T15:25:24Z</time>
      </trkpt>
      <trkpt lat="50.03239" lon="2.3295">
        <ele>135.1</ele>
        <time>2023-12-20T15:25:26Z</time>
      </trkpt>
      <trkpt lat="50.03238" lon="2.32949">
        <ele>135.1</ele>
        <time>2023-12-20T15:25:27Z</time>
      </trkpt>
      <trkpt lat="50.03236" lon="2.32948">
        <ele>135.1</ele>
        <time>2023-12-20T15:25:28Z</time>
      </trkpt>
      <trkpt lat="50.03235" lon="2.32947">
        <ele>135.1</ele>
        <time>2023-12-20T15:25:29Z</time>
      </trkpt>
      <trkpt lat="50.03235" lon="2.32946">
        <ele>135.1</ele>
        <time>2023-12-20T15:25:30Z</time>
      </trkpt>
      <trkpt lat="50.03233" lon="2.32945">
        <ele>135.1</ele>
        <time>2023-12-20T15:25:31Z</time>
      </trkpt>
      <trkpt lat="50.03232" lon="2.32944">
        <ele>135.1</ele>
        <time>2023-12-20T15:25:32Z</time>
      </trkpt>
      <trkpt lat="50.03232" lon="2.32943">
        <ele>135.1</ele>
        <time>2023-12-20T15:25:33Z</time>
      </trkpt>
      <trkpt lat="50.03231" lon="2.32942">
        <ele>135.2</ele>
        <time>2023-12-20T15:25:35Z</time>
      </trkpt>
      <trkpt lat="50.0323" lon="2.32941">
        <ele>135.2</ele>
        <time>2023-12-20T15:25:36Z</time>
      </trkpt>
      <trkpt lat="50.03229" lon="2.3294">
        <ele>135.2</ele>
        <time>2023-12-20T15:25:37Z</time>
      </trkpt>
      <trkpt lat="50.03227" lon="2.32938">
        <ele>135.2</ele>
        <time>2023-12-20T15:25:38Z</time>
      </trkpt>
      <trkpt lat="50.03226" lon="2.32938">
        <ele>135.2</ele>
        <time>2023-12-20T15:25:39Z</time>
      </trkpt>
      <trkpt lat="50.03226" lon="2.32937">
        <ele>135.2</ele>
        <time>2023-12-20T15:25:40Z</time>
      </trkpt>
      <trkpt lat="50.03224" lon="2.32936">
        <ele>135.2</ele>
        <time>2023-12-20T15:25:41Z</time>
      </trkpt>
      <trkpt lat="50.03223" lon="2.32935">
        <ele>135.2</ele>
        <time>2023-12-20T15:25:43Z</time>
      </trkpt>
      <trkpt lat="50.03222" lon="2.32934">
        <ele>135.2</ele>
        <time>2023-12-20T15:25:44Z</time>
      </trkpt>
      <trkpt lat="50.0322" lon="2.32933">
        <ele>135.2</ele>
        <time>2023-12-20T15:25:45Z</time>
      </trkpt>
      <trkpt lat="50.03219" lon="2.32932">
        <ele>135.2</ele>
        <time>2023-12-20T15:25:46Z</time>
      </trkpt>
      <trkpt lat="50.03219" lon="2.32931">
        <ele>135.2</ele>
        <time>2023-12-20T15:25:47Z</time>
      </trkpt>
      <trkpt lat="50.03217" lon="2.3293">
        <ele>135.3</ele>
        <time>2023-12-20T15:25:48Z</time>
      </trkpt>
      <trkpt lat="50.03216" lon="2.32929">
        <ele>135.3</ele>
        <time>2023-12-20T15:25:49Z</time>
      </trkpt>
      <trkpt lat="50.03215" lon="2.32929">
        <ele>135.3</ele>
        <time>2023-12-20T15:25:50Z</time>
      </trkpt>
      <trkpt lat="50.03214" lon="2.32928">
        <ele>135.3</ele>
        <time>2023-12-20T15:25:52Z</time>
      </trkpt>
      <trkpt lat="50.03212" lon="2.32927">
        <ele>135.3</ele>
        <time>2023-12-20T15:25:53Z</time>
      </trkpt>
      <trkpt lat="50.03211" lon="2.32926">
        <ele>135.3</ele>
        <time>2023-12-20T15:25:54Z</time>
      </trkpt>
      <trkpt lat="50.0321" lon="2.32925">
        <ele>135.3</ele>
        <time>2023-12-20T15:25:55Z</time>
      </trkpt>
      <trkpt lat="50.03209" lon="2.32924">
        <ele>135.3</ele>
        <time>2023-12-20T15:25:56Z</time>
      </trkpt>
      <trkpt lat="50.03208" lon="2.32923">
        <ele>135.3</ele>
        <time>2023-12-20T15:25:57Z</time>
      </trkpt>
      <trkpt lat="50.03206" lon="2.32923">
        <ele>135.3</ele>
        <time>2023-12-20T15:25:59Z</time>
      </trkpt>
      <trkpt lat="50.03205" lon="2.32923">
        <ele>135.3</ele>
        <time>2023-12-20T15:26:00Z</time>
      </trkpt>
      <trkpt lat="50.03204" lon="2.32923">
        <ele>135.3</ele>
        <time>2023-12-20T15:26:01Z</time>
      </trkpt>
      <trkpt lat="50.03203" lon="2.32923">
        <ele>135.3</ele>
        <time>2023-12-20T15:26:02Z</time>
      </trkpt>
      <trkpt lat="50.03201" lon="2.32922">
        <ele>135.4</ele>
        <time>2023-12-20T15:26:03Z</time>
      </trkpt>
      <trkpt lat="50.032" lon="2.32921">
        <ele>135.4</ele>
        <time>2023-12-20T15:26:04Z</time>
      </trkpt>
      <trkpt lat="50.032" lon="2.3292">
        <ele>135.4</ele>
        <time>2023-12-20T15:26:05Z</time>
      </trkpt>
      <trkpt lat="50.03198" lon="2.32918">
        <ele>135.4</ele>
        <time>2023-12-20T15:26:06Z</time>
      </trkpt>
      <trkpt lat="50.03197" lon="2.32917">
        <ele>135.4</ele>
        <time>2023-12-20T15:26:08Z</time>
      </trkpt>
      <trkpt lat="50.03196" lon="2.32917">
        <ele>135.4</ele>
        <time>2023-12-20T15:26:09Z</time>
      </trkpt>
      <trkpt lat="50.03195" lon="2.32915">
        <ele>135.4</ele>
        <time>2023-12-20T15:26:10Z</time>
      </trkpt>
      <trkpt lat="50.03194" lon="2.32914">
        <ele>135.4</ele>
        <time>2023-12-20T15:26:11Z</time>
      </trkpt>
      <trkpt lat="50.03193" lon="2.32913">
        <ele>135.4</ele>
        <time>2023-12-20T15:26:12Z</time>
      </trkpt>
      <trkpt lat="50.03191" lon="2.32912">
        <ele>135.4</ele>
        <time>2023-12-20T15:26:13Z</time>
      </trkpt>
      <trkpt lat="50.03191" lon="2.32911">
        <ele>135.4</ele>
        <time>2023-12-20T15:26:14Z</time>
      </trkpt>
      <trkpt lat="50.0319" lon="2.32911">
        <ele>135.4</ele>
        <time>2023-12-20T15:26:15Z</time>
      </trkpt>
      <trkpt lat="50.03189" lon="2.32909">
        <ele>135.4</ele>
        <time>2023-12-20T15:26:17Z</time>
      </trkpt>
      <trkpt lat="50.03188" lon="2.32907">
        <ele>135.4</ele>
        <time>2023-12-20T15:26:18Z</time>
      </trkpt>
      <trkpt lat="50.03187" lon="2.32906">
        <ele>135.5</ele>
        <time>2023-12-20T15:26:19Z</time>
      </trkpt>
      <trkpt lat="50.03186" lon="2.32904">
        <ele>135.5</ele>
        <time>2023-12-20T15:26:20Z</time>
      </trkpt>
      <trkpt lat="50.03185" lon="2.32903">
        <ele>135.5</ele>
        <time>2023-12-20T15:26:21Z</time>
      </trkpt>
      <trkpt lat="50.03184" lon="2.32901">
        <ele>135.5</ele>
        <time>2023-12-20T15:26:22Z</time>
      </trkpt>
      <trkpt lat="50.03183" lon="2.32899">
        <ele>135.5</ele>
        <time>2023-12-20T15:26:23Z</time>
      </trkpt>
      <trkpt lat="50.03182" lon="2.32898">
        <ele>135.5</ele>
        <time>2023-12-20T15:26:24Z</time>
      </trkpt>
      <trkpt lat="50.03181" lon="2.32896">
        <ele>135.5</ele>
        <time>2023-12-20T15:26:25Z</time>
      </trkpt>
      <trkpt lat="50.0318" lon="2.32895">
        <ele>135.5</ele>
        <time>2023-12-20T15:26:27Z</time>
      </trkpt>
      <trkpt lat="50.03179" lon="2.32893">
        <ele>135.5</ele>
        <time>2023-12-20T15:26:28Z</time>
      </trkpt>
      <trkpt lat="50.03178" lon="2.32892">
        <ele>135.5</ele>
        <time>2023-12-20T15:26:29Z</time>
      </trkpt>
      <trkpt lat="50.03177" lon="2.3289">
        <ele>135.5</ele>
        <time>2023-12-20T15:26:30Z</time>
      </trkpt>
      <trkpt lat="50.03176" lon="2.32888">
        <ele>135.5</ele>
        <time>2023-12-20T15:26:31Z</time>
      </trkpt>
      <trkpt lat="50.03175" lon="2.32886">
        <ele>135.5</ele>
        <time>2023-12-20T15:26:32Z</time>
      </trkpt>
      <trkpt lat="50.03174" lon="2.32885">
        <ele>135.5</ele>
        <time>2023-12-20T15:26:33Z</time>
      </trkpt>
      <trkpt lat="50.03174" lon="2.32884">
        <ele>135.5</ele>
        <time>2023-12-20T15:26:34Z</time>
      </trkpt>
      <trkpt lat="50.03173" lon="2.32881">
        <ele>135.6</ele>
        <time>2023-12-20T15:26:35Z</time>
      </trkpt>
      <trkpt lat="50.03172" lon="2.3288">
        <ele>135.6</ele>
        <time>2023-12-20T15:26:37Z</time>
      </trkpt>
      <trkpt lat="50.03172" lon="2.32879">
        <ele>135.6</ele>
        <time>2023-12-20T15:26:38Z</time>
      </trkpt>
      <trkpt lat="50.03171" lon="2.32876">
        <ele>135.6</ele>
        <time>2023-12-20T15:26:39Z</time>
      </trkpt>
      <trkpt lat="50.0317" lon="2.32875">
        <ele>135.6</ele>
        <time>2023-12-20T15:26:40Z</time>
      </trkpt>
      <trkpt lat="50.03169" lon="2.32874">
        <ele>135.6</ele>
        <time>2023-12-20T15:26:41Z</time>
      </trkpt>
      <trkpt lat="50.03168" lon="2.32872">
        <ele>135.6</ele>
        <time>2023-12-20T15:26:42Z</time>
      </trkpt>
      <trkpt lat="50.03167" lon="2.32871">
        <ele>135.6</ele>
        <time>2023-12-20T15:26:43Z</time>
      </trkpt>
      <trkpt lat="50.03166" lon="2.3287">
        <ele>135.6</ele>
        <time>2023-12-20T15:26:44Z</time>
      </trkpt>
      <trkpt lat="50.03165" lon="2.32869">
        <ele>135.6</ele>
        <time>2023-12-20T15:26:45Z</time>
      </trkpt>
      <trkpt lat="50.03165" lon="2.32868">
        <ele>135.6</ele>
        <time>2023-12-20T15:26:47Z</time>
      </trkpt>
      <trkpt lat="50.03164" lon="2.32867">
        <ele>135.6</ele>
        <time>2023-12-20T15:26:48Z</time>
      </trkpt>
      <trkpt lat="50.03163" lon="2.32866">
        <ele>135.7</ele>
        <time>2023-12-20T15:26:49Z</time>
      </trkpt>
      <trkpt lat="50.03163" lon="2.32864">
        <ele>135.7</ele>
        <time>2023-12-20T15:26:50Z</time>
      </trkpt>
      <trkpt lat="50.03162" lon="2.32863">
        <ele>135.7</ele>
        <time>2023-12-20T15:26:51Z</time>
      </trkpt>
      <trkpt lat="50.03162" lon="2.32861">
        <ele>135.7</ele>
        <time>2023-12-20T15:26:52Z</time>
      </trkpt>
      <trkpt lat="50.03161" lon="2.3286">
        <ele>135.7</ele>
        <time>2023-12-20T15:26:54Z</time>
      </trkpt>
      <trkpt lat="50.0316" lon="2.32859">
        <ele>135.7</ele>
        <time>2023-12-20T15:26:56Z</time>
      </trkpt>
      <trkpt lat="50.03159" lon="2.32858">
        <ele>135.7</ele>
        <time>2023-12-20T15:26:57Z</time>
      </trkpt>
      <trkpt lat="50.03158" lon="2.32857">
        <ele>135.7</ele>
        <time>2023-12-20T15:26:58Z</time>
      </trkpt>
      <trkpt lat="50.03157" lon="2.32856">
        <ele>135.7</ele>
        <time>2023-12-20T15:26:59Z</time>
      </trkpt>
      <trkpt lat="50.03155" lon="2.32856">
        <ele>135.7</ele>
        <time>2023-12-20T15:27:01Z</time>
      </trkpt>
      <trkpt lat="50.03154" lon="2.32856">
        <ele>135.7</ele>
        <time>2023-12-20T15:27:02Z</time>
      </trkpt>
      <trkpt lat="50.03153" lon="2.32855">
        <ele>135.7</ele>
        <time>2023-12-20T15:27:03Z</time>
      </trkpt>
      <trkpt lat="50.03152" lon="2.32855">
        <ele>135.7</ele>
        <time>2023-12-20T15:27:04Z</time>
      </trkpt>
      <trkpt lat="50.03151" lon="2.32854">
        <ele>135.7</ele>
        <time>2023-12-20T15:27:05Z</time>
      </trkpt>
      <trkpt lat="50.0315" lon="2.32854">
        <ele>135.7</ele>
        <time>2023-12-20T15:27:06Z</time>
      </trkpt>
      <trkpt lat="50.03149" lon="2.32853">
        <ele>135.8</ele>
        <time>2023-12-20T15:27:07Z</time>
      </trkpt>
      <trkpt lat="50.03148" lon="2.32853">
        <ele>135.8</ele>
        <time>2023-12-20T15:27:09Z</time>
      </trkpt>
      <trkpt lat="50.03147" lon="2.32852">
        <ele>135.8</ele>
        <time>2023-12-20T15:27:10Z</time>
      </trkpt>
      <trkpt lat="50.03146" lon="2.32851">
        <ele>135.8</ele>
        <time>2023-12-20T15:27:11Z</time>
      </trkpt>
      <trkpt lat="50.03145" lon="2.3285">
        <ele>135.8</ele>
        <time>2023-12-20T15:27:12Z</time>
      </trkpt>
      <trkpt lat="50.03144" lon="2.32849">
        <ele>135.8</ele>
        <time>2023-12-20T15:27:13Z</time>
      </trkpt>
      <trkpt lat="50.03143" lon="2.32848">
        <ele>135.8</ele>
        <time>2023-12-20T15:27:14Z</time>
      </trkpt>
      <trkpt lat="50.03142" lon="2.32848">
        <ele>135.8</ele>
        <time>2023-12-20T15:27:15Z</time>
      </trkpt>
      <trkpt lat="50.03141" lon="2.32847">
        <ele>135.8</ele>
        <time>2023-12-20T15:27:17Z</time>
      </trkpt>
      <trkpt lat="50.0314" lon="2.32846">
        <ele>135.8</ele>
        <time>2023-12-20T15:27:18Z</time>
      </trkpt>
      <trkpt lat="50.03139" lon="2.32845">
        <ele>135.8</ele>
        <time>2023-12-20T15:27:19Z</time>
      </trkpt>
      <trkpt lat="50.03138" lon="2.32845">
        <ele>135.8</ele>
        <time>2023-12-20T15:27:20Z</time>
      </trkpt>
      <trkpt lat="50.03136" lon="2.32845">
        <ele>135.8</ele>
        <time>2023-12-20T15:27:22Z</time>
      </trkpt>
      <trkpt lat="50.03135" lon="2.32844">
        <ele>135.8</ele>
        <time>2023-12-20T15:27:23Z</time>
      </trkpt>
      <trkpt lat="50.03135" lon="2.32843">
        <ele>135.8</ele>
        <time>2023-12-20T15:27:24Z</time>
      </trkpt>
      <trkpt lat="50.03134" lon="2.32842">
        <ele>135.8</ele>
        <time>2023-12-20T15:27:26Z</time>
      </trkpt>
      <trkpt lat="50.03133" lon="2.3284">
        <ele>135.8</ele>
        <time>2023-12-20T15:27:27Z</time>
      </trkpt>
      <trkpt lat="50.03133" lon="2.32837">
        <ele>135.8</ele>
        <time>2023-12-20T15:27:28Z</time>
      </trkpt>
      <trkpt lat="50.03132" lon="2.32836">
        <ele>135.8</ele>
        <time>2023-12-20T15:27:29Z</time>
      </trkpt>
      <trkpt lat="50.03132" lon="2.32835">
        <ele>135.8</ele>
        <time>2023-12-20T15:27:30Z</time>
      </trkpt>
      <trkpt lat="50.03132" lon="2.32833">
        <ele>135.8</ele>
        <time>2023-12-20T15:27:31Z</time>
      </trkpt>
      <trkpt lat="50.03131" lon="2.32831">
        <ele>135.8</ele>
        <time>2023-12-20T15:27:32Z</time>
      </trkpt>
      <trkpt lat="50.03131" lon="2.32829">
        <ele>135.8</ele>
        <time>2023-12-20T15:27:34Z</time>
      </trkpt>
      <trkpt lat="50.0313" lon="2.32827">
        <ele>135.8</ele>
        <time>2023-12-20T15:27:35Z</time>
      </trkpt>
      <trkpt lat="50.03129" lon="2.32825">
        <ele>135.8</ele>
        <time>2023-12-20T15:27:36Z</time>
      </trkpt>
      <trkpt lat="50.03128" lon="2.32823">
        <ele>135.8</ele>
        <time>2023-12-20T15:27:37Z</time>
      </trkpt>
      <trkpt lat="50.03128" lon="2.32822">
        <ele>135.8</ele>
        <time>2023-12-20T15:27:38Z</time>
      </trkpt>
      <trkpt lat="50.03127" lon="2.32819">
        <ele>135.8</ele>
        <time>2023-12-20T15:27:39Z</time>
      </trkpt>
      <trkpt lat="50.03127" lon="2.32817">
        <ele>135.8</ele>
        <time>2023-12-20T15:27:40Z</time>
      </trkpt>
      <trkpt lat="50.03126" lon="2.32816">
        <ele>135.8</ele>
        <time>2023-12-20T15:27:41Z</time>
      </trkpt>
      <trkpt lat="50.03125" lon="2.32814">
        <ele>135.8</ele>
        <time>2023-12-20T15:27:43Z</time>
      </trkpt>
      <trkpt lat="50.03124" lon="2.32812">
        <ele>135.7</ele>
        <time>2023-12-20T15:27:44Z</time>
      </trkpt>
      <trkpt lat="50.03124" lon="2.32811">
        <ele>135.7</ele>
        <time>2023-12-20T15:27:45Z</time>
      </trkpt>
      <trkpt lat="50.03122" lon="2.32809">
        <ele>135.7</ele>
        <time>2023-12-20T15:27:46Z</time>
      </trkpt>
      <trkpt lat="50.03121" lon="2.32809">
        <ele>135.7</ele>
        <time>2023-12-20T15:27:47Z</time>
      </trkpt>
      <trkpt lat="50.0312" lon="2.32808">
        <ele>135.7</ele>
        <time>2023-12-20T15:27:48Z</time>
      </trkpt>
      <trkpt lat="50.03119" lon="2.32807">
        <ele>135.7</ele>
        <time>2023-12-20T15:27:49Z</time>
      </trkpt>
      <trkpt lat="50.03118" lon="2.32806">
        <ele>135.7</ele>
        <time>2023-12-20T15:27:50Z</time>
      </trkpt>
      <trkpt lat="50.03117" lon="2.32805">
        <ele>135.7</ele>
        <time>2023-12-20T15:27:52Z</time>
      </trkpt>
      <trkpt lat="50.03116" lon="2.32802">
        <ele>135.7</ele>
        <time>2023-12-20T15:27:53Z</time>
      </trkpt>
      <trkpt lat="50.03115" lon="2.32801">
        <ele>135.7</ele>
        <time>2023-12-20T15:27:54Z</time>
      </trkpt>
      <trkpt lat="50.03114" lon="2.328">
        <ele>135.7</ele>
        <time>2023-12-20T15:27:55Z</time>
      </trkpt>
      <trkpt lat="50.03113" lon="2.32798">
        <ele>135.7</ele>
        <time>2023-12-20T15:27:56Z</time>
      </trkpt>
      <trkpt lat="50.03112" lon="2.32797">
        <ele>135.7</ele>
        <time>2023-12-20T15:27:57Z</time>
      </trkpt>
      <trkpt lat="50.03112" lon="2.32797">
        <ele>135.7</ele>
        <time>2023-12-20T15:27:58Z</time>
      </trkpt>
      <trkpt lat="50.03111" lon="2.32795">
        <ele>135.6</ele>
        <time>2023-12-20T15:27:59Z</time>
      </trkpt>
      <trkpt lat="50.0311" lon="2.32794">
        <ele>135.6</ele>
        <time>2023-12-20T15:28:01Z</time>
      </trkpt>
      <trkpt lat="50.03109" lon="2.32793">
        <ele>135.6</ele>
        <time>2023-12-20T15:28:02Z</time>
      </trkpt>
      <trkpt lat="50.03109" lon="2.32791">
        <ele>135.6</ele>
        <time>2023-12-20T15:28:03Z</time>
      </trkpt>
      <trkpt lat="50.03108" lon="2.3279">
        <ele>135.6</ele>
        <time>2023-12-20T15:28:04Z</time>
      </trkpt>
      <trkpt lat="50.03107" lon="2.32789">
        <ele>135.6</ele>
        <time>2023-12-20T15:28:05Z</time>
      </trkpt>
      <trkpt lat="50.03107" lon="2.32788">
        <ele>135.6</ele>
        <time>2023-12-20T15:28:06Z</time>
      </trkpt>
      <trkpt lat="50.03106" lon="2.32787">
        <ele>135.6</ele>
        <time>2023-12-20T15:28:07Z</time>
      </trkpt>
      <trkpt lat="50.03105" lon="2.32786">
        <ele>135.6</ele>
        <time>2023-12-20T15:28:08Z</time>
      </trkpt>
      <trkpt lat="50.03105" lon="2.32785">
        <ele>135.6</ele>
        <time>2023-12-20T15:28:09Z</time>
      </trkpt>
      <trkpt lat="50.03104" lon="2.32784">
        <ele>135.6</ele>
        <time>2023-12-20T15:28:11Z</time>
      </trkpt>
      <trkpt lat="50.03104" lon="2.32783">
        <ele>135.6</ele>
        <time>2023-12-20T15:28:12Z</time>
      </trkpt>
      <trkpt lat="50.03103" lon="2.32782">
        <ele>135.6</ele>
        <time>2023-12-20T15:28:13Z</time>
      </trkpt>
      <trkpt lat="50.03102" lon="2.3278">
        <ele>135.6</ele>
        <time>2023-12-20T15:28:15Z</time>
      </trkpt>
      <trkpt lat="50.03101" lon="2.32779">
        <ele>135.5</ele>
        <time>2023-12-20T15:28:16Z</time>
      </trkpt>
      <trkpt lat="50.031" lon="2.32777">
        <ele>135.5</ele>
        <time>2023-12-20T15:28:17Z</time>
      </trkpt>
      <trkpt lat="50.03099" lon="2.32776">
        <ele>135.5</ele>
        <time>2023-12-20T15:28:18Z</time>
      </trkpt>
      <trkpt lat="50.03098" lon="2.32775">
        <ele>135.5</ele>
        <time>2023-12-20T15:28:19Z</time>
      </trkpt>
      <trkpt lat="50.03098" lon="2.32773">
        <ele>135.5</ele>
        <time>2023-12-20T15:28:20Z</time>
      </trkpt>
      <trkpt lat="50.03097" lon="2.32772">
        <ele>135.5</ele>
        <time>2023-12-20T15:28:21Z</time>
      </trkpt>
      <trkpt lat="50.03097" lon="2.3277">
        <ele>135.5</ele>
        <time>2023-12-20T15:28:22Z</time>
      </trkpt>
      <trkpt lat="50.03096" lon="2.32768">
        <ele>135.5</ele>
        <time>2023-12-20T15:28:24Z</time>
      </trkpt>
      <trkpt lat="50.03096" lon="2.32766">
        <ele>135.4</ele>
        <time>2023-12-20T15:28:25Z</time>
      </trkpt>
      <trkpt lat="50.03095" lon="2.32765">
        <ele>135.4</ele>
        <time>2023-12-20T15:28:26Z</time>
      </trkpt>
      <trkpt lat="50.03095" lon="2.32763">
        <ele>135.4</ele>
        <time>2023-12-20T15:28:27Z</time>
      </trkpt>
      <trkpt lat="50.03094" lon="2.32761">
        <ele>135.4</ele>
        <time>2023-12-20T15:28:28Z</time>
      </trkpt>
      <trkpt lat="50.03093" lon="2.32759">
        <ele>135.4</ele>
        <time>2023-12-20T15:28:29Z</time>
      </trkpt>
      <trkpt lat="50.03093" lon="2.32757">
        <ele>135.4</ele>
        <time>2023-12-20T15:28:30Z</time>
      </trkpt>
      <trkpt lat="50.03092" lon="2.32755">
        <ele>135.4</ele>
        <time>2023-12-20T15:28:31Z</time>
      </trkpt>
      <trkpt lat="50.03092" lon="2.32754">
        <ele>135.3</ele>
        <time>2023-12-20T15:28:33Z</time>
      </trkpt>
      <trkpt lat="50.03091" lon="2.32752">
        <ele>135.3</ele>
        <time>2023-12-20T15:28:34Z</time>
      </trkpt>
      <trkpt lat="50.0309" lon="2.32749">
        <ele>135.3</ele>
        <time>2023-12-20T15:28:35Z</time>
      </trkpt>
      <trkpt lat="50.0309" lon="2.32748">
        <ele>135.3</ele>
        <time>2023-12-20T15:28:36Z</time>
      </trkpt>
      <trkpt lat="50.0309" lon="2.32747">
        <ele>135.3</ele>
        <time>2023-12-20T15:28:37Z</time>
      </trkpt>
      <trkpt lat="50.03089" lon="2.32744">
        <ele>135.3</ele>
        <time>2023-12-20T15:28:38Z</time>
      </trkpt>
      <trkpt lat="50.03088" lon="2.32743">
        <ele>135.3</ele>
        <time>2023-12-20T15:28:39Z</time>
      </trkpt>
      <trkpt lat="50.03088" lon="2.32741">
        <ele>135.3</ele>
        <time>2023-12-20T15:28:40Z</time>
      </trkpt>
      <trkpt lat="50.03087" lon="2.32739">
        <ele>135.3</ele>
        <time>2023-12-20T15:28:41Z</time>
      </trkpt>
      <trkpt lat="50.03086" lon="2.32738">
        <ele>135.3</ele>
        <time>2023-12-20T15:28:43Z</time>
      </trkpt>
      <trkpt lat="50.03086" lon="2.32737">
        <ele>135.3</ele>
        <time>2023-12-20T15:28:44Z</time>
      </trkpt>
      <trkpt lat="50.03085" lon="2.32734">
        <ele>135.3</ele>
        <time>2023-12-20T15:28:45Z</time>
      </trkpt>
      <trkpt lat="50.03084" lon="2.32733">
        <ele>135.3</ele>
        <time>2023-12-20T15:28:46Z</time>
      </trkpt>
      <trkpt lat="50.03084" lon="2.32732">
        <ele>135.3</ele>
        <time>2023-12-20T15:28:47Z</time>
      </trkpt>
      <trkpt lat="50.03083" lon="2.3273">
        <ele>135.3</ele>
        <time>2023-12-20T15:28:48Z</time>
      </trkpt>
      <trkpt lat="50.03082" lon="2.32729">
        <ele>135.3</ele>
        <time>2023-12-20T15:28:49Z</time>
      </trkpt>
      <trkpt lat="50.03081" lon="2.32727">
        <ele>135.2</ele>
        <time>2023-12-20T15:28:51Z</time>
      </trkpt>
      <trkpt lat="50.03081" lon="2.32726">
        <ele>135.2</ele>
        <time>2023-12-20T15:28:52Z</time>
      </trkpt>
      <trkpt lat="50.0308" lon="2.32725">
        <ele>135.2</ele>
        <time>2023-12-20T15:28:53Z</time>
      </trkpt>
      <trkpt lat="50.03079" lon="2.32723">
        <ele>135.2</ele>
        <time>2023-12-20T15:28:54Z</time>
      </trkpt>
      <trkpt lat="50.03078" lon="2.32722">
        <ele>135.2</ele>
        <time>2023-12-20T15:28:55Z</time>
      </trkpt>
      <trkpt lat="50.03077" lon="2.32721">
        <ele>135.2</ele>
        <time>2023-12-20T15:28:56Z</time>
      </trkpt>
      <trkpt lat="50.03077" lon="2.32719">
        <ele>135.2</ele>
        <time>2023-12-20T15:28:58Z</time>
      </trkpt>
      <trkpt lat="50.03075" lon="2.32717">
        <ele>135.2</ele>
        <time>2023-12-20T15:28:59Z</time>
      </trkpt>
      <trkpt lat="50.03074" lon="2.32716">
        <ele>135.2</ele>
        <time>2023-12-20T15:29:00Z</time>
      </trkpt>
      <trkpt lat="50.03074" lon="2.32715">
        <ele>135.2</ele>
        <time>2023-12-20T15:29:01Z</time>
      </trkpt>
      <trkpt lat="50.03073" lon="2.32714">
        <ele>135.2</ele>
        <time>2023-12-20T15:29:02Z</time>
      </trkpt>
      <trkpt lat="50.03072" lon="2.32712">
        <ele>135.2</ele>
        <time>2023-12-20T15:29:03Z</time>
      </trkpt>
      <trkpt lat="50.03072" lon="2.32711">
        <ele>135.2</ele>
        <time>2023-12-20T15:29:04Z</time>
      </trkpt>
      <trkpt lat="50.0307" lon="2.32708">
        <ele>135.2</ele>
        <time>2023-12-20T15:29:05Z</time>
      </trkpt>
      <trkpt lat="50.0307" lon="2.32707">
        <ele>135.2</ele>
        <time>2023-12-20T15:29:07Z</time>
      </trkpt>
      <trkpt lat="50.0307" lon="2.32706">
        <ele>135.2</ele>
        <time>2023-12-20T15:29:08Z</time>
      </trkpt>
      <trkpt lat="50.03068" lon="2.32703">
        <ele>135.2</ele>
        <time>2023-12-20T15:29:09Z</time>
      </trkpt>
      <trkpt lat="50.03068" lon="2.32702">
        <ele>135.2</ele>
        <time>2023-12-20T15:29:10Z</time>
      </trkpt>
      <trkpt lat="50.03068" lon="2.32701">
        <ele>135.2</ele>
        <time>2023-12-20T15:29:11Z</time>
      </trkpt>
      <trkpt lat="50.03067" lon="2.32698">
        <ele>135.2</ele>
        <time>2023-12-20T15:29:13Z</time>
      </trkpt>
      <trkpt lat="50.03067" lon="2.32697">
        <ele>135.2</ele>
        <time>2023-12-20T15:29:14Z</time>
      </trkpt>
      <trkpt lat="50.03067" lon="2.32695">
        <ele>135.2</ele>
        <time>2023-12-20T15:29:15Z</time>
      </trkpt>
      <trkpt lat="50.03066" lon="2.32693">
        <ele>135.2</ele>
        <time>2023-12-20T15:29:16Z</time>
      </trkpt>
      <trkpt lat="50.03065" lon="2.32692">
        <ele>135.2</ele>
        <time>2023-12-20T15:29:17Z</time>
      </trkpt>
      <trkpt lat="50.03064" lon="2.3269">
        <ele>135.2</ele>
        <time>2023-12-20T15:29:18Z</time>
      </trkpt>
      <trkpt lat="50.03064" lon="2.32688">
        <ele>135.2</ele>
        <time>2023-12-20T15:29:19Z</time>
      </trkpt>
      <trkpt lat="50.03063" lon="2.32687">
        <ele>135.2</ele>
        <time>2023-12-20T15:29:20Z</time>
      </trkpt>
      <trkpt lat="50.03062" lon="2.32685">
        <ele>135.2</ele>
        <time>2023-12-20T15:29:21Z</time>
      </trkpt>
      <trkpt lat="50.03061" lon="2.32684">
        <ele>135.2</ele>
        <time>2023-12-20T15:29:23Z</time>
      </trkpt>
      <trkpt lat="50.0306" lon="2.32683">
        <ele>135.2</ele>
        <time>2023-12-20T15:29:24Z</time>
      </trkpt>
      <trkpt lat="50.0306" lon="2.32682">
        <ele>135.2</ele>
        <time>2023-12-20T15:29:25Z</time>
      </trkpt>
      <trkpt lat="50.03059" lon="2.3268">
        <ele>135.2</ele>
        <time>2023-12-20T15:29:26Z</time>
      </trkpt>
      <trkpt lat="50.03058" lon="2.32679">
        <ele>135.2</ele>
        <time>2023-12-20T15:29:27Z</time>
      </trkpt>
      <trkpt lat="50.03057" lon="2.32677">
        <ele>135.2</ele>
        <time>2023-12-20T15:29:28Z</time>
      </trkpt>
      <trkpt lat="50.03056" lon="2.32676">
        <ele>135.2</ele>
        <time>2023-12-20T15:29:29Z</time>
      </trkpt>
      <trkpt lat="50.03055" lon="2.32675">
        <ele>135.3</ele>
        <time>2023-12-20T15:29:30Z</time>
      </trkpt>
      <trkpt lat="50.03054" lon="2.32675">
        <ele>135.3</ele>
        <time>2023-12-20T15:29:32Z</time>
      </trkpt>
      <trkpt lat="50.03053" lon="2.32674">
        <ele>135.3</ele>
        <time>2023-12-20T15:29:33Z</time>
      </trkpt>
      <trkpt lat="50.03053" lon="2.32673">
        <ele>135.3</ele>
        <time>2023-12-20T15:29:34Z</time>
      </trkpt>
      <trkpt lat="50.03052" lon="2.32672">
        <ele>135.3</ele>
        <time>2023-12-20T15:29:35Z</time>
      </trkpt>
      <trkpt lat="50.03051" lon="2.32671">
        <ele>135.3</ele>
        <time>2023-12-20T15:29:36Z</time>
      </trkpt>
      <trkpt lat="50.0305" lon="2.3267">
        <ele>135.3</ele>
        <time>2023-12-20T15:29:37Z</time>
      </trkpt>
      <trkpt lat="50.03049" lon="2.32669">
        <ele>135.3</ele>
        <time>2023-12-20T15:29:38Z</time>
      </trkpt>
      <trkpt lat="50.03048" lon="2.32668">
        <ele>135.3</ele>
        <time>2023-12-20T15:29:39Z</time>
      </trkpt>
      <trkpt lat="50.03048" lon="2.32667">
        <ele>135.3</ele>
        <time>2023-12-20T15:29:40Z</time>
      </trkpt>
      <trkpt lat="50.03047" lon="2.32666">
        <ele>135.3</ele>
        <time>2023-12-20T15:29:42Z</time>
      </trkpt>
      <trkpt lat="50.03046" lon="2.32665">
        <ele>135.3</ele>
        <time>2023-12-20T15:29:43Z</time>
      </trkpt>
      <trkpt lat="50.03045" lon="2.32664">
        <ele>135.3</ele>
        <time>2023-12-20T15:29:44Z</time>
      </trkpt>
      <trkpt lat="50.03044" lon="2.32663">
        <ele>135.3</ele>
        <time>2023-12-20T15:29:45Z</time>
      </trkpt>
      <trkpt lat="50.03043" lon="2.32662">
        <ele>135.3</ele>
        <time>2023-12-20T15:29:46Z</time>
      </trkpt>
      <trkpt lat="50.03042" lon="2.32661">
        <ele>135.3</ele>
        <time>2023-12-20T15:29:47Z</time>
      </trkpt>
      <trkpt lat="50.03041" lon="2.3266">
        <ele>135.3</ele>
        <time>2023-12-20T15:29:48Z</time>
      </trkpt>
      <trkpt lat="50.0304" lon="2.32659">
        <ele>135.3</ele>
        <time>2023-12-20T15:29:50Z</time>
      </trkpt>
      <trkpt lat="50.03039" lon="2.32658">
        <ele>135.3</ele>
        <time>2023-12-20T15:29:51Z</time>
      </trkpt>
      <trkpt lat="50.03038" lon="2.32657">
        <ele>135.3</ele>
        <time>2023-12-20T15:29:52Z</time>
      </trkpt>
      <trkpt lat="50.03037" lon="2.32657">
        <ele>135.4</ele>
        <time>2023-12-20T15:29:53Z</time>
      </trkpt>
      <trkpt lat="50.03036" lon="2.32657">
        <ele>135.4</ele>
        <time>2023-12-20T15:29:54Z</time>
      </trkpt>
      <trkpt lat="50.03035" lon="2.32658">
        <ele>135.4</ele>
        <time>2023-12-20T15:29:56Z</time>
      </trkpt>
      <trkpt lat="50.03035" lon="2.32659">
        <ele>135.4</ele>
        <time>2023-12-20T15:29:58Z</time>
      </trkpt>
      <trkpt lat="50.03035" lon="2.32659">
        <ele>135.4</ele>
        <time>2023-12-20T15:29:59Z</time>
      </trkpt>
      <trkpt lat="50.03035" lon="2.32659">
        <ele>135.4</ele>
        <time>2023-12-20T15:30:01Z</time>
      </trkpt>
      <trkpt lat="50.03035" lon="2.3266">
        <ele>135.4</ele>
        <time>2023-12-20T15:30:02Z</time>
      </trkpt>
      <trkpt lat="50.03035" lon="2.3266">
        <ele>135.4</ele>
        <time>2023-12-20T15:30:03Z</time>
      </trkpt>
      <trkpt lat="50.03035" lon="2.3266">
        <ele>135.4</ele>
        <time>2023-12-20T15:30:05Z</time>
      </trkpt>
      <trkpt lat="50.03035" lon="2.3266">
        <ele>135.4</ele>
        <time>2023-12-20T15:30:06Z</time>
      </trkpt>
      <trkpt lat="50.03035" lon="2.3266">
        <ele>135.4</ele>
        <time>2023-12-20T15:30:07Z</time>
      </trkpt>
      <trkpt lat="50.03035" lon="2.32659">
        <ele>135.4</ele>
        <time>2023-12-20T15:30:09Z</time>
      </trkpt>
      <trkpt lat="50.03034" lon="2.32659">
        <ele>135.4</ele>
        <time>2023-12-20T15:30:10Z</time>
      </trkpt>
      <trkpt lat="50.03034" lon="2.32658">
        <ele>135.4</ele>
        <time>2023-12-20T15:30:11Z</time>
      </trkpt>
      <trkpt lat="50.03033" lon="2.32658">
        <ele>135.4</ele>
        <time>2023-12-20T15:30:12Z</time>
      </trkpt>
      <trkpt lat="50.03032" lon="2.32657">
        <ele>135.4</ele>
        <time>2023-12-20T15:30:13Z</time>
      </trkpt>
      <trkpt lat="50.03032" lon="2.32655">
        <ele>135.4</ele>
        <time>2023-12-20T15:30:14Z</time>
      </trkpt>
      <trkpt lat="50.03032" lon="2.32654">
        <ele>135.4</ele>
        <time>2023-12-20T15:30:16Z</time>
      </trkpt>
      <trkpt lat="50.03033" lon="2.32652">
        <ele>135.4</ele>
        <time>2023-12-20T15:30:17Z</time>
      </trkpt>
      <trkpt lat="50.03034" lon="2.32653">
        <ele>135.4</ele>
        <time>2023-12-20T15:30:19Z</time>
      </trkpt>
      <trkpt lat="50.03034" lon="2.32654">
        <ele>135.5</ele>
        <time>2023-12-20T15:30:20Z</time>
      </trkpt>
      <trkpt lat="50.03035" lon="2.32655">
        <ele>135.5</ele>
        <time>2023-12-20T15:30:21Z</time>
      </trkpt>
      <trkpt lat="50.03035" lon="2.32655">
        <ele>135.5</ele>
        <time>2023-12-20T15:30:22Z</time>
      </trkpt>
      <trkpt lat="50.03035" lon="2.32655">
        <ele>135.5</ele>
        <time>2023-12-20T15:30:25Z</time>
      </trkpt>
      <trkpt lat="50.03035" lon="2.32655">
        <ele>135.5</ele>
        <time>2023-12-20T15:30:26Z</time>
      </trkpt>
      <trkpt lat="50.03035" lon="2.32655">
        <ele>135.5</ele>
        <time>2023-12-20T15:30:27Z</time>
      </trkpt>
      <trkpt lat="50.03034" lon="2.32655">
        <ele>135.5</ele>
        <time>2023-12-20T15:30:28Z</time>
      </trkpt>
      <trkpt lat="50.03034" lon="2.32655">
        <ele>135.5</ele>
        <time>2023-12-20T15:30:29Z</time>
      </trkpt>
      <trkpt lat="50.03034" lon="2.32655">
        <ele>135.5</ele>
        <time>2023-12-20T15:30:30Z</time>
      </trkpt>
      <trkpt lat="50.03034" lon="2.32655">
        <ele>135.5</ele>
        <time>2023-12-20T15:30:33Z</time>
      </trkpt>
      <trkpt lat="50.03034" lon="2.32654">
        <ele>135.5</ele>
        <time>2023-12-20T15:30:34Z</time>
      </trkpt>
      <trkpt lat="50.03034" lon="2.32654">
        <ele>135.5</ele>
        <time>2023-12-20T15:30:36Z</time>
      </trkpt>
      <trkpt lat="50.03032" lon="2.32653">
        <ele>135.5</ele>
        <time>2023-12-20T15:30:54Z</time>
      </trkpt>
      <trkpt lat="50.03032" lon="2.32652">
        <ele>135.5</ele>
        <time>2023-12-20T15:30:55Z</time>
      </trkpt>
      <trkpt lat="50.03032" lon="2.32651">
        <ele>135.5</ele>
        <time>2023-12-20T15:30:56Z</time>
      </trkpt>
      <trkpt lat="50.03032" lon="2.32651">
        <ele>135.5</ele>
        <time>2023-12-20T15:30:58Z</time>
      </trkpt>
      <trkpt lat="50.03032" lon="2.3265">
        <ele>135.5</ele>
        <time>2023-12-20T15:30:59Z</time>
      </trkpt>
      <trkpt lat="50.03032" lon="2.32649">
        <ele>135.5</ele>
        <time>2023-12-20T15:31:00Z</time>
      </trkpt>
      <trkpt lat="50.03032" lon="2.32649">
        <ele>135.5</ele>
        <time>2023-12-20T15:31:01Z</time>
      </trkpt>
      <trkpt lat="50.03033" lon="2.3265">
        <ele>135.5</ele>
        <time>2023-12-20T15:31:03Z</time>
      </trkpt>
      <trkpt lat="50.03033" lon="2.32651">
        <ele>135.5</ele>
        <time>2023-12-20T15:31:05Z</time>
      </trkpt>
      <trkpt lat="50.03033" lon="2.32651">
        <ele>135.5</ele>
        <time>2023-12-20T15:31:06Z</time>
      </trkpt>
      <trkpt lat="50.03033" lon="2.32651">
        <ele>135.5</ele>
        <time>2023-12-20T15:31:07Z</time>
      </trkpt>
      <trkpt lat="50.03033" lon="2.32651">
        <ele>135.5</ele>
        <time>2023-12-20T15:31:08Z</time>
      </trkpt>
      <trkpt lat="50.03033" lon="2.32651">
        <ele>135.5</ele>
        <time>2023-12-20T15:31:09Z</time>
      </trkpt>
      <trkpt lat="50.03033" lon="2.32651">
        <ele>135.5</ele>
        <time>2023-12-20T15:31:10Z</time>
      </trkpt>
      <trkpt lat="50.03032" lon="2.3265">
        <ele>135.6</ele>
        <time>2023-12-20T15:31:11Z</time>
      </trkpt>
      <trkpt lat="50.03032" lon="2.32649">
        <ele>135.6</ele>
        <time>2023-12-20T15:31:12Z</time>
      </trkpt>
      <trkpt lat="50.03032" lon="2.32649">
        <ele>135.6</ele>
        <time>2023-12-20T15:31:14Z</time>
      </trkpt>
      <trkpt lat="50.03032" lon="2.32648">
        <ele>135.6</ele>
        <time>2023-12-20T15:31:15Z</time>
      </trkpt>
      <trkpt lat="50.03032" lon="2.32647">
        <ele>135.6</ele>
        <time>2023-12-20T15:31:16Z</time>
      </trkpt>
      <trkpt lat="50.03032" lon="2.32645">
        <ele>135.6</ele>
        <time>2023-12-20T15:31:17Z</time>
      </trkpt>
      <trkpt lat="50.03033" lon="2.32644">
        <ele>135.6</ele>
        <time>2023-12-20T15:31:18Z</time>
      </trkpt>
      <trkpt lat="50.03033" lon="2.32643">
        <ele>135.6</ele>
        <time>2023-12-20T15:31:19Z</time>
      </trkpt>
      <trkpt lat="50.03033" lon="2.32642">
        <ele>135.6</ele>
        <time>2023-12-20T15:31:21Z</time>
      </trkpt>
      <trkpt lat="50.03034" lon="2.3264">
        <ele>135.6</ele>
        <time>2023-12-20T15:31:22Z</time>
      </trkpt>
      <trkpt lat="50.03034" lon="2.32639">
        <ele>135.6</ele>
        <time>2023-12-20T15:31:23Z</time>
      </trkpt>
      <trkpt lat="50.03034" lon="2.32639">
        <ele>135.6</ele>
        <time>2023-12-20T15:31:25Z</time>
      </trkpt>
      <trkpt lat="50.03034" lon="2.32639">
        <ele>135.6</ele>
        <time>2023-12-20T15:31:26Z</time>
      </trkpt>
      <trkpt lat="50.03034" lon="2.3264">
        <ele>135.6</ele>
        <time>2023-12-20T15:31:28Z</time>
      </trkpt>
      <trkpt lat="50.03033" lon="2.3264">
        <ele>135.6</ele>
        <time>2023-12-20T15:31:31Z</time>
      </trkpt>
      <trkpt lat="50.03033" lon="2.3264">
        <ele>135.6</ele>
        <time>2023-12-20T15:31:33Z</time>
      </trkpt>
      <trkpt lat="50.03033" lon="2.3264">
        <ele>135.6</ele>
        <time>2023-12-20T15:31:34Z</time>
      </trkpt>
      <trkpt lat="50.03032" lon="2.3264">
        <ele>135.6</ele>
        <time>2023-12-20T15:31:35Z</time>
      </trkpt>
      <trkpt lat="50.03032" lon="2.32639">
        <ele>135.7</ele>
        <time>2023-12-20T15:31:37Z</time>
      </trkpt>
      <trkpt lat="50.03032" lon="2.32639">
        <ele>135.7</ele>
        <time>2023-12-20T15:31:39Z</time>
      </trkpt>
      <trkpt lat="50.03032" lon="2.32639">
        <ele>135.7</ele>
        <time>2023-12-20T15:31:40Z</time>
      </trkpt>
      <trkpt lat="50.03032" lon="2.3264">
        <ele>135.7</ele>
        <time>2023-12-20T15:31:41Z</time>
      </trkpt>
      <trkpt lat="50.03033" lon="2.32634">
        <ele>135.7</ele>
        <time>2023-12-20T15:31:57Z</time>
      </trkpt>
      <trkpt lat="50.03034" lon="2.32633">
        <ele>135.7</ele>
        <time>2023-12-20T15:31:58Z</time>
      </trkpt>
      <trkpt lat="50.03035" lon="2.32632">
        <ele>135.7</ele>
        <time>2023-12-20T15:32:00Z</time>
      </trkpt>
      <trkpt lat="50.03034" lon="2.3263">
        <ele>135.7</ele>
        <time>2023-12-20T15:32:02Z</time>
      </trkpt>
      <trkpt lat="50.03034" lon="2.3263">
        <ele>135.7</ele>
        <time>2023-12-20T15:32:05Z</time>
      </trkpt>
      <trkpt lat="50.03034" lon="2.3263">
        <ele>135.7</ele>
        <time>2023-12-20T15:32:06Z</time>
      </trkpt>
      <trkpt lat="50.03034" lon="2.3263">
        <ele>135.7</ele>
        <time>2023-12-20T15:32:09Z</time>
      </trkpt>
      <trkpt lat="50.03034" lon="2.32631">
        <ele>135.7</ele>
        <time>2023-12-20T15:32:12Z</time>
      </trkpt>
      <trkpt lat="50.03034" lon="2.32631">
        <ele>135.7</ele>
        <time>2023-12-20T15:32:13Z</time>
      </trkpt>
      <trkpt lat="50.03034" lon="2.32631">
        <ele>135.7</ele>
        <time>2023-12-20T15:32:15Z</time>
      </trkpt>
      <trkpt lat="50.03034" lon="2.32631">
        <ele>135.7</ele>
        <time>2023-12-20T15:32:17Z</time>
      </trkpt>
      <trkpt lat="50.03033" lon="2.32629">
        <ele>135.7</ele>
        <time>2023-12-20T15:33:55Z</time>
      </trkpt>
      <trkpt lat="50.03033" lon="2.32629">
        <ele>135.8</ele>
        <time>2023-12-20T15:33:57Z</time>
      </trkpt>
      <trkpt lat="50.03033" lon="2.32629">
        <ele>135.8</ele>
        <time>2023-12-20T15:33:58Z</time>
      </trkpt>
      <trkpt lat="50.03033" lon="2.32629">
        <ele>135.8</ele>
        <time>2023-12-20T15:34:00Z</time>
      </trkpt>
      <trkpt lat="50.03033" lon="2.32629">
        <ele>135.8</ele>
        <time>2023-12-20T15:34:01Z</time>
      </trkpt>
      <trkpt lat="50.03034" lon="2.3263">
        <ele>135.8</ele>
        <time>2023-12-20T15:34:02Z</time>
      </trkpt>
      <trkpt lat="50.03033" lon="2.32629">
        <ele>135.8</ele>
        <time>2023-12-20T15:34:03Z</time>
      </trkpt>
      <trkpt lat="50.03033" lon="2.32629">
        <ele>135.8</ele>
        <time>2023-12-20T15:34:04Z</time>
      </trkpt>
      <trkpt lat="50.03033" lon="2.32629">
        <ele>135.8</ele>
        <time>2023-12-20T15:34:05Z</time>
      </trkpt>
      <trkpt lat="50.03033" lon="2.32629">
        <ele>135.8</ele>
        <time>2023-12-20T15:34:07Z</time>
      </trkpt>
      <trkpt lat="50.03033" lon="2.32629">
        <ele>135.8</ele>
        <time>2023-12-20T15:34:08Z</time>
      </trkpt>
      <trkpt lat="50.03033" lon="2.32629">
        <ele>135.8</ele>
        <time>2023-12-20T15:34:09Z</time>
      </trkpt>
      <trkpt lat="50.03033" lon="2.32629">
        <ele>135.8</ele>
        <time>2023-12-20T15:34:10Z</time>
      </trkpt>
      <trkpt lat="50.03033" lon="2.32629">
        <ele>135.8</ele>
        <time>2023-12-20T15:34:11Z</time>
      </trkpt>
      <trkpt lat="50.03033" lon="2.3263">
        <ele>135.8</ele>
        <time>2023-12-20T15:34:12Z</time>
      </trkpt>
      <trkpt lat="50.03033" lon="2.3263">
        <ele>135.8</ele>
        <time>2023-12-20T15:34:13Z</time>
      </trkpt>
      <trkpt lat="50.03033" lon="2.3263">
        <ele>135.8</ele>
        <time>2023-12-20T15:34:14Z</time>
      </trkpt>
      <trkpt lat="50.03033" lon="2.3263">
        <ele>135.8</ele>
        <time>2023-12-20T15:34:15Z</time>
      </trkpt>
      <trkpt lat="50.03033" lon="2.3263">
        <ele>135.8</ele>
        <time>2023-12-20T15:34:18Z</time>
      </trkpt>
      <trkpt lat="50.03033" lon="2.32631">
        <ele>135.8</ele>
        <time>2023-12-20T15:34:20Z</time>
      </trkpt>
      <trkpt lat="50.03033" lon="2.32631">
        <ele>135.8</ele>
        <time>2023-12-20T15:34:22Z</time>
      </trkpt>
      <trkpt lat="50.03034" lon="2.32629">
        <ele>135.8</ele>
        <time>2023-12-20T15:36:21Z</time>
      </trkpt>
      <trkpt lat="50.03034" lon="2.3263">
        <ele>135.8</ele>
        <time>2023-12-20T15:36:22Z</time>
      </trkpt>
      <trkpt lat="50.03033" lon="2.32629">
        <ele>135.8</ele>
        <time>2023-12-20T15:36:23Z</time>
      </trkpt>
      <trkpt lat="50.03033" lon="2.32629">
        <ele>135.8</ele>
        <time>2023-12-20T15:36:24Z</time>
      </trkpt>
      <trkpt lat="50.03032" lon="2.32629">
        <ele>135.8</ele>
        <time>2023-12-20T15:36:26Z</time>
      </trkpt>
      <trkpt lat="50.03033" lon="2.32629">
        <ele>135.8</ele>
        <time>2023-12-20T15:36:27Z</time>
      </trkpt>
      <trkpt lat="50.03033" lon="2.32629">
        <ele>135.8</ele>
        <time>2023-12-20T15:36:28Z</time>
      </trkpt>
      <trkpt lat="50.03032" lon="2.3263">
        <ele>135.8</ele>
        <time>2023-12-20T15:36:31Z</time>
      </trkpt>
      <trkpt lat="50.03032" lon="2.32629">
        <ele>135.8</ele>
        <time>2023-12-20T15:36:32Z</time>
      </trkpt>
      <trkpt lat="50.03032" lon="2.32629">
        <ele>135.8</ele>
        <time>2023-12-20T15:36:34Z</time>
      </trkpt>
      <trkpt lat="50.03032" lon="2.32629">
        <ele>135.8</ele>
        <time>2023-12-20T15:36:35Z</time>
      </trkpt>
      <trkpt lat="50.03031" lon="2.3263">
        <ele>135.8</ele>
        <time>2023-12-20T15:36:36Z</time>
      </trkpt>
      <trkpt lat="50.03032" lon="2.3263">
        <ele>135.8</ele>
        <time>2023-12-20T15:36:38Z</time>
      </trkpt>
      <trkpt lat="50.03032" lon="2.3263">
        <ele>135.8</ele>
        <time>2023-12-20T15:36:40Z</time>
      </trkpt>
      <trkpt lat="50.03032" lon="2.3263">
        <ele>135.8</ele>
        <time>2023-12-20T15:36:41Z</time>
      </trkpt>
      <trkpt lat="50.03032" lon="2.3263">
        <ele>135.8</ele>
        <time>2023-12-20T15:36:43Z</time>
      </trkpt>
      <trkpt lat="50.03032" lon="2.3263">
        <ele>135.8</ele>
        <time>2023-12-20T15:36:44Z</time>
      </trkpt>
      <trkpt lat="50.03032" lon="2.32629">
        <ele>135.8</ele>
        <time>2023-12-20T15:36:45Z</time>
      </trkpt>
      <trkpt lat="50.03032" lon="2.32629">
        <ele>135.8</ele>
        <time>2023-12-20T15:36:47Z</time>
      </trkpt>
      <trkpt lat="50.03031" lon="2.32628">
        <ele>135.8</ele>
        <time>2023-12-20T15:36:48Z</time>
      </trkpt>
      <trkpt lat="50.03031" lon="2.32628">
        <ele>135.8</ele>
        <time>2023-12-20T15:36:49Z</time>
      </trkpt>
      <trkpt lat="50.03031" lon="2.32627">
        <ele>135.9</ele>
        <time>2023-12-20T15:44:07Z</time>
      </trkpt>
      <trkpt lat="50.03031" lon="2.32627">
        <ele>135.9</ele>
        <time>2023-12-20T15:44:08Z</time>
      </trkpt>
      <trkpt lat="50.0303" lon="2.32627">
        <ele>135.9</ele>
        <time>2023-12-20T15:44:09Z</time>
      </trkpt>
      <trkpt lat="50.0303" lon="2.32627">
        <ele>135.9</ele>
        <time>2023-12-20T15:44:10Z</time>
      </trkpt>
      <trkpt lat="50.0303" lon="2.32627">
        <ele>135.9</ele>
        <time>2023-12-20T15:44:11Z</time>
      </trkpt>
      <trkpt lat="50.0303" lon="2.32627">
        <ele>135.9</ele>
        <time>2023-12-20T15:44:13Z</time>
      </trkpt>
      <trkpt lat="50.03031" lon="2.32627">
        <ele>135.9</ele>
        <time>2023-12-20T15:44:14Z</time>
      </trkpt>
      <trkpt lat="50.03031" lon="2.32627">
        <ele>135.9</ele>
        <time>2023-12-20T15:44:15Z</time>
      </trkpt>
      <trkpt lat="50.03031" lon="2.32627">
        <ele>135.9</ele>
        <time>2023-12-20T15:44:16Z</time>
      </trkpt>
      <trkpt lat="50.03031" lon="2.32627">
        <ele>135.9</ele>
        <time>2023-12-20T15:44:18Z</time>
      </trkpt>
      <trkpt lat="50.03031" lon="2.32627">
        <ele>135.9</ele>
        <time>2023-12-20T15:44:20Z</time>
      </trkpt>
      <trkpt lat="50.03031" lon="2.32627">
        <ele>135.9</ele>
        <time>2023-12-20T15:44:21Z</time>
      </trkpt>
      <trkpt lat="50.03031" lon="2.32627">
        <ele>135.9</ele>
        <time>2023-12-20T15:44:22Z</time>
      </trkpt>
    </trkseg>
  </trk>
</gpx>